<?xml version='1.0' encoding='UTF-8'?><gpx version="1.1" creator="JPX - https://github.com/jenetics/jpx" xmlns="http://www.topografix.com/GPX/1/1"><trk><trkseg><trkpt lat="44.0488079" lon="12.5862597"><ele>3.9999999999999996</ele><time>2026-03-29T06:56:56.82Z</time></trkpt><trkpt lat="44.04886" lon="12.5861799"><ele>4.0</ele><time>2026-03-29T06:56:59.861Z</time></trkpt><trkpt lat="44.0488916" lon="12.5860717"><ele>4.0</ele><time>2026-03-29T06:57:07.574Z</time></trkpt><trkpt lat="44.0488619" lon="12.5859918"><ele>4.0</ele><time>2026-03-29T06:57:48.618Z</time></trkpt><trkpt lat="44.0488067" lon="12.5859183"><ele>3.9999999999999996</ele><time>2026-03-29T06:57:57.573Z</time></trkpt><trkpt lat="44.0489" lon="12.5858617"><ele>4.0</ele><time>2026-03-29T06:58:05.574Z</time></trkpt><trkpt lat="44.0489917" lon="12.5858817"><ele>4.0</ele><time>2026-03-29T06:58:16.574Z</time></trkpt><trkpt lat="44.0490867" lon="12.585925"><ele>4.0</ele><time>2026-03-29T06:58:19.574Z</time></trkpt><trkpt lat="44.048975" lon="12.585915"><ele>4.0</ele><time>2026-03-29T06:58:29.574Z</time></trkpt><trkpt lat="44.0489764" lon="12.5860088"><ele>4.0</ele><time>2026-03-29T06:58:50.628Z</time></trkpt><trkpt lat="44.0485372" lon="12.5865745"><ele>3.9999999999999996</ele><time>2026-03-29T06:58:58.574Z</time></trkpt><trkpt lat="44.0485002" lon="12.5867007"><ele>4.0</ele><time>2026-03-29T06:58:59.574Z</time></trkpt><trkpt lat="44.0485258" lon="12.586816"><ele>4.0</ele><time>2026-03-29T06:59:01.574Z</time></trkpt><trkpt lat="44.0486004" lon="12.5867749"><ele>4.0</ele><time>2026-03-29T06:59:03.573Z</time></trkpt><trkpt lat="44.0486655" lon="12.5867004"><ele>3.9999999999999996</ele><time>2026-03-29T06:59:04.573Z</time></trkpt><trkpt lat="44.0487274" lon="12.5866226"><ele>4.0</ele><time>2026-03-29T06:59:05.574Z</time></trkpt><trkpt lat="44.0487853" lon="12.5865464"><ele>3.9999999999999996</ele><time>2026-03-29T06:59:06.573Z</time></trkpt><trkpt lat="44.0488438" lon="12.5864732"><ele>4.0</ele><time>2026-03-29T06:59:07.574Z</time></trkpt><trkpt lat="44.0488968" lon="12.5864072"><ele>4.0</ele><time>2026-03-29T06:59:08.574Z</time></trkpt><trkpt lat="44.0489478" lon="12.586347"><ele>4.0</ele><time>2026-03-29T06:59:09.573Z</time></trkpt><trkpt lat="44.0490381" lon="12.5862421"><ele>3.9999999999999996</ele><time>2026-03-29T06:59:11.574Z</time></trkpt><trkpt lat="44.0491168" lon="12.5861547"><ele>4.0</ele><time>2026-03-29T06:59:13.573Z</time></trkpt><trkpt lat="44.0491615" lon="12.5860867"><ele>4.333333333333333</ele><time>2026-03-29T06:59:16.574Z</time></trkpt><trkpt lat="44.0491833" lon="12.58599"><ele>4.666666666666666</ele><time>2026-03-29T06:59:21.573Z</time></trkpt><trkpt lat="44.0491283" lon="12.5858617"><ele>5.0</ele><time>2026-03-29T06:59:23.573Z</time></trkpt><trkpt lat="44.049085" lon="12.58578"><ele>5.333333333333333</ele><time>2026-03-29T06:59:24.574Z</time></trkpt><trkpt lat="44.0490283" lon="12.58569"><ele>5.666666666666667</ele><time>2026-03-29T06:59:25.574Z</time></trkpt><trkpt lat="44.0489633" lon="12.585585"><ele>6.0</ele><time>2026-03-29T06:59:26.573Z</time></trkpt><trkpt lat="44.0488783" lon="12.5854633"><ele>6.333333333333334</ele><time>2026-03-29T06:59:27.574Z</time></trkpt><trkpt lat="44.0487817" lon="12.5853183"><ele>6.666666666666667</ele><time>2026-03-29T06:59:28.574Z</time></trkpt><trkpt lat="44.0486733" lon="12.5851633"><ele>7.0</ele><time>2026-03-29T06:59:29.574Z</time></trkpt><trkpt lat="44.0485533" lon="12.585005"><ele>7.0</ele><time>2026-03-29T06:59:30.574Z</time></trkpt><trkpt lat="44.0484467" lon="12.58485"><ele>7.0</ele><time>2026-03-29T06:59:31.574Z</time></trkpt><trkpt lat="44.0483517" lon="12.5847217"><ele>7.0</ele><time>2026-03-29T06:59:32.573Z</time></trkpt><trkpt lat="44.04827" lon="12.584605"><ele>7.0</ele><time>2026-03-29T06:59:33.573Z</time></trkpt><trkpt lat="44.0481867" lon="12.5845017"><ele>7.3999999999999995</ele><time>2026-03-29T06:59:34.574Z</time></trkpt><trkpt lat="44.0481067" lon="12.5843967"><ele>7.799999999999999</ele><time>2026-03-29T06:59:35.574Z</time></trkpt><trkpt lat="44.0480417" lon="12.584315"><ele>8.2</ele><time>2026-03-29T06:59:36.574Z</time></trkpt><trkpt lat="44.0479933" lon="12.5842517"><ele>8.6</ele><time>2026-03-29T06:59:37.574Z</time></trkpt><trkpt lat="44.047945" lon="12.5841283"><ele>9.0</ele><time>2026-03-29T06:59:39.574Z</time></trkpt><trkpt lat="44.0479733" lon="12.583945"><ele>9.0</ele><time>2026-03-29T06:59:41.574Z</time></trkpt><trkpt lat="44.0480717" lon="12.583815"><ele>9.0</ele><time>2026-03-29T06:59:42.574Z</time></trkpt><trkpt lat="44.0481617" lon="12.5836967"><ele>9.0</ele><time>2026-03-29T06:59:43.574Z</time></trkpt><trkpt lat="44.04825" lon="12.5835783"><ele>9.0</ele><time>2026-03-29T06:59:44.574Z</time></trkpt><trkpt lat="44.0483167" lon="12.583495"><ele>8.6</ele><time>2026-03-29T06:59:45.574Z</time></trkpt><trkpt lat="44.0483683" lon="12.5834367"><ele>8.2</ele><time>2026-03-29T06:59:46.574Z</time></trkpt><trkpt lat="44.0484217" lon="12.583335"><ele>7.799999999999999</ele><time>2026-03-29T06:59:48.574Z</time></trkpt><trkpt lat="44.0483483" lon="12.5831917"><ele>7.3999999999999995</ele><time>2026-03-29T06:59:50.573Z</time></trkpt><trkpt lat="44.0482867" lon="12.5831017"><ele>7.0</ele><time>2026-03-29T06:59:51.574Z</time></trkpt><trkpt lat="44.048215" lon="12.58299"><ele>7.0</ele><time>2026-03-29T06:59:52.574Z</time></trkpt><trkpt lat="44.0481383" lon="12.5828817"><ele>6.999999999999999</ele><time>2026-03-29T06:59:53.574Z</time></trkpt><trkpt lat="44.0480533" lon="12.5827733"><ele>6.999999999999999</ele><time>2026-03-29T06:59:54.574Z</time></trkpt><trkpt lat="44.04797" lon="12.5826817"><ele>7.0</ele><time>2026-03-29T06:59:55.574Z</time></trkpt><trkpt lat="44.0478817" lon="12.5825817"><ele>7.0</ele><time>2026-03-29T06:59:56.574Z</time></trkpt><trkpt lat="44.0477967" lon="12.582465"><ele>7.0</ele><time>2026-03-29T06:59:57.574Z</time></trkpt><trkpt lat="44.0477017" lon="12.582325"><ele>7.0</ele><time>2026-03-29T06:59:58.574Z</time></trkpt><trkpt lat="44.0475883" lon="12.5821783"><ele>7.0</ele><time>2026-03-29T06:59:59.574Z</time></trkpt><trkpt lat="44.0474833" lon="12.5820383"><ele>7.0</ele><time>2026-03-29T07:00:00.574Z</time></trkpt><trkpt lat="44.0473917" lon="12.5819233"><ele>7.000000000000001</ele><time>2026-03-29T07:00:01.573Z</time></trkpt><trkpt lat="44.04732" lon="12.5818367"><ele>7.0</ele><time>2026-03-29T07:00:02.574Z</time></trkpt><trkpt lat="44.0472683" lon="12.5817783"><ele>7.0</ele><time>2026-03-29T07:00:03.573Z</time></trkpt><trkpt lat="44.047215" lon="12.581715"><ele>7.0</ele><time>2026-03-29T07:00:05.574Z</time></trkpt><trkpt lat="44.0471667" lon="12.5816517"><ele>7.000000000000001</ele><time>2026-03-29T07:00:09.574Z</time></trkpt><trkpt lat="44.0472067" lon="12.5815017"><ele>7.0</ele><time>2026-03-29T07:00:12.574Z</time></trkpt><trkpt lat="44.0472517" lon="12.58141"><ele>7.0</ele><time>2026-03-29T07:00:13.574Z</time></trkpt><trkpt lat="44.04732" lon="12.5812883"><ele>7.0</ele><time>2026-03-29T07:00:14.573Z</time></trkpt><trkpt lat="44.0474117" lon="12.581145"><ele>7.0</ele><time>2026-03-29T07:00:15.573Z</time></trkpt><trkpt lat="44.0475267" lon="12.5809583"><ele>7.0</ele><time>2026-03-29T07:00:16.574Z</time></trkpt><trkpt lat="44.0476417" lon="12.58078"><ele>7.0</ele><time>2026-03-29T07:00:17.574Z</time></trkpt><trkpt lat="44.0477367" lon="12.5806317"><ele>6.999999999999999</ele><time>2026-03-29T07:00:18.573Z</time></trkpt><trkpt lat="44.0478167" lon="12.58051"><ele>6.999999999999999</ele><time>2026-03-29T07:00:19.574Z</time></trkpt><trkpt lat="44.047885" lon="12.580405"><ele>7.0</ele><time>2026-03-29T07:00:20.574Z</time></trkpt><trkpt lat="44.04794" lon="12.58032"><ele>7.0</ele><time>2026-03-29T07:00:21.573Z</time></trkpt><trkpt lat="44.0480183" lon="12.5802167"><ele>7.0</ele><time>2026-03-29T07:00:23.573Z</time></trkpt><trkpt lat="44.0480933" lon="12.5801133"><ele>6.999999999999999</ele><time>2026-03-29T07:00:25.574Z</time></trkpt><trkpt lat="44.0481" lon="12.5799733"><ele>6.999999999999999</ele><time>2026-03-29T07:00:27.574Z</time></trkpt><trkpt lat="44.0480533" lon="12.5799133"><ele>7.0</ele><time>2026-03-29T07:00:28.574Z</time></trkpt><trkpt lat="44.0479717" lon="12.5798583"><ele>7.0</ele><time>2026-03-29T07:00:29.574Z</time></trkpt><trkpt lat="44.047895" lon="12.57977"><ele>7.0</ele><time>2026-03-29T07:00:30.574Z</time></trkpt><trkpt lat="44.047795" lon="12.5796433"><ele>7.0</ele><time>2026-03-29T07:00:31.574Z</time></trkpt><trkpt lat="44.0476833" lon="12.579485"><ele>7.0</ele><time>2026-03-29T07:00:32.573Z</time></trkpt><trkpt lat="44.0475617" lon="12.579315"><ele>6.666666666666667</ele><time>2026-03-29T07:00:33.573Z</time></trkpt><trkpt lat="44.0474433" lon="12.5791517"><ele>6.333333333333334</ele><time>2026-03-29T07:00:34.574Z</time></trkpt><trkpt lat="44.0473317" lon="12.5789967"><ele>6.0</ele><time>2026-03-29T07:00:35.574Z</time></trkpt><trkpt lat="44.0472267" lon="12.5788467"><ele>6.0</ele><time>2026-03-29T07:00:36.574Z</time></trkpt><trkpt lat="44.0471233" lon="12.578695"><ele>6.0</ele><time>2026-03-29T07:00:37.573Z</time></trkpt><trkpt lat="44.0470117" lon="12.5785383"><ele>6.0</ele><time>2026-03-29T07:00:38.574Z</time></trkpt><trkpt lat="44.04689" lon="12.57838"><ele>6.0</ele><time>2026-03-29T07:00:39.573Z</time></trkpt><trkpt lat="44.0467683" lon="12.578205"><ele>6.0</ele><time>2026-03-29T07:00:40.574Z</time></trkpt><trkpt lat="44.0466383" lon="12.578025"><ele>6.0</ele><time>2026-03-29T07:00:41.574Z</time></trkpt><trkpt lat="44.0465133" lon="12.57784"><ele>6.666666666666666</ele><time>2026-03-29T07:00:42.574Z</time></trkpt><trkpt lat="44.04639" lon="12.57766"><ele>7.333333333333333</ele><time>2026-03-29T07:00:43.574Z</time></trkpt><trkpt lat="44.0462633" lon="12.5774733"><ele>8.0</ele><time>2026-03-29T07:00:44.573Z</time></trkpt><trkpt lat="44.0461317" lon="12.5772733"><ele>8.0</ele><time>2026-03-29T07:00:45.574Z</time></trkpt><trkpt lat="44.0459983" lon="12.577075"><ele>8.0</ele><time>2026-03-29T07:00:46.574Z</time></trkpt><trkpt lat="44.04587" lon="12.576895"><ele>8.0</ele><time>2026-03-29T07:00:47.573Z</time></trkpt><trkpt lat="44.04576" lon="12.57673"><ele>8.5</ele><time>2026-03-29T07:00:48.573Z</time></trkpt><trkpt lat="44.04566" lon="12.5765817"><ele>9.0</ele><time>2026-03-29T07:00:49.574Z</time></trkpt><trkpt lat="44.04557" lon="12.5764517"><ele>9.5</ele><time>2026-03-29T07:00:50.574Z</time></trkpt><trkpt lat="44.0455033" lon="12.57635"><ele>10.0</ele><time>2026-03-29T07:00:51.574Z</time></trkpt><trkpt lat="44.0454567" lon="12.576265"><ele>9.666666666666668</ele><time>2026-03-29T07:00:52.574Z</time></trkpt><trkpt lat="44.0454267" lon="12.576185"><ele>9.333333333333334</ele><time>2026-03-29T07:00:53.573Z</time></trkpt><trkpt lat="44.045425" lon="12.5760917"><ele>9.0</ele><time>2026-03-29T07:00:54.574Z</time></trkpt><trkpt lat="44.0454433" lon="12.5759883"><ele>8.666666666666666</ele><time>2026-03-29T07:00:55.574Z</time></trkpt><trkpt lat="44.0454067" lon="12.57583"><ele>8.333333333333332</ele><time>2026-03-29T07:00:57.573Z</time></trkpt><trkpt lat="44.0453467" lon="12.575775"><ele>8.0</ele><time>2026-03-29T07:00:58.573Z</time></trkpt><trkpt lat="44.0452583" lon="12.5757317"><ele>8.0</ele><time>2026-03-29T07:00:59.574Z</time></trkpt><trkpt lat="44.0451533" lon="12.57568"><ele>8.0</ele><time>2026-03-29T07:01:00.574Z</time></trkpt><trkpt lat="44.045035" lon="12.575585"><ele>8.0</ele><time>2026-03-29T07:01:01.574Z</time></trkpt><trkpt lat="44.044905" lon="12.5754517"><ele>8.0</ele><time>2026-03-29T07:01:02.574Z</time></trkpt><trkpt lat="44.044775" lon="12.5752683"><ele>9.0</ele><time>2026-03-29T07:01:03.574Z</time></trkpt><trkpt lat="44.0446517" lon="12.5750817"><ele>10.0</ele><time>2026-03-29T07:01:04.574Z</time></trkpt><trkpt lat="44.0445283" lon="12.5748933"><ele>11.0</ele><time>2026-03-29T07:01:05.574Z</time></trkpt><trkpt lat="44.04441" lon="12.574715"><ele>11.0</ele><time>2026-03-29T07:01:06.574Z</time></trkpt><trkpt lat="44.0443" lon="12.57455"><ele>11.0</ele><time>2026-03-29T07:01:07.574Z</time></trkpt><trkpt lat="44.0441917" lon="12.5743917"><ele>11.0</ele><time>2026-03-29T07:01:08.574Z</time></trkpt><trkpt lat="44.0440867" lon="12.574235"><ele>10.666666666666666</ele><time>2026-03-29T07:01:09.574Z</time></trkpt><trkpt lat="44.0439783" lon="12.5740767"><ele>10.333333333333334</ele><time>2026-03-29T07:01:10.574Z</time></trkpt><trkpt lat="44.0438633" lon="12.573915"><ele>10.0</ele><time>2026-03-29T07:01:11.574Z</time></trkpt><trkpt lat="44.0437533" lon="12.5737583"><ele>10.0</ele><time>2026-03-29T07:01:12.573Z</time></trkpt><trkpt lat="44.0436367" lon="12.5735983"><ele>10.0</ele><time>2026-03-29T07:01:13.574Z</time></trkpt><trkpt lat="44.0435217" lon="12.5734267"><ele>10.0</ele><time>2026-03-29T07:01:14.574Z</time></trkpt><trkpt lat="44.0434033" lon="12.5732567"><ele>10.0</ele><time>2026-03-29T07:01:15.574Z</time></trkpt><trkpt lat="44.0432833" lon="12.5730783"><ele>10.0</ele><time>2026-03-29T07:01:16.574Z</time></trkpt><trkpt lat="44.0431533" lon="12.5729"><ele>10.0</ele><time>2026-03-29T07:01:17.574Z</time></trkpt><trkpt lat="44.043025" lon="12.572715"><ele>10.0</ele><time>2026-03-29T07:01:18.574Z</time></trkpt><trkpt lat="44.042905" lon="12.5725367"><ele>10.0</ele><time>2026-03-29T07:01:19.574Z</time></trkpt><trkpt lat="44.0427967" lon="12.57237"><ele>10.0</ele><time>2026-03-29T07:01:20.574Z</time></trkpt><trkpt lat="44.0426983" lon="12.5722167"><ele>10.0</ele><time>2026-03-29T07:01:21.574Z</time></trkpt><trkpt lat="44.042615" lon="12.5720783"><ele>10.0</ele><time>2026-03-29T07:01:22.573Z</time></trkpt><trkpt lat="44.0425533" lon="12.5719617"><ele>10.0</ele><time>2026-03-29T07:01:23.573Z</time></trkpt><trkpt lat="44.0425017" lon="12.5718633"><ele>10.0</ele><time>2026-03-29T07:01:24.574Z</time></trkpt><trkpt lat="44.0424417" lon="12.5717767"><ele>10.0</ele><time>2026-03-29T07:01:25.574Z</time></trkpt><trkpt lat="44.04238" lon="12.5716967"><ele>10.0</ele><time>2026-03-29T07:01:26.574Z</time></trkpt><trkpt lat="44.0423267" lon="12.5716283"><ele>10.0</ele><time>2026-03-29T07:01:27.574Z</time></trkpt><trkpt lat="44.04228" lon="12.5714717"><ele>10.0</ele><time>2026-03-29T07:01:29.573Z</time></trkpt><trkpt lat="44.0422817" lon="12.57137"><ele>10.0</ele><time>2026-03-29T07:01:30.574Z</time></trkpt><trkpt lat="44.042295" lon="12.5712517"><ele>10.0</ele><time>2026-03-29T07:01:31.574Z</time></trkpt><trkpt lat="44.04231" lon="12.5711183"><ele>10.0</ele><time>2026-03-29T07:01:32.574Z</time></trkpt><trkpt lat="44.04231" lon="12.570985"><ele>10.0</ele><time>2026-03-29T07:01:33.574Z</time></trkpt><trkpt lat="44.04228" lon="12.5708483"><ele>10.0</ele><time>2026-03-29T07:01:34.574Z</time></trkpt><trkpt lat="44.042245" lon="12.5707267"><ele>10.0</ele><time>2026-03-29T07:01:35.573Z</time></trkpt><trkpt lat="44.0422033" lon="12.57061"><ele>10.0</ele><time>2026-03-29T07:01:36.574Z</time></trkpt><trkpt lat="44.0421733" lon="12.570475"><ele>9.25</ele><time>2026-03-29T07:01:37.573Z</time></trkpt><trkpt lat="44.0421667" lon="12.5703083"><ele>8.5</ele><time>2026-03-29T07:01:38.574Z</time></trkpt><trkpt lat="44.0421683" lon="12.5701033"><ele>7.75</ele><time>2026-03-29T07:01:39.574Z</time></trkpt><trkpt lat="44.042175" lon="12.5698733"><ele>7.0</ele><time>2026-03-29T07:01:40.574Z</time></trkpt><trkpt lat="44.04219" lon="12.5696017"><ele>7.666666666666667</ele><time>2026-03-29T07:01:41.574Z</time></trkpt><trkpt lat="44.042205" lon="12.5693"><ele>8.333333333333334</ele><time>2026-03-29T07:01:42.574Z</time></trkpt><trkpt lat="44.0422133" lon="12.5689833"><ele>9.0</ele><time>2026-03-29T07:01:43.573Z</time></trkpt><trkpt lat="44.0422233" lon="12.5686567"><ele>10.5</ele><time>2026-03-29T07:01:44.574Z</time></trkpt><trkpt lat="44.04224" lon="12.5683267"><ele>12.0</ele><time>2026-03-29T07:01:45.574Z</time></trkpt><trkpt lat="44.0422683" lon="12.5680267"><ele>12.0</ele><time>2026-03-29T07:01:46.573Z</time></trkpt><trkpt lat="44.042295" lon="12.567745"><ele>12.0</ele><time>2026-03-29T07:01:47.574Z</time></trkpt><trkpt lat="44.0423283" lon="12.5674783"><ele>12.0</ele><time>2026-03-29T07:01:48.574Z</time></trkpt><trkpt lat="44.0423633" lon="12.5672083"><ele>11.0</ele><time>2026-03-29T07:01:49.573Z</time></trkpt><trkpt lat="44.0423933" lon="12.566945"><ele>10.0</ele><time>2026-03-29T07:01:50.574Z</time></trkpt><trkpt lat="44.042425" lon="12.5666917"><ele>9.0</ele><time>2026-03-29T07:01:51.573Z</time></trkpt><trkpt lat="44.042465" lon="12.5664417"><ele>9.0</ele><time>2026-03-29T07:01:52.574Z</time></trkpt><trkpt lat="44.0425067" lon="12.5661867"><ele>9.0</ele><time>2026-03-29T07:01:53.573Z</time></trkpt><trkpt lat="44.0425533" lon="12.5659133"><ele>9.0</ele><time>2026-03-29T07:01:54.573Z</time></trkpt><trkpt lat="44.0426133" lon="12.5656217"><ele>9.0</ele><time>2026-03-29T07:01:55.573Z</time></trkpt><trkpt lat="44.0426867" lon="12.5653183"><ele>9.0</ele><time>2026-03-29T07:01:56.573Z</time></trkpt><trkpt lat="44.0427567" lon="12.5650117"><ele>9.0</ele><time>2026-03-29T07:01:57.573Z</time></trkpt><trkpt lat="44.0428317" lon="12.5647033"><ele>9.0</ele><time>2026-03-29T07:01:58.574Z</time></trkpt><trkpt lat="44.0429067" lon="12.5644217"><ele>8.666666666666666</ele><time>2026-03-29T07:01:59.574Z</time></trkpt><trkpt lat="44.0429883" lon="12.5641433"><ele>8.333333333333332</ele><time>2026-03-29T07:02:00.574Z</time></trkpt><trkpt lat="44.043065" lon="12.5638617"><ele>8.0</ele><time>2026-03-29T07:02:01.574Z</time></trkpt><trkpt lat="44.0431467" lon="12.563575"><ele>8.0</ele><time>2026-03-29T07:02:02.574Z</time></trkpt><trkpt lat="44.043225" lon="12.5633"><ele>8.0</ele><time>2026-03-29T07:02:03.574Z</time></trkpt><trkpt lat="44.0432967" lon="12.56303"><ele>8.0</ele><time>2026-03-29T07:02:04.573Z</time></trkpt><trkpt lat="44.0433617" lon="12.562765"><ele>8.666666666666666</ele><time>2026-03-29T07:02:05.574Z</time></trkpt><trkpt lat="44.04343" lon="12.5625"><ele>9.333333333333334</ele><time>2026-03-29T07:02:06.573Z</time></trkpt><trkpt lat="44.0434967" lon="12.5622483"><ele>10.0</ele><time>2026-03-29T07:02:07.574Z</time></trkpt><trkpt lat="44.0435633" lon="12.5620083"><ele>10.666666666666668</ele><time>2026-03-29T07:02:08.574Z</time></trkpt><trkpt lat="44.0436217" lon="12.5617783"><ele>11.333333333333334</ele><time>2026-03-29T07:02:09.573Z</time></trkpt><trkpt lat="44.0436767" lon="12.56156"><ele>12.0</ele><time>2026-03-29T07:02:10.574Z</time></trkpt><trkpt lat="44.0437333" lon="12.56135"><ele>12.0</ele><time>2026-03-29T07:02:11.574Z</time></trkpt><trkpt lat="44.0437867" lon="12.5611467"><ele>12.0</ele><time>2026-03-29T07:02:12.574Z</time></trkpt><trkpt lat="44.0438417" lon="12.56095"><ele>12.0</ele><time>2026-03-29T07:02:13.574Z</time></trkpt><trkpt lat="44.0438917" lon="12.56077"><ele>12.0</ele><time>2026-03-29T07:02:14.573Z</time></trkpt><trkpt lat="44.04394" lon="12.5606"><ele>12.0</ele><time>2026-03-29T07:02:15.574Z</time></trkpt><trkpt lat="44.0439767" lon="12.56045"><ele>12.0</ele><time>2026-03-29T07:02:16.574Z</time></trkpt><trkpt lat="44.0440183" lon="12.5603133"><ele>12.0</ele><time>2026-03-29T07:02:17.574Z</time></trkpt><trkpt lat="44.0440733" lon="12.5601883"><ele>12.0</ele><time>2026-03-29T07:02:18.574Z</time></trkpt><trkpt lat="44.04415" lon="12.5600617"><ele>12.0</ele><time>2026-03-29T07:02:19.573Z</time></trkpt><trkpt lat="44.0442183" lon="12.5599383"><ele>12.25</ele><time>2026-03-29T07:02:20.573Z</time></trkpt><trkpt lat="44.044265" lon="12.5597867"><ele>12.5</ele><time>2026-03-29T07:02:21.573Z</time></trkpt><trkpt lat="44.0442867" lon="12.5596"><ele>12.75</ele><time>2026-03-29T07:02:22.573Z</time></trkpt><trkpt lat="44.0442967" lon="12.5593983"><ele>13.0</ele><time>2026-03-29T07:02:23.573Z</time></trkpt><trkpt lat="44.0443067" lon="12.5591783"><ele>12.333333333333332</ele><time>2026-03-29T07:02:24.573Z</time></trkpt><trkpt lat="44.04435" lon="12.5589533"><ele>11.666666666666666</ele><time>2026-03-29T07:02:25.573Z</time></trkpt><trkpt lat="44.0444133" lon="12.558715"><ele>11.0</ele><time>2026-03-29T07:02:26.574Z</time></trkpt><trkpt lat="44.0444833" lon="12.558455"><ele>11.0</ele><time>2026-03-29T07:02:27.574Z</time></trkpt><trkpt lat="44.044555" lon="12.558155"><ele>11.0</ele><time>2026-03-29T07:02:28.573Z</time></trkpt><trkpt lat="44.044635" lon="12.5578317"><ele>11.0</ele><time>2026-03-29T07:02:29.574Z</time></trkpt><trkpt lat="44.0447183" lon="12.5575283"><ele>11.0</ele><time>2026-03-29T07:02:30.574Z</time></trkpt><trkpt lat="44.044805" lon="12.557255"><ele>11.0</ele><time>2026-03-29T07:02:31.573Z</time></trkpt><trkpt lat="44.04488" lon="12.5569933"><ele>10.333333333333332</ele><time>2026-03-29T07:02:32.573Z</time></trkpt><trkpt lat="44.0449467" lon="12.5567367"><ele>9.666666666666666</ele><time>2026-03-29T07:02:33.573Z</time></trkpt><trkpt lat="44.0450117" lon="12.5564883"><ele>9.0</ele><time>2026-03-29T07:02:34.574Z</time></trkpt><trkpt lat="44.0450733" lon="12.55625"><ele>9.333333333333334</ele><time>2026-03-29T07:02:35.573Z</time></trkpt><trkpt lat="44.0451367" lon="12.5560083"><ele>9.666666666666668</ele><time>2026-03-29T07:02:36.574Z</time></trkpt><trkpt lat="44.0451983" lon="12.5557617"><ele>10.0</ele><time>2026-03-29T07:02:37.574Z</time></trkpt><trkpt lat="44.0452633" lon="12.5555267"><ele>10.333333333333334</ele><time>2026-03-29T07:02:38.574Z</time></trkpt><trkpt lat="44.0453233" lon="12.5553033"><ele>10.666666666666666</ele><time>2026-03-29T07:02:39.574Z</time></trkpt><trkpt lat="44.0453833" lon="12.5550783"><ele>11.0</ele><time>2026-03-29T07:02:40.574Z</time></trkpt><trkpt lat="44.0454417" lon="12.5548533"><ele>11.0</ele><time>2026-03-29T07:02:41.574Z</time></trkpt><trkpt lat="44.0455067" lon="12.5546483"><ele>11.0</ele><time>2026-03-29T07:02:42.574Z</time></trkpt><trkpt lat="44.04557" lon="12.554455"><ele>11.0</ele><time>2026-03-29T07:02:43.574Z</time></trkpt><trkpt lat="44.0456367" lon="12.5542633"><ele>11.5</ele><time>2026-03-29T07:02:44.573Z</time></trkpt><trkpt lat="44.0457033" lon="12.5540817"><ele>12.0</ele><time>2026-03-29T07:02:45.573Z</time></trkpt><trkpt lat="44.04577" lon="12.55391"><ele>12.5</ele><time>2026-03-29T07:02:46.574Z</time></trkpt><trkpt lat="44.0458317" lon="12.5537433"><ele>13.0</ele><time>2026-03-29T07:02:47.573Z</time></trkpt><trkpt lat="44.045895" lon="12.5535983"><ele>12.200000000000001</ele><time>2026-03-29T07:02:48.574Z</time></trkpt><trkpt lat="44.0459517" lon="12.5534683"><ele>11.4</ele><time>2026-03-29T07:02:49.574Z</time></trkpt><trkpt lat="44.0460033" lon="12.5533717"><ele>10.600000000000001</ele><time>2026-03-29T07:02:50.574Z</time></trkpt><trkpt lat="44.0460633" lon="12.5532867"><ele>9.8</ele><time>2026-03-29T07:02:51.573Z</time></trkpt><trkpt lat="44.0461483" lon="12.5532167"><ele>9.0</ele><time>2026-03-29T07:02:52.574Z</time></trkpt><trkpt lat="44.0462283" lon="12.5531583"><ele>9.0</ele><time>2026-03-29T07:02:53.573Z</time></trkpt><trkpt lat="44.0463033" lon="12.5530933"><ele>9.0</ele><time>2026-03-29T07:02:54.574Z</time></trkpt><trkpt lat="44.0463583" lon="12.553005"><ele>9.0</ele><time>2026-03-29T07:02:55.574Z</time></trkpt><trkpt lat="44.04639" lon="12.5528967"><ele>9.0</ele><time>2026-03-29T07:02:56.574Z</time></trkpt><trkpt lat="44.0463883" lon="12.5527733"><ele>9.0</ele><time>2026-03-29T07:02:57.575Z</time></trkpt><trkpt lat="44.0463467" lon="12.5526633"><ele>9.0</ele><time>2026-03-29T07:02:58.575Z</time></trkpt><trkpt lat="44.046265" lon="12.5525817"><ele>9.75</ele><time>2026-03-29T07:02:59.574Z</time></trkpt><trkpt lat="44.046155" lon="12.5525367"><ele>10.5</ele><time>2026-03-29T07:03:00.575Z</time></trkpt><trkpt lat="44.04604" lon="12.5525033"><ele>11.25</ele><time>2026-03-29T07:03:01.574Z</time></trkpt><trkpt lat="44.0459333" lon="12.5524317"><ele>12.0</ele><time>2026-03-29T07:03:02.575Z</time></trkpt><trkpt lat="44.0458283" lon="12.5523183"><ele>12.0</ele><time>2026-03-29T07:03:03.575Z</time></trkpt><trkpt lat="44.0457183" lon="12.5521767"><ele>12.0</ele><time>2026-03-29T07:03:04.574Z</time></trkpt><trkpt lat="44.045605" lon="12.552035"><ele>12.0</ele><time>2026-03-29T07:03:05.575Z</time></trkpt><trkpt lat="44.0454783" lon="12.551905"><ele>13.25</ele><time>2026-03-29T07:03:06.574Z</time></trkpt><trkpt lat="44.0453533" lon="12.5517767"><ele>14.5</ele><time>2026-03-29T07:03:07.575Z</time></trkpt><trkpt lat="44.0452467" lon="12.5516717"><ele>15.75</ele><time>2026-03-29T07:03:08.575Z</time></trkpt><trkpt lat="44.04516" lon="12.5515733"><ele>17.0</ele><time>2026-03-29T07:03:09.575Z</time></trkpt><trkpt lat="44.0450833" lon="12.55149"><ele>17.0</ele><time>2026-03-29T07:03:10.575Z</time></trkpt><trkpt lat="44.04502" lon="12.5514033"><ele>17.0</ele><time>2026-03-29T07:03:11.575Z</time></trkpt><trkpt lat="44.0449783" lon="12.5512983"><ele>17.0</ele><time>2026-03-29T07:03:12.575Z</time></trkpt><trkpt lat="44.044965" lon="12.5511783"><ele>17.0</ele><time>2026-03-29T07:03:13.575Z</time></trkpt><trkpt lat="44.04498" lon="12.5510567"><ele>17.0</ele><time>2026-03-29T07:03:14.575Z</time></trkpt><trkpt lat="44.0450117" lon="12.550935"><ele>17.0</ele><time>2026-03-29T07:03:15.575Z</time></trkpt><trkpt lat="44.04502" lon="12.5508167"><ele>17.75</ele><time>2026-03-29T07:03:16.575Z</time></trkpt><trkpt lat="44.0449933" lon="12.5507033"><ele>18.5</ele><time>2026-03-29T07:03:17.575Z</time></trkpt><trkpt lat="44.044935" lon="12.550585"><ele>19.25</ele><time>2026-03-29T07:03:18.574Z</time></trkpt><trkpt lat="44.0448667" lon="12.550435"><ele>20.0</ele><time>2026-03-29T07:03:19.574Z</time></trkpt><trkpt lat="44.0448017" lon="12.5502733"><ele>20.0</ele><time>2026-03-29T07:03:20.574Z</time></trkpt><trkpt lat="44.0447117" lon="12.55012"><ele>20.0</ele><time>2026-03-29T07:03:21.575Z</time></trkpt><trkpt lat="44.04458" lon="12.5499733"><ele>20.0</ele><time>2026-03-29T07:03:22.574Z</time></trkpt><trkpt lat="44.0444483" lon="12.549835"><ele>20.0</ele><time>2026-03-29T07:03:23.575Z</time></trkpt><trkpt lat="44.0443333" lon="12.5496783"><ele>20.0</ele><time>2026-03-29T07:03:24.574Z</time></trkpt><trkpt lat="44.044225" lon="12.549495"><ele>20.0</ele><time>2026-03-29T07:03:25.575Z</time></trkpt><trkpt lat="44.0441283" lon="12.54928"><ele>19.333333333333336</ele><time>2026-03-29T07:03:26.575Z</time></trkpt><trkpt lat="44.044035" lon="12.5490467"><ele>18.666666666666668</ele><time>2026-03-29T07:03:27.575Z</time></trkpt><trkpt lat="44.043955" lon="12.5488"><ele>18.0</ele><time>2026-03-29T07:03:28.575Z</time></trkpt><trkpt lat="44.043895" lon="12.548535"><ele>18.0</ele><time>2026-03-29T07:03:29.574Z</time></trkpt><trkpt lat="44.04386" lon="12.548275"><ele>18.0</ele><time>2026-03-29T07:03:30.575Z</time></trkpt><trkpt lat="44.0438333" lon="12.5480067"><ele>18.0</ele><time>2026-03-29T07:03:31.574Z</time></trkpt><trkpt lat="44.0438083" lon="12.5477317"><ele>18.333333333333332</ele><time>2026-03-29T07:03:32.574Z</time></trkpt><trkpt lat="44.0437767" lon="12.547455"><ele>18.666666666666664</ele><time>2026-03-29T07:03:33.575Z</time></trkpt><trkpt lat="44.0437417" lon="12.5471933"><ele>19.0</ele><time>2026-03-29T07:03:34.575Z</time></trkpt><trkpt lat="44.043715" lon="12.5469467"><ele>19.666666666666664</ele><time>2026-03-29T07:03:35.575Z</time></trkpt><trkpt lat="44.04367" lon="12.5467083"><ele>20.333333333333332</ele><time>2026-03-29T07:03:36.575Z</time></trkpt><trkpt lat="44.0436067" lon="12.5464783"><ele>21.0</ele><time>2026-03-29T07:03:37.575Z</time></trkpt><trkpt lat="44.04352" lon="12.5462717"><ele>19.666666666666668</ele><time>2026-03-29T07:03:38.575Z</time></trkpt><trkpt lat="44.04341" lon="12.5460933"><ele>18.333333333333336</ele><time>2026-03-29T07:03:39.575Z</time></trkpt><trkpt lat="44.0433017" lon="12.545925"><ele>17.0</ele><time>2026-03-29T07:03:40.575Z</time></trkpt><trkpt lat="44.0432283" lon="12.5457367"><ele>17.0</ele><time>2026-03-29T07:03:41.575Z</time></trkpt><trkpt lat="44.0432" lon="12.5455283"><ele>17.0</ele><time>2026-03-29T07:03:42.574Z</time></trkpt><trkpt lat="44.0432267" lon="12.5452983"><ele>17.0</ele><time>2026-03-29T07:03:43.574Z</time></trkpt><trkpt lat="44.0432867" lon="12.5450583"><ele>15.0</ele><time>2026-03-29T07:03:44.575Z</time></trkpt><trkpt lat="44.0433833" lon="12.5448083"><ele>13.0</ele><time>2026-03-29T07:03:45.575Z</time></trkpt><trkpt lat="44.0434867" lon="12.5445333"><ele>11.0</ele><time>2026-03-29T07:03:46.575Z</time></trkpt><trkpt lat="44.0435967" lon="12.5442533"><ele>11.0</ele><time>2026-03-29T07:03:47.575Z</time></trkpt><trkpt lat="44.0437" lon="12.5439517"><ele>11.0</ele><time>2026-03-29T07:03:48.575Z</time></trkpt><trkpt lat="44.0438183" lon="12.54365"><ele>14.0</ele><time>2026-03-29T07:03:49.575Z</time></trkpt><trkpt lat="44.043945" lon="12.5433733"><ele>17.0</ele><time>2026-03-29T07:03:50.575Z</time></trkpt><trkpt lat="44.0440767" lon="12.5431267"><ele>15.0</ele><time>2026-03-29T07:03:51.574Z</time></trkpt><trkpt lat="44.0442" lon="12.5428933"><ele>13.0</ele><time>2026-03-29T07:03:52.575Z</time></trkpt><trkpt lat="44.0443017" lon="12.5426717"><ele>11.0</ele><time>2026-03-29T07:03:53.575Z</time></trkpt><trkpt lat="44.0443667" lon="12.5424533"><ele>11.0</ele><time>2026-03-29T07:03:54.575Z</time></trkpt><trkpt lat="44.044395" lon="12.5422133"><ele>11.0</ele><time>2026-03-29T07:03:55.574Z</time></trkpt><trkpt lat="44.0443867" lon="12.5419467"><ele>11.0</ele><time>2026-03-29T07:03:56.575Z</time></trkpt><trkpt lat="44.04435" lon="12.5416467"><ele>11.0</ele><time>2026-03-29T07:03:57.575Z</time></trkpt><trkpt lat="44.0443133" lon="12.54134"><ele>11.0</ele><time>2026-03-29T07:03:58.575Z</time></trkpt><trkpt lat="44.0442783" lon="12.5410483"><ele>11.0</ele><time>2026-03-29T07:03:59.575Z</time></trkpt><trkpt lat="44.0442517" lon="12.5407683"><ele>11.0</ele><time>2026-03-29T07:04:00.575Z</time></trkpt><trkpt lat="44.0442317" lon="12.5404967"><ele>11.0</ele><time>2026-03-29T07:04:01.574Z</time></trkpt><trkpt lat="44.0442167" lon="12.5402467"><ele>11.0</ele><time>2026-03-29T07:04:02.575Z</time></trkpt><trkpt lat="44.04421" lon="12.540015"><ele>11.0</ele><time>2026-03-29T07:04:03.575Z</time></trkpt><trkpt lat="44.044215" lon="12.5398017"><ele>11.0</ele><time>2026-03-29T07:04:04.575Z</time></trkpt><trkpt lat="44.0442467" lon="12.5396133"><ele>11.0</ele><time>2026-03-29T07:04:05.574Z</time></trkpt><trkpt lat="44.0443167" lon="12.5394317"><ele>11.0</ele><time>2026-03-29T07:04:06.574Z</time></trkpt><trkpt lat="44.0444317" lon="12.5392867"><ele>13.25</ele><time>2026-03-29T07:04:07.574Z</time></trkpt><trkpt lat="44.0445433" lon="12.53917"><ele>15.5</ele><time>2026-03-29T07:04:08.575Z</time></trkpt><trkpt lat="44.04463" lon="12.5390633"><ele>17.75</ele><time>2026-03-29T07:04:09.574Z</time></trkpt><trkpt lat="44.0446867" lon="12.53893"><ele>20.0</ele><time>2026-03-29T07:04:10.575Z</time></trkpt><trkpt lat="44.0447083" lon="12.5387783"><ele>21.5</ele><time>2026-03-29T07:04:11.575Z</time></trkpt><trkpt lat="44.0446767" lon="12.5386133"><ele>23.0</ele><time>2026-03-29T07:04:12.575Z</time></trkpt><trkpt lat="44.0445983" lon="12.5384567"><ele>24.5</ele><time>2026-03-29T07:04:13.574Z</time></trkpt><trkpt lat="44.0445" lon="12.5383017"><ele>26.0</ele><time>2026-03-29T07:04:14.574Z</time></trkpt><trkpt lat="44.0443983" lon="12.538155"><ele>26.0</ele><time>2026-03-29T07:04:15.575Z</time></trkpt><trkpt lat="44.0443183" lon="12.5379867"><ele>26.0</ele><time>2026-03-29T07:04:16.575Z</time></trkpt><trkpt lat="44.0442667" lon="12.5377933"><ele>26.0</ele><time>2026-03-29T07:04:17.575Z</time></trkpt><trkpt lat="44.0442317" lon="12.537605"><ele>26.0</ele><time>2026-03-29T07:04:18.575Z</time></trkpt><trkpt lat="44.0442183" lon="12.5374433"><ele>25.6</ele><time>2026-03-29T07:04:19.575Z</time></trkpt><trkpt lat="44.0441833" lon="12.537315"><ele>25.200000000000003</ele><time>2026-03-29T07:04:20.574Z</time></trkpt><trkpt lat="44.0441133" lon="12.5372183"><ele>24.799999999999997</ele><time>2026-03-29T07:04:21.574Z</time></trkpt><trkpt lat="44.0440183" lon="12.5371533"><ele>24.4</ele><time>2026-03-29T07:04:22.574Z</time></trkpt><trkpt lat="44.0438833" lon="12.5371233"><ele>24.0</ele><time>2026-03-29T07:04:23.575Z</time></trkpt><trkpt lat="44.0437367" lon="12.53711"><ele>24.0</ele><time>2026-03-29T07:04:24.575Z</time></trkpt><trkpt lat="44.0435983" lon="12.5370783"><ele>24.0</ele><time>2026-03-29T07:04:25.575Z</time></trkpt><trkpt lat="44.0434733" lon="12.5370217"><ele>24.0</ele><time>2026-03-29T07:04:26.575Z</time></trkpt><trkpt lat="44.0433567" lon="12.53694"><ele>24.0</ele><time>2026-03-29T07:04:27.575Z</time></trkpt><trkpt lat="44.0432417" lon="12.5368283"><ele>20.333333333333332</ele><time>2026-03-29T07:04:28.574Z</time></trkpt><trkpt lat="44.04313" lon="12.5367017"><ele>16.666666666666664</ele><time>2026-03-29T07:04:29.574Z</time></trkpt><trkpt lat="44.0430133" lon="12.5365667"><ele>13.0</ele><time>2026-03-29T07:04:30.575Z</time></trkpt><trkpt lat="44.042885" lon="12.5364317"><ele>13.0</ele><time>2026-03-29T07:04:31.575Z</time></trkpt><trkpt lat="44.0427567" lon="12.5362967"><ele>13.0</ele><time>2026-03-29T07:04:32.575Z</time></trkpt><trkpt lat="44.04263" lon="12.53616"><ele>13.0</ele><time>2026-03-29T07:04:33.575Z</time></trkpt><trkpt lat="44.0425017" lon="12.5360117"><ele>13.0</ele><time>2026-03-29T07:04:34.575Z</time></trkpt><trkpt lat="44.0423683" lon="12.5358683"><ele>13.0</ele><time>2026-03-29T07:04:35.575Z</time></trkpt><trkpt lat="44.042245" lon="12.5357183"><ele>13.0</ele><time>2026-03-29T07:04:36.575Z</time></trkpt><trkpt lat="44.0421233" lon="12.5355733"><ele>13.0</ele><time>2026-03-29T07:04:37.575Z</time></trkpt><trkpt lat="44.042005" lon="12.535425"><ele>13.0</ele><time>2026-03-29T07:04:38.575Z</time></trkpt><trkpt lat="44.0418967" lon="12.5352733"><ele>13.0</ele><time>2026-03-29T07:04:39.575Z</time></trkpt><trkpt lat="44.0417967" lon="12.53512"><ele>13.25</ele><time>2026-03-29T07:04:40.575Z</time></trkpt><trkpt lat="44.0416967" lon="12.5349667"><ele>13.5</ele><time>2026-03-29T07:04:41.575Z</time></trkpt><trkpt lat="44.0415983" lon="12.5348083"><ele>13.75</ele><time>2026-03-29T07:04:42.575Z</time></trkpt><trkpt lat="44.0415217" lon="12.5346417"><ele>14.0</ele><time>2026-03-29T07:04:43.575Z</time></trkpt><trkpt lat="44.0414683" lon="12.5344533"><ele>15.666666666666668</ele><time>2026-03-29T07:04:44.575Z</time></trkpt><trkpt lat="44.0414467" lon="12.53425"><ele>17.333333333333332</ele><time>2026-03-29T07:04:45.574Z</time></trkpt><trkpt lat="44.0414667" lon="12.5340317"><ele>19.0</ele><time>2026-03-29T07:04:46.575Z</time></trkpt><trkpt lat="44.0415233" lon="12.5337867"><ele>19.666666666666664</ele><time>2026-03-29T07:04:47.575Z</time></trkpt><trkpt lat="44.0416" lon="12.533525"><ele>20.333333333333332</ele><time>2026-03-29T07:04:48.575Z</time></trkpt><trkpt lat="44.041695" lon="12.533245"><ele>21.0</ele><time>2026-03-29T07:04:49.575Z</time></trkpt><trkpt lat="44.0418133" lon="12.5329567"><ele>18.5</ele><time>2026-03-29T07:04:50.575Z</time></trkpt><trkpt lat="44.0419217" lon="12.5326433"><ele>16.0</ele><time>2026-03-29T07:04:51.574Z</time></trkpt><trkpt lat="44.0420317" lon="12.5323217"><ele>17.0</ele><time>2026-03-29T07:04:52.575Z</time></trkpt><trkpt lat="44.0421367" lon="12.531995"><ele>18.0</ele><time>2026-03-29T07:04:53.575Z</time></trkpt><trkpt lat="44.042245" lon="12.5316917"><ele>18.0</ele><time>2026-03-29T07:04:54.575Z</time></trkpt><trkpt lat="44.042345" lon="12.5314083"><ele>18.0</ele><time>2026-03-29T07:04:55.575Z</time></trkpt><trkpt lat="44.04244" lon="12.5311467"><ele>18.0</ele><time>2026-03-29T07:04:56.574Z</time></trkpt><trkpt lat="44.0425233" lon="12.5309067"><ele>18.0</ele><time>2026-03-29T07:04:57.575Z</time></trkpt><trkpt lat="44.0425983" lon="12.5306883"><ele>18.0</ele><time>2026-03-29T07:04:58.575Z</time></trkpt><trkpt lat="44.04267" lon="12.5304917"><ele>18.0</ele><time>2026-03-29T07:04:59.575Z</time></trkpt><trkpt lat="44.042725" lon="12.5303433"><ele>18.5</ele><time>2026-03-29T07:05:00.574Z</time></trkpt><trkpt lat="44.0427567" lon="12.5302333"><ele>19.0</ele><time>2026-03-29T07:05:01.574Z</time></trkpt><trkpt lat="44.04278" lon="12.5301483"><ele>19.5</ele><time>2026-03-29T07:05:02.575Z</time></trkpt><trkpt lat="44.0428067" lon="12.53004"><ele>20.0</ele><time>2026-03-29T07:05:04.574Z</time></trkpt><trkpt lat="44.0428183" lon="12.52994"><ele>20.5</ele><time>2026-03-29T07:05:07.574Z</time></trkpt><trkpt lat="44.0428367" lon="12.5298267"><ele>21.0</ele><time>2026-03-29T07:05:25.575Z</time></trkpt><trkpt lat="44.0428199" lon="12.5296992"><ele>20.333333333333332</ele><time>2026-03-29T07:05:27.574Z</time></trkpt><trkpt lat="44.0427878" lon="12.5294892"><ele>19.666666666666664</ele><time>2026-03-29T07:05:28.574Z</time></trkpt><trkpt lat="44.0427215" lon="12.5292847"><ele>19.0</ele><time>2026-03-29T07:05:29.575Z</time></trkpt><trkpt lat="44.0426251" lon="12.5290858"><ele>19.0</ele><time>2026-03-29T07:05:30.575Z</time></trkpt><trkpt lat="44.0425068" lon="12.5288877"><ele>19.0</ele><time>2026-03-29T07:05:31.575Z</time></trkpt><trkpt lat="44.0423868" lon="12.5286818"><ele>19.0</ele><time>2026-03-29T07:05:32.575Z</time></trkpt><trkpt lat="44.0422678" lon="12.5284758"><ele>19.333333333333332</ele><time>2026-03-29T07:05:33.575Z</time></trkpt><trkpt lat="44.0421446" lon="12.5282739"><ele>19.666666666666668</ele><time>2026-03-29T07:05:34.575Z</time></trkpt><trkpt lat="44.0420307" lon="12.5280696"><ele>20.0</ele><time>2026-03-29T07:05:35.575Z</time></trkpt><trkpt lat="44.0419244" lon="12.5278557"><ele>18.333333333333336</ele><time>2026-03-29T07:05:36.575Z</time></trkpt><trkpt lat="44.0418291" lon="12.5276161"><ele>16.666666666666668</ele><time>2026-03-29T07:05:37.574Z</time></trkpt><trkpt lat="44.0417483" lon="12.527351"><ele>15.0</ele><time>2026-03-29T07:05:38.575Z</time></trkpt><trkpt lat="44.0416806" lon="12.5270826"><ele>17.666666666666668</ele><time>2026-03-29T07:05:39.575Z</time></trkpt><trkpt lat="44.0416155" lon="12.5268099"><ele>20.333333333333336</ele><time>2026-03-29T07:05:40.575Z</time></trkpt><trkpt lat="44.0415575" lon="12.5265436"><ele>23.0</ele><time>2026-03-29T07:05:41.574Z</time></trkpt><trkpt lat="44.0415141" lon="12.5262647"><ele>22.333333333333336</ele><time>2026-03-29T07:05:42.574Z</time></trkpt><trkpt lat="44.0414841" lon="12.5259944"><ele>21.666666666666668</ele><time>2026-03-29T07:05:43.575Z</time></trkpt><trkpt lat="44.0414563" lon="12.5257448"><ele>21.0</ele><time>2026-03-29T07:05:44.575Z</time></trkpt><trkpt lat="44.0414425" lon="12.5255106"><ele>20.0</ele><time>2026-03-29T07:05:45.575Z</time></trkpt><trkpt lat="44.0414488" lon="12.5252932"><ele>19.0</ele><time>2026-03-29T07:05:46.574Z</time></trkpt><trkpt lat="44.0414914" lon="12.5250845"><ele>18.0</ele><time>2026-03-29T07:05:47.575Z</time></trkpt><trkpt lat="44.0415609" lon="12.5248685"><ele>18.0</ele><time>2026-03-29T07:05:48.575Z</time></trkpt><trkpt lat="44.0416532" lon="12.5246444"><ele>18.0</ele><time>2026-03-29T07:05:49.575Z</time></trkpt><trkpt lat="44.0417533" lon="12.5244076"><ele>18.0</ele><time>2026-03-29T07:05:50.574Z</time></trkpt><trkpt lat="44.0418507" lon="12.5241787"><ele>17.666666666666668</ele><time>2026-03-29T07:05:51.575Z</time></trkpt><trkpt lat="44.041932" lon="12.5239543"><ele>17.333333333333336</ele><time>2026-03-29T07:05:52.575Z</time></trkpt><trkpt lat="44.0419851" lon="12.5237099"><ele>17.0</ele><time>2026-03-29T07:05:53.575Z</time></trkpt><trkpt lat="44.0420145" lon="12.523457"><ele>15.666666666666668</ele><time>2026-03-29T07:05:54.574Z</time></trkpt><trkpt lat="44.0420154" lon="12.5232179"><ele>14.333333333333332</ele><time>2026-03-29T07:05:55.575Z</time></trkpt><trkpt lat="44.0419876" lon="12.5229864"><ele>13.0</ele><time>2026-03-29T07:05:56.575Z</time></trkpt><trkpt lat="44.0419226" lon="12.5227647"><ele>13.0</ele><time>2026-03-29T07:05:57.574Z</time></trkpt><trkpt lat="44.0418229" lon="12.5225532"><ele>13.0</ele><time>2026-03-29T07:05:58.575Z</time></trkpt><trkpt lat="44.0416911" lon="12.5223328"><ele>13.0</ele><time>2026-03-29T07:05:59.575Z</time></trkpt><trkpt lat="44.0415417" lon="12.5220817"><ele>13.5</ele><time>2026-03-29T07:06:00.574Z</time></trkpt><trkpt lat="44.0413967" lon="12.52182"><ele>14.0</ele><time>2026-03-29T07:06:01.574Z</time></trkpt><trkpt lat="44.0412517" lon="12.5215533"><ele>14.0</ele><time>2026-03-29T07:06:02.575Z</time></trkpt><trkpt lat="44.0411033" lon="12.5212833"><ele>14.0</ele><time>2026-03-29T07:06:03.575Z</time></trkpt><trkpt lat="44.04095" lon="12.5209983"><ele>13.5</ele><time>2026-03-29T07:06:04.574Z</time></trkpt><trkpt lat="44.0408083" lon="12.520725"><ele>13.0</ele><time>2026-03-29T07:06:05.575Z</time></trkpt><trkpt lat="44.0406733" lon="12.520455"><ele>12.5</ele><time>2026-03-29T07:06:06.575Z</time></trkpt><trkpt lat="44.0405467" lon="12.520185"><ele>12.0</ele><time>2026-03-29T07:06:07.575Z</time></trkpt><trkpt lat="44.0404167" lon="12.51992"><ele>12.0</ele><time>2026-03-29T07:06:08.575Z</time></trkpt><trkpt lat="44.0402967" lon="12.5196683"><ele>12.0</ele><time>2026-03-29T07:06:09.575Z</time></trkpt><trkpt lat="44.0401783" lon="12.5194383"><ele>12.0</ele><time>2026-03-29T07:06:10.575Z</time></trkpt><trkpt lat="44.040065" lon="12.5192283"><ele>12.666666666666668</ele><time>2026-03-29T07:06:11.575Z</time></trkpt><trkpt lat="44.0399517" lon="12.5190483"><ele>13.333333333333334</ele><time>2026-03-29T07:06:12.575Z</time></trkpt><trkpt lat="44.0398383" lon="12.5188867"><ele>14.0</ele><time>2026-03-29T07:06:13.575Z</time></trkpt><trkpt lat="44.0397317" lon="12.518735"><ele>13.75</ele><time>2026-03-29T07:06:14.574Z</time></trkpt><trkpt lat="44.0396317" lon="12.518605"><ele>13.5</ele><time>2026-03-29T07:06:15.574Z</time></trkpt><trkpt lat="44.0395367" lon="12.518485"><ele>13.25</ele><time>2026-03-29T07:06:16.575Z</time></trkpt><trkpt lat="44.0394367" lon="12.5183817"><ele>13.0</ele><time>2026-03-29T07:06:17.574Z</time></trkpt><trkpt lat="44.0393383" lon="12.51828"><ele>13.0</ele><time>2026-03-29T07:06:18.574Z</time></trkpt><trkpt lat="44.0392367" lon="12.5181733"><ele>13.0</ele><time>2026-03-29T07:06:19.575Z</time></trkpt><trkpt lat="44.039135" lon="12.5180683"><ele>13.0</ele><time>2026-03-29T07:06:20.575Z</time></trkpt><trkpt lat="44.0390317" lon="12.517965"><ele>13.0</ele><time>2026-03-29T07:06:21.574Z</time></trkpt><trkpt lat="44.0389283" lon="12.5178583"><ele>13.5</ele><time>2026-03-29T07:06:22.574Z</time></trkpt><trkpt lat="44.0388217" lon="12.5177517"><ele>14.0</ele><time>2026-03-29T07:06:23.575Z</time></trkpt><trkpt lat="44.0387167" lon="12.517645"><ele>14.5</ele><time>2026-03-29T07:06:24.575Z</time></trkpt><trkpt lat="44.03862" lon="12.5175317"><ele>15.0</ele><time>2026-03-29T07:06:25.575Z</time></trkpt><trkpt lat="44.03853" lon="12.517425"><ele>15.0</ele><time>2026-03-29T07:06:26.575Z</time></trkpt><trkpt lat="44.0384433" lon="12.517315"><ele>15.0</ele><time>2026-03-29T07:06:27.575Z</time></trkpt><trkpt lat="44.0383583" lon="12.5172133"><ele>15.0</ele><time>2026-03-29T07:06:28.575Z</time></trkpt><trkpt lat="44.0382933" lon="12.517105"><ele>15.0</ele><time>2026-03-29T07:06:29.574Z</time></trkpt><trkpt lat="44.0382467" lon="12.5170117"><ele>15.0</ele><time>2026-03-29T07:06:30.574Z</time></trkpt><trkpt lat="44.0382067" lon="12.5169267"><ele>16.25</ele><time>2026-03-29T07:06:31.575Z</time></trkpt><trkpt lat="44.0381567" lon="12.51683"><ele>17.5</ele><time>2026-03-29T07:06:32.574Z</time></trkpt><trkpt lat="44.0380967" lon="12.5167083"><ele>18.75</ele><time>2026-03-29T07:06:33.575Z</time></trkpt><trkpt lat="44.0380283" lon="12.5165517"><ele>20.0</ele><time>2026-03-29T07:06:34.575Z</time></trkpt><trkpt lat="44.0379517" lon="12.5163567"><ele>20.666666666666668</ele><time>2026-03-29T07:06:35.574Z</time></trkpt><trkpt lat="44.037865" lon="12.5161333"><ele>21.333333333333332</ele><time>2026-03-29T07:06:36.574Z</time></trkpt><trkpt lat="44.0377783" lon="12.515885"><ele>22.0</ele><time>2026-03-29T07:06:37.575Z</time></trkpt><trkpt lat="44.0376883" lon="12.5156383"><ele>22.0</ele><time>2026-03-29T07:06:38.575Z</time></trkpt><trkpt lat="44.0376067" lon="12.51542"><ele>22.0</ele><time>2026-03-29T07:06:39.574Z</time></trkpt><trkpt lat="44.0375367" lon="12.515225"><ele>22.0</ele><time>2026-03-29T07:06:40.575Z</time></trkpt><trkpt lat="44.0374733" lon="12.5150667"><ele>24.200000000000003</ele><time>2026-03-29T07:06:41.575Z</time></trkpt><trkpt lat="44.0374183" lon="12.5149383"><ele>26.4</ele><time>2026-03-29T07:06:42.575Z</time></trkpt><trkpt lat="44.0373567" lon="12.51484"><ele>28.599999999999998</ele><time>2026-03-29T07:06:43.575Z</time></trkpt><trkpt lat="44.0372683" lon="12.5147983"><ele>30.799999999999997</ele><time>2026-03-29T07:06:44.574Z</time></trkpt><trkpt lat="44.03718" lon="12.5148233"><ele>33.0</ele><time>2026-03-29T07:06:45.575Z</time></trkpt><trkpt lat="44.037105" lon="12.5149133"><ele>33.0</ele><time>2026-03-29T07:06:46.575Z</time></trkpt><trkpt lat="44.0370467" lon="12.5150583"><ele>33.0</ele><time>2026-03-29T07:06:47.574Z</time></trkpt><trkpt lat="44.03698" lon="12.5152067"><ele>33.0</ele><time>2026-03-29T07:06:48.575Z</time></trkpt><trkpt lat="44.0368867" lon="12.5153183"><ele>33.0</ele><time>2026-03-29T07:06:49.575Z</time></trkpt><trkpt lat="44.0367733" lon="12.5153733"><ele>33.0</ele><time>2026-03-29T07:06:50.575Z</time></trkpt><trkpt lat="44.03664" lon="12.5153667"><ele>33.0</ele><time>2026-03-29T07:06:51.575Z</time></trkpt><trkpt lat="44.03649" lon="12.51531"><ele>33.0</ele><time>2026-03-29T07:06:52.575Z</time></trkpt><trkpt lat="44.03633" lon="12.51523"><ele>35.0</ele><time>2026-03-29T07:06:53.575Z</time></trkpt><trkpt lat="44.0361467" lon="12.51514"><ele>37.0</ele><time>2026-03-29T07:06:54.575Z</time></trkpt><trkpt lat="44.0359683" lon="12.5150567"><ele>39.0</ele><time>2026-03-29T07:06:55.574Z</time></trkpt><trkpt lat="44.0357917" lon="12.5149783"><ele>40.666666666666664</ele><time>2026-03-29T07:06:56.574Z</time></trkpt><trkpt lat="44.03562" lon="12.5149167"><ele>42.33333333333333</ele><time>2026-03-29T07:06:57.574Z</time></trkpt><trkpt lat="44.03544" lon="12.5148817"><ele>44.0</ele><time>2026-03-29T07:06:58.574Z</time></trkpt><trkpt lat="44.035255" lon="12.5148833"><ele>44.0</ele><time>2026-03-29T07:06:59.575Z</time></trkpt><trkpt lat="44.035065" lon="12.5149133"><ele>44.0</ele><time>2026-03-29T07:07:00.575Z</time></trkpt><trkpt lat="44.0348833" lon="12.5149117"><ele>44.0</ele><time>2026-03-29T07:07:01.575Z</time></trkpt><trkpt lat="44.0347167" lon="12.5148417"><ele>45.666666666666664</ele><time>2026-03-29T07:07:02.574Z</time></trkpt><trkpt lat="44.034555" lon="12.5147117"><ele>47.33333333333333</ele><time>2026-03-29T07:07:03.575Z</time></trkpt><trkpt lat="44.0344033" lon="12.51454"><ele>49.0</ele><time>2026-03-29T07:07:04.575Z</time></trkpt><trkpt lat="44.034255" lon="12.514375"><ele>50.0</ele><time>2026-03-29T07:07:05.574Z</time></trkpt><trkpt lat="44.0341217" lon="12.514235"><ele>51.0</ele><time>2026-03-29T07:07:06.575Z</time></trkpt><trkpt lat="44.034" lon="12.5141367"><ele>52.0</ele><time>2026-03-29T07:07:07.575Z</time></trkpt><trkpt lat="44.0339017" lon="12.5140767"><ele>53.0</ele><time>2026-03-29T07:07:08.574Z</time></trkpt><trkpt lat="44.0337967" lon="12.514075"><ele>53.0</ele><time>2026-03-29T07:07:09.575Z</time></trkpt><trkpt lat="44.0336967" lon="12.5141367"><ele>53.0</ele><time>2026-03-29T07:07:10.575Z</time></trkpt><trkpt lat="44.033605" lon="12.5142633"><ele>53.0</ele><time>2026-03-29T07:07:11.574Z</time></trkpt><trkpt lat="44.03351" lon="12.5144483"><ele>53.0</ele><time>2026-03-29T07:07:12.575Z</time></trkpt><trkpt lat="44.03342" lon="12.51462"><ele>52.66666666666667</ele><time>2026-03-29T07:07:13.575Z</time></trkpt><trkpt lat="44.0333183" lon="12.514755"><ele>52.33333333333333</ele><time>2026-03-29T07:07:14.575Z</time></trkpt><trkpt lat="44.0331917" lon="12.5148583"><ele>52.0</ele><time>2026-03-29T07:07:15.574Z</time></trkpt><trkpt lat="44.033035" lon="12.5149217"><ele>52.0</ele><time>2026-03-29T07:07:16.575Z</time></trkpt><trkpt lat="44.0328567" lon="12.5149683"><ele>52.0</ele><time>2026-03-29T07:07:17.575Z</time></trkpt><trkpt lat="44.03266" lon="12.5150067"><ele>52.0</ele><time>2026-03-29T07:07:18.574Z</time></trkpt><trkpt lat="44.03247" lon="12.51502"><ele>53.666666666666664</ele><time>2026-03-29T07:07:19.575Z</time></trkpt><trkpt lat="44.0322867" lon="12.5149983"><ele>55.33333333333333</ele><time>2026-03-29T07:07:20.575Z</time></trkpt><trkpt lat="44.0321067" lon="12.5149217"><ele>57.0</ele><time>2026-03-29T07:07:21.574Z</time></trkpt><trkpt lat="44.031925" lon="12.5148"><ele>57.0</ele><time>2026-03-29T07:07:22.575Z</time></trkpt><trkpt lat="44.0317367" lon="12.5146617"><ele>57.0</ele><time>2026-03-29T07:07:23.575Z</time></trkpt><trkpt lat="44.0315583" lon="12.5145417"><ele>57.0</ele><time>2026-03-29T07:07:24.575Z</time></trkpt><trkpt lat="44.03141" lon="12.5144067"><ele>59.66666666666667</ele><time>2026-03-29T07:07:25.575Z</time></trkpt><trkpt lat="44.0312717" lon="12.5142567"><ele>62.333333333333336</ele><time>2026-03-29T07:07:26.575Z</time></trkpt><trkpt lat="44.03114" lon="12.514085"><ele>65.0</ele><time>2026-03-29T07:07:27.574Z</time></trkpt><trkpt lat="44.031015" lon="12.5138883"><ele>64.66666666666667</ele><time>2026-03-29T07:07:28.575Z</time></trkpt><trkpt lat="44.0308883" lon="12.51368"><ele>64.33333333333333</ele><time>2026-03-29T07:07:29.575Z</time></trkpt><trkpt lat="44.03075" lon="12.513455"><ele>64.0</ele><time>2026-03-29T07:07:30.575Z</time></trkpt><trkpt lat="44.0306017" lon="12.513245"><ele>66.66666666666666</ele><time>2026-03-29T07:07:31.575Z</time></trkpt><trkpt lat="44.0304483" lon="12.5130583"><ele>69.33333333333333</ele><time>2026-03-29T07:07:32.575Z</time></trkpt><trkpt lat="44.03027" lon="12.5129017"><ele>72.0</ele><time>2026-03-29T07:07:33.574Z</time></trkpt><trkpt lat="44.0300767" lon="12.5127633"><ele>73.33333333333333</ele><time>2026-03-29T07:07:34.575Z</time></trkpt><trkpt lat="44.0299" lon="12.5126467"><ele>74.66666666666666</ele><time>2026-03-29T07:07:35.574Z</time></trkpt><trkpt lat="44.029735" lon="12.5125417"><ele>76.0</ele><time>2026-03-29T07:07:36.575Z</time></trkpt><trkpt lat="44.029585" lon="12.5124433"><ele>76.0</ele><time>2026-03-29T07:07:37.574Z</time></trkpt><trkpt lat="44.029455" lon="12.512345"><ele>76.0</ele><time>2026-03-29T07:07:38.575Z</time></trkpt><trkpt lat="44.0293233" lon="12.512265"><ele>76.0</ele><time>2026-03-29T07:07:39.575Z</time></trkpt><trkpt lat="44.0291817" lon="12.5122333"><ele>76.0</ele><time>2026-03-29T07:07:40.575Z</time></trkpt><trkpt lat="44.0290383" lon="12.5122583"><ele>75.33333333333333</ele><time>2026-03-29T07:07:41.575Z</time></trkpt><trkpt lat="44.0288767" lon="12.5123217"><ele>74.66666666666667</ele><time>2026-03-29T07:07:42.574Z</time></trkpt><trkpt lat="44.0286817" lon="12.5124033"><ele>74.0</ele><time>2026-03-29T07:07:43.575Z</time></trkpt><trkpt lat="44.0284783" lon="12.512485"><ele>74.66666666666667</ele><time>2026-03-29T07:07:44.574Z</time></trkpt><trkpt lat="44.0282717" lon="12.5125667"><ele>75.33333333333333</ele><time>2026-03-29T07:07:45.575Z</time></trkpt><trkpt lat="44.0280817" lon="12.51264"><ele>76.0</ele><time>2026-03-29T07:07:46.575Z</time></trkpt><trkpt lat="44.0279017" lon="12.5127083"><ele>76.0</ele><time>2026-03-29T07:07:47.574Z</time></trkpt><trkpt lat="44.0277233" lon="12.5127683"><ele>76.0</ele><time>2026-03-29T07:07:48.575Z</time></trkpt><trkpt lat="44.027535" lon="12.5128333"><ele>76.0</ele><time>2026-03-29T07:07:49.575Z</time></trkpt><trkpt lat="44.02735" lon="12.5129033"><ele>77.33333333333333</ele><time>2026-03-29T07:07:50.574Z</time></trkpt><trkpt lat="44.0271783" lon="12.5129683"><ele>78.66666666666667</ele><time>2026-03-29T07:07:51.574Z</time></trkpt><trkpt lat="44.0270267" lon="12.5130233"><ele>80.0</ele><time>2026-03-29T07:07:52.574Z</time></trkpt><trkpt lat="44.0268933" lon="12.5130683"><ele>80.0</ele><time>2026-03-29T07:07:53.575Z</time></trkpt><trkpt lat="44.026775" lon="12.5131017"><ele>80.0</ele><time>2026-03-29T07:07:54.575Z</time></trkpt><trkpt lat="44.0266583" lon="12.5131017"><ele>80.0</ele><time>2026-03-29T07:07:55.574Z</time></trkpt><trkpt lat="44.0265433" lon="12.51305"><ele>80.0</ele><time>2026-03-29T07:07:56.575Z</time></trkpt><trkpt lat="44.0264367" lon="12.5129367"><ele>79.33333333333334</ele><time>2026-03-29T07:07:57.576Z</time></trkpt><trkpt lat="44.02633" lon="12.5127767"><ele>78.66666666666667</ele><time>2026-03-29T07:07:58.576Z</time></trkpt><trkpt lat="44.0262167" lon="12.5125867"><ele>78.0</ele><time>2026-03-29T07:07:59.576Z</time></trkpt><trkpt lat="44.026085" lon="12.5123633"><ele>78.0</ele><time>2026-03-29T07:08:00.576Z</time></trkpt><trkpt lat="44.02594" lon="12.5121233"><ele>78.0</ele><time>2026-03-29T07:08:01.575Z</time></trkpt><trkpt lat="44.0257767" lon="12.5118733"><ele>83.0</ele><time>2026-03-29T07:08:02.576Z</time></trkpt><trkpt lat="44.0256033" lon="12.5116233"><ele>88.0</ele><time>2026-03-29T07:08:03.576Z</time></trkpt><trkpt lat="44.02543" lon="12.5113917"><ele>87.33333333333333</ele><time>2026-03-29T07:08:04.576Z</time></trkpt><trkpt lat="44.0252633" lon="12.5111883"><ele>86.66666666666667</ele><time>2026-03-29T07:08:05.575Z</time></trkpt><trkpt lat="44.0250833" lon="12.5110067"><ele>86.0</ele><time>2026-03-29T07:08:06.576Z</time></trkpt><trkpt lat="44.0249017" lon="12.5108367"><ele>88.66666666666667</ele><time>2026-03-29T07:08:07.575Z</time></trkpt><trkpt lat="44.0247433" lon="12.5106617"><ele>91.33333333333333</ele><time>2026-03-29T07:08:08.576Z</time></trkpt><trkpt lat="44.0245983" lon="12.5104583"><ele>94.0</ele><time>2026-03-29T07:08:09.576Z</time></trkpt><trkpt lat="44.0244833" lon="12.5102117"><ele>95.0</ele><time>2026-03-29T07:08:10.576Z</time></trkpt><trkpt lat="44.02437" lon="12.50994"><ele>96.0</ele><time>2026-03-29T07:08:11.576Z</time></trkpt><trkpt lat="44.0242483" lon="12.5096517"><ele>98.0</ele><time>2026-03-29T07:08:12.576Z</time></trkpt><trkpt lat="44.0241183" lon="12.509345"><ele>100.0</ele><time>2026-03-29T07:08:13.576Z</time></trkpt><trkpt lat="44.0239933" lon="12.5090567"><ele>100.0</ele><time>2026-03-29T07:08:14.575Z</time></trkpt><trkpt lat="44.0238717" lon="12.5087917"><ele>100.0</ele><time>2026-03-29T07:08:15.575Z</time></trkpt><trkpt lat="44.0237617" lon="12.5085467"><ele>100.0</ele><time>2026-03-29T07:08:16.575Z</time></trkpt><trkpt lat="44.0236683" lon="12.5082783"><ele>99.5</ele><time>2026-03-29T07:08:17.576Z</time></trkpt><trkpt lat="44.0236017" lon="12.5079933"><ele>99.0</ele><time>2026-03-29T07:08:18.576Z</time></trkpt><trkpt lat="44.0235467" lon="12.507675"><ele>98.0</ele><time>2026-03-29T07:08:19.576Z</time></trkpt><trkpt lat="44.0234783" lon="12.507355"><ele>97.0</ele><time>2026-03-29T07:08:20.576Z</time></trkpt><trkpt lat="44.0234067" lon="12.5070517"><ele>96.66666666666667</ele><time>2026-03-29T07:08:21.575Z</time></trkpt><trkpt lat="44.0233383" lon="12.5067617"><ele>96.33333333333334</ele><time>2026-03-29T07:08:22.576Z</time></trkpt><trkpt lat="44.023275" lon="12.5064883"><ele>96.0</ele><time>2026-03-29T07:08:23.576Z</time></trkpt><trkpt lat="44.023215" lon="12.50623"><ele>94.33333333333333</ele><time>2026-03-29T07:08:24.575Z</time></trkpt><trkpt lat="44.0231517" lon="12.505975"><ele>92.66666666666666</ele><time>2026-03-29T07:08:25.576Z</time></trkpt><trkpt lat="44.0230883" lon="12.5057267"><ele>91.0</ele><time>2026-03-29T07:08:26.576Z</time></trkpt><trkpt lat="44.0230217" lon="12.5054867"><ele>90.66666666666666</ele><time>2026-03-29T07:08:27.576Z</time></trkpt><trkpt lat="44.0229667" lon="12.5052517"><ele>90.33333333333333</ele><time>2026-03-29T07:08:28.576Z</time></trkpt><trkpt lat="44.0229167" lon="12.505025"><ele>90.0</ele><time>2026-03-29T07:08:29.576Z</time></trkpt><trkpt lat="44.0228817" lon="12.504805"><ele>89.66666666666667</ele><time>2026-03-29T07:08:30.576Z</time></trkpt><trkpt lat="44.02286" lon="12.504575"><ele>89.33333333333334</ele><time>2026-03-29T07:08:31.576Z</time></trkpt><trkpt lat="44.022855" lon="12.5043417"><ele>89.0</ele><time>2026-03-29T07:08:32.575Z</time></trkpt><trkpt lat="44.022855" lon="12.5041133"><ele>89.0</ele><time>2026-03-29T07:08:33.576Z</time></trkpt><trkpt lat="44.02287" lon="12.5039267"><ele>89.0</ele><time>2026-03-29T07:08:34.576Z</time></trkpt><trkpt lat="44.0228683" lon="12.50374"><ele>89.0</ele><time>2026-03-29T07:08:35.576Z</time></trkpt><trkpt lat="44.0228683" lon="12.5035367"><ele>89.0</ele><time>2026-03-29T07:08:36.576Z</time></trkpt><trkpt lat="44.02284" lon="12.5033133"><ele>89.66666666666667</ele><time>2026-03-29T07:08:37.576Z</time></trkpt><trkpt lat="44.0227733" lon="12.50308"><ele>90.33333333333333</ele><time>2026-03-29T07:08:38.576Z</time></trkpt><trkpt lat="44.0226783" lon="12.5028633"><ele>91.0</ele><time>2026-03-29T07:08:39.576Z</time></trkpt><trkpt lat="44.022595" lon="12.5026467"><ele>90.66666666666666</ele><time>2026-03-29T07:08:40.576Z</time></trkpt><trkpt lat="44.0225283" lon="12.502435"><ele>90.33333333333333</ele><time>2026-03-29T07:08:41.575Z</time></trkpt><trkpt lat="44.0224533" lon="12.5022383"><ele>90.0</ele><time>2026-03-29T07:08:42.575Z</time></trkpt><trkpt lat="44.022345" lon="12.5020617"><ele>92.66666666666666</ele><time>2026-03-29T07:08:43.576Z</time></trkpt><trkpt lat="44.022205" lon="12.50187"><ele>95.33333333333333</ele><time>2026-03-29T07:08:44.576Z</time></trkpt><trkpt lat="44.0220567" lon="12.5016567"><ele>98.0</ele><time>2026-03-29T07:08:45.576Z</time></trkpt><trkpt lat="44.0219083" lon="12.5014433"><ele>98.0</ele><time>2026-03-29T07:08:46.576Z</time></trkpt><trkpt lat="44.02176" lon="12.5012283"><ele>98.0</ele><time>2026-03-29T07:08:47.576Z</time></trkpt><trkpt lat="44.0216067" lon="12.50101"><ele>98.0</ele><time>2026-03-29T07:08:48.576Z</time></trkpt><trkpt lat="44.0214567" lon="12.5008"><ele>100.0</ele><time>2026-03-29T07:08:49.576Z</time></trkpt><trkpt lat="44.0213017" lon="12.5005883"><ele>102.0</ele><time>2026-03-29T07:08:50.575Z</time></trkpt><trkpt lat="44.0211467" lon="12.5003733"><ele>104.0</ele><time>2026-03-29T07:08:51.575Z</time></trkpt><trkpt lat="44.0209933" lon="12.5001667"><ele>104.0</ele><time>2026-03-29T07:08:52.576Z</time></trkpt><trkpt lat="44.02084" lon="12.499955"><ele>104.0</ele><time>2026-03-29T07:08:53.576Z</time></trkpt><trkpt lat="44.0206617" lon="12.4997467"><ele>104.0</ele><time>2026-03-29T07:08:54.576Z</time></trkpt><trkpt lat="44.0204817" lon="12.499545"><ele>107.0</ele><time>2026-03-29T07:08:55.576Z</time></trkpt><trkpt lat="44.0202967" lon="12.4993367"><ele>110.0</ele><time>2026-03-29T07:08:56.576Z</time></trkpt><trkpt lat="44.0201283" lon="12.4991433"><ele>111.0</ele><time>2026-03-29T07:08:57.576Z</time></trkpt><trkpt lat="44.0199633" lon="12.4989633"><ele>112.0</ele><time>2026-03-29T07:08:58.575Z</time></trkpt><trkpt lat="44.0197967" lon="12.4987733"><ele>113.0</ele><time>2026-03-29T07:08:59.575Z</time></trkpt><trkpt lat="44.0196467" lon="12.4985583"><ele>113.0</ele><time>2026-03-29T07:09:00.576Z</time></trkpt><trkpt lat="44.0195167" lon="12.4983033"><ele>113.0</ele><time>2026-03-29T07:09:01.576Z</time></trkpt><trkpt lat="44.0194033" lon="12.4980633"><ele>113.0</ele><time>2026-03-29T07:09:02.576Z</time></trkpt><trkpt lat="44.0193" lon="12.497855"><ele>115.0</ele><time>2026-03-29T07:09:03.576Z</time></trkpt><trkpt lat="44.0191933" lon="12.4977"><ele>117.0</ele><time>2026-03-29T07:09:04.575Z</time></trkpt><trkpt lat="44.0190517" lon="12.497595"><ele>119.0</ele><time>2026-03-29T07:09:05.576Z</time></trkpt><trkpt lat="44.018885" lon="12.497525"><ele>120.25</ele><time>2026-03-29T07:09:06.576Z</time></trkpt><trkpt lat="44.01872" lon="12.4974833"><ele>121.5</ele><time>2026-03-29T07:09:07.576Z</time></trkpt><trkpt lat="44.0185733" lon="12.497445"><ele>122.75</ele><time>2026-03-29T07:09:08.576Z</time></trkpt><trkpt lat="44.0184567" lon="12.4974117"><ele>124.0</ele><time>2026-03-29T07:09:09.576Z</time></trkpt><trkpt lat="44.0183733" lon="12.4973867"><ele>124.0</ele><time>2026-03-29T07:09:10.576Z</time></trkpt><trkpt lat="44.0182917" lon="12.4973483"><ele>124.0</ele><time>2026-03-29T07:09:12.576Z</time></trkpt><trkpt lat="44.01819" lon="12.49726"><ele>124.0</ele><time>2026-03-29T07:09:15.576Z</time></trkpt><trkpt lat="44.0181017" lon="12.4972083"><ele>124.0</ele><time>2026-03-29T07:09:16.575Z</time></trkpt><trkpt lat="44.0179917" lon="12.497135"><ele>124.0</ele><time>2026-03-29T07:09:17.575Z</time></trkpt><trkpt lat="44.01789" lon="12.4970167"><ele>124.33333333333334</ele><time>2026-03-29T07:09:18.575Z</time></trkpt><trkpt lat="44.0177917" lon="12.4968633"><ele>124.66666666666666</ele><time>2026-03-29T07:09:19.575Z</time></trkpt><trkpt lat="44.017675" lon="12.4966667"><ele>125.0</ele><time>2026-03-29T07:09:20.575Z</time></trkpt><trkpt lat="44.017575" lon="12.496425"><ele>122.33333333333333</ele><time>2026-03-29T07:09:21.576Z</time></trkpt><trkpt lat="44.017475" lon="12.4961983"><ele>119.66666666666666</ele><time>2026-03-29T07:09:22.576Z</time></trkpt><trkpt lat="44.0173667" lon="12.4959867"><ele>117.0</ele><time>2026-03-29T07:09:23.575Z</time></trkpt><trkpt lat="44.0172467" lon="12.4957683"><ele>117.0</ele><time>2026-03-29T07:09:24.576Z</time></trkpt><trkpt lat="44.01712" lon="12.49555"><ele>117.0</ele><time>2026-03-29T07:09:25.575Z</time></trkpt><trkpt lat="44.016985" lon="12.4953233"><ele>117.0</ele><time>2026-03-29T07:09:26.576Z</time></trkpt><trkpt lat="44.016835" lon="12.4951033"><ele>117.0</ele><time>2026-03-29T07:09:27.576Z</time></trkpt><trkpt lat="44.0166633" lon="12.4948783"><ele>117.0</ele><time>2026-03-29T07:09:28.576Z</time></trkpt><trkpt lat="44.0164867" lon="12.4946533"><ele>121.0</ele><time>2026-03-29T07:09:29.575Z</time></trkpt><trkpt lat="44.0162983" lon="12.49442"><ele>125.0</ele><time>2026-03-29T07:09:30.575Z</time></trkpt><trkpt lat="44.016115" lon="12.4941867"><ele>125.0</ele><time>2026-03-29T07:09:31.575Z</time></trkpt><trkpt lat="44.0159367" lon="12.4939533"><ele>125.0</ele><time>2026-03-29T07:09:32.576Z</time></trkpt><trkpt lat="44.01576" lon="12.4937217"><ele>128.0</ele><time>2026-03-29T07:09:33.575Z</time></trkpt><trkpt lat="44.015575" lon="12.4934867"><ele>131.0</ele><time>2026-03-29T07:09:34.575Z</time></trkpt><trkpt lat="44.01538" lon="12.4932617"><ele>131.0</ele><time>2026-03-29T07:09:35.575Z</time></trkpt><trkpt lat="44.0151733" lon="12.4930383"><ele>131.0</ele><time>2026-03-29T07:09:36.576Z</time></trkpt><trkpt lat="44.01496" lon="12.49282"><ele>133.0</ele><time>2026-03-29T07:09:37.576Z</time></trkpt><trkpt lat="44.014735" lon="12.4926017"><ele>135.0</ele><time>2026-03-29T07:09:38.575Z</time></trkpt><trkpt lat="44.0145083" lon="12.492385"><ele>135.0</ele><time>2026-03-29T07:09:39.576Z</time></trkpt><trkpt lat="44.0143033" lon="12.4921767"><ele>135.0</ele><time>2026-03-29T07:09:40.576Z</time></trkpt><trkpt lat="44.0141067" lon="12.4919733"><ele>133.0</ele><time>2026-03-29T07:09:41.575Z</time></trkpt><trkpt lat="44.0139167" lon="12.491765"><ele>131.0</ele><time>2026-03-29T07:09:42.575Z</time></trkpt><trkpt lat="44.0137333" lon="12.4915717"><ele>131.0</ele><time>2026-03-29T07:09:43.576Z</time></trkpt><trkpt lat="44.01355" lon="12.4913933"><ele>131.0</ele><time>2026-03-29T07:09:44.576Z</time></trkpt><trkpt lat="44.013355" lon="12.49122"><ele>132.0</ele><time>2026-03-29T07:09:45.576Z</time></trkpt><trkpt lat="44.0131517" lon="12.491045"><ele>133.0</ele><time>2026-03-29T07:09:46.576Z</time></trkpt><trkpt lat="44.01293" lon="12.4908783"><ele>133.0</ele><time>2026-03-29T07:09:47.576Z</time></trkpt><trkpt lat="44.01271" lon="12.4907017"><ele>133.0</ele><time>2026-03-29T07:09:48.576Z</time></trkpt><trkpt lat="44.0124917" lon="12.490535"><ele>136.5</ele><time>2026-03-29T07:09:49.575Z</time></trkpt><trkpt lat="44.0122867" lon="12.49037"><ele>140.0</ele><time>2026-03-29T07:09:50.575Z</time></trkpt><trkpt lat="44.0120817" lon="12.4902117"><ele>140.0</ele><time>2026-03-29T07:09:51.576Z</time></trkpt><trkpt lat="44.0118767" lon="12.4900533"><ele>140.0</ele><time>2026-03-29T07:09:52.575Z</time></trkpt><trkpt lat="44.011665" lon="12.4899"><ele>142.66666666666666</ele><time>2026-03-29T07:09:53.576Z</time></trkpt><trkpt lat="44.0114683" lon="12.4897383"><ele>145.33333333333334</ele><time>2026-03-29T07:09:54.576Z</time></trkpt><trkpt lat="44.011285" lon="12.48958"><ele>148.0</ele><time>2026-03-29T07:09:55.576Z</time></trkpt><trkpt lat="44.0111117" lon="12.4894433"><ele>148.0</ele><time>2026-03-29T07:09:56.576Z</time></trkpt><trkpt lat="44.0109517" lon="12.489315"><ele>148.0</ele><time>2026-03-29T07:09:57.576Z</time></trkpt><trkpt lat="44.010805" lon="12.4892033"><ele>148.0</ele><time>2026-03-29T07:09:58.576Z</time></trkpt><trkpt lat="44.010665" lon="12.4891033"><ele>148.66666666666669</ele><time>2026-03-29T07:09:59.575Z</time></trkpt><trkpt lat="44.0105233" lon="12.4889833"><ele>149.33333333333334</ele><time>2026-03-29T07:10:00.576Z</time></trkpt><trkpt lat="44.0103667" lon="12.4888383"><ele>150.0</ele><time>2026-03-29T07:10:01.576Z</time></trkpt><trkpt lat="44.0102" lon="12.4886817"><ele>148.33333333333334</ele><time>2026-03-29T07:10:02.576Z</time></trkpt><trkpt lat="44.010025" lon="12.488515"><ele>146.66666666666669</ele><time>2026-03-29T07:10:03.576Z</time></trkpt><trkpt lat="44.00986" lon="12.4883367"><ele>145.0</ele><time>2026-03-29T07:10:04.575Z</time></trkpt><trkpt lat="44.0096983" lon="12.4881617"><ele>144.0</ele><time>2026-03-29T07:10:05.576Z</time></trkpt><trkpt lat="44.00954" lon="12.4879817"><ele>143.0</ele><time>2026-03-29T07:10:06.576Z</time></trkpt><trkpt lat="44.009365" lon="12.4877983"><ele>142.0</ele><time>2026-03-29T07:10:07.575Z</time></trkpt><trkpt lat="44.0091833" lon="12.4876083"><ele>139.0</ele><time>2026-03-29T07:10:08.576Z</time></trkpt><trkpt lat="44.009" lon="12.4874167"><ele>136.0</ele><time>2026-03-29T07:10:09.576Z</time></trkpt><trkpt lat="44.0088233" lon="12.4872283"><ele>136.33333333333334</ele><time>2026-03-29T07:10:10.576Z</time></trkpt><trkpt lat="44.0086417" lon="12.487045"><ele>136.66666666666666</ele><time>2026-03-29T07:10:11.576Z</time></trkpt><trkpt lat="44.0084583" lon="12.4868667"><ele>137.0</ele><time>2026-03-29T07:10:12.576Z</time></trkpt><trkpt lat="44.008265" lon="12.4866983"><ele>133.5</ele><time>2026-03-29T07:10:13.575Z</time></trkpt><trkpt lat="44.0080617" lon="12.4865417"><ele>130.0</ele><time>2026-03-29T07:10:14.576Z</time></trkpt><trkpt lat="44.0078633" lon="12.4863883"><ele>130.66666666666669</ele><time>2026-03-29T07:10:15.576Z</time></trkpt><trkpt lat="44.00767" lon="12.486245"><ele>131.33333333333334</ele><time>2026-03-29T07:10:16.575Z</time></trkpt><trkpt lat="44.0074883" lon="12.48612"><ele>132.0</ele><time>2026-03-29T07:10:17.576Z</time></trkpt><trkpt lat="44.0072967" lon="12.4860117"><ele>133.33333333333334</ele><time>2026-03-29T07:10:18.576Z</time></trkpt><trkpt lat="44.0071083" lon="12.4859117"><ele>134.66666666666669</ele><time>2026-03-29T07:10:19.576Z</time></trkpt><trkpt lat="44.00693" lon="12.4858267"><ele>136.0</ele><time>2026-03-29T07:10:20.575Z</time></trkpt><trkpt lat="44.006765" lon="12.485755"><ele>136.8</ele><time>2026-03-29T07:10:21.576Z</time></trkpt><trkpt lat="44.0066483" lon="12.48566"><ele>137.6</ele><time>2026-03-29T07:10:22.575Z</time></trkpt><trkpt lat="44.0065583" lon="12.485565"><ele>138.4</ele><time>2026-03-29T07:10:23.575Z</time></trkpt><trkpt lat="44.0065067" lon="12.48549"><ele>139.2</ele><time>2026-03-29T07:10:24.576Z</time></trkpt><trkpt lat="44.00642" lon="12.485415"><ele>140.0</ele><time>2026-03-29T07:10:26.576Z</time></trkpt><trkpt lat="44.0063583" lon="12.4854433"><ele>140.16666666666666</ele><time>2026-03-29T07:10:28.575Z</time></trkpt><trkpt lat="44.0062867" lon="12.485415"><ele>140.33333333333331</ele><time>2026-03-29T07:13:18.577Z</time></trkpt><trkpt lat="44.0063083" lon="12.48531"><ele>140.5</ele><time>2026-03-29T07:13:22.576Z</time></trkpt><trkpt lat="44.0063033" lon="12.4851867"><ele>140.66666666666666</ele><time>2026-03-29T07:13:28.576Z</time></trkpt><trkpt lat="44.0062567" lon="12.4851117"><ele>140.83333333333334</ele><time>2026-03-29T07:13:29.576Z</time></trkpt><trkpt lat="44.0062033" lon="12.4850333"><ele>141.0</ele><time>2026-03-29T07:13:30.577Z</time></trkpt><trkpt lat="44.0061467" lon="12.4849467"><ele>141.0</ele><time>2026-03-29T07:13:31.577Z</time></trkpt><trkpt lat="44.0060867" lon="12.4848517"><ele>141.0</ele><time>2026-03-29T07:13:32.577Z</time></trkpt><trkpt lat="44.0060317" lon="12.4847717"><ele>141.0</ele><time>2026-03-29T07:13:33.576Z</time></trkpt><trkpt lat="44.0059783" lon="12.48469"><ele>141.0</ele><time>2026-03-29T07:13:34.577Z</time></trkpt><trkpt lat="44.00592" lon="12.4846017"><ele>141.0</ele><time>2026-03-29T07:13:35.576Z</time></trkpt><trkpt lat="44.0058517" lon="12.4845017"><ele>141.0</ele><time>2026-03-29T07:13:36.576Z</time></trkpt><trkpt lat="44.0057717" lon="12.4843783"><ele>140.0</ele><time>2026-03-29T07:13:37.577Z</time></trkpt><trkpt lat="44.0057017" lon="12.48426"><ele>139.0</ele><time>2026-03-29T07:13:38.576Z</time></trkpt><trkpt lat="44.0056317" lon="12.4841533"><ele>138.0</ele><time>2026-03-29T07:13:39.577Z</time></trkpt><trkpt lat="44.0055467" lon="12.4840333"><ele>137.0</ele><time>2026-03-29T07:13:40.576Z</time></trkpt><trkpt lat="44.005445" lon="12.4838967"><ele>138.66666666666666</ele><time>2026-03-29T07:13:41.576Z</time></trkpt><trkpt lat="44.0053333" lon="12.48374"><ele>140.33333333333334</ele><time>2026-03-29T07:13:42.577Z</time></trkpt><trkpt lat="44.005215" lon="12.4835667"><ele>142.0</ele><time>2026-03-29T07:13:43.576Z</time></trkpt><trkpt lat="44.00509" lon="12.4833783"><ele>143.0</ele><time>2026-03-29T07:13:44.577Z</time></trkpt><trkpt lat="44.0049617" lon="12.48318"><ele>144.0</ele><time>2026-03-29T07:13:45.577Z</time></trkpt><trkpt lat="44.004825" lon="12.48298"><ele>145.0</ele><time>2026-03-29T07:13:46.576Z</time></trkpt><trkpt lat="44.00469" lon="12.4827717"><ele>145.0</ele><time>2026-03-29T07:13:47.577Z</time></trkpt><trkpt lat="44.00455" lon="12.48255"><ele>145.0</ele><time>2026-03-29T07:13:48.577Z</time></trkpt><trkpt lat="44.0044133" lon="12.482335"><ele>145.0</ele><time>2026-03-29T07:13:49.577Z</time></trkpt><trkpt lat="44.0042867" lon="12.482135"><ele>146.66666666666669</ele><time>2026-03-29T07:13:50.577Z</time></trkpt><trkpt lat="44.004165" lon="12.48195"><ele>148.33333333333334</ele><time>2026-03-29T07:13:51.576Z</time></trkpt><trkpt lat="44.00404" lon="12.4817733"><ele>150.0</ele><time>2026-03-29T07:13:52.577Z</time></trkpt><trkpt lat="44.00391" lon="12.48161"><ele>150.66666666666666</ele><time>2026-03-29T07:13:53.576Z</time></trkpt><trkpt lat="44.0037417" lon="12.4814667"><ele>151.33333333333331</ele><time>2026-03-29T07:13:54.577Z</time></trkpt><trkpt lat="44.0035633" lon="12.4813267"><ele>152.0</ele><time>2026-03-29T07:13:55.576Z</time></trkpt><trkpt lat="44.0033867" lon="12.4812033"><ele>155.33333333333331</ele><time>2026-03-29T07:13:56.577Z</time></trkpt><trkpt lat="44.0032267" lon="12.4810783"><ele>158.66666666666666</ele><time>2026-03-29T07:13:57.577Z</time></trkpt><trkpt lat="44.0030933" lon="12.4809633"><ele>162.0</ele><time>2026-03-29T07:13:58.576Z</time></trkpt><trkpt lat="44.0029683" lon="12.4808483"><ele>162.0</ele><time>2026-03-29T07:13:59.577Z</time></trkpt><trkpt lat="44.0028667" lon="12.4807083"><ele>162.0</ele><time>2026-03-29T07:14:00.576Z</time></trkpt><trkpt lat="44.0028083" lon="12.4805217"><ele>162.0</ele><time>2026-03-29T07:14:01.577Z</time></trkpt><trkpt lat="44.0027917" lon="12.4803433"><ele>162.0</ele><time>2026-03-29T07:14:02.576Z</time></trkpt><trkpt lat="44.0027867" lon="12.4801967"><ele>162.39999999999998</ele><time>2026-03-29T07:14:03.577Z</time></trkpt><trkpt lat="44.00276" lon="12.48007"><ele>162.79999999999998</ele><time>2026-03-29T07:14:04.577Z</time></trkpt><trkpt lat="44.0026983" lon="12.47997"><ele>163.2</ele><time>2026-03-29T07:14:05.577Z</time></trkpt><trkpt lat="44.0026117" lon="12.4799333"><ele>163.6</ele><time>2026-03-29T07:14:06.577Z</time></trkpt><trkpt lat="44.0025067" lon="12.4799633"><ele>164.0</ele><time>2026-03-29T07:14:07.577Z</time></trkpt><trkpt lat="44.0024017" lon="12.4800617"><ele>167.0</ele><time>2026-03-29T07:14:08.577Z</time></trkpt><trkpt lat="44.002305" lon="12.4802117"><ele>170.0</ele><time>2026-03-29T07:14:09.577Z</time></trkpt><trkpt lat="44.0022033" lon="12.4803933"><ele>173.0</ele><time>2026-03-29T07:14:10.577Z</time></trkpt><trkpt lat="44.002095" lon="12.4805533"><ele>173.0</ele><time>2026-03-29T07:14:11.577Z</time></trkpt><trkpt lat="44.00201" lon="12.4806783"><ele>173.0</ele><time>2026-03-29T07:14:12.577Z</time></trkpt><trkpt lat="44.00193" lon="12.48078"><ele>173.0</ele><time>2026-03-29T07:14:13.576Z</time></trkpt><trkpt lat="44.001845" lon="12.4808383"><ele>173.0</ele><time>2026-03-29T07:14:14.576Z</time></trkpt><trkpt lat="44.0017667" lon="12.4808317"><ele>173.0</ele><time>2026-03-29T07:14:15.577Z</time></trkpt><trkpt lat="44.0017067" lon="12.480775"><ele>173.0</ele><time>2026-03-29T07:14:16.577Z</time></trkpt><trkpt lat="44.0016767" lon="12.4806717"><ele>173.0</ele><time>2026-03-29T07:14:17.577Z</time></trkpt><trkpt lat="44.0017133" lon="12.480495"><ele>173.0</ele><time>2026-03-29T07:14:18.576Z</time></trkpt><trkpt lat="44.0017667" lon="12.4803133"><ele>173.0</ele><time>2026-03-29T07:14:19.577Z</time></trkpt><trkpt lat="44.001815" lon="12.48013"><ele>174.5</ele><time>2026-03-29T07:14:20.576Z</time></trkpt><trkpt lat="44.0018367" lon="12.4799567"><ele>176.0</ele><time>2026-03-29T07:14:21.577Z</time></trkpt><trkpt lat="44.0018133" lon="12.47978"><ele>177.5</ele><time>2026-03-29T07:14:22.576Z</time></trkpt><trkpt lat="44.0017483" lon="12.479585"><ele>179.0</ele><time>2026-03-29T07:14:23.576Z</time></trkpt><trkpt lat="44.0016467" lon="12.47937"><ele>181.0</ele><time>2026-03-29T07:14:24.576Z</time></trkpt><trkpt lat="44.001535" lon="12.479155"><ele>183.0</ele><time>2026-03-29T07:14:25.577Z</time></trkpt><trkpt lat="44.0014183" lon="12.47894"><ele>185.0</ele><time>2026-03-29T07:14:26.577Z</time></trkpt><trkpt lat="44.0013117" lon="12.47874"><ele>185.0</ele><time>2026-03-29T07:14:27.577Z</time></trkpt><trkpt lat="44.00121" lon="12.478535"><ele>185.0</ele><time>2026-03-29T07:14:28.576Z</time></trkpt><trkpt lat="44.001135" lon="12.4783083"><ele>185.0</ele><time>2026-03-29T07:14:29.577Z</time></trkpt><trkpt lat="44.0010733" lon="12.4780567"><ele>185.66666666666666</ele><time>2026-03-29T07:14:30.576Z</time></trkpt><trkpt lat="44.0010083" lon="12.4777883"><ele>186.33333333333334</ele><time>2026-03-29T07:14:31.577Z</time></trkpt><trkpt lat="44.0009383" lon="12.4775233"><ele>187.0</ele><time>2026-03-29T07:14:32.576Z</time></trkpt><trkpt lat="44.0008717" lon="12.4772633"><ele>185.66666666666669</ele><time>2026-03-29T07:14:33.577Z</time></trkpt><trkpt lat="44.0007983" lon="12.4769867"><ele>184.33333333333334</ele><time>2026-03-29T07:14:34.577Z</time></trkpt><trkpt lat="44.00071" lon="12.476715"><ele>183.0</ele><time>2026-03-29T07:14:35.577Z</time></trkpt><trkpt lat="44.0006083" lon="12.4764333"><ele>186.33333333333331</ele><time>2026-03-29T07:14:36.577Z</time></trkpt><trkpt lat="44.0005167" lon="12.4761817"><ele>189.66666666666666</ele><time>2026-03-29T07:14:37.576Z</time></trkpt><trkpt lat="44.0004167" lon="12.4759483"><ele>193.0</ele><time>2026-03-29T07:14:38.577Z</time></trkpt><trkpt lat="44.00032" lon="12.4757383"><ele>193.0</ele><time>2026-03-29T07:14:39.576Z</time></trkpt><trkpt lat="44.0002183" lon="12.4755617"><ele>193.0</ele><time>2026-03-29T07:14:40.576Z</time></trkpt><trkpt lat="44.00011" lon="12.4753867"><ele>193.0</ele><time>2026-03-29T07:14:41.577Z</time></trkpt><trkpt lat="43.999985" lon="12.4752367"><ele>195.0</ele><time>2026-03-29T07:14:42.576Z</time></trkpt><trkpt lat="43.999825" lon="12.4751083"><ele>197.0</ele><time>2026-03-29T07:14:43.577Z</time></trkpt><trkpt lat="43.9996483" lon="12.4749783"><ele>199.0</ele><time>2026-03-29T07:14:44.576Z</time></trkpt><trkpt lat="43.9994483" lon="12.4748633"><ele>199.0</ele><time>2026-03-29T07:14:45.576Z</time></trkpt><trkpt lat="43.9992433" lon="12.474745"><ele>199.0</ele><time>2026-03-29T07:14:46.576Z</time></trkpt><trkpt lat="43.9990417" lon="12.4746183"><ele>199.0</ele><time>2026-03-29T07:14:47.577Z</time></trkpt><trkpt lat="43.9988567" lon="12.4745083"><ele>196.66666666666666</ele><time>2026-03-29T07:14:48.577Z</time></trkpt><trkpt lat="43.9986567" lon="12.4744"><ele>194.33333333333331</ele><time>2026-03-29T07:14:49.576Z</time></trkpt><trkpt lat="43.9984567" lon="12.4742883"><ele>192.0</ele><time>2026-03-29T07:14:50.576Z</time></trkpt><trkpt lat="43.9982583" lon="12.4741767"><ele>191.33333333333334</ele><time>2026-03-29T07:14:51.577Z</time></trkpt><trkpt lat="43.9980683" lon="12.47406"><ele>190.66666666666669</ele><time>2026-03-29T07:14:52.577Z</time></trkpt><trkpt lat="43.9978867" lon="12.4739483"><ele>190.0</ele><time>2026-03-29T07:14:53.577Z</time></trkpt><trkpt lat="43.997715" lon="12.473835"><ele>189.0</ele><time>2026-03-29T07:14:54.576Z</time></trkpt><trkpt lat="43.9975533" lon="12.4737233"><ele>188.0</ele><time>2026-03-29T07:14:55.576Z</time></trkpt><trkpt lat="43.9973933" lon="12.4736133"><ele>187.0</ele><time>2026-03-29T07:14:56.577Z</time></trkpt><trkpt lat="43.9972433" lon="12.4734683"><ele>187.0</ele><time>2026-03-29T07:14:57.576Z</time></trkpt><trkpt lat="43.9971033" lon="12.473285"><ele>187.0</ele><time>2026-03-29T07:14:58.577Z</time></trkpt><trkpt lat="43.99696" lon="12.473065"><ele>187.0</ele><time>2026-03-29T07:14:59.577Z</time></trkpt><trkpt lat="43.99681" lon="12.4728333"><ele>184.0</ele><time>2026-03-29T07:15:00.576Z</time></trkpt><trkpt lat="43.99665" lon="12.4725867"><ele>181.0</ele><time>2026-03-29T07:15:01.577Z</time></trkpt><trkpt lat="43.9964767" lon="12.47233"><ele>178.5</ele><time>2026-03-29T07:15:02.576Z</time></trkpt><trkpt lat="43.9962783" lon="12.4720617"><ele>176.0</ele><time>2026-03-29T07:15:03.576Z</time></trkpt><trkpt lat="43.9960783" lon="12.4717933"><ele>176.0</ele><time>2026-03-29T07:15:04.577Z</time></trkpt><trkpt lat="43.9958733" lon="12.47153"><ele>176.0</ele><time>2026-03-29T07:15:05.576Z</time></trkpt><trkpt lat="43.9956617" lon="12.4712583"><ele>175.5</ele><time>2026-03-29T07:15:06.577Z</time></trkpt><trkpt lat="43.9954517" lon="12.4709817"><ele>175.0</ele><time>2026-03-29T07:15:07.577Z</time></trkpt><trkpt lat="43.9952367" lon="12.470695"><ele>175.0</ele><time>2026-03-29T07:15:08.577Z</time></trkpt><trkpt lat="43.9950267" lon="12.470395"><ele>175.0</ele><time>2026-03-29T07:15:09.577Z</time></trkpt><trkpt lat="43.9948133" lon="12.4700883"><ele>175.0</ele><time>2026-03-29T07:15:10.576Z</time></trkpt><trkpt lat="43.9946033" lon="12.4697883"><ele>175.0</ele><time>2026-03-29T07:15:11.577Z</time></trkpt><trkpt lat="43.9944017" lon="12.4694983"><ele>175.5</ele><time>2026-03-29T07:15:12.577Z</time></trkpt><trkpt lat="43.9942067" lon="12.4692183"><ele>176.0</ele><time>2026-03-29T07:15:13.576Z</time></trkpt><trkpt lat="43.9940233" lon="12.4689467"><ele>176.5</ele><time>2026-03-29T07:15:14.577Z</time></trkpt><trkpt lat="43.9938383" lon="12.4686817"><ele>177.0</ele><time>2026-03-29T07:15:15.577Z</time></trkpt><trkpt lat="43.9936633" lon="12.4683883"><ele>177.0</ele><time>2026-03-29T07:15:16.577Z</time></trkpt><trkpt lat="43.9934817" lon="12.4680983"><ele>177.0</ele><time>2026-03-29T07:15:17.577Z</time></trkpt><trkpt lat="43.9932933" lon="12.4678133"><ele>176.5</ele><time>2026-03-29T07:15:18.576Z</time></trkpt><trkpt lat="43.9931067" lon="12.4675433"><ele>176.0</ele><time>2026-03-29T07:15:19.577Z</time></trkpt><trkpt lat="43.9929317" lon="12.4672833"><ele>176.0</ele><time>2026-03-29T07:15:20.577Z</time></trkpt><trkpt lat="43.9927733" lon="12.4670417"><ele>176.0</ele><time>2026-03-29T07:15:21.576Z</time></trkpt><trkpt lat="43.9926183" lon="12.4668083"><ele>176.33333333333331</ele><time>2026-03-29T07:15:22.577Z</time></trkpt><trkpt lat="43.9924733" lon="12.466585"><ele>176.66666666666666</ele><time>2026-03-29T07:15:23.577Z</time></trkpt><trkpt lat="43.9923417" lon="12.4663617"><ele>177.0</ele><time>2026-03-29T07:15:24.576Z</time></trkpt><trkpt lat="43.99221" lon="12.4661317"><ele>177.0</ele><time>2026-03-29T07:15:25.576Z</time></trkpt><trkpt lat="43.99207" lon="12.4659133"><ele>177.0</ele><time>2026-03-29T07:15:26.577Z</time></trkpt><trkpt lat="43.9919217" lon="12.4656933"><ele>177.0</ele><time>2026-03-29T07:15:27.577Z</time></trkpt><trkpt lat="43.991765" lon="12.4654783"><ele>176.33333333333334</ele><time>2026-03-29T07:15:28.577Z</time></trkpt><trkpt lat="43.9916017" lon="12.4652667"><ele>175.66666666666669</ele><time>2026-03-29T07:15:29.577Z</time></trkpt><trkpt lat="43.9914533" lon="12.4650467"><ele>175.0</ele><time>2026-03-29T07:15:30.577Z</time></trkpt><trkpt lat="43.9913083" lon="12.46484"><ele>175.0</ele><time>2026-03-29T07:15:31.577Z</time></trkpt><trkpt lat="43.9911617" lon="12.4646433"><ele>175.0</ele><time>2026-03-29T07:15:32.576Z</time></trkpt><trkpt lat="43.9910067" lon="12.4644467"><ele>175.0</ele><time>2026-03-29T07:15:33.577Z</time></trkpt><trkpt lat="43.9908583" lon="12.4642417"><ele>176.0</ele><time>2026-03-29T07:15:34.577Z</time></trkpt><trkpt lat="43.9907167" lon="12.46405"><ele>177.0</ele><time>2026-03-29T07:15:35.576Z</time></trkpt><trkpt lat="43.990585" lon="12.4638717"><ele>178.0</ele><time>2026-03-29T07:15:36.577Z</time></trkpt><trkpt lat="43.9904533" lon="12.4637"><ele>178.0</ele><time>2026-03-29T07:15:37.577Z</time></trkpt><trkpt lat="43.9903167" lon="12.463555"><ele>178.0</ele><time>2026-03-29T07:15:38.577Z</time></trkpt><trkpt lat="43.9901683" lon="12.46341"><ele>178.0</ele><time>2026-03-29T07:15:39.577Z</time></trkpt><trkpt lat="43.9900133" lon="12.4632717"><ele>179.66666666666669</ele><time>2026-03-29T07:15:40.577Z</time></trkpt><trkpt lat="43.989865" lon="12.463125"><ele>181.33333333333334</ele><time>2026-03-29T07:15:41.577Z</time></trkpt><trkpt lat="43.98973" lon="12.4629933"><ele>183.0</ele><time>2026-03-29T07:15:42.577Z</time></trkpt><trkpt lat="43.9895767" lon="12.462875"><ele>183.66666666666666</ele><time>2026-03-29T07:15:43.577Z</time></trkpt><trkpt lat="43.98941" lon="12.46276"><ele>184.33333333333331</ele><time>2026-03-29T07:15:44.577Z</time></trkpt><trkpt lat="43.9892183" lon="12.462655"><ele>185.0</ele><time>2026-03-29T07:15:45.577Z</time></trkpt><trkpt lat="43.9890233" lon="12.4625383"><ele>185.0</ele><time>2026-03-29T07:15:46.577Z</time></trkpt><trkpt lat="43.988835" lon="12.46242"><ele>185.0</ele><time>2026-03-29T07:15:47.577Z</time></trkpt><trkpt lat="43.9886517" lon="12.4623117"><ele>185.0</ele><time>2026-03-29T07:15:48.577Z</time></trkpt><trkpt lat="43.9884683" lon="12.4622"><ele>184.33333333333331</ele><time>2026-03-29T07:15:49.577Z</time></trkpt><trkpt lat="43.9882633" lon="12.462105"><ele>183.66666666666666</ele><time>2026-03-29T07:15:50.576Z</time></trkpt><trkpt lat="43.9880517" lon="12.4620133"><ele>183.0</ele><time>2026-03-29T07:15:51.577Z</time></trkpt><trkpt lat="43.98783" lon="12.46191"><ele>183.0</ele><time>2026-03-29T07:15:52.577Z</time></trkpt><trkpt lat="43.9876133" lon="12.461795"><ele>183.0</ele><time>2026-03-29T07:15:53.577Z</time></trkpt><trkpt lat="43.9873883" lon="12.4616867"><ele>180.0</ele><time>2026-03-29T07:15:54.576Z</time></trkpt><trkpt lat="43.9871633" lon="12.46158"><ele>177.0</ele><time>2026-03-29T07:15:55.576Z</time></trkpt><trkpt lat="43.9869433" lon="12.461475"><ele>177.0</ele><time>2026-03-29T07:15:56.576Z</time></trkpt><trkpt lat="43.9867267" lon="12.46137"><ele>177.0</ele><time>2026-03-29T07:15:57.577Z</time></trkpt><trkpt lat="43.9865133" lon="12.461265"><ele>175.0</ele><time>2026-03-29T07:15:58.576Z</time></trkpt><trkpt lat="43.9863067" lon="12.4611717"><ele>173.0</ele><time>2026-03-29T07:15:59.577Z</time></trkpt><trkpt lat="43.9860933" lon="12.4610833"><ele>171.0</ele><time>2026-03-29T07:16:00.577Z</time></trkpt><trkpt lat="43.9858833" lon="12.4609933"><ele>171.0</ele><time>2026-03-29T07:16:01.576Z</time></trkpt><trkpt lat="43.9856617" lon="12.46091"><ele>171.0</ele><time>2026-03-29T07:16:02.577Z</time></trkpt><trkpt lat="43.98544" lon="12.4608317"><ele>171.0</ele><time>2026-03-29T07:16:03.577Z</time></trkpt><trkpt lat="43.98523" lon="12.46076"><ele>171.0</ele><time>2026-03-29T07:16:04.576Z</time></trkpt><trkpt lat="43.9850217" lon="12.46071"><ele>171.0</ele><time>2026-03-29T07:16:05.577Z</time></trkpt><trkpt lat="43.9848033" lon="12.4606717"><ele>171.66666666666666</ele><time>2026-03-29T07:16:06.577Z</time></trkpt><trkpt lat="43.98458" lon="12.4606383"><ele>172.33333333333331</ele><time>2026-03-29T07:16:07.577Z</time></trkpt><trkpt lat="43.9843667" lon="12.4605733"><ele>173.0</ele><time>2026-03-29T07:16:08.576Z</time></trkpt><trkpt lat="43.984165" lon="12.4604917"><ele>175.66666666666666</ele><time>2026-03-29T07:16:09.577Z</time></trkpt><trkpt lat="43.9839733" lon="12.4604017"><ele>178.33333333333334</ele><time>2026-03-29T07:16:10.577Z</time></trkpt><trkpt lat="43.9837933" lon="12.460315"><ele>181.0</ele><time>2026-03-29T07:16:11.577Z</time></trkpt><trkpt lat="43.9836283" lon="12.460245"><ele>181.0</ele><time>2026-03-29T07:16:12.577Z</time></trkpt><trkpt lat="43.9834767" lon="12.4601867"><ele>181.0</ele><time>2026-03-29T07:16:13.577Z</time></trkpt><trkpt lat="43.9833" lon="12.460145"><ele>181.0</ele><time>2026-03-29T07:16:14.576Z</time></trkpt><trkpt lat="43.9831117" lon="12.4601567"><ele>180.33333333333334</ele><time>2026-03-29T07:16:15.577Z</time></trkpt><trkpt lat="43.9829133" lon="12.46017"><ele>179.66666666666666</ele><time>2026-03-29T07:16:16.577Z</time></trkpt><trkpt lat="43.9827" lon="12.460185"><ele>179.0</ele><time>2026-03-29T07:16:17.577Z</time></trkpt><trkpt lat="43.9824833" lon="12.4601983"><ele>179.0</ele><time>2026-03-29T07:16:18.577Z</time></trkpt><trkpt lat="43.982265" lon="12.46023"><ele>179.0</ele><time>2026-03-29T07:16:19.577Z</time></trkpt><trkpt lat="43.9820633" lon="12.4602567"><ele>179.0</ele><time>2026-03-29T07:16:20.577Z</time></trkpt><trkpt lat="43.98187" lon="12.4602667"><ele>179.0</ele><time>2026-03-29T07:16:21.577Z</time></trkpt><trkpt lat="43.9816983" lon="12.4602783"><ele>179.0</ele><time>2026-03-29T07:16:22.577Z</time></trkpt><trkpt lat="43.981535" lon="12.4603233"><ele>179.0</ele><time>2026-03-29T07:16:23.577Z</time></trkpt><trkpt lat="43.9813817" lon="12.4604217"><ele>179.66666666666666</ele><time>2026-03-29T07:16:24.577Z</time></trkpt><trkpt lat="43.98123" lon="12.4605517"><ele>180.33333333333334</ele><time>2026-03-29T07:16:25.577Z</time></trkpt><trkpt lat="43.9810783" lon="12.4606967"><ele>181.0</ele><time>2026-03-29T07:16:26.577Z</time></trkpt><trkpt lat="43.9809283" lon="12.4608533"><ele>180.66666666666669</ele><time>2026-03-29T07:16:27.577Z</time></trkpt><trkpt lat="43.98078" lon="12.461015"><ele>180.33333333333334</ele><time>2026-03-29T07:16:28.576Z</time></trkpt><trkpt lat="43.9806383" lon="12.4611667"><ele>180.0</ele><time>2026-03-29T07:16:29.577Z</time></trkpt><trkpt lat="43.9805117" lon="12.461325"><ele>180.0</ele><time>2026-03-29T07:16:30.577Z</time></trkpt><trkpt lat="43.9803783" lon="12.4614767"><ele>180.0</ele><time>2026-03-29T07:16:31.576Z</time></trkpt><trkpt lat="43.9802233" lon="12.4616133"><ele>180.0</ele><time>2026-03-29T07:16:32.577Z</time></trkpt><trkpt lat="43.98005" lon="12.4617317"><ele>181.66666666666666</ele><time>2026-03-29T07:16:33.577Z</time></trkpt><trkpt lat="43.9798583" lon="12.46182"><ele>183.33333333333331</ele><time>2026-03-29T07:16:34.576Z</time></trkpt><trkpt lat="43.9796517" lon="12.461875"><ele>185.0</ele><time>2026-03-29T07:16:35.577Z</time></trkpt><trkpt lat="43.9794367" lon="12.4619317"><ele>185.0</ele><time>2026-03-29T07:16:36.577Z</time></trkpt><trkpt lat="43.9792117" lon="12.4619817"><ele>185.0</ele><time>2026-03-29T07:16:37.577Z</time></trkpt><trkpt lat="43.9789933" lon="12.4620383"><ele>184.33333333333331</ele><time>2026-03-29T07:16:38.577Z</time></trkpt><trkpt lat="43.9787883" lon="12.462095"><ele>183.66666666666666</ele><time>2026-03-29T07:16:39.577Z</time></trkpt><trkpt lat="43.9785883" lon="12.4621467"><ele>183.0</ele><time>2026-03-29T07:16:40.577Z</time></trkpt><trkpt lat="43.9783967" lon="12.4621767"><ele>186.0</ele><time>2026-03-29T07:16:41.576Z</time></trkpt><trkpt lat="43.978215" lon="12.4622017"><ele>189.0</ele><time>2026-03-29T07:16:42.576Z</time></trkpt><trkpt lat="43.9780317" lon="12.4622317"><ele>192.0</ele><time>2026-03-29T07:16:43.576Z</time></trkpt><trkpt lat="43.9778383" lon="12.4622567"><ele>192.0</ele><time>2026-03-29T07:16:44.577Z</time></trkpt><trkpt lat="43.9776667" lon="12.4622617"><ele>192.0</ele><time>2026-03-29T07:16:45.577Z</time></trkpt><trkpt lat="43.9775117" lon="12.462275"><ele>192.0</ele><time>2026-03-29T07:16:46.577Z</time></trkpt><trkpt lat="43.97736" lon="12.4622683"><ele>194.25</ele><time>2026-03-29T07:16:47.576Z</time></trkpt><trkpt lat="43.97721" lon="12.46226"><ele>196.5</ele><time>2026-03-29T07:16:48.577Z</time></trkpt><trkpt lat="43.9770733" lon="12.46227"><ele>198.75</ele><time>2026-03-29T07:16:49.577Z</time></trkpt><trkpt lat="43.976955" lon="12.46232"><ele>201.0</ele><time>2026-03-29T07:16:50.577Z</time></trkpt><trkpt lat="43.9768533" lon="12.46242"><ele>201.0</ele><time>2026-03-29T07:16:51.577Z</time></trkpt><trkpt lat="43.9767783" lon="12.4625733"><ele>201.0</ele><time>2026-03-29T07:16:52.577Z</time></trkpt><trkpt lat="43.9767333" lon="12.462765"><ele>201.0</ele><time>2026-03-29T07:16:53.577Z</time></trkpt><trkpt lat="43.976725" lon="12.462985"><ele>201.0</ele><time>2026-03-29T07:16:54.576Z</time></trkpt><trkpt lat="43.9767283" lon="12.4631717"><ele>200.0</ele><time>2026-03-29T07:16:55.578Z</time></trkpt><trkpt lat="43.97672" lon="12.4633133"><ele>199.0</ele><time>2026-03-29T07:16:56.578Z</time></trkpt><trkpt lat="43.9766983" lon="12.4634183"><ele>198.0</ele><time>2026-03-29T07:16:57.578Z</time></trkpt><trkpt lat="43.9766517" lon="12.463485"><ele>197.0</ele><time>2026-03-29T07:16:58.577Z</time></trkpt><trkpt lat="43.9765867" lon="12.46348"><ele>196.0</ele><time>2026-03-29T07:16:59.578Z</time></trkpt><trkpt lat="43.9765333" lon="12.463425"><ele>195.0</ele><time>2026-03-29T07:17:00.578Z</time></trkpt><trkpt lat="43.97648" lon="12.463325"><ele>199.0</ele><time>2026-03-29T07:17:01.578Z</time></trkpt><trkpt lat="43.9764133" lon="12.46319"><ele>203.0</ele><time>2026-03-29T07:17:02.578Z</time></trkpt><trkpt lat="43.976325" lon="12.463075"><ele>207.0</ele><time>2026-03-29T07:17:03.578Z</time></trkpt><trkpt lat="43.9762067" lon="12.4629883"><ele>211.0</ele><time>2026-03-29T07:17:04.578Z</time></trkpt><trkpt lat="43.97608" lon="12.46295"><ele>211.0</ele><time>2026-03-29T07:17:05.578Z</time></trkpt><trkpt lat="43.9759333" lon="12.4629483"><ele>211.0</ele><time>2026-03-29T07:17:06.578Z</time></trkpt><trkpt lat="43.9757733" lon="12.4629633"><ele>211.0</ele><time>2026-03-29T07:17:07.578Z</time></trkpt><trkpt lat="43.9755967" lon="12.462985"><ele>210.66666666666666</ele><time>2026-03-29T07:17:08.577Z</time></trkpt><trkpt lat="43.9754083" lon="12.462995"><ele>210.33333333333331</ele><time>2026-03-29T07:17:09.578Z</time></trkpt><trkpt lat="43.975215" lon="12.4629667"><ele>210.0</ele><time>2026-03-29T07:17:10.578Z</time></trkpt><trkpt lat="43.9750233" lon="12.4629"><ele>213.0</ele><time>2026-03-29T07:17:11.578Z</time></trkpt><trkpt lat="43.974845" lon="12.46284"><ele>216.0</ele><time>2026-03-29T07:17:12.578Z</time></trkpt><trkpt lat="43.9746833" lon="12.4627733"><ele>219.0</ele><time>2026-03-29T07:17:13.578Z</time></trkpt><trkpt lat="43.9745483" lon="12.4626617"><ele>219.0</ele><time>2026-03-29T07:17:14.578Z</time></trkpt><trkpt lat="43.9744283" lon="12.46248"><ele>219.0</ele><time>2026-03-29T07:17:15.578Z</time></trkpt><trkpt lat="43.9743167" lon="12.462245"><ele>219.0</ele><time>2026-03-29T07:17:16.578Z</time></trkpt><trkpt lat="43.9742083" lon="12.461985"><ele>217.0</ele><time>2026-03-29T07:17:17.578Z</time></trkpt><trkpt lat="43.9740933" lon="12.4617067"><ele>215.0</ele><time>2026-03-29T07:17:18.578Z</time></trkpt><trkpt lat="43.9739733" lon="12.46143"><ele>213.0</ele><time>2026-03-29T07:17:19.578Z</time></trkpt><trkpt lat="43.97385" lon="12.4611667"><ele>211.0</ele><time>2026-03-29T07:17:20.578Z</time></trkpt><trkpt lat="43.9737267" lon="12.4608917"><ele>211.0</ele><time>2026-03-29T07:17:21.578Z</time></trkpt><trkpt lat="43.9736017" lon="12.4606033"><ele>211.0</ele><time>2026-03-29T07:17:22.578Z</time></trkpt><trkpt lat="43.9734833" lon="12.4603033"><ele>211.5</ele><time>2026-03-29T07:17:23.578Z</time></trkpt><trkpt lat="43.9733683" lon="12.4600117"><ele>212.0</ele><time>2026-03-29T07:17:24.578Z</time></trkpt><trkpt lat="43.9732583" lon="12.4597233"><ele>211.5</ele><time>2026-03-29T07:17:25.577Z</time></trkpt><trkpt lat="43.9731533" lon="12.4594467"><ele>211.0</ele><time>2026-03-29T07:17:26.578Z</time></trkpt><trkpt lat="43.9730567" lon="12.4591583"><ele>211.0</ele><time>2026-03-29T07:17:27.578Z</time></trkpt><trkpt lat="43.9729583" lon="12.458855"><ele>211.0</ele><time>2026-03-29T07:17:28.578Z</time></trkpt><trkpt lat="43.9728733" lon="12.4585467"><ele>211.5</ele><time>2026-03-29T07:17:29.577Z</time></trkpt><trkpt lat="43.9728" lon="12.45824"><ele>212.0</ele><time>2026-03-29T07:17:30.577Z</time></trkpt><trkpt lat="43.9727433" lon="12.4579283"><ele>212.0</ele><time>2026-03-29T07:17:31.578Z</time></trkpt><trkpt lat="43.9726967" lon="12.4576283"><ele>212.0</ele><time>2026-03-29T07:17:32.578Z</time></trkpt><trkpt lat="43.9726867" lon="12.45735"><ele>212.0</ele><time>2026-03-29T07:17:33.578Z</time></trkpt><trkpt lat="43.9727183" lon="12.457065"><ele>214.33333333333334</ele><time>2026-03-29T07:17:34.578Z</time></trkpt><trkpt lat="43.97277" lon="12.45679"><ele>216.66666666666669</ele><time>2026-03-29T07:17:35.578Z</time></trkpt><trkpt lat="43.9728183" lon="12.4565183"><ele>219.0</ele><time>2026-03-29T07:17:36.578Z</time></trkpt><trkpt lat="43.9728483" lon="12.45627"><ele>219.66666666666669</ele><time>2026-03-29T07:17:37.578Z</time></trkpt><trkpt lat="43.9728533" lon="12.45604"><ele>220.33333333333334</ele><time>2026-03-29T07:17:38.578Z</time></trkpt><trkpt lat="43.9728167" lon="12.4558"><ele>221.0</ele><time>2026-03-29T07:17:39.578Z</time></trkpt><trkpt lat="43.972745" lon="12.4555433"><ele>219.0</ele><time>2026-03-29T07:17:40.577Z</time></trkpt><trkpt lat="43.9726567" lon="12.4553017"><ele>217.0</ele><time>2026-03-29T07:17:41.578Z</time></trkpt><trkpt lat="43.9725733" lon="12.4550783"><ele>215.0</ele><time>2026-03-29T07:17:42.578Z</time></trkpt><trkpt lat="43.9725067" lon="12.454875"><ele>220.33333333333334</ele><time>2026-03-29T07:17:43.577Z</time></trkpt><trkpt lat="43.972455" lon="12.4546617"><ele>225.66666666666669</ele><time>2026-03-29T07:17:44.578Z</time></trkpt><trkpt lat="43.9724383" lon="12.454445"><ele>231.0</ele><time>2026-03-29T07:17:45.578Z</time></trkpt><trkpt lat="43.9724667" lon="12.4542317"><ele>229.0</ele><time>2026-03-29T07:17:46.578Z</time></trkpt><trkpt lat="43.97254" lon="12.4540067"><ele>227.0</ele><time>2026-03-29T07:17:47.578Z</time></trkpt><trkpt lat="43.9726133" lon="12.4537733"><ele>225.0</ele><time>2026-03-29T07:17:48.577Z</time></trkpt><trkpt lat="43.9726817" lon="12.4535683"><ele>225.0</ele><time>2026-03-29T07:17:49.578Z</time></trkpt><trkpt lat="43.97273" lon="12.4533833"><ele>225.0</ele><time>2026-03-29T07:17:50.578Z</time></trkpt><trkpt lat="43.972755" lon="12.4532183"><ele>225.0</ele><time>2026-03-29T07:17:51.578Z</time></trkpt><trkpt lat="43.97274" lon="12.45305"><ele>225.0</ele><time>2026-03-29T07:17:52.578Z</time></trkpt><trkpt lat="43.97268" lon="12.4528933"><ele>225.66666666666669</ele><time>2026-03-29T07:17:53.578Z</time></trkpt><trkpt lat="43.9725883" lon="12.4527567"><ele>226.33333333333334</ele><time>2026-03-29T07:17:54.577Z</time></trkpt><trkpt lat="43.9724367" lon="12.4526433"><ele>227.0</ele><time>2026-03-29T07:17:55.578Z</time></trkpt><trkpt lat="43.97227" lon="12.45255"><ele>229.0</ele><time>2026-03-29T07:17:56.578Z</time></trkpt><trkpt lat="43.972125" lon="12.4524817"><ele>231.0</ele><time>2026-03-29T07:17:57.578Z</time></trkpt><trkpt lat="43.9720133" lon="12.4524333"><ele>233.0</ele><time>2026-03-29T07:17:58.578Z</time></trkpt><trkpt lat="43.971935" lon="12.4523867"><ele>235.0</ele><time>2026-03-29T07:17:59.578Z</time></trkpt><trkpt lat="43.9718817" lon="12.452335"><ele>237.0</ele><time>2026-03-29T07:18:00.578Z</time></trkpt><trkpt lat="43.9718683" lon="12.452195"><ele>237.0</ele><time>2026-03-29T07:18:02.577Z</time></trkpt><trkpt lat="43.9719317" lon="12.45214"><ele>237.0</ele><time>2026-03-29T07:18:03.578Z</time></trkpt><trkpt lat="43.9720233" lon="12.4521117"><ele>237.0</ele><time>2026-03-29T07:18:04.577Z</time></trkpt><trkpt lat="43.9721567" lon="12.4521017"><ele>237.0</ele><time>2026-03-29T07:18:05.577Z</time></trkpt><trkpt lat="43.97234" lon="12.4520967"><ele>232.0</ele><time>2026-03-29T07:18:06.578Z</time></trkpt><trkpt lat="43.9725233" lon="12.4520867"><ele>227.0</ele><time>2026-03-29T07:18:07.577Z</time></trkpt><trkpt lat="43.9726967" lon="12.4520783"><ele>222.0</ele><time>2026-03-29T07:18:08.577Z</time></trkpt><trkpt lat="43.9728567" lon="12.4520683"><ele>222.0</ele><time>2026-03-29T07:18:09.578Z</time></trkpt><trkpt lat="43.9730033" lon="12.4520567"><ele>222.0</ele><time>2026-03-29T07:18:10.578Z</time></trkpt><trkpt lat="43.9731517" lon="12.4520517"><ele>222.0</ele><time>2026-03-29T07:18:11.577Z</time></trkpt><trkpt lat="43.9732967" lon="12.4520667"><ele>222.0</ele><time>2026-03-29T07:18:12.578Z</time></trkpt><trkpt lat="43.97344" lon="12.4521183"><ele>221.0</ele><time>2026-03-29T07:18:13.578Z</time></trkpt><trkpt lat="43.9735867" lon="12.4521967"><ele>220.0</ele><time>2026-03-29T07:18:14.578Z</time></trkpt><trkpt lat="43.9737317" lon="12.452285"><ele>219.0</ele><time>2026-03-29T07:18:15.578Z</time></trkpt><trkpt lat="43.97388" lon="12.45236"><ele>219.0</ele><time>2026-03-29T07:18:16.578Z</time></trkpt><trkpt lat="43.974045" lon="12.452425"><ele>219.0</ele><time>2026-03-29T07:18:17.577Z</time></trkpt><trkpt lat="43.9742467" lon="12.4524367"><ele>219.0</ele><time>2026-03-29T07:18:18.577Z</time></trkpt><trkpt lat="43.9744567" lon="12.4524133"><ele>216.66666666666669</ele><time>2026-03-29T07:18:19.577Z</time></trkpt><trkpt lat="43.9746617" lon="12.4523917"><ele>214.33333333333334</ele><time>2026-03-29T07:18:20.577Z</time></trkpt><trkpt lat="43.9748617" lon="12.4523783"><ele>212.0</ele><time>2026-03-29T07:18:21.577Z</time></trkpt><trkpt lat="43.9750517" lon="12.4523583"><ele>211.0</ele><time>2026-03-29T07:18:22.577Z</time></trkpt><trkpt lat="43.9752217" lon="12.45234"><ele>210.0</ele><time>2026-03-29T07:18:23.578Z</time></trkpt><trkpt lat="43.9753867" lon="12.4522767"><ele>209.0</ele><time>2026-03-29T07:18:24.577Z</time></trkpt><trkpt lat="43.9755433" lon="12.4521617"><ele>208.66666666666669</ele><time>2026-03-29T07:18:25.577Z</time></trkpt><trkpt lat="43.9756983" lon="12.4520217"><ele>208.33333333333331</ele><time>2026-03-29T07:18:26.578Z</time></trkpt><trkpt lat="43.97585" lon="12.4518467"><ele>208.0</ele><time>2026-03-29T07:18:27.578Z</time></trkpt><trkpt lat="43.9760167" lon="12.45166"><ele>208.0</ele><time>2026-03-29T07:18:28.578Z</time></trkpt><trkpt lat="43.97618" lon="12.4514633"><ele>208.0</ele><time>2026-03-29T07:18:29.578Z</time></trkpt><trkpt lat="43.9763517" lon="12.4512567"><ele>208.0</ele><time>2026-03-29T07:18:30.578Z</time></trkpt><trkpt lat="43.9765217" lon="12.4510233"><ele>203.0</ele><time>2026-03-29T07:18:31.578Z</time></trkpt><trkpt lat="43.9767" lon="12.45079"><ele>198.0</ele><time>2026-03-29T07:18:32.577Z</time></trkpt><trkpt lat="43.976895" lon="12.4505467"><ele>201.0</ele><time>2026-03-29T07:18:33.578Z</time></trkpt><trkpt lat="43.9771017" lon="12.4502983"><ele>204.0</ele><time>2026-03-29T07:18:34.577Z</time></trkpt><trkpt lat="43.9772967" lon="12.450065"><ele>204.0</ele><time>2026-03-29T07:18:35.578Z</time></trkpt><trkpt lat="43.9774817" lon="12.449855"><ele>204.0</ele><time>2026-03-29T07:18:36.578Z</time></trkpt><trkpt lat="43.9776583" lon="12.4496667"><ele>205.0</ele><time>2026-03-29T07:18:37.577Z</time></trkpt><trkpt lat="43.9778167" lon="12.4494817"><ele>206.0</ele><time>2026-03-29T07:18:38.577Z</time></trkpt><trkpt lat="43.977965" lon="12.4493"><ele>207.0</ele><time>2026-03-29T07:18:39.578Z</time></trkpt><trkpt lat="43.97808" lon="12.4490933"><ele>207.0</ele><time>2026-03-29T07:18:40.578Z</time></trkpt><trkpt lat="43.978165" lon="12.4488283"><ele>207.0</ele><time>2026-03-29T07:18:41.578Z</time></trkpt><trkpt lat="43.978255" lon="12.4485333"><ele>207.0</ele><time>2026-03-29T07:18:42.578Z</time></trkpt><trkpt lat="43.9783433" lon="12.448225"><ele>206.5</ele><time>2026-03-29T07:18:43.578Z</time></trkpt><trkpt lat="43.97843" lon="12.4479117"><ele>206.0</ele><time>2026-03-29T07:18:44.577Z</time></trkpt><trkpt lat="43.9785233" lon="12.4475817"><ele>206.0</ele><time>2026-03-29T07:18:45.577Z</time></trkpt><trkpt lat="43.97863" lon="12.4472433"><ele>206.0</ele><time>2026-03-29T07:18:46.578Z</time></trkpt><trkpt lat="43.978735" lon="12.4469067"><ele>208.5</ele><time>2026-03-29T07:18:47.578Z</time></trkpt><trkpt lat="43.978845" lon="12.4465683"><ele>211.0</ele><time>2026-03-29T07:18:48.578Z</time></trkpt><trkpt lat="43.9789617" lon="12.4462317"><ele>209.0</ele><time>2026-03-29T07:18:49.577Z</time></trkpt><trkpt lat="43.9790783" lon="12.4459133"><ele>207.0</ele><time>2026-03-29T07:18:50.577Z</time></trkpt><trkpt lat="43.9791933" lon="12.4456017"><ele>210.0</ele><time>2026-03-29T07:18:51.578Z</time></trkpt><trkpt lat="43.9792933" lon="12.4452967"><ele>213.0</ele><time>2026-03-29T07:18:52.577Z</time></trkpt><trkpt lat="43.9793967" lon="12.44499"><ele>213.0</ele><time>2026-03-29T07:18:53.578Z</time></trkpt><trkpt lat="43.9794983" lon="12.4446733"><ele>213.0</ele><time>2026-03-29T07:18:54.578Z</time></trkpt><trkpt lat="43.9795983" lon="12.4443817"><ele>215.33333333333331</ele><time>2026-03-29T07:18:55.578Z</time></trkpt><trkpt lat="43.9797017" lon="12.4441167"><ele>217.66666666666666</ele><time>2026-03-29T07:18:56.578Z</time></trkpt><trkpt lat="43.9797933" lon="12.4438733"><ele>220.0</ele><time>2026-03-29T07:18:57.577Z</time></trkpt><trkpt lat="43.9798783" lon="12.443645"><ele>221.66666666666666</ele><time>2026-03-29T07:18:58.578Z</time></trkpt><trkpt lat="43.97996" lon="12.4434283"><ele>223.33333333333331</ele><time>2026-03-29T07:18:59.577Z</time></trkpt><trkpt lat="43.9800617" lon="12.443235"><ele>225.0</ele><time>2026-03-29T07:19:00.578Z</time></trkpt><trkpt lat="43.9801933" lon="12.4430683"><ele>228.0</ele><time>2026-03-29T07:19:01.578Z</time></trkpt><trkpt lat="43.9803483" lon="12.4429167"><ele>231.0</ele><time>2026-03-29T07:19:02.578Z</time></trkpt><trkpt lat="43.9805167" lon="12.44278"><ele>234.0</ele><time>2026-03-29T07:19:03.578Z</time></trkpt><trkpt lat="43.9806867" lon="12.44265"><ele>234.0</ele><time>2026-03-29T07:19:04.578Z</time></trkpt><trkpt lat="43.9808467" lon="12.44253"><ele>234.0</ele><time>2026-03-29T07:19:05.578Z</time></trkpt><trkpt lat="43.9809883" lon="12.4424033"><ele>234.0</ele><time>2026-03-29T07:19:06.578Z</time></trkpt><trkpt lat="43.9811183" lon="12.4423033"><ele>233.25</ele><time>2026-03-29T07:19:07.578Z</time></trkpt><trkpt lat="43.9812333" lon="12.4422067"><ele>232.5</ele><time>2026-03-29T07:19:08.578Z</time></trkpt><trkpt lat="43.9813367" lon="12.442095"><ele>231.75</ele><time>2026-03-29T07:19:09.577Z</time></trkpt><trkpt lat="43.98143" lon="12.4419667"><ele>231.0</ele><time>2026-03-29T07:19:10.578Z</time></trkpt><trkpt lat="43.9814983" lon="12.4417983"><ele>231.0</ele><time>2026-03-29T07:19:11.578Z</time></trkpt><trkpt lat="43.9815617" lon="12.4415933"><ele>231.0</ele><time>2026-03-29T07:19:12.578Z</time></trkpt><trkpt lat="43.9816183" lon="12.4413783"><ele>231.0</ele><time>2026-03-29T07:19:13.578Z</time></trkpt><trkpt lat="43.9816733" lon="12.441155"><ele>228.33333333333331</ele><time>2026-03-29T07:19:14.578Z</time></trkpt><trkpt lat="43.981725" lon="12.4409167"><ele>225.66666666666666</ele><time>2026-03-29T07:19:15.578Z</time></trkpt><trkpt lat="43.9817967" lon="12.440675"><ele>223.0</ele><time>2026-03-29T07:19:16.577Z</time></trkpt><trkpt lat="43.9818733" lon="12.4404283"><ele>223.0</ele><time>2026-03-29T07:19:17.578Z</time></trkpt><trkpt lat="43.9819367" lon="12.440185"><ele>223.0</ele><time>2026-03-29T07:19:18.578Z</time></trkpt><trkpt lat="43.982" lon="12.439945"><ele>223.0</ele><time>2026-03-29T07:19:19.578Z</time></trkpt><trkpt lat="43.9820617" lon="12.4397083"><ele>224.66666666666666</ele><time>2026-03-29T07:19:20.578Z</time></trkpt><trkpt lat="43.9821233" lon="12.4394767"><ele>226.33333333333331</ele><time>2026-03-29T07:19:21.578Z</time></trkpt><trkpt lat="43.98216" lon="12.4392367"><ele>228.0</ele><time>2026-03-29T07:19:22.578Z</time></trkpt><trkpt lat="43.9821817" lon="12.4389883"><ele>229.33333333333331</ele><time>2026-03-29T07:19:23.578Z</time></trkpt><trkpt lat="43.9821717" lon="12.43873"><ele>230.66666666666666</ele><time>2026-03-29T07:19:24.578Z</time></trkpt><trkpt lat="43.9821517" lon="12.4384667"><ele>232.0</ele><time>2026-03-29T07:19:25.578Z</time></trkpt><trkpt lat="43.982135" lon="12.4381833"><ele>233.33333333333331</ele><time>2026-03-29T07:19:26.578Z</time></trkpt><trkpt lat="43.9821067" lon="12.4379117"><ele>234.66666666666669</ele><time>2026-03-29T07:19:27.578Z</time></trkpt><trkpt lat="43.98207" lon="12.437635"><ele>236.0</ele><time>2026-03-29T07:19:28.578Z</time></trkpt><trkpt lat="43.9820233" lon="12.4373433"><ele>237.0</ele><time>2026-03-29T07:19:29.578Z</time></trkpt><trkpt lat="43.9819617" lon="12.4370433"><ele>238.0</ele><time>2026-03-29T07:19:30.578Z</time></trkpt><trkpt lat="43.9819" lon="12.4367583"><ele>239.0</ele><time>2026-03-29T07:19:31.577Z</time></trkpt><trkpt lat="43.9818217" lon="12.4364883"><ele>239.33333333333334</ele><time>2026-03-29T07:19:32.578Z</time></trkpt><trkpt lat="43.9817367" lon="12.4362317"><ele>239.66666666666669</ele><time>2026-03-29T07:19:33.578Z</time></trkpt><trkpt lat="43.98166" lon="12.4360067"><ele>240.0</ele><time>2026-03-29T07:19:34.578Z</time></trkpt><trkpt lat="43.9815733" lon="12.4357933"><ele>240.0</ele><time>2026-03-29T07:19:35.578Z</time></trkpt><trkpt lat="43.9815033" lon="12.435595"><ele>240.0</ele><time>2026-03-29T07:19:36.578Z</time></trkpt><trkpt lat="43.9814617" lon="12.4354083"><ele>240.0</ele><time>2026-03-29T07:19:37.577Z</time></trkpt><trkpt lat="43.9814433" lon="12.43521"><ele>240.0</ele><time>2026-03-29T07:19:38.578Z</time></trkpt><trkpt lat="43.9814483" lon="12.4349983"><ele>240.66666666666669</ele><time>2026-03-29T07:19:39.578Z</time></trkpt><trkpt lat="43.98148" lon="12.4347883"><ele>241.33333333333334</ele><time>2026-03-29T07:19:40.578Z</time></trkpt><trkpt lat="43.9814983" lon="12.4345733"><ele>242.0</ele><time>2026-03-29T07:19:41.578Z</time></trkpt><trkpt lat="43.9815233" lon="12.4343367"><ele>240.0</ele><time>2026-03-29T07:19:42.577Z</time></trkpt><trkpt lat="43.9815483" lon="12.4340783"><ele>238.0</ele><time>2026-03-29T07:19:43.578Z</time></trkpt><trkpt lat="43.98157" lon="12.4337917"><ele>236.0</ele><time>2026-03-29T07:19:44.578Z</time></trkpt><trkpt lat="43.9815983" lon="12.43348"><ele>236.0</ele><time>2026-03-29T07:19:45.578Z</time></trkpt><trkpt lat="43.9816167" lon="12.4331733"><ele>236.0</ele><time>2026-03-29T07:19:46.578Z</time></trkpt><trkpt lat="43.981635" lon="12.432885"><ele>236.0</ele><time>2026-03-29T07:19:47.578Z</time></trkpt><trkpt lat="43.98166" lon="12.43261"><ele>233.66666666666669</ele><time>2026-03-29T07:19:48.578Z</time></trkpt><trkpt lat="43.981685" lon="12.43235"><ele>231.33333333333331</ele><time>2026-03-29T07:19:49.578Z</time></trkpt><trkpt lat="43.981705" lon="12.432095"><ele>229.0</ele><time>2026-03-29T07:19:50.578Z</time></trkpt><trkpt lat="43.9817167" lon="12.4318367"><ele>229.0</ele><time>2026-03-29T07:19:51.578Z</time></trkpt><trkpt lat="43.9817133" lon="12.43159"><ele>229.0</ele><time>2026-03-29T07:19:52.577Z</time></trkpt><trkpt lat="43.9817083" lon="12.4313717"><ele>229.0</ele><time>2026-03-29T07:19:53.578Z</time></trkpt><trkpt lat="43.981685" lon="12.431155"><ele>233.66666666666666</ele><time>2026-03-29T07:19:54.578Z</time></trkpt><trkpt lat="43.9816233" lon="12.430955"><ele>238.33333333333331</ele><time>2026-03-29T07:19:55.578Z</time></trkpt><trkpt lat="43.9815167" lon="12.4307417"><ele>243.0</ele><time>2026-03-29T07:19:56.577Z</time></trkpt><trkpt lat="43.9813717" lon="12.430545"><ele>243.0</ele><time>2026-03-29T07:19:57.577Z</time></trkpt><trkpt lat="43.9812317" lon="12.4303433"><ele>243.0</ele><time>2026-03-29T07:19:58.578Z</time></trkpt><trkpt lat="43.9810917" lon="12.43016"><ele>243.0</ele><time>2026-03-29T07:19:59.578Z</time></trkpt><trkpt lat="43.9809633" lon="12.42999"><ele>245.0</ele><time>2026-03-29T07:20:00.578Z</time></trkpt><trkpt lat="43.9808483" lon="12.4298383"><ele>247.0</ele><time>2026-03-29T07:20:01.578Z</time></trkpt><trkpt lat="43.9807367" lon="12.429715"><ele>249.0</ele><time>2026-03-29T07:20:02.578Z</time></trkpt><trkpt lat="43.980605" lon="12.42962"><ele>251.0</ele><time>2026-03-29T07:20:03.578Z</time></trkpt><trkpt lat="43.98044" lon="12.4295667"><ele>254.66666666666669</ele><time>2026-03-29T07:20:04.578Z</time></trkpt><trkpt lat="43.9802533" lon="12.4295533"><ele>258.3333333333333</ele><time>2026-03-29T07:20:05.578Z</time></trkpt><trkpt lat="43.98004" lon="12.429585"><ele>262.0</ele><time>2026-03-29T07:20:06.578Z</time></trkpt><trkpt lat="43.979835" lon="12.429625"><ele>257.66666666666663</ele><time>2026-03-29T07:20:07.577Z</time></trkpt><trkpt lat="43.9796533" lon="12.42968"><ele>253.33333333333331</ele><time>2026-03-29T07:20:08.578Z</time></trkpt><trkpt lat="43.9795033" lon="12.42973"><ele>249.0</ele><time>2026-03-29T07:20:09.577Z</time></trkpt><trkpt lat="43.9793583" lon="12.42978"><ele>249.0</ele><time>2026-03-29T07:20:10.577Z</time></trkpt><trkpt lat="43.9792283" lon="12.42981"><ele>249.0</ele><time>2026-03-29T07:20:11.578Z</time></trkpt><trkpt lat="43.9791083" lon="12.4297933"><ele>249.0</ele><time>2026-03-29T07:20:12.577Z</time></trkpt><trkpt lat="43.9790017" lon="12.4297083"><ele>249.0</ele><time>2026-03-29T07:20:13.578Z</time></trkpt><trkpt lat="43.97891" lon="12.429575"><ele>256.3333333333333</ele><time>2026-03-29T07:20:14.578Z</time></trkpt><trkpt lat="43.9788167" lon="12.4293967"><ele>263.66666666666663</ele><time>2026-03-29T07:20:15.577Z</time></trkpt><trkpt lat="43.9787217" lon="12.4291717"><ele>271.0</ele><time>2026-03-29T07:20:16.577Z</time></trkpt><trkpt lat="43.9786233" lon="12.42894"><ele>273.5</ele><time>2026-03-29T07:20:17.578Z</time></trkpt><trkpt lat="43.9785367" lon="12.428735"><ele>276.0</ele><time>2026-03-29T07:20:18.578Z</time></trkpt><trkpt lat="43.9784683" lon="12.4285683"><ele>278.5</ele><time>2026-03-29T07:20:19.577Z</time></trkpt><trkpt lat="43.978415" lon="12.4284233"><ele>281.0</ele><time>2026-03-29T07:20:20.578Z</time></trkpt><trkpt lat="43.97838" lon="12.4283117"><ele>281.0</ele><time>2026-03-29T07:20:21.578Z</time></trkpt><trkpt lat="43.9783683" lon="12.42822"><ele>281.0</ele><time>2026-03-29T07:20:22.577Z</time></trkpt><trkpt lat="43.9783633" lon="12.4281217"><ele>281.0</ele><time>2026-03-29T07:20:23.577Z</time></trkpt><trkpt lat="43.9783317" lon="12.4280433"><ele>281.0</ele><time>2026-03-29T07:20:24.578Z</time></trkpt><trkpt lat="43.97827" lon="12.4279683"><ele>281.0</ele><time>2026-03-29T07:20:25.578Z</time></trkpt><trkpt lat="43.9781683" lon="12.42788"><ele>281.0</ele><time>2026-03-29T07:20:26.578Z</time></trkpt><trkpt lat="43.97801" lon="12.4278133"><ele>282.33333333333337</ele><time>2026-03-29T07:20:27.578Z</time></trkpt><trkpt lat="43.9778483" lon="12.42777"><ele>283.6666666666667</ele><time>2026-03-29T07:20:28.578Z</time></trkpt><trkpt lat="43.9776883" lon="12.4277667"><ele>285.0</ele><time>2026-03-29T07:20:29.578Z</time></trkpt><trkpt lat="43.977535" lon="12.4277517"><ele>281.0</ele><time>2026-03-29T07:20:30.578Z</time></trkpt><trkpt lat="43.9774017" lon="12.427625"><ele>277.0</ele><time>2026-03-29T07:20:31.773Z</time></trkpt><trkpt lat="43.977205" lon="12.4277167"><ele>273.0</ele><time>2026-03-29T07:20:33.141Z</time></trkpt><trkpt lat="43.97707" lon="12.42773"><ele>266.6666666666667</ele><time>2026-03-29T07:20:34.075Z</time></trkpt><trkpt lat="43.9769317" lon="12.4279967"><ele>260.33333333333337</ele><time>2026-03-29T07:20:35.074Z</time></trkpt><trkpt lat="43.9767233" lon="12.4280567"><ele>254.0</ele><time>2026-03-29T07:20:36.574Z</time></trkpt><trkpt lat="43.9766033" lon="12.4280633"><ele>254.0</ele><time>2026-03-29T07:20:37.574Z</time></trkpt><trkpt lat="43.976485" lon="12.428075"><ele>254.0</ele><time>2026-03-29T07:20:38.575Z</time></trkpt><trkpt lat="43.9763483" lon="12.4280283"><ele>254.0</ele><time>2026-03-29T07:20:39.574Z</time></trkpt><trkpt lat="43.9762217" lon="12.4279233"><ele>254.0</ele><time>2026-03-29T07:20:40.575Z</time></trkpt><trkpt lat="43.97609" lon="12.4277817"><ele>255.66666666666669</ele><time>2026-03-29T07:20:41.575Z</time></trkpt><trkpt lat="43.9759567" lon="12.4276233"><ele>257.3333333333333</ele><time>2026-03-29T07:20:42.575Z</time></trkpt><trkpt lat="43.9758333" lon="12.4274667"><ele>259.0</ele><time>2026-03-29T07:20:43.575Z</time></trkpt><trkpt lat="43.9757317" lon="12.4273467"><ele>259.0</ele><time>2026-03-29T07:20:44.575Z</time></trkpt><trkpt lat="43.9756517" lon="12.42724"><ele>259.0</ele><time>2026-03-29T07:20:45.575Z</time></trkpt><trkpt lat="43.9755983" lon="12.4271183"><ele>259.0</ele><time>2026-03-29T07:20:46.575Z</time></trkpt><trkpt lat="43.9755567" lon="12.4269667"><ele>259.0</ele><time>2026-03-29T07:20:47.575Z</time></trkpt><trkpt lat="43.97554" lon="12.4267667"><ele>259.25</ele><time>2026-03-29T07:20:48.575Z</time></trkpt><trkpt lat="43.9755183" lon="12.4265667"><ele>259.5</ele><time>2026-03-29T07:20:49.575Z</time></trkpt><trkpt lat="43.975475" lon="12.4263783"><ele>259.75</ele><time>2026-03-29T07:20:50.575Z</time></trkpt><trkpt lat="43.975405" lon="12.426195"><ele>260.0</ele><time>2026-03-29T07:20:51.575Z</time></trkpt><trkpt lat="43.9753133" lon="12.4260383"><ele>260.0</ele><time>2026-03-29T07:20:52.574Z</time></trkpt><trkpt lat="43.9751967" lon="12.4259033"><ele>260.0</ele><time>2026-03-29T07:20:53.575Z</time></trkpt><trkpt lat="43.975105" lon="12.4257567"><ele>260.0</ele><time>2026-03-29T07:20:54.575Z</time></trkpt><trkpt lat="43.9750483" lon="12.4255733"><ele>260.0</ele><time>2026-03-29T07:20:55.575Z</time></trkpt><trkpt lat="43.9749833" lon="12.4253467"><ele>252.0</ele><time>2026-03-29T07:20:56.574Z</time></trkpt><trkpt lat="43.97495" lon="12.42511"><ele>244.0</ele><time>2026-03-29T07:20:57.575Z</time></trkpt><trkpt lat="43.9749117" lon="12.42487"><ele>236.0</ele><time>2026-03-29T07:20:58.575Z</time></trkpt><trkpt lat="43.974865" lon="12.42461"><ele>234.0</ele><time>2026-03-29T07:20:59.575Z</time></trkpt><trkpt lat="43.9748067" lon="12.42435"><ele>232.0</ele><time>2026-03-29T07:21:00.574Z</time></trkpt><trkpt lat="43.97473" lon="12.4241067"><ele>230.0</ele><time>2026-03-29T07:21:01.575Z</time></trkpt><trkpt lat="43.974645" lon="12.42388"><ele>228.5</ele><time>2026-03-29T07:21:02.575Z</time></trkpt><trkpt lat="43.974575" lon="12.4236833"><ele>227.0</ele><time>2026-03-29T07:21:03.574Z</time></trkpt><trkpt lat="43.9745233" lon="12.4235233"><ele>225.5</ele><time>2026-03-29T07:21:04.574Z</time></trkpt><trkpt lat="43.9744683" lon="12.423395"><ele>224.0</ele><time>2026-03-29T07:21:05.575Z</time></trkpt><trkpt lat="43.9744067" lon="12.4232833"><ele>224.00000000000003</ele><time>2026-03-29T07:21:06.575Z</time></trkpt><trkpt lat="43.974345" lon="12.4232"><ele>224.0</ele><time>2026-03-29T07:21:07.575Z</time></trkpt><trkpt lat="43.97429" lon="12.42314"><ele>224.0</ele><time>2026-03-29T07:21:08.575Z</time></trkpt><trkpt lat="43.97423" lon="12.4230717"><ele>224.0</ele><time>2026-03-29T07:21:10.575Z</time></trkpt><trkpt lat="43.9741533" lon="12.4231583"><ele>224.00000000000003</ele><time>2026-03-29T07:21:13.575Z</time></trkpt><trkpt lat="43.9741483" lon="12.4232833"><ele>224.0</ele><time>2026-03-29T07:21:14.575Z</time></trkpt><trkpt lat="43.974155" lon="12.4234383"><ele>220.6</ele><time>2026-03-29T07:21:15.575Z</time></trkpt><trkpt lat="43.9741433" lon="12.42358"><ele>217.2</ele><time>2026-03-29T07:21:16.575Z</time></trkpt><trkpt lat="43.9740983" lon="12.4236933"><ele>213.79999999999998</ele><time>2026-03-29T07:21:17.575Z</time></trkpt><trkpt lat="43.9740183" lon="12.4237717"><ele>210.39999999999998</ele><time>2026-03-29T07:21:18.575Z</time></trkpt><trkpt lat="43.973905" lon="12.4237917"><ele>207.0</ele><time>2026-03-29T07:21:19.574Z</time></trkpt><trkpt lat="43.9737717" lon="12.4237417"><ele>207.0</ele><time>2026-03-29T07:21:20.574Z</time></trkpt><trkpt lat="43.9736317" lon="12.423655"><ele>207.0</ele><time>2026-03-29T07:21:21.575Z</time></trkpt><trkpt lat="43.9735083" lon="12.4235767"><ele>207.0</ele><time>2026-03-29T07:21:22.574Z</time></trkpt><trkpt lat="43.9734017" lon="12.423535"><ele>207.0</ele><time>2026-03-29T07:21:23.574Z</time></trkpt><trkpt lat="43.973315" lon="12.4235367"><ele>205.39999999999998</ele><time>2026-03-29T07:21:24.574Z</time></trkpt><trkpt lat="43.973225" lon="12.4236"><ele>203.79999999999998</ele><time>2026-03-29T07:21:25.575Z</time></trkpt><trkpt lat="43.9731567" lon="12.42372"><ele>202.2</ele><time>2026-03-29T07:21:26.574Z</time></trkpt><trkpt lat="43.97311" lon="12.423875"><ele>200.6</ele><time>2026-03-29T07:21:27.575Z</time></trkpt><trkpt lat="43.97307" lon="12.4240033"><ele>199.0</ele><time>2026-03-29T07:21:28.575Z</time></trkpt><trkpt lat="43.9730083" lon="12.4240933"><ele>199.0</ele><time>2026-03-29T07:21:29.574Z</time></trkpt><trkpt lat="43.9729367" lon="12.42412"><ele>199.0</ele><time>2026-03-29T07:21:30.574Z</time></trkpt><trkpt lat="43.97286" lon="12.424085"><ele>199.0</ele><time>2026-03-29T07:21:31.574Z</time></trkpt><trkpt lat="43.97281" lon="12.42398"><ele>199.0</ele><time>2026-03-29T07:21:32.574Z</time></trkpt><trkpt lat="43.9727883" lon="12.4238183"><ele>199.0</ele><time>2026-03-29T07:21:33.574Z</time></trkpt><trkpt lat="43.972775" lon="12.4236167"><ele>198.66666666666666</ele><time>2026-03-29T07:21:34.575Z</time></trkpt><trkpt lat="43.97275" lon="12.423385"><ele>198.33333333333331</ele><time>2026-03-29T07:21:35.575Z</time></trkpt><trkpt lat="43.9726967" lon="12.4231417"><ele>198.0</ele><time>2026-03-29T07:21:36.574Z</time></trkpt><trkpt lat="43.9726283" lon="12.42292"><ele>196.5</ele><time>2026-03-29T07:21:37.575Z</time></trkpt><trkpt lat="43.97257" lon="12.4227233"><ele>195.0</ele><time>2026-03-29T07:21:38.575Z</time></trkpt><trkpt lat="43.9725267" lon="12.4225533"><ele>193.5</ele><time>2026-03-29T07:21:39.574Z</time></trkpt><trkpt lat="43.9725283" lon="12.4223883"><ele>192.0</ele><time>2026-03-29T07:21:40.574Z</time></trkpt><trkpt lat="43.972575" lon="12.4222217"><ele>191.25</ele><time>2026-03-29T07:21:41.575Z</time></trkpt><trkpt lat="43.9726467" lon="12.4220683"><ele>190.5</ele><time>2026-03-29T07:21:42.575Z</time></trkpt><trkpt lat="43.97271" lon="12.4219233"><ele>189.75</ele><time>2026-03-29T07:21:43.574Z</time></trkpt><trkpt lat="43.9727283" lon="12.4217633"><ele>189.0</ele><time>2026-03-29T07:21:44.575Z</time></trkpt><trkpt lat="43.9726983" lon="12.421605"><ele>189.0</ele><time>2026-03-29T07:21:45.575Z</time></trkpt><trkpt lat="43.9726217" lon="12.4214733"><ele>189.0</ele><time>2026-03-29T07:21:46.575Z</time></trkpt><trkpt lat="43.9725" lon="12.42138"><ele>189.0</ele><time>2026-03-29T07:21:47.574Z</time></trkpt><trkpt lat="43.9723517" lon="12.4213183"><ele>189.0</ele><time>2026-03-29T07:21:48.575Z</time></trkpt><trkpt lat="43.9722117" lon="12.4212717"><ele>186.6</ele><time>2026-03-29T07:21:49.575Z</time></trkpt><trkpt lat="43.9720933" lon="12.421225"><ele>184.2</ele><time>2026-03-29T07:21:50.575Z</time></trkpt><trkpt lat="43.9720033" lon="12.4211583"><ele>181.79999999999998</ele><time>2026-03-29T07:21:51.574Z</time></trkpt><trkpt lat="43.97194" lon="12.4210617"><ele>179.39999999999998</ele><time>2026-03-29T07:21:52.575Z</time></trkpt><trkpt lat="43.97193" lon="12.42093"><ele>177.0</ele><time>2026-03-29T07:21:53.575Z</time></trkpt><trkpt lat="43.9719567" lon="12.42078"><ele>177.0</ele><time>2026-03-29T07:21:54.574Z</time></trkpt><trkpt lat="43.9720183" lon="12.4206033"><ele>177.0</ele><time>2026-03-29T07:21:55.575Z</time></trkpt><trkpt lat="43.9721217" lon="12.420365"><ele>177.0</ele><time>2026-03-29T07:21:56.575Z</time></trkpt><trkpt lat="43.9722133" lon="12.4201317"><ele>176.25</ele><time>2026-03-29T07:21:57.575Z</time></trkpt><trkpt lat="43.9722783" lon="12.41994"><ele>175.5</ele><time>2026-03-29T07:21:58.575Z</time></trkpt><trkpt lat="43.9723017" lon="12.419785"><ele>174.75</ele><time>2026-03-29T07:21:59.574Z</time></trkpt><trkpt lat="43.9723" lon="12.41964"><ele>174.0</ele><time>2026-03-29T07:22:00.575Z</time></trkpt><trkpt lat="43.9722567" lon="12.4195167"><ele>173.6</ele><time>2026-03-29T07:22:01.574Z</time></trkpt><trkpt lat="43.9721683" lon="12.419435"><ele>173.2</ele><time>2026-03-29T07:22:02.574Z</time></trkpt><trkpt lat="43.972055" lon="12.41941"><ele>172.79999999999998</ele><time>2026-03-29T07:22:03.575Z</time></trkpt><trkpt lat="43.9719383" lon="12.4194117"><ele>172.39999999999998</ele><time>2026-03-29T07:22:04.575Z</time></trkpt><trkpt lat="43.9718417" lon="12.41938"><ele>172.0</ele><time>2026-03-29T07:22:05.574Z</time></trkpt><trkpt lat="43.97176" lon="12.4193033"><ele>172.0</ele><time>2026-03-29T07:22:06.575Z</time></trkpt><trkpt lat="43.97171" lon="12.4191667"><ele>172.0</ele><time>2026-03-29T07:22:07.575Z</time></trkpt><trkpt lat="43.9716983" lon="12.418975"><ele>172.0</ele><time>2026-03-29T07:22:08.575Z</time></trkpt><trkpt lat="43.971715" lon="12.4187717"><ele>172.0</ele><time>2026-03-29T07:22:09.575Z</time></trkpt><trkpt lat="43.971765" lon="12.418575"><ele>170.0</ele><time>2026-03-29T07:22:10.574Z</time></trkpt><trkpt lat="43.9718617" lon="12.4183767"><ele>168.0</ele><time>2026-03-29T07:22:11.574Z</time></trkpt><trkpt lat="43.971995" lon="12.4181717"><ele>166.0</ele><time>2026-03-29T07:22:12.575Z</time></trkpt><trkpt lat="43.9721367" lon="12.4179783"><ele>165.33333333333334</ele><time>2026-03-29T07:22:13.574Z</time></trkpt><trkpt lat="43.9722833" lon="12.4177933"><ele>164.66666666666666</ele><time>2026-03-29T07:22:14.575Z</time></trkpt><trkpt lat="43.9724267" lon="12.4176367"><ele>164.0</ele><time>2026-03-29T07:22:15.575Z</time></trkpt><trkpt lat="43.9725517" lon="12.41748"><ele>164.0</ele><time>2026-03-29T07:22:16.575Z</time></trkpt><trkpt lat="43.9726533" lon="12.417285"><ele>164.0</ele><time>2026-03-29T07:22:17.574Z</time></trkpt><trkpt lat="43.9727333" lon="12.4170333"><ele>164.0</ele><time>2026-03-29T07:22:18.574Z</time></trkpt><trkpt lat="43.9728067" lon="12.41674"><ele>163.33333333333331</ele><time>2026-03-29T07:22:19.574Z</time></trkpt><trkpt lat="43.9728583" lon="12.4164467"><ele>162.66666666666666</ele><time>2026-03-29T07:22:20.575Z</time></trkpt><trkpt lat="43.9728933" lon="12.4161667"><ele>162.0</ele><time>2026-03-29T07:22:21.574Z</time></trkpt><trkpt lat="43.9729083" lon="12.415875"><ele>161.5</ele><time>2026-03-29T07:22:22.575Z</time></trkpt><trkpt lat="43.972905" lon="12.4155633"><ele>161.0</ele><time>2026-03-29T07:22:23.575Z</time></trkpt><trkpt lat="43.972875" lon="12.4152433"><ele>160.33333333333331</ele><time>2026-03-29T07:22:24.575Z</time></trkpt><trkpt lat="43.97284" lon="12.4149333"><ele>159.66666666666666</ele><time>2026-03-29T07:22:25.575Z</time></trkpt><trkpt lat="43.9728017" lon="12.414635"><ele>159.0</ele><time>2026-03-29T07:22:26.574Z</time></trkpt><trkpt lat="43.9727733" lon="12.4143567"><ele>157.33333333333334</ele><time>2026-03-29T07:22:27.575Z</time></trkpt><trkpt lat="43.972755" lon="12.4140783"><ele>155.66666666666669</ele><time>2026-03-29T07:22:28.575Z</time></trkpt><trkpt lat="43.9727433" lon="12.4138417"><ele>154.0</ele><time>2026-03-29T07:22:29.575Z</time></trkpt><trkpt lat="43.9727367" lon="12.4136217"><ele>151.25</ele><time>2026-03-29T07:22:30.574Z</time></trkpt><trkpt lat="43.97275" lon="12.4134133"><ele>148.5</ele><time>2026-03-29T07:22:31.575Z</time></trkpt><trkpt lat="43.972785" lon="12.4132083"><ele>145.75</ele><time>2026-03-29T07:22:32.575Z</time></trkpt><trkpt lat="43.9728267" lon="12.413025"><ele>143.0</ele><time>2026-03-29T07:22:33.574Z</time></trkpt><trkpt lat="43.9728733" lon="12.412895"><ele>141.6</ele><time>2026-03-29T07:22:34.575Z</time></trkpt><trkpt lat="43.9729083" lon="12.4128017"><ele>140.20000000000002</ele><time>2026-03-29T07:22:35.574Z</time></trkpt><trkpt lat="43.9729267" lon="12.4127117"><ele>138.8</ele><time>2026-03-29T07:22:36.575Z</time></trkpt><trkpt lat="43.9728617" lon="12.4125633"><ele>137.4</ele><time>2026-03-29T07:22:38.575Z</time></trkpt><trkpt lat="43.9727667" lon="12.412565"><ele>136.0</ele><time>2026-03-29T07:22:39.575Z</time></trkpt><trkpt lat="43.9726567" lon="12.412615"><ele>136.0</ele><time>2026-03-29T07:22:40.575Z</time></trkpt><trkpt lat="43.9725517" lon="12.4126817"><ele>136.0</ele><time>2026-03-29T07:22:41.575Z</time></trkpt><trkpt lat="43.97247" lon="12.4127383"><ele>136.0</ele><time>2026-03-29T07:22:42.575Z</time></trkpt><trkpt lat="43.972385" lon="12.4127633"><ele>136.0</ele><time>2026-03-29T07:22:43.575Z</time></trkpt><trkpt lat="43.97231" lon="12.4127233"><ele>136.0</ele><time>2026-03-29T07:22:44.574Z</time></trkpt><trkpt lat="43.972255" lon="12.4126433"><ele>134.0</ele><time>2026-03-29T07:22:45.575Z</time></trkpt><trkpt lat="43.97225" lon="12.4125317"><ele>132.0</ele><time>2026-03-29T07:22:46.575Z</time></trkpt><trkpt lat="43.972275" lon="12.4123967"><ele>130.0</ele><time>2026-03-29T07:22:47.575Z</time></trkpt><trkpt lat="43.97234" lon="12.4122783"><ele>128.0</ele><time>2026-03-29T07:22:48.574Z</time></trkpt><trkpt lat="43.9724117" lon="12.4121833"><ele>126.0</ele><time>2026-03-29T07:22:49.575Z</time></trkpt><trkpt lat="43.9724783" lon="12.4121233"><ele>126.33333333333333</ele><time>2026-03-29T07:22:50.574Z</time></trkpt><trkpt lat="43.972535" lon="12.412075"><ele>126.66666666666666</ele><time>2026-03-29T07:22:51.575Z</time></trkpt><trkpt lat="43.97259" lon="12.4120267"><ele>127.0</ele><time>2026-03-29T07:22:52.574Z</time></trkpt><trkpt lat="43.97266" lon="12.4119767"><ele>127.33333333333333</ele><time>2026-03-29T07:22:53.575Z</time></trkpt><trkpt lat="43.9727167" lon="12.41192"><ele>127.66666666666666</ele><time>2026-03-29T07:22:54.575Z</time></trkpt><trkpt lat="43.9727617" lon="12.4117683"><ele>128.0</ele><time>2026-03-29T07:22:56.575Z</time></trkpt><trkpt lat="43.9727133" lon="12.4116833"><ele>128.0</ele><time>2026-03-29T07:22:57.575Z</time></trkpt><trkpt lat="43.972645" lon="12.41163"><ele>128.0</ele><time>2026-03-29T07:22:58.574Z</time></trkpt><trkpt lat="43.972555" lon="12.4116333"><ele>128.0</ele><time>2026-03-29T07:22:59.575Z</time></trkpt><trkpt lat="43.9724617" lon="12.4116667"><ele>128.0</ele><time>2026-03-29T07:23:00.574Z</time></trkpt><trkpt lat="43.9723533" lon="12.4117217"><ele>128.0</ele><time>2026-03-29T07:23:01.575Z</time></trkpt><trkpt lat="43.9722283" lon="12.4117883"><ele>125.66666666666666</ele><time>2026-03-29T07:23:02.575Z</time></trkpt><trkpt lat="43.9720967" lon="12.4118617"><ele>123.33333333333334</ele><time>2026-03-29T07:23:03.574Z</time></trkpt><trkpt lat="43.9719483" lon="12.4119417"><ele>121.0</ele><time>2026-03-29T07:23:04.574Z</time></trkpt><trkpt lat="43.9717817" lon="12.4120217"><ele>119.66666666666667</ele><time>2026-03-29T07:23:05.574Z</time></trkpt><trkpt lat="43.9715867" lon="12.41211"><ele>118.33333333333334</ele><time>2026-03-29T07:23:06.575Z</time></trkpt><trkpt lat="43.9713683" lon="12.41218"><ele>117.0</ele><time>2026-03-29T07:23:07.575Z</time></trkpt><trkpt lat="43.97113" lon="12.4122367"><ele>117.0</ele><time>2026-03-29T07:23:08.575Z</time></trkpt><trkpt lat="43.9708833" lon="12.4122767"><ele>117.0</ele><time>2026-03-29T07:23:09.575Z</time></trkpt><trkpt lat="43.9706533" lon="12.41229"><ele>116.33333333333334</ele><time>2026-03-29T07:23:10.575Z</time></trkpt><trkpt lat="43.97043" lon="12.4122783"><ele>115.66666666666667</ele><time>2026-03-29T07:23:11.575Z</time></trkpt><trkpt lat="43.9702117" lon="12.412255"><ele>115.0</ele><time>2026-03-29T07:23:12.575Z</time></trkpt><trkpt lat="43.9699983" lon="12.4122167"><ele>114.66666666666667</ele><time>2026-03-29T07:23:13.575Z</time></trkpt><trkpt lat="43.9698067" lon="12.4121483"><ele>114.33333333333334</ele><time>2026-03-29T07:23:14.574Z</time></trkpt><trkpt lat="43.969615" lon="12.41208"><ele>114.0</ele><time>2026-03-29T07:23:15.575Z</time></trkpt><trkpt lat="43.9694383" lon="12.41199"><ele>114.0</ele><time>2026-03-29T07:23:16.574Z</time></trkpt><trkpt lat="43.96927" lon="12.411885"><ele>114.0</ele><time>2026-03-29T07:23:17.574Z</time></trkpt><trkpt lat="43.9691033" lon="12.4117683"><ele>114.0</ele><time>2026-03-29T07:23:18.574Z</time></trkpt><trkpt lat="43.96894" lon="12.4116433"><ele>114.0</ele><time>2026-03-29T07:23:19.574Z</time></trkpt><trkpt lat="43.9687833" lon="12.4114933"><ele>114.0</ele><time>2026-03-29T07:23:20.575Z</time></trkpt><trkpt lat="43.968635" lon="12.4113333"><ele>114.0</ele><time>2026-03-29T07:23:21.574Z</time></trkpt><trkpt lat="43.9685017" lon="12.4111767"><ele>114.0</ele><time>2026-03-29T07:23:22.574Z</time></trkpt><trkpt lat="43.9683717" lon="12.4110167"><ele>114.0</ele><time>2026-03-29T07:23:23.574Z</time></trkpt><trkpt lat="43.9682517" lon="12.4108583"><ele>114.0</ele><time>2026-03-29T07:23:24.575Z</time></trkpt><trkpt lat="43.9681467" lon="12.4106883"><ele>114.0</ele><time>2026-03-29T07:23:25.574Z</time></trkpt><trkpt lat="43.9680483" lon="12.4105067"><ele>114.0</ele><time>2026-03-29T07:23:26.574Z</time></trkpt><trkpt lat="43.9679617" lon="12.4103267"><ele>114.0</ele><time>2026-03-29T07:23:27.575Z</time></trkpt><trkpt lat="43.967875" lon="12.4101417"><ele>114.0</ele><time>2026-03-29T07:23:28.575Z</time></trkpt><trkpt lat="43.9677933" lon="12.409965"><ele>114.0</ele><time>2026-03-29T07:23:29.575Z</time></trkpt><trkpt lat="43.96772" lon="12.4097783"><ele>114.0</ele><time>2026-03-29T07:23:30.574Z</time></trkpt><trkpt lat="43.9676417" lon="12.4095883"><ele>113.33333333333334</ele><time>2026-03-29T07:23:31.575Z</time></trkpt><trkpt lat="43.96756" lon="12.409405"><ele>112.66666666666667</ele><time>2026-03-29T07:23:32.574Z</time></trkpt><trkpt lat="43.9674667" lon="12.4092183"><ele>112.0</ele><time>2026-03-29T07:23:33.574Z</time></trkpt><trkpt lat="43.9673533" lon="12.40901"><ele>114.5</ele><time>2026-03-29T07:23:34.574Z</time></trkpt><trkpt lat="43.9672367" lon="12.408755"><ele>117.0</ele><time>2026-03-29T07:23:35.574Z</time></trkpt><trkpt lat="43.96711" lon="12.40846"><ele>117.0</ele><time>2026-03-29T07:23:36.575Z</time></trkpt><trkpt lat="43.9669733" lon="12.4081417"><ele>117.0</ele><time>2026-03-29T07:23:37.575Z</time></trkpt><trkpt lat="43.966835" lon="12.407815"><ele>118.0</ele><time>2026-03-29T07:23:38.574Z</time></trkpt><trkpt lat="43.9666867" lon="12.4074767"><ele>119.0</ele><time>2026-03-29T07:23:39.575Z</time></trkpt><trkpt lat="43.9665417" lon="12.40716"><ele>119.0</ele><time>2026-03-29T07:23:40.575Z</time></trkpt><trkpt lat="43.966405" lon="12.4068533"><ele>119.0</ele><time>2026-03-29T07:23:41.575Z</time></trkpt><trkpt lat="43.9662617" lon="12.40657"><ele>118.5</ele><time>2026-03-29T07:23:42.575Z</time></trkpt><trkpt lat="43.9661133" lon="12.4063017"><ele>118.0</ele><time>2026-03-29T07:23:43.574Z</time></trkpt><trkpt lat="43.9659617" lon="12.4060533"><ele>121.0</ele><time>2026-03-29T07:23:44.575Z</time></trkpt><trkpt lat="43.9658033" lon="12.4058133"><ele>124.0</ele><time>2026-03-29T07:23:45.575Z</time></trkpt><trkpt lat="43.9656417" lon="12.4055717"><ele>122.0</ele><time>2026-03-29T07:23:46.574Z</time></trkpt><trkpt lat="43.9654767" lon="12.4053417"><ele>120.0</ele><time>2026-03-29T07:23:47.575Z</time></trkpt><trkpt lat="43.965045" lon="12.4048517"><ele>120.5</ele><time>2026-03-29T07:23:49.997Z</time></trkpt><trkpt lat="43.9648433" lon="12.4044867"><ele>121.0</ele><time>2026-03-29T07:23:51.074Z</time></trkpt><trkpt lat="43.9646317" lon="12.404185"><ele>121.0</ele><time>2026-03-29T07:23:52.074Z</time></trkpt><trkpt lat="43.9644167" lon="12.403905"><ele>121.0</ele><time>2026-03-29T07:23:53.073Z</time></trkpt><trkpt lat="43.9641183" lon="12.4035233"><ele>125.0</ele><time>2026-03-29T07:23:54.574Z</time></trkpt><trkpt lat="43.9639217" lon="12.4033"><ele>129.0</ele><time>2026-03-29T07:23:55.573Z</time></trkpt><trkpt lat="43.9637283" lon="12.40311"><ele>129.0</ele><time>2026-03-29T07:23:56.574Z</time></trkpt><trkpt lat="43.9635367" lon="12.40292"><ele>129.0</ele><time>2026-03-29T07:23:57.574Z</time></trkpt><trkpt lat="43.9633317" lon="12.4027633"><ele>129.0</ele><time>2026-03-29T07:23:58.574Z</time></trkpt><trkpt lat="43.9631317" lon="12.4026367"><ele>129.0</ele><time>2026-03-29T07:23:59.573Z</time></trkpt><trkpt lat="43.9629483" lon="12.40252"><ele>129.0</ele><time>2026-03-29T07:24:00.574Z</time></trkpt><trkpt lat="43.9627633" lon="12.4023883"><ele>129.0</ele><time>2026-03-29T07:24:01.574Z</time></trkpt><trkpt lat="43.9625617" lon="12.40228"><ele>129.0</ele><time>2026-03-29T07:24:02.574Z</time></trkpt><trkpt lat="43.96237" lon="12.4021633"><ele>129.0</ele><time>2026-03-29T07:24:03.573Z</time></trkpt><trkpt lat="43.9621883" lon="12.40206"><ele>129.0</ele><time>2026-03-29T07:24:04.574Z</time></trkpt><trkpt lat="43.9620167" lon="12.4019567"><ele>129.0</ele><time>2026-03-29T07:24:05.574Z</time></trkpt><trkpt lat="43.9618633" lon="12.401865"><ele>129.0</ele><time>2026-03-29T07:24:06.573Z</time></trkpt><trkpt lat="43.961735" lon="12.40178"><ele>129.33333333333334</ele><time>2026-03-29T07:24:07.574Z</time></trkpt><trkpt lat="43.9616367" lon="12.4017033"><ele>129.66666666666666</ele><time>2026-03-29T07:24:08.573Z</time></trkpt><trkpt lat="43.961555" lon="12.4016267"><ele>130.0</ele><time>2026-03-29T07:24:09.574Z</time></trkpt><trkpt lat="43.9614833" lon="12.40157"><ele>130.33333333333331</ele><time>2026-03-29T07:24:10.573Z</time></trkpt><trkpt lat="43.961415" lon="12.401535"><ele>130.66666666666666</ele><time>2026-03-29T07:24:11.573Z</time></trkpt><trkpt lat="43.9613417" lon="12.4015483"><ele>131.0</ele><time>2026-03-29T07:24:12.574Z</time></trkpt><trkpt lat="43.96128" lon="12.4016333"><ele>131.0</ele><time>2026-03-29T07:24:13.574Z</time></trkpt><trkpt lat="43.96122" lon="12.4017467"><ele>131.0</ele><time>2026-03-29T07:24:14.574Z</time></trkpt><trkpt lat="43.9611333" lon="12.401835"><ele>131.0</ele><time>2026-03-29T07:24:15.574Z</time></trkpt><trkpt lat="43.9610217" lon="12.4018983"><ele>131.0</ele><time>2026-03-29T07:24:16.573Z</time></trkpt><trkpt lat="43.9608633" lon="12.4019617"><ele>131.33333333333331</ele><time>2026-03-29T07:24:17.574Z</time></trkpt><trkpt lat="43.9606867" lon="12.40203"><ele>131.66666666666666</ele><time>2026-03-29T07:24:18.573Z</time></trkpt><trkpt lat="43.96051" lon="12.4021033"><ele>132.0</ele><time>2026-03-29T07:24:19.574Z</time></trkpt><trkpt lat="43.96034" lon="12.40216"><ele>131.33333333333334</ele><time>2026-03-29T07:24:20.574Z</time></trkpt><trkpt lat="43.960175" lon="12.402175"><ele>130.66666666666669</ele><time>2026-03-29T07:24:21.573Z</time></trkpt><trkpt lat="43.9599983" lon="12.4021583"><ele>130.0</ele><time>2026-03-29T07:24:22.573Z</time></trkpt><trkpt lat="43.95983" lon="12.402135"><ele>130.0</ele><time>2026-03-29T07:24:23.573Z</time></trkpt><trkpt lat="43.9596733" lon="12.4020867"><ele>130.0</ele><time>2026-03-29T07:24:24.574Z</time></trkpt><trkpt lat="43.9595533" lon="12.40203"><ele>130.0</ele><time>2026-03-29T07:24:25.574Z</time></trkpt><trkpt lat="43.9594683" lon="12.4019733"><ele>130.0</ele><time>2026-03-29T07:24:26.574Z</time></trkpt><trkpt lat="43.9593917" lon="12.40194"><ele>130.0</ele><time>2026-03-29T07:24:27.574Z</time></trkpt><trkpt lat="43.9593183" lon="12.4019533"><ele>130.0</ele><time>2026-03-29T07:24:28.574Z</time></trkpt><trkpt lat="43.95925" lon="12.4020183"><ele>130.0</ele><time>2026-03-29T07:24:29.574Z</time></trkpt><trkpt lat="43.9591883" lon="12.4021367"><ele>130.0</ele><time>2026-03-29T07:24:30.574Z</time></trkpt><trkpt lat="43.9591467" lon="12.402355"><ele>130.0</ele><time>2026-03-29T07:24:31.573Z</time></trkpt><trkpt lat="43.9590733" lon="12.4026183"><ele>131.0</ele><time>2026-03-29T07:24:32.574Z</time></trkpt><trkpt lat="43.9589917" lon="12.4028867"><ele>132.0</ele><time>2026-03-29T07:24:33.573Z</time></trkpt><trkpt lat="43.958905" lon="12.403155"><ele>133.0</ele><time>2026-03-29T07:24:34.573Z</time></trkpt><trkpt lat="43.95881" lon="12.4034167"><ele>135.0</ele><time>2026-03-29T07:24:35.574Z</time></trkpt><trkpt lat="43.9587" lon="12.403655"><ele>137.0</ele><time>2026-03-29T07:24:36.574Z</time></trkpt><trkpt lat="43.9585567" lon="12.4038967"><ele>139.0</ele><time>2026-03-29T07:24:37.573Z</time></trkpt><trkpt lat="43.958395" lon="12.4041317"><ele>135.5</ele><time>2026-03-29T07:24:38.574Z</time></trkpt><trkpt lat="43.9582117" lon="12.4043383"><ele>132.0</ele><time>2026-03-29T07:24:39.574Z</time></trkpt><trkpt lat="43.9580267" lon="12.404505"><ele>132.0</ele><time>2026-03-29T07:24:40.574Z</time></trkpt><trkpt lat="43.95784" lon="12.40463"><ele>132.0</ele><time>2026-03-29T07:24:41.573Z</time></trkpt><trkpt lat="43.9576517" lon="12.4047333"><ele>132.0</ele><time>2026-03-29T07:24:42.574Z</time></trkpt><trkpt lat="43.9574667" lon="12.4047983"><ele>132.0</ele><time>2026-03-29T07:24:43.574Z</time></trkpt><trkpt lat="43.9572867" lon="12.4048433"><ele>132.0</ele><time>2026-03-29T07:24:44.574Z</time></trkpt><trkpt lat="43.9571067" lon="12.40487"><ele>132.0</ele><time>2026-03-29T07:24:45.574Z</time></trkpt><trkpt lat="43.9569117" lon="12.404905"><ele>132.0</ele><time>2026-03-29T07:24:46.573Z</time></trkpt><trkpt lat="43.95671" lon="12.4049417"><ele>132.0</ele><time>2026-03-29T07:24:47.574Z</time></trkpt><trkpt lat="43.9564983" lon="12.4049783"><ele>132.0</ele><time>2026-03-29T07:24:48.573Z</time></trkpt><trkpt lat="43.9562867" lon="12.4050117"><ele>132.33333333333334</ele><time>2026-03-29T07:24:49.573Z</time></trkpt><trkpt lat="43.9560683" lon="12.40504"><ele>132.66666666666669</ele><time>2026-03-29T07:24:50.573Z</time></trkpt><trkpt lat="43.95586" lon="12.4050767"><ele>133.0</ele><time>2026-03-29T07:24:51.574Z</time></trkpt><trkpt lat="43.95566" lon="12.405115"><ele>133.66666666666669</ele><time>2026-03-29T07:24:52.574Z</time></trkpt><trkpt lat="43.9554667" lon="12.4051417"><ele>134.33333333333334</ele><time>2026-03-29T07:24:53.575Z</time></trkpt><trkpt lat="43.955285" lon="12.40517"><ele>135.0</ele><time>2026-03-29T07:24:54.575Z</time></trkpt><trkpt lat="43.9551183" lon="12.4051933"><ele>136.33333333333334</ele><time>2026-03-29T07:24:55.575Z</time></trkpt><trkpt lat="43.9549567" lon="12.4052233"><ele>137.66666666666669</ele><time>2026-03-29T07:24:56.575Z</time></trkpt><trkpt lat="43.9548033" lon="12.4052517"><ele>139.0</ele><time>2026-03-29T07:24:57.574Z</time></trkpt><trkpt lat="43.9546633" lon="12.4052717"><ele>139.0</ele><time>2026-03-29T07:24:58.574Z</time></trkpt><trkpt lat="43.9545333" lon="12.405285"><ele>139.0</ele><time>2026-03-29T07:24:59.575Z</time></trkpt><trkpt lat="43.9544083" lon="12.4053017"><ele>139.0</ele><time>2026-03-29T07:25:00.574Z</time></trkpt><trkpt lat="43.9542817" lon="12.405325"><ele>139.0</ele><time>2026-03-29T07:25:01.575Z</time></trkpt><trkpt lat="43.9541567" lon="12.4053467"><ele>139.25</ele><time>2026-03-29T07:25:02.574Z</time></trkpt><trkpt lat="43.9540317" lon="12.40538"><ele>139.5</ele><time>2026-03-29T07:25:03.574Z</time></trkpt><trkpt lat="43.9538867" lon="12.4054383"><ele>139.75</ele><time>2026-03-29T07:25:04.574Z</time></trkpt><trkpt lat="43.9537533" lon="12.40547"><ele>140.0</ele><time>2026-03-29T07:25:05.574Z</time></trkpt><trkpt lat="43.9536217" lon="12.4054933"><ele>140.25</ele><time>2026-03-29T07:25:06.574Z</time></trkpt><trkpt lat="43.9534933" lon="12.4055217"><ele>140.5</ele><time>2026-03-29T07:25:07.575Z</time></trkpt><trkpt lat="43.9533617" lon="12.4055467"><ele>140.75</ele><time>2026-03-29T07:25:08.575Z</time></trkpt><trkpt lat="43.953235" lon="12.405585"><ele>141.0</ele><time>2026-03-29T07:25:09.575Z</time></trkpt><trkpt lat="43.9531067" lon="12.4056233"><ele>141.75</ele><time>2026-03-29T07:25:10.574Z</time></trkpt><trkpt lat="43.952975" lon="12.4056533"><ele>142.5</ele><time>2026-03-29T07:25:11.574Z</time></trkpt><trkpt lat="43.9528433" lon="12.40568"><ele>143.25</ele><time>2026-03-29T07:25:12.574Z</time></trkpt><trkpt lat="43.952715" lon="12.4057183"><ele>144.0</ele><time>2026-03-29T07:25:13.574Z</time></trkpt><trkpt lat="43.9526" lon="12.40574"><ele>144.0</ele><time>2026-03-29T07:25:14.575Z</time></trkpt><trkpt lat="43.9525" lon="12.4057633"><ele>144.0</ele><time>2026-03-29T07:25:15.575Z</time></trkpt><trkpt lat="43.95241" lon="12.4057933"><ele>144.0</ele><time>2026-03-29T07:25:16.575Z</time></trkpt><trkpt lat="43.952325" lon="12.405805"><ele>144.0</ele><time>2026-03-29T07:25:17.575Z</time></trkpt><trkpt lat="43.9522567" lon="12.4058233"><ele>144.0</ele><time>2026-03-29T07:25:18.575Z</time></trkpt><trkpt lat="43.9521683" lon="12.4058867"><ele>144.0</ele><time>2026-03-29T07:25:20.575Z</time></trkpt><trkpt lat="43.9521633" lon="12.406"><ele>144.0</ele><time>2026-03-29T07:25:23.574Z</time></trkpt><trkpt lat="43.95224" lon="12.4060117"><ele>144.0</ele><time>2026-03-29T07:25:25.575Z</time></trkpt><trkpt lat="43.9523133" lon="12.4059917"><ele>144.0</ele><time>2026-03-29T07:25:27.574Z</time></trkpt><trkpt lat="43.9524033" lon="12.405975"><ele>144.0</ele><time>2026-03-29T07:28:47.073Z</time></trkpt><trkpt lat="43.952375" lon="12.4058967"><ele>144.0</ele><time>2026-03-29T07:30:47.574Z</time></trkpt><trkpt lat="43.95244" lon="12.4058017"><ele>144.0</ele><time>2026-03-29T07:30:50.575Z</time></trkpt><trkpt lat="43.9525633" lon="12.4057433"><ele>144.0</ele><time>2026-03-29T07:30:52.575Z</time></trkpt><trkpt lat="43.9526433" lon="12.405715"><ele>144.0</ele><time>2026-03-29T07:30:53.575Z</time></trkpt><trkpt lat="43.9527367" lon="12.4056933"><ele>144.0</ele><time>2026-03-29T07:30:54.575Z</time></trkpt><trkpt lat="43.95284" lon="12.4056683"><ele>144.0</ele><time>2026-03-29T07:30:55.575Z</time></trkpt><trkpt lat="43.9529483" lon="12.4056383"><ele>144.0</ele><time>2026-03-29T07:30:56.575Z</time></trkpt><trkpt lat="43.9530633" lon="12.4056117"><ele>144.0</ele><time>2026-03-29T07:30:57.575Z</time></trkpt><trkpt lat="43.9531867" lon="12.4055833"><ele>144.0</ele><time>2026-03-29T07:30:58.575Z</time></trkpt><trkpt lat="43.953295" lon="12.4055617"><ele>144.0</ele><time>2026-03-29T07:30:59.575Z</time></trkpt><trkpt lat="43.9533933" lon="12.4055333"><ele>144.0</ele><time>2026-03-29T07:31:00.575Z</time></trkpt><trkpt lat="43.9534817" lon="12.4055117"><ele>144.0</ele><time>2026-03-29T07:31:01.575Z</time></trkpt><trkpt lat="43.9535717" lon="12.40551"><ele>143.4</ele><time>2026-03-29T07:31:02.574Z</time></trkpt><trkpt lat="43.9536667" lon="12.4055033"><ele>142.8</ele><time>2026-03-29T07:31:03.574Z</time></trkpt><trkpt lat="43.9537683" lon="12.4054867"><ele>142.2</ele><time>2026-03-29T07:31:04.575Z</time></trkpt><trkpt lat="43.9538833" lon="12.4054583"><ele>141.6</ele><time>2026-03-29T07:31:05.575Z</time></trkpt><trkpt lat="43.9539883" lon="12.4054333"><ele>141.0</ele><time>2026-03-29T07:31:06.574Z</time></trkpt><trkpt lat="43.9540967" lon="12.4054117"><ele>140.5</ele><time>2026-03-29T07:31:07.575Z</time></trkpt><trkpt lat="43.95421" lon="12.4053933"><ele>140.0</ele><time>2026-03-29T07:31:08.575Z</time></trkpt><trkpt lat="43.954325" lon="12.4053717"><ele>139.5</ele><time>2026-03-29T07:31:09.575Z</time></trkpt><trkpt lat="43.9544417" lon="12.4053483"><ele>139.0</ele><time>2026-03-29T07:31:10.574Z</time></trkpt><trkpt lat="43.9545667" lon="12.4053233"><ele>139.0</ele><time>2026-03-29T07:31:11.574Z</time></trkpt><trkpt lat="43.9547083" lon="12.405295"><ele>139.0</ele><time>2026-03-29T07:31:12.574Z</time></trkpt><trkpt lat="43.954865" lon="12.40527"><ele>139.0</ele><time>2026-03-29T07:31:13.575Z</time></trkpt><trkpt lat="43.9550333" lon="12.405245"><ele>137.66666666666669</ele><time>2026-03-29T07:31:14.575Z</time></trkpt><trkpt lat="43.9552217" lon="12.405215"><ele>136.33333333333334</ele><time>2026-03-29T07:31:15.575Z</time></trkpt><trkpt lat="43.9554133" lon="12.4051817"><ele>135.0</ele><time>2026-03-29T07:31:16.575Z</time></trkpt><trkpt lat="43.9556017" lon="12.4051433"><ele>135.0</ele><time>2026-03-29T07:31:17.575Z</time></trkpt><trkpt lat="43.9557967" lon="12.4051033"><ele>135.0</ele><time>2026-03-29T07:31:18.575Z</time></trkpt><trkpt lat="43.95598" lon="12.4050767"><ele>135.0</ele><time>2026-03-29T07:31:19.574Z</time></trkpt><trkpt lat="43.9561683" lon="12.405055"><ele>134.33333333333334</ele><time>2026-03-29T07:31:20.574Z</time></trkpt><trkpt lat="43.9563633" lon="12.4050367"><ele>133.66666666666669</ele><time>2026-03-29T07:31:21.574Z</time></trkpt><trkpt lat="43.9565633" lon="12.4050133"><ele>133.0</ele><time>2026-03-29T07:31:22.575Z</time></trkpt><trkpt lat="43.9567617" lon="12.404985"><ele>132.66666666666669</ele><time>2026-03-29T07:31:23.575Z</time></trkpt><trkpt lat="43.9569633" lon="12.40495"><ele>132.33333333333334</ele><time>2026-03-29T07:31:24.575Z</time></trkpt><trkpt lat="43.957155" lon="12.4049167"><ele>132.0</ele><time>2026-03-29T07:31:25.575Z</time></trkpt><trkpt lat="43.9573433" lon="12.4048783"><ele>132.0</ele><time>2026-03-29T07:31:26.575Z</time></trkpt><trkpt lat="43.9575333" lon="12.4048233"><ele>132.0</ele><time>2026-03-29T07:31:27.575Z</time></trkpt><trkpt lat="43.9577133" lon="12.4047533"><ele>132.0</ele><time>2026-03-29T07:31:28.575Z</time></trkpt><trkpt lat="43.9578833" lon="12.40465"><ele>132.0</ele><time>2026-03-29T07:31:29.575Z</time></trkpt><trkpt lat="43.9580533" lon="12.4045183"><ele>132.0</ele><time>2026-03-29T07:31:30.575Z</time></trkpt><trkpt lat="43.9582183" lon="12.4043717"><ele>132.0</ele><time>2026-03-29T07:31:31.575Z</time></trkpt><trkpt lat="43.9583833" lon="12.4042083"><ele>134.33333333333334</ele><time>2026-03-29T07:31:32.574Z</time></trkpt><trkpt lat="43.9585333" lon="12.4040133"><ele>136.66666666666669</ele><time>2026-03-29T07:31:33.574Z</time></trkpt><trkpt lat="43.9586717" lon="12.4037917"><ele>139.0</ele><time>2026-03-29T07:31:34.574Z</time></trkpt><trkpt lat="43.9587883" lon="12.4035583"><ele>139.0</ele><time>2026-03-29T07:31:35.575Z</time></trkpt><trkpt lat="43.9588783" lon="12.4033183"><ele>139.0</ele><time>2026-03-29T07:31:36.575Z</time></trkpt><trkpt lat="43.9589567" lon="12.4031"><ele>139.0</ele><time>2026-03-29T07:31:37.574Z</time></trkpt><trkpt lat="43.9590317" lon="12.4028933"><ele>138.75</ele><time>2026-03-29T07:31:38.575Z</time></trkpt><trkpt lat="43.959095" lon="12.402705"><ele>138.5</ele><time>2026-03-29T07:31:39.575Z</time></trkpt><trkpt lat="43.9591533" lon="12.4025183"><ele>138.25</ele><time>2026-03-29T07:31:40.575Z</time></trkpt><trkpt lat="43.9592083" lon="12.4023567"><ele>138.0</ele><time>2026-03-29T07:31:41.574Z</time></trkpt><trkpt lat="43.959275" lon="12.402225"><ele>136.0</ele><time>2026-03-29T07:31:42.575Z</time></trkpt><trkpt lat="43.9593567" lon="12.40213"><ele>134.0</ele><time>2026-03-29T07:31:43.574Z</time></trkpt><trkpt lat="43.9594517" lon="12.4020767"><ele>132.0</ele><time>2026-03-29T07:31:44.575Z</time></trkpt><trkpt lat="43.9595667" lon="12.4020767"><ele>130.0</ele><time>2026-03-29T07:31:45.575Z</time></trkpt><trkpt lat="43.9596917" lon="12.4021167"><ele>132.0</ele><time>2026-03-29T07:31:46.574Z</time></trkpt><trkpt lat="43.9598283" lon="12.4021667"><ele>134.0</ele><time>2026-03-29T07:31:47.574Z</time></trkpt><trkpt lat="43.9599717" lon="12.4022033"><ele>136.0</ele><time>2026-03-29T07:31:48.575Z</time></trkpt><trkpt lat="43.9600917" lon="12.40221"><ele>138.0</ele><time>2026-03-29T07:31:49.574Z</time></trkpt><trkpt lat="43.9602117" lon="12.4022183"><ele>138.4</ele><time>2026-03-29T07:31:50.574Z</time></trkpt><trkpt lat="43.9603233" lon="12.4022067"><ele>138.8</ele><time>2026-03-29T07:31:51.575Z</time></trkpt><trkpt lat="43.9604267" lon="12.4021867"><ele>139.2</ele><time>2026-03-29T07:31:52.574Z</time></trkpt><trkpt lat="43.9605233" lon="12.40215"><ele>139.6</ele><time>2026-03-29T07:31:53.574Z</time></trkpt><trkpt lat="43.960635" lon="12.4021"><ele>140.0</ele><time>2026-03-29T07:31:54.574Z</time></trkpt><trkpt lat="43.960735" lon="12.402055"><ele>138.66666666666666</ele><time>2026-03-29T07:31:55.575Z</time></trkpt><trkpt lat="43.9608267" lon="12.4020183"><ele>137.33333333333331</ele><time>2026-03-29T07:31:56.575Z</time></trkpt><trkpt lat="43.9609183" lon="12.4019833"><ele>136.0</ele><time>2026-03-29T07:31:57.574Z</time></trkpt><trkpt lat="43.9610017" lon="12.40195"><ele>134.66666666666666</ele><time>2026-03-29T07:31:58.575Z</time></trkpt><trkpt lat="43.9610717" lon="12.40192"><ele>133.33333333333334</ele><time>2026-03-29T07:31:59.575Z</time></trkpt><trkpt lat="43.9611367" lon="12.4018983"><ele>132.0</ele><time>2026-03-29T07:32:00.575Z</time></trkpt><trkpt lat="43.961205" lon="12.4018833"><ele>131.79999999999998</ele><time>2026-03-29T07:32:01.574Z</time></trkpt><trkpt lat="43.9613267" lon="12.4018633"><ele>131.6</ele><time>2026-03-29T07:32:03.575Z</time></trkpt><trkpt lat="43.961445" lon="12.4018133"><ele>131.39999999999998</ele><time>2026-03-29T07:32:05.575Z</time></trkpt><trkpt lat="43.9614983" lon="12.4017583"><ele>131.2</ele><time>2026-03-29T07:32:06.575Z</time></trkpt><trkpt lat="43.9615183" lon="12.4016033"><ele>131.0</ele><time>2026-03-29T07:32:08.575Z</time></trkpt><trkpt lat="43.9614817" lon="12.4015217"><ele>131.0</ele><time>2026-03-29T07:32:09.574Z</time></trkpt><trkpt lat="43.9614067" lon="12.4014517"><ele>131.0</ele><time>2026-03-29T07:32:10.575Z</time></trkpt><trkpt lat="43.9612983" lon="12.4013867"><ele>131.0</ele><time>2026-03-29T07:32:11.575Z</time></trkpt><trkpt lat="43.9611733" lon="12.4012883"><ele>131.0</ele><time>2026-03-29T07:32:12.575Z</time></trkpt><trkpt lat="43.961045" lon="12.4011567"><ele>130.33333333333331</ele><time>2026-03-29T07:32:13.574Z</time></trkpt><trkpt lat="43.9609233" lon="12.40101"><ele>129.66666666666666</ele><time>2026-03-29T07:32:14.575Z</time></trkpt><trkpt lat="43.9607983" lon="12.4008483"><ele>129.0</ele><time>2026-03-29T07:32:15.575Z</time></trkpt><trkpt lat="43.9606683" lon="12.4006717"><ele>127.66666666666666</ele><time>2026-03-29T07:32:16.574Z</time></trkpt><trkpt lat="43.96054" lon="12.4004583"><ele>126.33333333333333</ele><time>2026-03-29T07:32:17.575Z</time></trkpt><trkpt lat="43.96041" lon="12.40023"><ele>125.0</ele><time>2026-03-29T07:32:18.575Z</time></trkpt><trkpt lat="43.9602733" lon="12.39998"><ele>125.0</ele><time>2026-03-29T07:32:19.574Z</time></trkpt><trkpt lat="43.96014" lon="12.3997167"><ele>125.0</ele><time>2026-03-29T07:32:20.575Z</time></trkpt><trkpt lat="43.9600017" lon="12.3994567"><ele>125.0</ele><time>2026-03-29T07:32:21.575Z</time></trkpt><trkpt lat="43.95987" lon="12.3991867"><ele>125.0</ele><time>2026-03-29T07:32:22.575Z</time></trkpt><trkpt lat="43.9597417" lon="12.3989167"><ele>128.5</ele><time>2026-03-29T07:32:23.574Z</time></trkpt><trkpt lat="43.959615" lon="12.3986533"><ele>132.0</ele><time>2026-03-29T07:32:24.575Z</time></trkpt><trkpt lat="43.95948" lon="12.398385"><ele>132.0</ele><time>2026-03-29T07:32:25.574Z</time></trkpt><trkpt lat="43.95934" lon="12.3981017"><ele>132.0</ele><time>2026-03-29T07:32:26.575Z</time></trkpt><trkpt lat="43.9591967" lon="12.3978"><ele>131.0</ele><time>2026-03-29T07:32:27.574Z</time></trkpt><trkpt lat="43.9590567" lon="12.3974717"><ele>130.0</ele><time>2026-03-29T07:32:28.575Z</time></trkpt><trkpt lat="43.95891" lon="12.3971217"><ele>130.0</ele><time>2026-03-29T07:32:29.575Z</time></trkpt><trkpt lat="43.958755" lon="12.3967433"><ele>130.0</ele><time>2026-03-29T07:32:30.575Z</time></trkpt><trkpt lat="43.95861" lon="12.39636"><ele>128.5</ele><time>2026-03-29T07:32:31.575Z</time></trkpt><trkpt lat="43.9584633" lon="12.3959567"><ele>127.0</ele><time>2026-03-29T07:32:32.575Z</time></trkpt><trkpt lat="43.9583217" lon="12.3955533"><ele>129.5</ele><time>2026-03-29T07:32:33.574Z</time></trkpt><trkpt lat="43.9581833" lon="12.3951467"><ele>132.0</ele><time>2026-03-29T07:32:34.574Z</time></trkpt><trkpt lat="43.958045" lon="12.394755"><ele>130.0</ele><time>2026-03-29T07:32:35.574Z</time></trkpt><trkpt lat="43.957915" lon="12.39439"><ele>128.0</ele><time>2026-03-29T07:32:36.574Z</time></trkpt><trkpt lat="43.9577933" lon="12.39404"><ele>127.5</ele><time>2026-03-29T07:32:37.575Z</time></trkpt><trkpt lat="43.957665" lon="12.39369"><ele>127.0</ele><time>2026-03-29T07:32:38.575Z</time></trkpt><trkpt lat="43.9575383" lon="12.3933383"><ele>129.0</ele><time>2026-03-29T07:32:39.575Z</time></trkpt><trkpt lat="43.95742" lon="12.3929917"><ele>131.0</ele><time>2026-03-29T07:32:40.574Z</time></trkpt><trkpt lat="43.9573" lon="12.3926417"><ele>131.0</ele><time>2026-03-29T07:32:41.575Z</time></trkpt><trkpt lat="43.957195" lon="12.392285"><ele>131.0</ele><time>2026-03-29T07:32:42.574Z</time></trkpt><trkpt lat="43.9571117" lon="12.39191"><ele>130.5</ele><time>2026-03-29T07:32:43.575Z</time></trkpt><trkpt lat="43.957035" lon="12.3915133"><ele>130.0</ele><time>2026-03-29T07:32:44.574Z</time></trkpt><trkpt lat="43.95699" lon="12.39111"><ele>130.0</ele><time>2026-03-29T07:32:45.575Z</time></trkpt><trkpt lat="43.9569817" lon="12.390705"><ele>130.0</ele><time>2026-03-29T07:32:46.575Z</time></trkpt><trkpt lat="43.9569883" lon="12.3903183"><ele>130.0</ele><time>2026-03-29T07:32:47.575Z</time></trkpt><trkpt lat="43.9570167" lon="12.3899583"><ele>130.0</ele><time>2026-03-29T07:32:48.574Z</time></trkpt><trkpt lat="43.957055" lon="12.38961"><ele>130.0</ele><time>2026-03-29T07:32:49.574Z</time></trkpt><trkpt lat="43.95712" lon="12.3892583"><ele>130.0</ele><time>2026-03-29T07:32:50.575Z</time></trkpt><trkpt lat="43.957195" lon="12.388925"><ele>132.0</ele><time>2026-03-29T07:32:51.574Z</time></trkpt><trkpt lat="43.9572733" lon="12.3886133"><ele>134.0</ele><time>2026-03-29T07:32:52.574Z</time></trkpt><trkpt lat="43.9573383" lon="12.3883267"><ele>134.0</ele><time>2026-03-29T07:32:53.574Z</time></trkpt><trkpt lat="43.95741" lon="12.3880617"><ele>134.0</ele><time>2026-03-29T07:32:54.575Z</time></trkpt><trkpt lat="43.95747" lon="12.3878"><ele>134.0</ele><time>2026-03-29T07:32:55.574Z</time></trkpt><trkpt lat="43.9575317" lon="12.3875517"><ele>134.0</ele><time>2026-03-29T07:32:56.574Z</time></trkpt><trkpt lat="43.957595" lon="12.387325"><ele>134.0</ele><time>2026-03-29T07:32:57.575Z</time></trkpt><trkpt lat="43.9576517" lon="12.387115"><ele>134.0</ele><time>2026-03-29T07:32:58.575Z</time></trkpt><trkpt lat="43.9577017" lon="12.386935"><ele>134.0</ele><time>2026-03-29T07:32:59.575Z</time></trkpt><trkpt lat="43.9577517" lon="12.3867633"><ele>134.0</ele><time>2026-03-29T07:33:00.574Z</time></trkpt><trkpt lat="43.9577883" lon="12.38658"><ele>134.0</ele><time>2026-03-29T07:33:01.575Z</time></trkpt><trkpt lat="43.957825" lon="12.3864"><ele>134.0</ele><time>2026-03-29T07:33:02.575Z</time></trkpt><trkpt lat="43.957855" lon="12.3862183"><ele>134.25</ele><time>2026-03-29T07:33:03.575Z</time></trkpt><trkpt lat="43.9578717" lon="12.3860383"><ele>134.5</ele><time>2026-03-29T07:33:04.574Z</time></trkpt><trkpt lat="43.95788" lon="12.3858567"><ele>134.75</ele><time>2026-03-29T07:33:05.575Z</time></trkpt><trkpt lat="43.957885" lon="12.38568"><ele>135.0</ele><time>2026-03-29T07:33:06.575Z</time></trkpt><trkpt lat="43.9578767" lon="12.3855017"><ele>134.25</ele><time>2026-03-29T07:33:07.575Z</time></trkpt><trkpt lat="43.9578633" lon="12.3853317"><ele>133.5</ele><time>2026-03-29T07:33:08.575Z</time></trkpt><trkpt lat="43.9578417" lon="12.38516"><ele>132.75</ele><time>2026-03-29T07:33:09.575Z</time></trkpt><trkpt lat="43.9578167" lon="12.3849767"><ele>132.0</ele><time>2026-03-29T07:33:10.575Z</time></trkpt><trkpt lat="43.957785" lon="12.384785"><ele>132.66666666666666</ele><time>2026-03-29T07:33:11.574Z</time></trkpt><trkpt lat="43.9577383" lon="12.3845933"><ele>133.33333333333331</ele><time>2026-03-29T07:33:12.575Z</time></trkpt><trkpt lat="43.9576767" lon="12.3844017"><ele>134.0</ele><time>2026-03-29T07:33:13.575Z</time></trkpt><trkpt lat="43.9575967" lon="12.3841983"><ele>138.33333333333331</ele><time>2026-03-29T07:33:14.575Z</time></trkpt><trkpt lat="43.9575067" lon="12.38398"><ele>142.66666666666666</ele><time>2026-03-29T07:33:15.575Z</time></trkpt><trkpt lat="43.9574133" lon="12.3837533"><ele>147.0</ele><time>2026-03-29T07:33:16.574Z</time></trkpt><trkpt lat="43.95732" lon="12.3835033"><ele>147.0</ele><time>2026-03-29T07:33:17.574Z</time></trkpt><trkpt lat="43.9572183" lon="12.3832367"><ele>147.0</ele><time>2026-03-29T07:33:18.575Z</time></trkpt><trkpt lat="43.957115" lon="12.38297"><ele>147.0</ele><time>2026-03-29T07:33:19.574Z</time></trkpt><trkpt lat="43.9570133" lon="12.3827117"><ele>144.66666666666666</ele><time>2026-03-29T07:33:20.575Z</time></trkpt><trkpt lat="43.9569117" lon="12.382475"><ele>142.33333333333331</ele><time>2026-03-29T07:33:21.575Z</time></trkpt><trkpt lat="43.9568117" lon="12.3822417"><ele>140.0</ele><time>2026-03-29T07:33:22.574Z</time></trkpt><trkpt lat="43.956715" lon="12.382015"><ele>142.33333333333331</ele><time>2026-03-29T07:33:23.575Z</time></trkpt><trkpt lat="43.9566183" lon="12.3817767"><ele>144.66666666666666</ele><time>2026-03-29T07:33:24.575Z</time></trkpt><trkpt lat="43.95653" lon="12.3815383"><ele>147.0</ele><time>2026-03-29T07:33:25.575Z</time></trkpt><trkpt lat="43.956435" lon="12.381295"><ele>147.0</ele><time>2026-03-29T07:33:26.574Z</time></trkpt><trkpt lat="43.9563283" lon="12.381045"><ele>147.0</ele><time>2026-03-29T07:33:27.575Z</time></trkpt><trkpt lat="43.956225" lon="12.3807967"><ele>147.0</ele><time>2026-03-29T07:33:28.574Z</time></trkpt><trkpt lat="43.9561217" lon="12.3805383"><ele>144.66666666666666</ele><time>2026-03-29T07:33:29.574Z</time></trkpt><trkpt lat="43.95602" lon="12.38029"><ele>142.33333333333331</ele><time>2026-03-29T07:33:30.575Z</time></trkpt><trkpt lat="43.9559133" lon="12.38004"><ele>140.0</ele><time>2026-03-29T07:33:31.575Z</time></trkpt><trkpt lat="43.9558067" lon="12.3797983"><ele>144.33333333333331</ele><time>2026-03-29T07:33:32.574Z</time></trkpt><trkpt lat="43.95571" lon="12.37957"><ele>148.66666666666666</ele><time>2026-03-29T07:33:33.574Z</time></trkpt><trkpt lat="43.95562" lon="12.37935"><ele>153.0</ele><time>2026-03-29T07:33:34.575Z</time></trkpt><trkpt lat="43.9555267" lon="12.37913"><ele>153.0</ele><time>2026-03-29T07:33:35.574Z</time></trkpt><trkpt lat="43.9554517" lon="12.37892"><ele>153.0</ele><time>2026-03-29T07:33:36.575Z</time></trkpt><trkpt lat="43.9553617" lon="12.3787217"><ele>153.0</ele><time>2026-03-29T07:33:37.574Z</time></trkpt><trkpt lat="43.955285" lon="12.378535"><ele>152.33333333333334</ele><time>2026-03-29T07:33:38.574Z</time></trkpt><trkpt lat="43.9552067" lon="12.378345"><ele>151.66666666666669</ele><time>2026-03-29T07:33:39.575Z</time></trkpt><trkpt lat="43.9551267" lon="12.3781533"><ele>151.0</ele><time>2026-03-29T07:33:40.575Z</time></trkpt><trkpt lat="43.9550467" lon="12.3779767"><ele>153.5</ele><time>2026-03-29T07:33:41.575Z</time></trkpt><trkpt lat="43.9549783" lon="12.377795"><ele>156.0</ele><time>2026-03-29T07:33:42.574Z</time></trkpt><trkpt lat="43.954905" lon="12.377615"><ele>158.5</ele><time>2026-03-29T07:33:43.575Z</time></trkpt><trkpt lat="43.9548383" lon="12.377425"><ele>161.0</ele><time>2026-03-29T07:33:44.575Z</time></trkpt><trkpt lat="43.95476" lon="12.3772333"><ele>159.66666666666666</ele><time>2026-03-29T07:33:45.574Z</time></trkpt><trkpt lat="43.9546817" lon="12.3770383"><ele>158.33333333333334</ele><time>2026-03-29T07:33:46.574Z</time></trkpt><trkpt lat="43.9546083" lon="12.37683"><ele>157.0</ele><time>2026-03-29T07:33:47.575Z</time></trkpt><trkpt lat="43.9545317" lon="12.37661"><ele>157.0</ele><time>2026-03-29T07:33:48.575Z</time></trkpt><trkpt lat="43.954455" lon="12.3763817"><ele>157.0</ele><time>2026-03-29T07:33:49.575Z</time></trkpt><trkpt lat="43.95437" lon="12.3761517"><ele>157.0</ele><time>2026-03-29T07:33:50.575Z</time></trkpt><trkpt lat="43.954295" lon="12.37592"><ele>156.66666666666669</ele><time>2026-03-29T07:33:51.574Z</time></trkpt><trkpt lat="43.9542233" lon="12.3756867"><ele>156.33333333333334</ele><time>2026-03-29T07:33:52.574Z</time></trkpt><trkpt lat="43.9541533" lon="12.3754583"><ele>156.0</ele><time>2026-03-29T07:33:53.575Z</time></trkpt><trkpt lat="43.9540933" lon="12.375225"><ele>158.0</ele><time>2026-03-29T07:33:54.575Z</time></trkpt><trkpt lat="43.9540333" lon="12.374995"><ele>160.0</ele><time>2026-03-29T07:33:55.575Z</time></trkpt><trkpt lat="43.9539733" lon="12.3747683"><ele>162.0</ele><time>2026-03-29T07:33:56.575Z</time></trkpt><trkpt lat="43.9539117" lon="12.3745567"><ele>162.0</ele><time>2026-03-29T07:33:57.575Z</time></trkpt><trkpt lat="43.95385" lon="12.3743467"><ele>162.0</ele><time>2026-03-29T07:33:58.575Z</time></trkpt><trkpt lat="43.9537783" lon="12.37406"><ele>162.0</ele><time>2026-03-29T07:34:00.048Z</time></trkpt><trkpt lat="43.9536367" lon="12.3739783"><ele>161.66666666666666</ele><time>2026-03-29T07:34:01.074Z</time></trkpt><trkpt lat="43.95361" lon="12.3737883"><ele>161.33333333333331</ele><time>2026-03-29T07:34:02.073Z</time></trkpt><trkpt lat="43.9535433" lon="12.3735033"><ele>161.0</ele><time>2026-03-29T07:34:03.574Z</time></trkpt><trkpt lat="43.9534867" lon="12.37333"><ele>161.0</ele><time>2026-03-29T07:34:04.574Z</time></trkpt><trkpt lat="43.9534283" lon="12.373165"><ele>161.0</ele><time>2026-03-29T07:34:05.574Z</time></trkpt><trkpt lat="43.9533767" lon="12.3730017"><ele>161.0</ele><time>2026-03-29T07:34:06.574Z</time></trkpt><trkpt lat="43.9533333" lon="12.3728267"><ele>161.0</ele><time>2026-03-29T07:34:07.574Z</time></trkpt><trkpt lat="43.9532817" lon="12.3726267"><ele>162.5</ele><time>2026-03-29T07:34:08.573Z</time></trkpt><trkpt lat="43.9531867" lon="12.3721933"><ele>164.0</ele><time>2026-03-29T07:34:10.486Z</time></trkpt><trkpt lat="43.9531367" lon="12.371965"><ele>164.0</ele><time>2026-03-29T07:34:11.575Z</time></trkpt><trkpt lat="43.9531" lon="12.3717517"><ele>164.0</ele><time>2026-03-29T07:34:12.575Z</time></trkpt><trkpt lat="43.9530433" lon="12.3715333"><ele>164.0</ele><time>2026-03-29T07:34:13.574Z</time></trkpt><trkpt lat="43.9529817" lon="12.3713133"><ele>164.0</ele><time>2026-03-29T07:34:14.574Z</time></trkpt><trkpt lat="43.9529183" lon="12.3710933"><ele>164.0</ele><time>2026-03-29T07:34:15.575Z</time></trkpt><trkpt lat="43.9528517" lon="12.37087"><ele>164.0</ele><time>2026-03-29T07:34:16.575Z</time></trkpt><trkpt lat="43.9527817" lon="12.3706533"><ele>163.33333333333331</ele><time>2026-03-29T07:34:17.574Z</time></trkpt><trkpt lat="43.952715" lon="12.37044"><ele>162.66666666666666</ele><time>2026-03-29T07:34:18.575Z</time></trkpt><trkpt lat="43.9526483" lon="12.3702283"><ele>162.0</ele><time>2026-03-29T07:34:19.574Z</time></trkpt><trkpt lat="43.9525833" lon="12.3700167"><ele>163.66666666666666</ele><time>2026-03-29T07:34:20.574Z</time></trkpt><trkpt lat="43.95252" lon="12.3698083"><ele>165.33333333333331</ele><time>2026-03-29T07:34:21.574Z</time></trkpt><trkpt lat="43.9524467" lon="12.3696017"><ele>167.0</ele><time>2026-03-29T07:34:22.575Z</time></trkpt><trkpt lat="43.95237" lon="12.369395"><ele>167.0</ele><time>2026-03-29T07:34:23.575Z</time></trkpt><trkpt lat="43.952285" lon="12.3691933"><ele>167.0</ele><time>2026-03-29T07:34:24.575Z</time></trkpt><trkpt lat="43.9521867" lon="12.3689967"><ele>167.0</ele><time>2026-03-29T07:34:25.575Z</time></trkpt><trkpt lat="43.95208" lon="12.3687983"><ele>166.33333333333331</ele><time>2026-03-29T07:34:26.574Z</time></trkpt><trkpt lat="43.9519633" lon="12.3686117"><ele>165.66666666666666</ele><time>2026-03-29T07:34:27.575Z</time></trkpt><trkpt lat="43.95185" lon="12.3684283"><ele>165.0</ele><time>2026-03-29T07:34:28.575Z</time></trkpt><trkpt lat="43.951725" lon="12.3682483"><ele>166.0</ele><time>2026-03-29T07:34:29.575Z</time></trkpt><trkpt lat="43.95159" lon="12.36807"><ele>167.0</ele><time>2026-03-29T07:34:30.575Z</time></trkpt><trkpt lat="43.951445" lon="12.36789"><ele>168.0</ele><time>2026-03-29T07:34:31.575Z</time></trkpt><trkpt lat="43.9512867" lon="12.36771"><ele>165.33333333333334</ele><time>2026-03-29T07:34:32.576Z</time></trkpt><trkpt lat="43.9511267" lon="12.36753"><ele>162.66666666666669</ele><time>2026-03-29T07:34:33.576Z</time></trkpt><trkpt lat="43.9509717" lon="12.36735"><ele>160.0</ele><time>2026-03-29T07:34:34.576Z</time></trkpt><trkpt lat="43.9508133" lon="12.3671717"><ele>159.0</ele><time>2026-03-29T07:34:35.576Z</time></trkpt><trkpt lat="43.95066" lon="12.367"><ele>158.0</ele><time>2026-03-29T07:34:36.576Z</time></trkpt><trkpt lat="43.9505067" lon="12.366825"><ele>157.0</ele><time>2026-03-29T07:34:37.575Z</time></trkpt><trkpt lat="43.9503517" lon="12.3666517"><ele>157.0</ele><time>2026-03-29T07:34:38.576Z</time></trkpt><trkpt lat="43.9502" lon="12.3664767"><ele>157.0</ele><time>2026-03-29T07:34:39.576Z</time></trkpt><trkpt lat="43.9500467" lon="12.3663"><ele>157.0</ele><time>2026-03-29T07:34:40.576Z</time></trkpt><trkpt lat="43.9498917" lon="12.3661167"><ele>160.33333333333334</ele><time>2026-03-29T07:34:41.576Z</time></trkpt><trkpt lat="43.94974" lon="12.3659417"><ele>163.66666666666666</ele><time>2026-03-29T07:34:42.576Z</time></trkpt><trkpt lat="43.949585" lon="12.365765"><ele>167.0</ele><time>2026-03-29T07:34:43.575Z</time></trkpt><trkpt lat="43.9494317" lon="12.3655717"><ele>167.0</ele><time>2026-03-29T07:34:44.575Z</time></trkpt><trkpt lat="43.949285" lon="12.3653667"><ele>167.0</ele><time>2026-03-29T07:34:45.575Z</time></trkpt><trkpt lat="43.9491483" lon="12.3651433"><ele>167.0</ele><time>2026-03-29T07:34:46.576Z</time></trkpt><trkpt lat="43.9490117" lon="12.364895"><ele>165.0</ele><time>2026-03-29T07:34:47.576Z</time></trkpt><trkpt lat="43.94889" lon="12.3646383"><ele>163.0</ele><time>2026-03-29T07:34:48.575Z</time></trkpt><trkpt lat="43.94878" lon="12.3643733"><ele>161.0</ele><time>2026-03-29T07:34:49.576Z</time></trkpt><trkpt lat="43.9486783" lon="12.3641033"><ele>161.0</ele><time>2026-03-29T07:34:50.576Z</time></trkpt><trkpt lat="43.9485767" lon="12.3638333"><ele>161.0</ele><time>2026-03-29T07:34:51.576Z</time></trkpt><trkpt lat="43.9484683" lon="12.363555"><ele>161.0</ele><time>2026-03-29T07:34:52.575Z</time></trkpt><trkpt lat="43.9483583" lon="12.3632817"><ele>161.66666666666666</ele><time>2026-03-29T07:34:53.576Z</time></trkpt><trkpt lat="43.9482417" lon="12.36302"><ele>162.33333333333334</ele><time>2026-03-29T07:34:54.575Z</time></trkpt><trkpt lat="43.94811" lon="12.3627667"><ele>163.0</ele><time>2026-03-29T07:34:55.576Z</time></trkpt><trkpt lat="43.9479633" lon="12.3625317"><ele>163.0</ele><time>2026-03-29T07:34:56.576Z</time></trkpt><trkpt lat="43.9478" lon="12.3623067"><ele>163.0</ele><time>2026-03-29T07:34:57.576Z</time></trkpt><trkpt lat="43.94762" lon="12.362095"><ele>163.0</ele><time>2026-03-29T07:34:58.575Z</time></trkpt><trkpt lat="43.947435" lon="12.3618967"><ele>163.0</ele><time>2026-03-29T07:34:59.575Z</time></trkpt><trkpt lat="43.9472583" lon="12.36171"><ele>163.0</ele><time>2026-03-29T07:35:00.576Z</time></trkpt><trkpt lat="43.9470867" lon="12.361535"><ele>163.0</ele><time>2026-03-29T07:35:01.576Z</time></trkpt><trkpt lat="43.9469083" lon="12.3613567"><ele>163.0</ele><time>2026-03-29T07:35:02.576Z</time></trkpt><trkpt lat="43.9467233" lon="12.3611883"><ele>162.0</ele><time>2026-03-29T07:35:03.576Z</time></trkpt><trkpt lat="43.9465267" lon="12.3610233"><ele>161.0</ele><time>2026-03-29T07:35:04.575Z</time></trkpt><trkpt lat="43.9463217" lon="12.3608733"><ele>161.0</ele><time>2026-03-29T07:35:05.576Z</time></trkpt><trkpt lat="43.94611" lon="12.3607083"><ele>161.0</ele><time>2026-03-29T07:35:06.575Z</time></trkpt><trkpt lat="43.9459" lon="12.3605433"><ele>160.5</ele><time>2026-03-29T07:35:07.576Z</time></trkpt><trkpt lat="43.9456917" lon="12.3603717"><ele>160.0</ele><time>2026-03-29T07:35:08.576Z</time></trkpt><trkpt lat="43.9454967" lon="12.3601783"><ele>160.0</ele><time>2026-03-29T07:35:09.575Z</time></trkpt><trkpt lat="43.9453167" lon="12.359955"><ele>160.0</ele><time>2026-03-29T07:35:10.576Z</time></trkpt><trkpt lat="43.945145" lon="12.359705"><ele>160.0</ele><time>2026-03-29T07:35:11.576Z</time></trkpt><trkpt lat="43.94498" lon="12.359435"><ele>160.0</ele><time>2026-03-29T07:35:12.575Z</time></trkpt><trkpt lat="43.944805" lon="12.3591533"><ele>159.0</ele><time>2026-03-29T07:35:13.575Z</time></trkpt><trkpt lat="43.9446233" lon="12.358865"><ele>158.0</ele><time>2026-03-29T07:35:14.575Z</time></trkpt><trkpt lat="43.9444483" lon="12.358575"><ele>158.0</ele><time>2026-03-29T07:35:15.576Z</time></trkpt><trkpt lat="43.944265" lon="12.3582767"><ele>158.0</ele><time>2026-03-29T07:35:16.576Z</time></trkpt><trkpt lat="43.944085" lon="12.3579733"><ele>159.0</ele><time>2026-03-29T07:35:17.576Z</time></trkpt><trkpt lat="43.9438883" lon="12.3576617"><ele>160.0</ele><time>2026-03-29T07:35:18.576Z</time></trkpt><trkpt lat="43.9437067" lon="12.357365"><ele>160.5</ele><time>2026-03-29T07:35:19.576Z</time></trkpt><trkpt lat="43.943535" lon="12.3570867"><ele>161.0</ele><time>2026-03-29T07:35:20.576Z</time></trkpt><trkpt lat="43.9433583" lon="12.3568283"><ele>161.0</ele><time>2026-03-29T07:35:21.576Z</time></trkpt><trkpt lat="43.94317" lon="12.3565967"><ele>161.0</ele><time>2026-03-29T07:35:22.576Z</time></trkpt><trkpt lat="43.9429583" lon="12.3563683"><ele>161.0</ele><time>2026-03-29T07:35:23.576Z</time></trkpt><trkpt lat="43.9427283" lon="12.35616"><ele>161.0</ele><time>2026-03-29T07:35:24.576Z</time></trkpt><trkpt lat="43.9424883" lon="12.3559383"><ele>161.0</ele><time>2026-03-29T07:35:25.576Z</time></trkpt><trkpt lat="43.9422417" lon="12.3557067"><ele>161.0</ele><time>2026-03-29T07:35:26.576Z</time></trkpt><trkpt lat="43.941985" lon="12.3554683"><ele>161.0</ele><time>2026-03-29T07:35:27.575Z</time></trkpt><trkpt lat="43.9417283" lon="12.35523"><ele>161.0</ele><time>2026-03-29T07:35:28.576Z</time></trkpt><trkpt lat="43.9414567" lon="12.3549883"><ele>161.0</ele><time>2026-03-29T07:35:29.576Z</time></trkpt><trkpt lat="43.9411833" lon="12.3547467"><ele>161.0</ele><time>2026-03-29T07:35:30.576Z</time></trkpt><trkpt lat="43.940925" lon="12.354505"><ele>162.0</ele><time>2026-03-29T07:35:31.576Z</time></trkpt><trkpt lat="43.9406817" lon="12.3542817"><ele>163.0</ele><time>2026-03-29T07:35:32.575Z</time></trkpt><trkpt lat="43.9404517" lon="12.3540783"><ele>163.0</ele><time>2026-03-29T07:35:33.575Z</time></trkpt><trkpt lat="43.9402333" lon="12.3538817"><ele>163.0</ele><time>2026-03-29T07:35:34.576Z</time></trkpt><trkpt lat="43.940035" lon="12.3536967"><ele>164.5</ele><time>2026-03-29T07:35:35.576Z</time></trkpt><trkpt lat="43.9398433" lon="12.3535083"><ele>166.0</ele><time>2026-03-29T07:35:36.576Z</time></trkpt><trkpt lat="43.9396567" lon="12.3533183"><ele>166.0</ele><time>2026-03-29T07:35:37.576Z</time></trkpt><trkpt lat="43.9394733" lon="12.3531067"><ele>166.0</ele><time>2026-03-29T07:35:38.575Z</time></trkpt><trkpt lat="43.9392883" lon="12.3528667"><ele>168.5</ele><time>2026-03-29T07:35:39.576Z</time></trkpt><trkpt lat="43.9391117" lon="12.3526167"><ele>171.0</ele><time>2026-03-29T07:35:40.576Z</time></trkpt><trkpt lat="43.938945" lon="12.3523733"><ele>169.66666666666666</ele><time>2026-03-29T07:35:41.576Z</time></trkpt><trkpt lat="43.9387883" lon="12.3521417"><ele>168.33333333333331</ele><time>2026-03-29T07:35:42.576Z</time></trkpt><trkpt lat="43.938645" lon="12.3519183"><ele>167.0</ele><time>2026-03-29T07:35:43.576Z</time></trkpt><trkpt lat="43.9385067" lon="12.35171"><ele>170.0</ele><time>2026-03-29T07:35:44.576Z</time></trkpt><trkpt lat="43.9383817" lon="12.3515117"><ele>173.0</ele><time>2026-03-29T07:35:45.576Z</time></trkpt><trkpt lat="43.9382767" lon="12.3512817"><ele>176.0</ele><time>2026-03-29T07:35:46.575Z</time></trkpt><trkpt lat="43.9382083" lon="12.351035"><ele>176.0</ele><time>2026-03-29T07:35:47.576Z</time></trkpt><trkpt lat="43.9381833" lon="12.3507583"><ele>176.0</ele><time>2026-03-29T07:35:48.576Z</time></trkpt><trkpt lat="43.9381983" lon="12.3504733"><ele>176.0</ele><time>2026-03-29T07:35:49.575Z</time></trkpt><trkpt lat="43.9382383" lon="12.350185"><ele>177.0</ele><time>2026-03-29T07:35:50.575Z</time></trkpt><trkpt lat="43.9382717" lon="12.349885"><ele>178.0</ele><time>2026-03-29T07:35:51.575Z</time></trkpt><trkpt lat="43.9383067" lon="12.3496033"><ele>179.0</ele><time>2026-03-29T07:35:52.576Z</time></trkpt><trkpt lat="43.93834" lon="12.3493383"><ele>180.0</ele><time>2026-03-29T07:35:53.576Z</time></trkpt><trkpt lat="43.9383517" lon="12.3490817"><ele>181.0</ele><time>2026-03-29T07:35:54.576Z</time></trkpt><trkpt lat="43.93833" lon="12.348805"><ele>182.0</ele><time>2026-03-29T07:35:55.576Z</time></trkpt><trkpt lat="43.9382783" lon="12.3485267"><ele>182.0</ele><time>2026-03-29T07:35:56.576Z</time></trkpt><trkpt lat="43.9381867" lon="12.3482667"><ele>182.0</ele><time>2026-03-29T07:35:57.575Z</time></trkpt><trkpt lat="43.9380617" lon="12.3480417"><ele>182.0</ele><time>2026-03-29T07:35:58.576Z</time></trkpt><trkpt lat="43.9379017" lon="12.3478433"><ele>182.66666666666666</ele><time>2026-03-29T07:35:59.576Z</time></trkpt><trkpt lat="43.9377233" lon="12.347675"><ele>183.33333333333334</ele><time>2026-03-29T07:36:00.575Z</time></trkpt><trkpt lat="43.937545" lon="12.3475033"><ele>184.0</ele><time>2026-03-29T07:36:01.576Z</time></trkpt><trkpt lat="43.937365" lon="12.3473333"><ele>180.66666666666669</ele><time>2026-03-29T07:36:02.575Z</time></trkpt><trkpt lat="43.93719" lon="12.3471683"><ele>177.33333333333334</ele><time>2026-03-29T07:36:03.576Z</time></trkpt><trkpt lat="43.9369967" lon="12.3470217"><ele>174.0</ele><time>2026-03-29T07:36:04.576Z</time></trkpt><trkpt lat="43.9367983" lon="12.346905"><ele>177.0</ele><time>2026-03-29T07:36:05.576Z</time></trkpt><trkpt lat="43.9365883" lon="12.3468017"><ele>180.0</ele><time>2026-03-29T07:36:06.575Z</time></trkpt><trkpt lat="43.9363833" lon="12.3467017"><ele>183.0</ele><time>2026-03-29T07:36:07.575Z</time></trkpt><trkpt lat="43.93619" lon="12.3466083"><ele>183.0</ele><time>2026-03-29T07:36:08.576Z</time></trkpt><trkpt lat="43.9360083" lon="12.3465133"><ele>183.0</ele><time>2026-03-29T07:36:09.575Z</time></trkpt><trkpt lat="43.9358267" lon="12.34642"><ele>183.0</ele><time>2026-03-29T07:36:10.576Z</time></trkpt><trkpt lat="43.935645" lon="12.3463167"><ele>181.33333333333334</ele><time>2026-03-29T07:36:11.576Z</time></trkpt><trkpt lat="43.9354783" lon="12.3462083"><ele>179.66666666666669</ele><time>2026-03-29T07:36:12.575Z</time></trkpt><trkpt lat="43.9353183" lon="12.346095"><ele>178.0</ele><time>2026-03-29T07:36:13.576Z</time></trkpt><trkpt lat="43.9351683" lon="12.3459467"><ele>179.33333333333334</ele><time>2026-03-29T07:36:14.576Z</time></trkpt><trkpt lat="43.9350433" lon="12.3457483"><ele>180.66666666666666</ele><time>2026-03-29T07:36:15.576Z</time></trkpt><trkpt lat="43.9349367" lon="12.34552"><ele>182.0</ele><time>2026-03-29T07:36:16.576Z</time></trkpt><trkpt lat="43.9348367" lon="12.3453067"><ele>182.0</ele><time>2026-03-29T07:36:17.576Z</time></trkpt><trkpt lat="43.9347383" lon="12.3451067"><ele>182.0</ele><time>2026-03-29T07:36:18.575Z</time></trkpt><trkpt lat="43.9346433" lon="12.344915"><ele>182.0</ele><time>2026-03-29T07:36:19.575Z</time></trkpt><trkpt lat="43.9345667" lon="12.3447133"><ele>181.0</ele><time>2026-03-29T07:36:20.575Z</time></trkpt><trkpt lat="43.9345167" lon="12.3445033"><ele>180.0</ele><time>2026-03-29T07:36:21.576Z</time></trkpt><trkpt lat="43.9345083" lon="12.3442667"><ele>179.0</ele><time>2026-03-29T07:36:22.575Z</time></trkpt><trkpt lat="43.9345333" lon="12.3440267"><ele>179.0</ele><time>2026-03-29T07:36:23.576Z</time></trkpt><trkpt lat="43.9345817" lon="12.343815"><ele>179.0</ele><time>2026-03-29T07:36:24.576Z</time></trkpt><trkpt lat="43.9346383" lon="12.34362"><ele>179.0</ele><time>2026-03-29T07:36:25.575Z</time></trkpt><trkpt lat="43.934715" lon="12.3434583"><ele>179.0</ele><time>2026-03-29T07:36:26.576Z</time></trkpt><trkpt lat="43.934805" lon="12.3433283"><ele>179.0</ele><time>2026-03-29T07:36:27.576Z</time></trkpt><trkpt lat="43.93492" lon="12.343215"><ele>179.0</ele><time>2026-03-29T07:36:28.576Z</time></trkpt><trkpt lat="43.9350483" lon="12.3431167"><ele>179.0</ele><time>2026-03-29T07:36:29.575Z</time></trkpt><trkpt lat="43.9352083" lon="12.34302"><ele>180.0</ele><time>2026-03-29T07:36:30.575Z</time></trkpt><trkpt lat="43.9353617" lon="12.34293"><ele>181.0</ele><time>2026-03-29T07:36:31.576Z</time></trkpt><trkpt lat="43.9354967" lon="12.3428433"><ele>182.0</ele><time>2026-03-29T07:36:32.576Z</time></trkpt><trkpt lat="43.9356267" lon="12.3427633"><ele>182.0</ele><time>2026-03-29T07:36:33.575Z</time></trkpt><trkpt lat="43.9357567" lon="12.3426683"><ele>182.0</ele><time>2026-03-29T07:36:34.575Z</time></trkpt><trkpt lat="43.9358767" lon="12.342565"><ele>182.0</ele><time>2026-03-29T07:36:35.575Z</time></trkpt><trkpt lat="43.93598" lon="12.342435"><ele>182.0</ele><time>2026-03-29T07:36:36.575Z</time></trkpt><trkpt lat="43.9360833" lon="12.342255"><ele>186.0</ele><time>2026-03-29T07:36:37.575Z</time></trkpt><trkpt lat="43.93616" lon="12.3420683"><ele>190.0</ele><time>2026-03-29T07:36:38.575Z</time></trkpt><trkpt lat="43.936195" lon="12.3418283"><ele>194.0</ele><time>2026-03-29T07:36:39.576Z</time></trkpt><trkpt lat="43.9361983" lon="12.3415683"><ele>194.66666666666669</ele><time>2026-03-29T07:36:40.576Z</time></trkpt><trkpt lat="43.9361633" lon="12.3413117"><ele>195.33333333333331</ele><time>2026-03-29T07:36:41.576Z</time></trkpt><trkpt lat="43.9361017" lon="12.3410267"><ele>196.0</ele><time>2026-03-29T07:36:42.576Z</time></trkpt><trkpt lat="43.9360283" lon="12.34072"><ele>193.33333333333331</ele><time>2026-03-29T07:36:43.576Z</time></trkpt><trkpt lat="43.9359567" lon="12.3404267"><ele>190.66666666666666</ele><time>2026-03-29T07:36:44.576Z</time></trkpt><trkpt lat="43.9358933" lon="12.34015"><ele>188.0</ele><time>2026-03-29T07:36:45.575Z</time></trkpt><trkpt lat="43.93584" lon="12.3398917"><ele>187.33333333333331</ele><time>2026-03-29T07:36:46.576Z</time></trkpt><trkpt lat="43.9358" lon="12.33963"><ele>186.66666666666666</ele><time>2026-03-29T07:36:47.576Z</time></trkpt><trkpt lat="43.9357683" lon="12.3393717"><ele>186.0</ele><time>2026-03-29T07:36:48.576Z</time></trkpt><trkpt lat="43.9357733" lon="12.339105"><ele>185.66666666666666</ele><time>2026-03-29T07:36:49.576Z</time></trkpt><trkpt lat="43.93579" lon="12.3388283"><ele>185.33333333333331</ele><time>2026-03-29T07:36:50.576Z</time></trkpt><trkpt lat="43.9358117" lon="12.3385533"><ele>185.0</ele><time>2026-03-29T07:36:51.576Z</time></trkpt><trkpt lat="43.9358167" lon="12.338285"><ele>186.33333333333331</ele><time>2026-03-29T07:36:52.575Z</time></trkpt><trkpt lat="43.9358067" lon="12.338015"><ele>187.66666666666666</ele><time>2026-03-29T07:36:53.576Z</time></trkpt><trkpt lat="43.9357667" lon="12.3377433"><ele>189.0</ele><time>2026-03-29T07:36:54.575Z</time></trkpt><trkpt lat="43.9357" lon="12.3374633"><ele>191.33333333333331</ele><time>2026-03-29T07:36:55.576Z</time></trkpt><trkpt lat="43.9355967" lon="12.3372"><ele>193.66666666666666</ele><time>2026-03-29T07:36:56.576Z</time></trkpt><trkpt lat="43.9354483" lon="12.33696"><ele>196.0</ele><time>2026-03-29T07:36:57.575Z</time></trkpt><trkpt lat="43.9352833" lon="12.3367183"><ele>196.0</ele><time>2026-03-29T07:36:58.576Z</time></trkpt><trkpt lat="43.93511" lon="12.3364717"><ele>196.0</ele><time>2026-03-29T07:36:59.576Z</time></trkpt><trkpt lat="43.9349267" lon="12.3362217"><ele>191.0</ele><time>2026-03-29T07:37:00.575Z</time></trkpt><trkpt lat="43.934745" lon="12.3359633"><ele>186.0</ele><time>2026-03-29T07:37:01.575Z</time></trkpt><trkpt lat="43.934565" lon="12.3356967"><ele>186.5</ele><time>2026-03-29T07:37:02.575Z</time></trkpt><trkpt lat="43.9343767" lon="12.3354283"><ele>187.0</ele><time>2026-03-29T07:37:03.575Z</time></trkpt><trkpt lat="43.9341967" lon="12.335165"><ele>184.5</ele><time>2026-03-29T07:37:04.576Z</time></trkpt><trkpt lat="43.9340183" lon="12.334905"><ele>182.0</ele><time>2026-03-29T07:37:05.576Z</time></trkpt><trkpt lat="43.9338417" lon="12.3346433"><ele>182.0</ele><time>2026-03-29T07:37:06.576Z</time></trkpt><trkpt lat="43.9336733" lon="12.334385"><ele>182.0</ele><time>2026-03-29T07:37:07.576Z</time></trkpt><trkpt lat="43.9335067" lon="12.3341283"><ele>184.0</ele><time>2026-03-29T07:37:08.576Z</time></trkpt><trkpt lat="43.9333383" lon="12.3338717"><ele>186.0</ele><time>2026-03-29T07:37:09.576Z</time></trkpt><trkpt lat="43.9331617" lon="12.3336183"><ele>186.0</ele><time>2026-03-29T07:37:10.576Z</time></trkpt><trkpt lat="43.932985" lon="12.333355"><ele>186.0</ele><time>2026-03-29T07:37:11.576Z</time></trkpt><trkpt lat="43.932805" lon="12.3331067"><ele>185.5</ele><time>2026-03-29T07:37:12.575Z</time></trkpt><trkpt lat="43.9326317" lon="12.33288"><ele>185.0</ele><time>2026-03-29T07:37:13.576Z</time></trkpt><trkpt lat="43.93247" lon="12.332665"><ele>184.33333333333331</ele><time>2026-03-29T07:37:14.576Z</time></trkpt><trkpt lat="43.9323167" lon="12.3324617"><ele>183.66666666666666</ele><time>2026-03-29T07:37:15.576Z</time></trkpt><trkpt lat="43.93218" lon="12.33227"><ele>183.0</ele><time>2026-03-29T07:37:16.575Z</time></trkpt><trkpt lat="43.932055" lon="12.3320767"><ele>183.0</ele><time>2026-03-29T07:37:17.576Z</time></trkpt><trkpt lat="43.9319417" lon="12.3318883"><ele>183.0</ele><time>2026-03-29T07:37:18.576Z</time></trkpt><trkpt lat="43.9318417" lon="12.3316883"><ele>183.0</ele><time>2026-03-29T07:37:19.575Z</time></trkpt><trkpt lat="43.9317667" lon="12.3314567"><ele>184.33333333333334</ele><time>2026-03-29T07:37:20.575Z</time></trkpt><trkpt lat="43.9317067" lon="12.3311917"><ele>185.66666666666669</ele><time>2026-03-29T07:37:21.576Z</time></trkpt><trkpt lat="43.9316517" lon="12.3308883"><ele>187.0</ele><time>2026-03-29T07:37:22.576Z</time></trkpt><trkpt lat="43.9316033" lon="12.3305583"><ele>189.5</ele><time>2026-03-29T07:37:23.576Z</time></trkpt><trkpt lat="43.9315533" lon="12.330225"><ele>192.0</ele><time>2026-03-29T07:37:24.576Z</time></trkpt><trkpt lat="43.9315083" lon="12.3298933"><ele>193.0</ele><time>2026-03-29T07:37:25.576Z</time></trkpt><trkpt lat="43.9314483" lon="12.3295817"><ele>194.0</ele><time>2026-03-29T07:37:26.576Z</time></trkpt><trkpt lat="43.93139" lon="12.3292583"><ele>194.0</ele><time>2026-03-29T07:37:27.576Z</time></trkpt><trkpt lat="43.931335" lon="12.3289333"><ele>194.0</ele><time>2026-03-29T07:37:28.576Z</time></trkpt><trkpt lat="43.9312833" lon="12.3286167"><ele>194.33333333333334</ele><time>2026-03-29T07:37:29.575Z</time></trkpt><trkpt lat="43.9312317" lon="12.32831"><ele>194.66666666666669</ele><time>2026-03-29T07:37:30.575Z</time></trkpt><trkpt lat="43.93118" lon="12.3280283"><ele>195.0</ele><time>2026-03-29T07:37:31.576Z</time></trkpt><trkpt lat="43.9311367" lon="12.32777"><ele>195.33333333333331</ele><time>2026-03-29T07:37:32.575Z</time></trkpt><trkpt lat="43.93109" lon="12.3275117"><ele>195.66666666666666</ele><time>2026-03-29T07:37:33.576Z</time></trkpt><trkpt lat="43.9310433" lon="12.3272533"><ele>196.0</ele><time>2026-03-29T07:37:34.576Z</time></trkpt><trkpt lat="43.9309967" lon="12.3270017"><ele>196.0</ele><time>2026-03-29T07:37:35.576Z</time></trkpt><trkpt lat="43.930945" lon="12.32678"><ele>196.0</ele><time>2026-03-29T07:37:36.576Z</time></trkpt><trkpt lat="43.9308717" lon="12.32656"><ele>196.0</ele><time>2026-03-29T07:37:37.576Z</time></trkpt><trkpt lat="43.9307917" lon="12.3263367"><ele>197.0</ele><time>2026-03-29T07:37:38.576Z</time></trkpt><trkpt lat="43.930695" lon="12.3261267"><ele>198.0</ele><time>2026-03-29T07:37:39.575Z</time></trkpt><trkpt lat="43.9305833" lon="12.3259167"><ele>199.0</ele><time>2026-03-29T07:37:40.576Z</time></trkpt><trkpt lat="43.93047" lon="12.325705"><ele>199.66666666666666</ele><time>2026-03-29T07:37:41.576Z</time></trkpt><trkpt lat="43.9303533" lon="12.3254917"><ele>200.33333333333331</ele><time>2026-03-29T07:37:42.575Z</time></trkpt><trkpt lat="43.9302367" lon="12.3252783"><ele>201.0</ele><time>2026-03-29T07:37:43.576Z</time></trkpt><trkpt lat="43.9301217" lon="12.3250733"><ele>201.0</ele><time>2026-03-29T07:37:44.576Z</time></trkpt><trkpt lat="43.9299917" lon="12.3248783"><ele>201.0</ele><time>2026-03-29T07:37:45.575Z</time></trkpt><trkpt lat="43.9298517" lon="12.3246867"><ele>201.0</ele><time>2026-03-29T07:37:46.576Z</time></trkpt><trkpt lat="43.9297167" lon="12.3245117"><ele>201.0</ele><time>2026-03-29T07:37:47.575Z</time></trkpt><trkpt lat="43.92957" lon="12.3243267"><ele>201.0</ele><time>2026-03-29T07:37:48.576Z</time></trkpt><trkpt lat="43.92943" lon="12.32414"><ele>201.0</ele><time>2026-03-29T07:37:49.576Z</time></trkpt><trkpt lat="43.92929" lon="12.3239733"><ele>201.66666666666669</ele><time>2026-03-29T07:37:50.576Z</time></trkpt><trkpt lat="43.9291567" lon="12.3238167"><ele>202.33333333333334</ele><time>2026-03-29T07:37:51.575Z</time></trkpt><trkpt lat="43.9290367" lon="12.3236767"><ele>203.0</ele><time>2026-03-29T07:37:52.575Z</time></trkpt><trkpt lat="43.9289233" lon="12.3235333"><ele>203.0</ele><time>2026-03-29T07:37:53.575Z</time></trkpt><trkpt lat="43.928825" lon="12.3234067"><ele>203.0</ele><time>2026-03-29T07:37:54.576Z</time></trkpt><trkpt lat="43.92876" lon="12.323265"><ele>203.0</ele><time>2026-03-29T07:37:55.576Z</time></trkpt><trkpt lat="43.9286917" lon="12.3231317"><ele>203.0</ele><time>2026-03-29T07:37:56.575Z</time></trkpt><trkpt lat="43.9285983" lon="12.3230317"><ele>202.75</ele><time>2026-03-29T07:37:57.576Z</time></trkpt><trkpt lat="43.928485" lon="12.32296"><ele>202.5</ele><time>2026-03-29T07:37:58.576Z</time></trkpt><trkpt lat="43.9283633" lon="12.3228617"><ele>202.25</ele><time>2026-03-29T07:37:59.575Z</time></trkpt><trkpt lat="43.9282433" lon="12.3227317"><ele>202.0</ele><time>2026-03-29T07:38:00.576Z</time></trkpt><trkpt lat="43.9281083" lon="12.3225783"><ele>202.0</ele><time>2026-03-29T07:38:01.575Z</time></trkpt><trkpt lat="43.927975" lon="12.32242"><ele>202.0</ele><time>2026-03-29T07:38:02.576Z</time></trkpt><trkpt lat="43.9278417" lon="12.32225"><ele>202.0</ele><time>2026-03-29T07:38:03.576Z</time></trkpt><trkpt lat="43.9277183" lon="12.3220967"><ele>202.66666666666666</ele><time>2026-03-29T07:38:04.576Z</time></trkpt><trkpt lat="43.9276033" lon="12.321935"><ele>203.33333333333331</ele><time>2026-03-29T07:38:05.575Z</time></trkpt><trkpt lat="43.9274933" lon="12.321775"><ele>204.0</ele><time>2026-03-29T07:38:06.575Z</time></trkpt><trkpt lat="43.9273917" lon="12.32162"><ele>204.5</ele><time>2026-03-29T07:38:07.576Z</time></trkpt><trkpt lat="43.9273083" lon="12.3214733"><ele>205.0</ele><time>2026-03-29T07:38:08.576Z</time></trkpt><trkpt lat="43.9272267" lon="12.3213267"><ele>205.5</ele><time>2026-03-29T07:38:09.576Z</time></trkpt><trkpt lat="43.9271467" lon="12.321185"><ele>206.0</ele><time>2026-03-29T07:38:10.576Z</time></trkpt><trkpt lat="43.927065" lon="12.3210483"><ele>206.5</ele><time>2026-03-29T07:38:11.576Z</time></trkpt><trkpt lat="43.9269917" lon="12.3209183"><ele>207.0</ele><time>2026-03-29T07:38:12.576Z</time></trkpt><trkpt lat="43.9269183" lon="12.320785"><ele>207.5</ele><time>2026-03-29T07:38:13.575Z</time></trkpt><trkpt lat="43.92684" lon="12.3206567"><ele>208.0</ele><time>2026-03-29T07:38:14.575Z</time></trkpt><trkpt lat="43.92676" lon="12.3205233"><ele>208.75</ele><time>2026-03-29T07:38:15.575Z</time></trkpt><trkpt lat="43.926685" lon="12.320395"><ele>209.5</ele><time>2026-03-29T07:38:16.576Z</time></trkpt><trkpt lat="43.9266133" lon="12.32027"><ele>210.25</ele><time>2026-03-29T07:38:17.576Z</time></trkpt><trkpt lat="43.92654" lon="12.3201483"><ele>211.0</ele><time>2026-03-29T07:38:18.576Z</time></trkpt><trkpt lat="43.9264617" lon="12.3200133"><ele>211.0</ele><time>2026-03-29T07:38:19.576Z</time></trkpt><trkpt lat="43.9263717" lon="12.3198733"><ele>211.0</ele><time>2026-03-29T07:38:20.576Z</time></trkpt><trkpt lat="43.926285" lon="12.3197133"><ele>211.0</ele><time>2026-03-29T07:38:21.576Z</time></trkpt><trkpt lat="43.9261933" lon="12.319555"><ele>211.0</ele><time>2026-03-29T07:38:22.576Z</time></trkpt><trkpt lat="43.9261" lon="12.3193883"><ele>211.33333333333331</ele><time>2026-03-29T07:38:23.575Z</time></trkpt><trkpt lat="43.9260067" lon="12.319225"><ele>211.66666666666669</ele><time>2026-03-29T07:38:24.576Z</time></trkpt><trkpt lat="43.9259183" lon="12.3190517"><ele>212.0</ele><time>2026-03-29T07:38:25.576Z</time></trkpt><trkpt lat="43.9258233" lon="12.318875"><ele>212.0</ele><time>2026-03-29T07:38:26.576Z</time></trkpt><trkpt lat="43.9257217" lon="12.3187067"><ele>212.0</ele><time>2026-03-29T07:38:27.576Z</time></trkpt><trkpt lat="43.9256217" lon="12.318545"><ele>212.0</ele><time>2026-03-29T07:38:28.576Z</time></trkpt><trkpt lat="43.92552" lon="12.3183817"><ele>212.0</ele><time>2026-03-29T07:38:29.576Z</time></trkpt><trkpt lat="43.9253967" lon="12.3182533"><ele>212.0</ele><time>2026-03-29T07:38:30.575Z</time></trkpt><trkpt lat="43.9252583" lon="12.3181483"><ele>212.0</ele><time>2026-03-29T07:38:31.576Z</time></trkpt><trkpt lat="43.9251083" lon="12.318065"><ele>212.75</ele><time>2026-03-29T07:38:32.576Z</time></trkpt><trkpt lat="43.9249667" lon="12.3179983"><ele>213.5</ele><time>2026-03-29T07:38:33.575Z</time></trkpt><trkpt lat="43.9248333" lon="12.317935"><ele>214.25</ele><time>2026-03-29T07:38:34.575Z</time></trkpt><trkpt lat="43.9247033" lon="12.3178533"><ele>215.0</ele><time>2026-03-29T07:38:35.576Z</time></trkpt><trkpt lat="43.9245783" lon="12.317775"><ele>215.0</ele><time>2026-03-29T07:38:36.576Z</time></trkpt><trkpt lat="43.924455" lon="12.3176883"><ele>215.0</ele><time>2026-03-29T07:38:37.575Z</time></trkpt><trkpt lat="43.92434" lon="12.3175883"><ele>215.0</ele><time>2026-03-29T07:38:38.576Z</time></trkpt><trkpt lat="43.92423" lon="12.3174733"><ele>215.0</ele><time>2026-03-29T07:38:39.575Z</time></trkpt><trkpt lat="43.9241267" lon="12.3173633"><ele>214.5</ele><time>2026-03-29T07:38:40.575Z</time></trkpt><trkpt lat="43.9240333" lon="12.3172483"><ele>214.0</ele><time>2026-03-29T07:38:41.576Z</time></trkpt><trkpt lat="43.9239417" lon="12.3171333"><ele>213.5</ele><time>2026-03-29T07:38:42.576Z</time></trkpt><trkpt lat="43.9238517" lon="12.3170067"><ele>213.0</ele><time>2026-03-29T07:38:43.576Z</time></trkpt><trkpt lat="43.923755" lon="12.3168783"><ele>213.0</ele><time>2026-03-29T07:38:44.575Z</time></trkpt><trkpt lat="43.9236567" lon="12.316755"><ele>213.0</ele><time>2026-03-29T07:38:45.576Z</time></trkpt><trkpt lat="43.9235667" lon="12.3166317"><ele>213.0</ele><time>2026-03-29T07:38:46.576Z</time></trkpt><trkpt lat="43.9234733" lon="12.3165"><ele>213.0</ele><time>2026-03-29T07:38:47.576Z</time></trkpt><trkpt lat="43.9233817" lon="12.3163683"><ele>214.0</ele><time>2026-03-29T07:38:48.576Z</time></trkpt><trkpt lat="43.923295" lon="12.316225"><ele>215.0</ele><time>2026-03-29T07:38:49.576Z</time></trkpt><trkpt lat="43.9232117" lon="12.31607"><ele>216.0</ele><time>2026-03-29T07:38:50.576Z</time></trkpt><trkpt lat="43.9231483" lon="12.3158933"><ele>217.0</ele><time>2026-03-29T07:38:51.575Z</time></trkpt><trkpt lat="43.9231017" lon="12.315715"><ele>217.0</ele><time>2026-03-29T07:38:52.576Z</time></trkpt><trkpt lat="43.923055" lon="12.315535"><ele>217.0</ele><time>2026-03-29T07:38:53.575Z</time></trkpt><trkpt lat="43.92301" lon="12.31536"><ele>217.0</ele><time>2026-03-29T07:38:54.575Z</time></trkpt><trkpt lat="43.9229483" lon="12.315195"><ele>217.0</ele><time>2026-03-29T07:38:55.576Z</time></trkpt><trkpt lat="43.92288" lon="12.3150383"><ele>217.0</ele><time>2026-03-29T07:38:56.576Z</time></trkpt><trkpt lat="43.9227933" lon="12.3148733"><ele>217.0</ele><time>2026-03-29T07:38:57.576Z</time></trkpt><trkpt lat="43.922705" lon="12.31471"><ele>217.0</ele><time>2026-03-29T07:38:58.576Z</time></trkpt><trkpt lat="43.9226167" lon="12.314545"><ele>217.0</ele><time>2026-03-29T07:38:59.576Z</time></trkpt><trkpt lat="43.9225167" lon="12.3143917"><ele>216.0</ele><time>2026-03-29T07:39:00.575Z</time></trkpt><trkpt lat="43.9224267" lon="12.3142417"><ele>215.0</ele><time>2026-03-29T07:39:01.576Z</time></trkpt><trkpt lat="43.92234" lon="12.314085"><ele>214.0</ele><time>2026-03-29T07:39:02.576Z</time></trkpt><trkpt lat="43.9222433" lon="12.3139267"><ele>213.0</ele><time>2026-03-29T07:39:03.576Z</time></trkpt><trkpt lat="43.922145" lon="12.3137667"><ele>213.0</ele><time>2026-03-29T07:39:04.575Z</time></trkpt><trkpt lat="43.92205" lon="12.3136067"><ele>213.0</ele><time>2026-03-29T07:39:05.576Z</time></trkpt><trkpt lat="43.9219433" lon="12.313455"><ele>213.0</ele><time>2026-03-29T07:39:06.576Z</time></trkpt><trkpt lat="43.92184" lon="12.3132933"><ele>211.33333333333331</ele><time>2026-03-29T07:39:07.576Z</time></trkpt><trkpt lat="43.92173" lon="12.31315"><ele>209.66666666666666</ele><time>2026-03-29T07:39:08.575Z</time></trkpt><trkpt lat="43.9216067" lon="12.31302"><ele>208.0</ele><time>2026-03-29T07:39:09.575Z</time></trkpt><trkpt lat="43.9214817" lon="12.312895"><ele>208.0</ele><time>2026-03-29T07:39:10.575Z</time></trkpt><trkpt lat="43.9213483" lon="12.3127667"><ele>208.0</ele><time>2026-03-29T07:39:11.576Z</time></trkpt><trkpt lat="43.9212167" lon="12.3126483"><ele>208.0</ele><time>2026-03-29T07:39:12.576Z</time></trkpt><trkpt lat="43.9210883" lon="12.3125317"><ele>208.0</ele><time>2026-03-29T07:39:13.576Z</time></trkpt><trkpt lat="43.92097" lon="12.31242"><ele>208.0</ele><time>2026-03-29T07:39:14.576Z</time></trkpt><trkpt lat="43.92085" lon="12.31231"><ele>208.0</ele><time>2026-03-29T07:39:15.576Z</time></trkpt><trkpt lat="43.9207283" lon="12.31221"><ele>208.0</ele><time>2026-03-29T07:39:16.576Z</time></trkpt><trkpt lat="43.9206083" lon="12.3120967"><ele>210.25</ele><time>2026-03-29T07:39:17.576Z</time></trkpt><trkpt lat="43.9204967" lon="12.3119833"><ele>212.5</ele><time>2026-03-29T07:39:18.576Z</time></trkpt><trkpt lat="43.9203817" lon="12.31187"><ele>214.75</ele><time>2026-03-29T07:39:19.575Z</time></trkpt><trkpt lat="43.9202667" lon="12.3117567"><ele>217.0</ele><time>2026-03-29T07:39:20.576Z</time></trkpt><trkpt lat="43.9201567" lon="12.31164"><ele>217.25</ele><time>2026-03-29T07:39:21.577Z</time></trkpt><trkpt lat="43.9200617" lon="12.311505"><ele>217.5</ele><time>2026-03-29T07:39:22.576Z</time></trkpt><trkpt lat="43.91998" lon="12.3113483"><ele>217.75</ele><time>2026-03-29T07:39:23.577Z</time></trkpt><trkpt lat="43.919905" lon="12.3111833"><ele>218.0</ele><time>2026-03-29T07:39:24.577Z</time></trkpt><trkpt lat="43.9198383" lon="12.3109933"><ele>218.0</ele><time>2026-03-29T07:39:25.577Z</time></trkpt><trkpt lat="43.919765" lon="12.3107867"><ele>218.0</ele><time>2026-03-29T07:39:26.577Z</time></trkpt><trkpt lat="43.9196733" lon="12.310585"><ele>218.0</ele><time>2026-03-29T07:39:27.576Z</time></trkpt><trkpt lat="43.9195433" lon="12.3103683"><ele>220.0</ele><time>2026-03-29T07:39:28.576Z</time></trkpt><trkpt lat="43.9194067" lon="12.3101467"><ele>222.0</ele><time>2026-03-29T07:39:29.576Z</time></trkpt><trkpt lat="43.9192633" lon="12.309925"><ele>224.0</ele><time>2026-03-29T07:39:30.577Z</time></trkpt><trkpt lat="43.9191067" lon="12.309725"><ele>224.0</ele><time>2026-03-29T07:39:31.577Z</time></trkpt><trkpt lat="43.9189733" lon="12.3095283"><ele>224.0</ele><time>2026-03-29T07:39:32.577Z</time></trkpt><trkpt lat="43.91885" lon="12.3093483"><ele>224.0</ele><time>2026-03-29T07:39:33.577Z</time></trkpt><trkpt lat="43.9187283" lon="12.309185"><ele>224.0</ele><time>2026-03-29T07:39:34.577Z</time></trkpt><trkpt lat="43.91861" lon="12.3090367"><ele>224.0</ele><time>2026-03-29T07:39:35.577Z</time></trkpt><trkpt lat="43.9185117" lon="12.3088867"><ele>224.0</ele><time>2026-03-29T07:39:36.576Z</time></trkpt><trkpt lat="43.9184033" lon="12.3087333"><ele>224.66666666666669</ele><time>2026-03-29T07:39:37.576Z</time></trkpt><trkpt lat="43.91828" lon="12.3085667"><ele>225.33333333333331</ele><time>2026-03-29T07:39:38.577Z</time></trkpt><trkpt lat="43.9181533" lon="12.308385"><ele>226.0</ele><time>2026-03-29T07:39:39.577Z</time></trkpt><trkpt lat="43.9180217" lon="12.3081933"><ele>227.0</ele><time>2026-03-29T07:39:40.577Z</time></trkpt><trkpt lat="43.917885" lon="12.308"><ele>228.0</ele><time>2026-03-29T07:39:41.577Z</time></trkpt><trkpt lat="43.9177533" lon="12.3078233"><ele>229.0</ele><time>2026-03-29T07:39:42.576Z</time></trkpt><trkpt lat="43.9176317" lon="12.3076467"><ele>229.33333333333331</ele><time>2026-03-29T07:39:43.577Z</time></trkpt><trkpt lat="43.91751" lon="12.3074733"><ele>229.66666666666669</ele><time>2026-03-29T07:39:44.577Z</time></trkpt><trkpt lat="43.91738" lon="12.3073017"><ele>230.0</ele><time>2026-03-29T07:39:45.576Z</time></trkpt><trkpt lat="43.9172667" lon="12.3071333"><ele>230.0</ele><time>2026-03-29T07:39:46.577Z</time></trkpt><trkpt lat="43.91715" lon="12.3069733"><ele>230.0</ele><time>2026-03-29T07:39:47.577Z</time></trkpt><trkpt lat="43.9170333" lon="12.3068183"><ele>230.0</ele><time>2026-03-29T07:39:48.576Z</time></trkpt><trkpt lat="43.9169183" lon="12.3066617"><ele>230.0</ele><time>2026-03-29T07:39:49.577Z</time></trkpt><trkpt lat="43.916795" lon="12.3065067"><ele>230.0</ele><time>2026-03-29T07:39:50.577Z</time></trkpt><trkpt lat="43.9166717" lon="12.30636"><ele>230.0</ele><time>2026-03-29T07:39:51.576Z</time></trkpt><trkpt lat="43.916525" lon="12.306235"><ele>231.33333333333334</ele><time>2026-03-29T07:39:52.577Z</time></trkpt><trkpt lat="43.9163483" lon="12.3061367"><ele>232.66666666666669</ele><time>2026-03-29T07:39:53.577Z</time></trkpt><trkpt lat="43.9161583" lon="12.306055"><ele>234.0</ele><time>2026-03-29T07:39:54.577Z</time></trkpt><trkpt lat="43.9159533" lon="12.3059933"><ele>233.33333333333331</ele><time>2026-03-29T07:39:55.577Z</time></trkpt><trkpt lat="43.9157467" lon="12.3059183"><ele>232.66666666666666</ele><time>2026-03-29T07:39:56.577Z</time></trkpt><trkpt lat="43.91554" lon="12.3058233"><ele>232.0</ele><time>2026-03-29T07:39:57.577Z</time></trkpt><trkpt lat="43.9153333" lon="12.305725"><ele>232.0</ele><time>2026-03-29T07:39:58.577Z</time></trkpt><trkpt lat="43.9151117" lon="12.3056217"><ele>232.0</ele><time>2026-03-29T07:39:59.577Z</time></trkpt><trkpt lat="43.9148767" lon="12.3055"><ele>232.0</ele><time>2026-03-29T07:40:00.577Z</time></trkpt><trkpt lat="43.9146383" lon="12.3053783"><ele>232.0</ele><time>2026-03-29T07:40:01.577Z</time></trkpt><trkpt lat="43.9144067" lon="12.3052533"><ele>231.5</ele><time>2026-03-29T07:40:02.576Z</time></trkpt><trkpt lat="43.9141917" lon="12.30514"><ele>231.0</ele><time>2026-03-29T07:40:03.577Z</time></trkpt><trkpt lat="43.9139833" lon="12.3050317"><ele>231.0</ele><time>2026-03-29T07:40:04.576Z</time></trkpt><trkpt lat="43.91378" lon="12.304925"><ele>231.0</ele><time>2026-03-29T07:40:05.577Z</time></trkpt><trkpt lat="43.9135783" lon="12.3048217"><ele>231.0</ele><time>2026-03-29T07:40:06.576Z</time></trkpt><trkpt lat="43.9133733" lon="12.30472"><ele>230.0</ele><time>2026-03-29T07:40:07.577Z</time></trkpt><trkpt lat="43.9131717" lon="12.3046167"><ele>229.0</ele><time>2026-03-29T07:40:08.576Z</time></trkpt><trkpt lat="43.9129733" lon="12.3045083"><ele>228.0</ele><time>2026-03-29T07:40:09.577Z</time></trkpt><trkpt lat="43.9127767" lon="12.304395"><ele>228.0</ele><time>2026-03-29T07:40:10.577Z</time></trkpt><trkpt lat="43.9125783" lon="12.304295"><ele>228.0</ele><time>2026-03-29T07:40:11.577Z</time></trkpt><trkpt lat="43.9123717" lon="12.3042267"><ele>228.0</ele><time>2026-03-29T07:40:12.576Z</time></trkpt><trkpt lat="43.9121533" lon="12.3041867"><ele>229.0</ele><time>2026-03-29T07:40:13.576Z</time></trkpt><trkpt lat="43.9119317" lon="12.3041617"><ele>230.0</ele><time>2026-03-29T07:40:14.577Z</time></trkpt><trkpt lat="43.9117083" lon="12.30414"><ele>231.0</ele><time>2026-03-29T07:40:15.577Z</time></trkpt><trkpt lat="43.9115" lon="12.3041133"><ele>231.0</ele><time>2026-03-29T07:40:16.576Z</time></trkpt><trkpt lat="43.911305" lon="12.304085"><ele>231.0</ele><time>2026-03-29T07:40:17.576Z</time></trkpt><trkpt lat="43.9111283" lon="12.3040433"><ele>231.0</ele><time>2026-03-29T07:40:18.577Z</time></trkpt><trkpt lat="43.9109617" lon="12.30399"><ele>234.33333333333331</ele><time>2026-03-29T07:40:19.577Z</time></trkpt><trkpt lat="43.9108133" lon="12.3039"><ele>237.66666666666666</ele><time>2026-03-29T07:40:20.576Z</time></trkpt><trkpt lat="43.9106633" lon="12.3037767"><ele>241.0</ele><time>2026-03-29T07:40:21.577Z</time></trkpt><trkpt lat="43.9105167" lon="12.3036183"><ele>241.0</ele><time>2026-03-29T07:40:22.576Z</time></trkpt><trkpt lat="43.9103733" lon="12.3034567"><ele>241.0</ele><time>2026-03-29T07:40:23.577Z</time></trkpt><trkpt lat="43.9102533" lon="12.303295"><ele>241.0</ele><time>2026-03-29T07:40:24.577Z</time></trkpt><trkpt lat="43.9101617" lon="12.3031717"><ele>242.0</ele><time>2026-03-29T07:40:25.577Z</time></trkpt><trkpt lat="43.9100933" lon="12.3030433"><ele>243.0</ele><time>2026-03-29T07:40:26.576Z</time></trkpt><trkpt lat="43.9100517" lon="12.3029133"><ele>244.0</ele><time>2026-03-29T07:40:27.577Z</time></trkpt><trkpt lat="43.91004" lon="12.3027533"><ele>245.0</ele><time>2026-03-29T07:40:28.576Z</time></trkpt><trkpt lat="43.9100733" lon="12.30259"><ele>245.0</ele><time>2026-03-29T07:40:29.577Z</time></trkpt><trkpt lat="43.91015" lon="12.3024183"><ele>245.0</ele><time>2026-03-29T07:40:30.577Z</time></trkpt><trkpt lat="43.9102217" lon="12.3022217"><ele>245.0</ele><time>2026-03-29T07:40:31.576Z</time></trkpt><trkpt lat="43.9102667" lon="12.30198"><ele>246.33333333333334</ele><time>2026-03-29T07:40:32.576Z</time></trkpt><trkpt lat="43.9103" lon="12.3017083"><ele>247.66666666666669</ele><time>2026-03-29T07:40:33.576Z</time></trkpt><trkpt lat="43.9103533" lon="12.3014167"><ele>249.0</ele><time>2026-03-29T07:40:34.577Z</time></trkpt><trkpt lat="43.910415" lon="12.3011217"><ele>249.0</ele><time>2026-03-29T07:40:35.577Z</time></trkpt><trkpt lat="43.9104767" lon="12.3007933"><ele>249.0</ele><time>2026-03-29T07:40:36.577Z</time></trkpt><trkpt lat="43.9105283" lon="12.3004533"><ele>247.5</ele><time>2026-03-29T07:40:37.577Z</time></trkpt><trkpt lat="43.9105633" lon="12.3001333"><ele>246.0</ele><time>2026-03-29T07:40:38.577Z</time></trkpt><trkpt lat="43.9105883" lon="12.2998283"><ele>246.0</ele><time>2026-03-29T07:40:39.577Z</time></trkpt><trkpt lat="43.910585" lon="12.29954"><ele>246.0</ele><time>2026-03-29T07:40:40.576Z</time></trkpt><trkpt lat="43.9105783" lon="12.2992733"><ele>246.0</ele><time>2026-03-29T07:40:41.577Z</time></trkpt><trkpt lat="43.9105617" lon="12.29903"><ele>246.66666666666669</ele><time>2026-03-29T07:40:42.577Z</time></trkpt><trkpt lat="43.9105233" lon="12.2988117"><ele>247.33333333333334</ele><time>2026-03-29T07:40:43.577Z</time></trkpt><trkpt lat="43.9104383" lon="12.298615"><ele>248.0</ele><time>2026-03-29T07:40:44.577Z</time></trkpt><trkpt lat="43.910305" lon="12.298455"><ele>248.0</ele><time>2026-03-29T07:40:45.577Z</time></trkpt><trkpt lat="43.91014" lon="12.2983133"><ele>248.0</ele><time>2026-03-29T07:40:46.576Z</time></trkpt><trkpt lat="43.909975" lon="12.2981867"><ele>248.0</ele><time>2026-03-29T07:40:47.576Z</time></trkpt><trkpt lat="43.90982" lon="12.2980667"><ele>247.33333333333334</ele><time>2026-03-29T07:40:48.577Z</time></trkpt><trkpt lat="43.9096833" lon="12.297925"><ele>246.66666666666669</ele><time>2026-03-29T07:40:49.577Z</time></trkpt><trkpt lat="43.9095567" lon="12.2977617"><ele>246.0</ele><time>2026-03-29T07:40:50.576Z</time></trkpt><trkpt lat="43.90944" lon="12.2975683"><ele>246.0</ele><time>2026-03-29T07:40:51.577Z</time></trkpt><trkpt lat="43.909335" lon="12.29737"><ele>246.0</ele><time>2026-03-29T07:40:52.577Z</time></trkpt><trkpt lat="43.9092433" lon="12.2971917"><ele>246.0</ele><time>2026-03-29T07:40:53.576Z</time></trkpt><trkpt lat="43.9091617" lon="12.2970117"><ele>245.0</ele><time>2026-03-29T07:40:54.577Z</time></trkpt><trkpt lat="43.9091" lon="12.296825"><ele>244.0</ele><time>2026-03-29T07:40:55.577Z</time></trkpt><trkpt lat="43.9090617" lon="12.2966283"><ele>243.0</ele><time>2026-03-29T07:40:56.577Z</time></trkpt><trkpt lat="43.9090317" lon="12.2964717"><ele>242.0</ele><time>2026-03-29T07:40:57.577Z</time></trkpt><trkpt lat="43.909005" lon="12.2963417"><ele>242.0</ele><time>2026-03-29T07:40:58.577Z</time></trkpt><trkpt lat="43.9089717" lon="12.29622"><ele>242.0</ele><time>2026-03-29T07:40:59.576Z</time></trkpt><trkpt lat="43.908935" lon="12.296095"><ele>242.0</ele><time>2026-03-29T07:41:00.577Z</time></trkpt><trkpt lat="43.90889" lon="12.29596"><ele>242.0</ele><time>2026-03-29T07:41:01.577Z</time></trkpt><trkpt lat="43.9088417" lon="12.2958167"><ele>242.0</ele><time>2026-03-29T07:41:02.576Z</time></trkpt><trkpt lat="43.9087933" lon="12.2956617"><ele>242.5</ele><time>2026-03-29T07:41:03.577Z</time></trkpt><trkpt lat="43.90874" lon="12.2955083"><ele>243.0</ele><time>2026-03-29T07:41:04.577Z</time></trkpt><trkpt lat="43.90868" lon="12.29535"><ele>243.5</ele><time>2026-03-29T07:41:05.576Z</time></trkpt><trkpt lat="43.9086267" lon="12.2951883"><ele>244.0</ele><time>2026-03-29T07:41:06.577Z</time></trkpt><trkpt lat="43.9085733" lon="12.29503"><ele>244.0</ele><time>2026-03-29T07:41:07.577Z</time></trkpt><trkpt lat="43.9085183" lon="12.29487"><ele>244.0</ele><time>2026-03-29T07:41:08.577Z</time></trkpt><trkpt lat="43.9084717" lon="12.2947117"><ele>244.0</ele><time>2026-03-29T07:41:09.576Z</time></trkpt><trkpt lat="43.9084233" lon="12.2945533"><ele>244.0</ele><time>2026-03-29T07:41:10.576Z</time></trkpt><trkpt lat="43.9083667" lon="12.2944083"><ele>242.75</ele><time>2026-03-29T07:41:11.577Z</time></trkpt><trkpt lat="43.90829" lon="12.29428"><ele>241.5</ele><time>2026-03-29T07:41:12.577Z</time></trkpt><trkpt lat="43.90819" lon="12.29418"><ele>240.25</ele><time>2026-03-29T07:41:13.576Z</time></trkpt><trkpt lat="43.9080633" lon="12.2941083"><ele>239.0</ele><time>2026-03-29T07:41:14.576Z</time></trkpt><trkpt lat="43.9079217" lon="12.2940583"><ele>239.0</ele><time>2026-03-29T07:41:15.577Z</time></trkpt><trkpt lat="43.9077833" lon="12.2940317"><ele>239.0</ele><time>2026-03-29T07:41:16.577Z</time></trkpt><trkpt lat="43.9076483" lon="12.294"><ele>239.0</ele><time>2026-03-29T07:41:17.577Z</time></trkpt><trkpt lat="43.9075183" lon="12.2939633"><ele>239.0</ele><time>2026-03-29T07:41:18.576Z</time></trkpt><trkpt lat="43.9073817" lon="12.29393"><ele>238.75</ele><time>2026-03-29T07:41:19.577Z</time></trkpt><trkpt lat="43.9072433" lon="12.293895"><ele>238.5</ele><time>2026-03-29T07:41:20.577Z</time></trkpt><trkpt lat="43.9071" lon="12.2938583"><ele>238.25</ele><time>2026-03-29T07:41:21.576Z</time></trkpt><trkpt lat="43.90695" lon="12.29383"><ele>238.0</ele><time>2026-03-29T07:41:22.577Z</time></trkpt><trkpt lat="43.9068" lon="12.293795"><ele>239.0</ele><time>2026-03-29T07:41:23.576Z</time></trkpt><trkpt lat="43.9066467" lon="12.2937683"><ele>240.0</ele><time>2026-03-29T07:41:24.577Z</time></trkpt><trkpt lat="43.9064967" lon="12.293735"><ele>241.0</ele><time>2026-03-29T07:41:25.576Z</time></trkpt><trkpt lat="43.9063433" lon="12.293695"><ele>241.0</ele><time>2026-03-29T07:41:26.576Z</time></trkpt><trkpt lat="43.9061867" lon="12.2936533"><ele>241.0</ele><time>2026-03-29T07:41:27.576Z</time></trkpt><trkpt lat="43.9060233" lon="12.2936117"><ele>241.0</ele><time>2026-03-29T07:41:28.577Z</time></trkpt><trkpt lat="43.9058583" lon="12.29359"><ele>241.33333333333331</ele><time>2026-03-29T07:41:29.577Z</time></trkpt><trkpt lat="43.905685" lon="12.2935617"><ele>241.66666666666669</ele><time>2026-03-29T07:41:30.577Z</time></trkpt><trkpt lat="43.905515" lon="12.293515"><ele>242.0</ele><time>2026-03-29T07:41:31.577Z</time></trkpt><trkpt lat="43.905345" lon="12.2934833"><ele>242.0</ele><time>2026-03-29T07:41:32.576Z</time></trkpt><trkpt lat="43.90518" lon="12.2934283"><ele>242.0</ele><time>2026-03-29T07:41:33.576Z</time></trkpt><trkpt lat="43.9050183" lon="12.2933717"><ele>242.0</ele><time>2026-03-29T07:41:34.576Z</time></trkpt><trkpt lat="43.9048567" lon="12.2933167"><ele>241.33333333333334</ele><time>2026-03-29T07:41:35.576Z</time></trkpt><trkpt lat="43.9046867" lon="12.2932817"><ele>240.66666666666669</ele><time>2026-03-29T07:41:36.577Z</time></trkpt><trkpt lat="43.9045067" lon="12.2932833"><ele>240.0</ele><time>2026-03-29T07:41:37.576Z</time></trkpt><trkpt lat="43.9043183" lon="12.2933467"><ele>243.0</ele><time>2026-03-29T07:41:38.576Z</time></trkpt><trkpt lat="43.90414" lon="12.2934583"><ele>246.0</ele><time>2026-03-29T07:41:39.576Z</time></trkpt><trkpt lat="43.90398" lon="12.29363"><ele>249.0</ele><time>2026-03-29T07:41:40.577Z</time></trkpt><trkpt lat="43.9038283" lon="12.2938233"><ele>245.0</ele><time>2026-03-29T07:41:41.577Z</time></trkpt><trkpt lat="43.9036867" lon="12.294"><ele>241.0</ele><time>2026-03-29T07:41:42.576Z</time></trkpt><trkpt lat="43.9035667" lon="12.294185"><ele>237.0</ele><time>2026-03-29T07:41:43.576Z</time></trkpt><trkpt lat="43.9034633" lon="12.2943633"><ele>237.25</ele><time>2026-03-29T07:41:44.577Z</time></trkpt><trkpt lat="43.90338" lon="12.2945267"><ele>237.5</ele><time>2026-03-29T07:41:45.577Z</time></trkpt><trkpt lat="43.9033117" lon="12.2946933"><ele>237.75</ele><time>2026-03-29T07:41:46.577Z</time></trkpt><trkpt lat="43.90323" lon="12.294835"><ele>238.0</ele><time>2026-03-29T07:41:47.576Z</time></trkpt><trkpt lat="43.9031267" lon="12.2949667"><ele>238.0</ele><time>2026-03-29T07:41:48.577Z</time></trkpt><trkpt lat="43.9029967" lon="12.2950567"><ele>238.0</ele><time>2026-03-29T07:41:49.576Z</time></trkpt><trkpt lat="43.9028483" lon="12.29509"><ele>238.0</ele><time>2026-03-29T07:41:50.576Z</time></trkpt><trkpt lat="43.902685" lon="12.2950833"><ele>238.66666666666666</ele><time>2026-03-29T07:41:51.577Z</time></trkpt><trkpt lat="43.90252" lon="12.2950517"><ele>239.33333333333331</ele><time>2026-03-29T07:41:52.576Z</time></trkpt><trkpt lat="43.902365" lon="12.2950117"><ele>240.0</ele><time>2026-03-29T07:41:53.576Z</time></trkpt><trkpt lat="43.9022117" lon="12.2949783"><ele>240.0</ele><time>2026-03-29T07:41:54.577Z</time></trkpt><trkpt lat="43.9020533" lon="12.2949383"><ele>240.0</ele><time>2026-03-29T07:41:55.577Z</time></trkpt><trkpt lat="43.9018933" lon="12.2949"><ele>240.0</ele><time>2026-03-29T07:41:56.577Z</time></trkpt><trkpt lat="43.90173" lon="12.29486"><ele>239.33333333333331</ele><time>2026-03-29T07:41:57.576Z</time></trkpt><trkpt lat="43.9015867" lon="12.2947567"><ele>238.66666666666666</ele><time>2026-03-29T07:41:58.577Z</time></trkpt><trkpt lat="43.901445" lon="12.2946383"><ele>238.0</ele><time>2026-03-29T07:41:59.577Z</time></trkpt><trkpt lat="43.9013067" lon="12.2944917"><ele>241.0</ele><time>2026-03-29T07:42:00.577Z</time></trkpt><trkpt lat="43.9011883" lon="12.29435"><ele>244.0</ele><time>2026-03-29T07:42:01.577Z</time></trkpt><trkpt lat="43.9010733" lon="12.29423"><ele>247.0</ele><time>2026-03-29T07:42:02.576Z</time></trkpt><trkpt lat="43.9009483" lon="12.2940983"><ele>246.5</ele><time>2026-03-29T07:42:03.577Z</time></trkpt><trkpt lat="43.900825" lon="12.293965"><ele>246.0</ele><time>2026-03-29T07:42:04.577Z</time></trkpt><trkpt lat="43.90071" lon="12.2938533"><ele>245.5</ele><time>2026-03-29T07:42:05.577Z</time></trkpt><trkpt lat="43.9006067" lon="12.293745"><ele>245.0</ele><time>2026-03-29T07:42:06.577Z</time></trkpt><trkpt lat="43.90051" lon="12.2936233"><ele>246.75</ele><time>2026-03-29T07:42:07.576Z</time></trkpt><trkpt lat="43.90042" lon="12.2934867"><ele>248.5</ele><time>2026-03-29T07:42:08.577Z</time></trkpt><trkpt lat="43.9003533" lon="12.293335"><ele>250.25</ele><time>2026-03-29T07:42:09.577Z</time></trkpt><trkpt lat="43.9002983" lon="12.2931517"><ele>252.0</ele><time>2026-03-29T07:42:10.577Z</time></trkpt><trkpt lat="43.9002683" lon="12.2929683"><ele>253.0</ele><time>2026-03-29T07:42:11.577Z</time></trkpt><trkpt lat="43.9002567" lon="12.2927667"><ele>254.0</ele><time>2026-03-29T07:42:12.577Z</time></trkpt><trkpt lat="43.900245" lon="12.2925583"><ele>255.0</ele><time>2026-03-29T07:42:13.576Z</time></trkpt><trkpt lat="43.9002333" lon="12.2923533"><ele>256.0</ele><time>2026-03-29T07:42:14.577Z</time></trkpt><trkpt lat="43.9002233" lon="12.2921517"><ele>257.0</ele><time>2026-03-29T07:42:15.577Z</time></trkpt><trkpt lat="43.90021" lon="12.2919533"><ele>258.0</ele><time>2026-03-29T07:42:16.577Z</time></trkpt><trkpt lat="43.9001983" lon="12.2917667"><ele>259.0</ele><time>2026-03-29T07:42:17.577Z</time></trkpt><trkpt lat="43.9001883" lon="12.291585"><ele>260.0</ele><time>2026-03-29T07:42:18.576Z</time></trkpt><trkpt lat="43.900175" lon="12.2914"><ele>259.75</ele><time>2026-03-29T07:42:19.577Z</time></trkpt><trkpt lat="43.90013" lon="12.29122"><ele>259.5</ele><time>2026-03-29T07:42:20.576Z</time></trkpt><trkpt lat="43.900065" lon="12.2910433"><ele>259.25</ele><time>2026-03-29T07:42:21.577Z</time></trkpt><trkpt lat="43.8999867" lon="12.2908833"><ele>259.0</ele><time>2026-03-29T07:42:22.577Z</time></trkpt><trkpt lat="43.899905" lon="12.29073"><ele>260.25</ele><time>2026-03-29T07:42:23.577Z</time></trkpt><trkpt lat="43.8998133" lon="12.2905817"><ele>261.5</ele><time>2026-03-29T07:42:24.577Z</time></trkpt><trkpt lat="43.8997233" lon="12.29043"><ele>262.75</ele><time>2026-03-29T07:42:25.577Z</time></trkpt><trkpt lat="43.8996317" lon="12.2902767"><ele>264.0</ele><time>2026-03-29T07:42:26.577Z</time></trkpt><trkpt lat="43.89954" lon="12.2901167"><ele>264.0</ele><time>2026-03-29T07:42:27.577Z</time></trkpt><trkpt lat="43.8994483" lon="12.2899583"><ele>264.0</ele><time>2026-03-29T07:42:28.577Z</time></trkpt><trkpt lat="43.8993683" lon="12.289805"><ele>264.0</ele><time>2026-03-29T07:42:29.577Z</time></trkpt><trkpt lat="43.89928" lon="12.28965"><ele>264.0</ele><time>2026-03-29T07:42:30.576Z</time></trkpt><trkpt lat="43.899195" lon="12.2895067"><ele>263.75</ele><time>2026-03-29T07:42:31.576Z</time></trkpt><trkpt lat="43.8991033" lon="12.2893833"><ele>263.5</ele><time>2026-03-29T07:42:32.577Z</time></trkpt><trkpt lat="43.8990067" lon="12.289275"><ele>263.25</ele><time>2026-03-29T07:42:33.577Z</time></trkpt><trkpt lat="43.8988983" lon="12.28916"><ele>263.0</ele><time>2026-03-29T07:42:34.576Z</time></trkpt><trkpt lat="43.89878" lon="12.2890667"><ele>263.0</ele><time>2026-03-29T07:42:35.576Z</time></trkpt><trkpt lat="43.8986667" lon="12.2889917"><ele>263.0</ele><time>2026-03-29T07:42:36.576Z</time></trkpt><trkpt lat="43.8985533" lon="12.2889383"><ele>263.0</ele><time>2026-03-29T07:42:37.577Z</time></trkpt><trkpt lat="43.8984417" lon="12.288895"><ele>263.0</ele><time>2026-03-29T07:42:38.577Z</time></trkpt><trkpt lat="43.8983383" lon="12.288875"><ele>264.83333333333337</ele><time>2026-03-29T07:42:39.577Z</time></trkpt><trkpt lat="43.8982417" lon="12.2888767"><ele>266.6666666666667</ele><time>2026-03-29T07:42:40.576Z</time></trkpt><trkpt lat="43.898155" lon="12.2888817"><ele>268.5</ele><time>2026-03-29T07:42:41.577Z</time></trkpt><trkpt lat="43.8980783" lon="12.2888917"><ele>270.3333333333333</ele><time>2026-03-29T07:42:42.577Z</time></trkpt><trkpt lat="43.89801" lon="12.288885"><ele>272.16666666666663</ele><time>2026-03-29T07:42:43.577Z</time></trkpt><trkpt lat="43.8979417" lon="12.2888833"><ele>274.0</ele><time>2026-03-29T07:42:44.576Z</time></trkpt><trkpt lat="43.8978183" lon="12.288905"><ele>274.8</ele><time>2026-03-29T07:42:46.577Z</time></trkpt><trkpt lat="43.8977067" lon="12.28898"><ele>275.59999999999997</ele><time>2026-03-29T07:42:48.577Z</time></trkpt><trkpt lat="43.897635" lon="12.2890033"><ele>276.4</ele><time>2026-03-29T07:42:49.576Z</time></trkpt><trkpt lat="43.8975517" lon="12.28901"><ele>277.2</ele><time>2026-03-29T07:42:50.577Z</time></trkpt><trkpt lat="43.8974517" lon="12.2889267"><ele>278.0</ele><time>2026-03-29T07:42:51.576Z</time></trkpt><trkpt lat="43.89733" lon="12.2888083"><ele>278.0</ele><time>2026-03-29T07:42:52.576Z</time></trkpt><trkpt lat="43.8971867" lon="12.2886867"><ele>278.0</ele><time>2026-03-29T07:42:53.576Z</time></trkpt><trkpt lat="43.897035" lon="12.2885483"><ele>278.0</ele><time>2026-03-29T07:42:54.576Z</time></trkpt><trkpt lat="43.8968867" lon="12.288415"><ele>277.0</ele><time>2026-03-29T07:42:55.577Z</time></trkpt><trkpt lat="43.8967467" lon="12.2882917"><ele>276.0</ele><time>2026-03-29T07:42:56.576Z</time></trkpt><trkpt lat="43.8966" lon="12.28817"><ele>275.0</ele><time>2026-03-29T07:42:57.576Z</time></trkpt><trkpt lat="43.8964583" lon="12.2880367"><ele>277.0</ele><time>2026-03-29T07:42:58.577Z</time></trkpt><trkpt lat="43.8963217" lon="12.2879133"><ele>279.0</ele><time>2026-03-29T07:42:59.577Z</time></trkpt><trkpt lat="43.896185" lon="12.2877983"><ele>281.0</ele><time>2026-03-29T07:43:00.577Z</time></trkpt><trkpt lat="43.89607" lon="12.287695"><ele>281.0</ele><time>2026-03-29T07:43:01.576Z</time></trkpt><trkpt lat="43.8959633" lon="12.2876033"><ele>281.0</ele><time>2026-03-29T07:43:02.576Z</time></trkpt><trkpt lat="43.8958417" lon="12.2875683"><ele>281.0</ele><time>2026-03-29T07:43:03.576Z</time></trkpt><trkpt lat="43.8957117" lon="12.287565"><ele>281.0</ele><time>2026-03-29T07:43:04.577Z</time></trkpt><trkpt lat="43.895575" lon="12.2876483"><ele>281.33333333333337</ele><time>2026-03-29T07:43:05.577Z</time></trkpt><trkpt lat="43.8954383" lon="12.2877633"><ele>281.6666666666667</ele><time>2026-03-29T07:43:06.577Z</time></trkpt><trkpt lat="43.8953083" lon="12.2879033"><ele>282.0</ele><time>2026-03-29T07:43:07.577Z</time></trkpt><trkpt lat="43.8952117" lon="12.2880433"><ele>281.4</ele><time>2026-03-29T07:43:08.577Z</time></trkpt><trkpt lat="43.89513" lon="12.2881833"><ele>280.79999999999995</ele><time>2026-03-29T07:43:09.577Z</time></trkpt><trkpt lat="43.8950783" lon="12.2883117"><ele>280.2</ele><time>2026-03-29T07:43:10.577Z</time></trkpt><trkpt lat="43.8950417" lon="12.2884317"><ele>279.59999999999997</ele><time>2026-03-29T07:43:11.576Z</time></trkpt><trkpt lat="43.895005" lon="12.2885267"><ele>279.0</ele><time>2026-03-29T07:43:12.577Z</time></trkpt><trkpt lat="43.8949333" lon="12.28864"><ele>280.8</ele><time>2026-03-29T07:43:14.576Z</time></trkpt><trkpt lat="43.8948633" lon="12.288585"><ele>282.59999999999997</ele><time>2026-03-29T07:43:16.577Z</time></trkpt><trkpt lat="43.894845" lon="12.2884367"><ele>284.4</ele><time>2026-03-29T07:43:17.577Z</time></trkpt><trkpt lat="43.89483" lon="12.2882767"><ele>286.2</ele><time>2026-03-29T07:43:18.576Z</time></trkpt><trkpt lat="43.8948183" lon="12.288095"><ele>288.0</ele><time>2026-03-29T07:43:19.577Z</time></trkpt><trkpt lat="43.8948117" lon="12.2879083"><ele>289.25</ele><time>2026-03-29T07:43:20.577Z</time></trkpt><trkpt lat="43.8948067" lon="12.287745"><ele>290.5</ele><time>2026-03-29T07:43:21.577Z</time></trkpt><trkpt lat="43.8947833" lon="12.287585"><ele>291.75</ele><time>2026-03-29T07:43:22.577Z</time></trkpt><trkpt lat="43.8947233" lon="12.2874533"><ele>293.0</ele><time>2026-03-29T07:43:23.577Z</time></trkpt><trkpt lat="43.8946283" lon="12.2873833"><ele>293.0</ele><time>2026-03-29T07:43:24.577Z</time></trkpt><trkpt lat="43.894515" lon="12.2873383"><ele>293.0</ele><time>2026-03-29T07:43:25.577Z</time></trkpt><trkpt lat="43.8944017" lon="12.28737"><ele>293.0</ele><time>2026-03-29T07:43:26.577Z</time></trkpt><trkpt lat="43.894305" lon="12.287465"><ele>293.0</ele><time>2026-03-29T07:43:27.577Z</time></trkpt><trkpt lat="43.8942367" lon="12.2875917"><ele>294.0</ele><time>2026-03-29T07:43:28.577Z</time></trkpt><trkpt lat="43.8941867" lon="12.287765"><ele>295.0</ele><time>2026-03-29T07:43:29.576Z</time></trkpt><trkpt lat="43.8941467" lon="12.28794"><ele>296.0</ele><time>2026-03-29T07:43:30.576Z</time></trkpt><trkpt lat="43.8941067" lon="12.288095"><ele>297.0</ele><time>2026-03-29T07:43:31.577Z</time></trkpt><trkpt lat="43.89407" lon="12.28823"><ele>297.0</ele><time>2026-03-29T07:43:32.577Z</time></trkpt><trkpt lat="43.8940083" lon="12.28834"><ele>297.0</ele><time>2026-03-29T07:43:33.577Z</time></trkpt><trkpt lat="43.8939117" lon="12.2883967"><ele>297.0</ele><time>2026-03-29T07:43:34.577Z</time></trkpt><trkpt lat="43.893815" lon="12.288395"><ele>297.0</ele><time>2026-03-29T07:43:35.576Z</time></trkpt><trkpt lat="43.8937267" lon="12.2883333"><ele>297.0</ele><time>2026-03-29T07:43:36.577Z</time></trkpt><trkpt lat="43.8936517" lon="12.2882167"><ele>300.25</ele><time>2026-03-29T07:43:37.577Z</time></trkpt><trkpt lat="43.8936167" lon="12.2880533"><ele>303.5</ele><time>2026-03-29T07:43:38.576Z</time></trkpt><trkpt lat="43.8935967" lon="12.2878817"><ele>306.75</ele><time>2026-03-29T07:43:39.577Z</time></trkpt><trkpt lat="43.8935667" lon="12.2877217"><ele>310.0</ele><time>2026-03-29T07:43:40.577Z</time></trkpt><trkpt lat="43.8935067" lon="12.2875917"><ele>310.25</ele><time>2026-03-29T07:43:41.577Z</time></trkpt><trkpt lat="43.8934133" lon="12.2875083"><ele>310.5</ele><time>2026-03-29T07:43:42.577Z</time></trkpt><trkpt lat="43.8932867" lon="12.2874683"><ele>310.75</ele><time>2026-03-29T07:43:43.576Z</time></trkpt><trkpt lat="43.8931383" lon="12.28749"><ele>311.0</ele><time>2026-03-29T07:43:44.577Z</time></trkpt><trkpt lat="43.893" lon="12.2875583"><ele>311.0</ele><time>2026-03-29T07:43:45.577Z</time></trkpt><trkpt lat="43.8928767" lon="12.2876333"><ele>311.0</ele><time>2026-03-29T07:43:46.576Z</time></trkpt><trkpt lat="43.8927683" lon="12.2876583"><ele>311.0</ele><time>2026-03-29T07:43:47.577Z</time></trkpt><trkpt lat="43.892655" lon="12.28763"><ele>311.0</ele><time>2026-03-29T07:43:48.576Z</time></trkpt><trkpt lat="43.89254" lon="12.2875517"><ele>311.75</ele><time>2026-03-29T07:43:49.578Z</time></trkpt><trkpt lat="43.8924317" lon="12.2874283"><ele>312.5</ele><time>2026-03-29T07:43:50.578Z</time></trkpt><trkpt lat="43.8923217" lon="12.28727"><ele>313.25</ele><time>2026-03-29T07:43:51.578Z</time></trkpt><trkpt lat="43.8922233" lon="12.287125"><ele>314.0</ele><time>2026-03-29T07:43:52.578Z</time></trkpt><trkpt lat="43.89213" lon="12.2869667"><ele>318.0</ele><time>2026-03-29T07:43:53.578Z</time></trkpt><trkpt lat="43.8920583" lon="12.2867733"><ele>322.0</ele><time>2026-03-29T07:43:54.578Z</time></trkpt><trkpt lat="43.8919967" lon="12.2865467"><ele>326.0</ele><time>2026-03-29T07:43:55.578Z</time></trkpt><trkpt lat="43.8919517" lon="12.286295"><ele>328.33333333333337</ele><time>2026-03-29T07:43:56.578Z</time></trkpt><trkpt lat="43.8919117" lon="12.28606"><ele>330.6666666666667</ele><time>2026-03-29T07:43:57.577Z</time></trkpt><trkpt lat="43.8918733" lon="12.2858533"><ele>333.0</ele><time>2026-03-29T07:43:58.578Z</time></trkpt><trkpt lat="43.89184" lon="12.2856733"><ele>334.0</ele><time>2026-03-29T07:43:59.578Z</time></trkpt><trkpt lat="43.891815" lon="12.2855167"><ele>335.0</ele><time>2026-03-29T07:44:00.578Z</time></trkpt><trkpt lat="43.891825" lon="12.2853667"><ele>336.0</ele><time>2026-03-29T07:44:01.578Z</time></trkpt><trkpt lat="43.8918717" lon="12.285235"><ele>337.0</ele><time>2026-03-29T07:44:02.577Z</time></trkpt><trkpt lat="43.8919583" lon="12.285145"><ele>338.0</ele><time>2026-03-29T07:44:03.578Z</time></trkpt><trkpt lat="43.8920717" lon="12.285125"><ele>338.0</ele><time>2026-03-29T07:44:04.577Z</time></trkpt><trkpt lat="43.8921917" lon="12.28518"><ele>338.0</ele><time>2026-03-29T07:44:05.578Z</time></trkpt><trkpt lat="43.8923083" lon="12.2852933"><ele>338.0</ele><time>2026-03-29T07:44:06.577Z</time></trkpt><trkpt lat="43.89242" lon="12.285415"><ele>338.0</ele><time>2026-03-29T07:44:07.578Z</time></trkpt><trkpt lat="43.8925417" lon="12.2855233"><ele>337.25</ele><time>2026-03-29T07:44:08.578Z</time></trkpt><trkpt lat="43.892675" lon="12.2856083"><ele>336.5</ele><time>2026-03-29T07:44:09.578Z</time></trkpt><trkpt lat="43.8928133" lon="12.285645"><ele>335.75</ele><time>2026-03-29T07:44:10.578Z</time></trkpt><trkpt lat="43.8929517" lon="12.2856167"><ele>335.0</ele><time>2026-03-29T07:44:11.577Z</time></trkpt><trkpt lat="43.8930817" lon="12.2855367"><ele>337.6666666666667</ele><time>2026-03-29T07:44:12.578Z</time></trkpt><trkpt lat="43.8932" lon="12.285395"><ele>340.3333333333333</ele><time>2026-03-29T07:44:13.578Z</time></trkpt><trkpt lat="43.8933133" lon="12.2852033"><ele>343.0</ele><time>2026-03-29T07:44:14.578Z</time></trkpt><trkpt lat="43.8934233" lon="12.28498"><ele>345.3333333333333</ele><time>2026-03-29T07:44:15.578Z</time></trkpt><trkpt lat="43.8935433" lon="12.284755"><ele>347.6666666666667</ele><time>2026-03-29T07:44:16.578Z</time></trkpt><trkpt lat="43.89366" lon="12.2845233"><ele>350.0</ele><time>2026-03-29T07:44:17.577Z</time></trkpt><trkpt lat="43.8937817" lon="12.2842833"><ele>350.0</ele><time>2026-03-29T07:44:18.578Z</time></trkpt><trkpt lat="43.893895" lon="12.28406"><ele>350.0</ele><time>2026-03-29T07:44:19.578Z</time></trkpt><trkpt lat="43.8940017" lon="12.2838533"><ele>350.0</ele><time>2026-03-29T07:44:20.578Z</time></trkpt><trkpt lat="43.8941017" lon="12.283655"><ele>349.6666666666667</ele><time>2026-03-29T07:44:21.577Z</time></trkpt><trkpt lat="43.8941917" lon="12.2834383"><ele>349.3333333333333</ele><time>2026-03-29T07:44:22.578Z</time></trkpt><trkpt lat="43.8942683" lon="12.283195"><ele>349.0</ele><time>2026-03-29T07:44:23.578Z</time></trkpt><trkpt lat="43.8943333" lon="12.2829233"><ele>350.3333333333333</ele><time>2026-03-29T07:44:24.578Z</time></trkpt><trkpt lat="43.8943933" lon="12.282625"><ele>351.6666666666667</ele><time>2026-03-29T07:44:25.578Z</time></trkpt><trkpt lat="43.8944417" lon="12.2823217"><ele>353.0</ele><time>2026-03-29T07:44:26.578Z</time></trkpt><trkpt lat="43.8944833" lon="12.28201"><ele>356.0</ele><time>2026-03-29T07:44:27.578Z</time></trkpt><trkpt lat="43.8945383" lon="12.281685"><ele>359.0</ele><time>2026-03-29T07:44:28.578Z</time></trkpt><trkpt lat="43.89458" lon="12.2813767"><ele>359.5</ele><time>2026-03-29T07:44:29.577Z</time></trkpt><trkpt lat="43.89464" lon="12.2810583"><ele>360.0</ele><time>2026-03-29T07:44:30.578Z</time></trkpt><trkpt lat="43.8946917" lon="12.2807683"><ele>361.6666666666667</ele><time>2026-03-29T07:44:31.577Z</time></trkpt><trkpt lat="43.8947417" lon="12.2804917"><ele>363.33333333333337</ele><time>2026-03-29T07:44:32.577Z</time></trkpt><trkpt lat="43.89479" lon="12.280225"><ele>365.0</ele><time>2026-03-29T07:44:33.578Z</time></trkpt><trkpt lat="43.8948283" lon="12.279955"><ele>367.0</ele><time>2026-03-29T07:44:34.578Z</time></trkpt><trkpt lat="43.8948483" lon="12.2796833"><ele>369.0</ele><time>2026-03-29T07:44:35.578Z</time></trkpt><trkpt lat="43.8948467" lon="12.2794233"><ele>371.0</ele><time>2026-03-29T07:44:36.578Z</time></trkpt><trkpt lat="43.894835" lon="12.2791683"><ele>371.0</ele><time>2026-03-29T07:44:37.577Z</time></trkpt><trkpt lat="43.894825" lon="12.278945"><ele>371.0</ele><time>2026-03-29T07:44:38.578Z</time></trkpt><trkpt lat="43.8948133" lon="12.2787433"><ele>371.0</ele><time>2026-03-29T07:44:39.578Z</time></trkpt><trkpt lat="43.8948317" lon="12.2785733"><ele>371.0</ele><time>2026-03-29T07:44:40.578Z</time></trkpt><trkpt lat="43.8948917" lon="12.278425"><ele>372.25</ele><time>2026-03-29T07:44:41.578Z</time></trkpt><trkpt lat="43.8949833" lon="12.2783167"><ele>373.5</ele><time>2026-03-29T07:44:42.578Z</time></trkpt><trkpt lat="43.8951" lon="12.2782683"><ele>374.75</ele><time>2026-03-29T07:44:43.578Z</time></trkpt><trkpt lat="43.8952333" lon="12.2782733"><ele>376.0</ele><time>2026-03-29T07:44:44.578Z</time></trkpt><trkpt lat="43.8953783" lon="12.2783333"><ele>378.66666666666663</ele><time>2026-03-29T07:44:45.577Z</time></trkpt><trkpt lat="43.8955383" lon="12.2784367"><ele>381.3333333333333</ele><time>2026-03-29T07:44:46.578Z</time></trkpt><trkpt lat="43.8957133" lon="12.2785517"><ele>384.0</ele><time>2026-03-29T07:44:47.578Z</time></trkpt><trkpt lat="43.8958733" lon="12.278645"><ele>385.33333333333337</ele><time>2026-03-29T07:44:48.578Z</time></trkpt><trkpt lat="43.89603" lon="12.2787083"><ele>386.6666666666667</ele><time>2026-03-29T07:44:49.577Z</time></trkpt><trkpt lat="43.8961817" lon="12.2787417"><ele>388.0</ele><time>2026-03-29T07:44:50.577Z</time></trkpt><trkpt lat="43.8963333" lon="12.278725"><ele>388.0</ele><time>2026-03-29T07:44:51.577Z</time></trkpt><trkpt lat="43.8964933" lon="12.2786433"><ele>388.0</ele><time>2026-03-29T07:44:52.577Z</time></trkpt><trkpt lat="43.8966433" lon="12.2785033"><ele>388.0</ele><time>2026-03-29T07:44:53.578Z</time></trkpt><trkpt lat="43.8967767" lon="12.278405"><ele>390.25</ele><time>2026-03-29T07:44:54.578Z</time></trkpt><trkpt lat="43.8969183" lon="12.2783417"><ele>392.5</ele><time>2026-03-29T07:44:55.577Z</time></trkpt><trkpt lat="43.89706" lon="12.2783667"><ele>394.75</ele><time>2026-03-29T07:44:56.578Z</time></trkpt><trkpt lat="43.8971933" lon="12.27845"><ele>397.0</ele><time>2026-03-29T07:44:57.577Z</time></trkpt><trkpt lat="43.897335" lon="12.2785617"><ele>397.0</ele><time>2026-03-29T07:44:58.578Z</time></trkpt><trkpt lat="43.8974567" lon="12.278745"><ele>397.0</ele><time>2026-03-29T07:44:59.578Z</time></trkpt><trkpt lat="43.8975483" lon="12.2789533"><ele>397.0</ele><time>2026-03-29T07:45:00.577Z</time></trkpt><trkpt lat="43.8976367" lon="12.2791383"><ele>396.6666666666667</ele><time>2026-03-29T07:45:01.578Z</time></trkpt><trkpt lat="43.8977483" lon="12.279285"><ele>396.33333333333337</ele><time>2026-03-29T07:45:02.578Z</time></trkpt><trkpt lat="43.8978867" lon="12.2793983"><ele>396.0</ele><time>2026-03-29T07:45:03.578Z</time></trkpt><trkpt lat="43.8980467" lon="12.27947"><ele>396.0</ele><time>2026-03-29T07:45:04.578Z</time></trkpt><trkpt lat="43.8981933" lon="12.2795133"><ele>396.0</ele><time>2026-03-29T07:45:05.577Z</time></trkpt><trkpt lat="43.8983317" lon="12.2795133"><ele>396.0</ele><time>2026-03-29T07:45:06.578Z</time></trkpt><trkpt lat="43.89845" lon="12.2794733"><ele>396.0</ele><time>2026-03-29T07:45:07.578Z</time></trkpt><trkpt lat="43.8985367" lon="12.2793917"><ele>397.20000000000005</ele><time>2026-03-29T07:45:08.577Z</time></trkpt><trkpt lat="43.898595" lon="12.2792733"><ele>398.40000000000003</ele><time>2026-03-29T07:45:09.578Z</time></trkpt><trkpt lat="43.8986133" lon="12.2791433"><ele>399.6</ele><time>2026-03-29T07:45:10.578Z</time></trkpt><trkpt lat="43.898595" lon="12.278995"><ele>400.8</ele><time>2026-03-29T07:45:11.578Z</time></trkpt><trkpt lat="43.898525" lon="12.27887"><ele>402.0</ele><time>2026-03-29T07:45:12.577Z</time></trkpt><trkpt lat="43.8984167" lon="12.2787717"><ele>405.40000000000003</ele><time>2026-03-29T07:45:13.578Z</time></trkpt><trkpt lat="43.8982933" lon="12.2787367"><ele>408.8</ele><time>2026-03-29T07:45:14.578Z</time></trkpt><trkpt lat="43.8981917" lon="12.278725"><ele>412.2</ele><time>2026-03-29T07:45:15.577Z</time></trkpt><trkpt lat="43.8981" lon="12.27869"><ele>415.6</ele><time>2026-03-29T07:45:16.578Z</time></trkpt><trkpt lat="43.89802" lon="12.2785933"><ele>419.0</ele><time>2026-03-29T07:45:17.578Z</time></trkpt><trkpt lat="43.8979617" lon="12.27844"><ele>419.0</ele><time>2026-03-29T07:45:18.578Z</time></trkpt><trkpt lat="43.8979183" lon="12.2782383"><ele>419.0</ele><time>2026-03-29T07:45:19.578Z</time></trkpt><trkpt lat="43.8978783" lon="12.278015"><ele>419.0</ele><time>2026-03-29T07:45:20.578Z</time></trkpt><trkpt lat="43.8978233" lon="12.2777567"><ele>421.66666666666663</ele><time>2026-03-29T07:45:21.578Z</time></trkpt><trkpt lat="43.8977483" lon="12.2774783"><ele>424.33333333333337</ele><time>2026-03-29T07:45:22.578Z</time></trkpt><trkpt lat="43.89766" lon="12.277205"><ele>427.0</ele><time>2026-03-29T07:45:23.578Z</time></trkpt><trkpt lat="43.89756" lon="12.2769483"><ele>427.0</ele><time>2026-03-29T07:45:24.578Z</time></trkpt><trkpt lat="43.8974433" lon="12.2767033"><ele>427.0</ele><time>2026-03-29T07:45:25.578Z</time></trkpt><trkpt lat="43.8973117" lon="12.27649"><ele>427.0</ele><time>2026-03-29T07:45:26.578Z</time></trkpt><trkpt lat="43.8971783" lon="12.276315"><ele>430.25</ele><time>2026-03-29T07:45:27.578Z</time></trkpt><trkpt lat="43.8970533" lon="12.2761717"><ele>433.5</ele><time>2026-03-29T07:45:28.578Z</time></trkpt><trkpt lat="43.89695" lon="12.2760467"><ele>436.75</ele><time>2026-03-29T07:45:29.578Z</time></trkpt><trkpt lat="43.8968767" lon="12.2759233"><ele>440.0</ele><time>2026-03-29T07:45:30.577Z</time></trkpt><trkpt lat="43.8968317" lon="12.2757683"><ele>444.0</ele><time>2026-03-29T07:45:31.578Z</time></trkpt><trkpt lat="43.8968217" lon="12.2755883"><ele>448.0</ele><time>2026-03-29T07:45:32.578Z</time></trkpt><trkpt lat="43.8968667" lon="12.2753883"><ele>452.0</ele><time>2026-03-29T07:45:33.578Z</time></trkpt><trkpt lat="43.8969433" lon="12.27519"><ele>456.0</ele><time>2026-03-29T07:45:34.578Z</time></trkpt><trkpt lat="43.89701" lon="12.2749717"><ele>459.33333333333337</ele><time>2026-03-29T07:45:35.577Z</time></trkpt><trkpt lat="43.8970483" lon="12.274715"><ele>462.6666666666667</ele><time>2026-03-29T07:45:36.578Z</time></trkpt><trkpt lat="43.8970617" lon="12.2744317"><ele>466.0</ele><time>2026-03-29T07:45:37.578Z</time></trkpt><trkpt lat="43.897065" lon="12.2741317"><ele>467.33333333333337</ele><time>2026-03-29T07:45:38.578Z</time></trkpt><trkpt lat="43.89707" lon="12.2738433"><ele>468.66666666666663</ele><time>2026-03-29T07:45:39.577Z</time></trkpt><trkpt lat="43.8970533" lon="12.2735733"><ele>470.0</ele><time>2026-03-29T07:45:40.578Z</time></trkpt><trkpt lat="43.897" lon="12.273305"><ele>471.0</ele><time>2026-03-29T07:45:41.578Z</time></trkpt><trkpt lat="43.8969283" lon="12.2730717"><ele>472.0</ele><time>2026-03-29T07:45:42.578Z</time></trkpt><trkpt lat="43.8968467" lon="12.2728667"><ele>473.0</ele><time>2026-03-29T07:45:43.577Z</time></trkpt><trkpt lat="43.8967767" lon="12.2726783"><ele>467.0</ele><time>2026-03-29T07:45:44.578Z</time></trkpt><trkpt lat="43.8967283" lon="12.27249"><ele>461.0</ele><time>2026-03-29T07:45:45.578Z</time></trkpt><trkpt lat="43.8967083" lon="12.272275"><ele>455.0</ele><time>2026-03-29T07:45:46.578Z</time></trkpt><trkpt lat="43.8967167" lon="12.2720317"><ele>455.0</ele><time>2026-03-29T07:45:47.578Z</time></trkpt><trkpt lat="43.8967433" lon="12.2717667"><ele>455.0</ele><time>2026-03-29T07:45:48.578Z</time></trkpt><trkpt lat="43.8967717" lon="12.2714767"><ele>455.0</ele><time>2026-03-29T07:45:49.577Z</time></trkpt><trkpt lat="43.8968033" lon="12.2711583"><ele>465.5</ele><time>2026-03-29T07:45:50.577Z</time></trkpt><trkpt lat="43.896845" lon="12.2708217"><ele>476.0</ele><time>2026-03-29T07:45:51.577Z</time></trkpt><trkpt lat="43.89688" lon="12.2704917"><ele>479.5</ele><time>2026-03-29T07:45:52.577Z</time></trkpt><trkpt lat="43.89692" lon="12.2701483"><ele>483.0</ele><time>2026-03-29T07:45:53.577Z</time></trkpt><trkpt lat="43.8969467" lon="12.2698267"><ele>486.66666666666663</ele><time>2026-03-29T07:45:54.578Z</time></trkpt><trkpt lat="43.89696" lon="12.2695433"><ele>490.3333333333333</ele><time>2026-03-29T07:45:55.578Z</time></trkpt><trkpt lat="43.8969417" lon="12.2692483"><ele>494.0</ele><time>2026-03-29T07:45:56.578Z</time></trkpt><trkpt lat="43.8969033" lon="12.26894"><ele>498.0</ele><time>2026-03-29T07:45:57.577Z</time></trkpt><trkpt lat="43.8968583" lon="12.2686033"><ele>502.0</ele><time>2026-03-29T07:45:58.578Z</time></trkpt><trkpt lat="43.89681" lon="12.2682533"><ele>509.0</ele><time>2026-03-29T07:45:59.578Z</time></trkpt><trkpt lat="43.89676" lon="12.2678933"><ele>516.0</ele><time>2026-03-29T07:46:00.578Z</time></trkpt><trkpt lat="43.8967117" lon="12.2675467"><ele>504.0</ele><time>2026-03-29T07:46:01.578Z</time></trkpt><trkpt lat="43.8966633" lon="12.26721"><ele>492.0</ele><time>2026-03-29T07:46:02.578Z</time></trkpt><trkpt lat="43.8966233" lon="12.26691"><ele>492.0</ele><time>2026-03-29T07:46:03.578Z</time></trkpt><trkpt lat="43.8965833" lon="12.2666333"><ele>492.0</ele><time>2026-03-29T07:46:04.578Z</time></trkpt><trkpt lat="43.8965433" lon="12.2663833"><ele>492.0</ele><time>2026-03-29T07:46:05.578Z</time></trkpt><trkpt lat="43.8965" lon="12.2661383"><ele>493.0</ele><time>2026-03-29T07:46:06.578Z</time></trkpt><trkpt lat="43.89648" lon="12.2658783"><ele>494.0</ele><time>2026-03-29T07:46:07.577Z</time></trkpt><trkpt lat="43.8964867" lon="12.2656267"><ele>495.0</ele><time>2026-03-29T07:46:08.577Z</time></trkpt><trkpt lat="43.8965217" lon="12.26538"><ele>495.0</ele><time>2026-03-29T07:46:09.577Z</time></trkpt><trkpt lat="43.8965883" lon="12.26514"><ele>495.0</ele><time>2026-03-29T07:46:10.577Z</time></trkpt><trkpt lat="43.8966567" lon="12.2649067"><ele>495.0</ele><time>2026-03-29T07:46:11.578Z</time></trkpt><trkpt lat="43.8967067" lon="12.2646767"><ele>493.66666666666663</ele><time>2026-03-29T07:46:12.578Z</time></trkpt><trkpt lat="43.8967333" lon="12.264455"><ele>492.3333333333333</ele><time>2026-03-29T07:46:13.577Z</time></trkpt><trkpt lat="43.8967767" lon="12.2642533"><ele>491.0</ele><time>2026-03-29T07:46:14.578Z</time></trkpt><trkpt lat="43.8968533" lon="12.2640817"><ele>496.5</ele><time>2026-03-29T07:46:15.577Z</time></trkpt><trkpt lat="43.8969633" lon="12.2639483"><ele>502.0</ele><time>2026-03-29T07:46:16.577Z</time></trkpt><trkpt lat="43.8970683" lon="12.263825"><ele>507.5</ele><time>2026-03-29T07:46:17.578Z</time></trkpt><trkpt lat="43.8971517" lon="12.263675"><ele>513.0</ele><time>2026-03-29T07:46:18.578Z</time></trkpt><trkpt lat="43.89721" lon="12.2634933"><ele>513.0</ele><time>2026-03-29T07:46:19.578Z</time></trkpt><trkpt lat="43.897245" lon="12.2632733"><ele>513.0</ele><time>2026-03-29T07:46:20.578Z</time></trkpt><trkpt lat="43.8972767" lon="12.2630167"><ele>513.0</ele><time>2026-03-29T07:46:21.577Z</time></trkpt><trkpt lat="43.8973217" lon="12.2627467"><ele>513.0</ele><time>2026-03-29T07:46:22.577Z</time></trkpt><trkpt lat="43.8973733" lon="12.2624867"><ele>513.0</ele><time>2026-03-29T07:46:23.578Z</time></trkpt><trkpt lat="43.89745" lon="12.2622267"><ele>513.0</ele><time>2026-03-29T07:46:24.578Z</time></trkpt><trkpt lat="43.8975383" lon="12.2619833"><ele>517.3333333333334</ele><time>2026-03-29T07:46:25.578Z</time></trkpt><trkpt lat="43.8976383" lon="12.26175"><ele>521.6666666666667</ele><time>2026-03-29T07:46:26.578Z</time></trkpt><trkpt lat="43.89776" lon="12.2615183"><ele>526.0</ele><time>2026-03-29T07:46:27.578Z</time></trkpt><trkpt lat="43.897905" lon="12.2612933"><ele>526.0</ele><time>2026-03-29T07:46:28.578Z</time></trkpt><trkpt lat="43.8980667" lon="12.261085"><ele>526.0</ele><time>2026-03-29T07:46:29.578Z</time></trkpt><trkpt lat="43.89821" lon="12.2609017"><ele>526.0</ele><time>2026-03-29T07:46:30.577Z</time></trkpt><trkpt lat="43.89833" lon="12.260725"><ele>530.3333333333334</ele><time>2026-03-29T07:46:31.578Z</time></trkpt><trkpt lat="43.898425" lon="12.2605417"><ele>534.6666666666666</ele><time>2026-03-29T07:46:32.578Z</time></trkpt><trkpt lat="43.8984967" lon="12.2603283"><ele>539.0</ele><time>2026-03-29T07:46:33.577Z</time></trkpt><trkpt lat="43.8985433" lon="12.260095"><ele>539.0</ele><time>2026-03-29T07:46:34.577Z</time></trkpt><trkpt lat="43.898585" lon="12.2598183"><ele>539.0</ele><time>2026-03-29T07:46:35.577Z</time></trkpt><trkpt lat="43.89861" lon="12.259535"><ele>539.0</ele><time>2026-03-29T07:46:36.578Z</time></trkpt><trkpt lat="43.8986433" lon="12.2592667"><ele>540.0</ele><time>2026-03-29T07:46:37.578Z</time></trkpt><trkpt lat="43.89868" lon="12.2590033"><ele>541.0</ele><time>2026-03-29T07:46:38.578Z</time></trkpt><trkpt lat="43.8987183" lon="12.2587417"><ele>542.0</ele><time>2026-03-29T07:46:39.577Z</time></trkpt><trkpt lat="43.89875" lon="12.258505"><ele>542.0</ele><time>2026-03-29T07:46:40.578Z</time></trkpt><trkpt lat="43.898775" lon="12.2582933"><ele>542.0</ele><time>2026-03-29T07:46:41.578Z</time></trkpt><trkpt lat="43.8987933" lon="12.2580967"><ele>542.0</ele><time>2026-03-29T07:46:42.577Z</time></trkpt><trkpt lat="43.898785" lon="12.2578817"><ele>542.6666666666666</ele><time>2026-03-29T07:46:43.578Z</time></trkpt><trkpt lat="43.898745" lon="12.2576583"><ele>543.3333333333334</ele><time>2026-03-29T07:46:44.578Z</time></trkpt><trkpt lat="43.8986933" lon="12.25742"><ele>544.0</ele><time>2026-03-29T07:46:45.577Z</time></trkpt><trkpt lat="43.8986383" lon="12.2571733"><ele>545.0</ele><time>2026-03-29T07:46:46.578Z</time></trkpt><trkpt lat="43.898585" lon="12.256935"><ele>546.0</ele><time>2026-03-29T07:46:47.577Z</time></trkpt><trkpt lat="43.898535" lon="12.256695"><ele>547.0</ele><time>2026-03-29T07:46:48.578Z</time></trkpt><trkpt lat="43.8984833" lon="12.2564633"><ele>547.0</ele><time>2026-03-29T07:46:49.578Z</time></trkpt><trkpt lat="43.898435" lon="12.25625"><ele>547.0</ele><time>2026-03-29T07:46:50.578Z</time></trkpt><trkpt lat="43.8983883" lon="12.2560617"><ele>547.0</ele><time>2026-03-29T07:46:51.578Z</time></trkpt><trkpt lat="43.8983417" lon="12.255895"><ele>547.0</ele><time>2026-03-29T07:46:52.578Z</time></trkpt><trkpt lat="43.8982783" lon="12.25576"><ele>547.75</ele><time>2026-03-29T07:46:53.577Z</time></trkpt><trkpt lat="43.89818" lon="12.2556583"><ele>548.5</ele><time>2026-03-29T07:46:54.578Z</time></trkpt><trkpt lat="43.8980617" lon="12.2556117"><ele>549.25</ele><time>2026-03-29T07:46:55.578Z</time></trkpt><trkpt lat="43.8979267" lon="12.2556333"><ele>550.0</ele><time>2026-03-29T07:46:56.577Z</time></trkpt><trkpt lat="43.8977967" lon="12.2557"><ele>549.6</ele><time>2026-03-29T07:46:57.578Z</time></trkpt><trkpt lat="43.8976883" lon="12.2557617"><ele>549.2</ele><time>2026-03-29T07:46:58.578Z</time></trkpt><trkpt lat="43.897595" lon="12.2557633"><ele>548.8</ele><time>2026-03-29T07:46:59.578Z</time></trkpt><trkpt lat="43.8975067" lon="12.25571"><ele>548.4</ele><time>2026-03-29T07:47:00.578Z</time></trkpt><trkpt lat="43.8974483" lon="12.255615"><ele>548.0</ele><time>2026-03-29T07:47:01.577Z</time></trkpt><trkpt lat="43.8974217" lon="12.2554783"><ele>548.0</ele><time>2026-03-29T07:47:02.577Z</time></trkpt><trkpt lat="43.8974217" lon="12.255335"><ele>548.0</ele><time>2026-03-29T07:47:03.578Z</time></trkpt><trkpt lat="43.8974717" lon="12.2552133"><ele>548.0</ele><time>2026-03-29T07:47:04.578Z</time></trkpt><trkpt lat="43.897555" lon="12.25513"><ele>548.0</ele><time>2026-03-29T07:47:05.578Z</time></trkpt><trkpt lat="43.8976717" lon="12.255095"><ele>548.0</ele><time>2026-03-29T07:47:06.578Z</time></trkpt><trkpt lat="43.8978167" lon="12.2551"><ele>548.6666666666666</ele><time>2026-03-29T07:47:07.577Z</time></trkpt><trkpt lat="43.8979833" lon="12.2551333"><ele>549.3333333333334</ele><time>2026-03-29T07:47:08.578Z</time></trkpt><trkpt lat="43.8981533" lon="12.25516"><ele>550.0</ele><time>2026-03-29T07:47:09.578Z</time></trkpt><trkpt lat="43.8983417" lon="12.2551467"><ele>550.3333333333334</ele><time>2026-03-29T07:47:10.577Z</time></trkpt><trkpt lat="43.89854" lon="12.2550917"><ele>550.6666666666666</ele><time>2026-03-29T07:47:11.578Z</time></trkpt><trkpt lat="43.898725" lon="12.2550017"><ele>551.0</ele><time>2026-03-29T07:47:12.577Z</time></trkpt><trkpt lat="43.89892" lon="12.2548617"><ele>555.0</ele><time>2026-03-29T07:47:13.577Z</time></trkpt><trkpt lat="43.8991217" lon="12.2546867"><ele>559.0</ele><time>2026-03-29T07:47:14.577Z</time></trkpt><trkpt lat="43.8993367" lon="12.254485"><ele>561.0</ele><time>2026-03-29T07:47:15.578Z</time></trkpt><trkpt lat="43.8995367" lon="12.2543033"><ele>563.0</ele><time>2026-03-29T07:47:16.578Z</time></trkpt><trkpt lat="43.8997133" lon="12.2541467"><ele>565.0</ele><time>2026-03-29T07:47:17.577Z</time></trkpt><trkpt lat="43.8998683" lon="12.2539917"><ele>568.3333333333334</ele><time>2026-03-29T07:47:18.578Z</time></trkpt><trkpt lat="43.90001" lon="12.253875"><ele>571.6666666666666</ele><time>2026-03-29T07:47:19.578Z</time></trkpt><trkpt lat="43.900155" lon="12.2537883"><ele>575.0</ele><time>2026-03-29T07:47:20.578Z</time></trkpt><trkpt lat="43.90032" lon="12.2537417"><ele>576.0</ele><time>2026-03-29T07:47:21.577Z</time></trkpt><trkpt lat="43.9004717" lon="12.253755"><ele>577.0</ele><time>2026-03-29T07:47:22.578Z</time></trkpt><trkpt lat="43.90061" lon="12.2537733"><ele>578.0</ele><time>2026-03-29T07:47:23.577Z</time></trkpt><trkpt lat="43.9007367" lon="12.25377"><ele>579.0</ele><time>2026-03-29T07:47:24.578Z</time></trkpt><trkpt lat="43.90084" lon="12.2537033"><ele>585.0</ele><time>2026-03-29T07:47:25.578Z</time></trkpt><trkpt lat="43.90092" lon="12.253595"><ele>591.0</ele><time>2026-03-29T07:47:26.577Z</time></trkpt><trkpt lat="43.90097" lon="12.253445"><ele>597.0</ele><time>2026-03-29T07:47:27.578Z</time></trkpt><trkpt lat="43.900975" lon="12.2532617"><ele>603.0</ele><time>2026-03-29T07:47:28.577Z</time></trkpt><trkpt lat="43.900945" lon="12.2530733"><ele>598.0</ele><time>2026-03-29T07:47:29.578Z</time></trkpt><trkpt lat="43.9008983" lon="12.25291"><ele>593.0</ele><time>2026-03-29T07:47:30.578Z</time></trkpt><trkpt lat="43.9008367" lon="12.25276"><ele>588.0</ele><time>2026-03-29T07:47:31.577Z</time></trkpt><trkpt lat="43.9007367" lon="12.2526667"><ele>583.0</ele><time>2026-03-29T07:47:32.578Z</time></trkpt><trkpt lat="43.900615" lon="12.2526167"><ele>583.0</ele><time>2026-03-29T07:47:33.578Z</time></trkpt><trkpt lat="43.9004717" lon="12.2526133"><ele>583.0</ele><time>2026-03-29T07:47:34.578Z</time></trkpt><trkpt lat="43.9003317" lon="12.252625"><ele>583.0</ele><time>2026-03-29T07:47:35.577Z</time></trkpt><trkpt lat="43.9001767" lon="12.25261"><ele>583.0</ele><time>2026-03-29T07:47:36.578Z</time></trkpt><trkpt lat="43.900015" lon="12.2525417"><ele>582.0</ele><time>2026-03-29T07:47:37.578Z</time></trkpt><trkpt lat="43.899835" lon="12.2524283"><ele>581.0</ele><time>2026-03-29T07:47:38.577Z</time></trkpt><trkpt lat="43.899635" lon="12.2523117"><ele>580.0</ele><time>2026-03-29T07:47:39.578Z</time></trkpt><trkpt lat="43.8994383" lon="12.2522233"><ele>583.3333333333334</ele><time>2026-03-29T07:47:40.578Z</time></trkpt><trkpt lat="43.8992617" lon="12.25216"><ele>586.6666666666666</ele><time>2026-03-29T07:47:41.578Z</time></trkpt><trkpt lat="43.8991117" lon="12.2521017"><ele>590.0</ele><time>2026-03-29T07:47:42.578Z</time></trkpt><trkpt lat="43.8989933" lon="12.2520383"><ele>591.0</ele><time>2026-03-29T07:47:43.578Z</time></trkpt><trkpt lat="43.8989067" lon="12.251945"><ele>592.0</ele><time>2026-03-29T07:47:44.577Z</time></trkpt><trkpt lat="43.8988567" lon="12.2518367"><ele>593.0</ele><time>2026-03-29T07:47:45.578Z</time></trkpt><trkpt lat="43.8988517" lon="12.2517083"><ele>594.0</ele><time>2026-03-29T07:47:46.578Z</time></trkpt><trkpt lat="43.8988767" lon="12.2515917"><ele>595.0</ele><time>2026-03-29T07:47:47.578Z</time></trkpt><trkpt lat="43.89895" lon="12.2514867"><ele>595.8</ele><time>2026-03-29T07:47:48.578Z</time></trkpt><trkpt lat="43.8990433" lon="12.251395"><ele>596.6</ele><time>2026-03-29T07:47:49.578Z</time></trkpt><trkpt lat="43.8991267" lon="12.2513017"><ele>597.4</ele><time>2026-03-29T07:47:50.578Z</time></trkpt><trkpt lat="43.899215" lon="12.2512283"><ele>598.2</ele><time>2026-03-29T07:47:51.578Z</time></trkpt><trkpt lat="43.8992983" lon="12.2511567"><ele>599.0</ele><time>2026-03-29T07:47:52.577Z</time></trkpt><trkpt lat="43.8993817" lon="12.25109"><ele>599.0</ele><time>2026-03-29T07:47:53.577Z</time></trkpt><trkpt lat="43.8994717" lon="12.251015"><ele>599.0</ele><time>2026-03-29T07:47:54.578Z</time></trkpt><trkpt lat="43.8995733" lon="12.2509167"><ele>599.0</ele><time>2026-03-29T07:47:55.577Z</time></trkpt><trkpt lat="43.8996883" lon="12.2508167"><ele>599.0</ele><time>2026-03-29T07:47:56.578Z</time></trkpt><trkpt lat="43.899815" lon="12.2506983"><ele>601.5</ele><time>2026-03-29T07:47:57.578Z</time></trkpt><trkpt lat="43.899945" lon="12.2505733"><ele>604.0</ele><time>2026-03-29T07:47:58.577Z</time></trkpt><trkpt lat="43.900065" lon="12.25045"><ele>606.5</ele><time>2026-03-29T07:47:59.577Z</time></trkpt><trkpt lat="43.9001717" lon="12.250335"><ele>609.0</ele><time>2026-03-29T07:48:00.577Z</time></trkpt><trkpt lat="43.9002683" lon="12.2502083"><ele>609.0</ele><time>2026-03-29T07:48:01.577Z</time></trkpt><trkpt lat="43.9003383" lon="12.2500667"><ele>609.0</ele><time>2026-03-29T07:48:02.578Z</time></trkpt><trkpt lat="43.9003717" lon="12.249905"><ele>609.0</ele><time>2026-03-29T07:48:03.577Z</time></trkpt><trkpt lat="43.9003567" lon="12.2497317"><ele>609.0</ele><time>2026-03-29T07:48:04.577Z</time></trkpt><trkpt lat="43.9003033" lon="12.2495867"><ele>612.0</ele><time>2026-03-29T07:48:05.578Z</time></trkpt><trkpt lat="43.9002117" lon="12.2494783"><ele>615.0</ele><time>2026-03-29T07:48:06.577Z</time></trkpt><trkpt lat="43.900105" lon="12.249395"><ele>618.0</ele><time>2026-03-29T07:48:07.577Z</time></trkpt><trkpt lat="43.899985" lon="12.249365"><ele>621.0</ele><time>2026-03-29T07:48:08.577Z</time></trkpt><trkpt lat="43.8998517" lon="12.2493833"><ele>622.0</ele><time>2026-03-29T07:48:09.577Z</time></trkpt><trkpt lat="43.89971" lon="12.2494267"><ele>623.0</ele><time>2026-03-29T07:48:10.578Z</time></trkpt><trkpt lat="43.899565" lon="12.2494833"><ele>624.0</ele><time>2026-03-29T07:48:11.578Z</time></trkpt><trkpt lat="43.8994017" lon="12.2495483"><ele>626.6666666666666</ele><time>2026-03-29T07:48:12.578Z</time></trkpt><trkpt lat="43.8992483" lon="12.2495917"><ele>629.3333333333333</ele><time>2026-03-29T07:48:13.578Z</time></trkpt><trkpt lat="43.8991033" lon="12.2496383"><ele>632.0</ele><time>2026-03-29T07:48:14.577Z</time></trkpt><trkpt lat="43.89896" lon="12.2496983"><ele>632.0</ele><time>2026-03-29T07:48:15.578Z</time></trkpt><trkpt lat="43.89883" lon="12.2497483"><ele>632.0</ele><time>2026-03-29T07:48:16.578Z</time></trkpt><trkpt lat="43.898705" lon="12.2497933"><ele>632.0</ele><time>2026-03-29T07:48:17.577Z</time></trkpt><trkpt lat="43.89859" lon="12.2498417"><ele>632.0</ele><time>2026-03-29T07:48:18.578Z</time></trkpt><trkpt lat="43.8984883" lon="12.2498667"><ele>631.0</ele><time>2026-03-29T07:48:19.578Z</time></trkpt><trkpt lat="43.8983967" lon="12.249865"><ele>630.0</ele><time>2026-03-29T07:48:20.578Z</time></trkpt><trkpt lat="43.8983133" lon="12.24981"><ele>629.0</ele><time>2026-03-29T07:48:21.579Z</time></trkpt><trkpt lat="43.898245" lon="12.2497083"><ele>628.0</ele><time>2026-03-29T07:48:22.579Z</time></trkpt><trkpt lat="43.8982117" lon="12.24958"><ele>627.0</ele><time>2026-03-29T07:48:23.579Z</time></trkpt><trkpt lat="43.8982133" lon="12.2494533"><ele>628.0</ele><time>2026-03-29T07:48:24.579Z</time></trkpt><trkpt lat="43.8982483" lon="12.2493283"><ele>629.0</ele><time>2026-03-29T07:48:25.578Z</time></trkpt><trkpt lat="43.898305" lon="12.249235"><ele>630.0</ele><time>2026-03-29T07:48:26.578Z</time></trkpt><trkpt lat="43.8983867" lon="12.24917"><ele>631.0</ele><time>2026-03-29T07:48:27.578Z</time></trkpt><trkpt lat="43.89848" lon="12.2491333"><ele>632.0</ele><time>2026-03-29T07:48:28.579Z</time></trkpt><trkpt lat="43.8985767" lon="12.2491383"><ele>632.0</ele><time>2026-03-29T07:48:29.578Z</time></trkpt><trkpt lat="43.89867" lon="12.2491517"><ele>632.0</ele><time>2026-03-29T07:48:30.579Z</time></trkpt><trkpt lat="43.8987517" lon="12.24916"><ele>632.0</ele><time>2026-03-29T07:48:31.579Z</time></trkpt><trkpt lat="43.89883" lon="12.2491667"><ele>632.0</ele><time>2026-03-29T07:48:32.578Z</time></trkpt><trkpt lat="43.898905" lon="12.2491633"><ele>632.0</ele><time>2026-03-29T07:48:33.579Z</time></trkpt><trkpt lat="43.898975" lon="12.2491333"><ele>632.0</ele><time>2026-03-29T07:48:34.579Z</time></trkpt><trkpt lat="43.899045" lon="12.249075"><ele>632.0</ele><time>2026-03-29T07:48:35.579Z</time></trkpt><trkpt lat="43.8990917" lon="12.2489917"><ele>632.0</ele><time>2026-03-29T07:48:36.578Z</time></trkpt><trkpt lat="43.8991267" lon="12.248875"><ele>632.0</ele><time>2026-03-29T07:48:37.578Z</time></trkpt><trkpt lat="43.8991417" lon="12.24875"><ele>632.0</ele><time>2026-03-29T07:48:38.579Z</time></trkpt><trkpt lat="43.8991217" lon="12.2486417"><ele>632.0</ele><time>2026-03-29T07:48:39.579Z</time></trkpt><trkpt lat="43.8990767" lon="12.2485483"><ele>632.0</ele><time>2026-03-29T07:48:40.579Z</time></trkpt><trkpt lat="43.899" lon="12.248465"><ele>633.6</ele><time>2026-03-29T07:48:41.578Z</time></trkpt><trkpt lat="43.8988983" lon="12.2484333"><ele>635.2</ele><time>2026-03-29T07:48:42.579Z</time></trkpt><trkpt lat="43.8988083" lon="12.248425"><ele>636.8</ele><time>2026-03-29T07:48:43.579Z</time></trkpt><trkpt lat="43.89872" lon="12.2484817"><ele>638.4</ele><time>2026-03-29T07:48:44.578Z</time></trkpt><trkpt lat="43.8986417" lon="12.2485733"><ele>640.0</ele><time>2026-03-29T07:48:45.579Z</time></trkpt><trkpt lat="43.89858" lon="12.2486683"><ele>640.0</ele><time>2026-03-29T07:48:46.579Z</time></trkpt><trkpt lat="43.8985083" lon="12.24875"><ele>640.0</ele><time>2026-03-29T07:48:47.578Z</time></trkpt><trkpt lat="43.8984217" lon="12.24879"><ele>640.0</ele><time>2026-03-29T07:48:48.579Z</time></trkpt><trkpt lat="43.89833" lon="12.2487733"><ele>640.0</ele><time>2026-03-29T07:48:49.579Z</time></trkpt><trkpt lat="43.8982483" lon="12.2487183"><ele>640.0</ele><time>2026-03-29T07:48:50.578Z</time></trkpt><trkpt lat="43.8981867" lon="12.2486133"><ele>641.3333333333334</ele><time>2026-03-29T07:48:51.578Z</time></trkpt><trkpt lat="43.8981467" lon="12.2485033"><ele>642.6666666666667</ele><time>2026-03-29T07:48:52.579Z</time></trkpt><trkpt lat="43.8981417" lon="12.24838"><ele>644.0</ele><time>2026-03-29T07:48:53.579Z</time></trkpt><trkpt lat="43.898165" lon="12.2482683"><ele>645.3333333333334</ele><time>2026-03-29T07:48:54.579Z</time></trkpt><trkpt lat="43.898215" lon="12.248185"><ele>646.6666666666666</ele><time>2026-03-29T07:48:55.579Z</time></trkpt><trkpt lat="43.8983033" lon="12.24813"><ele>648.0</ele><time>2026-03-29T07:48:56.578Z</time></trkpt><trkpt lat="43.8984017" lon="12.2481083"><ele>649.0</ele><time>2026-03-29T07:48:57.579Z</time></trkpt><trkpt lat="43.8985067" lon="12.248115"><ele>650.0</ele><time>2026-03-29T07:48:58.579Z</time></trkpt><trkpt lat="43.898605" lon="12.2481233"><ele>651.0</ele><time>2026-03-29T07:48:59.578Z</time></trkpt><trkpt lat="43.8986917" lon="12.248105"><ele>652.0</ele><time>2026-03-29T07:49:00.578Z</time></trkpt><trkpt lat="43.8987767" lon="12.24805"><ele>653.0</ele><time>2026-03-29T07:49:01.579Z</time></trkpt><trkpt lat="43.898845" lon="12.2479633"><ele>653.0</ele><time>2026-03-29T07:49:02.578Z</time></trkpt><trkpt lat="43.89889" lon="12.2478533"><ele>653.0</ele><time>2026-03-29T07:49:03.578Z</time></trkpt><trkpt lat="43.8989067" lon="12.2477333"><ele>653.0</ele><time>2026-03-29T07:49:04.578Z</time></trkpt><trkpt lat="43.898885" lon="12.2476183"><ele>653.0</ele><time>2026-03-29T07:49:05.578Z</time></trkpt><trkpt lat="43.8988417" lon="12.2475167"><ele>653.0</ele><time>2026-03-29T07:49:06.579Z</time></trkpt><trkpt lat="43.898775" lon="12.247435"><ele>653.0</ele><time>2026-03-29T07:49:07.579Z</time></trkpt><trkpt lat="43.8986867" lon="12.2473917"><ele>653.0</ele><time>2026-03-29T07:49:08.579Z</time></trkpt><trkpt lat="43.8985983" lon="12.2473767"><ele>653.0</ele><time>2026-03-29T07:49:09.578Z</time></trkpt><trkpt lat="43.8985167" lon="12.24739"><ele>653.0</ele><time>2026-03-29T07:49:10.578Z</time></trkpt><trkpt lat="43.8984333" lon="12.2474033"><ele>653.0</ele><time>2026-03-29T07:49:11.579Z</time></trkpt><trkpt lat="43.8983533" lon="12.2473917"><ele>653.0</ele><time>2026-03-29T07:49:12.578Z</time></trkpt><trkpt lat="43.8982817" lon="12.2473517"><ele>653.0</ele><time>2026-03-29T07:49:13.579Z</time></trkpt><trkpt lat="43.89822" lon="12.24729"><ele>653.5999999999999</ele><time>2026-03-29T07:49:14.578Z</time></trkpt><trkpt lat="43.89816" lon="12.2472167"><ele>654.1999999999999</ele><time>2026-03-29T07:49:15.578Z</time></trkpt><trkpt lat="43.8981" lon="12.2471483"><ele>654.8</ele><time>2026-03-29T07:49:16.578Z</time></trkpt><trkpt lat="43.8980333" lon="12.247075"><ele>655.4</ele><time>2026-03-29T07:49:17.579Z</time></trkpt><trkpt lat="43.8979383" lon="12.2470083"><ele>656.0</ele><time>2026-03-29T07:49:18.579Z</time></trkpt><trkpt lat="43.8978217" lon="12.2469483"><ele>656.0</ele><time>2026-03-29T07:49:19.579Z</time></trkpt><trkpt lat="43.897685" lon="12.2468983"><ele>656.0</ele><time>2026-03-29T07:49:20.579Z</time></trkpt><trkpt lat="43.8975233" lon="12.246845"><ele>656.0</ele><time>2026-03-29T07:49:21.578Z</time></trkpt><trkpt lat="43.8973533" lon="12.2467667"><ele>655.6666666666666</ele><time>2026-03-29T07:49:22.578Z</time></trkpt><trkpt lat="43.8971683" lon="12.2466733"><ele>655.3333333333334</ele><time>2026-03-29T07:49:23.579Z</time></trkpt><trkpt lat="43.896975" lon="12.246585"><ele>655.0</ele><time>2026-03-29T07:49:24.579Z</time></trkpt><trkpt lat="43.8967817" lon="12.2464917"><ele>657.5</ele><time>2026-03-29T07:49:25.579Z</time></trkpt><trkpt lat="43.8965733" lon="12.2463967"><ele>660.0</ele><time>2026-03-29T07:49:26.578Z</time></trkpt><trkpt lat="43.8963567" lon="12.2462817"><ele>660.0</ele><time>2026-03-29T07:49:27.579Z</time></trkpt><trkpt lat="43.8961633" lon="12.246145"><ele>660.0</ele><time>2026-03-29T07:49:28.579Z</time></trkpt><trkpt lat="43.8959833" lon="12.24601"><ele>660.0</ele><time>2026-03-29T07:49:29.579Z</time></trkpt><trkpt lat="43.8958033" lon="12.245895"><ele>661.3333333333334</ele><time>2026-03-29T07:49:30.579Z</time></trkpt><trkpt lat="43.8956133" lon="12.2457983"><ele>662.6666666666667</ele><time>2026-03-29T07:49:31.578Z</time></trkpt><trkpt lat="43.8954167" lon="12.2457033"><ele>664.0</ele><time>2026-03-29T07:49:32.579Z</time></trkpt><trkpt lat="43.8952" lon="12.2456233"><ele>670.3333333333334</ele><time>2026-03-29T07:49:33.578Z</time></trkpt><trkpt lat="43.894985" lon="12.2455367"><ele>676.6666666666666</ele><time>2026-03-29T07:49:34.578Z</time></trkpt><trkpt lat="43.8947867" lon="12.2454617"><ele>683.0</ele><time>2026-03-29T07:49:35.579Z</time></trkpt><trkpt lat="43.8945983" lon="12.24539"><ele>683.0</ele><time>2026-03-29T07:49:36.578Z</time></trkpt><trkpt lat="43.89442" lon="12.2453367"><ele>683.0</ele><time>2026-03-29T07:49:37.579Z</time></trkpt><trkpt lat="43.8942317" lon="12.2453033"><ele>683.0</ele><time>2026-03-29T07:49:38.579Z</time></trkpt><trkpt lat="43.8940367" lon="12.2453"><ele>685.0</ele><time>2026-03-29T07:49:39.579Z</time></trkpt><trkpt lat="43.8938317" lon="12.2453233"><ele>687.0</ele><time>2026-03-29T07:49:40.579Z</time></trkpt><trkpt lat="43.8936583" lon="12.24535"><ele>689.0</ele><time>2026-03-29T07:49:41.579Z</time></trkpt><trkpt lat="43.89349" lon="12.2453717"><ele>692.0</ele><time>2026-03-29T07:49:42.579Z</time></trkpt><trkpt lat="43.893335" lon="12.245395"><ele>695.0</ele><time>2026-03-29T07:49:43.578Z</time></trkpt><trkpt lat="43.893005" lon="12.2453283"><ele>695.0</ele><time>2026-03-29T07:49:45.056Z</time></trkpt><trkpt lat="43.8929267" lon="12.2453333"><ele>695.0</ele><time>2026-03-29T07:49:46.43Z</time></trkpt><trkpt lat="43.8927567" lon="12.2453017"><ele>695.0</ele><time>2026-03-29T07:49:47.575Z</time></trkpt><trkpt lat="43.8926317" lon="12.2452667"><ele>695.0</ele><time>2026-03-29T07:49:48.575Z</time></trkpt><trkpt lat="43.8925017" lon="12.245255"><ele>696.75</ele><time>2026-03-29T07:49:49.575Z</time></trkpt><trkpt lat="43.89237" lon="12.2453017"><ele>698.5</ele><time>2026-03-29T07:49:50.575Z</time></trkpt><trkpt lat="43.8922317" lon="12.2453783"><ele>700.25</ele><time>2026-03-29T07:49:51.575Z</time></trkpt><trkpt lat="43.8921" lon="12.24543"><ele>702.0</ele><time>2026-03-29T07:49:52.574Z</time></trkpt><trkpt lat="43.891945" lon="12.2454833"><ele>702.0</ele><time>2026-03-29T07:49:53.575Z</time></trkpt><trkpt lat="43.8917917" lon="12.2455217"><ele>702.0</ele><time>2026-03-29T07:49:54.575Z</time></trkpt><trkpt lat="43.8916533" lon="12.24554"><ele>702.0</ele><time>2026-03-29T07:49:55.575Z</time></trkpt><trkpt lat="43.8915233" lon="12.24554"><ele>702.0</ele><time>2026-03-29T07:49:56.574Z</time></trkpt><trkpt lat="43.8913883" lon="12.2454833"><ele>704.0</ele><time>2026-03-29T07:49:57.575Z</time></trkpt><trkpt lat="43.891255" lon="12.2453783"><ele>706.0</ele><time>2026-03-29T07:49:58.574Z</time></trkpt><trkpt lat="43.8911283" lon="12.2452783"><ele>708.0</ele><time>2026-03-29T07:49:59.574Z</time></trkpt><trkpt lat="43.8910033" lon="12.245205"><ele>710.0</ele><time>2026-03-29T07:50:00.575Z</time></trkpt><trkpt lat="43.8908867" lon="12.2451633"><ele>710.75</ele><time>2026-03-29T07:50:01.575Z</time></trkpt><trkpt lat="43.89077" lon="12.24518"><ele>711.5</ele><time>2026-03-29T07:50:02.575Z</time></trkpt><trkpt lat="43.8906383" lon="12.2452433"><ele>712.25</ele><time>2026-03-29T07:50:03.575Z</time></trkpt><trkpt lat="43.8905183" lon="12.2453517"><ele>713.0</ele><time>2026-03-29T07:50:04.575Z</time></trkpt><trkpt lat="43.8904033" lon="12.2455017"><ele>713.6666666666666</ele><time>2026-03-29T07:50:05.574Z</time></trkpt><trkpt lat="43.890275" lon="12.2456817"><ele>714.3333333333334</ele><time>2026-03-29T07:50:06.575Z</time></trkpt><trkpt lat="43.8901467" lon="12.2458367"><ele>715.0</ele><time>2026-03-29T07:50:07.575Z</time></trkpt><trkpt lat="43.89" lon="12.2459717"><ele>715.0</ele><time>2026-03-29T07:50:08.574Z</time></trkpt><trkpt lat="43.88985" lon="12.246075"><ele>715.0</ele><time>2026-03-29T07:50:09.576Z</time></trkpt><trkpt lat="43.88968" lon="12.246185"><ele>715.0</ele><time>2026-03-29T07:50:10.575Z</time></trkpt><trkpt lat="43.8894967" lon="12.2463033"><ele>715.0</ele><time>2026-03-29T07:50:11.576Z</time></trkpt><trkpt lat="43.8893067" lon="12.2464067"><ele>715.0</ele><time>2026-03-29T07:50:12.575Z</time></trkpt><trkpt lat="43.8891283" lon="12.2465233"><ele>715.0</ele><time>2026-03-29T07:50:13.576Z</time></trkpt><trkpt lat="43.8889633" lon="12.2466083"><ele>716.6666666666667</ele><time>2026-03-29T07:50:14.575Z</time></trkpt><trkpt lat="43.8888" lon="12.2466617"><ele>718.3333333333334</ele><time>2026-03-29T07:50:15.576Z</time></trkpt><trkpt lat="43.888645" lon="12.2467133"><ele>720.0</ele><time>2026-03-29T07:50:16.575Z</time></trkpt><trkpt lat="43.8884833" lon="12.24675"><ele>723.6666666666666</ele><time>2026-03-29T07:50:17.576Z</time></trkpt><trkpt lat="43.88832" lon="12.246785"><ele>727.3333333333333</ele><time>2026-03-29T07:50:18.575Z</time></trkpt><trkpt lat="43.8881583" lon="12.2468"><ele>731.0</ele><time>2026-03-29T07:50:19.576Z</time></trkpt><trkpt lat="43.888005" lon="12.2468183"><ele>731.0</ele><time>2026-03-29T07:50:20.576Z</time></trkpt><trkpt lat="43.887845" lon="12.2468617"><ele>731.0</ele><time>2026-03-29T07:50:21.576Z</time></trkpt><trkpt lat="43.8876817" lon="12.2469283"><ele>731.0</ele><time>2026-03-29T07:50:22.576Z</time></trkpt><trkpt lat="43.8875117" lon="12.2470233"><ele>729.3333333333333</ele><time>2026-03-29T07:50:23.575Z</time></trkpt><trkpt lat="43.8873367" lon="12.2471333"><ele>727.6666666666666</ele><time>2026-03-29T07:50:24.576Z</time></trkpt><trkpt lat="43.8871583" lon="12.2472483"><ele>726.0</ele><time>2026-03-29T07:50:25.575Z</time></trkpt><trkpt lat="43.8869883" lon="12.2473517"><ele>725.6666666666666</ele><time>2026-03-29T07:50:26.576Z</time></trkpt><trkpt lat="43.8868133" lon="12.2474483"><ele>725.3333333333333</ele><time>2026-03-29T07:50:27.576Z</time></trkpt><trkpt lat="43.8866333" lon="12.2475267"><ele>725.0</ele><time>2026-03-29T07:50:28.576Z</time></trkpt><trkpt lat="43.8864533" lon="12.2475683"><ele>725.0</ele><time>2026-03-29T07:50:29.576Z</time></trkpt><trkpt lat="43.886285" lon="12.2476"><ele>725.0</ele><time>2026-03-29T07:50:30.576Z</time></trkpt><trkpt lat="43.8861283" lon="12.2476267"><ele>725.0</ele><time>2026-03-29T07:50:31.576Z</time></trkpt><trkpt lat="43.8859783" lon="12.2476633"><ele>728.0</ele><time>2026-03-29T07:50:32.576Z</time></trkpt><trkpt lat="43.88584" lon="12.24774"><ele>731.0</ele><time>2026-03-29T07:50:33.576Z</time></trkpt><trkpt lat="43.8857133" lon="12.2478583"><ele>734.0</ele><time>2026-03-29T07:50:34.575Z</time></trkpt><trkpt lat="43.885605" lon="12.248"><ele>734.5</ele><time>2026-03-29T07:50:35.575Z</time></trkpt><trkpt lat="43.8855083" lon="12.2481267"><ele>735.0</ele><time>2026-03-29T07:50:36.575Z</time></trkpt><trkpt lat="43.8854183" lon="12.2482183"><ele>735.5</ele><time>2026-03-29T07:50:37.576Z</time></trkpt><trkpt lat="43.8853167" lon="12.24828"><ele>736.0</ele><time>2026-03-29T07:50:38.576Z</time></trkpt><trkpt lat="43.8852083" lon="12.2483067"><ele>736.0</ele><time>2026-03-29T07:50:39.576Z</time></trkpt><trkpt lat="43.8851" lon="12.2483"><ele>736.0</ele><time>2026-03-29T07:50:40.576Z</time></trkpt><trkpt lat="43.8849967" lon="12.24826"><ele>736.0</ele><time>2026-03-29T07:50:41.576Z</time></trkpt><trkpt lat="43.8848933" lon="12.248175"><ele>736.0</ele><time>2026-03-29T07:50:42.576Z</time></trkpt><trkpt lat="43.8848" lon="12.2480567"><ele>738.5</ele><time>2026-03-29T07:50:43.575Z</time></trkpt><trkpt lat="43.884705" lon="12.2479083"><ele>741.0</ele><time>2026-03-29T07:50:44.576Z</time></trkpt><trkpt lat="43.8846117" lon="12.247755"><ele>743.5</ele><time>2026-03-29T07:50:45.576Z</time></trkpt><trkpt lat="43.88452" lon="12.2476083"><ele>746.0</ele><time>2026-03-29T07:50:46.576Z</time></trkpt><trkpt lat="43.88444" lon="12.2474883"><ele>746.0</ele><time>2026-03-29T07:50:47.575Z</time></trkpt><trkpt lat="43.8843717" lon="12.24739"><ele>746.0</ele><time>2026-03-29T07:50:48.576Z</time></trkpt><trkpt lat="43.884295" lon="12.2473167"><ele>746.0</ele><time>2026-03-29T07:50:49.576Z</time></trkpt><trkpt lat="43.884215" lon="12.2472783"><ele>746.0</ele><time>2026-03-29T07:50:50.576Z</time></trkpt><trkpt lat="43.884135" lon="12.2472733"><ele>746.0</ele><time>2026-03-29T07:50:51.576Z</time></trkpt><trkpt lat="43.8840433" lon="12.2473133"><ele>747.5999999999999</ele><time>2026-03-29T07:50:52.575Z</time></trkpt><trkpt lat="43.8839433" lon="12.24738"><ele>749.2</ele><time>2026-03-29T07:50:53.576Z</time></trkpt><trkpt lat="43.88385" lon="12.2474717"><ele>750.8</ele><time>2026-03-29T07:50:54.576Z</time></trkpt><trkpt lat="43.8837583" lon="12.2475633"><ele>752.4000000000001</ele><time>2026-03-29T07:50:55.576Z</time></trkpt><trkpt lat="43.88367" lon="12.2476533"><ele>754.0</ele><time>2026-03-29T07:50:56.576Z</time></trkpt><trkpt lat="43.88358" lon="12.2477333"><ele>754.0</ele><time>2026-03-29T07:50:57.575Z</time></trkpt><trkpt lat="43.883485" lon="12.2477967"><ele>754.0</ele><time>2026-03-29T07:50:58.576Z</time></trkpt><trkpt lat="43.8833917" lon="12.2478533"><ele>754.0</ele><time>2026-03-29T07:50:59.576Z</time></trkpt><trkpt lat="43.8833033" lon="12.2479017"><ele>754.0</ele><time>2026-03-29T07:51:00.575Z</time></trkpt><trkpt lat="43.8832117" lon="12.2479233"><ele>754.0</ele><time>2026-03-29T07:51:01.576Z</time></trkpt><trkpt lat="43.8831217" lon="12.2479067"><ele>757.0</ele><time>2026-03-29T07:51:02.576Z</time></trkpt><trkpt lat="43.8830383" lon="12.2478483"><ele>760.0</ele><time>2026-03-29T07:51:03.576Z</time></trkpt><trkpt lat="43.88296" lon="12.24775"><ele>763.0</ele><time>2026-03-29T07:51:04.575Z</time></trkpt><trkpt lat="43.8828767" lon="12.2475967"><ele>766.0</ele><time>2026-03-29T07:51:05.575Z</time></trkpt><trkpt lat="43.8827883" lon="12.247385"><ele>764.3333333333334</ele><time>2026-03-29T07:51:06.575Z</time></trkpt><trkpt lat="43.882685" lon="12.24718"><ele>762.6666666666666</ele><time>2026-03-29T07:51:07.576Z</time></trkpt><trkpt lat="43.8826083" lon="12.2469883"><ele>761.0</ele><time>2026-03-29T07:51:08.576Z</time></trkpt><trkpt lat="43.88253" lon="12.2468267"><ele>761.0</ele><time>2026-03-29T07:51:09.576Z</time></trkpt><trkpt lat="43.88241" lon="12.2466983"><ele>761.0</ele><time>2026-03-29T07:51:10.575Z</time></trkpt><trkpt lat="43.8822617" lon="12.2465967"><ele>761.0</ele><time>2026-03-29T07:51:11.576Z</time></trkpt><trkpt lat="43.8820967" lon="12.246535"><ele>761.0</ele><time>2026-03-29T07:51:12.576Z</time></trkpt><trkpt lat="43.881915" lon="12.246505"><ele>761.0</ele><time>2026-03-29T07:51:13.575Z</time></trkpt><trkpt lat="43.8817483" lon="12.246505"><ele>761.0</ele><time>2026-03-29T07:51:14.576Z</time></trkpt><trkpt lat="43.8815933" lon="12.2464833"><ele>759.5</ele><time>2026-03-29T07:51:15.576Z</time></trkpt><trkpt lat="43.8814483" lon="12.2464433"><ele>758.0</ele><time>2026-03-29T07:51:16.575Z</time></trkpt><trkpt lat="43.8813083" lon="12.246385"><ele>756.5</ele><time>2026-03-29T07:51:17.575Z</time></trkpt><trkpt lat="43.881165" lon="12.2463033"><ele>755.0</ele><time>2026-03-29T07:51:18.576Z</time></trkpt><trkpt lat="43.8810167" lon="12.2461883"><ele>754.3333333333333</ele><time>2026-03-29T07:51:19.576Z</time></trkpt><trkpt lat="43.8808667" lon="12.2460533"><ele>753.6666666666666</ele><time>2026-03-29T07:51:20.576Z</time></trkpt><trkpt lat="43.8807033" lon="12.2459083"><ele>753.0</ele><time>2026-03-29T07:51:21.576Z</time></trkpt><trkpt lat="43.8805183" lon="12.2457583"><ele>752.6666666666666</ele><time>2026-03-29T07:51:22.575Z</time></trkpt><trkpt lat="43.880335" lon="12.2456"><ele>752.3333333333333</ele><time>2026-03-29T07:51:23.575Z</time></trkpt><trkpt lat="43.8801633" lon="12.245445"><ele>752.0</ele><time>2026-03-29T07:51:24.575Z</time></trkpt><trkpt lat="43.8799967" lon="12.2453033"><ele>752.0</ele><time>2026-03-29T07:51:25.576Z</time></trkpt><trkpt lat="43.87983" lon="12.2451667"><ele>752.0</ele><time>2026-03-29T07:51:26.575Z</time></trkpt><trkpt lat="43.87966" lon="12.245015"><ele>752.0</ele><time>2026-03-29T07:51:27.576Z</time></trkpt><trkpt lat="43.8794917" lon="12.24487"><ele>751.0</ele><time>2026-03-29T07:51:28.576Z</time></trkpt><trkpt lat="43.87933" lon="12.2447167"><ele>750.0</ele><time>2026-03-29T07:51:29.575Z</time></trkpt><trkpt lat="43.8791633" lon="12.24457"><ele>749.0</ele><time>2026-03-29T07:51:30.575Z</time></trkpt><trkpt lat="43.879" lon="12.2444283"><ele>749.0</ele><time>2026-03-29T07:51:31.576Z</time></trkpt><trkpt lat="43.87885" lon="12.2442983"><ele>749.0</ele><time>2026-03-29T07:51:32.576Z</time></trkpt><trkpt lat="43.87871" lon="12.2441883"><ele>749.0</ele><time>2026-03-29T07:51:33.576Z</time></trkpt><trkpt lat="43.8785767" lon="12.2440767"><ele>749.0</ele><time>2026-03-29T07:51:34.576Z</time></trkpt><trkpt lat="43.878455" lon="12.243975"><ele>749.0</ele><time>2026-03-29T07:51:35.576Z</time></trkpt><trkpt lat="43.8783233" lon="12.2438983"><ele>749.0</ele><time>2026-03-29T07:51:36.576Z</time></trkpt><trkpt lat="43.8781833" lon="12.243835"><ele>749.0</ele><time>2026-03-29T07:51:37.575Z</time></trkpt><trkpt lat="43.87803" lon="12.2438083"><ele>747.3333333333333</ele><time>2026-03-29T07:51:38.575Z</time></trkpt><trkpt lat="43.877865" lon="12.2438083"><ele>745.6666666666666</ele><time>2026-03-29T07:51:39.576Z</time></trkpt><trkpt lat="43.8776883" lon="12.243835"><ele>744.0</ele><time>2026-03-29T07:51:40.576Z</time></trkpt><trkpt lat="43.8775283" lon="12.2438583"><ele>742.6666666666666</ele><time>2026-03-29T07:51:41.576Z</time></trkpt><trkpt lat="43.877365" lon="12.2438733"><ele>741.3333333333333</ele><time>2026-03-29T07:51:42.576Z</time></trkpt><trkpt lat="43.8772017" lon="12.24386"><ele>740.0</ele><time>2026-03-29T07:51:43.576Z</time></trkpt><trkpt lat="43.87704" lon="12.2438117"><ele>740.0</ele><time>2026-03-29T07:51:44.575Z</time></trkpt><trkpt lat="43.876875" lon="12.243745"><ele>740.0</ele><time>2026-03-29T07:51:45.575Z</time></trkpt><trkpt lat="43.87672" lon="12.2436667"><ele>740.0</ele><time>2026-03-29T07:51:46.576Z</time></trkpt><trkpt lat="43.8765817" lon="12.2435883"><ele>741.75</ele><time>2026-03-29T07:51:47.576Z</time></trkpt><trkpt lat="43.8764517" lon="12.2434983"><ele>743.5</ele><time>2026-03-29T07:51:48.576Z</time></trkpt><trkpt lat="43.876325" lon="12.2433933"><ele>745.25</ele><time>2026-03-29T07:51:49.576Z</time></trkpt><trkpt lat="43.8762083" lon="12.2432783"><ele>747.0</ele><time>2026-03-29T07:51:50.576Z</time></trkpt><trkpt lat="43.8760967" lon="12.2431517"><ele>747.75</ele><time>2026-03-29T07:51:51.576Z</time></trkpt><trkpt lat="43.8759933" lon="12.2430167"><ele>748.5</ele><time>2026-03-29T07:51:52.576Z</time></trkpt><trkpt lat="43.8759" lon="12.242875"><ele>749.25</ele><time>2026-03-29T07:51:53.576Z</time></trkpt><trkpt lat="43.8758117" lon="12.242725"><ele>750.0</ele><time>2026-03-29T07:51:54.575Z</time></trkpt><trkpt lat="43.87573" lon="12.24257"><ele>750.0</ele><time>2026-03-29T07:51:55.575Z</time></trkpt><trkpt lat="43.8756567" lon="12.2424117"><ele>750.0</ele><time>2026-03-29T07:51:56.576Z</time></trkpt><trkpt lat="43.8755983" lon="12.242245"><ele>750.0</ele><time>2026-03-29T07:51:57.576Z</time></trkpt><trkpt lat="43.8755383" lon="12.2420767"><ele>750.0</ele><time>2026-03-29T07:51:58.575Z</time></trkpt><trkpt lat="43.8754867" lon="12.2419233"><ele>750.0</ele><time>2026-03-29T07:51:59.576Z</time></trkpt><trkpt lat="43.875445" lon="12.2417617"><ele>750.0</ele><time>2026-03-29T07:52:00.576Z</time></trkpt><trkpt lat="43.8754017" lon="12.241585"><ele>750.0</ele><time>2026-03-29T07:52:01.576Z</time></trkpt><trkpt lat="43.8753483" lon="12.2413767"><ele>750.0</ele><time>2026-03-29T07:52:02.575Z</time></trkpt><trkpt lat="43.8752933" lon="12.2411633"><ele>749.75</ele><time>2026-03-29T07:52:03.576Z</time></trkpt><trkpt lat="43.87524" lon="12.2409667"><ele>749.5</ele><time>2026-03-29T07:52:04.575Z</time></trkpt><trkpt lat="43.8751917" lon="12.2407767"><ele>749.25</ele><time>2026-03-29T07:52:05.575Z</time></trkpt><trkpt lat="43.875145" lon="12.2406067"><ele>749.0</ele><time>2026-03-29T07:52:06.575Z</time></trkpt><trkpt lat="43.8750983" lon="12.2404467"><ele>752.5</ele><time>2026-03-29T07:52:07.576Z</time></trkpt><trkpt lat="43.8750483" lon="12.24029"><ele>756.0</ele><time>2026-03-29T07:52:08.576Z</time></trkpt><trkpt lat="43.874985" lon="12.2401283"><ele>759.5</ele><time>2026-03-29T07:52:09.575Z</time></trkpt><trkpt lat="43.8749233" lon="12.2399883"><ele>763.0</ele><time>2026-03-29T07:52:10.575Z</time></trkpt><trkpt lat="43.8748633" lon="12.2398617"><ele>762.4</ele><time>2026-03-29T07:52:11.575Z</time></trkpt><trkpt lat="43.8748067" lon="12.2397433"><ele>761.8</ele><time>2026-03-29T07:52:12.576Z</time></trkpt><trkpt lat="43.87474" lon="12.239625"><ele>761.2</ele><time>2026-03-29T07:52:13.576Z</time></trkpt><trkpt lat="43.8746717" lon="12.2395033"><ele>760.6</ele><time>2026-03-29T07:52:14.576Z</time></trkpt><trkpt lat="43.8745983" lon="12.239375"><ele>760.0</ele><time>2026-03-29T07:52:15.576Z</time></trkpt><trkpt lat="43.87452" lon="12.2392383"><ele>760.0</ele><time>2026-03-29T07:52:16.576Z</time></trkpt><trkpt lat="43.8744433" lon="12.2391067"><ele>760.0</ele><time>2026-03-29T07:52:17.576Z</time></trkpt><trkpt lat="43.8743667" lon="12.2389783"><ele>760.0</ele><time>2026-03-29T07:52:18.576Z</time></trkpt><trkpt lat="43.8742817" lon="12.2388583"><ele>760.0</ele><time>2026-03-29T07:52:19.575Z</time></trkpt><trkpt lat="43.8741833" lon="12.238755"><ele>762.0</ele><time>2026-03-29T07:52:20.576Z</time></trkpt><trkpt lat="43.8740883" lon="12.23865"><ele>764.0</ele><time>2026-03-29T07:52:21.576Z</time></trkpt><trkpt lat="43.8739883" lon="12.2385567"><ele>766.0</ele><time>2026-03-29T07:52:22.575Z</time></trkpt><trkpt lat="43.873885" lon="12.2384617"><ele>768.0</ele><time>2026-03-29T07:52:23.576Z</time></trkpt><trkpt lat="43.8737633" lon="12.2383583"><ele>768.0</ele><time>2026-03-29T07:52:24.576Z</time></trkpt><trkpt lat="43.8736417" lon="12.2382417"><ele>768.0</ele><time>2026-03-29T07:52:25.575Z</time></trkpt><trkpt lat="43.8735183" lon="12.2381183"><ele>768.0</ele><time>2026-03-29T07:52:26.575Z</time></trkpt><trkpt lat="43.873395" lon="12.2379783"><ele>770.3333333333333</ele><time>2026-03-29T07:52:27.576Z</time></trkpt><trkpt lat="43.8732733" lon="12.237835"><ele>772.6666666666666</ele><time>2026-03-29T07:52:28.576Z</time></trkpt><trkpt lat="43.87315" lon="12.23768"><ele>775.0</ele><time>2026-03-29T07:52:29.576Z</time></trkpt><trkpt lat="43.8730333" lon="12.23752"><ele>775.0</ele><time>2026-03-29T07:52:30.576Z</time></trkpt><trkpt lat="43.8729283" lon="12.2373633"><ele>775.0</ele><time>2026-03-29T07:52:31.576Z</time></trkpt><trkpt lat="43.8728233" lon="12.23721"><ele>775.0</ele><time>2026-03-29T07:52:32.576Z</time></trkpt><trkpt lat="43.8727067" lon="12.2370583"><ele>778.6666666666666</ele><time>2026-03-29T07:52:33.576Z</time></trkpt><trkpt lat="43.8725817" lon="12.2369167"><ele>782.3333333333333</ele><time>2026-03-29T07:52:34.576Z</time></trkpt><trkpt lat="43.8724483" lon="12.2367983"><ele>786.0</ele><time>2026-03-29T07:52:35.575Z</time></trkpt><trkpt lat="43.87232" lon="12.2366817"><ele>786.0</ele><time>2026-03-29T07:52:36.575Z</time></trkpt><trkpt lat="43.8722067" lon="12.2365767"><ele>786.0</ele><time>2026-03-29T07:52:37.575Z</time></trkpt><trkpt lat="43.8721017" lon="12.2364767"><ele>786.0</ele><time>2026-03-29T07:52:38.576Z</time></trkpt><trkpt lat="43.872025" lon="12.2363767"><ele>786.0</ele><time>2026-03-29T07:52:39.575Z</time></trkpt><trkpt lat="43.87197" lon="12.23624"><ele>785.75</ele><time>2026-03-29T07:52:40.575Z</time></trkpt><trkpt lat="43.8719483" lon="12.2360767"><ele>785.5</ele><time>2026-03-29T07:52:41.576Z</time></trkpt><trkpt lat="43.871945" lon="12.235895"><ele>785.25</ele><time>2026-03-29T07:52:42.575Z</time></trkpt><trkpt lat="43.8719317" lon="12.2357133"><ele>785.0</ele><time>2026-03-29T07:52:43.576Z</time></trkpt><trkpt lat="43.8718983" lon="12.23553"><ele>785.0</ele><time>2026-03-29T07:52:44.575Z</time></trkpt><trkpt lat="43.871835" lon="12.235335"><ele>785.0</ele><time>2026-03-29T07:52:45.575Z</time></trkpt><trkpt lat="43.871755" lon="12.2351183"><ele>785.0</ele><time>2026-03-29T07:52:46.575Z</time></trkpt><trkpt lat="43.871675" lon="12.2349033"><ele>789.0</ele><time>2026-03-29T07:52:47.576Z</time></trkpt><trkpt lat="43.8716" lon="12.2347067"><ele>793.0</ele><time>2026-03-29T07:52:48.576Z</time></trkpt><trkpt lat="43.87154" lon="12.2345217"><ele>797.0</ele><time>2026-03-29T07:52:49.576Z</time></trkpt><trkpt lat="43.871495" lon="12.2343367"><ele>801.0</ele><time>2026-03-29T07:52:50.576Z</time></trkpt><trkpt lat="43.871455" lon="12.234135"><ele>800.5</ele><time>2026-03-29T07:52:51.576Z</time></trkpt><trkpt lat="43.8714183" lon="12.233935"><ele>800.0</ele><time>2026-03-29T07:52:52.575Z</time></trkpt><trkpt lat="43.8713833" lon="12.2337483"><ele>799.5</ele><time>2026-03-29T07:52:53.576Z</time></trkpt><trkpt lat="43.8713383" lon="12.2335467"><ele>799.0</ele><time>2026-03-29T07:52:54.576Z</time></trkpt><trkpt lat="43.871245" lon="12.2333333"><ele>797.6666666666666</ele><time>2026-03-29T07:52:55.576Z</time></trkpt><trkpt lat="43.8711483" lon="12.2331333"><ele>796.3333333333333</ele><time>2026-03-29T07:52:56.575Z</time></trkpt><trkpt lat="43.8710583" lon="12.2329533"><ele>795.0</ele><time>2026-03-29T07:52:57.576Z</time></trkpt><trkpt lat="43.8709717" lon="12.23277"><ele>796.3333333333333</ele><time>2026-03-29T07:52:58.575Z</time></trkpt><trkpt lat="43.8708767" lon="12.23259"><ele>797.6666666666666</ele><time>2026-03-29T07:52:59.575Z</time></trkpt><trkpt lat="43.8707867" lon="12.232405"><ele>799.0</ele><time>2026-03-29T07:53:00.575Z</time></trkpt><trkpt lat="43.8706983" lon="12.23222"><ele>799.0</ele><time>2026-03-29T07:53:01.576Z</time></trkpt><trkpt lat="43.870615" lon="12.2320333"><ele>799.0</ele><time>2026-03-29T07:53:02.576Z</time></trkpt><trkpt lat="43.8705367" lon="12.2318633"><ele>799.0</ele><time>2026-03-29T07:53:03.576Z</time></trkpt><trkpt lat="43.8704567" lon="12.2316983"><ele>799.0</ele><time>2026-03-29T07:53:04.576Z</time></trkpt><trkpt lat="43.8703817" lon="12.2315317"><ele>796.25</ele><time>2026-03-29T07:53:05.576Z</time></trkpt><trkpt lat="43.870305" lon="12.2313633"><ele>793.5</ele><time>2026-03-29T07:53:06.576Z</time></trkpt><trkpt lat="43.8702367" lon="12.2311817"><ele>790.75</ele><time>2026-03-29T07:53:07.576Z</time></trkpt><trkpt lat="43.8701767" lon="12.23099"><ele>788.0</ele><time>2026-03-29T07:53:08.576Z</time></trkpt><trkpt lat="43.8701233" lon="12.2307883"><ele>791.3333333333334</ele><time>2026-03-29T07:53:09.576Z</time></trkpt><trkpt lat="43.87008" lon="12.2305733"><ele>794.6666666666667</ele><time>2026-03-29T07:53:10.575Z</time></trkpt><trkpt lat="43.8700417" lon="12.2303533"><ele>798.0</ele><time>2026-03-29T07:53:11.576Z</time></trkpt><trkpt lat="43.8700117" lon="12.2301367"><ele>798.0</ele><time>2026-03-29T07:53:12.576Z</time></trkpt><trkpt lat="43.8699833" lon="12.229925"><ele>798.0</ele><time>2026-03-29T07:53:13.576Z</time></trkpt><trkpt lat="43.8699467" lon="12.2297133"><ele>798.0</ele><time>2026-03-29T07:53:14.576Z</time></trkpt><trkpt lat="43.86991" lon="12.2294967"><ele>796.0</ele><time>2026-03-29T07:53:15.576Z</time></trkpt><trkpt lat="43.8698717" lon="12.22927"><ele>794.0</ele><time>2026-03-29T07:53:16.576Z</time></trkpt><trkpt lat="43.8698317" lon="12.229035"><ele>792.0</ele><time>2026-03-29T07:53:17.576Z</time></trkpt><trkpt lat="43.869795" lon="12.2287917"><ele>789.0</ele><time>2026-03-29T07:53:18.575Z</time></trkpt><trkpt lat="43.8697567" lon="12.228545"><ele>786.0</ele><time>2026-03-29T07:53:19.576Z</time></trkpt><trkpt lat="43.86972" lon="12.2283067"><ele>783.0</ele><time>2026-03-29T07:53:20.576Z</time></trkpt><trkpt lat="43.869695" lon="12.22807"><ele>780.6666666666667</ele><time>2026-03-29T07:53:21.576Z</time></trkpt><trkpt lat="43.8696583" lon="12.2278367"><ele>778.3333333333334</ele><time>2026-03-29T07:53:22.576Z</time></trkpt><trkpt lat="43.8696217" lon="12.227595"><ele>776.0</ele><time>2026-03-29T07:53:23.576Z</time></trkpt><trkpt lat="43.8695883" lon="12.2273683"><ele>775.0</ele><time>2026-03-29T07:53:24.576Z</time></trkpt><trkpt lat="43.8695633" lon="12.2271433"><ele>774.0</ele><time>2026-03-29T07:53:25.576Z</time></trkpt><trkpt lat="43.86952" lon="12.226925"><ele>773.0</ele><time>2026-03-29T07:53:26.576Z</time></trkpt><trkpt lat="43.8694667" lon="12.2266933"><ele>771.3333333333334</ele><time>2026-03-29T07:53:27.576Z</time></trkpt><trkpt lat="43.869395" lon="12.22645"><ele>769.6666666666667</ele><time>2026-03-29T07:53:28.575Z</time></trkpt><trkpt lat="43.86931" lon="12.2261983"><ele>768.0</ele><time>2026-03-29T07:53:29.576Z</time></trkpt><trkpt lat="43.8692133" lon="12.225955"><ele>770.0</ele><time>2026-03-29T07:53:30.576Z</time></trkpt><trkpt lat="43.8691183" lon="12.22573"><ele>772.0</ele><time>2026-03-29T07:53:31.576Z</time></trkpt><trkpt lat="43.8690333" lon="12.225525"><ele>774.0</ele><time>2026-03-29T07:53:32.575Z</time></trkpt><trkpt lat="43.8689583" lon="12.225335"><ele>774.0</ele><time>2026-03-29T07:53:33.576Z</time></trkpt><trkpt lat="43.8688917" lon="12.225165"><ele>774.0</ele><time>2026-03-29T07:53:34.576Z</time></trkpt><trkpt lat="43.8688133" lon="12.2250183"><ele>774.0</ele><time>2026-03-29T07:53:35.575Z</time></trkpt><trkpt lat="43.8687267" lon="12.2248983"><ele>774.0</ele><time>2026-03-29T07:53:36.576Z</time></trkpt><trkpt lat="43.8686183" lon="12.2247817"><ele>773.0</ele><time>2026-03-29T07:53:37.576Z</time></trkpt><trkpt lat="43.8684883" lon="12.2246917"><ele>772.0</ele><time>2026-03-29T07:53:38.576Z</time></trkpt><trkpt lat="43.868335" lon="12.22462"><ele>771.0</ele><time>2026-03-29T07:53:39.576Z</time></trkpt><trkpt lat="43.86817" lon="12.2245633"><ele>770.0</ele><time>2026-03-29T07:53:40.576Z</time></trkpt><trkpt lat="43.8680133" lon="12.2245233"><ele>769.0</ele><time>2026-03-29T07:53:41.576Z</time></trkpt><trkpt lat="43.8678733" lon="12.2244867"><ele>768.0</ele><time>2026-03-29T07:53:42.575Z</time></trkpt><trkpt lat="43.8677483" lon="12.2244483"><ele>767.0</ele><time>2026-03-29T07:53:43.576Z</time></trkpt><trkpt lat="43.8676433" lon="12.2244167"><ele>767.0</ele><time>2026-03-29T07:53:44.575Z</time></trkpt><trkpt lat="43.867565" lon="12.224385"><ele>767.0</ele><time>2026-03-29T07:53:45.575Z</time></trkpt><trkpt lat="43.8674933" lon="12.2243333"><ele>767.0</ele><time>2026-03-29T07:53:46.576Z</time></trkpt><trkpt lat="43.8674383" lon="12.224265"><ele>767.0</ele><time>2026-03-29T07:53:47.576Z</time></trkpt><trkpt lat="43.8674383" lon="12.2241667"><ele>767.0</ele><time>2026-03-29T07:53:48.576Z</time></trkpt><trkpt lat="43.8674667" lon="12.22407"><ele>767.0</ele><time>2026-03-29T07:53:49.575Z</time></trkpt><trkpt lat="43.8675133" lon="12.223985"><ele>764.4000000000001</ele><time>2026-03-29T07:53:50.575Z</time></trkpt><trkpt lat="43.8676133" lon="12.2239567"><ele>761.8000000000001</ele><time>2026-03-29T07:53:51.575Z</time></trkpt><trkpt lat="43.867715" lon="12.2239567"><ele>759.2</ele><time>2026-03-29T07:53:52.576Z</time></trkpt><trkpt lat="43.8678217" lon="12.2239383"><ele>756.6</ele><time>2026-03-29T07:53:53.576Z</time></trkpt><trkpt lat="43.86791" lon="12.2238633"><ele>754.0</ele><time>2026-03-29T07:53:54.575Z</time></trkpt><trkpt lat="43.86796" lon="12.22375"><ele>754.0</ele><time>2026-03-29T07:53:55.575Z</time></trkpt><trkpt lat="43.86798" lon="12.2236283"><ele>754.0</ele><time>2026-03-29T07:53:56.575Z</time></trkpt><trkpt lat="43.8679517" lon="12.2234933"><ele>754.0</ele><time>2026-03-29T07:53:57.575Z</time></trkpt><trkpt lat="43.86789" lon="12.223385"><ele>754.0</ele><time>2026-03-29T07:53:58.576Z</time></trkpt><trkpt lat="43.8677917" lon="12.2233017"><ele>754.0</ele><time>2026-03-29T07:53:59.576Z</time></trkpt><trkpt lat="43.8676633" lon="12.2232433"><ele>754.0</ele><time>2026-03-29T07:54:00.576Z</time></trkpt><trkpt lat="43.8675233" lon="12.2232033"><ele>754.0</ele><time>2026-03-29T07:54:01.576Z</time></trkpt><trkpt lat="43.86737" lon="12.2231583"><ele>754.0</ele><time>2026-03-29T07:54:02.576Z</time></trkpt><trkpt lat="43.8672183" lon="12.2231133"><ele>751.75</ele><time>2026-03-29T07:54:03.576Z</time></trkpt><trkpt lat="43.86707" lon="12.2230683"><ele>749.5</ele><time>2026-03-29T07:54:04.575Z</time></trkpt><trkpt lat="43.8669417" lon="12.2230267"><ele>747.25</ele><time>2026-03-29T07:54:05.576Z</time></trkpt><trkpt lat="43.8668433" lon="12.2229883"><ele>745.0</ele><time>2026-03-29T07:54:06.576Z</time></trkpt><trkpt lat="43.866765" lon="12.2229333"><ele>745.0</ele><time>2026-03-29T07:54:07.576Z</time></trkpt><trkpt lat="43.8667117" lon="12.2228583"><ele>745.0</ele><time>2026-03-29T07:54:08.575Z</time></trkpt><trkpt lat="43.866685" lon="12.2227417"><ele>745.0</ele><time>2026-03-29T07:54:09.576Z</time></trkpt><trkpt lat="43.8666983" lon="12.2226283"><ele>745.0</ele><time>2026-03-29T07:54:10.576Z</time></trkpt><trkpt lat="43.86676" lon="12.222525"><ele>745.0</ele><time>2026-03-29T07:54:11.575Z</time></trkpt><trkpt lat="43.8668567" lon="12.2224483"><ele>744.0</ele><time>2026-03-29T07:54:12.575Z</time></trkpt><trkpt lat="43.866985" lon="12.2223983"><ele>743.0</ele><time>2026-03-29T07:54:13.576Z</time></trkpt><trkpt lat="43.86712" lon="12.2223667"><ele>742.0</ele><time>2026-03-29T07:54:14.576Z</time></trkpt><trkpt lat="43.8672483" lon="12.2223"><ele>741.0</ele><time>2026-03-29T07:54:15.576Z</time></trkpt><trkpt lat="43.8673567" lon="12.2221967"><ele>738.75</ele><time>2026-03-29T07:54:16.576Z</time></trkpt><trkpt lat="43.8674367" lon="12.22205"><ele>736.5</ele><time>2026-03-29T07:54:17.576Z</time></trkpt><trkpt lat="43.8674917" lon="12.2218783"><ele>734.25</ele><time>2026-03-29T07:54:18.575Z</time></trkpt><trkpt lat="43.8675083" lon="12.2216983"><ele>732.0</ele><time>2026-03-29T07:54:19.575Z</time></trkpt><trkpt lat="43.8674983" lon="12.221535"><ele>729.25</ele><time>2026-03-29T07:54:20.576Z</time></trkpt><trkpt lat="43.86745" lon="12.2213767"><ele>726.5</ele><time>2026-03-29T07:54:21.576Z</time></trkpt><trkpt lat="43.8673517" lon="12.2212383"><ele>723.75</ele><time>2026-03-29T07:54:22.576Z</time></trkpt><trkpt lat="43.8672267" lon="12.2211267"><ele>721.0</ele><time>2026-03-29T07:54:23.576Z</time></trkpt><trkpt lat="43.867075" lon="12.221055"><ele>721.0</ele><time>2026-03-29T07:54:24.576Z</time></trkpt><trkpt lat="43.8669" lon="12.22102"><ele>721.0</ele><time>2026-03-29T07:54:25.576Z</time></trkpt><trkpt lat="43.8667067" lon="12.2210167"><ele>721.0</ele><time>2026-03-29T07:54:26.575Z</time></trkpt><trkpt lat="43.8665083" lon="12.2210017"><ele>721.3333333333334</ele><time>2026-03-29T07:54:27.576Z</time></trkpt><trkpt lat="43.86632" lon="12.2209883"><ele>721.6666666666666</ele><time>2026-03-29T07:54:28.576Z</time></trkpt><trkpt lat="43.8661433" lon="12.220965"><ele>722.0</ele><time>2026-03-29T07:54:29.576Z</time></trkpt><trkpt lat="43.8659883" lon="12.2209083"><ele>722.75</ele><time>2026-03-29T07:54:30.576Z</time></trkpt><trkpt lat="43.8658417" lon="12.2208267"><ele>723.5</ele><time>2026-03-29T07:54:31.576Z</time></trkpt><trkpt lat="43.86572" lon="12.2207383"><ele>724.25</ele><time>2026-03-29T07:54:32.576Z</time></trkpt><trkpt lat="43.86561" lon="12.22068"><ele>725.0</ele><time>2026-03-29T07:54:33.576Z</time></trkpt><trkpt lat="43.8655033" lon="12.2206917"><ele>725.0</ele><time>2026-03-29T07:54:34.576Z</time></trkpt><trkpt lat="43.865395" lon="12.220745"><ele>725.0</ele><time>2026-03-29T07:54:35.576Z</time></trkpt><trkpt lat="43.8652883" lon="12.22081"><ele>725.0</ele><time>2026-03-29T07:54:36.576Z</time></trkpt><trkpt lat="43.86517" lon="12.2208217"><ele>725.0</ele><time>2026-03-29T07:54:37.575Z</time></trkpt><trkpt lat="43.8650383" lon="12.22079"><ele>724.6666666666666</ele><time>2026-03-29T07:54:38.575Z</time></trkpt><trkpt lat="43.8648917" lon="12.2207017"><ele>724.3333333333334</ele><time>2026-03-29T07:54:39.575Z</time></trkpt><trkpt lat="43.8647383" lon="12.2205917"><ele>724.0</ele><time>2026-03-29T07:54:40.577Z</time></trkpt><trkpt lat="43.864595" lon="12.2204783"><ele>720.0</ele><time>2026-03-29T07:54:41.577Z</time></trkpt><trkpt lat="43.8644667" lon="12.22038"><ele>716.0</ele><time>2026-03-29T07:54:42.577Z</time></trkpt><trkpt lat="43.8643633" lon="12.2202983"><ele>712.0</ele><time>2026-03-29T07:54:43.576Z</time></trkpt><trkpt lat="43.864275" lon="12.2202117"><ele>708.0</ele><time>2026-03-29T07:54:44.577Z</time></trkpt><trkpt lat="43.8642217" lon="12.2201017"><ele>708.0</ele><time>2026-03-29T07:54:45.576Z</time></trkpt><trkpt lat="43.8642117" lon="12.2199783"><ele>708.0</ele><time>2026-03-29T07:54:46.577Z</time></trkpt><trkpt lat="43.8642283" lon="12.2198633"><ele>708.0</ele><time>2026-03-29T07:54:47.577Z</time></trkpt><trkpt lat="43.8642983" lon="12.2197583"><ele>708.0</ele><time>2026-03-29T07:54:48.576Z</time></trkpt><trkpt lat="43.8643933" lon="12.2196617"><ele>708.0</ele><time>2026-03-29T07:54:49.576Z</time></trkpt><trkpt lat="43.86449" lon="12.2195717"><ele>705.2</ele><time>2026-03-29T07:54:50.576Z</time></trkpt><trkpt lat="43.8645767" lon="12.2194817"><ele>702.4</ele><time>2026-03-29T07:54:51.577Z</time></trkpt><trkpt lat="43.86463" lon="12.2193717"><ele>699.6</ele><time>2026-03-29T07:54:52.577Z</time></trkpt><trkpt lat="43.864655" lon="12.2192333"><ele>696.8000000000001</ele><time>2026-03-29T07:54:53.576Z</time></trkpt><trkpt lat="43.8646383" lon="12.2190733"><ele>694.0</ele><time>2026-03-29T07:54:54.577Z</time></trkpt><trkpt lat="43.8645967" lon="12.2189067"><ele>692.0</ele><time>2026-03-29T07:54:55.576Z</time></trkpt><trkpt lat="43.8645483" lon="12.2187483"><ele>690.0</ele><time>2026-03-29T07:54:56.577Z</time></trkpt><trkpt lat="43.864515" lon="12.2185783"><ele>688.0</ele><time>2026-03-29T07:54:57.577Z</time></trkpt><trkpt lat="43.8645067" lon="12.218365"><ele>686.0</ele><time>2026-03-29T07:54:58.576Z</time></trkpt><trkpt lat="43.8645167" lon="12.2181217"><ele>683.3333333333333</ele><time>2026-03-29T07:54:59.576Z</time></trkpt><trkpt lat="43.864555" lon="12.2178883"><ele>680.6666666666666</ele><time>2026-03-29T07:55:00.577Z</time></trkpt><trkpt lat="43.864595" lon="12.2176783"><ele>678.0</ele><time>2026-03-29T07:55:01.576Z</time></trkpt><trkpt lat="43.8646167" lon="12.2174917"><ele>678.0</ele><time>2026-03-29T07:55:02.576Z</time></trkpt><trkpt lat="43.864635" lon="12.2173333"><ele>678.0</ele><time>2026-03-29T07:55:03.577Z</time></trkpt><trkpt lat="43.8646333" lon="12.2171667"><ele>678.0</ele><time>2026-03-29T07:55:04.577Z</time></trkpt><trkpt lat="43.8646033" lon="12.2169917"><ele>678.0</ele><time>2026-03-29T07:55:05.577Z</time></trkpt><trkpt lat="43.8645533" lon="12.2168217"><ele>676.5</ele><time>2026-03-29T07:55:06.577Z</time></trkpt><trkpt lat="43.8644833" lon="12.2166717"><ele>675.0</ele><time>2026-03-29T07:55:07.577Z</time></trkpt><trkpt lat="43.8644067" lon="12.2165483"><ele>673.5</ele><time>2026-03-29T07:55:08.577Z</time></trkpt><trkpt lat="43.864315" lon="12.2164533"><ele>672.0</ele><time>2026-03-29T07:55:09.577Z</time></trkpt><trkpt lat="43.864205" lon="12.21639"><ele>669.3333333333334</ele><time>2026-03-29T07:55:10.576Z</time></trkpt><trkpt lat="43.8640717" lon="12.2163783"><ele>666.6666666666667</ele><time>2026-03-29T07:55:11.577Z</time></trkpt><trkpt lat="43.86391" lon="12.216405"><ele>664.0</ele><time>2026-03-29T07:55:12.576Z</time></trkpt><trkpt lat="43.863745" lon="12.2164583"><ele>665.0</ele><time>2026-03-29T07:55:13.576Z</time></trkpt><trkpt lat="43.8635817" lon="12.21652"><ele>666.0</ele><time>2026-03-29T07:55:14.576Z</time></trkpt><trkpt lat="43.8634333" lon="12.2165733"><ele>667.0</ele><time>2026-03-29T07:55:15.576Z</time></trkpt><trkpt lat="43.863295" lon="12.2166183"><ele>667.0</ele><time>2026-03-29T07:55:16.576Z</time></trkpt><trkpt lat="43.8631833" lon="12.2166633"><ele>667.0</ele><time>2026-03-29T07:55:17.576Z</time></trkpt><trkpt lat="43.8631" lon="12.216685"><ele>667.0</ele><time>2026-03-29T07:55:18.577Z</time></trkpt><trkpt lat="43.86299" lon="12.2166783"><ele>667.0</ele><time>2026-03-29T07:55:20.577Z</time></trkpt><trkpt lat="43.8629417" lon="12.21654"><ele>667.0</ele><time>2026-03-29T07:55:22.577Z</time></trkpt><trkpt lat="43.8629583" lon="12.216445"><ele>664.8</ele><time>2026-03-29T07:55:23.577Z</time></trkpt><trkpt lat="43.863" lon="12.2163283"><ele>662.6</ele><time>2026-03-29T07:55:24.576Z</time></trkpt><trkpt lat="43.8630367" lon="12.2161883"><ele>660.4</ele><time>2026-03-29T07:55:25.577Z</time></trkpt><trkpt lat="43.8630583" lon="12.2160267"><ele>658.1999999999999</ele><time>2026-03-29T07:55:26.577Z</time></trkpt><trkpt lat="43.8630683" lon="12.2158633"><ele>656.0</ele><time>2026-03-29T07:55:27.576Z</time></trkpt><trkpt lat="43.8630967" lon="12.21571"><ele>653.25</ele><time>2026-03-29T07:55:28.577Z</time></trkpt><trkpt lat="43.863165" lon="12.2155583"><ele>650.5</ele><time>2026-03-29T07:55:29.577Z</time></trkpt><trkpt lat="43.86326" lon="12.2154167"><ele>647.75</ele><time>2026-03-29T07:55:30.577Z</time></trkpt><trkpt lat="43.863355" lon="12.2152667"><ele>645.0</ele><time>2026-03-29T07:55:31.576Z</time></trkpt><trkpt lat="43.8634383" lon="12.2151017"><ele>644.0</ele><time>2026-03-29T07:55:32.577Z</time></trkpt><trkpt lat="43.8635033" lon="12.21491"><ele>643.0</ele><time>2026-03-29T07:55:33.576Z</time></trkpt><trkpt lat="43.8635517" lon="12.2146983"><ele>642.0</ele><time>2026-03-29T07:55:34.577Z</time></trkpt><trkpt lat="43.863585" lon="12.2144867"><ele>642.0</ele><time>2026-03-29T07:55:35.577Z</time></trkpt><trkpt lat="43.8636" lon="12.2142767"><ele>642.0</ele><time>2026-03-29T07:55:36.577Z</time></trkpt><trkpt lat="43.86359" lon="12.2140617"><ele>642.0</ele><time>2026-03-29T07:55:37.577Z</time></trkpt><trkpt lat="43.86357" lon="12.21387"><ele>642.0</ele><time>2026-03-29T07:55:38.576Z</time></trkpt><trkpt lat="43.8635417" lon="12.2137033"><ele>639.6</ele><time>2026-03-29T07:55:39.576Z</time></trkpt><trkpt lat="43.86353" lon="12.213565"><ele>637.2</ele><time>2026-03-29T07:55:40.577Z</time></trkpt><trkpt lat="43.8635367" lon="12.2134417"><ele>634.8</ele><time>2026-03-29T07:55:41.576Z</time></trkpt><trkpt lat="43.863575" lon="12.2133317"><ele>632.4</ele><time>2026-03-29T07:55:42.577Z</time></trkpt><trkpt lat="43.8636633" lon="12.2132383"><ele>630.0</ele><time>2026-03-29T07:55:43.577Z</time></trkpt><trkpt lat="43.86378" lon="12.2131517"><ele>628.0</ele><time>2026-03-29T07:55:44.577Z</time></trkpt><trkpt lat="43.8638983" lon="12.21306"><ele>626.0</ele><time>2026-03-29T07:55:45.577Z</time></trkpt><trkpt lat="43.8640117" lon="12.2129917"><ele>624.0</ele><time>2026-03-29T07:55:46.577Z</time></trkpt><trkpt lat="43.8640917" lon="12.2129417"><ele>622.0</ele><time>2026-03-29T07:55:47.577Z</time></trkpt><trkpt lat="43.8641483" lon="12.2128917"><ele>620.0</ele><time>2026-03-29T07:55:48.577Z</time></trkpt><trkpt lat="43.86417" lon="12.212725"><ele>620.0</ele><time>2026-03-29T07:55:50.577Z</time></trkpt><trkpt lat="43.8640983" lon="12.21265"><ele>620.0</ele><time>2026-03-29T07:55:51.577Z</time></trkpt><trkpt lat="43.8640133" lon="12.2126133"><ele>620.0</ele><time>2026-03-29T07:55:52.577Z</time></trkpt><trkpt lat="43.8639117" lon="12.21262"><ele>620.0</ele><time>2026-03-29T07:55:53.576Z</time></trkpt><trkpt lat="43.8637967" lon="12.2126633"><ele>620.0</ele><time>2026-03-29T07:55:54.577Z</time></trkpt><trkpt lat="43.8636817" lon="12.212715"><ele>620.0</ele><time>2026-03-29T07:55:55.577Z</time></trkpt><trkpt lat="43.8635933" lon="12.2127583"><ele>620.0</ele><time>2026-03-29T07:55:56.577Z</time></trkpt><trkpt lat="43.8635283" lon="12.2127817"><ele>620.0</ele><time>2026-03-29T07:55:57.577Z</time></trkpt><trkpt lat="43.8634283" lon="12.2127133"><ele>620.0</ele><time>2026-03-29T07:55:59.577Z</time></trkpt><trkpt lat="43.863435" lon="12.2126067"><ele>620.0</ele><time>2026-03-29T07:56:00.577Z</time></trkpt><trkpt lat="43.8634717" lon="12.2124767"><ele>620.0</ele><time>2026-03-29T07:56:01.577Z</time></trkpt><trkpt lat="43.8635317" lon="12.2123233"><ele>620.0</ele><time>2026-03-29T07:56:02.577Z</time></trkpt><trkpt lat="43.8636" lon="12.21215"><ele>620.0</ele><time>2026-03-29T07:56:03.577Z</time></trkpt><trkpt lat="43.86367" lon="12.21198"><ele>620.0</ele><time>2026-03-29T07:56:04.577Z</time></trkpt><trkpt lat="43.8637317" lon="12.2118067"><ele>617.25</ele><time>2026-03-29T07:56:05.576Z</time></trkpt><trkpt lat="43.8637917" lon="12.2116417"><ele>614.5</ele><time>2026-03-29T07:56:06.577Z</time></trkpt><trkpt lat="43.8638517" lon="12.21148"><ele>611.75</ele><time>2026-03-29T07:56:07.576Z</time></trkpt><trkpt lat="43.8638867" lon="12.211305"><ele>609.0</ele><time>2026-03-29T07:56:08.576Z</time></trkpt><trkpt lat="43.8639033" lon="12.2111317"><ele>608.4</ele><time>2026-03-29T07:56:09.577Z</time></trkpt><trkpt lat="43.8638983" lon="12.2109667"><ele>607.8</ele><time>2026-03-29T07:56:10.576Z</time></trkpt><trkpt lat="43.8638733" lon="12.2108183"><ele>607.2</ele><time>2026-03-29T07:56:11.577Z</time></trkpt><trkpt lat="43.8638467" lon="12.2106717"><ele>606.6</ele><time>2026-03-29T07:56:12.577Z</time></trkpt><trkpt lat="43.8638183" lon="12.210525"><ele>606.0</ele><time>2026-03-29T07:56:13.577Z</time></trkpt><trkpt lat="43.8637917" lon="12.210365"><ele>604.75</ele><time>2026-03-29T07:56:14.577Z</time></trkpt><trkpt lat="43.86376" lon="12.2101917"><ele>603.5</ele><time>2026-03-29T07:56:15.577Z</time></trkpt><trkpt lat="43.863735" lon="12.2100083"><ele>602.25</ele><time>2026-03-29T07:56:16.576Z</time></trkpt><trkpt lat="43.8637133" lon="12.20983"><ele>601.0</ele><time>2026-03-29T07:56:17.576Z</time></trkpt><trkpt lat="43.8636917" lon="12.209665"><ele>598.75</ele><time>2026-03-29T07:56:18.576Z</time></trkpt><trkpt lat="43.8636717" lon="12.2094983"><ele>596.5</ele><time>2026-03-29T07:56:19.576Z</time></trkpt><trkpt lat="43.8636367" lon="12.2093333"><ele>594.25</ele><time>2026-03-29T07:56:20.577Z</time></trkpt><trkpt lat="43.8635867" lon="12.20918"><ele>592.0</ele><time>2026-03-29T07:56:21.576Z</time></trkpt><trkpt lat="43.8635233" lon="12.209045"><ele>590.75</ele><time>2026-03-29T07:56:22.577Z</time></trkpt><trkpt lat="43.8634533" lon="12.2089417"><ele>589.5</ele><time>2026-03-29T07:56:23.576Z</time></trkpt><trkpt lat="43.86336" lon="12.2088517"><ele>588.25</ele><time>2026-03-29T07:56:24.576Z</time></trkpt><trkpt lat="43.86326" lon="12.2087667"><ele>587.0</ele><time>2026-03-29T07:56:25.577Z</time></trkpt><trkpt lat="43.8631533" lon="12.2086867"><ele>586.0</ele><time>2026-03-29T07:56:26.577Z</time></trkpt><trkpt lat="43.86306" lon="12.2086"><ele>585.0</ele><time>2026-03-29T07:56:27.577Z</time></trkpt><trkpt lat="43.8629667" lon="12.20851"><ele>584.0</ele><time>2026-03-29T07:56:28.577Z</time></trkpt><trkpt lat="43.86288" lon="12.20844"><ele>583.0</ele><time>2026-03-29T07:56:29.577Z</time></trkpt><trkpt lat="43.8627767" lon="12.2084"><ele>582.0</ele><time>2026-03-29T07:56:30.577Z</time></trkpt><trkpt lat="43.86266" lon="12.2083783"><ele>583.3333333333334</ele><time>2026-03-29T07:56:31.577Z</time></trkpt><trkpt lat="43.86252" lon="12.20836"><ele>584.6666666666667</ele><time>2026-03-29T07:56:32.577Z</time></trkpt><trkpt lat="43.8623683" lon="12.208345"><ele>586.0</ele><time>2026-03-29T07:56:33.577Z</time></trkpt><trkpt lat="43.862195" lon="12.2083283"><ele>586.0</ele><time>2026-03-29T07:56:34.576Z</time></trkpt><trkpt lat="43.86203" lon="12.20832"><ele>586.0</ele><time>2026-03-29T07:56:35.576Z</time></trkpt><trkpt lat="43.8618717" lon="12.20831"><ele>586.0</ele><time>2026-03-29T07:56:36.577Z</time></trkpt><trkpt lat="43.8617183" lon="12.2082983"><ele>589.3333333333334</ele><time>2026-03-29T07:56:37.577Z</time></trkpt><trkpt lat="43.8615683" lon="12.2082833"><ele>592.6666666666666</ele><time>2026-03-29T07:56:38.576Z</time></trkpt><trkpt lat="43.8614233" lon="12.2082833"><ele>596.0</ele><time>2026-03-29T07:56:39.577Z</time></trkpt><trkpt lat="43.86127" lon="12.2082567"><ele>596.0</ele><time>2026-03-29T07:56:40.577Z</time></trkpt><trkpt lat="43.8611017" lon="12.208225"><ele>596.0</ele><time>2026-03-29T07:56:41.577Z</time></trkpt><trkpt lat="43.8609633" lon="12.20817"><ele>596.0</ele><time>2026-03-29T07:56:42.577Z</time></trkpt><trkpt lat="43.8608567" lon="12.208095"><ele>596.0</ele><time>2026-03-29T07:56:43.577Z</time></trkpt><trkpt lat="43.8607567" lon="12.2080317"><ele>595.8</ele><time>2026-03-29T07:56:44.576Z</time></trkpt><trkpt lat="43.86067" lon="12.2079833"><ele>595.6</ele><time>2026-03-29T07:56:45.577Z</time></trkpt><trkpt lat="43.8605817" lon="12.2079733"><ele>595.4</ele><time>2026-03-29T07:56:46.577Z</time></trkpt><trkpt lat="43.8604933" lon="12.2080067"><ele>595.2</ele><time>2026-03-29T07:56:47.577Z</time></trkpt><trkpt lat="43.8603983" lon="12.20808"><ele>595.0</ele><time>2026-03-29T07:56:48.577Z</time></trkpt><trkpt lat="43.8603233" lon="12.2081733"><ele>598.2</ele><time>2026-03-29T07:56:49.577Z</time></trkpt><trkpt lat="43.86026" lon="12.20827"><ele>601.4</ele><time>2026-03-29T07:56:50.576Z</time></trkpt><trkpt lat="43.8602267" lon="12.2084"><ele>604.6</ele><time>2026-03-29T07:56:51.577Z</time></trkpt><trkpt lat="43.8602267" lon="12.208565"><ele>607.8</ele><time>2026-03-29T07:56:52.576Z</time></trkpt><trkpt lat="43.8602533" lon="12.20875"><ele>611.0</ele><time>2026-03-29T07:56:53.577Z</time></trkpt><trkpt lat="43.8602883" lon="12.2089583"><ele>612.25</ele><time>2026-03-29T07:56:54.577Z</time></trkpt><trkpt lat="43.86032" lon="12.209145"><ele>613.5</ele><time>2026-03-29T07:56:55.577Z</time></trkpt><trkpt lat="43.8603367" lon="12.209305"><ele>614.75</ele><time>2026-03-29T07:56:56.577Z</time></trkpt><trkpt lat="43.86034" lon="12.2094517"><ele>616.0</ele><time>2026-03-29T07:56:57.576Z</time></trkpt><trkpt lat="43.8603317" lon="12.2095917"><ele>616.0</ele><time>2026-03-29T07:56:58.577Z</time></trkpt><trkpt lat="43.8603067" lon="12.2097217"><ele>616.0</ele><time>2026-03-29T07:56:59.577Z</time></trkpt><trkpt lat="43.8602533" lon="12.2098483"><ele>616.0</ele><time>2026-03-29T07:57:00.576Z</time></trkpt><trkpt lat="43.860175" lon="12.209965"><ele>616.0</ele><time>2026-03-29T07:57:01.577Z</time></trkpt><trkpt lat="43.8600867" lon="12.2100533"><ele>616.0</ele><time>2026-03-29T07:57:02.577Z</time></trkpt><trkpt lat="43.8599983" lon="12.210115"><ele>617.8</ele><time>2026-03-29T07:57:03.576Z</time></trkpt><trkpt lat="43.8599133" lon="12.2101367"><ele>619.6</ele><time>2026-03-29T07:57:04.576Z</time></trkpt><trkpt lat="43.859825" lon="12.2101217"><ele>621.4</ele><time>2026-03-29T07:57:05.577Z</time></trkpt><trkpt lat="43.8597383" lon="12.21007"><ele>623.2</ele><time>2026-03-29T07:57:06.577Z</time></trkpt><trkpt lat="43.8596667" lon="12.2099717"><ele>625.0</ele><time>2026-03-29T07:57:07.577Z</time></trkpt><trkpt lat="43.8596033" lon="12.2098733"><ele>623.8333333333334</ele><time>2026-03-29T07:57:08.577Z</time></trkpt><trkpt lat="43.8595283" lon="12.2098033"><ele>622.6666666666667</ele><time>2026-03-29T07:57:09.576Z</time></trkpt><trkpt lat="43.8594417" lon="12.2097767"><ele>621.5</ele><time>2026-03-29T07:57:10.577Z</time></trkpt><trkpt lat="43.859345" lon="12.2097917"><ele>620.3333333333334</ele><time>2026-03-29T07:57:11.577Z</time></trkpt><trkpt lat="43.85927" lon="12.2098417"><ele>619.1666666666666</ele><time>2026-03-29T07:57:12.576Z</time></trkpt><trkpt lat="43.8592" lon="12.2099133"><ele>618.0</ele><time>2026-03-29T07:57:13.576Z</time></trkpt><trkpt lat="43.8591633" lon="12.2100267"><ele>621.6</ele><time>2026-03-29T07:57:14.577Z</time></trkpt><trkpt lat="43.8591367" lon="12.21018"><ele>625.1999999999999</ele><time>2026-03-29T07:57:15.577Z</time></trkpt><trkpt lat="43.8590883" lon="12.2103033"><ele>628.8</ele><time>2026-03-29T07:57:16.577Z</time></trkpt><trkpt lat="43.8590217" lon="12.2103867"><ele>632.4</ele><time>2026-03-29T07:57:17.576Z</time></trkpt><trkpt lat="43.8589333" lon="12.210385"><ele>636.0</ele><time>2026-03-29T07:57:18.576Z</time></trkpt><trkpt lat="43.8588333" lon="12.2103233"><ele>636.0</ele><time>2026-03-29T07:57:19.576Z</time></trkpt><trkpt lat="43.8587117" lon="12.2102233"><ele>636.0</ele><time>2026-03-29T07:57:20.577Z</time></trkpt><trkpt lat="43.8585933" lon="12.2101067"><ele>636.0</ele><time>2026-03-29T07:57:21.577Z</time></trkpt><trkpt lat="43.8585017" lon="12.20999"><ele>636.0</ele><time>2026-03-29T07:57:22.577Z</time></trkpt><trkpt lat="43.85844" lon="12.2098833"><ele>637.3333333333334</ele><time>2026-03-29T07:57:23.576Z</time></trkpt><trkpt lat="43.858385" lon="12.2098017"><ele>638.6666666666666</ele><time>2026-03-29T07:57:24.576Z</time></trkpt><trkpt lat="43.858325" lon="12.2097383"><ele>640.0</ele><time>2026-03-29T07:57:25.577Z</time></trkpt><trkpt lat="43.8582533" lon="12.209725"><ele>641.3333333333333</ele><time>2026-03-29T07:57:26.576Z</time></trkpt><trkpt lat="43.8581917" lon="12.2097783"><ele>642.6666666666666</ele><time>2026-03-29T07:57:27.577Z</time></trkpt><trkpt lat="43.8581583" lon="12.209875"><ele>644.0</ele><time>2026-03-29T07:57:28.577Z</time></trkpt><trkpt lat="43.858145" lon="12.20999"><ele>645.6</ele><time>2026-03-29T07:57:29.576Z</time></trkpt><trkpt lat="43.8581367" lon="12.2101067"><ele>647.2</ele><time>2026-03-29T07:57:30.576Z</time></trkpt><trkpt lat="43.85811" lon="12.2102167"><ele>648.8000000000001</ele><time>2026-03-29T07:57:31.577Z</time></trkpt><trkpt lat="43.8580467" lon="12.21032"><ele>650.4000000000001</ele><time>2026-03-29T07:57:32.576Z</time></trkpt><trkpt lat="43.8579433" lon="12.2104033"><ele>652.0</ele><time>2026-03-29T07:57:33.577Z</time></trkpt><trkpt lat="43.8578117" lon="12.2104667"><ele>652.0</ele><time>2026-03-29T07:57:34.576Z</time></trkpt><trkpt lat="43.8576717" lon="12.210505"><ele>652.0</ele><time>2026-03-29T07:57:35.577Z</time></trkpt><trkpt lat="43.8575367" lon="12.2105133"><ele>652.0</ele><time>2026-03-29T07:57:36.577Z</time></trkpt><trkpt lat="43.8573867" lon="12.2104783"><ele>652.0</ele><time>2026-03-29T07:57:37.576Z</time></trkpt><trkpt lat="43.857235" lon="12.2104"><ele>654.4000000000001</ele><time>2026-03-29T07:57:38.577Z</time></trkpt><trkpt lat="43.8571033" lon="12.210305"><ele>656.8000000000001</ele><time>2026-03-29T07:57:39.577Z</time></trkpt><trkpt lat="43.8569967" lon="12.210245"><ele>659.2</ele><time>2026-03-29T07:57:40.576Z</time></trkpt><trkpt lat="43.856915" lon="12.210215"><ele>661.6</ele><time>2026-03-29T07:57:41.576Z</time></trkpt><trkpt lat="43.8568433" lon="12.2102283"><ele>664.0</ele><time>2026-03-29T07:57:42.577Z</time></trkpt><trkpt lat="43.8567883" lon="12.2102967"><ele>666.2</ele><time>2026-03-29T07:57:43.576Z</time></trkpt><trkpt lat="43.8567567" lon="12.2104"><ele>668.4000000000001</ele><time>2026-03-29T07:57:44.577Z</time></trkpt><trkpt lat="43.85675" lon="12.21053"><ele>670.6</ele><time>2026-03-29T07:57:45.577Z</time></trkpt><trkpt lat="43.856755" lon="12.21068"><ele>672.8</ele><time>2026-03-29T07:57:46.576Z</time></trkpt><trkpt lat="43.856735" lon="12.210805"><ele>675.0</ele><time>2026-03-29T07:57:47.577Z</time></trkpt><trkpt lat="43.8566717" lon="12.2108967"><ele>677.6</ele><time>2026-03-29T07:57:48.577Z</time></trkpt><trkpt lat="43.8565733" lon="12.2109667"><ele>680.2</ele><time>2026-03-29T07:57:49.577Z</time></trkpt><trkpt lat="43.85648" lon="12.2110217"><ele>682.8</ele><time>2026-03-29T07:57:50.576Z</time></trkpt><trkpt lat="43.8564133" lon="12.2110783"><ele>685.4</ele><time>2026-03-29T07:57:51.577Z</time></trkpt><trkpt lat="43.8563683" lon="12.2111417"><ele>688.0</ele><time>2026-03-29T07:57:52.576Z</time></trkpt><trkpt lat="43.8564117" lon="12.2112933"><ele>688.0</ele><time>2026-03-29T07:57:54.576Z</time></trkpt><trkpt lat="43.8564883" lon="12.211355"><ele>688.0</ele><time>2026-03-29T07:57:55.577Z</time></trkpt><trkpt lat="43.8565883" lon="12.211405"><ele>688.0</ele><time>2026-03-29T07:57:56.577Z</time></trkpt><trkpt lat="43.8566683" lon="12.2114733"><ele>688.0</ele><time>2026-03-29T07:57:57.576Z</time></trkpt><trkpt lat="43.8567267" lon="12.21156"><ele>688.0</ele><time>2026-03-29T07:57:58.576Z</time></trkpt><trkpt lat="43.8567433" lon="12.2116833"><ele>691.25</ele><time>2026-03-29T07:57:59.577Z</time></trkpt><trkpt lat="43.8567267" lon="12.2118433"><ele>694.5</ele><time>2026-03-29T07:58:00.576Z</time></trkpt><trkpt lat="43.85669" lon="12.2120217"><ele>697.75</ele><time>2026-03-29T07:58:01.577Z</time></trkpt><trkpt lat="43.8566433" lon="12.2121817"><ele>701.0</ele><time>2026-03-29T07:58:02.576Z</time></trkpt><trkpt lat="43.8565783" lon="12.2123183"><ele>702.5</ele><time>2026-03-29T07:58:03.576Z</time></trkpt><trkpt lat="43.8564767" lon="12.2124567"><ele>704.0</ele><time>2026-03-29T07:58:04.576Z</time></trkpt><trkpt lat="43.8563533" lon="12.2125783"><ele>705.5</ele><time>2026-03-29T07:58:05.576Z</time></trkpt><trkpt lat="43.8562433" lon="12.2126967"><ele>707.0</ele><time>2026-03-29T07:58:06.577Z</time></trkpt><trkpt lat="43.8561617" lon="12.2127817"><ele>707.0</ele><time>2026-03-29T07:58:07.577Z</time></trkpt><trkpt lat="43.856095" lon="12.212845"><ele>707.0</ele><time>2026-03-29T07:58:08.577Z</time></trkpt><trkpt lat="43.8560283" lon="12.2128667"><ele>707.0</ele><time>2026-03-29T07:58:09.577Z</time></trkpt><trkpt lat="43.8559633" lon="12.2128533"><ele>707.0</ele><time>2026-03-29T07:58:10.577Z</time></trkpt><trkpt lat="43.855905" lon="12.2127883"><ele>707.0</ele><time>2026-03-29T07:58:11.577Z</time></trkpt><trkpt lat="43.8558683" lon="12.2126933"><ele>707.0</ele><time>2026-03-29T07:58:12.577Z</time></trkpt><trkpt lat="43.8558233" lon="12.2126133"><ele>707.0</ele><time>2026-03-29T07:58:13.577Z</time></trkpt><trkpt lat="43.8557533" lon="12.2125683"><ele>709.3333333333333</ele><time>2026-03-29T07:58:14.576Z</time></trkpt><trkpt lat="43.8556717" lon="12.2125683"><ele>711.6666666666666</ele><time>2026-03-29T07:58:15.577Z</time></trkpt><trkpt lat="43.85559" lon="12.212605"><ele>714.0</ele><time>2026-03-29T07:58:16.577Z</time></trkpt><trkpt lat="43.8555283" lon="12.21268"><ele>716.3333333333334</ele><time>2026-03-29T07:58:17.577Z</time></trkpt><trkpt lat="43.8555133" lon="12.212805"><ele>718.6666666666667</ele><time>2026-03-29T07:58:18.577Z</time></trkpt><trkpt lat="43.855515" lon="12.212955"><ele>721.0</ele><time>2026-03-29T07:58:19.577Z</time></trkpt><trkpt lat="43.8555433" lon="12.2131517"><ele>722.0</ele><time>2026-03-29T07:58:20.577Z</time></trkpt><trkpt lat="43.8555733" lon="12.2133583"><ele>723.0</ele><time>2026-03-29T07:58:21.576Z</time></trkpt><trkpt lat="43.8555833" lon="12.21357"><ele>724.0</ele><time>2026-03-29T07:58:22.577Z</time></trkpt><trkpt lat="43.8555667" lon="12.2137883"><ele>723.6666666666667</ele><time>2026-03-29T07:58:23.577Z</time></trkpt><trkpt lat="43.8555217" lon="12.2140117"><ele>723.3333333333334</ele><time>2026-03-29T07:58:24.576Z</time></trkpt><trkpt lat="43.8554817" lon="12.21422"><ele>723.0</ele><time>2026-03-29T07:58:25.577Z</time></trkpt><trkpt lat="43.8554683" lon="12.2144217"><ele>723.0</ele><time>2026-03-29T07:58:26.576Z</time></trkpt><trkpt lat="43.855495" lon="12.2146133"><ele>723.0</ele><time>2026-03-29T07:58:27.577Z</time></trkpt><trkpt lat="43.8555467" lon="12.2147767"><ele>723.0</ele><time>2026-03-29T07:58:28.577Z</time></trkpt><trkpt lat="43.8555933" lon="12.2149133"><ele>723.0</ele><time>2026-03-29T07:58:29.577Z</time></trkpt><trkpt lat="43.8556067" lon="12.21504"><ele>724.4</ele><time>2026-03-29T07:58:30.577Z</time></trkpt><trkpt lat="43.855595" lon="12.2151483"><ele>725.8</ele><time>2026-03-29T07:58:31.577Z</time></trkpt><trkpt lat="43.85556" lon="12.2152467"><ele>727.2</ele><time>2026-03-29T07:58:32.576Z</time></trkpt><trkpt lat="43.8554967" lon="12.2153583"><ele>728.6</ele><time>2026-03-29T07:58:33.577Z</time></trkpt><trkpt lat="43.85542" lon="12.2154717"><ele>730.0</ele><time>2026-03-29T07:58:34.577Z</time></trkpt><trkpt lat="43.8553617" lon="12.2155917"><ele>732.0</ele><time>2026-03-29T07:58:35.576Z</time></trkpt><trkpt lat="43.85532" lon="12.2157217"><ele>734.0</ele><time>2026-03-29T07:58:36.577Z</time></trkpt><trkpt lat="43.8553417" lon="12.2158583"><ele>736.0</ele><time>2026-03-29T07:58:37.576Z</time></trkpt><trkpt lat="43.8553983" lon="12.2159983"><ele>738.0</ele><time>2026-03-29T07:58:38.577Z</time></trkpt><trkpt lat="43.8554517" lon="12.216115"><ele>740.0</ele><time>2026-03-29T07:58:39.576Z</time></trkpt><trkpt lat="43.85549" lon="12.2162233"><ele>740.0</ele><time>2026-03-29T07:58:40.576Z</time></trkpt><trkpt lat="43.8554867" lon="12.2163233"><ele>740.0</ele><time>2026-03-29T07:58:41.577Z</time></trkpt><trkpt lat="43.8554383" lon="12.2164067"><ele>740.0</ele><time>2026-03-29T07:58:42.576Z</time></trkpt><trkpt lat="43.8553583" lon="12.2164667"><ele>740.0</ele><time>2026-03-29T07:58:43.577Z</time></trkpt><trkpt lat="43.8552517" lon="12.2164883"><ele>740.0</ele><time>2026-03-29T07:58:44.576Z</time></trkpt><trkpt lat="43.85512" lon="12.21647"><ele>739.3333333333333</ele><time>2026-03-29T07:58:45.577Z</time></trkpt><trkpt lat="43.854965" lon="12.2164317"><ele>738.6666666666666</ele><time>2026-03-29T07:58:46.577Z</time></trkpt><trkpt lat="43.8548017" lon="12.2163667"><ele>738.0</ele><time>2026-03-29T07:58:47.577Z</time></trkpt><trkpt lat="43.8546117" lon="12.2163167"><ele>738.0</ele><time>2026-03-29T07:58:48.576Z</time></trkpt><trkpt lat="43.854415" lon="12.2162583"><ele>738.0</ele><time>2026-03-29T07:58:49.576Z</time></trkpt><trkpt lat="43.85424" lon="12.21619"><ele>738.0</ele><time>2026-03-29T07:58:50.576Z</time></trkpt><trkpt lat="43.8540767" lon="12.21613"><ele>740.6666666666666</ele><time>2026-03-29T07:58:51.577Z</time></trkpt><trkpt lat="43.8539167" lon="12.2160783"><ele>743.3333333333333</ele><time>2026-03-29T07:58:52.577Z</time></trkpt><trkpt lat="43.8537717" lon="12.2160083"><ele>746.0</ele><time>2026-03-29T07:58:53.577Z</time></trkpt><trkpt lat="43.8536317" lon="12.2159167"><ele>746.0</ele><time>2026-03-29T07:58:54.577Z</time></trkpt><trkpt lat="43.8534983" lon="12.2157917"><ele>746.0</ele><time>2026-03-29T07:58:55.577Z</time></trkpt><trkpt lat="43.8533717" lon="12.2156417"><ele>746.0</ele><time>2026-03-29T07:58:56.576Z</time></trkpt><trkpt lat="43.8532483" lon="12.2154983"><ele>747.0</ele><time>2026-03-29T07:58:57.576Z</time></trkpt><trkpt lat="43.853145" lon="12.2153617"><ele>748.0</ele><time>2026-03-29T07:58:58.577Z</time></trkpt><trkpt lat="43.85305" lon="12.2152417"><ele>749.0</ele><time>2026-03-29T07:58:59.577Z</time></trkpt><trkpt lat="43.85296" lon="12.2151517"><ele>750.0</ele><time>2026-03-29T07:59:00.576Z</time></trkpt><trkpt lat="43.8528733" lon="12.2150983"><ele>750.0</ele><time>2026-03-29T07:59:01.577Z</time></trkpt><trkpt lat="43.8527617" lon="12.215075"><ele>750.0</ele><time>2026-03-29T07:59:02.577Z</time></trkpt><trkpt lat="43.8526433" lon="12.2150867"><ele>750.0</ele><time>2026-03-29T07:59:03.577Z</time></trkpt><trkpt lat="43.85252" lon="12.215125"><ele>750.0</ele><time>2026-03-29T07:59:04.577Z</time></trkpt><trkpt lat="43.8524083" lon="12.2151633"><ele>750.0</ele><time>2026-03-29T07:59:05.577Z</time></trkpt><trkpt lat="43.8523267" lon="12.2151783"><ele>750.0</ele><time>2026-03-29T07:59:06.578Z</time></trkpt><trkpt lat="43.8522533" lon="12.215175"><ele>750.0</ele><time>2026-03-29T07:59:07.578Z</time></trkpt><trkpt lat="43.8521933" lon="12.2151417"><ele>750.0</ele><time>2026-03-29T07:59:08.578Z</time></trkpt><trkpt lat="43.852135" lon="12.2150683"><ele>750.0</ele><time>2026-03-29T07:59:09.578Z</time></trkpt><trkpt lat="43.8520767" lon="12.2149583"><ele>750.0</ele><time>2026-03-29T07:59:10.578Z</time></trkpt><trkpt lat="43.8520367" lon="12.2148317"><ele>749.0</ele><time>2026-03-29T07:59:11.577Z</time></trkpt><trkpt lat="43.8520017" lon="12.2147083"><ele>748.0</ele><time>2026-03-29T07:59:12.578Z</time></trkpt><trkpt lat="43.8519633" lon="12.2145883"><ele>747.0</ele><time>2026-03-29T07:59:13.577Z</time></trkpt><trkpt lat="43.8519083" lon="12.2144883"><ele>746.0</ele><time>2026-03-29T07:59:14.578Z</time></trkpt><trkpt lat="43.851825" lon="12.2144067"><ele>745.0</ele><time>2026-03-29T07:59:15.578Z</time></trkpt><trkpt lat="43.851715" lon="12.214335"><ele>744.5</ele><time>2026-03-29T07:59:16.578Z</time></trkpt><trkpt lat="43.851585" lon="12.21427"><ele>744.0</ele><time>2026-03-29T07:59:17.577Z</time></trkpt><trkpt lat="43.8514533" lon="12.214215"><ele>743.5</ele><time>2026-03-29T07:59:18.577Z</time></trkpt><trkpt lat="43.8513267" lon="12.2141717"><ele>743.0</ele><time>2026-03-29T07:59:19.578Z</time></trkpt><trkpt lat="43.85122" lon="12.2141133"><ele>743.0</ele><time>2026-03-29T07:59:20.578Z</time></trkpt><trkpt lat="43.8511233" lon="12.21402"><ele>743.0</ele><time>2026-03-29T07:59:21.577Z</time></trkpt><trkpt lat="43.8510467" lon="12.213885"><ele>743.0</ele><time>2026-03-29T07:59:22.577Z</time></trkpt><trkpt lat="43.850985" lon="12.21373"><ele>743.0</ele><time>2026-03-29T07:59:23.578Z</time></trkpt><trkpt lat="43.8509417" lon="12.2135633"><ele>740.5</ele><time>2026-03-29T07:59:24.578Z</time></trkpt><trkpt lat="43.850915" lon="12.213385"><ele>738.0</ele><time>2026-03-29T07:59:25.577Z</time></trkpt><trkpt lat="43.85089" lon="12.2131917"><ele>735.5</ele><time>2026-03-29T07:59:26.577Z</time></trkpt><trkpt lat="43.8508617" lon="12.2129883"><ele>733.0</ele><time>2026-03-29T07:59:27.577Z</time></trkpt><trkpt lat="43.8508317" lon="12.21279"><ele>732.25</ele><time>2026-03-29T07:59:28.578Z</time></trkpt><trkpt lat="43.8507983" lon="12.2125967"><ele>731.5</ele><time>2026-03-29T07:59:29.577Z</time></trkpt><trkpt lat="43.8507617" lon="12.2124117"><ele>730.75</ele><time>2026-03-29T07:59:30.577Z</time></trkpt><trkpt lat="43.8507333" lon="12.21224"><ele>730.0</ele><time>2026-03-29T07:59:31.578Z</time></trkpt><trkpt lat="43.8506983" lon="12.21207"><ele>727.5</ele><time>2026-03-29T07:59:32.578Z</time></trkpt><trkpt lat="43.8506317" lon="12.2119167"><ele>725.0</ele><time>2026-03-29T07:59:33.578Z</time></trkpt><trkpt lat="43.8505417" lon="12.211785"><ele>722.5</ele><time>2026-03-29T07:59:34.578Z</time></trkpt><trkpt lat="43.8504367" lon="12.2116833"><ele>720.0</ele><time>2026-03-29T07:59:35.578Z</time></trkpt><trkpt lat="43.8503367" lon="12.2115933"><ele>716.5</ele><time>2026-03-29T07:59:36.578Z</time></trkpt><trkpt lat="43.8502567" lon="12.2114767"><ele>713.0</ele><time>2026-03-29T07:59:37.578Z</time></trkpt><trkpt lat="43.8501967" lon="12.2113367"><ele>709.5</ele><time>2026-03-29T07:59:38.577Z</time></trkpt><trkpt lat="43.8501667" lon="12.2111817"><ele>706.0</ele><time>2026-03-29T07:59:39.577Z</time></trkpt><trkpt lat="43.850175" lon="12.2110233"><ele>706.0</ele><time>2026-03-29T07:59:40.578Z</time></trkpt><trkpt lat="43.8502183" lon="12.2108867"><ele>706.0</ele><time>2026-03-29T07:59:41.577Z</time></trkpt><trkpt lat="43.8502633" lon="12.2107683"><ele>706.0</ele><time>2026-03-29T07:59:42.578Z</time></trkpt><trkpt lat="43.8502833" lon="12.21066"><ele>706.0</ele><time>2026-03-29T07:59:43.578Z</time></trkpt><trkpt lat="43.850285" lon="12.21056"><ele>706.0</ele><time>2026-03-29T07:59:44.578Z</time></trkpt><trkpt lat="43.8502267" lon="12.21046"><ele>704.25</ele><time>2026-03-29T07:59:45.577Z</time></trkpt><trkpt lat="43.8501467" lon="12.2103767"><ele>702.5</ele><time>2026-03-29T07:59:46.578Z</time></trkpt><trkpt lat="43.8500333" lon="12.2103183"><ele>700.75</ele><time>2026-03-29T07:59:47.578Z</time></trkpt><trkpt lat="43.84989" lon="12.2102783"><ele>699.0</ele><time>2026-03-29T07:59:48.578Z</time></trkpt><trkpt lat="43.8497317" lon="12.2102517"><ele>699.0</ele><time>2026-03-29T07:59:49.578Z</time></trkpt><trkpt lat="43.8495617" lon="12.2102267"><ele>699.0</ele><time>2026-03-29T07:59:50.578Z</time></trkpt><trkpt lat="43.8493983" lon="12.2102067"><ele>699.0</ele><time>2026-03-29T07:59:51.578Z</time></trkpt><trkpt lat="43.84925" lon="12.210175"><ele>698.5</ele><time>2026-03-29T07:59:52.578Z</time></trkpt><trkpt lat="43.8491033" lon="12.2101383"><ele>698.0</ele><time>2026-03-29T07:59:53.578Z</time></trkpt><trkpt lat="43.84897" lon="12.2101017"><ele>697.5</ele><time>2026-03-29T07:59:54.577Z</time></trkpt><trkpt lat="43.8488517" lon="12.2100533"><ele>697.0</ele><time>2026-03-29T07:59:55.578Z</time></trkpt><trkpt lat="43.848745" lon="12.21004"><ele>697.0</ele><time>2026-03-29T07:59:56.577Z</time></trkpt><trkpt lat="43.84865" lon="12.210045"><ele>697.0</ele><time>2026-03-29T07:59:57.577Z</time></trkpt><trkpt lat="43.84858" lon="12.2101083"><ele>697.0</ele><time>2026-03-29T07:59:58.578Z</time></trkpt><trkpt lat="43.8485033" lon="12.2101967"><ele>697.0</ele><time>2026-03-29T07:59:59.578Z</time></trkpt><trkpt lat="43.848445" lon="12.21034"><ele>697.0</ele><time>2026-03-29T08:00:00.577Z</time></trkpt><trkpt lat="43.84839" lon="12.2105233"><ele>697.3333333333334</ele><time>2026-03-29T08:00:01.578Z</time></trkpt><trkpt lat="43.84833" lon="12.2107333"><ele>697.6666666666666</ele><time>2026-03-29T08:00:02.577Z</time></trkpt><trkpt lat="43.8482683" lon="12.210935"><ele>698.0</ele><time>2026-03-29T08:00:03.577Z</time></trkpt><trkpt lat="43.8482017" lon="12.2111217"><ele>698.0</ele><time>2026-03-29T08:00:04.578Z</time></trkpt><trkpt lat="43.84813" lon="12.2113133"><ele>698.0</ele><time>2026-03-29T08:00:05.578Z</time></trkpt><trkpt lat="43.8480683" lon="12.2115"><ele>698.0</ele><time>2026-03-29T08:00:06.577Z</time></trkpt><trkpt lat="43.848005" lon="12.2116783"><ele>698.0</ele><time>2026-03-29T08:00:07.578Z</time></trkpt><trkpt lat="43.8479317" lon="12.2118467"><ele>699.75</ele><time>2026-03-29T08:00:08.578Z</time></trkpt><trkpt lat="43.8478333" lon="12.2119817"><ele>701.5</ele><time>2026-03-29T08:00:09.578Z</time></trkpt><trkpt lat="43.8477133" lon="12.2120967"><ele>703.25</ele><time>2026-03-29T08:00:10.577Z</time></trkpt><trkpt lat="43.84759" lon="12.212185"><ele>705.0</ele><time>2026-03-29T08:00:11.578Z</time></trkpt><trkpt lat="43.8474517" lon="12.2122583"><ele>699.0</ele><time>2026-03-29T08:00:12.578Z</time></trkpt><trkpt lat="43.8473117" lon="12.2123017"><ele>693.0</ele><time>2026-03-29T08:00:13.578Z</time></trkpt><trkpt lat="43.8471583" lon="12.212315"><ele>687.0</ele><time>2026-03-29T08:00:14.578Z</time></trkpt><trkpt lat="43.8470033" lon="12.2123267"><ele>687.0</ele><time>2026-03-29T08:00:15.577Z</time></trkpt><trkpt lat="43.84685" lon="12.2123617"><ele>687.0</ele><time>2026-03-29T08:00:16.578Z</time></trkpt><trkpt lat="43.84671" lon="12.2124033"><ele>687.0</ele><time>2026-03-29T08:00:17.578Z</time></trkpt><trkpt lat="43.8465667" lon="12.2124367"><ele>687.0</ele><time>2026-03-29T08:00:18.577Z</time></trkpt><trkpt lat="43.846425" lon="12.212455"><ele>683.0</ele><time>2026-03-29T08:00:19.577Z</time></trkpt><trkpt lat="43.8462833" lon="12.2124517"><ele>679.0</ele><time>2026-03-29T08:00:20.578Z</time></trkpt><trkpt lat="43.84614" lon="12.21246"><ele>675.0</ele><time>2026-03-29T08:00:21.578Z</time></trkpt><trkpt lat="43.845995" lon="12.2124817"><ele>671.0</ele><time>2026-03-29T08:00:22.578Z</time></trkpt><trkpt lat="43.8458533" lon="12.21252"><ele>667.5</ele><time>2026-03-29T08:00:23.578Z</time></trkpt><trkpt lat="43.8457283" lon="12.21256"><ele>664.0</ele><time>2026-03-29T08:00:24.578Z</time></trkpt><trkpt lat="43.845615" lon="12.2125783"><ele>660.5</ele><time>2026-03-29T08:00:25.577Z</time></trkpt><trkpt lat="43.8455017" lon="12.2125783"><ele>657.0</ele><time>2026-03-29T08:00:26.578Z</time></trkpt><trkpt lat="43.8453767" lon="12.2125283"><ele>657.0</ele><time>2026-03-29T08:00:27.578Z</time></trkpt><trkpt lat="43.8452517" lon="12.2124433"><ele>657.0</ele><time>2026-03-29T08:00:28.578Z</time></trkpt><trkpt lat="43.84512" lon="12.212375"><ele>657.0</ele><time>2026-03-29T08:00:29.578Z</time></trkpt><trkpt lat="43.845" lon="12.2123467"><ele>657.0</ele><time>2026-03-29T08:00:30.577Z</time></trkpt><trkpt lat="43.8448767" lon="12.2123683"><ele>655.0</ele><time>2026-03-29T08:00:31.577Z</time></trkpt><trkpt lat="43.8447433" lon="12.21243"><ele>653.0</ele><time>2026-03-29T08:00:32.578Z</time></trkpt><trkpt lat="43.8446" lon="12.2125"><ele>651.0</ele><time>2026-03-29T08:00:33.578Z</time></trkpt><trkpt lat="43.8444367" lon="12.2125483"><ele>648.3333333333334</ele><time>2026-03-29T08:00:34.578Z</time></trkpt><trkpt lat="43.844285" lon="12.21256"><ele>645.6666666666667</ele><time>2026-03-29T08:00:35.577Z</time></trkpt><trkpt lat="43.8441283" lon="12.2125817"><ele>643.0</ele><time>2026-03-29T08:00:36.578Z</time></trkpt><trkpt lat="43.8439533" lon="12.2126217"><ele>643.0</ele><time>2026-03-29T08:00:37.578Z</time></trkpt><trkpt lat="43.843775" lon="12.212675"><ele>643.0</ele><time>2026-03-29T08:00:38.578Z</time></trkpt><trkpt lat="43.8436083" lon="12.2127217"><ele>643.0</ele><time>2026-03-29T08:00:39.577Z</time></trkpt><trkpt lat="43.8434533" lon="12.212745"><ele>641.0</ele><time>2026-03-29T08:00:40.578Z</time></trkpt><trkpt lat="43.8433183" lon="12.2127517"><ele>639.0</ele><time>2026-03-29T08:00:41.578Z</time></trkpt><trkpt lat="43.843205" lon="12.2127733"><ele>637.0</ele><time>2026-03-29T08:00:42.578Z</time></trkpt><trkpt lat="43.8431083" lon="12.2128017"><ele>635.0</ele><time>2026-03-29T08:00:43.577Z</time></trkpt><trkpt lat="43.84302" lon="12.2128467"><ele>633.0</ele><time>2026-03-29T08:00:44.578Z</time></trkpt><trkpt lat="43.84296" lon="12.21293"><ele>633.0</ele><time>2026-03-29T08:00:45.578Z</time></trkpt><trkpt lat="43.8429333" lon="12.2130317"><ele>633.0</ele><time>2026-03-29T08:00:46.578Z</time></trkpt><trkpt lat="43.8429567" lon="12.21318"><ele>633.0</ele><time>2026-03-29T08:00:47.578Z</time></trkpt><trkpt lat="43.843005" lon="12.2133417"><ele>633.0</ele><time>2026-03-29T08:00:48.578Z</time></trkpt><trkpt lat="43.8430533" lon="12.2134833"><ele>633.0</ele><time>2026-03-29T08:00:49.577Z</time></trkpt><trkpt lat="43.8430867" lon="12.213585"><ele>633.6</ele><time>2026-03-29T08:00:50.577Z</time></trkpt><trkpt lat="43.8430883" lon="12.2137267"><ele>634.1999999999999</ele><time>2026-03-29T08:00:52.578Z</time></trkpt><trkpt lat="43.842995" lon="12.2137633"><ele>634.8</ele><time>2026-03-29T08:00:54.578Z</time></trkpt><trkpt lat="43.8429317" lon="12.21369"><ele>635.4</ele><time>2026-03-29T08:00:55.578Z</time></trkpt><trkpt lat="43.84285" lon="12.2135633"><ele>636.0</ele><time>2026-03-29T08:00:56.578Z</time></trkpt><trkpt lat="43.84276" lon="12.2134317"><ele>636.0</ele><time>2026-03-29T08:00:57.578Z</time></trkpt><trkpt lat="43.8426733" lon="12.213315"><ele>636.0</ele><time>2026-03-29T08:00:58.577Z</time></trkpt><trkpt lat="43.8426033" lon="12.2132383"><ele>636.0</ele><time>2026-03-29T08:00:59.578Z</time></trkpt><trkpt lat="43.8425417" lon="12.21319"><ele>636.0</ele><time>2026-03-29T08:01:00.578Z</time></trkpt><trkpt lat="43.8424267" lon="12.2132017"><ele>636.0</ele><time>2026-03-29T08:01:02.578Z</time></trkpt><trkpt lat="43.8423983" lon="12.2132817"><ele>633.0</ele><time>2026-03-29T08:01:03.578Z</time></trkpt><trkpt lat="43.84239" lon="12.2133817"><ele>630.0</ele><time>2026-03-29T08:01:04.578Z</time></trkpt><trkpt lat="43.8424283" lon="12.2135133"><ele>627.0</ele><time>2026-03-29T08:01:05.578Z</time></trkpt><trkpt lat="43.84249" lon="12.213685"><ele>624.0</ele><time>2026-03-29T08:01:06.578Z</time></trkpt><trkpt lat="43.8425633" lon="12.2138883"><ele>624.5</ele><time>2026-03-29T08:01:07.578Z</time></trkpt><trkpt lat="43.8426317" lon="12.2140817"><ele>625.0</ele><time>2026-03-29T08:01:08.578Z</time></trkpt><trkpt lat="43.8426917" lon="12.2142417"><ele>625.5</ele><time>2026-03-29T08:01:09.577Z</time></trkpt><trkpt lat="43.8427433" lon="12.2143667"><ele>626.0</ele><time>2026-03-29T08:01:10.578Z</time></trkpt><trkpt lat="43.84278" lon="12.21445"><ele>626.0</ele><time>2026-03-29T08:01:11.578Z</time></trkpt><trkpt lat="43.8428083" lon="12.21457"><ele>626.0</ele><time>2026-03-29T08:01:13.578Z</time></trkpt><trkpt lat="43.84274" lon="12.214635"><ele>626.0</ele><time>2026-03-29T08:01:15.578Z</time></trkpt><trkpt lat="43.8426167" lon="12.2145333"><ele>626.0</ele><time>2026-03-29T08:01:17.578Z</time></trkpt><trkpt lat="43.8425483" lon="12.2144133"><ele>626.0</ele><time>2026-03-29T08:01:18.577Z</time></trkpt><trkpt lat="43.842485" lon="12.214265"><ele>625.5</ele><time>2026-03-29T08:01:19.578Z</time></trkpt><trkpt lat="43.8424033" lon="12.2141333"><ele>625.0</ele><time>2026-03-29T08:01:20.578Z</time></trkpt><trkpt lat="43.8422883" lon="12.21404"><ele>624.5</ele><time>2026-03-29T08:01:21.578Z</time></trkpt><trkpt lat="43.8421583" lon="12.2139717"><ele>624.0</ele><time>2026-03-29T08:01:22.577Z</time></trkpt><trkpt lat="43.8420317" lon="12.213925"><ele>624.0</ele><time>2026-03-29T08:01:23.578Z</time></trkpt><trkpt lat="43.8418933" lon="12.21382"><ele>624.0</ele><time>2026-03-29T08:01:24.578Z</time></trkpt><trkpt lat="43.8417717" lon="12.2136867"><ele>624.0</ele><time>2026-03-29T08:01:25.578Z</time></trkpt><trkpt lat="43.84166" lon="12.2135517"><ele>621.3333333333334</ele><time>2026-03-29T08:01:26.578Z</time></trkpt><trkpt lat="43.84157" lon="12.2134517"><ele>618.6666666666666</ele><time>2026-03-29T08:01:27.578Z</time></trkpt><trkpt lat="43.841495" lon="12.2133683"><ele>616.0</ele><time>2026-03-29T08:01:28.578Z</time></trkpt><trkpt lat="43.84143" lon="12.2133033"><ele>613.3333333333333</ele><time>2026-03-29T08:01:29.578Z</time></trkpt><trkpt lat="43.84137" lon="12.2132467"><ele>610.6666666666666</ele><time>2026-03-29T08:01:30.578Z</time></trkpt><trkpt lat="43.8413083" lon="12.2131933"><ele>608.0</ele><time>2026-03-29T08:01:31.578Z</time></trkpt><trkpt lat="43.8411833" lon="12.21318"><ele>608.0</ele><time>2026-03-29T08:01:33.578Z</time></trkpt><trkpt lat="43.84112" lon="12.2132017"><ele>608.0</ele><time>2026-03-29T08:01:34.577Z</time></trkpt><trkpt lat="43.8410633" lon="12.21325"><ele>608.0</ele><time>2026-03-29T08:01:35.577Z</time></trkpt><trkpt lat="43.8410167" lon="12.2133267"><ele>608.0</ele><time>2026-03-29T08:01:36.578Z</time></trkpt><trkpt lat="43.841" lon="12.2134217"><ele>608.0</ele><time>2026-03-29T08:01:37.577Z</time></trkpt><trkpt lat="43.841005" lon="12.2135367"><ele>608.0</ele><time>2026-03-29T08:01:38.578Z</time></trkpt><trkpt lat="43.841055" lon="12.213705"><ele>608.0</ele><time>2026-03-29T08:01:39.578Z</time></trkpt><trkpt lat="43.841115" lon="12.2138967"><ele>608.0</ele><time>2026-03-29T08:01:40.578Z</time></trkpt><trkpt lat="43.84118" lon="12.2140867"><ele>608.0</ele><time>2026-03-29T08:01:41.578Z</time></trkpt><trkpt lat="43.841245" lon="12.2142667"><ele>608.0</ele><time>2026-03-29T08:01:42.577Z</time></trkpt><trkpt lat="43.841305" lon="12.2144267"><ele>606.6</ele><time>2026-03-29T08:01:43.578Z</time></trkpt><trkpt lat="43.841355" lon="12.2145617"><ele>605.1999999999999</ele><time>2026-03-29T08:01:44.578Z</time></trkpt><trkpt lat="43.8413967" lon="12.21466"><ele>603.8</ele><time>2026-03-29T08:01:45.577Z</time></trkpt><trkpt lat="43.8414217" lon="12.214755"><ele>602.4</ele><time>2026-03-29T08:01:46.578Z</time></trkpt><trkpt lat="43.84141" lon="12.2149117"><ele>601.0</ele><time>2026-03-29T08:01:48.578Z</time></trkpt><trkpt lat="43.8413" lon="12.215015"><ele>599.0</ele><time>2026-03-29T08:01:50.577Z</time></trkpt><trkpt lat="43.84121" lon="12.2150233"><ele>597.0</ele><time>2026-03-29T08:01:51.578Z</time></trkpt><trkpt lat="43.8411083" lon="12.2149983"><ele>595.0</ele><time>2026-03-29T08:01:52.578Z</time></trkpt><trkpt lat="43.8409967" lon="12.2149133"><ele>593.0</ele><time>2026-03-29T08:01:53.577Z</time></trkpt><trkpt lat="43.8409017" lon="12.2148117"><ele>591.0</ele><time>2026-03-29T08:01:54.578Z</time></trkpt><trkpt lat="43.8408117" lon="12.214715"><ele>591.0</ele><time>2026-03-29T08:01:55.578Z</time></trkpt><trkpt lat="43.8407167" lon="12.214635"><ele>591.0</ele><time>2026-03-29T08:01:56.577Z</time></trkpt><trkpt lat="43.8406083" lon="12.2145817"><ele>591.0</ele><time>2026-03-29T08:01:57.578Z</time></trkpt><trkpt lat="43.8404967" lon="12.214565"><ele>591.0</ele><time>2026-03-29T08:01:58.577Z</time></trkpt><trkpt lat="43.840385" lon="12.2145633"><ele>591.0</ele><time>2026-03-29T08:01:59.578Z</time></trkpt><trkpt lat="43.84028" lon="12.2145567"><ele>591.0</ele><time>2026-03-29T08:02:00.577Z</time></trkpt><trkpt lat="43.840175" lon="12.2145333"><ele>591.0</ele><time>2026-03-29T08:02:01.578Z</time></trkpt><trkpt lat="43.840075" lon="12.214495"><ele>591.0</ele><time>2026-03-29T08:02:02.577Z</time></trkpt><trkpt lat="43.8399817" lon="12.2144433"><ele>591.0</ele><time>2026-03-29T08:02:03.578Z</time></trkpt><trkpt lat="43.83989" lon="12.2143767"><ele>589.0</ele><time>2026-03-29T08:02:04.577Z</time></trkpt><trkpt lat="43.8397917" lon="12.2143067"><ele>587.0</ele><time>2026-03-29T08:02:05.578Z</time></trkpt><trkpt lat="43.8396833" lon="12.214235"><ele>585.0</ele><time>2026-03-29T08:02:06.577Z</time></trkpt><trkpt lat="43.8395767" lon="12.214165"><ele>583.0</ele><time>2026-03-29T08:02:07.578Z</time></trkpt><trkpt lat="43.8394933" lon="12.21411"><ele>581.0</ele><time>2026-03-29T08:02:08.578Z</time></trkpt><trkpt lat="43.839425" lon="12.2140733"><ele>581.0</ele><time>2026-03-29T08:02:09.578Z</time></trkpt><trkpt lat="43.839315" lon="12.2140883"><ele>581.0</ele><time>2026-03-29T08:02:11.578Z</time></trkpt><trkpt lat="43.8392967" lon="12.2141933"><ele>581.0</ele><time>2026-03-29T08:02:12.578Z</time></trkpt><trkpt lat="43.8393083" lon="12.214335"><ele>581.0</ele><time>2026-03-29T08:02:13.578Z</time></trkpt><trkpt lat="43.83934" lon="12.21451"><ele>581.0</ele><time>2026-03-29T08:02:14.577Z</time></trkpt><trkpt lat="43.83938" lon="12.2146983"><ele>578.25</ele><time>2026-03-29T08:02:15.578Z</time></trkpt><trkpt lat="43.83942" lon="12.2148917"><ele>575.5</ele><time>2026-03-29T08:02:16.578Z</time></trkpt><trkpt lat="43.8394533" lon="12.2150617"><ele>572.75</ele><time>2026-03-29T08:02:17.577Z</time></trkpt><trkpt lat="43.8395067" lon="12.215205"><ele>570.0</ele><time>2026-03-29T08:02:18.578Z</time></trkpt><trkpt lat="43.8395817" lon="12.21532"><ele>570.0</ele><time>2026-03-29T08:02:19.577Z</time></trkpt><trkpt lat="43.83965" lon="12.2154217"><ele>570.0</ele><time>2026-03-29T08:02:20.578Z</time></trkpt><trkpt lat="43.8397067" lon="12.2155383"><ele>570.0</ele><time>2026-03-29T08:02:21.578Z</time></trkpt><trkpt lat="43.8397383" lon="12.2156683"><ele>570.0</ele><time>2026-03-29T08:02:22.578Z</time></trkpt><trkpt lat="43.839735" lon="12.2158183"><ele>570.0</ele><time>2026-03-29T08:02:23.577Z</time></trkpt><trkpt lat="43.839715" lon="12.2159617"><ele>568.8</ele><time>2026-03-29T08:02:24.577Z</time></trkpt><trkpt lat="43.83969" lon="12.2160833"><ele>567.6</ele><time>2026-03-29T08:02:25.578Z</time></trkpt><trkpt lat="43.839645" lon="12.216195"><ele>566.4</ele><time>2026-03-29T08:02:26.578Z</time></trkpt><trkpt lat="43.8395783" lon="12.2162933"><ele>565.2</ele><time>2026-03-29T08:02:27.578Z</time></trkpt><trkpt lat="43.8394817" lon="12.21637"><ele>564.0</ele><time>2026-03-29T08:02:28.578Z</time></trkpt><trkpt lat="43.8393567" lon="12.216415"><ele>562.25</ele><time>2026-03-29T08:02:29.578Z</time></trkpt><trkpt lat="43.8392267" lon="12.21644"><ele>560.5</ele><time>2026-03-29T08:02:30.577Z</time></trkpt><trkpt lat="43.8390983" lon="12.2164567"><ele>558.75</ele><time>2026-03-29T08:02:31.578Z</time></trkpt><trkpt lat="43.838965" lon="12.2164517"><ele>557.0</ele><time>2026-03-29T08:02:32.578Z</time></trkpt><trkpt lat="43.8388217" lon="12.2164233"><ele>557.0</ele><time>2026-03-29T08:02:33.577Z</time></trkpt><trkpt lat="43.8386633" lon="12.216385"><ele>557.0</ele><time>2026-03-29T08:02:34.578Z</time></trkpt><trkpt lat="43.8385133" lon="12.2163267"><ele>557.0</ele><time>2026-03-29T08:02:35.578Z</time></trkpt><trkpt lat="43.8383483" lon="12.2162633"><ele>554.6666666666666</ele><time>2026-03-29T08:02:36.578Z</time></trkpt><trkpt lat="43.838165" lon="12.2161967"><ele>552.3333333333334</ele><time>2026-03-29T08:02:37.578Z</time></trkpt><trkpt lat="43.8379767" lon="12.21613"><ele>550.0</ele><time>2026-03-29T08:02:38.577Z</time></trkpt><trkpt lat="43.8378033" lon="12.2160683"><ele>548.0</ele><time>2026-03-29T08:02:39.578Z</time></trkpt><trkpt lat="43.8376317" lon="12.2160133"><ele>546.0</ele><time>2026-03-29T08:02:40.577Z</time></trkpt><trkpt lat="43.8374667" lon="12.21595"><ele>544.0</ele><time>2026-03-29T08:02:41.578Z</time></trkpt><trkpt lat="43.8373117" lon="12.2159017"><ele>544.0</ele><time>2026-03-29T08:02:42.577Z</time></trkpt><trkpt lat="43.837165" lon="12.2158733"><ele>544.0</ele><time>2026-03-29T08:02:43.578Z</time></trkpt><trkpt lat="43.8370283" lon="12.2158717"><ele>544.0</ele><time>2026-03-29T08:02:44.578Z</time></trkpt><trkpt lat="43.836895" lon="12.2158817"><ele>544.0</ele><time>2026-03-29T08:02:45.578Z</time></trkpt><trkpt lat="43.8367583" lon="12.2159"><ele>541.75</ele><time>2026-03-29T08:02:46.578Z</time></trkpt><trkpt lat="43.8366283" lon="12.2159317"><ele>539.5</ele><time>2026-03-29T08:02:47.578Z</time></trkpt><trkpt lat="43.8365033" lon="12.2159733"><ele>537.25</ele><time>2026-03-29T08:02:48.578Z</time></trkpt><trkpt lat="43.83638" lon="12.2160117"><ele>535.0</ele><time>2026-03-29T08:02:49.578Z</time></trkpt><trkpt lat="43.8362633" lon="12.2160483"><ele>535.0</ele><time>2026-03-29T08:02:50.578Z</time></trkpt><trkpt lat="43.836155" lon="12.216075"><ele>535.0</ele><time>2026-03-29T08:02:51.578Z</time></trkpt><trkpt lat="43.8360433" lon="12.2161017"><ele>535.0</ele><time>2026-03-29T08:02:52.578Z</time></trkpt><trkpt lat="43.83594" lon="12.2161233"><ele>535.0</ele><time>2026-03-29T08:02:53.578Z</time></trkpt><trkpt lat="43.8358333" lon="12.2161567"><ele>535.0</ele><time>2026-03-29T08:02:54.578Z</time></trkpt><trkpt lat="43.83573" lon="12.2161867"><ele>533.8</ele><time>2026-03-29T08:02:55.578Z</time></trkpt><trkpt lat="43.8356317" lon="12.216215"><ele>532.6</ele><time>2026-03-29T08:02:56.578Z</time></trkpt><trkpt lat="43.8355367" lon="12.2162433"><ele>531.4</ele><time>2026-03-29T08:02:57.577Z</time></trkpt><trkpt lat="43.83543" lon="12.21625"><ele>530.2</ele><time>2026-03-29T08:02:58.578Z</time></trkpt><trkpt lat="43.8353267" lon="12.216245"><ele>529.0</ele><time>2026-03-29T08:02:59.578Z</time></trkpt><trkpt lat="43.8352267" lon="12.216235"><ele>527.8</ele><time>2026-03-29T08:03:00.577Z</time></trkpt><trkpt lat="43.8351233" lon="12.2162283"><ele>526.5999999999999</ele><time>2026-03-29T08:03:01.577Z</time></trkpt><trkpt lat="43.835025" lon="12.2162133"><ele>525.4</ele><time>2026-03-29T08:03:02.578Z</time></trkpt><trkpt lat="43.8349117" lon="12.2162017"><ele>524.1999999999999</ele><time>2026-03-29T08:03:03.578Z</time></trkpt><trkpt lat="43.834785" lon="12.216195"><ele>523.0</ele><time>2026-03-29T08:03:04.577Z</time></trkpt><trkpt lat="43.8346517" lon="12.216175"><ele>523.0</ele><time>2026-03-29T08:03:05.578Z</time></trkpt><trkpt lat="43.834505" lon="12.21615"><ele>523.0</ele><time>2026-03-29T08:03:06.578Z</time></trkpt><trkpt lat="43.8343633" lon="12.2161283"><ele>523.0</ele><time>2026-03-29T08:03:07.578Z</time></trkpt><trkpt lat="43.8342267" lon="12.2161033"><ele>523.0</ele><time>2026-03-29T08:03:08.578Z</time></trkpt><trkpt lat="43.8340783" lon="12.2160933"><ele>521.0</ele><time>2026-03-29T08:03:09.578Z</time></trkpt><trkpt lat="43.8339167" lon="12.21607"><ele>519.0</ele><time>2026-03-29T08:03:10.578Z</time></trkpt><trkpt lat="43.833745" lon="12.2160483"><ele>517.0</ele><time>2026-03-29T08:03:11.578Z</time></trkpt><trkpt lat="43.8335717" lon="12.216035"><ele>514.3333333333334</ele><time>2026-03-29T08:03:12.578Z</time></trkpt><trkpt lat="43.8334067" lon="12.2160217"><ele>511.66666666666663</ele><time>2026-03-29T08:03:13.577Z</time></trkpt><trkpt lat="43.8332433" lon="12.216005"><ele>509.0</ele><time>2026-03-29T08:03:14.578Z</time></trkpt><trkpt lat="43.8330967" lon="12.2159767"><ele>509.0</ele><time>2026-03-29T08:03:15.578Z</time></trkpt><trkpt lat="43.832955" lon="12.21595"><ele>509.0</ele><time>2026-03-29T08:03:16.578Z</time></trkpt><trkpt lat="43.8328233" lon="12.2159283"><ele>509.0</ele><time>2026-03-29T08:03:17.578Z</time></trkpt><trkpt lat="43.8326983" lon="12.215925"><ele>509.0</ele><time>2026-03-29T08:03:18.578Z</time></trkpt><trkpt lat="43.8325717" lon="12.215955"><ele>507.3333333333333</ele><time>2026-03-29T08:03:19.577Z</time></trkpt><trkpt lat="43.8324367" lon="12.21602"><ele>505.66666666666663</ele><time>2026-03-29T08:03:20.577Z</time></trkpt><trkpt lat="43.8322983" lon="12.2161183"><ele>504.0</ele><time>2026-03-29T08:03:21.578Z</time></trkpt><trkpt lat="43.832155" lon="12.2162233"><ele>504.0</ele><time>2026-03-29T08:03:22.578Z</time></trkpt><trkpt lat="43.83201" lon="12.2163317"><ele>504.0</ele><time>2026-03-29T08:03:23.577Z</time></trkpt><trkpt lat="43.8318683" lon="12.216415"><ele>504.0</ele><time>2026-03-29T08:03:24.578Z</time></trkpt><trkpt lat="43.83173" lon="12.2164883"><ele>503.5</ele><time>2026-03-29T08:03:25.578Z</time></trkpt><trkpt lat="43.831595" lon="12.2165533"><ele>503.0</ele><time>2026-03-29T08:03:26.578Z</time></trkpt><trkpt lat="43.8314733" lon="12.2166133"><ele>502.5</ele><time>2026-03-29T08:03:27.578Z</time></trkpt><trkpt lat="43.8313567" lon="12.2166733"><ele>502.0</ele><time>2026-03-29T08:03:28.578Z</time></trkpt><trkpt lat="43.8312483" lon="12.2167533"><ele>502.0</ele><time>2026-03-29T08:03:29.577Z</time></trkpt><trkpt lat="43.8311433" lon="12.2168583"><ele>502.0</ele><time>2026-03-29T08:03:30.578Z</time></trkpt><trkpt lat="43.8310383" lon="12.2169867"><ele>502.0</ele><time>2026-03-29T08:03:31.578Z</time></trkpt><trkpt lat="43.8309367" lon="12.2171417"><ele>502.0</ele><time>2026-03-29T08:03:32.578Z</time></trkpt><trkpt lat="43.8308367" lon="12.2172983"><ele>500.75</ele><time>2026-03-29T08:03:33.578Z</time></trkpt><trkpt lat="43.8307433" lon="12.217435"><ele>499.5</ele><time>2026-03-29T08:03:34.578Z</time></trkpt><trkpt lat="43.8306567" lon="12.21757"><ele>498.25</ele><time>2026-03-29T08:03:35.578Z</time></trkpt><trkpt lat="43.8305717" lon="12.2177083"><ele>497.0</ele><time>2026-03-29T08:03:36.578Z</time></trkpt><trkpt lat="43.8304717" lon="12.2178567"><ele>497.0</ele><time>2026-03-29T08:03:37.578Z</time></trkpt><trkpt lat="43.830375" lon="12.21801"><ele>497.0</ele><time>2026-03-29T08:03:38.578Z</time></trkpt><trkpt lat="43.8302867" lon="12.2181667"><ele>497.0</ele><time>2026-03-29T08:03:39.578Z</time></trkpt><trkpt lat="43.83021" lon="12.2183083"><ele>497.0</ele><time>2026-03-29T08:03:40.577Z</time></trkpt><trkpt lat="43.8301467" lon="12.2184433"><ele>495.40000000000003</ele><time>2026-03-29T08:03:41.578Z</time></trkpt><trkpt lat="43.8301083" lon="12.2185733"><ele>493.80000000000007</ele><time>2026-03-29T08:03:42.578Z</time></trkpt><trkpt lat="43.8300783" lon="12.218715"><ele>492.2</ele><time>2026-03-29T08:03:43.578Z</time></trkpt><trkpt lat="43.830065" lon="12.2188633"><ele>490.6</ele><time>2026-03-29T08:03:44.578Z</time></trkpt><trkpt lat="43.8300733" lon="12.21901"><ele>489.0</ele><time>2026-03-29T08:03:45.578Z</time></trkpt><trkpt lat="43.830105" lon="12.219145"><ele>488.75</ele><time>2026-03-29T08:03:46.579Z</time></trkpt><trkpt lat="43.83017" lon="12.2192633"><ele>488.5</ele><time>2026-03-29T08:03:47.579Z</time></trkpt><trkpt lat="43.8302717" lon="12.2193817"><ele>488.25</ele><time>2026-03-29T08:03:48.579Z</time></trkpt><trkpt lat="43.830415" lon="12.2195"><ele>488.0</ele><time>2026-03-29T08:03:49.579Z</time></trkpt><trkpt lat="43.8305767" lon="12.2196167"><ele>488.0</ele><time>2026-03-29T08:03:50.579Z</time></trkpt><trkpt lat="43.8307267" lon="12.2197283"><ele>488.0</ele><time>2026-03-29T08:03:51.579Z</time></trkpt><trkpt lat="43.830855" lon="12.219825"><ele>488.0</ele><time>2026-03-29T08:03:52.579Z</time></trkpt><trkpt lat="43.8309633" lon="12.219935"><ele>488.0</ele><time>2026-03-29T08:03:53.579Z</time></trkpt><trkpt lat="43.8310433" lon="12.2200517"><ele>487.99999999999994</ele><time>2026-03-29T08:03:54.578Z</time></trkpt><trkpt lat="43.8311" lon="12.2201667"><ele>487.99999999999994</ele><time>2026-03-29T08:03:55.578Z</time></trkpt><trkpt lat="43.831145" lon="12.2202867"><ele>488.0</ele><time>2026-03-29T08:03:56.579Z</time></trkpt><trkpt lat="43.8311533" lon="12.2204117"><ele>488.0</ele><time>2026-03-29T08:03:57.579Z</time></trkpt><trkpt lat="43.83113" lon="12.2205333"><ele>488.0</ele><time>2026-03-29T08:03:58.579Z</time></trkpt><trkpt lat="43.83107" lon="12.220645"><ele>488.0</ele><time>2026-03-29T08:03:59.579Z</time></trkpt><trkpt lat="43.830975" lon="12.2207367"><ele>488.0</ele><time>2026-03-29T08:04:00.578Z</time></trkpt><trkpt lat="43.830855" lon="12.2208117"><ele>488.0</ele><time>2026-03-29T08:04:01.578Z</time></trkpt><trkpt lat="43.83071" lon="12.220885"><ele>484.66666666666663</ele><time>2026-03-29T08:04:02.578Z</time></trkpt><trkpt lat="43.8305533" lon="12.2209583"><ele>481.33333333333337</ele><time>2026-03-29T08:04:03.578Z</time></trkpt><trkpt lat="43.830395" lon="12.2210367"><ele>478.0</ele><time>2026-03-29T08:04:04.578Z</time></trkpt><trkpt lat="43.830245" lon="12.2211133"><ele>477.5</ele><time>2026-03-29T08:04:05.579Z</time></trkpt><trkpt lat="43.8301217" lon="12.2211833"><ele>477.0</ele><time>2026-03-29T08:04:06.579Z</time></trkpt><trkpt lat="43.8300067" lon="12.221265"><ele>476.5</ele><time>2026-03-29T08:04:07.578Z</time></trkpt><trkpt lat="43.8299033" lon="12.221375"><ele>476.0</ele><time>2026-03-29T08:04:08.579Z</time></trkpt><trkpt lat="43.8298033" lon="12.2215167"><ele>475.25</ele><time>2026-03-29T08:04:09.579Z</time></trkpt><trkpt lat="43.829695" lon="12.22166"><ele>474.5</ele><time>2026-03-29T08:04:10.579Z</time></trkpt><trkpt lat="43.82959" lon="12.2218017"><ele>473.75</ele><time>2026-03-29T08:04:11.578Z</time></trkpt><trkpt lat="43.8294933" lon="12.2219417"><ele>473.0</ele><time>2026-03-29T08:04:12.579Z</time></trkpt><trkpt lat="43.8293917" lon="12.2220667"><ele>472.5</ele><time>2026-03-29T08:04:13.579Z</time></trkpt><trkpt lat="43.8292817" lon="12.22215"><ele>472.0</ele><time>2026-03-29T08:04:14.579Z</time></trkpt><trkpt lat="43.8291633" lon="12.222215"><ele>471.5</ele><time>2026-03-29T08:04:15.579Z</time></trkpt><trkpt lat="43.8290333" lon="12.2222533"><ele>471.0</ele><time>2026-03-29T08:04:16.579Z</time></trkpt><trkpt lat="43.8289" lon="12.2222567"><ele>471.0</ele><time>2026-03-29T08:04:17.579Z</time></trkpt><trkpt lat="43.8287633" lon="12.222225"><ele>471.0</ele><time>2026-03-29T08:04:18.579Z</time></trkpt><trkpt lat="43.828635" lon="12.2221617"><ele>471.0</ele><time>2026-03-29T08:04:19.579Z</time></trkpt><trkpt lat="43.828515" lon="12.2220883"><ele>471.0</ele><time>2026-03-29T08:04:20.579Z</time></trkpt><trkpt lat="43.8284067" lon="12.22203"><ele>469.4</ele><time>2026-03-29T08:04:21.579Z</time></trkpt><trkpt lat="43.8283167" lon="12.2220033"><ele>467.8</ele><time>2026-03-29T08:04:22.579Z</time></trkpt><trkpt lat="43.828235" lon="12.222025"><ele>466.19999999999993</ele><time>2026-03-29T08:04:23.578Z</time></trkpt><trkpt lat="43.8281583" lon="12.2220683"><ele>464.59999999999997</ele><time>2026-03-29T08:04:24.578Z</time></trkpt><trkpt lat="43.8280783" lon="12.222155"><ele>463.0</ele><time>2026-03-29T08:04:25.579Z</time></trkpt><trkpt lat="43.8279883" lon="12.2222933"><ele>463.6666666666667</ele><time>2026-03-29T08:04:26.579Z</time></trkpt><trkpt lat="43.8278667" lon="12.2224683"><ele>464.33333333333337</ele><time>2026-03-29T08:04:27.579Z</time></trkpt><trkpt lat="43.8277217" lon="12.2226983"><ele>465.0</ele><time>2026-03-29T08:04:28.579Z</time></trkpt><trkpt lat="43.8275733" lon="12.2229183"><ele>462.66666666666663</ele><time>2026-03-29T08:04:29.578Z</time></trkpt><trkpt lat="43.8274367" lon="12.22312"><ele>460.3333333333333</ele><time>2026-03-29T08:04:30.578Z</time></trkpt><trkpt lat="43.827305" lon="12.2233133"><ele>458.0</ele><time>2026-03-29T08:04:31.579Z</time></trkpt><trkpt lat="43.827185" lon="12.2234983"><ele>458.0</ele><time>2026-03-29T08:04:32.579Z</time></trkpt><trkpt lat="43.8270767" lon="12.2236617"><ele>458.0</ele><time>2026-03-29T08:04:33.578Z</time></trkpt><trkpt lat="43.826985" lon="12.223815"><ele>458.0</ele><time>2026-03-29T08:04:34.579Z</time></trkpt><trkpt lat="43.8269417" lon="12.2239517"><ele>458.0</ele><time>2026-03-29T08:04:35.579Z</time></trkpt><trkpt lat="43.8269033" lon="12.224085"><ele>456.25</ele><time>2026-03-29T08:04:36.579Z</time></trkpt><trkpt lat="43.82688" lon="12.2242367"><ele>454.5</ele><time>2026-03-29T08:04:37.578Z</time></trkpt><trkpt lat="43.826905" lon="12.2244083"><ele>452.75</ele><time>2026-03-29T08:04:38.578Z</time></trkpt><trkpt lat="43.8269483" lon="12.22458"><ele>451.0</ele><time>2026-03-29T08:04:39.578Z</time></trkpt><trkpt lat="43.8269883" lon="12.2247517"><ele>450.0</ele><time>2026-03-29T08:04:40.579Z</time></trkpt><trkpt lat="43.8269983" lon="12.22492"><ele>449.0</ele><time>2026-03-29T08:04:41.579Z</time></trkpt><trkpt lat="43.8269567" lon="12.22508"><ele>448.0</ele><time>2026-03-29T08:04:42.579Z</time></trkpt><trkpt lat="43.8268617" lon="12.2252433"><ele>447.0</ele><time>2026-03-29T08:04:43.579Z</time></trkpt><trkpt lat="43.8267483" lon="12.2254217"><ele>445.66666666666663</ele><time>2026-03-29T08:04:44.579Z</time></trkpt><trkpt lat="43.8266483" lon="12.2255983"><ele>444.3333333333333</ele><time>2026-03-29T08:04:45.578Z</time></trkpt><trkpt lat="43.8265517" lon="12.22576"><ele>443.0</ele><time>2026-03-29T08:04:46.579Z</time></trkpt><trkpt lat="43.8264683" lon="12.2259133"><ele>442.5</ele><time>2026-03-29T08:04:47.579Z</time></trkpt><trkpt lat="43.8264117" lon="12.2260733"><ele>442.0</ele><time>2026-03-29T08:04:48.579Z</time></trkpt><trkpt lat="43.8263667" lon="12.226265"><ele>441.5</ele><time>2026-03-29T08:04:49.579Z</time></trkpt><trkpt lat="43.826325" lon="12.2264783"><ele>441.0</ele><time>2026-03-29T08:04:50.579Z</time></trkpt><trkpt lat="43.8262867" lon="12.2267067"><ele>439.66666666666663</ele><time>2026-03-29T08:04:51.579Z</time></trkpt><trkpt lat="43.8262433" lon="12.2269333"><ele>438.3333333333333</ele><time>2026-03-29T08:04:52.579Z</time></trkpt><trkpt lat="43.8261867" lon="12.2271467"><ele>437.0</ele><time>2026-03-29T08:04:53.578Z</time></trkpt><trkpt lat="43.826115" lon="12.2273617"><ele>435.66666666666663</ele><time>2026-03-29T08:04:54.578Z</time></trkpt><trkpt lat="43.82604" lon="12.227565"><ele>434.33333333333337</ele><time>2026-03-29T08:04:55.579Z</time></trkpt><trkpt lat="43.825965" lon="12.22777"><ele>433.0</ele><time>2026-03-29T08:04:56.579Z</time></trkpt><trkpt lat="43.82588" lon="12.2279733"><ele>431.0</ele><time>2026-03-29T08:04:57.579Z</time></trkpt><trkpt lat="43.8257833" lon="12.228155"><ele>429.0</ele><time>2026-03-29T08:04:58.578Z</time></trkpt><trkpt lat="43.8256983" lon="12.2283283"><ele>427.0</ele><time>2026-03-29T08:04:59.579Z</time></trkpt><trkpt lat="43.82562" lon="12.2284917"><ele>427.0</ele><time>2026-03-29T08:05:00.579Z</time></trkpt><trkpt lat="43.8255433" lon="12.22864"><ele>427.00000000000006</ele><time>2026-03-29T08:05:01.578Z</time></trkpt><trkpt lat="43.8254833" lon="12.22877"><ele>427.00000000000006</ele><time>2026-03-29T08:05:02.579Z</time></trkpt><trkpt lat="43.82542" lon="12.228875"><ele>427.0</ele><time>2026-03-29T08:05:03.579Z</time></trkpt><trkpt lat="43.82536" lon="12.22895"><ele>427.0</ele><time>2026-03-29T08:05:04.579Z</time></trkpt><trkpt lat="43.8252967" lon="12.229"><ele>426.0</ele><time>2026-03-29T08:05:05.578Z</time></trkpt><trkpt lat="43.8251933" lon="12.22899"><ele>425.00000000000006</ele><time>2026-03-29T08:05:07.579Z</time></trkpt><trkpt lat="43.8251233" lon="12.2288883"><ele>424.0</ele><time>2026-03-29T08:05:09.578Z</time></trkpt><trkpt lat="43.825085" lon="12.2288167"><ele>423.0</ele><time>2026-03-29T08:05:10.579Z</time></trkpt><trkpt lat="43.825055" lon="12.2287083"><ele>422.0</ele><time>2026-03-29T08:05:11.579Z</time></trkpt><trkpt lat="43.8250283" lon="12.2285783"><ele>421.0</ele><time>2026-03-29T08:05:12.579Z</time></trkpt><trkpt lat="43.8250133" lon="12.22844"><ele>420.0</ele><time>2026-03-29T08:05:13.579Z</time></trkpt><trkpt lat="43.825015" lon="12.22829"><ele>419.0</ele><time>2026-03-29T08:05:14.579Z</time></trkpt><trkpt lat="43.8250333" lon="12.2281467"><ele>418.0</ele><time>2026-03-29T08:05:15.578Z</time></trkpt><trkpt lat="43.82505" lon="12.2280233"><ele>417.0</ele><time>2026-03-29T08:05:16.579Z</time></trkpt><trkpt lat="43.8250617" lon="12.2279233"><ele>416.6</ele><time>2026-03-29T08:05:17.578Z</time></trkpt><trkpt lat="43.825025" lon="12.227775"><ele>416.20000000000005</ele><time>2026-03-29T08:05:19.579Z</time></trkpt><trkpt lat="43.8249133" lon="12.2277217"><ele>415.8</ele><time>2026-03-29T08:05:21.579Z</time></trkpt><trkpt lat="43.824835" lon="12.22772"><ele>415.4</ele><time>2026-03-29T08:05:22.579Z</time></trkpt><trkpt lat="43.8247667" lon="12.2277467"><ele>415.0</ele><time>2026-03-29T08:05:23.578Z</time></trkpt><trkpt lat="43.8246817" lon="12.2278083"><ele>415.0</ele><time>2026-03-29T08:05:24.579Z</time></trkpt><trkpt lat="43.824595" lon="12.2279033"><ele>415.0</ele><time>2026-03-29T08:05:25.578Z</time></trkpt><trkpt lat="43.8245133" lon="12.22803"><ele>415.0</ele><time>2026-03-29T08:05:26.579Z</time></trkpt><trkpt lat="43.8244367" lon="12.228185"><ele>415.0</ele><time>2026-03-29T08:05:27.579Z</time></trkpt><trkpt lat="43.82437" lon="12.2284133"><ele>411.6666666666667</ele><time>2026-03-29T08:05:28.579Z</time></trkpt><trkpt lat="43.8243017" lon="12.2286717"><ele>408.33333333333337</ele><time>2026-03-29T08:05:29.579Z</time></trkpt><trkpt lat="43.824235" lon="12.2288917"><ele>405.0</ele><time>2026-03-29T08:05:30.579Z</time></trkpt><trkpt lat="43.8241767" lon="12.229095"><ele>405.0</ele><time>2026-03-29T08:05:31.578Z</time></trkpt><trkpt lat="43.8241183" lon="12.229275"><ele>405.0</ele><time>2026-03-29T08:05:32.579Z</time></trkpt><trkpt lat="43.8240467" lon="12.2294317"><ele>405.0</ele><time>2026-03-29T08:05:33.579Z</time></trkpt><trkpt lat="43.8239583" lon="12.22958"><ele>405.0</ele><time>2026-03-29T08:05:34.579Z</time></trkpt><trkpt lat="43.8238733" lon="12.2297"><ele>405.0</ele><time>2026-03-29T08:05:35.578Z</time></trkpt><trkpt lat="43.8237833" lon="12.2298017"><ele>405.0</ele><time>2026-03-29T08:05:36.579Z</time></trkpt><trkpt lat="43.823685" lon="12.2298767"><ele>405.0</ele><time>2026-03-29T08:05:37.578Z</time></trkpt><trkpt lat="43.8235833" lon="12.2299317"><ele>405.0</ele><time>2026-03-29T08:05:38.578Z</time></trkpt><trkpt lat="43.8234817" lon="12.2299617"><ele>405.0</ele><time>2026-03-29T08:05:39.579Z</time></trkpt><trkpt lat="43.8233833" lon="12.2299733"><ele>404.0</ele><time>2026-03-29T08:05:40.579Z</time></trkpt><trkpt lat="43.8232983" lon="12.229975"><ele>403.0</ele><time>2026-03-29T08:05:41.579Z</time></trkpt><trkpt lat="43.8232217" lon="12.2299567"><ele>402.0</ele><time>2026-03-29T08:05:42.579Z</time></trkpt><trkpt lat="43.8231483" lon="12.229905"><ele>401.0</ele><time>2026-03-29T08:05:43.579Z</time></trkpt><trkpt lat="43.8230883" lon="12.2298267"><ele>400.0</ele><time>2026-03-29T08:05:44.578Z</time></trkpt><trkpt lat="43.8230383" lon="12.2297217"><ele>399.0</ele><time>2026-03-29T08:05:45.578Z</time></trkpt><trkpt lat="43.8229983" lon="12.2295933"><ele>398.5</ele><time>2026-03-29T08:05:46.578Z</time></trkpt><trkpt lat="43.82299" lon="12.2294283"><ele>398.0</ele><time>2026-03-29T08:05:47.579Z</time></trkpt><trkpt lat="43.8230017" lon="12.2292483"><ele>397.5</ele><time>2026-03-29T08:05:48.578Z</time></trkpt><trkpt lat="43.823015" lon="12.2290417"><ele>397.0</ele><time>2026-03-29T08:05:49.579Z</time></trkpt><trkpt lat="43.8230233" lon="12.2288217"><ele>396.75</ele><time>2026-03-29T08:05:50.578Z</time></trkpt><trkpt lat="43.8230317" lon="12.2286183"><ele>396.5</ele><time>2026-03-29T08:05:51.579Z</time></trkpt><trkpt lat="43.8230383" lon="12.2284483"><ele>396.25</ele><time>2026-03-29T08:05:52.578Z</time></trkpt><trkpt lat="43.8230383" lon="12.228305"><ele>396.0</ele><time>2026-03-29T08:05:53.579Z</time></trkpt><trkpt lat="43.8230183" lon="12.22819"><ele>396.20000000000005</ele><time>2026-03-29T08:05:54.578Z</time></trkpt><trkpt lat="43.8229733" lon="12.2280817"><ele>396.40000000000003</ele><time>2026-03-29T08:05:55.579Z</time></trkpt><trkpt lat="43.8229033" lon="12.228005"><ele>396.6</ele><time>2026-03-29T08:05:56.578Z</time></trkpt><trkpt lat="43.8228117" lon="12.2279633"><ele>396.8</ele><time>2026-03-29T08:05:57.579Z</time></trkpt><trkpt lat="43.822685" lon="12.22795"><ele>397.0</ele><time>2026-03-29T08:05:58.578Z</time></trkpt><trkpt lat="43.8225317" lon="12.2279717"><ele>394.25</ele><time>2026-03-29T08:05:59.578Z</time></trkpt><trkpt lat="43.8223917" lon="12.22798"><ele>391.5</ele><time>2026-03-29T08:06:00.578Z</time></trkpt><trkpt lat="43.8222667" lon="12.2279517"><ele>388.75</ele><time>2026-03-29T08:06:01.579Z</time></trkpt><trkpt lat="43.8221517" lon="12.2278783"><ele>386.0</ele><time>2026-03-29T08:06:02.579Z</time></trkpt><trkpt lat="43.82205" lon="12.2277533"><ele>386.0</ele><time>2026-03-29T08:06:03.578Z</time></trkpt><trkpt lat="43.8219533" lon="12.2276067"><ele>386.0</ele><time>2026-03-29T08:06:04.579Z</time></trkpt><trkpt lat="43.8218483" lon="12.2274633"><ele>386.0</ele><time>2026-03-29T08:06:05.579Z</time></trkpt><trkpt lat="43.82174" lon="12.2273283"><ele>386.0</ele><time>2026-03-29T08:06:06.578Z</time></trkpt><trkpt lat="43.82164" lon="12.2272217"><ele>384.75</ele><time>2026-03-29T08:06:07.579Z</time></trkpt><trkpt lat="43.8215333" lon="12.22714"><ele>383.5</ele><time>2026-03-29T08:06:08.579Z</time></trkpt><trkpt lat="43.82142" lon="12.2270883"><ele>382.25</ele><time>2026-03-29T08:06:09.578Z</time></trkpt><trkpt lat="43.8212933" lon="12.22708"><ele>381.0</ele><time>2026-03-29T08:06:10.579Z</time></trkpt><trkpt lat="43.8211617" lon="12.227105"><ele>381.0</ele><time>2026-03-29T08:06:11.578Z</time></trkpt><trkpt lat="43.821055" lon="12.2271367"><ele>381.0</ele><time>2026-03-29T08:06:12.578Z</time></trkpt><trkpt lat="43.8209567" lon="12.2271783"><ele>381.0</ele><time>2026-03-29T08:06:13.579Z</time></trkpt><trkpt lat="43.8208783" lon="12.2272483"><ele>381.0</ele><time>2026-03-29T08:06:14.579Z</time></trkpt><trkpt lat="43.8208283" lon="12.2273667"><ele>381.0</ele><time>2026-03-29T08:06:15.579Z</time></trkpt><trkpt lat="43.820805" lon="12.2275033"><ele>378.75</ele><time>2026-03-29T08:06:16.579Z</time></trkpt><trkpt lat="43.8208083" lon="12.2276767"><ele>376.5</ele><time>2026-03-29T08:06:17.579Z</time></trkpt><trkpt lat="43.8208117" lon="12.2278617"><ele>374.25</ele><time>2026-03-29T08:06:18.579Z</time></trkpt><trkpt lat="43.8208" lon="12.228045"><ele>372.0</ele><time>2026-03-29T08:06:19.579Z</time></trkpt><trkpt lat="43.8207617" lon="12.2282067"><ele>371.25</ele><time>2026-03-29T08:06:20.579Z</time></trkpt><trkpt lat="43.8206983" lon="12.228345"><ele>370.5</ele><time>2026-03-29T08:06:21.579Z</time></trkpt><trkpt lat="43.82061" lon="12.228435"><ele>369.75</ele><time>2026-03-29T08:06:22.579Z</time></trkpt><trkpt lat="43.820495" lon="12.2284867"><ele>369.0</ele><time>2026-03-29T08:06:23.578Z</time></trkpt><trkpt lat="43.82037" lon="12.2285017"><ele>369.0</ele><time>2026-03-29T08:06:24.579Z</time></trkpt><trkpt lat="43.8202433" lon="12.22853"><ele>369.0</ele><time>2026-03-29T08:06:25.579Z</time></trkpt><trkpt lat="43.8201167" lon="12.2286033"><ele>369.0</ele><time>2026-03-29T08:06:26.579Z</time></trkpt><trkpt lat="43.8200017" lon="12.2287"><ele>369.0</ele><time>2026-03-29T08:06:27.579Z</time></trkpt><trkpt lat="43.8199033" lon="12.2288183"><ele>366.5</ele><time>2026-03-29T08:06:28.579Z</time></trkpt><trkpt lat="43.8198067" lon="12.228925"><ele>364.0</ele><time>2026-03-29T08:06:29.579Z</time></trkpt><trkpt lat="43.8197383" lon="12.2290283"><ele>361.5</ele><time>2026-03-29T08:06:30.578Z</time></trkpt><trkpt lat="43.81969" lon="12.2291633"><ele>359.0</ele><time>2026-03-29T08:06:31.579Z</time></trkpt><trkpt lat="43.8196683" lon="12.22933"><ele>358.6666666666667</ele><time>2026-03-29T08:06:32.579Z</time></trkpt><trkpt lat="43.8196717" lon="12.229485"><ele>358.33333333333337</ele><time>2026-03-29T08:06:33.579Z</time></trkpt><trkpt lat="43.819665" lon="12.2295933"><ele>358.0</ele><time>2026-03-29T08:06:34.579Z</time></trkpt><trkpt lat="43.8196517" lon="12.22968"><ele>357.6666666666667</ele><time>2026-03-29T08:06:35.579Z</time></trkpt><trkpt lat="43.8196133" lon="12.2297783"><ele>357.3333333333333</ele><time>2026-03-29T08:06:37.579Z</time></trkpt><trkpt lat="43.81961" lon="12.2298733"><ele>357.0</ele><time>2026-03-29T08:06:39.579Z</time></trkpt><trkpt lat="43.8196333" lon="12.229955"><ele>356.5</ele><time>2026-03-29T08:06:40.578Z</time></trkpt><trkpt lat="43.8196883" lon="12.23005"><ele>356.0</ele><time>2026-03-29T08:06:41.579Z</time></trkpt><trkpt lat="43.8197633" lon="12.2301567"><ele>355.5</ele><time>2026-03-29T08:06:42.579Z</time></trkpt><trkpt lat="43.81985" lon="12.230275"><ele>355.0</ele><time>2026-03-29T08:06:43.579Z</time></trkpt><trkpt lat="43.819955" lon="12.2304333"><ele>355.0</ele><time>2026-03-29T08:06:44.579Z</time></trkpt><trkpt lat="43.8200867" lon="12.2306183"><ele>355.0</ele><time>2026-03-29T08:06:45.579Z</time></trkpt><trkpt lat="43.8202333" lon="12.23083"><ele>355.0</ele><time>2026-03-29T08:06:46.579Z</time></trkpt><trkpt lat="43.8203917" lon="12.2310617"><ele>354.3333333333333</ele><time>2026-03-29T08:06:47.578Z</time></trkpt><trkpt lat="43.8205517" lon="12.231295"><ele>353.6666666666667</ele><time>2026-03-29T08:06:48.578Z</time></trkpt><trkpt lat="43.8207067" lon="12.2315017"><ele>353.0</ele><time>2026-03-29T08:06:49.578Z</time></trkpt><trkpt lat="43.8208483" lon="12.2317033"><ele>353.0</ele><time>2026-03-29T08:06:50.578Z</time></trkpt><trkpt lat="43.8209817" lon="12.2318967"><ele>353.0</ele><time>2026-03-29T08:06:51.579Z</time></trkpt><trkpt lat="43.82109" lon="12.2320683"><ele>353.0</ele><time>2026-03-29T08:06:52.579Z</time></trkpt><trkpt lat="43.82118" lon="12.23222"><ele>354.25</ele><time>2026-03-29T08:06:53.579Z</time></trkpt><trkpt lat="43.8212533" lon="12.23236"><ele>355.5</ele><time>2026-03-29T08:06:54.579Z</time></trkpt><trkpt lat="43.8212883" lon="12.2325033"><ele>356.75</ele><time>2026-03-29T08:06:55.578Z</time></trkpt><trkpt lat="43.8212917" lon="12.2326633"><ele>358.0</ele><time>2026-03-29T08:06:56.579Z</time></trkpt><trkpt lat="43.8212717" lon="12.2328367"><ele>358.0</ele><time>2026-03-29T08:06:57.578Z</time></trkpt><trkpt lat="43.8212133" lon="12.2330283"><ele>358.0</ele><time>2026-03-29T08:06:58.579Z</time></trkpt><trkpt lat="43.8211267" lon="12.2332433"><ele>358.0</ele><time>2026-03-29T08:06:59.578Z</time></trkpt><trkpt lat="43.8210283" lon="12.233475"><ele>353.0</ele><time>2026-03-29T08:07:00.579Z</time></trkpt><trkpt lat="43.8209167" lon="12.2337283"><ele>348.0</ele><time>2026-03-29T08:07:01.579Z</time></trkpt><trkpt lat="43.8207883" lon="12.23401"><ele>346.5</ele><time>2026-03-29T08:07:02.579Z</time></trkpt><trkpt lat="43.82065" lon="12.2343183"><ele>345.0</ele><time>2026-03-29T08:07:03.579Z</time></trkpt><trkpt lat="43.8205033" lon="12.2346433"><ele>344.5</ele><time>2026-03-29T08:07:04.579Z</time></trkpt><trkpt lat="43.8203617" lon="12.2349633"><ele>344.0</ele><time>2026-03-29T08:07:05.578Z</time></trkpt><trkpt lat="43.8202333" lon="12.235265"><ele>345.0</ele><time>2026-03-29T08:07:06.579Z</time></trkpt><trkpt lat="43.8201133" lon="12.235545"><ele>346.0</ele><time>2026-03-29T08:07:07.579Z</time></trkpt><trkpt lat="43.8199917" lon="12.2358283"><ele>346.3333333333333</ele><time>2026-03-29T08:07:08.579Z</time></trkpt><trkpt lat="43.819875" lon="12.236085"><ele>346.6666666666667</ele><time>2026-03-29T08:07:09.579Z</time></trkpt><trkpt lat="43.8197617" lon="12.2363217"><ele>347.0</ele><time>2026-03-29T08:07:10.578Z</time></trkpt><trkpt lat="43.8196583" lon="12.236545"><ele>347.6666666666667</ele><time>2026-03-29T08:07:11.578Z</time></trkpt><trkpt lat="43.8195517" lon="12.2367683"><ele>348.3333333333333</ele><time>2026-03-29T08:07:12.579Z</time></trkpt><trkpt lat="43.8194583" lon="12.23699"><ele>349.0</ele><time>2026-03-29T08:07:13.579Z</time></trkpt><trkpt lat="43.819385" lon="12.2372233"><ele>348.5</ele><time>2026-03-29T08:07:14.578Z</time></trkpt><trkpt lat="43.819335" lon="12.2375"><ele>348.0</ele><time>2026-03-29T08:07:15.579Z</time></trkpt><trkpt lat="43.819295" lon="12.237835"><ele>349.0</ele><time>2026-03-29T08:07:16.579Z</time></trkpt><trkpt lat="43.8192583" lon="12.2381817"><ele>350.0</ele><time>2026-03-29T08:07:17.578Z</time></trkpt><trkpt lat="43.8192217" lon="12.2385383"><ele>350.0</ele><time>2026-03-29T08:07:18.578Z</time></trkpt><trkpt lat="43.81919" lon="12.2388833"><ele>350.0</ele><time>2026-03-29T08:07:19.578Z</time></trkpt><trkpt lat="43.8191483" lon="12.239215"><ele>349.6666666666667</ele><time>2026-03-29T08:07:20.578Z</time></trkpt><trkpt lat="43.819115" lon="12.2395267"><ele>349.3333333333333</ele><time>2026-03-29T08:07:21.579Z</time></trkpt><trkpt lat="43.8190833" lon="12.2398217"><ele>349.0</ele><time>2026-03-29T08:07:22.579Z</time></trkpt><trkpt lat="43.8190533" lon="12.240105"><ele>349.0</ele><time>2026-03-29T08:07:23.578Z</time></trkpt><trkpt lat="43.8190333" lon="12.2403783"><ele>349.0</ele><time>2026-03-29T08:07:24.579Z</time></trkpt><trkpt lat="43.8190117" lon="12.24063"><ele>349.0</ele><time>2026-03-29T08:07:25.579Z</time></trkpt><trkpt lat="43.81899" lon="12.24086"><ele>349.3333333333333</ele><time>2026-03-29T08:07:26.579Z</time></trkpt><trkpt lat="43.81898" lon="12.241085"><ele>349.6666666666667</ele><time>2026-03-29T08:07:27.578Z</time></trkpt><trkpt lat="43.8190067" lon="12.24133"><ele>350.0</ele><time>2026-03-29T08:07:28.579Z</time></trkpt><trkpt lat="43.81907" lon="12.2415867"><ele>350.33333333333337</ele><time>2026-03-29T08:07:29.579Z</time></trkpt><trkpt lat="43.819165" lon="12.241815"><ele>350.6666666666667</ele><time>2026-03-29T08:07:30.578Z</time></trkpt><trkpt lat="43.81927" lon="12.242015"><ele>351.0</ele><time>2026-03-29T08:07:31.578Z</time></trkpt><trkpt lat="43.8193483" lon="12.2421967"><ele>352.0</ele><time>2026-03-29T08:07:32.578Z</time></trkpt><trkpt lat="43.8194083" lon="12.2423883"><ele>353.0</ele><time>2026-03-29T08:07:33.579Z</time></trkpt><trkpt lat="43.8194217" lon="12.242605"><ele>354.0</ele><time>2026-03-29T08:07:34.579Z</time></trkpt><trkpt lat="43.81939" lon="12.242835"><ele>354.0</ele><time>2026-03-29T08:07:35.579Z</time></trkpt><trkpt lat="43.8193467" lon="12.2431"><ele>354.0</ele><time>2026-03-29T08:07:36.579Z</time></trkpt><trkpt lat="43.8192933" lon="12.2433883"><ele>354.0</ele><time>2026-03-29T08:07:37.579Z</time></trkpt><trkpt lat="43.8192383" lon="12.24367"><ele>354.3333333333333</ele><time>2026-03-29T08:07:38.579Z</time></trkpt><trkpt lat="43.819175" lon="12.2439333"><ele>354.66666666666663</ele><time>2026-03-29T08:07:39.578Z</time></trkpt><trkpt lat="43.8191283" lon="12.2441683"><ele>355.0</ele><time>2026-03-29T08:07:40.579Z</time></trkpt><trkpt lat="43.819085" lon="12.2443817"><ele>356.25</ele><time>2026-03-29T08:07:41.578Z</time></trkpt><trkpt lat="43.8190383" lon="12.2445817"><ele>357.5</ele><time>2026-03-29T08:07:42.579Z</time></trkpt><trkpt lat="43.8189983" lon="12.2447817"><ele>358.75</ele><time>2026-03-29T08:07:43.578Z</time></trkpt><trkpt lat="43.8189533" lon="12.244965"><ele>360.0</ele><time>2026-03-29T08:07:44.579Z</time></trkpt><trkpt lat="43.8189117" lon="12.24513"><ele>360.8</ele><time>2026-03-29T08:07:45.579Z</time></trkpt><trkpt lat="43.8188667" lon="12.245245"><ele>361.6</ele><time>2026-03-29T08:07:46.579Z</time></trkpt><trkpt lat="43.8188233" lon="12.2453217"><ele>362.4</ele><time>2026-03-29T08:07:47.579Z</time></trkpt><trkpt lat="43.8187667" lon="12.245405"><ele>363.2</ele><time>2026-03-29T08:07:49.579Z</time></trkpt><trkpt lat="43.8187817" lon="12.2455633"><ele>364.0</ele><time>2026-03-29T08:07:52.579Z</time></trkpt><trkpt lat="43.8188333" lon="12.2456733"><ele>365.3333333333333</ele><time>2026-03-29T08:07:53.578Z</time></trkpt><trkpt lat="43.8189167" lon="12.245835"><ele>366.6666666666667</ele><time>2026-03-29T08:07:54.578Z</time></trkpt><trkpt lat="43.81901" lon="12.2460267"><ele>368.0</ele><time>2026-03-29T08:07:55.578Z</time></trkpt><trkpt lat="43.8191133" lon="12.24624"><ele>368.0</ele><time>2026-03-29T08:07:56.579Z</time></trkpt><trkpt lat="43.8192183" lon="12.2464583"><ele>368.0</ele><time>2026-03-29T08:07:57.579Z</time></trkpt><trkpt lat="43.81932" lon="12.2466517"><ele>368.0</ele><time>2026-03-29T08:07:58.578Z</time></trkpt><trkpt lat="43.819415" lon="12.246835"><ele>367.25</ele><time>2026-03-29T08:07:59.578Z</time></trkpt><trkpt lat="43.8195033" lon="12.2470117"><ele>366.5</ele><time>2026-03-29T08:08:00.579Z</time></trkpt><trkpt lat="43.819585" lon="12.2471767"><ele>365.75</ele><time>2026-03-29T08:08:01.579Z</time></trkpt><trkpt lat="43.81966" lon="12.24733"><ele>365.0</ele><time>2026-03-29T08:08:02.579Z</time></trkpt><trkpt lat="43.81973" lon="12.2474733"><ele>365.0</ele><time>2026-03-29T08:08:03.579Z</time></trkpt><trkpt lat="43.8197983" lon="12.2476133"><ele>365.0</ele><time>2026-03-29T08:08:04.578Z</time></trkpt><trkpt lat="43.819855" lon="12.2477333"><ele>365.0</ele><time>2026-03-29T08:08:05.578Z</time></trkpt><trkpt lat="43.8199033" lon="12.2478283"><ele>365.0</ele><time>2026-03-29T08:08:06.578Z</time></trkpt><trkpt lat="43.8199517" lon="12.2479033"><ele>365.0</ele><time>2026-03-29T08:08:07.578Z</time></trkpt><trkpt lat="43.8199983" lon="12.2479667"><ele>365.0</ele><time>2026-03-29T08:08:08.578Z</time></trkpt><trkpt lat="43.82003" lon="12.2481017"><ele>367.6666666666667</ele><time>2026-03-29T08:08:10.579Z</time></trkpt><trkpt lat="43.819935" lon="12.2482867"><ele>370.3333333333333</ele><time>2026-03-29T08:08:12.579Z</time></trkpt><trkpt lat="43.819845" lon="12.2484217"><ele>373.0</ele><time>2026-03-29T08:08:13.579Z</time></trkpt><trkpt lat="43.8197467" lon="12.248585"><ele>373.0</ele><time>2026-03-29T08:08:14.579Z</time></trkpt><trkpt lat="43.8196417" lon="12.2487817"><ele>373.0</ele><time>2026-03-29T08:08:15.578Z</time></trkpt><trkpt lat="43.8195433" lon="12.2489933"><ele>373.0</ele><time>2026-03-29T08:08:16.579Z</time></trkpt><trkpt lat="43.819445" lon="12.2492567"><ele>378.5</ele><time>2026-03-29T08:08:17.579Z</time></trkpt><trkpt lat="43.8193567" lon="12.249545"><ele>384.0</ele><time>2026-03-29T08:08:18.579Z</time></trkpt><trkpt lat="43.8192567" lon="12.24983"><ele>385.0</ele><time>2026-03-29T08:08:19.579Z</time></trkpt><trkpt lat="43.819165" lon="12.25009"><ele>386.0</ele><time>2026-03-29T08:08:20.579Z</time></trkpt><trkpt lat="43.819065" lon="12.2503183"><ele>387.0</ele><time>2026-03-29T08:08:21.578Z</time></trkpt><trkpt lat="43.8189483" lon="12.25054"><ele>389.33333333333337</ele><time>2026-03-29T08:08:22.579Z</time></trkpt><trkpt lat="43.8188283" lon="12.2507717"><ele>391.6666666666667</ele><time>2026-03-29T08:08:23.579Z</time></trkpt><trkpt lat="43.8187133" lon="12.2509717"><ele>394.0</ele><time>2026-03-29T08:08:24.578Z</time></trkpt><trkpt lat="43.8185967" lon="12.2511867"><ele>394.0</ele><time>2026-03-29T08:08:25.579Z</time></trkpt><trkpt lat="43.8184867" lon="12.2514133"><ele>394.0</ele><time>2026-03-29T08:08:26.578Z</time></trkpt><trkpt lat="43.8183767" lon="12.25162"><ele>394.0</ele><time>2026-03-29T08:08:27.579Z</time></trkpt><trkpt lat="43.8182817" lon="12.2517983"><ele>394.2</ele><time>2026-03-29T08:08:28.579Z</time></trkpt><trkpt lat="43.8182067" lon="12.251945"><ele>394.4</ele><time>2026-03-29T08:08:29.579Z</time></trkpt><trkpt lat="43.8181567" lon="12.2520683"><ele>394.6</ele><time>2026-03-29T08:08:30.579Z</time></trkpt><trkpt lat="43.8181333" lon="12.2521867"><ele>394.8</ele><time>2026-03-29T08:08:31.578Z</time></trkpt><trkpt lat="43.8181683" lon="12.2523133"><ele>395.0</ele><time>2026-03-29T08:08:32.579Z</time></trkpt><trkpt lat="43.8182367" lon="12.25241"><ele>397.25</ele><time>2026-03-29T08:08:33.579Z</time></trkpt><trkpt lat="43.8183417" lon="12.252455"><ele>399.5</ele><time>2026-03-29T08:08:34.58Z</time></trkpt><trkpt lat="43.8184567" lon="12.252435"><ele>401.75</ele><time>2026-03-29T08:08:35.58Z</time></trkpt><trkpt lat="43.8185717" lon="12.2523633"><ele>404.0</ele><time>2026-03-29T08:08:36.58Z</time></trkpt><trkpt lat="43.8186883" lon="12.25227"><ele>404.0</ele><time>2026-03-29T08:08:37.58Z</time></trkpt><trkpt lat="43.8188017" lon="12.25215"><ele>404.0</ele><time>2026-03-29T08:08:38.58Z</time></trkpt><trkpt lat="43.8189083" lon="12.2520417"><ele>404.0</ele><time>2026-03-29T08:08:39.579Z</time></trkpt><trkpt lat="43.8190217" lon="12.251965"><ele>404.0</ele><time>2026-03-29T08:08:40.58Z</time></trkpt><trkpt lat="43.8191483" lon="12.251955"><ele>404.0</ele><time>2026-03-29T08:08:41.579Z</time></trkpt><trkpt lat="43.8193017" lon="12.2519767"><ele>404.0</ele><time>2026-03-29T08:08:42.579Z</time></trkpt><trkpt lat="43.8194583" lon="12.2519967"><ele>404.0</ele><time>2026-03-29T08:08:43.58Z</time></trkpt><trkpt lat="43.8196217" lon="12.2519683"><ele>406.3333333333333</ele><time>2026-03-29T08:08:44.58Z</time></trkpt><trkpt lat="43.8197917" lon="12.25188"><ele>408.66666666666663</ele><time>2026-03-29T08:08:45.58Z</time></trkpt><trkpt lat="43.8199567" lon="12.2517217"><ele>411.0</ele><time>2026-03-29T08:08:46.579Z</time></trkpt><trkpt lat="43.8201083" lon="12.2515217"><ele>409.66666666666663</ele><time>2026-03-29T08:08:47.58Z</time></trkpt><trkpt lat="43.8202517" lon="12.2513283"><ele>408.3333333333333</ele><time>2026-03-29T08:08:48.579Z</time></trkpt><trkpt lat="43.8203733" lon="12.2511533"><ele>407.0</ele><time>2026-03-29T08:08:49.58Z</time></trkpt><trkpt lat="43.820475" lon="12.2510183"><ele>406.99999999999994</ele><time>2026-03-29T08:08:50.579Z</time></trkpt><trkpt lat="43.82055" lon="12.2509217"><ele>407.0</ele><time>2026-03-29T08:08:51.579Z</time></trkpt><trkpt lat="43.8206283" lon="12.250885"><ele>407.0</ele><time>2026-03-29T08:08:52.58Z</time></trkpt><trkpt lat="43.820705" lon="12.2508967"><ele>407.0</ele><time>2026-03-29T08:08:53.579Z</time></trkpt><trkpt lat="43.8207617" lon="12.250975"><ele>406.99999999999994</ele><time>2026-03-29T08:08:54.579Z</time></trkpt><trkpt lat="43.82079" lon="12.2510933"><ele>407.0</ele><time>2026-03-29T08:08:55.58Z</time></trkpt><trkpt lat="43.82078" lon="12.2512333"><ele>407.0</ele><time>2026-03-29T08:08:56.58Z</time></trkpt><trkpt lat="43.8207283" lon="12.2514017"><ele>407.0</ele><time>2026-03-29T08:08:57.579Z</time></trkpt><trkpt lat="43.8206483" lon="12.2516067"><ele>407.0</ele><time>2026-03-29T08:08:58.58Z</time></trkpt><trkpt lat="43.8205667" lon="12.2518383"><ele>409.66666666666663</ele><time>2026-03-29T08:08:59.58Z</time></trkpt><trkpt lat="43.8204817" lon="12.2521017"><ele>412.33333333333337</ele><time>2026-03-29T08:09:00.58Z</time></trkpt><trkpt lat="43.8203917" lon="12.2523783"><ele>415.0</ele><time>2026-03-29T08:09:01.579Z</time></trkpt><trkpt lat="43.820305" lon="12.2526533"><ele>418.6666666666667</ele><time>2026-03-29T08:09:02.58Z</time></trkpt><trkpt lat="43.8202217" lon="12.25291"><ele>422.33333333333337</ele><time>2026-03-29T08:09:03.58Z</time></trkpt><trkpt lat="43.8201517" lon="12.25312"><ele>426.0</ele><time>2026-03-29T08:09:04.58Z</time></trkpt><trkpt lat="43.8200717" lon="12.253305"><ele>426.75</ele><time>2026-03-29T08:09:05.579Z</time></trkpt><trkpt lat="43.81996" lon="12.2534367"><ele>427.5</ele><time>2026-03-29T08:09:06.58Z</time></trkpt><trkpt lat="43.81984" lon="12.2535433"><ele>428.25</ele><time>2026-03-29T08:09:07.579Z</time></trkpt><trkpt lat="43.81972" lon="12.2536383"><ele>429.0</ele><time>2026-03-29T08:09:08.58Z</time></trkpt><trkpt lat="43.81961" lon="12.25372"><ele>429.0</ele><time>2026-03-29T08:09:09.58Z</time></trkpt><trkpt lat="43.8195233" lon="12.2538183"><ele>429.0</ele><time>2026-03-29T08:09:10.58Z</time></trkpt><trkpt lat="43.8194533" lon="12.25395"><ele>429.0</ele><time>2026-03-29T08:09:11.58Z</time></trkpt><trkpt lat="43.8194233" lon="12.254135"><ele>429.0</ele><time>2026-03-29T08:09:12.58Z</time></trkpt><trkpt lat="43.8194217" lon="12.2543383"><ele>431.25</ele><time>2026-03-29T08:09:13.58Z</time></trkpt><trkpt lat="43.819435" lon="12.2545467"><ele>433.5</ele><time>2026-03-29T08:09:14.58Z</time></trkpt><trkpt lat="43.81944" lon="12.254735"><ele>435.75</ele><time>2026-03-29T08:09:15.58Z</time></trkpt><trkpt lat="43.8194067" lon="12.2549283"><ele>438.0</ele><time>2026-03-29T08:09:16.58Z</time></trkpt><trkpt lat="43.8193317" lon="12.2551183"><ele>439.0</ele><time>2026-03-29T08:09:17.58Z</time></trkpt><trkpt lat="43.8192383" lon="12.255305"><ele>440.0</ele><time>2026-03-29T08:09:18.579Z</time></trkpt><trkpt lat="43.8191283" lon="12.2554733"><ele>441.0</ele><time>2026-03-29T08:09:19.58Z</time></trkpt><trkpt lat="43.819005" lon="12.2556083"><ele>445.0</ele><time>2026-03-29T08:09:20.58Z</time></trkpt><trkpt lat="43.8188667" lon="12.2557233"><ele>449.0</ele><time>2026-03-29T08:09:21.58Z</time></trkpt><trkpt lat="43.8187033" lon="12.2558083"><ele>453.0</ele><time>2026-03-29T08:09:22.58Z</time></trkpt><trkpt lat="43.81852" lon="12.255875"><ele>453.0</ele><time>2026-03-29T08:09:23.58Z</time></trkpt><trkpt lat="43.818345" lon="12.2559317"><ele>453.0</ele><time>2026-03-29T08:09:24.579Z</time></trkpt><trkpt lat="43.8181817" lon="12.2559883"><ele>453.0</ele><time>2026-03-29T08:09:25.579Z</time></trkpt><trkpt lat="43.8180333" lon="12.2560133"><ele>453.0</ele><time>2026-03-29T08:09:26.579Z</time></trkpt><trkpt lat="43.8179" lon="12.25599"><ele>453.0</ele><time>2026-03-29T08:09:27.58Z</time></trkpt><trkpt lat="43.817775" lon="12.2559667"><ele>453.0</ele><time>2026-03-29T08:09:28.58Z</time></trkpt><trkpt lat="43.81767" lon="12.2559717"><ele>453.0</ele><time>2026-03-29T08:09:29.58Z</time></trkpt><trkpt lat="43.8175667" lon="12.2560383"><ele>453.25</ele><time>2026-03-29T08:09:30.58Z</time></trkpt><trkpt lat="43.8174717" lon="12.25616"><ele>453.5</ele><time>2026-03-29T08:09:31.58Z</time></trkpt><trkpt lat="43.81739" lon="12.2563233"><ele>453.75</ele><time>2026-03-29T08:09:32.58Z</time></trkpt><trkpt lat="43.8173" lon="12.2565233"><ele>454.0</ele><time>2026-03-29T08:09:33.58Z</time></trkpt><trkpt lat="43.8172283" lon="12.25674"><ele>457.6666666666667</ele><time>2026-03-29T08:09:34.58Z</time></trkpt><trkpt lat="43.81718" lon="12.2569683"><ele>461.33333333333337</ele><time>2026-03-29T08:09:35.58Z</time></trkpt><trkpt lat="43.8171433" lon="12.2571867"><ele>465.0</ele><time>2026-03-29T08:09:36.58Z</time></trkpt><trkpt lat="43.81708" lon="12.2573917"><ele>464.66666666666663</ele><time>2026-03-29T08:09:37.579Z</time></trkpt><trkpt lat="43.8169933" lon="12.2575983"><ele>464.3333333333333</ele><time>2026-03-29T08:09:38.58Z</time></trkpt><trkpt lat="43.8169033" lon="12.2578"><ele>464.0</ele><time>2026-03-29T08:09:39.579Z</time></trkpt><trkpt lat="43.816805" lon="12.2579867"><ele>467.66666666666663</ele><time>2026-03-29T08:09:40.579Z</time></trkpt><trkpt lat="43.816675" lon="12.2581533"><ele>471.33333333333337</ele><time>2026-03-29T08:09:41.58Z</time></trkpt><trkpt lat="43.8165333" lon="12.2582817"><ele>475.0</ele><time>2026-03-29T08:09:42.58Z</time></trkpt><trkpt lat="43.8164" lon="12.2583817"><ele>475.0</ele><time>2026-03-29T08:09:43.58Z</time></trkpt><trkpt lat="43.8162617" lon="12.2584533"><ele>475.0</ele><time>2026-03-29T08:09:44.579Z</time></trkpt><trkpt lat="43.8161133" lon="12.2584767"><ele>475.0</ele><time>2026-03-29T08:09:45.58Z</time></trkpt><trkpt lat="43.8159567" lon="12.2584633"><ele>475.6666666666667</ele><time>2026-03-29T08:09:46.58Z</time></trkpt><trkpt lat="43.8157917" lon="12.2584117"><ele>476.33333333333337</ele><time>2026-03-29T08:09:47.58Z</time></trkpt><trkpt lat="43.81564" lon="12.258355"><ele>477.0</ele><time>2026-03-29T08:09:48.579Z</time></trkpt><trkpt lat="43.8154883" lon="12.2583083"><ele>477.0</ele><time>2026-03-29T08:09:49.58Z</time></trkpt><trkpt lat="43.8153483" lon="12.258275"><ele>477.0</ele><time>2026-03-29T08:09:50.58Z</time></trkpt><trkpt lat="43.8152117" lon="12.2582667"><ele>477.0</ele><time>2026-03-29T08:09:51.58Z</time></trkpt><trkpt lat="43.81509" lon="12.2582617"><ele>477.0</ele><time>2026-03-29T08:09:52.58Z</time></trkpt><trkpt lat="43.814985" lon="12.2582633"><ele>477.5</ele><time>2026-03-29T08:09:53.579Z</time></trkpt><trkpt lat="43.8148933" lon="12.2582633"><ele>478.0</ele><time>2026-03-29T08:09:54.58Z</time></trkpt><trkpt lat="43.814815" lon="12.2582717"><ele>478.5</ele><time>2026-03-29T08:09:55.58Z</time></trkpt><trkpt lat="43.8147417" lon="12.2582967"><ele>479.0</ele><time>2026-03-29T08:09:56.579Z</time></trkpt><trkpt lat="43.8146767" lon="12.258355"><ele>479.5</ele><time>2026-03-29T08:09:57.58Z</time></trkpt><trkpt lat="43.81463" lon="12.25843"><ele>480.0</ele><time>2026-03-29T08:09:58.58Z</time></trkpt><trkpt lat="43.8146583" lon="12.25861"><ele>480.0</ele><time>2026-03-29T08:10:00.58Z</time></trkpt><trkpt lat="43.8147383" lon="12.2586783"><ele>480.0</ele><time>2026-03-29T08:10:01.58Z</time></trkpt><trkpt lat="43.81484" lon="12.258755"><ele>480.0</ele><time>2026-03-29T08:10:02.58Z</time></trkpt><trkpt lat="43.81496" lon="12.2588567"><ele>480.0</ele><time>2026-03-29T08:10:03.58Z</time></trkpt><trkpt lat="43.8150717" lon="12.2589683"><ele>481.75</ele><time>2026-03-29T08:10:04.579Z</time></trkpt><trkpt lat="43.81515" lon="12.2591067"><ele>483.5</ele><time>2026-03-29T08:10:05.579Z</time></trkpt><trkpt lat="43.8151883" lon="12.259275"><ele>485.25</ele><time>2026-03-29T08:10:06.58Z</time></trkpt><trkpt lat="43.8151867" lon="12.2594583"><ele>487.0</ele><time>2026-03-29T08:10:07.58Z</time></trkpt><trkpt lat="43.8151433" lon="12.2596417"><ele>491.33333333333337</ele><time>2026-03-29T08:10:08.58Z</time></trkpt><trkpt lat="43.815055" lon="12.2598067"><ele>495.66666666666663</ele><time>2026-03-29T08:10:09.58Z</time></trkpt><trkpt lat="43.81493" lon="12.2599617"><ele>500.0</ele><time>2026-03-29T08:10:10.58Z</time></trkpt><trkpt lat="43.8147867" lon="12.2601517"><ele>500.0</ele><time>2026-03-29T08:10:11.58Z</time></trkpt><trkpt lat="43.81465" lon="12.2603717"><ele>500.0</ele><time>2026-03-29T08:10:12.58Z</time></trkpt><trkpt lat="43.814505" lon="12.2606017"><ele>500.0</ele><time>2026-03-29T08:10:13.579Z</time></trkpt><trkpt lat="43.8143717" lon="12.2608417"><ele>501.66666666666663</ele><time>2026-03-29T08:10:14.58Z</time></trkpt><trkpt lat="43.8142583" lon="12.2610633"><ele>503.33333333333337</ele><time>2026-03-29T08:10:15.579Z</time></trkpt><trkpt lat="43.8141733" lon="12.2612483"><ele>505.0</ele><time>2026-03-29T08:10:16.58Z</time></trkpt><trkpt lat="43.814095" lon="12.2614067"><ele>506.5</ele><time>2026-03-29T08:10:17.58Z</time></trkpt><trkpt lat="43.8140483" lon="12.2615517"><ele>508.0</ele><time>2026-03-29T08:10:18.58Z</time></trkpt><trkpt lat="43.8140067" lon="12.2617533"><ele>509.5</ele><time>2026-03-29T08:10:19.59Z</time></trkpt><trkpt lat="43.8140883" lon="12.2618383"><ele>511.0</ele><time>2026-03-29T08:10:20.975Z</time></trkpt><trkpt lat="43.8142033" lon="12.2619567"><ele>511.0</ele><time>2026-03-29T08:10:22.074Z</time></trkpt><trkpt lat="43.8143167" lon="12.26197"><ele>511.0</ele><time>2026-03-29T08:10:23.074Z</time></trkpt><trkpt lat="43.81445" lon="12.2619783"><ele>511.0</ele><time>2026-03-29T08:10:24.074Z</time></trkpt><trkpt lat="43.8146767" lon="12.2619483"><ele>516.0</ele><time>2026-03-29T08:10:25.575Z</time></trkpt><trkpt lat="43.814845" lon="12.26189"><ele>521.0</ele><time>2026-03-29T08:10:26.575Z</time></trkpt><trkpt lat="43.8149833" lon="12.2618117"><ele>526.0</ele><time>2026-03-29T08:10:27.575Z</time></trkpt><trkpt lat="43.8150983" lon="12.2617217"><ele>524.6666666666667</ele><time>2026-03-29T08:10:28.574Z</time></trkpt><trkpt lat="43.8151983" lon="12.2616383"><ele>523.3333333333334</ele><time>2026-03-29T08:10:29.574Z</time></trkpt><trkpt lat="43.8152617" lon="12.2615717"><ele>522.0</ele><time>2026-03-29T08:10:30.575Z</time></trkpt><trkpt lat="43.81532" lon="12.26151"><ele>520.6666666666666</ele><time>2026-03-29T08:10:31.574Z</time></trkpt><trkpt lat="43.8153733" lon="12.2614533"><ele>519.3333333333333</ele><time>2026-03-29T08:10:32.575Z</time></trkpt><trkpt lat="43.815425" lon="12.2613917"><ele>518.0</ele><time>2026-03-29T08:10:33.575Z</time></trkpt><trkpt lat="43.8154767" lon="12.261325"><ele>518.0</ele><time>2026-03-29T08:10:34.575Z</time></trkpt><trkpt lat="43.8155267" lon="12.2612683"><ele>518.0</ele><time>2026-03-29T08:10:35.575Z</time></trkpt><trkpt lat="43.81561" lon="12.2612183"><ele>518.0</ele><time>2026-03-29T08:10:37.574Z</time></trkpt><trkpt lat="43.8155967" lon="12.2613333"><ele>518.0</ele><time>2026-03-29T08:10:40.575Z</time></trkpt><trkpt lat="43.8154933" lon="12.2614567"><ele>518.0</ele><time>2026-03-29T08:10:42.574Z</time></trkpt><trkpt lat="43.815415" lon="12.26154"><ele>520.6666666666666</ele><time>2026-03-29T08:10:43.575Z</time></trkpt><trkpt lat="43.81521" lon="12.26178"><ele>523.3333333333334</ele><time>2026-03-29T08:10:45.575Z</time></trkpt><trkpt lat="43.815105" lon="12.2619033"><ele>526.0</ele><time>2026-03-29T08:10:46.575Z</time></trkpt><trkpt lat="43.8150067" lon="12.2620233"><ele>526.0</ele><time>2026-03-29T08:10:47.574Z</time></trkpt><trkpt lat="43.8149283" lon="12.26214"><ele>526.0</ele><time>2026-03-29T08:10:48.575Z</time></trkpt><trkpt lat="43.8148667" lon="12.2622583"><ele>526.0</ele><time>2026-03-29T08:10:49.574Z</time></trkpt><trkpt lat="43.8148217" lon="12.2624"><ele>526.0</ele><time>2026-03-29T08:10:50.575Z</time></trkpt><trkpt lat="43.8147917" lon="12.2625633"><ele>531.3333333333334</ele><time>2026-03-29T08:10:51.575Z</time></trkpt><trkpt lat="43.8147767" lon="12.262755"><ele>536.6666666666666</ele><time>2026-03-29T08:10:52.575Z</time></trkpt><trkpt lat="43.81477" lon="12.2629733"><ele>542.0</ele><time>2026-03-29T08:10:53.575Z</time></trkpt><trkpt lat="43.8147717" lon="12.2632533"><ele>542.6666666666666</ele><time>2026-03-29T08:10:54.575Z</time></trkpt><trkpt lat="43.8147783" lon="12.263525"><ele>543.3333333333334</ele><time>2026-03-29T08:10:55.575Z</time></trkpt><trkpt lat="43.814775" lon="12.2637983"><ele>544.0</ele><time>2026-03-29T08:10:56.575Z</time></trkpt><trkpt lat="43.8147717" lon="12.2640533"><ele>541.0</ele><time>2026-03-29T08:10:57.575Z</time></trkpt><trkpt lat="43.8147667" lon="12.264315"><ele>538.0</ele><time>2026-03-29T08:10:58.575Z</time></trkpt><trkpt lat="43.8147633" lon="12.26455"><ele>535.0</ele><time>2026-03-29T08:10:59.575Z</time></trkpt><trkpt lat="43.8147683" lon="12.2647667"><ele>532.75</ele><time>2026-03-29T08:11:00.575Z</time></trkpt><trkpt lat="43.8147983" lon="12.2649667"><ele>530.5</ele><time>2026-03-29T08:11:01.574Z</time></trkpt><trkpt lat="43.8148583" lon="12.2651317"><ele>528.25</ele><time>2026-03-29T08:11:02.575Z</time></trkpt><trkpt lat="43.8148967" lon="12.2652817"><ele>526.0</ele><time>2026-03-29T08:11:03.575Z</time></trkpt><trkpt lat="43.81492" lon="12.26541"><ele>526.0</ele><time>2026-03-29T08:11:04.575Z</time></trkpt><trkpt lat="43.8149267" lon="12.2655267"><ele>526.0</ele><time>2026-03-29T08:11:05.575Z</time></trkpt><trkpt lat="43.814915" lon="12.2656333"><ele>526.0</ele><time>2026-03-29T08:11:06.575Z</time></trkpt><trkpt lat="43.8148917" lon="12.265765"><ele>526.0</ele><time>2026-03-29T08:11:07.575Z</time></trkpt><trkpt lat="43.8148367" lon="12.2659483"><ele>526.0</ele><time>2026-03-29T08:11:08.574Z</time></trkpt><trkpt lat="43.81478" lon="12.2661667"><ele>526.0</ele><time>2026-03-29T08:11:09.574Z</time></trkpt><trkpt lat="43.8147117" lon="12.2663967"><ele>526.0</ele><time>2026-03-29T08:11:10.575Z</time></trkpt><trkpt lat="43.814645" lon="12.2666517"><ele>526.0</ele><time>2026-03-29T08:11:11.575Z</time></trkpt><trkpt lat="43.814565" lon="12.2668867"><ele>527.6666666666667</ele><time>2026-03-29T08:11:12.575Z</time></trkpt><trkpt lat="43.8144767" lon="12.2671283"><ele>529.3333333333334</ele><time>2026-03-29T08:11:13.575Z</time></trkpt><trkpt lat="43.814375" lon="12.2673583"><ele>531.0</ele><time>2026-03-29T08:11:14.574Z</time></trkpt><trkpt lat="43.81427" lon="12.2675867"><ele>526.0</ele><time>2026-03-29T08:11:15.575Z</time></trkpt><trkpt lat="43.8141533" lon="12.26779"><ele>521.0</ele><time>2026-03-29T08:11:16.575Z</time></trkpt><trkpt lat="43.8140417" lon="12.2679917"><ele>516.0</ele><time>2026-03-29T08:11:17.575Z</time></trkpt><trkpt lat="43.8139317" lon="12.2681983"><ele>516.0</ele><time>2026-03-29T08:11:18.575Z</time></trkpt><trkpt lat="43.8138267" lon="12.268395"><ele>516.0</ele><time>2026-03-29T08:11:19.575Z</time></trkpt><trkpt lat="43.8137167" lon="12.268585"><ele>516.0</ele><time>2026-03-29T08:11:20.575Z</time></trkpt><trkpt lat="43.813615" lon="12.2687667"><ele>516.0</ele><time>2026-03-29T08:11:21.575Z</time></trkpt><trkpt lat="43.8135033" lon="12.268915"><ele>516.0</ele><time>2026-03-29T08:11:22.574Z</time></trkpt><trkpt lat="43.8133667" lon="12.2690283"><ele>516.0</ele><time>2026-03-29T08:11:23.575Z</time></trkpt><trkpt lat="43.8132017" lon="12.2690983"><ele>513.3333333333334</ele><time>2026-03-29T08:11:24.575Z</time></trkpt><trkpt lat="43.81302" lon="12.2691417"><ele>510.6666666666667</ele><time>2026-03-29T08:11:25.575Z</time></trkpt><trkpt lat="43.8128433" lon="12.2691667"><ele>508.0</ele><time>2026-03-29T08:11:26.575Z</time></trkpt><trkpt lat="43.8126667" lon="12.2691767"><ele>505.33333333333337</ele><time>2026-03-29T08:11:27.574Z</time></trkpt><trkpt lat="43.81247" lon="12.2691583"><ele>502.66666666666663</ele><time>2026-03-29T08:11:28.574Z</time></trkpt><trkpt lat="43.8122667" lon="12.269105"><ele>500.0</ele><time>2026-03-29T08:11:29.574Z</time></trkpt><trkpt lat="43.8120533" lon="12.2690667"><ele>500.0</ele><time>2026-03-29T08:11:30.575Z</time></trkpt><trkpt lat="43.8118383" lon="12.2690467"><ele>500.0</ele><time>2026-03-29T08:11:31.575Z</time></trkpt><trkpt lat="43.811625" lon="12.26904"><ele>500.0</ele><time>2026-03-29T08:11:32.575Z</time></trkpt><trkpt lat="43.8114017" lon="12.2690367"><ele>498.0</ele><time>2026-03-29T08:11:33.575Z</time></trkpt><trkpt lat="43.8111717" lon="12.26905"><ele>496.0</ele><time>2026-03-29T08:11:34.575Z</time></trkpt><trkpt lat="43.8109417" lon="12.2690683"><ele>494.6666666666667</ele><time>2026-03-29T08:11:35.575Z</time></trkpt><trkpt lat="43.8107217" lon="12.26909"><ele>493.33333333333337</ele><time>2026-03-29T08:11:36.575Z</time></trkpt><trkpt lat="43.8104967" lon="12.26911"><ele>492.0</ele><time>2026-03-29T08:11:37.574Z</time></trkpt><trkpt lat="43.8102667" lon="12.2691217"><ele>491.0</ele><time>2026-03-29T08:11:38.575Z</time></trkpt><trkpt lat="43.81004" lon="12.2691383"><ele>490.0</ele><time>2026-03-29T08:11:39.575Z</time></trkpt><trkpt lat="43.8098183" lon="12.2691583"><ele>489.0</ele><time>2026-03-29T08:11:40.575Z</time></trkpt><trkpt lat="43.8096117" lon="12.2691767"><ele>489.0</ele><time>2026-03-29T08:11:41.575Z</time></trkpt><trkpt lat="43.8094167" lon="12.269195"><ele>489.0</ele><time>2026-03-29T08:11:42.575Z</time></trkpt><trkpt lat="43.8092233" lon="12.2692117"><ele>489.0</ele><time>2026-03-29T08:11:43.574Z</time></trkpt><trkpt lat="43.80904" lon="12.2692567"><ele>488.33333333333337</ele><time>2026-03-29T08:11:44.574Z</time></trkpt><trkpt lat="43.80885" lon="12.2693317"><ele>487.6666666666667</ele><time>2026-03-29T08:11:45.575Z</time></trkpt><trkpt lat="43.808665" lon="12.2694617"><ele>487.0</ele><time>2026-03-29T08:11:46.574Z</time></trkpt><trkpt lat="43.808475" lon="12.2696233"><ele>488.33333333333337</ele><time>2026-03-29T08:11:47.575Z</time></trkpt><trkpt lat="43.8083017" lon="12.26979"><ele>489.66666666666663</ele><time>2026-03-29T08:11:48.575Z</time></trkpt><trkpt lat="43.808145" lon="12.26994"><ele>491.0</ele><time>2026-03-29T08:11:49.574Z</time></trkpt><trkpt lat="43.8080033" lon="12.270075"><ele>491.0</ele><time>2026-03-29T08:11:50.575Z</time></trkpt><trkpt lat="43.8078733" lon="12.2702167"><ele>491.0</ele><time>2026-03-29T08:11:51.574Z</time></trkpt><trkpt lat="43.80775" lon="12.2703367"><ele>491.0</ele><time>2026-03-29T08:11:52.575Z</time></trkpt><trkpt lat="43.807635" lon="12.2704533"><ele>492.25</ele><time>2026-03-29T08:11:53.575Z</time></trkpt><trkpt lat="43.8075283" lon="12.270565"><ele>493.5</ele><time>2026-03-29T08:11:54.575Z</time></trkpt><trkpt lat="43.8074233" lon="12.270665"><ele>494.75</ele><time>2026-03-29T08:11:55.575Z</time></trkpt><trkpt lat="43.8073217" lon="12.270765"><ele>496.0</ele><time>2026-03-29T08:11:56.575Z</time></trkpt><trkpt lat="43.80722" lon="12.27086"><ele>496.25</ele><time>2026-03-29T08:11:57.575Z</time></trkpt><trkpt lat="43.8071133" lon="12.2709383"><ele>496.5</ele><time>2026-03-29T08:11:58.575Z</time></trkpt><trkpt lat="43.8069933" lon="12.2709817"><ele>496.75</ele><time>2026-03-29T08:11:59.575Z</time></trkpt><trkpt lat="43.8068783" lon="12.2709833"><ele>497.0</ele><time>2026-03-29T08:12:00.575Z</time></trkpt><trkpt lat="43.806775" lon="12.270925"><ele>498.5</ele><time>2026-03-29T08:12:01.575Z</time></trkpt><trkpt lat="43.8066783" lon="12.2708333"><ele>500.0</ele><time>2026-03-29T08:12:02.575Z</time></trkpt><trkpt lat="43.8066017" lon="12.2707183"><ele>501.5</ele><time>2026-03-29T08:12:03.575Z</time></trkpt><trkpt lat="43.8065217" lon="12.270585"><ele>503.0</ele><time>2026-03-29T08:12:04.576Z</time></trkpt><trkpt lat="43.8064233" lon="12.27047"><ele>503.3333333333333</ele><time>2026-03-29T08:12:05.576Z</time></trkpt><trkpt lat="43.8062767" lon="12.27035"><ele>503.66666666666663</ele><time>2026-03-29T08:12:06.576Z</time></trkpt><trkpt lat="43.8061067" lon="12.2702133"><ele>504.0</ele><time>2026-03-29T08:12:07.575Z</time></trkpt><trkpt lat="43.805925" lon="12.2700567"><ele>506.66666666666663</ele><time>2026-03-29T08:12:08.575Z</time></trkpt><trkpt lat="43.805755" lon="12.2699283"><ele>509.3333333333333</ele><time>2026-03-29T08:12:09.576Z</time></trkpt><trkpt lat="43.8056183" lon="12.2698167"><ele>512.0</ele><time>2026-03-29T08:12:10.576Z</time></trkpt><trkpt lat="43.8054867" lon="12.2697333"><ele>512.0</ele><time>2026-03-29T08:12:11.576Z</time></trkpt><trkpt lat="43.8053267" lon="12.2696933"><ele>512.0</ele><time>2026-03-29T08:12:12.575Z</time></trkpt><trkpt lat="43.8051733" lon="12.2697317"><ele>512.0</ele><time>2026-03-29T08:12:13.576Z</time></trkpt><trkpt lat="43.805025" lon="12.2698083"><ele>514.25</ele><time>2026-03-29T08:12:14.575Z</time></trkpt><trkpt lat="43.8048883" lon="12.2698783"><ele>516.5</ele><time>2026-03-29T08:12:15.575Z</time></trkpt><trkpt lat="43.8047583" lon="12.2699167"><ele>518.75</ele><time>2026-03-29T08:12:16.576Z</time></trkpt><trkpt lat="43.8046417" lon="12.2698967"><ele>521.0</ele><time>2026-03-29T08:12:17.576Z</time></trkpt><trkpt lat="43.8045467" lon="12.26982"><ele>520.5</ele><time>2026-03-29T08:12:18.576Z</time></trkpt><trkpt lat="43.8044883" lon="12.2696917"><ele>520.0</ele><time>2026-03-29T08:12:19.576Z</time></trkpt><trkpt lat="43.8044717" lon="12.2695233"><ele>519.5</ele><time>2026-03-29T08:12:20.576Z</time></trkpt><trkpt lat="43.8045" lon="12.2693433"><ele>519.0</ele><time>2026-03-29T08:12:21.575Z</time></trkpt><trkpt lat="43.8045117" lon="12.2691433"><ele>519.3333333333334</ele><time>2026-03-29T08:12:22.576Z</time></trkpt><trkpt lat="43.8044867" lon="12.2689183"><ele>519.6666666666667</ele><time>2026-03-29T08:12:23.576Z</time></trkpt><trkpt lat="43.80443" lon="12.2687217"><ele>520.0</ele><time>2026-03-29T08:12:24.576Z</time></trkpt><trkpt lat="43.80437" lon="12.2685533"><ele>524.0</ele><time>2026-03-29T08:12:25.576Z</time></trkpt><trkpt lat="43.8042933" lon="12.2684067"><ele>528.0</ele><time>2026-03-29T08:12:26.575Z</time></trkpt><trkpt lat="43.8041767" lon="12.2682767"><ele>532.0</ele><time>2026-03-29T08:12:27.575Z</time></trkpt><trkpt lat="43.8040267" lon="12.2681517"><ele>529.0</ele><time>2026-03-29T08:12:28.576Z</time></trkpt><trkpt lat="43.8038667" lon="12.2680267"><ele>526.0</ele><time>2026-03-29T08:12:29.575Z</time></trkpt><trkpt lat="43.8037167" lon="12.2679067"><ele>523.0</ele><time>2026-03-29T08:12:30.576Z</time></trkpt><trkpt lat="43.8035867" lon="12.2677967"><ele>526.3333333333334</ele><time>2026-03-29T08:12:31.575Z</time></trkpt><trkpt lat="43.8034717" lon="12.2676617"><ele>529.6666666666666</ele><time>2026-03-29T08:12:32.576Z</time></trkpt><trkpt lat="43.803385" lon="12.2674933"><ele>533.0</ele><time>2026-03-29T08:12:33.576Z</time></trkpt><trkpt lat="43.8033383" lon="12.2672883"><ele>532.6666666666666</ele><time>2026-03-29T08:12:34.575Z</time></trkpt><trkpt lat="43.803315" lon="12.2670467"><ele>532.3333333333334</ele><time>2026-03-29T08:12:35.576Z</time></trkpt><trkpt lat="43.8033017" lon="12.2668133"><ele>532.0</ele><time>2026-03-29T08:12:36.575Z</time></trkpt><trkpt lat="43.803285" lon="12.2666033"><ele>530.75</ele><time>2026-03-29T08:12:37.576Z</time></trkpt><trkpt lat="43.803265" lon="12.266405"><ele>529.5</ele><time>2026-03-29T08:12:38.575Z</time></trkpt><trkpt lat="43.80323" lon="12.2662083"><ele>528.25</ele><time>2026-03-29T08:12:39.576Z</time></trkpt><trkpt lat="43.803175" lon="12.2660117"><ele>527.0</ele><time>2026-03-29T08:12:40.576Z</time></trkpt><trkpt lat="43.8031017" lon="12.2658183"><ele>527.0</ele><time>2026-03-29T08:12:41.575Z</time></trkpt><trkpt lat="43.80304" lon="12.265675"><ele>527.0</ele><time>2026-03-29T08:12:42.576Z</time></trkpt><trkpt lat="43.8029833" lon="12.2655483"><ele>527.0</ele><time>2026-03-29T08:12:43.576Z</time></trkpt><trkpt lat="43.8028967" lon="12.2654533"><ele>527.0</ele><time>2026-03-29T08:12:44.576Z</time></trkpt><trkpt lat="43.80279" lon="12.26539"><ele>526.75</ele><time>2026-03-29T08:12:45.576Z</time></trkpt><trkpt lat="43.8026733" lon="12.2653667"><ele>526.5</ele><time>2026-03-29T08:12:46.576Z</time></trkpt><trkpt lat="43.80253" lon="12.265405"><ele>526.25</ele><time>2026-03-29T08:12:47.576Z</time></trkpt><trkpt lat="43.8023717" lon="12.2654817"><ele>526.0</ele><time>2026-03-29T08:12:48.576Z</time></trkpt><trkpt lat="43.8022133" lon="12.26558"><ele>527.75</ele><time>2026-03-29T08:12:49.576Z</time></trkpt><trkpt lat="43.8020733" lon="12.265675"><ele>529.5</ele><time>2026-03-29T08:12:50.576Z</time></trkpt><trkpt lat="43.8019467" lon="12.265755"><ele>531.25</ele><time>2026-03-29T08:12:51.576Z</time></trkpt><trkpt lat="43.8018217" lon="12.2657867"><ele>533.0</ele><time>2026-03-29T08:12:52.576Z</time></trkpt><trkpt lat="43.8016933" lon="12.26577"><ele>533.3333333333333</ele><time>2026-03-29T08:12:53.576Z</time></trkpt><trkpt lat="43.8015483" lon="12.265695"><ele>533.6666666666666</ele><time>2026-03-29T08:12:54.576Z</time></trkpt><trkpt lat="43.80139" lon="12.265565"><ele>534.0</ele><time>2026-03-29T08:12:55.576Z</time></trkpt><trkpt lat="43.8012283" lon="12.26541"><ele>534.0</ele><time>2026-03-29T08:12:56.576Z</time></trkpt><trkpt lat="43.80109" lon="12.2652733"><ele>534.0</ele><time>2026-03-29T08:12:57.575Z</time></trkpt><trkpt lat="43.8009833" lon="12.2651417"><ele>534.0</ele><time>2026-03-29T08:12:58.576Z</time></trkpt><trkpt lat="43.8008933" lon="12.2649933"><ele>536.5</ele><time>2026-03-29T08:12:59.575Z</time></trkpt><trkpt lat="43.800845" lon="12.2648217"><ele>539.0</ele><time>2026-03-29T08:13:00.576Z</time></trkpt><trkpt lat="43.8008317" lon="12.26465"><ele>541.5</ele><time>2026-03-29T08:13:01.576Z</time></trkpt><trkpt lat="43.80085" lon="12.2644867"><ele>544.0</ele><time>2026-03-29T08:13:02.576Z</time></trkpt><trkpt lat="43.8008317" lon="12.26431"><ele>544.3333333333334</ele><time>2026-03-29T08:13:03.576Z</time></trkpt><trkpt lat="43.8007733" lon="12.2640967"><ele>544.6666666666666</ele><time>2026-03-29T08:13:04.576Z</time></trkpt><trkpt lat="43.80066" lon="12.263865"><ele>545.0</ele><time>2026-03-29T08:13:05.576Z</time></trkpt><trkpt lat="43.800535" lon="12.263655"><ele>545.0</ele><time>2026-03-29T08:13:06.576Z</time></trkpt><trkpt lat="43.80043" lon="12.2634167"><ele>545.0</ele><time>2026-03-29T08:13:07.576Z</time></trkpt><trkpt lat="43.8003567" lon="12.2631667"><ele>545.0</ele><time>2026-03-29T08:13:08.576Z</time></trkpt><trkpt lat="43.8003067" lon="12.2629117"><ele>544.0</ele><time>2026-03-29T08:13:09.575Z</time></trkpt><trkpt lat="43.80027" lon="12.262665"><ele>543.0</ele><time>2026-03-29T08:13:10.576Z</time></trkpt><trkpt lat="43.80023" lon="12.2624317"><ele>542.0</ele><time>2026-03-29T08:13:11.575Z</time></trkpt><trkpt lat="43.8001633" lon="12.2621783"><ele>546.3333333333333</ele><time>2026-03-29T08:13:12.575Z</time></trkpt><trkpt lat="43.80007" lon="12.2619067"><ele>550.6666666666666</ele><time>2026-03-29T08:13:13.576Z</time></trkpt><trkpt lat="43.799975" lon="12.2616417"><ele>555.0</ele><time>2026-03-29T08:13:14.575Z</time></trkpt><trkpt lat="43.7998817" lon="12.2614017"><ele>555.0</ele><time>2026-03-29T08:13:15.576Z</time></trkpt><trkpt lat="43.7998" lon="12.2611883"><ele>555.0</ele><time>2026-03-29T08:13:16.576Z</time></trkpt><trkpt lat="43.7997267" lon="12.260995"><ele>555.0</ele><time>2026-03-29T08:13:17.575Z</time></trkpt><trkpt lat="43.7996783" lon="12.2608067"><ele>557.3333333333334</ele><time>2026-03-29T08:13:18.575Z</time></trkpt><trkpt lat="43.7996767" lon="12.260615"><ele>559.6666666666667</ele><time>2026-03-29T08:13:19.576Z</time></trkpt><trkpt lat="43.799715" lon="12.2604"><ele>562.0</ele><time>2026-03-29T08:13:20.576Z</time></trkpt><trkpt lat="43.7997917" lon="12.260175"><ele>562.0</ele><time>2026-03-29T08:13:21.575Z</time></trkpt><trkpt lat="43.799875" lon="12.259905"><ele>562.0</ele><time>2026-03-29T08:13:22.576Z</time></trkpt><trkpt lat="43.799975" lon="12.2596267"><ele>562.0</ele><time>2026-03-29T08:13:23.575Z</time></trkpt><trkpt lat="43.8000733" lon="12.2593583"><ele>563.6666666666667</ele><time>2026-03-29T08:13:24.576Z</time></trkpt><trkpt lat="43.8001617" lon="12.259105"><ele>565.3333333333334</ele><time>2026-03-29T08:13:25.576Z</time></trkpt><trkpt lat="43.800245" lon="12.2588633"><ele>567.0</ele><time>2026-03-29T08:13:26.575Z</time></trkpt><trkpt lat="43.80032" lon="12.2586317"><ele>567.0</ele><time>2026-03-29T08:13:27.575Z</time></trkpt><trkpt lat="43.8003917" lon="12.258405"><ele>567.0</ele><time>2026-03-29T08:13:28.576Z</time></trkpt><trkpt lat="43.8004817" lon="12.2582083"><ele>567.0</ele><time>2026-03-29T08:13:29.576Z</time></trkpt><trkpt lat="43.80059" lon="12.25805"><ele>569.25</ele><time>2026-03-29T08:13:30.576Z</time></trkpt><trkpt lat="43.8006717" lon="12.2579317"><ele>571.5</ele><time>2026-03-29T08:13:31.576Z</time></trkpt><trkpt lat="43.800735" lon="12.2578033"><ele>573.75</ele><time>2026-03-29T08:13:32.576Z</time></trkpt><trkpt lat="43.80076" lon="12.257645"><ele>576.0</ele><time>2026-03-29T08:13:33.576Z</time></trkpt><trkpt lat="43.8007667" lon="12.25744"><ele>575.0</ele><time>2026-03-29T08:13:34.576Z</time></trkpt><trkpt lat="43.8007433" lon="12.2571867"><ele>574.0</ele><time>2026-03-29T08:13:35.576Z</time></trkpt><trkpt lat="43.800705" lon="12.2569433"><ele>573.0</ele><time>2026-03-29T08:13:36.576Z</time></trkpt><trkpt lat="43.8006617" lon="12.25672"><ele>573.0</ele><time>2026-03-29T08:13:37.575Z</time></trkpt><trkpt lat="43.80063" lon="12.2565567"><ele>573.0</ele><time>2026-03-29T08:13:38.576Z</time></trkpt><trkpt lat="43.8005567" lon="12.2564167"><ele>573.0</ele><time>2026-03-29T08:13:39.575Z</time></trkpt><trkpt lat="43.8004533" lon="12.2563167"><ele>573.0</ele><time>2026-03-29T08:13:40.576Z</time></trkpt><trkpt lat="43.8003083" lon="12.2562467"><ele>574.6666666666666</ele><time>2026-03-29T08:13:41.576Z</time></trkpt><trkpt lat="43.8001183" lon="12.256205"><ele>576.3333333333333</ele><time>2026-03-29T08:13:42.576Z</time></trkpt><trkpt lat="43.7999133" lon="12.25615"><ele>578.0</ele><time>2026-03-29T08:13:43.575Z</time></trkpt><trkpt lat="43.7996983" lon="12.25606"><ele>578.0</ele><time>2026-03-29T08:13:44.576Z</time></trkpt><trkpt lat="43.7994817" lon="12.255945"><ele>578.0</ele><time>2026-03-29T08:13:45.576Z</time></trkpt><trkpt lat="43.7992817" lon="12.2558083"><ele>578.6666666666666</ele><time>2026-03-29T08:13:46.575Z</time></trkpt><trkpt lat="43.7990967" lon="12.2556767"><ele>579.3333333333334</ele><time>2026-03-29T08:13:47.576Z</time></trkpt><trkpt lat="43.7989233" lon="12.2555467"><ele>580.0</ele><time>2026-03-29T08:13:48.576Z</time></trkpt><trkpt lat="43.7987733" lon="12.2554367"><ele>580.0</ele><time>2026-03-29T08:13:49.576Z</time></trkpt><trkpt lat="43.7986433" lon="12.255335"><ele>580.0</ele><time>2026-03-29T08:13:50.576Z</time></trkpt><trkpt lat="43.7985317" lon="12.2552317"><ele>580.0</ele><time>2026-03-29T08:13:51.575Z</time></trkpt><trkpt lat="43.7984333" lon="12.25509"><ele>580.0</ele><time>2026-03-29T08:13:52.576Z</time></trkpt><trkpt lat="43.7983617" lon="12.2549117"><ele>583.25</ele><time>2026-03-29T08:13:53.576Z</time></trkpt><trkpt lat="43.79831" lon="12.2547217"><ele>586.5</ele><time>2026-03-29T08:13:54.575Z</time></trkpt><trkpt lat="43.7982633" lon="12.254555"><ele>589.75</ele><time>2026-03-29T08:13:55.576Z</time></trkpt><trkpt lat="43.7982017" lon="12.25439"><ele>593.0</ele><time>2026-03-29T08:13:56.576Z</time></trkpt><trkpt lat="43.798115" lon="12.254265"><ele>593.0</ele><time>2026-03-29T08:13:57.575Z</time></trkpt><trkpt lat="43.7979983" lon="12.25419"><ele>593.0</ele><time>2026-03-29T08:13:58.576Z</time></trkpt><trkpt lat="43.7978617" lon="12.25415"><ele>593.0</ele><time>2026-03-29T08:13:59.576Z</time></trkpt><trkpt lat="43.7976967" lon="12.254125"><ele>593.0</ele><time>2026-03-29T08:14:00.576Z</time></trkpt><trkpt lat="43.7974983" lon="12.2541117"><ele>596.3333333333333</ele><time>2026-03-29T08:14:01.575Z</time></trkpt><trkpt lat="43.7972983" lon="12.2541067"><ele>599.6666666666666</ele><time>2026-03-29T08:14:02.576Z</time></trkpt><trkpt lat="43.7971133" lon="12.254095"><ele>603.0</ele><time>2026-03-29T08:14:03.575Z</time></trkpt><trkpt lat="43.7969317" lon="12.2540783"><ele>606.0</ele><time>2026-03-29T08:14:04.575Z</time></trkpt><trkpt lat="43.796755" lon="12.2540467"><ele>609.0</ele><time>2026-03-29T08:14:05.575Z</time></trkpt><trkpt lat="43.7965833" lon="12.2540133"><ele>612.0</ele><time>2026-03-29T08:14:06.575Z</time></trkpt><trkpt lat="43.7964383" lon="12.2539867"><ele>612.0</ele><time>2026-03-29T08:14:07.576Z</time></trkpt><trkpt lat="43.796305" lon="12.2539667"><ele>612.0</ele><time>2026-03-29T08:14:08.576Z</time></trkpt><trkpt lat="43.7961917" lon="12.2539333"><ele>612.0</ele><time>2026-03-29T08:14:09.575Z</time></trkpt><trkpt lat="43.7960983" lon="12.2538567"><ele>612.0</ele><time>2026-03-29T08:14:10.576Z</time></trkpt><trkpt lat="43.79603" lon="12.2537433"><ele>613.25</ele><time>2026-03-29T08:14:11.575Z</time></trkpt><trkpt lat="43.795985" lon="12.253595"><ele>614.5</ele><time>2026-03-29T08:14:12.575Z</time></trkpt><trkpt lat="43.7959533" lon="12.2534"><ele>615.75</ele><time>2026-03-29T08:14:13.576Z</time></trkpt><trkpt lat="43.7959283" lon="12.25317"><ele>617.0</ele><time>2026-03-29T08:14:14.575Z</time></trkpt><trkpt lat="43.7958967" lon="12.2529017"><ele>618.3333333333333</ele><time>2026-03-29T08:14:15.576Z</time></trkpt><trkpt lat="43.79588" lon="12.2526283"><ele>619.6666666666666</ele><time>2026-03-29T08:14:16.575Z</time></trkpt><trkpt lat="43.795875" lon="12.2523433"><ele>621.0</ele><time>2026-03-29T08:14:17.576Z</time></trkpt><trkpt lat="43.7958567" lon="12.2520467"><ele>622.0</ele><time>2026-03-29T08:14:18.576Z</time></trkpt><trkpt lat="43.7958217" lon="12.2517717"><ele>623.0</ele><time>2026-03-29T08:14:19.575Z</time></trkpt><trkpt lat="43.7957867" lon="12.2515033"><ele>624.0</ele><time>2026-03-29T08:14:20.576Z</time></trkpt><trkpt lat="43.7957633" lon="12.2512133"><ele>624.5</ele><time>2026-03-29T08:14:21.575Z</time></trkpt><trkpt lat="43.7957733" lon="12.2508983"><ele>625.0</ele><time>2026-03-29T08:14:22.575Z</time></trkpt><trkpt lat="43.795785" lon="12.25055"><ele>630.0</ele><time>2026-03-29T08:14:23.576Z</time></trkpt><trkpt lat="43.7958017" lon="12.2502017"><ele>635.0</ele><time>2026-03-29T08:14:24.576Z</time></trkpt><trkpt lat="43.7958117" lon="12.2498817"><ele>637.0</ele><time>2026-03-29T08:14:25.576Z</time></trkpt><trkpt lat="43.7958217" lon="12.2495917"><ele>639.0</ele><time>2026-03-29T08:14:26.576Z</time></trkpt><trkpt lat="43.7958333" lon="12.249325"><ele>641.0</ele><time>2026-03-29T08:14:27.576Z</time></trkpt><trkpt lat="43.7958583" lon="12.249065"><ele>644.6666666666666</ele><time>2026-03-29T08:14:28.576Z</time></trkpt><trkpt lat="43.7958917" lon="12.248825"><ele>648.3333333333334</ele><time>2026-03-29T08:14:29.575Z</time></trkpt><trkpt lat="43.7959233" lon="12.2486117"><ele>652.0</ele><time>2026-03-29T08:14:30.576Z</time></trkpt><trkpt lat="43.7959533" lon="12.2484133"><ele>652.0</ele><time>2026-03-29T08:14:31.576Z</time></trkpt><trkpt lat="43.79599" lon="12.2482517"><ele>652.0</ele><time>2026-03-29T08:14:32.576Z</time></trkpt><trkpt lat="43.7960533" lon="12.2481167"><ele>652.0</ele><time>2026-03-29T08:14:33.576Z</time></trkpt><trkpt lat="43.7961567" lon="12.2480033"><ele>652.0</ele><time>2026-03-29T08:14:34.576Z</time></trkpt><trkpt lat="43.7963" lon="12.2478967"><ele>656.0</ele><time>2026-03-29T08:14:35.575Z</time></trkpt><trkpt lat="43.796475" lon="12.24777"><ele>660.0</ele><time>2026-03-29T08:14:36.576Z</time></trkpt><trkpt lat="43.7966517" lon="12.2476467"><ele>664.0</ele><time>2026-03-29T08:14:37.576Z</time></trkpt><trkpt lat="43.7968317" lon="12.2475517"><ele>658.6666666666667</ele><time>2026-03-29T08:14:38.575Z</time></trkpt><trkpt lat="43.7969917" lon="12.2474733"><ele>653.3333333333334</ele><time>2026-03-29T08:14:39.576Z</time></trkpt><trkpt lat="43.7971367" lon="12.24741"><ele>648.0</ele><time>2026-03-29T08:14:40.576Z</time></trkpt><trkpt lat="43.7972683" lon="12.2473467"><ele>650.25</ele><time>2026-03-29T08:14:41.576Z</time></trkpt><trkpt lat="43.7973583" lon="12.2472567"><ele>652.5</ele><time>2026-03-29T08:14:42.575Z</time></trkpt><trkpt lat="43.79742" lon="12.247115"><ele>654.75</ele><time>2026-03-29T08:14:43.576Z</time></trkpt><trkpt lat="43.79745" lon="12.2469583"><ele>657.0</ele><time>2026-03-29T08:14:44.576Z</time></trkpt><trkpt lat="43.7974417" lon="12.246795"><ele>657.0</ele><time>2026-03-29T08:14:45.576Z</time></trkpt><trkpt lat="43.7974033" lon="12.2466383"><ele>657.0</ele><time>2026-03-29T08:14:46.575Z</time></trkpt><trkpt lat="43.7973317" lon="12.2464867"><ele>657.0</ele><time>2026-03-29T08:14:47.576Z</time></trkpt><trkpt lat="43.7972367" lon="12.2463617"><ele>657.0</ele><time>2026-03-29T08:14:48.575Z</time></trkpt><trkpt lat="43.797135" lon="12.2462783"><ele>655.0</ele><time>2026-03-29T08:14:49.576Z</time></trkpt><trkpt lat="43.7970367" lon="12.2462183"><ele>653.0</ele><time>2026-03-29T08:14:50.575Z</time></trkpt><trkpt lat="43.79695" lon="12.2461217"><ele>651.0</ele><time>2026-03-29T08:14:51.576Z</time></trkpt><trkpt lat="43.7968967" lon="12.2459917"><ele>649.0</ele><time>2026-03-29T08:14:52.576Z</time></trkpt><trkpt lat="43.796875" lon="12.2458367"><ele>647.0</ele><time>2026-03-29T08:14:53.575Z</time></trkpt><trkpt lat="43.796885" lon="12.2456667"><ele>646.1666666666666</ele><time>2026-03-29T08:14:54.576Z</time></trkpt><trkpt lat="43.7969033" lon="12.245515"><ele>645.3333333333333</ele><time>2026-03-29T08:14:55.576Z</time></trkpt><trkpt lat="43.7969233" lon="12.2453883"><ele>644.5</ele><time>2026-03-29T08:14:56.576Z</time></trkpt><trkpt lat="43.7969433" lon="12.245275"><ele>643.6666666666666</ele><time>2026-03-29T08:14:57.575Z</time></trkpt><trkpt lat="43.7969583" lon="12.245175"><ele>642.8333333333334</ele><time>2026-03-29T08:14:58.576Z</time></trkpt><trkpt lat="43.79694" lon="12.2450633"><ele>642.0</ele><time>2026-03-29T08:14:59.576Z</time></trkpt><trkpt lat="43.796905" lon="12.2449567"><ele>642.0</ele><time>2026-03-29T08:15:00.576Z</time></trkpt><trkpt lat="43.796845" lon="12.24486"><ele>642.0</ele><time>2026-03-29T08:15:01.576Z</time></trkpt><trkpt lat="43.7967433" lon="12.2447767"><ele>642.0</ele><time>2026-03-29T08:15:02.575Z</time></trkpt><trkpt lat="43.79658" lon="12.2447317"><ele>642.0</ele><time>2026-03-29T08:15:03.576Z</time></trkpt><trkpt lat="43.7964067" lon="12.2446733"><ele>645.3333333333334</ele><time>2026-03-29T08:15:04.575Z</time></trkpt><trkpt lat="43.79623" lon="12.2446"><ele>648.6666666666667</ele><time>2026-03-29T08:15:05.576Z</time></trkpt><trkpt lat="43.7960517" lon="12.2444967"><ele>652.0</ele><time>2026-03-29T08:15:06.576Z</time></trkpt><trkpt lat="43.7958467" lon="12.2443933"><ele>659.6666666666667</ele><time>2026-03-29T08:15:07.576Z</time></trkpt><trkpt lat="43.7956383" lon="12.2443017"><ele>667.3333333333334</ele><time>2026-03-29T08:15:08.576Z</time></trkpt><trkpt lat="43.7954383" lon="12.2442217"><ele>675.0</ele><time>2026-03-29T08:15:09.576Z</time></trkpt><trkpt lat="43.7952533" lon="12.24414"><ele>675.6666666666666</ele><time>2026-03-29T08:15:10.575Z</time></trkpt><trkpt lat="43.79508" lon="12.244065"><ele>676.3333333333333</ele><time>2026-03-29T08:15:11.576Z</time></trkpt><trkpt lat="43.79492" lon="12.2439883"><ele>677.0</ele><time>2026-03-29T08:15:12.576Z</time></trkpt><trkpt lat="43.7947817" lon="12.2439217"><ele>677.0</ele><time>2026-03-29T08:15:13.575Z</time></trkpt><trkpt lat="43.7946617" lon="12.2438633"><ele>677.0</ele><time>2026-03-29T08:15:14.576Z</time></trkpt><trkpt lat="43.794565" lon="12.2437867"><ele>677.0</ele><time>2026-03-29T08:15:15.576Z</time></trkpt><trkpt lat="43.79449" lon="12.243685"><ele>677.0</ele><time>2026-03-29T08:15:16.575Z</time></trkpt><trkpt lat="43.7944367" lon="12.2435533"><ele>677.0</ele><time>2026-03-29T08:15:17.576Z</time></trkpt><trkpt lat="43.794425" lon="12.243385"><ele>677.0</ele><time>2026-03-29T08:15:18.576Z</time></trkpt><trkpt lat="43.7944267" lon="12.2432017"><ele>677.0</ele><time>2026-03-29T08:15:19.576Z</time></trkpt><trkpt lat="43.7944383" lon="12.2430417"><ele>677.0</ele><time>2026-03-29T08:15:20.576Z</time></trkpt><trkpt lat="43.7944483" lon="12.24291"><ele>676.75</ele><time>2026-03-29T08:15:21.576Z</time></trkpt><trkpt lat="43.7944483" lon="12.2428033"><ele>676.5</ele><time>2026-03-29T08:15:22.576Z</time></trkpt><trkpt lat="43.7944417" lon="12.2426583"><ele>676.25</ele><time>2026-03-29T08:15:24.575Z</time></trkpt><trkpt lat="43.79443" lon="12.2425683"><ele>676.0</ele><time>2026-03-29T08:15:26.576Z</time></trkpt><trkpt lat="43.7947717" lon="12.24267"><ele>676.0</ele><time>2026-03-29T08:15:50.697Z</time></trkpt><trkpt lat="43.794575" lon="12.2426883"><ele>676.0</ele><time>2026-03-29T08:15:53.075Z</time></trkpt><trkpt lat="43.7945083" lon="12.2426283"><ele>676.0</ele><time>2026-03-29T08:15:54.075Z</time></trkpt><trkpt lat="43.7943567" lon="12.24256"><ele>676.0</ele><time>2026-03-29T08:15:56.575Z</time></trkpt><trkpt lat="43.79447" lon="12.2426633"><ele>676.0</ele><time>2026-03-29T08:15:59.574Z</time></trkpt><trkpt lat="43.7944617" lon="12.2425767"><ele>676.0</ele><time>2026-03-29T08:16:23.574Z</time></trkpt><trkpt lat="43.7943967" lon="12.24254"><ele>676.0</ele><time>2026-03-29T08:18:23.575Z</time></trkpt><trkpt lat="43.7943283" lon="12.2424217"><ele>676.0</ele><time>2026-03-29T08:18:25.575Z</time></trkpt><trkpt lat="43.7942767" lon="12.2423467"><ele>676.0</ele><time>2026-03-29T08:18:26.575Z</time></trkpt><trkpt lat="43.794225" lon="12.2422817"><ele>676.0</ele><time>2026-03-29T08:18:27.575Z</time></trkpt><trkpt lat="43.7941717" lon="12.24222"><ele>680.1666666666667</ele><time>2026-03-29T08:18:28.576Z</time></trkpt><trkpt lat="43.7941183" lon="12.24216"><ele>684.3333333333334</ele><time>2026-03-29T08:18:29.576Z</time></trkpt><trkpt lat="43.7940683" lon="12.2421017"><ele>688.5</ele><time>2026-03-29T08:18:30.576Z</time></trkpt><trkpt lat="43.79401" lon="12.2420333"><ele>692.6666666666666</ele><time>2026-03-29T08:18:31.576Z</time></trkpt><trkpt lat="43.7939433" lon="12.2419567"><ele>696.8333333333333</ele><time>2026-03-29T08:18:32.575Z</time></trkpt><trkpt lat="43.7938733" lon="12.2418633"><ele>701.0</ele><time>2026-03-29T08:18:33.576Z</time></trkpt><trkpt lat="43.7938" lon="12.2417433"><ele>701.0</ele><time>2026-03-29T08:18:34.576Z</time></trkpt><trkpt lat="43.7937467" lon="12.2416"><ele>701.0</ele><time>2026-03-29T08:18:35.576Z</time></trkpt><trkpt lat="43.7937033" lon="12.24144"><ele>701.0</ele><time>2026-03-29T08:18:36.576Z</time></trkpt><trkpt lat="43.7936717" lon="12.24127"><ele>701.0</ele><time>2026-03-29T08:18:37.575Z</time></trkpt><trkpt lat="43.793655" lon="12.2411233"><ele>701.8333333333333</ele><time>2026-03-29T08:18:38.576Z</time></trkpt><trkpt lat="43.7936567" lon="12.2409817"><ele>702.6666666666666</ele><time>2026-03-29T08:18:39.576Z</time></trkpt><trkpt lat="43.793695" lon="12.2408517"><ele>703.5</ele><time>2026-03-29T08:18:40.576Z</time></trkpt><trkpt lat="43.7937417" lon="12.240745"><ele>704.3333333333334</ele><time>2026-03-29T08:18:41.575Z</time></trkpt><trkpt lat="43.7937767" lon="12.2406567"><ele>705.1666666666667</ele><time>2026-03-29T08:18:42.575Z</time></trkpt><trkpt lat="43.7937967" lon="12.2405683"><ele>706.0</ele><time>2026-03-29T08:18:43.575Z</time></trkpt><trkpt lat="43.7937517" lon="12.2404017"><ele>710.0</ele><time>2026-03-29T08:18:45.575Z</time></trkpt><trkpt lat="43.7935967" lon="12.240395"><ele>714.0</ele><time>2026-03-29T08:18:47.575Z</time></trkpt><trkpt lat="43.793495" lon="12.240455"><ele>718.0</ele><time>2026-03-29T08:18:48.575Z</time></trkpt><trkpt lat="43.793355" lon="12.2405533"><ele>722.0</ele><time>2026-03-29T08:18:49.576Z</time></trkpt><trkpt lat="43.793215" lon="12.24066"><ele>722.25</ele><time>2026-03-29T08:18:50.576Z</time></trkpt><trkpt lat="43.7930917" lon="12.240755"><ele>722.5</ele><time>2026-03-29T08:18:51.576Z</time></trkpt><trkpt lat="43.7929883" lon="12.2408417"><ele>722.75</ele><time>2026-03-29T08:18:52.576Z</time></trkpt><trkpt lat="43.7929" lon="12.240945"><ele>723.0</ele><time>2026-03-29T08:18:53.576Z</time></trkpt><trkpt lat="43.7928283" lon="12.2410783"><ele>723.0</ele><time>2026-03-29T08:18:54.576Z</time></trkpt><trkpt lat="43.7927817" lon="12.24125"><ele>723.0</ele><time>2026-03-29T08:18:55.576Z</time></trkpt><trkpt lat="43.7927783" lon="12.2414433"><ele>723.0</ele><time>2026-03-29T08:18:56.575Z</time></trkpt><trkpt lat="43.792795" lon="12.2416417"><ele>723.0</ele><time>2026-03-29T08:18:57.575Z</time></trkpt><trkpt lat="43.7928183" lon="12.2418283"><ele>721.75</ele><time>2026-03-29T08:18:58.576Z</time></trkpt><trkpt lat="43.7928517" lon="12.2419933"><ele>720.5</ele><time>2026-03-29T08:18:59.576Z</time></trkpt><trkpt lat="43.7928967" lon="12.2421367"><ele>719.25</ele><time>2026-03-29T08:19:00.576Z</time></trkpt><trkpt lat="43.7929733" lon="12.2422617"><ele>718.0</ele><time>2026-03-29T08:19:01.575Z</time></trkpt><trkpt lat="43.7930683" lon="12.2423533"><ele>719.8333333333334</ele><time>2026-03-29T08:19:02.575Z</time></trkpt><trkpt lat="43.7931733" lon="12.2424167"><ele>721.6666666666667</ele><time>2026-03-29T08:19:03.576Z</time></trkpt><trkpt lat="43.7932667" lon="12.2424767"><ele>723.5</ele><time>2026-03-29T08:19:04.576Z</time></trkpt><trkpt lat="43.7933317" lon="12.242555"><ele>725.3333333333334</ele><time>2026-03-29T08:19:05.575Z</time></trkpt><trkpt lat="43.7933633" lon="12.2426467"><ele>727.1666666666666</ele><time>2026-03-29T08:19:06.576Z</time></trkpt><trkpt lat="43.7933717" lon="12.24274"><ele>729.0</ele><time>2026-03-29T08:19:07.575Z</time></trkpt><trkpt lat="43.7933333" lon="12.2428383"><ele>729.0</ele><time>2026-03-29T08:19:08.576Z</time></trkpt><trkpt lat="43.79327" lon="12.2429483"><ele>729.0</ele><time>2026-03-29T08:19:09.575Z</time></trkpt><trkpt lat="43.7931917" lon="12.2430833"><ele>729.0</ele><time>2026-03-29T08:19:10.575Z</time></trkpt><trkpt lat="43.793135" lon="12.24324"><ele>729.0</ele><time>2026-03-29T08:19:11.575Z</time></trkpt><trkpt lat="43.7931117" lon="12.24342"><ele>730.25</ele><time>2026-03-29T08:19:12.576Z</time></trkpt><trkpt lat="43.7931283" lon="12.2435983"><ele>731.5</ele><time>2026-03-29T08:19:13.576Z</time></trkpt><trkpt lat="43.79318" lon="12.2437483"><ele>732.75</ele><time>2026-03-29T08:19:14.576Z</time></trkpt><trkpt lat="43.793245" lon="12.2438667"><ele>734.0</ele><time>2026-03-29T08:19:15.576Z</time></trkpt><trkpt lat="43.7932967" lon="12.2439883"><ele>735.5</ele><time>2026-03-29T08:19:16.575Z</time></trkpt><trkpt lat="43.7933167" lon="12.2441217"><ele>737.0</ele><time>2026-03-29T08:19:17.576Z</time></trkpt><trkpt lat="43.7932917" lon="12.2442717"><ele>738.5</ele><time>2026-03-29T08:19:18.576Z</time></trkpt><trkpt lat="43.7932233" lon="12.24443"><ele>740.0</ele><time>2026-03-29T08:19:19.576Z</time></trkpt><trkpt lat="43.7931167" lon="12.2446033"><ele>740.0</ele><time>2026-03-29T08:19:20.576Z</time></trkpt><trkpt lat="43.79299" lon="12.2447883"><ele>740.0</ele><time>2026-03-29T08:19:21.576Z</time></trkpt><trkpt lat="43.7928733" lon="12.2449817"><ele>740.0</ele><time>2026-03-29T08:19:22.576Z</time></trkpt><trkpt lat="43.7927617" lon="12.2451633"><ele>744.0</ele><time>2026-03-29T08:19:23.576Z</time></trkpt><trkpt lat="43.7926633" lon="12.2453183"><ele>748.0</ele><time>2026-03-29T08:19:24.575Z</time></trkpt><trkpt lat="43.792585" lon="12.2454717"><ele>752.0</ele><time>2026-03-29T08:19:25.576Z</time></trkpt><trkpt lat="43.7925083" lon="12.2456"><ele>756.0</ele><time>2026-03-29T08:19:26.576Z</time></trkpt><trkpt lat="43.7924433" lon="12.245705"><ele>756.0</ele><time>2026-03-29T08:19:27.575Z</time></trkpt><trkpt lat="43.792365" lon="12.24578"><ele>756.0</ele><time>2026-03-29T08:19:28.576Z</time></trkpt><trkpt lat="43.7922833" lon="12.24581"><ele>756.0</ele><time>2026-03-29T08:19:29.576Z</time></trkpt><trkpt lat="43.7922067" lon="12.2457917"><ele>756.0</ele><time>2026-03-29T08:19:30.576Z</time></trkpt><trkpt lat="43.7921417" lon="12.2457517"><ele>756.0</ele><time>2026-03-29T08:19:31.575Z</time></trkpt><trkpt lat="43.7920967" lon="12.2456483"><ele>756.0</ele><time>2026-03-29T08:19:32.576Z</time></trkpt><trkpt lat="43.792075" lon="12.2455017"><ele>757.75</ele><time>2026-03-29T08:19:33.575Z</time></trkpt><trkpt lat="43.792085" lon="12.2453217"><ele>759.5</ele><time>2026-03-29T08:19:34.576Z</time></trkpt><trkpt lat="43.7921367" lon="12.2451517"><ele>761.25</ele><time>2026-03-29T08:19:35.576Z</time></trkpt><trkpt lat="43.7922133" lon="12.245005"><ele>763.0</ele><time>2026-03-29T08:19:36.576Z</time></trkpt><trkpt lat="43.79229" lon="12.2448783"><ele>763.8</ele><time>2026-03-29T08:19:37.575Z</time></trkpt><trkpt lat="43.792365" lon="12.2447767"><ele>764.5999999999999</ele><time>2026-03-29T08:19:38.576Z</time></trkpt><trkpt lat="43.7924283" lon="12.24469"><ele>765.4000000000001</ele><time>2026-03-29T08:19:39.576Z</time></trkpt><trkpt lat="43.7924783" lon="12.24461"><ele>766.2</ele><time>2026-03-29T08:19:40.576Z</time></trkpt><trkpt lat="43.79251" lon="12.2445333"><ele>767.0</ele><time>2026-03-29T08:19:41.576Z</time></trkpt><trkpt lat="43.792535" lon="12.24437"><ele>767.0</ele><time>2026-03-29T08:19:43.575Z</time></trkpt><trkpt lat="43.7924917" lon="12.244205"><ele>767.0</ele><time>2026-03-29T08:19:45.576Z</time></trkpt><trkpt lat="43.7924417" lon="12.2441333"><ele>767.0</ele><time>2026-03-29T08:19:46.575Z</time></trkpt><trkpt lat="43.7923767" lon="12.2440967"><ele>767.0</ele><time>2026-03-29T08:19:47.576Z</time></trkpt><trkpt lat="43.7922967" lon="12.244095"><ele>767.0</ele><time>2026-03-29T08:19:48.576Z</time></trkpt><trkpt lat="43.7922083" lon="12.2441467"><ele>767.0</ele><time>2026-03-29T08:19:49.576Z</time></trkpt><trkpt lat="43.7921133" lon="12.2442667"><ele>767.0</ele><time>2026-03-29T08:19:50.576Z</time></trkpt><trkpt lat="43.7920633" lon="12.244355"><ele>767.0</ele><time>2026-03-29T08:19:52.117Z</time></trkpt><trkpt lat="43.7919567" lon="12.2445583"><ele>767.0</ele><time>2026-03-29T08:19:53.573Z</time></trkpt><trkpt lat="43.7918317" lon="12.2449683"><ele>770.0</ele><time>2026-03-29T08:19:54.573Z</time></trkpt><trkpt lat="43.79165" lon="12.2454"><ele>773.0</ele><time>2026-03-29T08:19:56.072Z</time></trkpt><trkpt lat="43.7914917" lon="12.2457183"><ele>773.0</ele><time>2026-03-29T08:19:57.573Z</time></trkpt><trkpt lat="43.7913933" lon="12.2458883"><ele>773.0</ele><time>2026-03-29T08:19:58.572Z</time></trkpt><trkpt lat="43.7912833" lon="12.2460433"><ele>773.0</ele><time>2026-03-29T08:19:59.573Z</time></trkpt><trkpt lat="43.791145" lon="12.246185"><ele>773.0</ele><time>2026-03-29T08:20:00.572Z</time></trkpt><trkpt lat="43.791055" lon="12.2463117"><ele>773.0</ele><time>2026-03-29T08:20:02.111Z</time></trkpt><trkpt lat="43.79083" lon="12.2467083"><ele>777.5</ele><time>2026-03-29T08:20:03.573Z</time></trkpt><trkpt lat="43.7905667" lon="12.2469167"><ele>782.0</ele><time>2026-03-29T08:20:04.574Z</time></trkpt><trkpt lat="43.79029" lon="12.247185"><ele>785.3333333333334</ele><time>2026-03-29T08:20:06.074Z</time></trkpt><trkpt lat="43.790075" lon="12.2474117"><ele>788.6666666666667</ele><time>2026-03-29T08:20:07.573Z</time></trkpt><trkpt lat="43.7899367" lon="12.247525"><ele>792.0</ele><time>2026-03-29T08:20:08.574Z</time></trkpt><trkpt lat="43.789805" lon="12.2476133"><ele>792.0</ele><time>2026-03-29T08:20:09.574Z</time></trkpt><trkpt lat="43.7896833" lon="12.2476567"><ele>792.0</ele><time>2026-03-29T08:20:10.573Z</time></trkpt><trkpt lat="43.7895517" lon="12.2476633"><ele>792.0</ele><time>2026-03-29T08:20:11.574Z</time></trkpt><trkpt lat="43.7894033" lon="12.247635"><ele>792.0</ele><time>2026-03-29T08:20:12.573Z</time></trkpt><trkpt lat="43.78924" lon="12.2475717"><ele>795.0</ele><time>2026-03-29T08:20:13.574Z</time></trkpt><trkpt lat="43.78907" lon="12.2475083"><ele>798.0</ele><time>2026-03-29T08:20:14.573Z</time></trkpt><trkpt lat="43.788905" lon="12.2474467"><ele>801.0</ele><time>2026-03-29T08:20:15.574Z</time></trkpt><trkpt lat="43.788745" lon="12.2473567"><ele>803.6666666666667</ele><time>2026-03-29T08:20:16.574Z</time></trkpt><trkpt lat="43.7885833" lon="12.2472383"><ele>806.3333333333334</ele><time>2026-03-29T08:20:17.574Z</time></trkpt><trkpt lat="43.7884167" lon="12.2470967"><ele>809.0</ele><time>2026-03-29T08:20:18.574Z</time></trkpt><trkpt lat="43.7882467" lon="12.2469367"><ele>810.0</ele><time>2026-03-29T08:20:19.574Z</time></trkpt><trkpt lat="43.7880867" lon="12.2467733"><ele>811.0</ele><time>2026-03-29T08:20:20.574Z</time></trkpt><trkpt lat="43.787945" lon="12.246635"><ele>812.0</ele><time>2026-03-29T08:20:21.573Z</time></trkpt><trkpt lat="43.787815" lon="12.2465083"><ele>815.5</ele><time>2026-03-29T08:20:22.574Z</time></trkpt><trkpt lat="43.7876883" lon="12.2464133"><ele>819.0</ele><time>2026-03-29T08:20:23.574Z</time></trkpt><trkpt lat="43.787555" lon="12.2463333"><ele>822.5</ele><time>2026-03-29T08:20:24.574Z</time></trkpt><trkpt lat="43.7874017" lon="12.2463133"><ele>826.0</ele><time>2026-03-29T08:20:25.573Z</time></trkpt><trkpt lat="43.78724" lon="12.2463233"><ele>827.3333333333333</ele><time>2026-03-29T08:20:26.574Z</time></trkpt><trkpt lat="43.7870917" lon="12.24633"><ele>828.6666666666667</ele><time>2026-03-29T08:20:27.574Z</time></trkpt><trkpt lat="43.7869417" lon="12.2463267"><ele>830.0</ele><time>2026-03-29T08:20:28.574Z</time></trkpt><trkpt lat="43.7867883" lon="12.2463"><ele>831.6666666666667</ele><time>2026-03-29T08:20:29.574Z</time></trkpt><trkpt lat="43.7866367" lon="12.2462483"><ele>833.3333333333333</ele><time>2026-03-29T08:20:30.574Z</time></trkpt><trkpt lat="43.7864767" lon="12.2461667"><ele>835.0</ele><time>2026-03-29T08:20:31.574Z</time></trkpt><trkpt lat="43.7863167" lon="12.2460517"><ele>835.0</ele><time>2026-03-29T08:20:32.573Z</time></trkpt><trkpt lat="43.7861667" lon="12.2459317"><ele>835.0</ele><time>2026-03-29T08:20:33.574Z</time></trkpt><trkpt lat="43.786035" lon="12.2458283"><ele>835.0</ele><time>2026-03-29T08:20:34.574Z</time></trkpt><trkpt lat="43.7859183" lon="12.24576"><ele>833.25</ele><time>2026-03-29T08:20:35.573Z</time></trkpt><trkpt lat="43.785795" lon="12.245715"><ele>831.5</ele><time>2026-03-29T08:20:36.574Z</time></trkpt><trkpt lat="43.7856633" lon="12.24569"><ele>829.75</ele><time>2026-03-29T08:20:37.574Z</time></trkpt><trkpt lat="43.785525" lon="12.2457167"><ele>828.0</ele><time>2026-03-29T08:20:38.573Z</time></trkpt><trkpt lat="43.7853767" lon="12.2457983"><ele>828.0</ele><time>2026-03-29T08:20:39.574Z</time></trkpt><trkpt lat="43.78522" lon="12.2459117"><ele>828.0</ele><time>2026-03-29T08:20:40.574Z</time></trkpt><trkpt lat="43.7850633" lon="12.2460167"><ele>828.0</ele><time>2026-03-29T08:20:41.574Z</time></trkpt><trkpt lat="43.7849017" lon="12.2461383"><ele>830.0</ele><time>2026-03-29T08:20:42.574Z</time></trkpt><trkpt lat="43.7847433" lon="12.2462567"><ele>832.0</ele><time>2026-03-29T08:20:43.574Z</time></trkpt><trkpt lat="43.7845867" lon="12.246365"><ele>834.0</ele><time>2026-03-29T08:20:44.574Z</time></trkpt><trkpt lat="43.7844383" lon="12.2464717"><ele>833.6666666666667</ele><time>2026-03-29T08:20:45.574Z</time></trkpt><trkpt lat="43.7842917" lon="12.2465817"><ele>833.3333333333334</ele><time>2026-03-29T08:20:46.574Z</time></trkpt><trkpt lat="43.7841617" lon="12.2467367"><ele>833.0</ele><time>2026-03-29T08:20:47.574Z</time></trkpt><trkpt lat="43.7840267" lon="12.2469167"><ele>833.0</ele><time>2026-03-29T08:20:48.574Z</time></trkpt><trkpt lat="43.78389" lon="12.247115"><ele>833.0</ele><time>2026-03-29T08:20:49.574Z</time></trkpt><trkpt lat="43.7837467" lon="12.247325"><ele>833.0</ele><time>2026-03-29T08:20:50.573Z</time></trkpt><trkpt lat="43.7836" lon="12.2475333"><ele>832.6666666666667</ele><time>2026-03-29T08:20:51.573Z</time></trkpt><trkpt lat="43.7834483" lon="12.2477317"><ele>832.3333333333333</ele><time>2026-03-29T08:20:52.574Z</time></trkpt><trkpt lat="43.7833067" lon="12.24794"><ele>832.0</ele><time>2026-03-29T08:20:53.573Z</time></trkpt><trkpt lat="43.7831717" lon="12.24815"><ele>832.0</ele><time>2026-03-29T08:20:54.574Z</time></trkpt><trkpt lat="43.7830367" lon="12.2483667"><ele>832.0</ele><time>2026-03-29T08:20:55.574Z</time></trkpt><trkpt lat="43.7829" lon="12.24859"><ele>832.0</ele><time>2026-03-29T08:20:56.574Z</time></trkpt><trkpt lat="43.782765" lon="12.2488167"><ele>832.6666666666666</ele><time>2026-03-29T08:20:57.574Z</time></trkpt><trkpt lat="43.7826367" lon="12.24903"><ele>833.3333333333333</ele><time>2026-03-29T08:20:58.574Z</time></trkpt><trkpt lat="43.78251" lon="12.2492217"><ele>834.0</ele><time>2026-03-29T08:20:59.573Z</time></trkpt><trkpt lat="43.7823817" lon="12.2493817"><ele>834.0</ele><time>2026-03-29T08:21:00.573Z</time></trkpt><trkpt lat="43.78226" lon="12.2495233"><ele>834.0</ele><time>2026-03-29T08:21:01.574Z</time></trkpt><trkpt lat="43.782145" lon="12.249665"><ele>834.0</ele><time>2026-03-29T08:21:02.573Z</time></trkpt><trkpt lat="43.7820517" lon="12.24982"><ele>837.0</ele><time>2026-03-29T08:21:03.573Z</time></trkpt><trkpt lat="43.781985" lon="12.24999"><ele>840.0</ele><time>2026-03-29T08:21:04.574Z</time></trkpt><trkpt lat="43.7819317" lon="12.25021"><ele>843.0</ele><time>2026-03-29T08:21:05.574Z</time></trkpt><trkpt lat="43.7818883" lon="12.25045"><ele>840.0</ele><time>2026-03-29T08:21:06.573Z</time></trkpt><trkpt lat="43.7818367" lon="12.2506917"><ele>837.0</ele><time>2026-03-29T08:21:07.573Z</time></trkpt><trkpt lat="43.7817733" lon="12.250925"><ele>834.0</ele><time>2026-03-29T08:21:08.574Z</time></trkpt><trkpt lat="43.7817033" lon="12.2511333"><ele>834.0</ele><time>2026-03-29T08:21:09.573Z</time></trkpt><trkpt lat="43.7816317" lon="12.251345"><ele>834.0</ele><time>2026-03-29T08:21:10.574Z</time></trkpt><trkpt lat="43.7815617" lon="12.251555"><ele>834.0</ele><time>2026-03-29T08:21:11.574Z</time></trkpt><trkpt lat="43.7815133" lon="12.2517583"><ele>835.3333333333333</ele><time>2026-03-29T08:21:12.574Z</time></trkpt><trkpt lat="43.781485" lon="12.251965"><ele>836.6666666666666</ele><time>2026-03-29T08:21:13.574Z</time></trkpt><trkpt lat="43.7814817" lon="12.2521767"><ele>838.0</ele><time>2026-03-29T08:21:14.574Z</time></trkpt><trkpt lat="43.7814967" lon="12.252395"><ele>838.0</ele><time>2026-03-29T08:21:15.574Z</time></trkpt><trkpt lat="43.7815183" lon="12.2525817"><ele>838.0</ele><time>2026-03-29T08:21:16.574Z</time></trkpt><trkpt lat="43.7815267" lon="12.252765"><ele>838.0</ele><time>2026-03-29T08:21:17.574Z</time></trkpt><trkpt lat="43.7815067" lon="12.2529483"><ele>838.0</ele><time>2026-03-29T08:21:18.574Z</time></trkpt><trkpt lat="43.7814583" lon="12.2531367"><ele>838.6666666666666</ele><time>2026-03-29T08:21:19.574Z</time></trkpt><trkpt lat="43.7813883" lon="12.2533183"><ele>839.3333333333333</ele><time>2026-03-29T08:21:20.574Z</time></trkpt><trkpt lat="43.7812933" lon="12.2535067"><ele>840.0</ele><time>2026-03-29T08:21:21.574Z</time></trkpt><trkpt lat="43.7811817" lon="12.2537067"><ele>840.0</ele><time>2026-03-29T08:21:22.574Z</time></trkpt><trkpt lat="43.7810633" lon="12.25392"><ele>840.0</ele><time>2026-03-29T08:21:23.573Z</time></trkpt><trkpt lat="43.78094" lon="12.2541483"><ele>840.0</ele><time>2026-03-29T08:21:24.573Z</time></trkpt><trkpt lat="43.78082" lon="12.2543817"><ele>838.0</ele><time>2026-03-29T08:21:25.573Z</time></trkpt><trkpt lat="43.7807017" lon="12.254595"><ele>836.0</ele><time>2026-03-29T08:21:26.574Z</time></trkpt><trkpt lat="43.7806017" lon="12.2548167"><ele>834.0</ele><time>2026-03-29T08:21:27.574Z</time></trkpt><trkpt lat="43.7805017" lon="12.2550367"><ele>834.0</ele><time>2026-03-29T08:21:28.574Z</time></trkpt><trkpt lat="43.7803867" lon="12.2552467"><ele>834.0</ele><time>2026-03-29T08:21:29.574Z</time></trkpt><trkpt lat="43.7802683" lon="12.25545"><ele>834.0</ele><time>2026-03-29T08:21:30.574Z</time></trkpt><trkpt lat="43.78014" lon="12.255635"><ele>831.0</ele><time>2026-03-29T08:21:31.573Z</time></trkpt><trkpt lat="43.7800017" lon="12.2558083"><ele>828.0</ele><time>2026-03-29T08:21:32.573Z</time></trkpt><trkpt lat="43.7798717" lon="12.2559667"><ele>825.0</ele><time>2026-03-29T08:21:33.574Z</time></trkpt><trkpt lat="43.7797433" lon="12.25612"><ele>825.0</ele><time>2026-03-29T08:21:34.574Z</time></trkpt><trkpt lat="43.7796333" lon="12.25627"><ele>825.0</ele><time>2026-03-29T08:21:35.574Z</time></trkpt><trkpt lat="43.7795283" lon="12.256405"><ele>825.0</ele><time>2026-03-29T08:21:36.574Z</time></trkpt><trkpt lat="43.7794117" lon="12.2565333"><ele>825.0</ele><time>2026-03-29T08:21:37.574Z</time></trkpt><trkpt lat="43.779275" lon="12.2566633"><ele>824.3333333333333</ele><time>2026-03-29T08:21:38.573Z</time></trkpt><trkpt lat="43.7791183" lon="12.2567983"><ele>823.6666666666666</ele><time>2026-03-29T08:21:39.574Z</time></trkpt><trkpt lat="43.7789483" lon="12.2569433"><ele>823.0</ele><time>2026-03-29T08:21:40.573Z</time></trkpt><trkpt lat="43.7787733" lon="12.2570883"><ele>823.0</ele><time>2026-03-29T08:21:41.573Z</time></trkpt><trkpt lat="43.7785933" lon="12.2572283"><ele>823.0</ele><time>2026-03-29T08:21:42.574Z</time></trkpt><trkpt lat="43.7784117" lon="12.2573583"><ele>823.0</ele><time>2026-03-29T08:21:43.574Z</time></trkpt><trkpt lat="43.7782367" lon="12.257495"><ele>820.6666666666666</ele><time>2026-03-29T08:21:44.573Z</time></trkpt><trkpt lat="43.77807" lon="12.2576183"><ele>818.3333333333333</ele><time>2026-03-29T08:21:45.574Z</time></trkpt><trkpt lat="43.7779067" lon="12.25774"><ele>816.0</ele><time>2026-03-29T08:21:46.573Z</time></trkpt><trkpt lat="43.7777583" lon="12.2578517"><ele>816.0</ele><time>2026-03-29T08:21:47.574Z</time></trkpt><trkpt lat="43.7776167" lon="12.2579617"><ele>816.0</ele><time>2026-03-29T08:21:48.573Z</time></trkpt><trkpt lat="43.7774817" lon="12.2580567"><ele>816.0</ele><time>2026-03-29T08:21:49.574Z</time></trkpt><trkpt lat="43.7773617" lon="12.2581767"><ele>816.0</ele><time>2026-03-29T08:21:50.574Z</time></trkpt><trkpt lat="43.777265" lon="12.258305"><ele>816.0</ele><time>2026-03-29T08:21:51.574Z</time></trkpt><trkpt lat="43.7771917" lon="12.2584633"><ele>816.0</ele><time>2026-03-29T08:21:52.574Z</time></trkpt><trkpt lat="43.7771333" lon="12.2586517"><ele>816.0</ele><time>2026-03-29T08:21:53.574Z</time></trkpt><trkpt lat="43.7770817" lon="12.2588767"><ele>818.0</ele><time>2026-03-29T08:21:54.574Z</time></trkpt><trkpt lat="43.7770317" lon="12.259085"><ele>820.0</ele><time>2026-03-29T08:21:55.574Z</time></trkpt><trkpt lat="43.7769917" lon="12.2592717"><ele>822.0</ele><time>2026-03-29T08:21:56.574Z</time></trkpt><trkpt lat="43.7769317" lon="12.2594133"><ele>824.0</ele><time>2026-03-29T08:21:57.574Z</time></trkpt><trkpt lat="43.7768567" lon="12.2595367"><ele>822.5</ele><time>2026-03-29T08:21:58.574Z</time></trkpt><trkpt lat="43.7767567" lon="12.2596367"><ele>821.0</ele><time>2026-03-29T08:21:59.574Z</time></trkpt><trkpt lat="43.7766267" lon="12.2596967"><ele>819.5</ele><time>2026-03-29T08:22:00.574Z</time></trkpt><trkpt lat="43.7764817" lon="12.259745"><ele>818.0</ele><time>2026-03-29T08:22:01.574Z</time></trkpt><trkpt lat="43.77633" lon="12.2597867"><ele>818.0</ele><time>2026-03-29T08:22:02.574Z</time></trkpt><trkpt lat="43.776175" lon="12.2598333"><ele>818.0</ele><time>2026-03-29T08:22:03.574Z</time></trkpt><trkpt lat="43.7760283" lon="12.2598717"><ele>818.0</ele><time>2026-03-29T08:22:04.574Z</time></trkpt><trkpt lat="43.7758933" lon="12.25991"><ele>818.0</ele><time>2026-03-29T08:22:05.574Z</time></trkpt><trkpt lat="43.7757567" lon="12.2599433"><ele>818.0</ele><time>2026-03-29T08:22:06.574Z</time></trkpt><trkpt lat="43.7756183" lon="12.2599567"><ele>818.0</ele><time>2026-03-29T08:22:07.574Z</time></trkpt><trkpt lat="43.7754733" lon="12.2599367"><ele>818.0</ele><time>2026-03-29T08:22:08.574Z</time></trkpt><trkpt lat="43.775325" lon="12.25988"><ele>818.0</ele><time>2026-03-29T08:22:09.573Z</time></trkpt><trkpt lat="43.775165" lon="12.2598083"><ele>814.3333333333334</ele><time>2026-03-29T08:22:10.574Z</time></trkpt><trkpt lat="43.775005" lon="12.259745"><ele>810.6666666666667</ele><time>2026-03-29T08:22:11.574Z</time></trkpt><trkpt lat="43.774845" lon="12.2596933"><ele>807.0</ele><time>2026-03-29T08:22:12.574Z</time></trkpt><trkpt lat="43.7746933" lon="12.2596467"><ele>807.0</ele><time>2026-03-29T08:22:13.574Z</time></trkpt><trkpt lat="43.7745333" lon="12.2595883"><ele>807.0</ele><time>2026-03-29T08:22:14.574Z</time></trkpt><trkpt lat="43.7743617" lon="12.2595217"><ele>807.0</ele><time>2026-03-29T08:22:15.574Z</time></trkpt><trkpt lat="43.774185" lon="12.2594433"><ele>808.6666666666667</ele><time>2026-03-29T08:22:16.574Z</time></trkpt><trkpt lat="43.7739967" lon="12.2593683"><ele>810.3333333333334</ele><time>2026-03-29T08:22:17.573Z</time></trkpt><trkpt lat="43.7738017" lon="12.259275"><ele>812.0</ele><time>2026-03-29T08:22:18.573Z</time></trkpt><trkpt lat="43.773605" lon="12.25918"><ele>811.6666666666667</ele><time>2026-03-29T08:22:19.574Z</time></trkpt><trkpt lat="43.7734217" lon="12.2590933"><ele>811.3333333333333</ele><time>2026-03-29T08:22:20.574Z</time></trkpt><trkpt lat="43.7732517" lon="12.2590183"><ele>811.0</ele><time>2026-03-29T08:22:21.573Z</time></trkpt><trkpt lat="43.7730883" lon="12.2589417"><ele>811.0</ele><time>2026-03-29T08:22:22.574Z</time></trkpt><trkpt lat="43.7729467" lon="12.25886"><ele>811.0</ele><time>2026-03-29T08:22:23.574Z</time></trkpt><trkpt lat="43.77282" lon="12.25878"><ele>811.0</ele><time>2026-03-29T08:22:24.573Z</time></trkpt><trkpt lat="43.772705" lon="12.2586717"><ele>811.0</ele><time>2026-03-29T08:22:25.574Z</time></trkpt><trkpt lat="43.7725817" lon="12.2585317"><ele>811.3333333333333</ele><time>2026-03-29T08:22:26.573Z</time></trkpt><trkpt lat="43.7724667" lon="12.2583733"><ele>811.6666666666667</ele><time>2026-03-29T08:22:27.574Z</time></trkpt><trkpt lat="43.7723617" lon="12.258225"><ele>812.0</ele><time>2026-03-29T08:22:28.574Z</time></trkpt><trkpt lat="43.7722383" lon="12.258085"><ele>812.0</ele><time>2026-03-29T08:22:29.573Z</time></trkpt><trkpt lat="43.7720867" lon="12.25796"><ele>812.0</ele><time>2026-03-29T08:22:30.573Z</time></trkpt><trkpt lat="43.771915" lon="12.2578667"><ele>812.0</ele><time>2026-03-29T08:22:31.573Z</time></trkpt><trkpt lat="43.771755" lon="12.25778"><ele>814.0</ele><time>2026-03-29T08:22:32.574Z</time></trkpt><trkpt lat="43.7716233" lon="12.2577083"><ele>816.0</ele><time>2026-03-29T08:22:33.574Z</time></trkpt><trkpt lat="43.7715067" lon="12.2576617"><ele>818.0</ele><time>2026-03-29T08:22:34.574Z</time></trkpt><trkpt lat="43.77138" lon="12.2576517"><ele>820.0</ele><time>2026-03-29T08:22:35.574Z</time></trkpt><trkpt lat="43.7712517" lon="12.2576617"><ele>820.0</ele><time>2026-03-29T08:22:36.574Z</time></trkpt><trkpt lat="43.7711333" lon="12.2576483"><ele>820.0</ele><time>2026-03-29T08:22:37.574Z</time></trkpt><trkpt lat="43.7710017" lon="12.2575933"><ele>820.0</ele><time>2026-03-29T08:22:38.573Z</time></trkpt><trkpt lat="43.770865" lon="12.2575133"><ele>820.0</ele><time>2026-03-29T08:22:39.574Z</time></trkpt><trkpt lat="43.7707267" lon="12.2574167"><ele>819.0</ele><time>2026-03-29T08:22:40.574Z</time></trkpt><trkpt lat="43.770605" lon="12.2573267"><ele>818.0</ele><time>2026-03-29T08:22:41.574Z</time></trkpt><trkpt lat="43.7704967" lon="12.2572067"><ele>817.0</ele><time>2026-03-29T08:22:42.574Z</time></trkpt><trkpt lat="43.7703967" lon="12.257045"><ele>816.0</ele><time>2026-03-29T08:22:43.574Z</time></trkpt><trkpt lat="43.77031" lon="12.25686"><ele>816.0</ele><time>2026-03-29T08:22:44.573Z</time></trkpt><trkpt lat="43.770235" lon="12.2566583"><ele>816.0</ele><time>2026-03-29T08:22:45.573Z</time></trkpt><trkpt lat="43.7701867" lon="12.2564267"><ele>816.0</ele><time>2026-03-29T08:22:46.573Z</time></trkpt><trkpt lat="43.7701517" lon="12.256185"><ele>818.0</ele><time>2026-03-29T08:22:47.574Z</time></trkpt><trkpt lat="43.7701417" lon="12.25595"><ele>820.0</ele><time>2026-03-29T08:22:48.574Z</time></trkpt><trkpt lat="43.7701183" lon="12.255735"><ele>822.0</ele><time>2026-03-29T08:22:49.574Z</time></trkpt><trkpt lat="43.77007" lon="12.2555183"><ele>822.0</ele><time>2026-03-29T08:22:50.573Z</time></trkpt><trkpt lat="43.7699833" lon="12.2552867"><ele>822.0</ele><time>2026-03-29T08:22:51.573Z</time></trkpt><trkpt lat="43.7698867" lon="12.25506"><ele>822.0</ele><time>2026-03-29T08:22:52.574Z</time></trkpt><trkpt lat="43.769775" lon="12.254855"><ele>819.75</ele><time>2026-03-29T08:22:53.574Z</time></trkpt><trkpt lat="43.769665" lon="12.2546833"><ele>817.5</ele><time>2026-03-29T08:22:54.574Z</time></trkpt><trkpt lat="43.769575" lon="12.2545317"><ele>815.25</ele><time>2026-03-29T08:22:55.573Z</time></trkpt><trkpt lat="43.76948" lon="12.2544"><ele>813.0</ele><time>2026-03-29T08:22:56.574Z</time></trkpt><trkpt lat="43.7693617" lon="12.2542917"><ele>814.0</ele><time>2026-03-29T08:22:57.574Z</time></trkpt><trkpt lat="43.7692267" lon="12.2542283"><ele>815.0</ele><time>2026-03-29T08:22:58.573Z</time></trkpt><trkpt lat="43.76906" lon="12.2541983"><ele>816.0</ele><time>2026-03-29T08:22:59.574Z</time></trkpt><trkpt lat="43.768885" lon="12.2542183"><ele>816.0</ele><time>2026-03-29T08:23:00.574Z</time></trkpt><trkpt lat="43.7687183" lon="12.2542567"><ele>816.0</ele><time>2026-03-29T08:23:01.574Z</time></trkpt><trkpt lat="43.7685533" lon="12.2543083"><ele>816.0</ele><time>2026-03-29T08:23:02.574Z</time></trkpt><trkpt lat="43.7683583" lon="12.25432"><ele>815.3333333333333</ele><time>2026-03-29T08:23:03.573Z</time></trkpt><trkpt lat="43.7681533" lon="12.2543067"><ele>814.6666666666666</ele><time>2026-03-29T08:23:04.573Z</time></trkpt><trkpt lat="43.7679567" lon="12.254285"><ele>814.0</ele><time>2026-03-29T08:23:05.574Z</time></trkpt><trkpt lat="43.7677817" lon="12.2542667"><ele>813.3333333333333</ele><time>2026-03-29T08:23:06.574Z</time></trkpt><trkpt lat="43.767615" lon="12.2542633"><ele>812.6666666666667</ele><time>2026-03-29T08:23:07.574Z</time></trkpt><trkpt lat="43.76746" lon="12.2542883"><ele>812.0</ele><time>2026-03-29T08:23:08.573Z</time></trkpt><trkpt lat="43.767325" lon="12.254325"><ele>812.0</ele><time>2026-03-29T08:23:09.574Z</time></trkpt><trkpt lat="43.7672167" lon="12.2543317"><ele>812.0</ele><time>2026-03-29T08:23:10.573Z</time></trkpt><trkpt lat="43.7671217" lon="12.2543067"><ele>812.0</ele><time>2026-03-29T08:23:11.574Z</time></trkpt><trkpt lat="43.76705" lon="12.2542367"><ele>812.0</ele><time>2026-03-29T08:23:12.574Z</time></trkpt><trkpt lat="43.7669967" lon="12.25413"><ele>812.0</ele><time>2026-03-29T08:23:13.574Z</time></trkpt><trkpt lat="43.7669767" lon="12.2539717"><ele>809.0</ele><time>2026-03-29T08:23:14.574Z</time></trkpt><trkpt lat="43.766985" lon="12.2537717"><ele>806.0</ele><time>2026-03-29T08:23:15.574Z</time></trkpt><trkpt lat="43.767" lon="12.25356"><ele>803.0</ele><time>2026-03-29T08:23:16.574Z</time></trkpt><trkpt lat="43.7670067" lon="12.2533467"><ele>803.0</ele><time>2026-03-29T08:23:17.574Z</time></trkpt><trkpt lat="43.766985" lon="12.2531233"><ele>803.0</ele><time>2026-03-29T08:23:18.574Z</time></trkpt><trkpt lat="43.76694" lon="12.2528667"><ele>803.0</ele><time>2026-03-29T08:23:19.573Z</time></trkpt><trkpt lat="43.76688" lon="12.2526017"><ele>805.3333333333334</ele><time>2026-03-29T08:23:20.574Z</time></trkpt><trkpt lat="43.7668217" lon="12.25235"><ele>807.6666666666667</ele><time>2026-03-29T08:23:21.574Z</time></trkpt><trkpt lat="43.76679" lon="12.2521133"><ele>810.0</ele><time>2026-03-29T08:23:22.574Z</time></trkpt><trkpt lat="43.7667767" lon="12.2518833"><ele>810.0</ele><time>2026-03-29T08:23:23.574Z</time></trkpt><trkpt lat="43.7667667" lon="12.2516567"><ele>810.0</ele><time>2026-03-29T08:23:24.574Z</time></trkpt><trkpt lat="43.7667433" lon="12.2514383"><ele>810.0</ele><time>2026-03-29T08:23:25.574Z</time></trkpt><trkpt lat="43.7666983" lon="12.251215"><ele>809.0</ele><time>2026-03-29T08:23:26.574Z</time></trkpt><trkpt lat="43.7666333" lon="12.2509917"><ele>808.0</ele><time>2026-03-29T08:23:27.574Z</time></trkpt><trkpt lat="43.7665417" lon="12.2507633"><ele>807.0</ele><time>2026-03-29T08:23:28.573Z</time></trkpt><trkpt lat="43.76644" lon="12.250555"><ele>806.75</ele><time>2026-03-29T08:23:29.574Z</time></trkpt><trkpt lat="43.766345" lon="12.2503717"><ele>806.5</ele><time>2026-03-29T08:23:30.574Z</time></trkpt><trkpt lat="43.7662717" lon="12.25021"><ele>806.25</ele><time>2026-03-29T08:23:31.574Z</time></trkpt><trkpt lat="43.7662067" lon="12.2500733"><ele>806.0</ele><time>2026-03-29T08:23:32.574Z</time></trkpt><trkpt lat="43.7661617" lon="12.2499383"><ele>806.5</ele><time>2026-03-29T08:23:33.574Z</time></trkpt><trkpt lat="43.7661367" lon="12.2497867"><ele>807.0</ele><time>2026-03-29T08:23:34.574Z</time></trkpt><trkpt lat="43.7661517" lon="12.2496283"><ele>807.5</ele><time>2026-03-29T08:23:35.573Z</time></trkpt><trkpt lat="43.7662033" lon="12.2494667"><ele>808.0</ele><time>2026-03-29T08:23:36.574Z</time></trkpt><trkpt lat="43.7663067" lon="12.2493183"><ele>808.0</ele><time>2026-03-29T08:23:37.574Z</time></trkpt><trkpt lat="43.7664367" lon="12.2491767"><ele>808.0</ele><time>2026-03-29T08:23:38.574Z</time></trkpt><trkpt lat="43.7665917" lon="12.24901"><ele>808.0</ele><time>2026-03-29T08:23:39.574Z</time></trkpt><trkpt lat="43.7667633" lon="12.2488367"><ele>808.0</ele><time>2026-03-29T08:23:40.574Z</time></trkpt><trkpt lat="43.766935" lon="12.248675"><ele>808.0</ele><time>2026-03-29T08:23:41.575Z</time></trkpt><trkpt lat="43.7670933" lon="12.2485367"><ele>808.0</ele><time>2026-03-29T08:23:42.575Z</time></trkpt><trkpt lat="43.76722" lon="12.2484117"><ele>808.0</ele><time>2026-03-29T08:23:43.575Z</time></trkpt><trkpt lat="43.7673183" lon="12.2482783"><ele>808.0</ele><time>2026-03-29T08:23:44.575Z</time></trkpt><trkpt lat="43.7674017" lon="12.2481133"><ele>808.0</ele><time>2026-03-29T08:23:45.575Z</time></trkpt><trkpt lat="43.7674783" lon="12.2479017"><ele>810.3333333333333</ele><time>2026-03-29T08:23:46.574Z</time></trkpt><trkpt lat="43.7675533" lon="12.24765"><ele>812.6666666666667</ele><time>2026-03-29T08:23:47.574Z</time></trkpt><trkpt lat="43.76761" lon="12.247395"><ele>815.0</ele><time>2026-03-29T08:23:48.575Z</time></trkpt><trkpt lat="43.7676667" lon="12.2471617"><ele>811.3333333333334</ele><time>2026-03-29T08:23:49.575Z</time></trkpt><trkpt lat="43.7677183" lon="12.24695"><ele>807.6666666666667</ele><time>2026-03-29T08:23:50.575Z</time></trkpt><trkpt lat="43.7677733" lon="12.246755"><ele>804.0</ele><time>2026-03-29T08:23:51.575Z</time></trkpt><trkpt lat="43.767825" lon="12.2465733"><ele>806.25</ele><time>2026-03-29T08:23:52.575Z</time></trkpt><trkpt lat="43.7678683" lon="12.2464133"><ele>808.5</ele><time>2026-03-29T08:23:53.575Z</time></trkpt><trkpt lat="43.7678867" lon="12.24624"><ele>810.75</ele><time>2026-03-29T08:23:54.575Z</time></trkpt><trkpt lat="43.7678817" lon="12.24606"><ele>813.0</ele><time>2026-03-29T08:23:55.575Z</time></trkpt><trkpt lat="43.7678567" lon="12.2458667"><ele>813.0</ele><time>2026-03-29T08:23:56.575Z</time></trkpt><trkpt lat="43.767825" lon="12.245665"><ele>813.0</ele><time>2026-03-29T08:23:57.575Z</time></trkpt><trkpt lat="43.7677933" lon="12.2454483"><ele>813.0</ele><time>2026-03-29T08:23:58.574Z</time></trkpt><trkpt lat="43.7677583" lon="12.2452067"><ele>812.0</ele><time>2026-03-29T08:23:59.574Z</time></trkpt><trkpt lat="43.7677283" lon="12.2449583"><ele>811.0</ele><time>2026-03-29T08:24:00.574Z</time></trkpt><trkpt lat="43.7677017" lon="12.24472"><ele>810.0</ele><time>2026-03-29T08:24:01.574Z</time></trkpt><trkpt lat="43.76768" lon="12.2445017"><ele>810.0</ele><time>2026-03-29T08:24:02.575Z</time></trkpt><trkpt lat="43.7676533" lon="12.2442983"><ele>810.0</ele><time>2026-03-29T08:24:03.574Z</time></trkpt><trkpt lat="43.7676067" lon="12.2441117"><ele>810.0</ele><time>2026-03-29T08:24:04.575Z</time></trkpt><trkpt lat="43.7675317" lon="12.2439433"><ele>810.0</ele><time>2026-03-29T08:24:05.575Z</time></trkpt><trkpt lat="43.7674283" lon="12.2437967"><ele>810.0</ele><time>2026-03-29T08:24:06.575Z</time></trkpt><trkpt lat="43.7672867" lon="12.2436517"><ele>810.0</ele><time>2026-03-29T08:24:07.574Z</time></trkpt><trkpt lat="43.767125" lon="12.2435"><ele>810.0</ele><time>2026-03-29T08:24:08.575Z</time></trkpt><trkpt lat="43.766955" lon="12.2433367"><ele>809.6666666666667</ele><time>2026-03-29T08:24:09.574Z</time></trkpt><trkpt lat="43.7667767" lon="12.2431683"><ele>809.3333333333334</ele><time>2026-03-29T08:24:10.574Z</time></trkpt><trkpt lat="43.7666017" lon="12.24301"><ele>809.0</ele><time>2026-03-29T08:24:11.575Z</time></trkpt><trkpt lat="43.7664483" lon="12.242865"><ele>809.0</ele><time>2026-03-29T08:24:12.575Z</time></trkpt><trkpt lat="43.7663033" lon="12.24273"><ele>809.0</ele><time>2026-03-29T08:24:13.575Z</time></trkpt><trkpt lat="43.7661717" lon="12.24258"><ele>809.0</ele><time>2026-03-29T08:24:14.574Z</time></trkpt><trkpt lat="43.76608" lon="12.2424217"><ele>814.3333333333334</ele><time>2026-03-29T08:24:15.575Z</time></trkpt><trkpt lat="43.766005" lon="12.2422583"><ele>819.6666666666667</ele><time>2026-03-29T08:24:16.574Z</time></trkpt><trkpt lat="43.765975" lon="12.2420667"><ele>825.0</ele><time>2026-03-29T08:24:17.574Z</time></trkpt><trkpt lat="43.7659433" lon="12.2418233"><ele>825.0</ele><time>2026-03-29T08:24:18.575Z</time></trkpt><trkpt lat="43.76593" lon="12.2415467"><ele>825.0</ele><time>2026-03-29T08:24:19.575Z</time></trkpt><trkpt lat="43.765915" lon="12.2412867"><ele>825.0</ele><time>2026-03-29T08:24:20.575Z</time></trkpt><trkpt lat="43.7658933" lon="12.2410667"><ele>823.75</ele><time>2026-03-29T08:24:21.575Z</time></trkpt><trkpt lat="43.7658733" lon="12.2408783"><ele>822.5</ele><time>2026-03-29T08:24:22.575Z</time></trkpt><trkpt lat="43.76582" lon="12.2407133"><ele>821.25</ele><time>2026-03-29T08:24:23.575Z</time></trkpt><trkpt lat="43.7657483" lon="12.2405483"><ele>820.0</ele><time>2026-03-29T08:24:24.575Z</time></trkpt><trkpt lat="43.765655" lon="12.24039"><ele>817.75</ele><time>2026-03-29T08:24:25.575Z</time></trkpt><trkpt lat="43.765575" lon="12.2402533"><ele>815.5</ele><time>2026-03-29T08:24:26.574Z</time></trkpt><trkpt lat="43.7655183" lon="12.2401317"><ele>813.25</ele><time>2026-03-29T08:24:27.574Z</time></trkpt><trkpt lat="43.7654917" lon="12.2399817"><ele>811.0</ele><time>2026-03-29T08:24:28.575Z</time></trkpt><trkpt lat="43.7654933" lon="12.2398083"><ele>809.0</ele><time>2026-03-29T08:24:29.575Z</time></trkpt><trkpt lat="43.765515" lon="12.2396367"><ele>807.0</ele><time>2026-03-29T08:24:30.574Z</time></trkpt><trkpt lat="43.7655117" lon="12.23948"><ele>805.0</ele><time>2026-03-29T08:24:31.575Z</time></trkpt><trkpt lat="43.765495" lon="12.2393317"><ele>803.0</ele><time>2026-03-29T08:24:32.575Z</time></trkpt><trkpt lat="43.7654433" lon="12.239195"><ele>803.0</ele><time>2026-03-29T08:24:33.575Z</time></trkpt><trkpt lat="43.7653667" lon="12.239095"><ele>803.0</ele><time>2026-03-29T08:24:34.575Z</time></trkpt><trkpt lat="43.765245" lon="12.2390133"><ele>803.0</ele><time>2026-03-29T08:24:35.575Z</time></trkpt><trkpt lat="43.765105" lon="12.2389783"><ele>803.0</ele><time>2026-03-29T08:24:36.574Z</time></trkpt><trkpt lat="43.7649633" lon="12.2389533"><ele>806.0</ele><time>2026-03-29T08:24:37.575Z</time></trkpt><trkpt lat="43.7648517" lon="12.2389"><ele>809.0</ele><time>2026-03-29T08:24:38.575Z</time></trkpt><trkpt lat="43.7647483" lon="12.2388217"><ele>812.0</ele><time>2026-03-29T08:24:39.574Z</time></trkpt><trkpt lat="43.7646683" lon="12.23871"><ele>815.0</ele><time>2026-03-29T08:24:40.575Z</time></trkpt><trkpt lat="43.7646133" lon="12.2385517"><ele>815.0</ele><time>2026-03-29T08:24:41.575Z</time></trkpt><trkpt lat="43.7645783" lon="12.2383617"><ele>815.0</ele><time>2026-03-29T08:24:42.574Z</time></trkpt><trkpt lat="43.7645583" lon="12.23816"><ele>815.0</ele><time>2026-03-29T08:24:43.575Z</time></trkpt><trkpt lat="43.76452" lon="12.2379733"><ele>815.0</ele><time>2026-03-29T08:24:44.575Z</time></trkpt><trkpt lat="43.76446" lon="12.23779"><ele>815.6666666666667</ele><time>2026-03-29T08:24:45.575Z</time></trkpt><trkpt lat="43.7643617" lon="12.2376083"><ele>816.3333333333333</ele><time>2026-03-29T08:24:46.574Z</time></trkpt><trkpt lat="43.76424" lon="12.2374217"><ele>817.0</ele><time>2026-03-29T08:24:47.575Z</time></trkpt><trkpt lat="43.7641133" lon="12.23725"><ele>817.0</ele><time>2026-03-29T08:24:48.574Z</time></trkpt><trkpt lat="43.7640083" lon="12.2370833"><ele>817.0</ele><time>2026-03-29T08:24:49.575Z</time></trkpt><trkpt lat="43.7639217" lon="12.2369567"><ele>817.0</ele><time>2026-03-29T08:24:50.574Z</time></trkpt><trkpt lat="43.7638367" lon="12.2368533"><ele>817.0</ele><time>2026-03-29T08:24:51.574Z</time></trkpt><trkpt lat="43.7637733" lon="12.2367783"><ele>817.0</ele><time>2026-03-29T08:24:52.575Z</time></trkpt><trkpt lat="43.7637183" lon="12.236655"><ele>817.0</ele><time>2026-03-29T08:24:54.575Z</time></trkpt><trkpt lat="43.7637333" lon="12.2365633"><ele>817.0</ele><time>2026-03-29T08:24:55.575Z</time></trkpt><trkpt lat="43.7637783" lon="12.2364567"><ele>817.0</ele><time>2026-03-29T08:24:56.575Z</time></trkpt><trkpt lat="43.763855" lon="12.2363283"><ele>817.0</ele><time>2026-03-29T08:24:57.575Z</time></trkpt><trkpt lat="43.763945" lon="12.23618"><ele>816.0</ele><time>2026-03-29T08:24:58.574Z</time></trkpt><trkpt lat="43.7640283" lon="12.2360433"><ele>815.0</ele><time>2026-03-29T08:24:59.575Z</time></trkpt><trkpt lat="43.7641017" lon="12.235935"><ele>814.0</ele><time>2026-03-29T08:25:00.575Z</time></trkpt><trkpt lat="43.7641733" lon="12.2358483"><ele>813.0</ele><time>2026-03-29T08:25:01.574Z</time></trkpt><trkpt lat="43.7642367" lon="12.2357917"><ele>812.0</ele><time>2026-03-29T08:25:02.575Z</time></trkpt><trkpt lat="43.764315" lon="12.2357933"><ele>810.5</ele><time>2026-03-29T08:25:03.574Z</time></trkpt><trkpt lat="43.7643983" lon="12.235845"><ele>809.0</ele><time>2026-03-29T08:25:04.575Z</time></trkpt><trkpt lat="43.7644833" lon="12.235955"><ele>807.5</ele><time>2026-03-29T08:25:05.575Z</time></trkpt><trkpt lat="43.7645683" lon="12.2361183"><ele>806.0</ele><time>2026-03-29T08:25:06.574Z</time></trkpt><trkpt lat="43.7646383" lon="12.2363117"><ele>805.5999999999999</ele><time>2026-03-29T08:25:07.575Z</time></trkpt><trkpt lat="43.7646967" lon="12.2365"><ele>805.2</ele><time>2026-03-29T08:25:08.575Z</time></trkpt><trkpt lat="43.764735" lon="12.2366567"><ele>804.8</ele><time>2026-03-29T08:25:09.575Z</time></trkpt><trkpt lat="43.764755" lon="12.2367917"><ele>804.4000000000001</ele><time>2026-03-29T08:25:10.574Z</time></trkpt><trkpt lat="43.7647733" lon="12.2368933"><ele>804.0</ele><time>2026-03-29T08:25:11.575Z</time></trkpt><trkpt lat="43.764805" lon="12.2369717"><ele>804.0</ele><time>2026-03-29T08:25:12.575Z</time></trkpt><trkpt lat="43.7649017" lon="12.2370183"><ele>804.0</ele><time>2026-03-29T08:25:14.575Z</time></trkpt><trkpt lat="43.7649533" lon="12.2369683"><ele>804.0</ele><time>2026-03-29T08:25:15.575Z</time></trkpt><trkpt lat="43.7650083" lon="12.23687"><ele>804.0</ele><time>2026-03-29T08:25:16.574Z</time></trkpt><trkpt lat="43.7650733" lon="12.2368"><ele>804.0</ele><time>2026-03-29T08:25:17.575Z</time></trkpt><trkpt lat="43.76514" lon="12.2367817"><ele>804.0</ele><time>2026-03-29T08:25:18.574Z</time></trkpt><trkpt lat="43.7652167" lon="12.2368083"><ele>799.75</ele><time>2026-03-29T08:25:19.574Z</time></trkpt><trkpt lat="43.7652917" lon="12.2368833"><ele>795.5</ele><time>2026-03-29T08:25:20.575Z</time></trkpt><trkpt lat="43.7653883" lon="12.23699"><ele>791.25</ele><time>2026-03-29T08:25:21.575Z</time></trkpt><trkpt lat="43.7655017" lon="12.2370983"><ele>787.0</ele><time>2026-03-29T08:25:22.575Z</time></trkpt><trkpt lat="43.7656283" lon="12.2371567"><ele>787.0</ele><time>2026-03-29T08:25:23.575Z</time></trkpt><trkpt lat="43.7657683" lon="12.237175"><ele>787.0</ele><time>2026-03-29T08:25:24.574Z</time></trkpt><trkpt lat="43.7659117" lon="12.237135"><ele>787.0</ele><time>2026-03-29T08:25:25.575Z</time></trkpt><trkpt lat="43.7660717" lon="12.23707"><ele>782.6666666666666</ele><time>2026-03-29T08:25:26.575Z</time></trkpt><trkpt lat="43.7662183" lon="12.2370267"><ele>778.3333333333333</ele><time>2026-03-29T08:25:27.575Z</time></trkpt><trkpt lat="43.7663667" lon="12.2370017"><ele>774.0</ele><time>2026-03-29T08:25:28.575Z</time></trkpt><trkpt lat="43.7665133" lon="12.2369517"><ele>774.0</ele><time>2026-03-29T08:25:29.575Z</time></trkpt><trkpt lat="43.766655" lon="12.2368567"><ele>774.0</ele><time>2026-03-29T08:25:30.575Z</time></trkpt><trkpt lat="43.766785" lon="12.2367433"><ele>774.0</ele><time>2026-03-29T08:25:31.575Z</time></trkpt><trkpt lat="43.7669" lon="12.2366383"><ele>774.0</ele><time>2026-03-29T08:25:32.575Z</time></trkpt><trkpt lat="43.7670033" lon="12.23656"><ele>771.6</ele><time>2026-03-29T08:25:33.575Z</time></trkpt><trkpt lat="43.7670917" lon="12.2364917"><ele>769.2</ele><time>2026-03-29T08:25:34.574Z</time></trkpt><trkpt lat="43.7671817" lon="12.2364567"><ele>766.8000000000001</ele><time>2026-03-29T08:25:35.574Z</time></trkpt><trkpt lat="43.76729" lon="12.2364617"><ele>764.4000000000001</ele><time>2026-03-29T08:25:36.575Z</time></trkpt><trkpt lat="43.7674033" lon="12.2364917"><ele>762.0</ele><time>2026-03-29T08:25:37.575Z</time></trkpt><trkpt lat="43.7675" lon="12.2365267"><ele>762.0</ele><time>2026-03-29T08:25:38.574Z</time></trkpt><trkpt lat="43.7675767" lon="12.2365717"><ele>762.0</ele><time>2026-03-29T08:25:39.575Z</time></trkpt><trkpt lat="43.7676383" lon="12.2366367"><ele>762.0</ele><time>2026-03-29T08:25:40.575Z</time></trkpt><trkpt lat="43.7676767" lon="12.23673"><ele>762.0</ele><time>2026-03-29T08:25:41.575Z</time></trkpt><trkpt lat="43.7676783" lon="12.2368417"><ele>762.0</ele><time>2026-03-29T08:25:42.575Z</time></trkpt><trkpt lat="43.767655" lon="12.2369517"><ele>762.0</ele><time>2026-03-29T08:25:43.575Z</time></trkpt><trkpt lat="43.7675967" lon="12.2370567"><ele>762.0</ele><time>2026-03-29T08:25:44.575Z</time></trkpt><trkpt lat="43.7674967" lon="12.237175"><ele>762.0</ele><time>2026-03-29T08:25:45.574Z</time></trkpt><trkpt lat="43.7673733" lon="12.2373017"><ele>762.0</ele><time>2026-03-29T08:25:46.575Z</time></trkpt><trkpt lat="43.767265" lon="12.2374267"><ele>762.0</ele><time>2026-03-29T08:25:47.575Z</time></trkpt><trkpt lat="43.7671783" lon="12.2375317"><ele>759.0</ele><time>2026-03-29T08:25:48.575Z</time></trkpt><trkpt lat="43.7671183" lon="12.2376317"><ele>756.0</ele><time>2026-03-29T08:25:49.574Z</time></trkpt><trkpt lat="43.7670783" lon="12.23775"><ele>753.0</ele><time>2026-03-29T08:25:50.575Z</time></trkpt><trkpt lat="43.767075" lon="12.237885"><ele>750.0</ele><time>2026-03-29T08:25:51.574Z</time></trkpt><trkpt lat="43.7671233" lon="12.2380317"><ele>747.0</ele><time>2026-03-29T08:25:52.575Z</time></trkpt><trkpt lat="43.7672233" lon="12.2381783"><ele>743.0</ele><time>2026-03-29T08:25:53.574Z</time></trkpt><trkpt lat="43.7673467" lon="12.2383383"><ele>739.0</ele><time>2026-03-29T08:25:54.575Z</time></trkpt><trkpt lat="43.7674967" lon="12.2384917"><ele>735.0</ele><time>2026-03-29T08:25:55.575Z</time></trkpt><trkpt lat="43.767655" lon="12.2386317"><ele>725.0</ele><time>2026-03-29T08:25:56.575Z</time></trkpt><trkpt lat="43.7678283" lon="12.238745"><ele>715.0</ele><time>2026-03-29T08:25:57.575Z</time></trkpt><trkpt lat="43.7681617" lon="12.23886"><ele>712.5</ele><time>2026-03-29T08:25:59.341Z</time></trkpt><trkpt lat="43.7684267" lon="12.2390233"><ele>710.0</ele><time>2026-03-29T08:26:00.259Z</time></trkpt><trkpt lat="43.76864" lon="12.2392033"><ele>710.0</ele><time>2026-03-29T08:26:01.573Z</time></trkpt><trkpt lat="43.768795" lon="12.239255"><ele>710.0</ele><time>2026-03-29T08:26:02.573Z</time></trkpt><trkpt lat="43.7690033" lon="12.2393233"><ele>710.0</ele><time>2026-03-29T08:26:04.074Z</time></trkpt><trkpt lat="43.76919" lon="12.23937"><ele>710.0</ele><time>2026-03-29T08:26:05.574Z</time></trkpt><trkpt lat="43.76929" lon="12.2393917"><ele>710.0</ele><time>2026-03-29T08:26:06.574Z</time></trkpt><trkpt lat="43.7693933" lon="12.239425"><ele>710.0</ele><time>2026-03-29T08:26:07.574Z</time></trkpt><trkpt lat="43.7694983" lon="12.23949"><ele>710.0</ele><time>2026-03-29T08:26:08.574Z</time></trkpt><trkpt lat="43.76962" lon="12.2395767"><ele>707.75</ele><time>2026-03-29T08:26:09.574Z</time></trkpt><trkpt lat="43.769745" lon="12.239655"><ele>705.5</ele><time>2026-03-29T08:26:10.574Z</time></trkpt><trkpt lat="43.7698633" lon="12.2397333"><ele>703.25</ele><time>2026-03-29T08:26:11.574Z</time></trkpt><trkpt lat="43.7699683" lon="12.23983"><ele>701.0</ele><time>2026-03-29T08:26:12.574Z</time></trkpt><trkpt lat="43.77005" lon="12.23993"><ele>701.0</ele><time>2026-03-29T08:26:13.573Z</time></trkpt><trkpt lat="43.7701" lon="12.2400217"><ele>701.0</ele><time>2026-03-29T08:26:14.574Z</time></trkpt><trkpt lat="43.7701583" lon="12.24008"><ele>701.0</ele><time>2026-03-29T08:26:15.573Z</time></trkpt><trkpt lat="43.7702233" lon="12.2401033"><ele>701.0</ele><time>2026-03-29T08:26:16.574Z</time></trkpt><trkpt lat="43.770325" lon="12.2400517"><ele>701.0</ele><time>2026-03-29T08:26:18.574Z</time></trkpt><trkpt lat="43.7703583" lon="12.2399717"><ele>701.0</ele><time>2026-03-29T08:26:19.573Z</time></trkpt><trkpt lat="43.7703717" lon="12.2398483"><ele>695.0</ele><time>2026-03-29T08:26:20.574Z</time></trkpt><trkpt lat="43.7703617" lon="12.2396983"><ele>689.0</ele><time>2026-03-29T08:26:21.574Z</time></trkpt><trkpt lat="43.7703667" lon="12.2395533"><ele>683.0</ele><time>2026-03-29T08:26:22.574Z</time></trkpt><trkpt lat="43.7703967" lon="12.2394167"><ele>677.0</ele><time>2026-03-29T08:26:23.573Z</time></trkpt><trkpt lat="43.770465" lon="12.2393167"><ele>671.0</ele><time>2026-03-29T08:26:24.574Z</time></trkpt><trkpt lat="43.7705383" lon="12.2392567"><ele>671.0</ele><time>2026-03-29T08:26:25.574Z</time></trkpt><trkpt lat="43.77061" lon="12.23922"><ele>671.0</ele><time>2026-03-29T08:26:26.574Z</time></trkpt><trkpt lat="43.7707183" lon="12.2392433"><ele>671.0</ele><time>2026-03-29T08:26:28.574Z</time></trkpt><trkpt lat="43.770765" lon="12.239315"><ele>671.0</ele><time>2026-03-29T08:26:29.574Z</time></trkpt><trkpt lat="43.7708167" lon="12.2394267"><ele>671.0</ele><time>2026-03-29T08:26:30.574Z</time></trkpt><trkpt lat="43.77089" lon="12.2395683"><ele>671.0</ele><time>2026-03-29T08:26:31.573Z</time></trkpt><trkpt lat="43.771" lon="12.23974"><ele>671.0</ele><time>2026-03-29T08:26:32.573Z</time></trkpt><trkpt lat="43.7711517" lon="12.239945"><ele>671.0</ele><time>2026-03-29T08:26:33.574Z</time></trkpt><trkpt lat="43.771305" lon="12.2401567"><ele>667.3333333333333</ele><time>2026-03-29T08:26:34.574Z</time></trkpt><trkpt lat="43.7714567" lon="12.240345"><ele>663.6666666666666</ele><time>2026-03-29T08:26:35.574Z</time></trkpt><trkpt lat="43.77155" lon="12.2405083"><ele>660.0</ele><time>2026-03-29T08:26:36.574Z</time></trkpt><trkpt lat="43.7716183" lon="12.2406317"><ele>659.0</ele><time>2026-03-29T08:26:37.574Z</time></trkpt><trkpt lat="43.77168" lon="12.2407133"><ele>658.0</ele><time>2026-03-29T08:26:38.574Z</time></trkpt><trkpt lat="43.7717383" lon="12.240755"><ele>657.0</ele><time>2026-03-29T08:26:39.573Z</time></trkpt><trkpt lat="43.7718567" lon="12.2406567"><ele>656.0</ele><time>2026-03-29T08:26:41.574Z</time></trkpt><trkpt lat="43.771905" lon="12.2405467"><ele>655.0</ele><time>2026-03-29T08:26:42.574Z</time></trkpt><trkpt lat="43.7719417" lon="12.2403867"><ele>655.0</ele><time>2026-03-29T08:26:43.573Z</time></trkpt><trkpt lat="43.7720117" lon="12.2402267"><ele>655.0</ele><time>2026-03-29T08:26:44.574Z</time></trkpt><trkpt lat="43.7721017" lon="12.240075"><ele>655.0</ele><time>2026-03-29T08:26:45.574Z</time></trkpt><trkpt lat="43.772185" lon="12.239955"><ele>655.0</ele><time>2026-03-29T08:26:46.574Z</time></trkpt><trkpt lat="43.77227" lon="12.2398617"><ele>655.0</ele><time>2026-03-29T08:26:47.573Z</time></trkpt><trkpt lat="43.77236" lon="12.239805"><ele>655.0</ele><time>2026-03-29T08:26:48.573Z</time></trkpt><trkpt lat="43.7724617" lon="12.23978"><ele>655.0</ele><time>2026-03-29T08:26:49.573Z</time></trkpt><trkpt lat="43.7725683" lon="12.2397717"><ele>655.0</ele><time>2026-03-29T08:26:50.574Z</time></trkpt><trkpt lat="43.7726717" lon="12.2397433"><ele>655.0</ele><time>2026-03-29T08:26:51.574Z</time></trkpt><trkpt lat="43.772755" lon="12.239655"><ele>652.0</ele><time>2026-03-29T08:26:52.574Z</time></trkpt><trkpt lat="43.772815" lon="12.2395433"><ele>649.0</ele><time>2026-03-29T08:26:53.573Z</time></trkpt><trkpt lat="43.7728817" lon="12.2394467"><ele>646.0</ele><time>2026-03-29T08:26:54.574Z</time></trkpt><trkpt lat="43.7729767" lon="12.2393767"><ele>643.0</ele><time>2026-03-29T08:26:55.573Z</time></trkpt><trkpt lat="43.7731033" lon="12.2393533"><ele>640.0</ele><time>2026-03-29T08:26:56.574Z</time></trkpt><trkpt lat="43.77324" lon="12.2393683"><ele>640.0</ele><time>2026-03-29T08:26:57.573Z</time></trkpt><trkpt lat="43.773375" lon="12.2393833"><ele>640.0</ele><time>2026-03-29T08:26:58.574Z</time></trkpt><trkpt lat="43.773505" lon="12.2393733"><ele>640.0</ele><time>2026-03-29T08:26:59.573Z</time></trkpt><trkpt lat="43.7736167" lon="12.2393567"><ele>640.0</ele><time>2026-03-29T08:27:00.573Z</time></trkpt><trkpt lat="43.7737183" lon="12.2393433"><ele>640.5</ele><time>2026-03-29T08:27:01.574Z</time></trkpt><trkpt lat="43.7738083" lon="12.2393"><ele>641.0</ele><time>2026-03-29T08:27:02.574Z</time></trkpt><trkpt lat="43.77389" lon="12.2392117"><ele>641.5</ele><time>2026-03-29T08:27:03.574Z</time></trkpt><trkpt lat="43.773965" lon="12.2390717"><ele>642.0</ele><time>2026-03-29T08:27:04.574Z</time></trkpt><trkpt lat="43.7740333" lon="12.2388983"><ele>642.0</ele><time>2026-03-29T08:27:05.573Z</time></trkpt><trkpt lat="43.7740933" lon="12.2387183"><ele>642.0</ele><time>2026-03-29T08:27:06.574Z</time></trkpt><trkpt lat="43.7741467" lon="12.23855"><ele>642.0</ele><time>2026-03-29T08:27:07.573Z</time></trkpt><trkpt lat="43.7741967" lon="12.23841"><ele>642.0</ele><time>2026-03-29T08:27:08.573Z</time></trkpt><trkpt lat="43.774235" lon="12.2383033"><ele>642.0</ele><time>2026-03-29T08:27:09.573Z</time></trkpt><trkpt lat="43.7742633" lon="12.2382217"><ele>642.0</ele><time>2026-03-29T08:27:10.574Z</time></trkpt><trkpt lat="43.77428" lon="12.23812"><ele>642.0</ele><time>2026-03-29T08:27:11.574Z</time></trkpt><trkpt lat="43.7742983" lon="12.2379817"><ele>642.0</ele><time>2026-03-29T08:27:12.574Z</time></trkpt><trkpt lat="43.7743217" lon="12.2378167"><ele>642.0</ele><time>2026-03-29T08:27:13.573Z</time></trkpt><trkpt lat="43.77435" lon="12.2376567"><ele>643.5</ele><time>2026-03-29T08:27:14.574Z</time></trkpt><trkpt lat="43.7743767" lon="12.2375017"><ele>645.0</ele><time>2026-03-29T08:27:15.574Z</time></trkpt><trkpt lat="43.7743667" lon="12.23733"><ele>646.5</ele><time>2026-03-29T08:27:16.573Z</time></trkpt><trkpt lat="43.77433" lon="12.2371683"><ele>648.0</ele><time>2026-03-29T08:27:17.573Z</time></trkpt><trkpt lat="43.7742883" lon="12.23702"><ele>645.4</ele><time>2026-03-29T08:27:18.574Z</time></trkpt><trkpt lat="43.774255" lon="12.2368867"><ele>642.8</ele><time>2026-03-29T08:27:19.573Z</time></trkpt><trkpt lat="43.7742367" lon="12.2367567"><ele>640.2</ele><time>2026-03-29T08:27:20.574Z</time></trkpt><trkpt lat="43.7742483" lon="12.23663"><ele>637.6</ele><time>2026-03-29T08:27:21.573Z</time></trkpt><trkpt lat="43.7742817" lon="12.236505"><ele>635.0</ele><time>2026-03-29T08:27:22.574Z</time></trkpt><trkpt lat="43.77434" lon="12.2364"><ele>635.6</ele><time>2026-03-29T08:27:23.574Z</time></trkpt><trkpt lat="43.7744217" lon="12.236305"><ele>636.2</ele><time>2026-03-29T08:27:24.574Z</time></trkpt><trkpt lat="43.77451" lon="12.2362333"><ele>636.8</ele><time>2026-03-29T08:27:25.574Z</time></trkpt><trkpt lat="43.77461" lon="12.236185"><ele>637.4</ele><time>2026-03-29T08:27:26.574Z</time></trkpt><trkpt lat="43.77471" lon="12.2361667"><ele>638.0</ele><time>2026-03-29T08:27:27.574Z</time></trkpt><trkpt lat="43.7748067" lon="12.2361467"><ele>638.0</ele><time>2026-03-29T08:27:28.574Z</time></trkpt><trkpt lat="43.7749133" lon="12.23611"><ele>638.0</ele><time>2026-03-29T08:27:29.574Z</time></trkpt><trkpt lat="43.7750033" lon="12.2360267"><ele>638.0</ele><time>2026-03-29T08:27:30.574Z</time></trkpt><trkpt lat="43.7750783" lon="12.235925"><ele>638.0</ele><time>2026-03-29T08:27:31.574Z</time></trkpt><trkpt lat="43.77514" lon="12.2358083"><ele>638.0</ele><time>2026-03-29T08:27:32.573Z</time></trkpt><trkpt lat="43.7751883" lon="12.2356783"><ele>640.5</ele><time>2026-03-29T08:27:33.573Z</time></trkpt><trkpt lat="43.7752317" lon="12.2355167"><ele>643.0</ele><time>2026-03-29T08:27:34.574Z</time></trkpt><trkpt lat="43.7752583" lon="12.2353283"><ele>645.5</ele><time>2026-03-29T08:27:35.573Z</time></trkpt><trkpt lat="43.77529" lon="12.2351617"><ele>648.0</ele><time>2026-03-29T08:27:36.574Z</time></trkpt><trkpt lat="43.7753217" lon="12.2350183"><ele>648.0</ele><time>2026-03-29T08:27:37.574Z</time></trkpt><trkpt lat="43.775365" lon="12.2348667"><ele>648.0</ele><time>2026-03-29T08:27:38.574Z</time></trkpt><trkpt lat="43.77541" lon="12.2347133"><ele>648.0</ele><time>2026-03-29T08:27:39.574Z</time></trkpt><trkpt lat="43.7754367" lon="12.2345517"><ele>648.0</ele><time>2026-03-29T08:27:40.574Z</time></trkpt><trkpt lat="43.77542" lon="12.2343833"><ele>647.0</ele><time>2026-03-29T08:27:41.574Z</time></trkpt><trkpt lat="43.775375" lon="12.2342067"><ele>646.0</ele><time>2026-03-29T08:27:42.574Z</time></trkpt><trkpt lat="43.7753133" lon="12.2340567"><ele>645.0</ele><time>2026-03-29T08:27:43.574Z</time></trkpt><trkpt lat="43.7752517" lon="12.2339083"><ele>644.0</ele><time>2026-03-29T08:27:44.574Z</time></trkpt><trkpt lat="43.7752033" lon="12.233765"><ele>641.75</ele><time>2026-03-29T08:27:45.573Z</time></trkpt><trkpt lat="43.775175" lon="12.2336267"><ele>639.5</ele><time>2026-03-29T08:27:46.574Z</time></trkpt><trkpt lat="43.7751683" lon="12.233465"><ele>637.25</ele><time>2026-03-29T08:27:47.574Z</time></trkpt><trkpt lat="43.7751783" lon="12.233295"><ele>635.0</ele><time>2026-03-29T08:27:48.573Z</time></trkpt><trkpt lat="43.7752017" lon="12.2331317"><ele>635.0</ele><time>2026-03-29T08:27:49.574Z</time></trkpt><trkpt lat="43.7752467" lon="12.2329583"><ele>635.0</ele><time>2026-03-29T08:27:50.574Z</time></trkpt><trkpt lat="43.775305" lon="12.2327717"><ele>635.0</ele><time>2026-03-29T08:27:51.574Z</time></trkpt><trkpt lat="43.775375" lon="12.2325733"><ele>635.0</ele><time>2026-03-29T08:27:52.573Z</time></trkpt><trkpt lat="43.77544" lon="12.2323717"><ele>634.0</ele><time>2026-03-29T08:27:53.574Z</time></trkpt><trkpt lat="43.7754833" lon="12.2321517"><ele>633.0</ele><time>2026-03-29T08:27:54.574Z</time></trkpt><trkpt lat="43.775505" lon="12.2319117"><ele>632.0</ele><time>2026-03-29T08:27:55.574Z</time></trkpt><trkpt lat="43.7755117" lon="12.2316767"><ele>630.0</ele><time>2026-03-29T08:27:56.574Z</time></trkpt><trkpt lat="43.7755217" lon="12.2314717"><ele>628.0</ele><time>2026-03-29T08:27:57.573Z</time></trkpt><trkpt lat="43.775535" lon="12.2312867"><ele>626.0</ele><time>2026-03-29T08:27:58.574Z</time></trkpt><trkpt lat="43.7755333" lon="12.2311"><ele>624.0</ele><time>2026-03-29T08:27:59.574Z</time></trkpt><trkpt lat="43.77553" lon="12.2309167"><ele>624.0</ele><time>2026-03-29T08:28:00.574Z</time></trkpt><trkpt lat="43.7755283" lon="12.230735"><ele>624.0</ele><time>2026-03-29T08:28:01.574Z</time></trkpt><trkpt lat="43.7755383" lon="12.2305567"><ele>624.0</ele><time>2026-03-29T08:28:02.573Z</time></trkpt><trkpt lat="43.775565" lon="12.2303817"><ele>624.0</ele><time>2026-03-29T08:28:03.574Z</time></trkpt><trkpt lat="43.7755983" lon="12.2302183"><ele>621.0</ele><time>2026-03-29T08:28:04.573Z</time></trkpt><trkpt lat="43.7756533" lon="12.230065"><ele>618.0</ele><time>2026-03-29T08:28:05.574Z</time></trkpt><trkpt lat="43.7757417" lon="12.2299233"><ele>615.0</ele><time>2026-03-29T08:28:06.574Z</time></trkpt><trkpt lat="43.7758367" lon="12.229805"><ele>612.0</ele><time>2026-03-29T08:28:07.573Z</time></trkpt><trkpt lat="43.775915" lon="12.2297183"><ele>610.0</ele><time>2026-03-29T08:28:08.573Z</time></trkpt><trkpt lat="43.7759717" lon="12.229625"><ele>608.0</ele><time>2026-03-29T08:28:09.573Z</time></trkpt><trkpt lat="43.7760033" lon="12.2295283"><ele>606.0</ele><time>2026-03-29T08:28:10.574Z</time></trkpt><trkpt lat="43.7760083" lon="12.22942"><ele>604.0</ele><time>2026-03-29T08:28:11.573Z</time></trkpt><trkpt lat="43.7759817" lon="12.229305"><ele>602.0</ele><time>2026-03-29T08:28:12.574Z</time></trkpt><trkpt lat="43.7759067" lon="12.2291717"><ele>602.0</ele><time>2026-03-29T08:28:13.574Z</time></trkpt><trkpt lat="43.7758017" lon="12.229045"><ele>602.0</ele><time>2026-03-29T08:28:14.574Z</time></trkpt><trkpt lat="43.7756733" lon="12.2288633"><ele>602.0</ele><time>2026-03-29T08:28:16.288Z</time></trkpt><trkpt lat="43.7753767" lon="12.228935"><ele>600.5</ele><time>2026-03-29T08:28:17.654Z</time></trkpt><trkpt lat="43.775275" lon="12.2288983"><ele>599.0</ele><time>2026-03-29T08:28:18.574Z</time></trkpt><trkpt lat="43.77518" lon="12.2288167"><ele>597.5</ele><time>2026-03-29T08:28:19.575Z</time></trkpt><trkpt lat="43.775065" lon="12.22872"><ele>596.0</ele><time>2026-03-29T08:28:21.075Z</time></trkpt><trkpt lat="43.7749467" lon="12.22872"><ele>593.6666666666666</ele><time>2026-03-29T08:28:22.575Z</time></trkpt><trkpt lat="43.7748717" lon="12.2287567"><ele>591.3333333333333</ele><time>2026-03-29T08:28:23.574Z</time></trkpt><trkpt lat="43.7748017" lon="12.228805"><ele>589.0</ele><time>2026-03-29T08:28:24.574Z</time></trkpt><trkpt lat="43.7747433" lon="12.22886"><ele>586.6666666666666</ele><time>2026-03-29T08:28:25.575Z</time></trkpt><trkpt lat="43.7746417" lon="12.2289083"><ele>584.3333333333334</ele><time>2026-03-29T08:28:27.574Z</time></trkpt><trkpt lat="43.7745867" lon="12.2288633"><ele>582.0</ele><time>2026-03-29T08:28:28.575Z</time></trkpt><trkpt lat="43.774535" lon="12.2287683"><ele>582.0</ele><time>2026-03-29T08:28:29.574Z</time></trkpt><trkpt lat="43.7744867" lon="12.2286467"><ele>582.0</ele><time>2026-03-29T08:28:30.575Z</time></trkpt><trkpt lat="43.7744583" lon="12.2285033"><ele>582.0</ele><time>2026-03-29T08:28:31.575Z</time></trkpt><trkpt lat="43.7744617" lon="12.2283533"><ele>582.0</ele><time>2026-03-29T08:28:32.575Z</time></trkpt><trkpt lat="43.7744833" lon="12.2282067"><ele>582.0</ele><time>2026-03-29T08:28:33.575Z</time></trkpt><trkpt lat="43.774545" lon="12.2280667"><ele>579.5</ele><time>2026-03-29T08:28:34.575Z</time></trkpt><trkpt lat="43.7746233" lon="12.2279517"><ele>577.0</ele><time>2026-03-29T08:28:35.575Z</time></trkpt><trkpt lat="43.7747233" lon="12.22784"><ele>574.5</ele><time>2026-03-29T08:28:36.575Z</time></trkpt><trkpt lat="43.774805" lon="12.2277033"><ele>572.0</ele><time>2026-03-29T08:28:37.575Z</time></trkpt><trkpt lat="43.7748683" lon="12.2275317"><ele>572.0</ele><time>2026-03-29T08:28:38.574Z</time></trkpt><trkpt lat="43.77494" lon="12.2273483"><ele>572.0</ele><time>2026-03-29T08:28:39.575Z</time></trkpt><trkpt lat="43.77501" lon="12.227155"><ele>572.0</ele><time>2026-03-29T08:28:40.575Z</time></trkpt><trkpt lat="43.7751033" lon="12.2269567"><ele>573.6666666666666</ele><time>2026-03-29T08:28:41.575Z</time></trkpt><trkpt lat="43.7752" lon="12.2267867"><ele>575.3333333333334</ele><time>2026-03-29T08:28:42.574Z</time></trkpt><trkpt lat="43.7752967" lon="12.2266267"><ele>577.0</ele><time>2026-03-29T08:28:43.575Z</time></trkpt><trkpt lat="43.775385" lon="12.2264467"><ele>577.0</ele><time>2026-03-29T08:28:44.574Z</time></trkpt><trkpt lat="43.77546" lon="12.2262633"><ele>577.0</ele><time>2026-03-29T08:28:45.575Z</time></trkpt><trkpt lat="43.7755167" lon="12.2260917"><ele>577.0</ele><time>2026-03-29T08:28:46.574Z</time></trkpt><trkpt lat="43.7755667" lon="12.2259367"><ele>577.0</ele><time>2026-03-29T08:28:47.575Z</time></trkpt><trkpt lat="43.7756167" lon="12.2257967"><ele>577.0</ele><time>2026-03-29T08:28:48.574Z</time></trkpt><trkpt lat="43.7756467" lon="12.2256517"><ele>577.0</ele><time>2026-03-29T08:28:49.575Z</time></trkpt><trkpt lat="43.77569" lon="12.225485"><ele>577.0</ele><time>2026-03-29T08:28:50.575Z</time></trkpt><trkpt lat="43.7757217" lon="12.2253133"><ele>577.0</ele><time>2026-03-29T08:28:51.575Z</time></trkpt><trkpt lat="43.7757383" lon="12.2251583"><ele>575.8000000000001</ele><time>2026-03-29T08:28:52.574Z</time></trkpt><trkpt lat="43.775755" lon="12.2250033"><ele>574.6</ele><time>2026-03-29T08:28:53.574Z</time></trkpt><trkpt lat="43.775765" lon="12.2248617"><ele>573.4000000000001</ele><time>2026-03-29T08:28:54.575Z</time></trkpt><trkpt lat="43.7757917" lon="12.22473"><ele>572.2</ele><time>2026-03-29T08:28:55.575Z</time></trkpt><trkpt lat="43.7758583" lon="12.2245917"><ele>571.0</ele><time>2026-03-29T08:28:56.575Z</time></trkpt><trkpt lat="43.7759533" lon="12.2244417"><ele>571.3333333333334</ele><time>2026-03-29T08:28:57.574Z</time></trkpt><trkpt lat="43.7760533" lon="12.22427"><ele>571.6666666666666</ele><time>2026-03-29T08:28:58.575Z</time></trkpt><trkpt lat="43.7761433" lon="12.2240883"><ele>572.0</ele><time>2026-03-29T08:28:59.575Z</time></trkpt><trkpt lat="43.7762217" lon="12.2239183"><ele>568.75</ele><time>2026-03-29T08:29:00.574Z</time></trkpt><trkpt lat="43.77629" lon="12.2237583"><ele>565.5</ele><time>2026-03-29T08:29:01.575Z</time></trkpt><trkpt lat="43.776365" lon="12.2236283"><ele>562.25</ele><time>2026-03-29T08:29:02.575Z</time></trkpt><trkpt lat="43.776465" lon="12.2235067"><ele>559.0</ele><time>2026-03-29T08:29:03.575Z</time></trkpt><trkpt lat="43.77656" lon="12.2234017"><ele>559.0</ele><time>2026-03-29T08:29:04.574Z</time></trkpt><trkpt lat="43.776665" lon="12.2233"><ele>559.0</ele><time>2026-03-29T08:29:05.575Z</time></trkpt><trkpt lat="43.7767917" lon="12.2232183"><ele>559.0</ele><time>2026-03-29T08:29:06.574Z</time></trkpt><trkpt lat="43.7769267" lon="12.223165"><ele>559.0</ele><time>2026-03-29T08:29:07.574Z</time></trkpt><trkpt lat="43.77706" lon="12.2231117"><ele>557.5</ele><time>2026-03-29T08:29:08.574Z</time></trkpt><trkpt lat="43.777185" lon="12.2230117"><ele>556.0</ele><time>2026-03-29T08:29:09.574Z</time></trkpt><trkpt lat="43.7772933" lon="12.2228617"><ele>554.5</ele><time>2026-03-29T08:29:10.575Z</time></trkpt><trkpt lat="43.777375" lon="12.222695"><ele>553.0</ele><time>2026-03-29T08:29:11.575Z</time></trkpt><trkpt lat="43.7774517" lon="12.2225217"><ele>553.0</ele><time>2026-03-29T08:29:12.575Z</time></trkpt><trkpt lat="43.77749" lon="12.2223333"><ele>553.0</ele><time>2026-03-29T08:29:13.574Z</time></trkpt><trkpt lat="43.7775217" lon="12.22215"><ele>553.0</ele><time>2026-03-29T08:29:14.575Z</time></trkpt><trkpt lat="43.7775633" lon="12.22196"><ele>553.0</ele><time>2026-03-29T08:29:15.574Z</time></trkpt><trkpt lat="43.777615" lon="12.2217817"><ele>554.0</ele><time>2026-03-29T08:29:16.575Z</time></trkpt><trkpt lat="43.77769" lon="12.2216283"><ele>555.0</ele><time>2026-03-29T08:29:17.575Z</time></trkpt><trkpt lat="43.777765" lon="12.221485"><ele>556.0</ele><time>2026-03-29T08:29:18.575Z</time></trkpt><trkpt lat="43.7778533" lon="12.2213467"><ele>557.0</ele><time>2026-03-29T08:29:19.575Z</time></trkpt><trkpt lat="43.777955" lon="12.22122"><ele>554.8000000000001</ele><time>2026-03-29T08:29:20.575Z</time></trkpt><trkpt lat="43.77806" lon="12.2211067"><ele>552.6</ele><time>2026-03-29T08:29:21.574Z</time></trkpt><trkpt lat="43.7781567" lon="12.221015"><ele>550.4000000000001</ele><time>2026-03-29T08:29:22.574Z</time></trkpt><trkpt lat="43.7782317" lon="12.2209333"><ele>548.2</ele><time>2026-03-29T08:29:23.574Z</time></trkpt><trkpt lat="43.7782933" lon="12.2208383"><ele>546.0</ele><time>2026-03-29T08:29:24.575Z</time></trkpt><trkpt lat="43.7783383" lon="12.220715"><ele>543.6</ele><time>2026-03-29T08:29:25.574Z</time></trkpt><trkpt lat="43.7783567" lon="12.22057"><ele>541.2</ele><time>2026-03-29T08:29:26.575Z</time></trkpt><trkpt lat="43.7783733" lon="12.2204283"><ele>538.8</ele><time>2026-03-29T08:29:27.575Z</time></trkpt><trkpt lat="43.778385" lon="12.2202883"><ele>536.4</ele><time>2026-03-29T08:29:28.575Z</time></trkpt><trkpt lat="43.7784033" lon="12.22016"><ele>534.0</ele><time>2026-03-29T08:29:29.575Z</time></trkpt><trkpt lat="43.7784217" lon="12.2200367"><ele>534.0</ele><time>2026-03-29T08:29:30.575Z</time></trkpt><trkpt lat="43.7784717" lon="12.2199333"><ele>534.0</ele><time>2026-03-29T08:29:31.575Z</time></trkpt><trkpt lat="43.7785467" lon="12.2198417"><ele>534.0</ele><time>2026-03-29T08:29:32.575Z</time></trkpt><trkpt lat="43.778655" lon="12.2197583"><ele>534.0</ele><time>2026-03-29T08:29:33.575Z</time></trkpt><trkpt lat="43.7787717" lon="12.219685"><ele>534.0</ele><time>2026-03-29T08:29:34.575Z</time></trkpt><trkpt lat="43.7788817" lon="12.219605"><ele>532.8</ele><time>2026-03-29T08:29:35.575Z</time></trkpt><trkpt lat="43.7789817" lon="12.2195117"><ele>531.5999999999999</ele><time>2026-03-29T08:29:36.574Z</time></trkpt><trkpt lat="43.7790717" lon="12.2194183"><ele>530.4</ele><time>2026-03-29T08:29:37.575Z</time></trkpt><trkpt lat="43.7791467" lon="12.2193217"><ele>529.1999999999999</ele><time>2026-03-29T08:29:38.575Z</time></trkpt><trkpt lat="43.779195" lon="12.2191967"><ele>528.0</ele><time>2026-03-29T08:29:39.575Z</time></trkpt><trkpt lat="43.7792233" lon="12.2190567"><ele>525.25</ele><time>2026-03-29T08:29:40.575Z</time></trkpt><trkpt lat="43.77921" lon="12.2189233"><ele>522.5</ele><time>2026-03-29T08:29:41.575Z</time></trkpt><trkpt lat="43.7791717" lon="12.2187717"><ele>519.75</ele><time>2026-03-29T08:29:42.575Z</time></trkpt><trkpt lat="43.77911" lon="12.2186233"><ele>517.0</ele><time>2026-03-29T08:29:43.575Z</time></trkpt><trkpt lat="43.77906" lon="12.218465"><ele>517.0</ele><time>2026-03-29T08:29:44.575Z</time></trkpt><trkpt lat="43.7790267" lon="12.2183017"><ele>517.0</ele><time>2026-03-29T08:29:45.575Z</time></trkpt><trkpt lat="43.7790083" lon="12.2181417"><ele>517.0</ele><time>2026-03-29T08:29:46.575Z</time></trkpt><trkpt lat="43.7790167" lon="12.2179833"><ele>517.0</ele><time>2026-03-29T08:29:47.575Z</time></trkpt><trkpt lat="43.7790433" lon="12.2178333"><ele>516.5</ele><time>2026-03-29T08:29:48.575Z</time></trkpt><trkpt lat="43.7790933" lon="12.217695"><ele>516.0</ele><time>2026-03-29T08:29:49.575Z</time></trkpt><trkpt lat="43.7791717" lon="12.21758"><ele>515.5</ele><time>2026-03-29T08:29:50.574Z</time></trkpt><trkpt lat="43.7792783" lon="12.2174867"><ele>515.0</ele><time>2026-03-29T08:29:51.574Z</time></trkpt><trkpt lat="43.7793983" lon="12.2174183"><ele>515.0</ele><time>2026-03-29T08:29:52.575Z</time></trkpt><trkpt lat="43.779515" lon="12.21738"><ele>515.0</ele><time>2026-03-29T08:29:53.575Z</time></trkpt><trkpt lat="43.779635" lon="12.21733"><ele>515.0</ele><time>2026-03-29T08:29:54.574Z</time></trkpt><trkpt lat="43.779735" lon="12.21723"><ele>515.0</ele><time>2026-03-29T08:29:55.575Z</time></trkpt><trkpt lat="43.7798233" lon="12.21709"><ele>512.6666666666666</ele><time>2026-03-29T08:29:56.574Z</time></trkpt><trkpt lat="43.7799033" lon="12.2169133"><ele>510.33333333333337</ele><time>2026-03-29T08:29:57.575Z</time></trkpt><trkpt lat="43.7800033" lon="12.21675"><ele>508.0</ele><time>2026-03-29T08:29:58.575Z</time></trkpt><trkpt lat="43.7800933" lon="12.2165933"><ele>509.33333333333337</ele><time>2026-03-29T08:29:59.575Z</time></trkpt><trkpt lat="43.78018" lon="12.216415"><ele>510.66666666666663</ele><time>2026-03-29T08:30:00.574Z</time></trkpt><trkpt lat="43.780245" lon="12.216225"><ele>512.0</ele><time>2026-03-29T08:30:01.574Z</time></trkpt><trkpt lat="43.78032" lon="12.216055"><ele>512.0</ele><time>2026-03-29T08:30:02.574Z</time></trkpt><trkpt lat="43.78041" lon="12.2159133"><ele>512.0</ele><time>2026-03-29T08:30:03.574Z</time></trkpt><trkpt lat="43.780495" lon="12.21578"><ele>512.0</ele><time>2026-03-29T08:30:04.575Z</time></trkpt><trkpt lat="43.7805683" lon="12.2156217"><ele>512.0</ele><time>2026-03-29T08:30:05.575Z</time></trkpt><trkpt lat="43.7806167" lon="12.2154233"><ele>508.75</ele><time>2026-03-29T08:30:06.575Z</time></trkpt><trkpt lat="43.780655" lon="12.215225"><ele>505.5</ele><time>2026-03-29T08:30:07.575Z</time></trkpt><trkpt lat="43.7806933" lon="12.2150433"><ele>502.25</ele><time>2026-03-29T08:30:08.575Z</time></trkpt><trkpt lat="43.7807533" lon="12.214865"><ele>499.0</ele><time>2026-03-29T08:30:09.575Z</time></trkpt><trkpt lat="43.7808383" lon="12.2146833"><ele>497.75</ele><time>2026-03-29T08:30:10.575Z</time></trkpt><trkpt lat="43.7809317" lon="12.21452"><ele>496.5</ele><time>2026-03-29T08:30:11.575Z</time></trkpt><trkpt lat="43.7810217" lon="12.2143733"><ele>495.25</ele><time>2026-03-29T08:30:12.575Z</time></trkpt><trkpt lat="43.7811" lon="12.214245"><ele>494.0</ele><time>2026-03-29T08:30:13.575Z</time></trkpt><trkpt lat="43.781175" lon="12.214145"><ele>494.0</ele><time>2026-03-29T08:30:14.575Z</time></trkpt><trkpt lat="43.7812583" lon="12.2140633"><ele>494.0</ele><time>2026-03-29T08:30:15.575Z</time></trkpt><trkpt lat="43.7813667" lon="12.2139967"><ele>494.0</ele><time>2026-03-29T08:30:16.574Z</time></trkpt><trkpt lat="43.7814783" lon="12.2139483"><ele>494.0</ele><time>2026-03-29T08:30:17.575Z</time></trkpt><trkpt lat="43.7815883" lon="12.2139117"><ele>491.0</ele><time>2026-03-29T08:30:18.575Z</time></trkpt><trkpt lat="43.7816917" lon="12.2138533"><ele>488.0</ele><time>2026-03-29T08:30:19.574Z</time></trkpt><trkpt lat="43.781795" lon="12.2137617"><ele>485.0</ele><time>2026-03-29T08:30:20.575Z</time></trkpt><trkpt lat="43.781875" lon="12.21365"><ele>482.0</ele><time>2026-03-29T08:30:21.574Z</time></trkpt><trkpt lat="43.7819383" lon="12.2135483"><ele>479.0</ele><time>2026-03-29T08:30:22.575Z</time></trkpt><trkpt lat="43.7819883" lon="12.2134583"><ele>478.2</ele><time>2026-03-29T08:30:23.575Z</time></trkpt><trkpt lat="43.7820133" lon="12.213365"><ele>477.4</ele><time>2026-03-29T08:30:24.574Z</time></trkpt><trkpt lat="43.7820117" lon="12.2132583"><ele>476.6</ele><time>2026-03-29T08:30:25.575Z</time></trkpt><trkpt lat="43.7819667" lon="12.213155"><ele>475.8</ele><time>2026-03-29T08:30:26.575Z</time></trkpt><trkpt lat="43.781875" lon="12.2130633"><ele>475.0</ele><time>2026-03-29T08:30:27.575Z</time></trkpt><trkpt lat="43.7817417" lon="12.2129833"><ele>471.6666666666667</ele><time>2026-03-29T08:30:28.574Z</time></trkpt><trkpt lat="43.7815817" lon="12.212935"><ele>468.33333333333337</ele><time>2026-03-29T08:30:29.575Z</time></trkpt><trkpt lat="43.7814267" lon="12.2129083"><ele>465.0</ele><time>2026-03-29T08:30:30.575Z</time></trkpt><trkpt lat="43.7812817" lon="12.2129133"><ele>465.0</ele><time>2026-03-29T08:30:31.575Z</time></trkpt><trkpt lat="43.7811467" lon="12.2129433"><ele>465.0</ele><time>2026-03-29T08:30:32.575Z</time></trkpt><trkpt lat="43.781025" lon="12.21297"><ele>465.0</ele><time>2026-03-29T08:30:33.575Z</time></trkpt><trkpt lat="43.7809167" lon="12.212975"><ele>465.0</ele><time>2026-03-29T08:30:34.575Z</time></trkpt><trkpt lat="43.7808167" lon="12.2129417"><ele>464.6</ele><time>2026-03-29T08:30:35.575Z</time></trkpt><trkpt lat="43.7807333" lon="12.2128583"><ele>464.2</ele><time>2026-03-29T08:30:36.575Z</time></trkpt><trkpt lat="43.7806783" lon="12.2127483"><ele>463.79999999999995</ele><time>2026-03-29T08:30:37.575Z</time></trkpt><trkpt lat="43.7806567" lon="12.2126033"><ele>463.4</ele><time>2026-03-29T08:30:38.574Z</time></trkpt><trkpt lat="43.7806633" lon="12.2124333"><ele>463.0</ele><time>2026-03-29T08:30:39.574Z</time></trkpt><trkpt lat="43.7806917" lon="12.2122483"><ele>460.25</ele><time>2026-03-29T08:30:40.575Z</time></trkpt><trkpt lat="43.7807283" lon="12.2120767"><ele>457.5</ele><time>2026-03-29T08:30:41.574Z</time></trkpt><trkpt lat="43.7807817" lon="12.2119267"><ele>454.75</ele><time>2026-03-29T08:30:42.574Z</time></trkpt><trkpt lat="43.7808533" lon="12.2117917"><ele>452.0</ele><time>2026-03-29T08:30:43.574Z</time></trkpt><trkpt lat="43.7809483" lon="12.2116783"><ele>451.0</ele><time>2026-03-29T08:30:44.574Z</time></trkpt><trkpt lat="43.7810717" lon="12.2115883"><ele>450.0</ele><time>2026-03-29T08:30:45.575Z</time></trkpt><trkpt lat="43.78121" lon="12.211525"><ele>449.0</ele><time>2026-03-29T08:30:46.575Z</time></trkpt><trkpt lat="43.781355" lon="12.2114717"><ele>448.0</ele><time>2026-03-29T08:30:47.575Z</time></trkpt><trkpt lat="43.7814967" lon="12.2114467"><ele>444.2</ele><time>2026-03-29T08:30:48.575Z</time></trkpt><trkpt lat="43.781615" lon="12.2114433"><ele>440.4</ele><time>2026-03-29T08:30:49.574Z</time></trkpt><trkpt lat="43.7817267" lon="12.21144"><ele>436.59999999999997</ele><time>2026-03-29T08:30:50.575Z</time></trkpt><trkpt lat="43.781825" lon="12.2114017"><ele>432.79999999999995</ele><time>2026-03-29T08:30:51.575Z</time></trkpt><trkpt lat="43.7819117" lon="12.2113267"><ele>429.0</ele><time>2026-03-29T08:30:52.575Z</time></trkpt><trkpt lat="43.7819933" lon="12.211235"><ele>428.75</ele><time>2026-03-29T08:30:53.575Z</time></trkpt><trkpt lat="43.7820833" lon="12.21117"><ele>428.5</ele><time>2026-03-29T08:30:54.574Z</time></trkpt><trkpt lat="43.7821917" lon="12.211135"><ele>428.25</ele><time>2026-03-29T08:30:55.574Z</time></trkpt><trkpt lat="43.7823183" lon="12.211125"><ele>428.0</ele><time>2026-03-29T08:30:56.574Z</time></trkpt><trkpt lat="43.78246" lon="12.2111133"><ele>428.0</ele><time>2026-03-29T08:30:57.575Z</time></trkpt><trkpt lat="43.78261" lon="12.2110933"><ele>428.0</ele><time>2026-03-29T08:30:58.575Z</time></trkpt><trkpt lat="43.78275" lon="12.2110683"><ele>428.0</ele><time>2026-03-29T08:30:59.575Z</time></trkpt><trkpt lat="43.7828667" lon="12.211045"><ele>428.0</ele><time>2026-03-29T08:31:00.574Z</time></trkpt><trkpt lat="43.7829733" lon="12.2110267"><ele>427.4</ele><time>2026-03-29T08:31:01.574Z</time></trkpt><trkpt lat="43.783075" lon="12.2110067"><ele>426.79999999999995</ele><time>2026-03-29T08:31:02.575Z</time></trkpt><trkpt lat="43.7831717" lon="12.2109933"><ele>426.2</ele><time>2026-03-29T08:31:03.574Z</time></trkpt><trkpt lat="43.7832567" lon="12.2109667"><ele>425.6</ele><time>2026-03-29T08:31:04.575Z</time></trkpt><trkpt lat="43.78333" lon="12.2109467"><ele>425.0</ele><time>2026-03-29T08:31:05.575Z</time></trkpt><trkpt lat="43.7834317" lon="12.2109283"><ele>425.0</ele><time>2026-03-29T08:31:07.574Z</time></trkpt><trkpt lat="43.7834717" lon="12.2108583"><ele>425.0</ele><time>2026-03-29T08:31:10.575Z</time></trkpt><trkpt lat="43.7834283" lon="12.2107733"><ele>425.0</ele><time>2026-03-29T08:31:12.575Z</time></trkpt><trkpt lat="43.783365" lon="12.21073"><ele>425.0</ele><time>2026-03-29T08:31:13.574Z</time></trkpt><trkpt lat="43.78327" lon="12.210685"><ele>425.0</ele><time>2026-03-29T08:31:14.574Z</time></trkpt><trkpt lat="43.7831233" lon="12.2106317"><ele>420.66666666666663</ele><time>2026-03-29T08:31:15.574Z</time></trkpt><trkpt lat="43.7829667" lon="12.210575"><ele>416.33333333333337</ele><time>2026-03-29T08:31:16.575Z</time></trkpt><trkpt lat="43.7827867" lon="12.2105267"><ele>412.0</ele><time>2026-03-29T08:31:17.575Z</time></trkpt><trkpt lat="43.7825933" lon="12.2104983"><ele>412.0</ele><time>2026-03-29T08:31:18.575Z</time></trkpt><trkpt lat="43.7824" lon="12.21048"><ele>412.0</ele><time>2026-03-29T08:31:19.575Z</time></trkpt><trkpt lat="43.7822433" lon="12.2104517"><ele>412.0</ele><time>2026-03-29T08:31:20.574Z</time></trkpt><trkpt lat="43.782095" lon="12.210425"><ele>412.0</ele><time>2026-03-29T08:31:21.575Z</time></trkpt><trkpt lat="43.7819683" lon="12.2103933"><ele>412.0</ele><time>2026-03-29T08:31:22.575Z</time></trkpt><trkpt lat="43.7818567" lon="12.2103367"><ele>412.0</ele><time>2026-03-29T08:31:23.575Z</time></trkpt><trkpt lat="43.781765" lon="12.2102267"><ele>412.0</ele><time>2026-03-29T08:31:24.575Z</time></trkpt><trkpt lat="43.7817033" lon="12.21006"><ele>412.0</ele><time>2026-03-29T08:31:25.575Z</time></trkpt><trkpt lat="43.7816717" lon="12.2098317"><ele>412.0</ele><time>2026-03-29T08:31:26.574Z</time></trkpt><trkpt lat="43.781645" lon="12.2095683"><ele>412.0</ele><time>2026-03-29T08:31:27.575Z</time></trkpt><trkpt lat="43.7816133" lon="12.20929"><ele>412.0</ele><time>2026-03-29T08:31:28.575Z</time></trkpt><trkpt lat="43.7815817" lon="12.2090283"><ele>412.0</ele><time>2026-03-29T08:31:29.574Z</time></trkpt><trkpt lat="43.7815433" lon="12.2087833"><ele>412.0</ele><time>2026-03-29T08:31:30.574Z</time></trkpt><trkpt lat="43.7814983" lon="12.2085383"><ele>412.33333333333337</ele><time>2026-03-29T08:31:31.574Z</time></trkpt><trkpt lat="43.7814167" lon="12.208285"><ele>412.66666666666663</ele><time>2026-03-29T08:31:32.575Z</time></trkpt><trkpt lat="43.7812883" lon="12.2080483"><ele>413.0</ele><time>2026-03-29T08:31:33.575Z</time></trkpt><trkpt lat="43.78113" lon="12.2078"><ele>414.3333333333333</ele><time>2026-03-29T08:31:34.575Z</time></trkpt><trkpt lat="43.7809817" lon="12.2075683"><ele>415.66666666666663</ele><time>2026-03-29T08:31:35.575Z</time></trkpt><trkpt lat="43.780835" lon="12.207345"><ele>417.0</ele><time>2026-03-29T08:31:36.575Z</time></trkpt><trkpt lat="43.7806983" lon="12.2071117"><ele>417.0</ele><time>2026-03-29T08:31:37.575Z</time></trkpt><trkpt lat="43.7805667" lon="12.2068783"><ele>417.0</ele><time>2026-03-29T08:31:38.574Z</time></trkpt><trkpt lat="43.7804483" lon="12.2066433"><ele>417.0</ele><time>2026-03-29T08:31:39.575Z</time></trkpt><trkpt lat="43.78034" lon="12.20642"><ele>415.0</ele><time>2026-03-29T08:31:40.574Z</time></trkpt><trkpt lat="43.78025" lon="12.2062"><ele>413.0</ele><time>2026-03-29T08:31:41.574Z</time></trkpt><trkpt lat="43.7801833" lon="12.205995"><ele>411.0</ele><time>2026-03-29T08:31:42.575Z</time></trkpt><trkpt lat="43.78014" lon="12.2057917"><ele>412.75</ele><time>2026-03-29T08:31:43.575Z</time></trkpt><trkpt lat="43.78011" lon="12.2056033"><ele>414.5</ele><time>2026-03-29T08:31:44.575Z</time></trkpt><trkpt lat="43.78007" lon="12.2054317"><ele>416.25</ele><time>2026-03-29T08:31:45.574Z</time></trkpt><trkpt lat="43.779995" lon="12.2052867"><ele>418.0</ele><time>2026-03-29T08:31:46.574Z</time></trkpt><trkpt lat="43.779885" lon="12.2051733"><ele>418.0</ele><time>2026-03-29T08:31:47.575Z</time></trkpt><trkpt lat="43.7797333" lon="12.2050883"><ele>418.0</ele><time>2026-03-29T08:31:48.574Z</time></trkpt><trkpt lat="43.7795733" lon="12.205005"><ele>418.0</ele><time>2026-03-29T08:31:49.575Z</time></trkpt><trkpt lat="43.779425" lon="12.204935"><ele>422.33333333333337</ele><time>2026-03-29T08:31:50.574Z</time></trkpt><trkpt lat="43.7792733" lon="12.2048983"><ele>426.66666666666663</ele><time>2026-03-29T08:31:51.575Z</time></trkpt><trkpt lat="43.7791083" lon="12.2049317"><ele>431.0</ele><time>2026-03-29T08:31:52.574Z</time></trkpt><trkpt lat="43.7789333" lon="12.2049883"><ele>431.0</ele><time>2026-03-29T08:31:53.575Z</time></trkpt><trkpt lat="43.778775" lon="12.2050317"><ele>431.0</ele><time>2026-03-29T08:31:54.575Z</time></trkpt><trkpt lat="43.7786383" lon="12.2050467"><ele>431.0</ele><time>2026-03-29T08:31:55.574Z</time></trkpt><trkpt lat="43.7785033" lon="12.2050283"><ele>431.0</ele><time>2026-03-29T08:31:56.574Z</time></trkpt><trkpt lat="43.778385" lon="12.2049783"><ele>431.8</ele><time>2026-03-29T08:31:57.575Z</time></trkpt><trkpt lat="43.7782767" lon="12.20492"><ele>432.6</ele><time>2026-03-29T08:31:58.574Z</time></trkpt><trkpt lat="43.7781817" lon="12.204865"><ele>433.4</ele><time>2026-03-29T08:31:59.575Z</time></trkpt><trkpt lat="43.7780967" lon="12.2047983"><ele>434.2</ele><time>2026-03-29T08:32:00.575Z</time></trkpt><trkpt lat="43.7780083" lon="12.2047333"><ele>435.0</ele><time>2026-03-29T08:32:01.575Z</time></trkpt><trkpt lat="43.7779267" lon="12.20467"><ele>434.0</ele><time>2026-03-29T08:32:02.574Z</time></trkpt><trkpt lat="43.7778467" lon="12.2046017"><ele>433.0</ele><time>2026-03-29T08:32:03.575Z</time></trkpt><trkpt lat="43.7777633" lon="12.2045383"><ele>432.0</ele><time>2026-03-29T08:32:04.575Z</time></trkpt><trkpt lat="43.77768" lon="12.2044817"><ele>431.0</ele><time>2026-03-29T08:32:05.575Z</time></trkpt><trkpt lat="43.7776033" lon="12.20443"><ele>430.0</ele><time>2026-03-29T08:32:06.574Z</time></trkpt><trkpt lat="43.7775333" lon="12.20437"><ele>430.00000000000006</ele><time>2026-03-29T08:32:07.575Z</time></trkpt><trkpt lat="43.7774617" lon="12.2043117"><ele>430.0</ele><time>2026-03-29T08:32:08.575Z</time></trkpt><trkpt lat="43.7773917" lon="12.2042633"><ele>430.0</ele><time>2026-03-29T08:32:09.575Z</time></trkpt><trkpt lat="43.7773217" lon="12.2042133"><ele>430.0</ele><time>2026-03-29T08:32:10.575Z</time></trkpt><trkpt lat="43.77726" lon="12.2041617"><ele>430.00000000000006</ele><time>2026-03-29T08:32:11.574Z</time></trkpt><trkpt lat="43.77719" lon="12.20411"><ele>430.0</ele><time>2026-03-29T08:32:12.575Z</time></trkpt><trkpt lat="43.7771017" lon="12.2040483"><ele>429.25</ele><time>2026-03-29T08:32:13.574Z</time></trkpt><trkpt lat="43.7769983" lon="12.2039783"><ele>428.5</ele><time>2026-03-29T08:32:14.574Z</time></trkpt><trkpt lat="43.7768633" lon="12.20389"><ele>427.75</ele><time>2026-03-29T08:32:15.574Z</time></trkpt><trkpt lat="43.7767133" lon="12.2037883"><ele>427.0</ele><time>2026-03-29T08:32:16.575Z</time></trkpt><trkpt lat="43.7765483" lon="12.2036483"><ele>427.0</ele><time>2026-03-29T08:32:17.575Z</time></trkpt><trkpt lat="43.7763767" lon="12.2035033"><ele>427.0</ele><time>2026-03-29T08:32:18.575Z</time></trkpt><trkpt lat="43.7761867" lon="12.2033667"><ele>427.0</ele><time>2026-03-29T08:32:19.574Z</time></trkpt><trkpt lat="43.7759767" lon="12.2031983"><ele>425.6666666666667</ele><time>2026-03-29T08:32:20.575Z</time></trkpt><trkpt lat="43.7757767" lon="12.20304"><ele>424.33333333333337</ele><time>2026-03-29T08:32:21.575Z</time></trkpt><trkpt lat="43.775595" lon="12.20289"><ele>423.0</ele><time>2026-03-29T08:32:22.575Z</time></trkpt><trkpt lat="43.7754283" lon="12.2027433"><ele>423.0</ele><time>2026-03-29T08:32:23.576Z</time></trkpt><trkpt lat="43.775285" lon="12.2025817"><ele>423.0</ele><time>2026-03-29T08:32:24.576Z</time></trkpt><trkpt lat="43.775155" lon="12.2024233"><ele>423.0</ele><time>2026-03-29T08:32:25.576Z</time></trkpt><trkpt lat="43.77503" lon="12.2022767"><ele>424.66666666666663</ele><time>2026-03-29T08:32:26.576Z</time></trkpt><trkpt lat="43.7748967" lon="12.20216"><ele>426.3333333333333</ele><time>2026-03-29T08:32:27.576Z</time></trkpt><trkpt lat="43.7747283" lon="12.2020633"><ele>428.0</ele><time>2026-03-29T08:32:28.576Z</time></trkpt><trkpt lat="43.774545" lon="12.2020133"><ele>428.0</ele><time>2026-03-29T08:32:29.576Z</time></trkpt><trkpt lat="43.774365" lon="12.2019933"><ele>428.0</ele><time>2026-03-29T08:32:30.576Z</time></trkpt><trkpt lat="43.7742" lon="12.201935"><ele>428.0</ele><time>2026-03-29T08:32:31.576Z</time></trkpt><trkpt lat="43.7740333" lon="12.2018383"><ele>428.66666666666663</ele><time>2026-03-29T08:32:32.576Z</time></trkpt><trkpt lat="43.7738633" lon="12.2017233"><ele>429.33333333333337</ele><time>2026-03-29T08:32:33.575Z</time></trkpt><trkpt lat="43.773685" lon="12.2016067"><ele>430.0</ele><time>2026-03-29T08:32:34.576Z</time></trkpt><trkpt lat="43.7735" lon="12.201505"><ele>427.33333333333337</ele><time>2026-03-29T08:32:35.575Z</time></trkpt><trkpt lat="43.7733233" lon="12.2014267"><ele>424.66666666666663</ele><time>2026-03-29T08:32:36.575Z</time></trkpt><trkpt lat="43.7731517" lon="12.20137"><ele>422.0</ele><time>2026-03-29T08:32:37.576Z</time></trkpt><trkpt lat="43.7729783" lon="12.20132"><ele>422.0</ele><time>2026-03-29T08:32:38.576Z</time></trkpt><trkpt lat="43.7728" lon="12.2012967"><ele>422.0</ele><time>2026-03-29T08:32:39.576Z</time></trkpt><trkpt lat="43.7726233" lon="12.2013083"><ele>422.0</ele><time>2026-03-29T08:32:40.575Z</time></trkpt><trkpt lat="43.7724433" lon="12.201345"><ele>423.3333333333333</ele><time>2026-03-29T08:32:41.575Z</time></trkpt><trkpt lat="43.7722717" lon="12.2013733"><ele>424.66666666666663</ele><time>2026-03-29T08:32:42.576Z</time></trkpt><trkpt lat="43.772095" lon="12.2013733"><ele>426.0</ele><time>2026-03-29T08:32:43.576Z</time></trkpt><trkpt lat="43.771915" lon="12.2013417"><ele>426.0</ele><time>2026-03-29T08:32:44.576Z</time></trkpt><trkpt lat="43.77175" lon="12.20128"><ele>426.0</ele><time>2026-03-29T08:32:45.576Z</time></trkpt><trkpt lat="43.771575" lon="12.2011733"><ele>426.0</ele><time>2026-03-29T08:32:46.575Z</time></trkpt><trkpt lat="43.771395" lon="12.20105"><ele>426.0</ele><time>2026-03-29T08:32:47.575Z</time></trkpt><trkpt lat="43.7712333" lon="12.2009283"><ele>426.0</ele><time>2026-03-29T08:32:48.576Z</time></trkpt><trkpt lat="43.771085" lon="12.2007983"><ele>426.0</ele><time>2026-03-29T08:32:49.576Z</time></trkpt><trkpt lat="43.7709467" lon="12.2006933"><ele>424.33333333333337</ele><time>2026-03-29T08:32:50.575Z</time></trkpt><trkpt lat="43.7707883" lon="12.200625"><ele>422.6666666666667</ele><time>2026-03-29T08:32:51.576Z</time></trkpt><trkpt lat="43.770615" lon="12.2006"><ele>421.0</ele><time>2026-03-29T08:32:52.576Z</time></trkpt><trkpt lat="43.7704317" lon="12.2006017"><ele>421.0</ele><time>2026-03-29T08:32:53.575Z</time></trkpt><trkpt lat="43.770235" lon="12.200625"><ele>421.0</ele><time>2026-03-29T08:32:54.576Z</time></trkpt><trkpt lat="43.7700417" lon="12.2006517"><ele>421.0</ele><time>2026-03-29T08:32:55.575Z</time></trkpt><trkpt lat="43.7698683" lon="12.2006867"><ele>422.33333333333337</ele><time>2026-03-29T08:32:56.576Z</time></trkpt><trkpt lat="43.7697117" lon="12.20071"><ele>423.66666666666663</ele><time>2026-03-29T08:32:57.575Z</time></trkpt><trkpt lat="43.7695617" lon="12.20071"><ele>425.0</ele><time>2026-03-29T08:32:58.576Z</time></trkpt><trkpt lat="43.769405" lon="12.200665"><ele>425.66666666666663</ele><time>2026-03-29T08:32:59.576Z</time></trkpt><trkpt lat="43.7692417" lon="12.2005683"><ele>426.33333333333337</ele><time>2026-03-29T08:33:00.576Z</time></trkpt><trkpt lat="43.76909" lon="12.2004583"><ele>427.0</ele><time>2026-03-29T08:33:01.575Z</time></trkpt><trkpt lat="43.7689483" lon="12.2003517"><ele>427.0</ele><time>2026-03-29T08:33:02.576Z</time></trkpt><trkpt lat="43.768805" lon="12.20027"><ele>427.0</ele><time>2026-03-29T08:33:03.576Z</time></trkpt><trkpt lat="43.768655" lon="12.200195"><ele>427.0</ele><time>2026-03-29T08:33:04.575Z</time></trkpt><trkpt lat="43.7684967" lon="12.2001383"><ele>429.33333333333337</ele><time>2026-03-29T08:33:05.575Z</time></trkpt><trkpt lat="43.76834" lon="12.2000883"><ele>431.66666666666663</ele><time>2026-03-29T08:33:06.575Z</time></trkpt><trkpt lat="43.7681783" lon="12.200065"><ele>434.0</ele><time>2026-03-29T08:33:07.576Z</time></trkpt><trkpt lat="43.7680167" lon="12.2000817"><ele>434.0</ele><time>2026-03-29T08:33:08.576Z</time></trkpt><trkpt lat="43.7678417" lon="12.20015"><ele>434.0</ele><time>2026-03-29T08:33:09.576Z</time></trkpt><trkpt lat="43.7676683" lon="12.2002267"><ele>434.0</ele><time>2026-03-29T08:33:10.576Z</time></trkpt><trkpt lat="43.7675083" lon="12.200315"><ele>433.3333333333333</ele><time>2026-03-29T08:33:11.576Z</time></trkpt><trkpt lat="43.76735" lon="12.2003883"><ele>432.66666666666663</ele><time>2026-03-29T08:33:12.575Z</time></trkpt><trkpt lat="43.7671967" lon="12.2004417"><ele>432.0</ele><time>2026-03-29T08:33:13.576Z</time></trkpt><trkpt lat="43.7670467" lon="12.2004633"><ele>432.0</ele><time>2026-03-29T08:33:14.576Z</time></trkpt><trkpt lat="43.766905" lon="12.2004517"><ele>432.0</ele><time>2026-03-29T08:33:15.575Z</time></trkpt><trkpt lat="43.7667767" lon="12.20043"><ele>432.0</ele><time>2026-03-29T08:33:16.576Z</time></trkpt><trkpt lat="43.7666467" lon="12.2004133"><ele>432.0</ele><time>2026-03-29T08:33:17.576Z</time></trkpt><trkpt lat="43.76653" lon="12.2003983"><ele>431.8</ele><time>2026-03-29T08:33:18.576Z</time></trkpt><trkpt lat="43.7664267" lon="12.200365"><ele>431.6</ele><time>2026-03-29T08:33:19.576Z</time></trkpt><trkpt lat="43.7663383" lon="12.2003133"><ele>431.40000000000003</ele><time>2026-03-29T08:33:20.576Z</time></trkpt><trkpt lat="43.7662467" lon="12.2002367"><ele>431.20000000000005</ele><time>2026-03-29T08:33:21.575Z</time></trkpt><trkpt lat="43.7661517" lon="12.2001233"><ele>431.0</ele><time>2026-03-29T08:33:22.575Z</time></trkpt><trkpt lat="43.7660617" lon="12.1999717"><ele>431.3333333333333</ele><time>2026-03-29T08:33:23.576Z</time></trkpt><trkpt lat="43.76597" lon="12.199795"><ele>431.66666666666663</ele><time>2026-03-29T08:33:24.576Z</time></trkpt><trkpt lat="43.765875" lon="12.1996117"><ele>432.0</ele><time>2026-03-29T08:33:25.575Z</time></trkpt><trkpt lat="43.7657917" lon="12.19944"><ele>432.0</ele><time>2026-03-29T08:33:26.576Z</time></trkpt><trkpt lat="43.765715" lon="12.199275"><ele>432.0</ele><time>2026-03-29T08:33:27.576Z</time></trkpt><trkpt lat="43.765635" lon="12.1991267"><ele>432.0</ele><time>2026-03-29T08:33:28.576Z</time></trkpt><trkpt lat="43.76554" lon="12.19899"><ele>432.0</ele><time>2026-03-29T08:33:29.575Z</time></trkpt><trkpt lat="43.7654183" lon="12.1988817"><ele>431.0</ele><time>2026-03-29T08:33:30.575Z</time></trkpt><trkpt lat="43.7652667" lon="12.1988067"><ele>430.0</ele><time>2026-03-29T08:33:31.575Z</time></trkpt><trkpt lat="43.7651067" lon="12.1987283"><ele>429.0</ele><time>2026-03-29T08:33:32.575Z</time></trkpt><trkpt lat="43.7649417" lon="12.198655"><ele>431.66666666666663</ele><time>2026-03-29T08:33:33.576Z</time></trkpt><trkpt lat="43.764785" lon="12.19858"><ele>434.3333333333333</ele><time>2026-03-29T08:33:34.576Z</time></trkpt><trkpt lat="43.7646333" lon="12.1985117"><ele>437.0</ele><time>2026-03-29T08:33:35.576Z</time></trkpt><trkpt lat="43.7645117" lon="12.19845"><ele>437.0</ele><time>2026-03-29T08:33:36.576Z</time></trkpt><trkpt lat="43.7643733" lon="12.1983917"><ele>437.0</ele><time>2026-03-29T08:33:37.576Z</time></trkpt><trkpt lat="43.7642233" lon="12.1983567"><ele>437.0</ele><time>2026-03-29T08:33:38.575Z</time></trkpt><trkpt lat="43.764075" lon="12.1983583"><ele>437.0</ele><time>2026-03-29T08:33:39.575Z</time></trkpt><trkpt lat="43.763935" lon="12.198405"><ele>437.0</ele><time>2026-03-29T08:33:40.576Z</time></trkpt><trkpt lat="43.76381" lon="12.198505"><ele>437.0</ele><time>2026-03-29T08:33:41.576Z</time></trkpt><trkpt lat="43.7636633" lon="12.1986567"><ele>437.0</ele><time>2026-03-29T08:33:42.576Z</time></trkpt><trkpt lat="43.7635117" lon="12.1988367"><ele>440.66666666666663</ele><time>2026-03-29T08:33:43.576Z</time></trkpt><trkpt lat="43.76337" lon="12.199005"><ele>444.33333333333337</ele><time>2026-03-29T08:33:44.576Z</time></trkpt><trkpt lat="43.7632367" lon="12.1991617"><ele>448.0</ele><time>2026-03-29T08:33:45.576Z</time></trkpt><trkpt lat="43.7631033" lon="12.1992917"><ele>448.0</ele><time>2026-03-29T08:33:46.575Z</time></trkpt><trkpt lat="43.76296" lon="12.1993917"><ele>448.0</ele><time>2026-03-29T08:33:47.576Z</time></trkpt><trkpt lat="43.7628" lon="12.1994667"><ele>448.0</ele><time>2026-03-29T08:33:48.575Z</time></trkpt><trkpt lat="43.7626167" lon="12.1995183"><ele>447.33333333333337</ele><time>2026-03-29T08:33:49.576Z</time></trkpt><trkpt lat="43.7624333" lon="12.1995383"><ele>446.66666666666663</ele><time>2026-03-29T08:33:50.576Z</time></trkpt><trkpt lat="43.7622483" lon="12.199525"><ele>446.0</ele><time>2026-03-29T08:33:51.575Z</time></trkpt><trkpt lat="43.76207" lon="12.1994967"><ele>446.0</ele><time>2026-03-29T08:33:52.575Z</time></trkpt><trkpt lat="43.7619117" lon="12.1994767"><ele>446.0</ele><time>2026-03-29T08:33:53.576Z</time></trkpt><trkpt lat="43.7617433" lon="12.199455"><ele>446.0</ele><time>2026-03-29T08:33:54.576Z</time></trkpt><trkpt lat="43.7615833" lon="12.19948"><ele>445.0</ele><time>2026-03-29T08:33:55.575Z</time></trkpt><trkpt lat="43.761425" lon="12.19956"><ele>444.0</ele><time>2026-03-29T08:33:56.576Z</time></trkpt><trkpt lat="43.7612933" lon="12.1996967"><ele>443.0</ele><time>2026-03-29T08:33:57.576Z</time></trkpt><trkpt lat="43.7611733" lon="12.199855"><ele>448.0</ele><time>2026-03-29T08:33:58.576Z</time></trkpt><trkpt lat="43.7610383" lon="12.199995"><ele>453.0</ele><time>2026-03-29T08:33:59.575Z</time></trkpt><trkpt lat="43.76088" lon="12.200085"><ele>458.0</ele><time>2026-03-29T08:34:00.576Z</time></trkpt><trkpt lat="43.760715" lon="12.2001167"><ele>458.0</ele><time>2026-03-29T08:34:01.575Z</time></trkpt><trkpt lat="43.7605367" lon="12.2001133"><ele>458.0</ele><time>2026-03-29T08:34:02.576Z</time></trkpt><trkpt lat="43.7603517" lon="12.2000783"><ele>458.0</ele><time>2026-03-29T08:34:03.576Z</time></trkpt><trkpt lat="43.760155" lon="12.2000417"><ele>460.0</ele><time>2026-03-29T08:34:04.576Z</time></trkpt><trkpt lat="43.7599683" lon="12.2000083"><ele>462.0</ele><time>2026-03-29T08:34:05.576Z</time></trkpt><trkpt lat="43.75979" lon="12.1999667"><ele>464.0</ele><time>2026-03-29T08:34:06.576Z</time></trkpt><trkpt lat="43.7596267" lon="12.1999083"><ele>463.66666666666663</ele><time>2026-03-29T08:34:07.575Z</time></trkpt><trkpt lat="43.7594583" lon="12.1998317"><ele>463.33333333333337</ele><time>2026-03-29T08:34:08.575Z</time></trkpt><trkpt lat="43.7593" lon="12.199725"><ele>463.0</ele><time>2026-03-29T08:34:09.575Z</time></trkpt><trkpt lat="43.759155" lon="12.199595"><ele>463.0</ele><time>2026-03-29T08:34:10.576Z</time></trkpt><trkpt lat="43.7590283" lon="12.1994417"><ele>463.0</ele><time>2026-03-29T08:34:11.576Z</time></trkpt><trkpt lat="43.7589083" lon="12.1992417"><ele>463.0</ele><time>2026-03-29T08:34:12.576Z</time></trkpt><trkpt lat="43.7587717" lon="12.1990133"><ele>456.5</ele><time>2026-03-29T08:34:13.576Z</time></trkpt><trkpt lat="43.7586317" lon="12.1987567"><ele>450.0</ele><time>2026-03-29T08:34:14.576Z</time></trkpt><trkpt lat="43.7585" lon="12.1985167"><ele>457.33333333333337</ele><time>2026-03-29T08:34:15.575Z</time></trkpt><trkpt lat="43.7583767" lon="12.1982967"><ele>464.6666666666667</ele><time>2026-03-29T08:34:16.576Z</time></trkpt><trkpt lat="43.758265" lon="12.198085"><ele>472.0</ele><time>2026-03-29T08:34:17.575Z</time></trkpt><trkpt lat="43.7581617" lon="12.1978883"><ele>472.0</ele><time>2026-03-29T08:34:18.575Z</time></trkpt><trkpt lat="43.7580667" lon="12.197715"><ele>472.0</ele><time>2026-03-29T08:34:19.576Z</time></trkpt><trkpt lat="43.7579667" lon="12.1975433"><ele>472.0</ele><time>2026-03-29T08:34:20.575Z</time></trkpt><trkpt lat="43.7578533" lon="12.1973967"><ele>475.0</ele><time>2026-03-29T08:34:21.575Z</time></trkpt><trkpt lat="43.75771" lon="12.1972867"><ele>478.0</ele><time>2026-03-29T08:34:22.575Z</time></trkpt><trkpt lat="43.75757" lon="12.1972117"><ele>481.0</ele><time>2026-03-29T08:34:23.576Z</time></trkpt><trkpt lat="43.7574417" lon="12.19714"><ele>481.0</ele><time>2026-03-29T08:34:24.575Z</time></trkpt><trkpt lat="43.75733" lon="12.197015"><ele>481.0</ele><time>2026-03-29T08:34:25.576Z</time></trkpt><trkpt lat="43.7572267" lon="12.1968567"><ele>481.0</ele><time>2026-03-29T08:34:26.576Z</time></trkpt><trkpt lat="43.75714" lon="12.19668"><ele>478.33333333333337</ele><time>2026-03-29T08:34:27.576Z</time></trkpt><trkpt lat="43.7570617" lon="12.196465"><ele>475.66666666666663</ele><time>2026-03-29T08:34:28.576Z</time></trkpt><trkpt lat="43.7569967" lon="12.1962383"><ele>473.0</ele><time>2026-03-29T08:34:29.576Z</time></trkpt><trkpt lat="43.7569433" lon="12.196035"><ele>473.0</ele><time>2026-03-29T08:34:30.575Z</time></trkpt><trkpt lat="43.7568817" lon="12.195865"><ele>473.0</ele><time>2026-03-29T08:34:31.575Z</time></trkpt><trkpt lat="43.7568017" lon="12.1957217"><ele>473.0</ele><time>2026-03-29T08:34:32.576Z</time></trkpt><trkpt lat="43.7567" lon="12.1956083"><ele>473.0</ele><time>2026-03-29T08:34:33.576Z</time></trkpt><trkpt lat="43.7565817" lon="12.1955367"><ele>475.0</ele><time>2026-03-29T08:34:34.576Z</time></trkpt><trkpt lat="43.7564533" lon="12.1955083"><ele>477.0</ele><time>2026-03-29T08:34:35.576Z</time></trkpt><trkpt lat="43.7563083" lon="12.1955583"><ele>479.0</ele><time>2026-03-29T08:34:36.576Z</time></trkpt><trkpt lat="43.7561667" lon="12.1956617"><ele>481.0</ele><time>2026-03-29T08:34:37.576Z</time></trkpt><trkpt lat="43.7560133" lon="12.1958267"><ele>481.0</ele><time>2026-03-29T08:34:38.576Z</time></trkpt><trkpt lat="43.75585" lon="12.1960467"><ele>481.0</ele><time>2026-03-29T08:34:39.576Z</time></trkpt><trkpt lat="43.7556833" lon="12.19628"><ele>490.0</ele><time>2026-03-29T08:34:40.576Z</time></trkpt><trkpt lat="43.7555233" lon="12.1965067"><ele>499.0</ele><time>2026-03-29T08:34:41.576Z</time></trkpt><trkpt lat="43.7553667" lon="12.1967117"><ele>508.0</ele><time>2026-03-29T08:34:42.575Z</time></trkpt><trkpt lat="43.7552233" lon="12.19691"><ele>501.33333333333337</ele><time>2026-03-29T08:34:43.575Z</time></trkpt><trkpt lat="43.7550867" lon="12.1970767"><ele>494.66666666666663</ele><time>2026-03-29T08:34:44.576Z</time></trkpt><trkpt lat="43.7549483" lon="12.1971967"><ele>488.0</ele><time>2026-03-29T08:34:45.576Z</time></trkpt><trkpt lat="43.75479" lon="12.1972633"><ele>488.0</ele><time>2026-03-29T08:34:46.576Z</time></trkpt><trkpt lat="43.754625" lon="12.1972833"><ele>488.0</ele><time>2026-03-29T08:34:47.576Z</time></trkpt><trkpt lat="43.7544517" lon="12.1972567"><ele>488.0</ele><time>2026-03-29T08:34:48.576Z</time></trkpt><trkpt lat="43.7542817" lon="12.1972017"><ele>485.0</ele><time>2026-03-29T08:34:49.575Z</time></trkpt><trkpt lat="43.754115" lon="12.1971233"><ele>482.0</ele><time>2026-03-29T08:34:50.575Z</time></trkpt><trkpt lat="43.7539483" lon="12.197065"><ele>479.0</ele><time>2026-03-29T08:34:51.576Z</time></trkpt><trkpt lat="43.75377" lon="12.1970383"><ele>479.0</ele><time>2026-03-29T08:34:52.576Z</time></trkpt><trkpt lat="43.7535933" lon="12.1970733"><ele>479.0</ele><time>2026-03-29T08:34:53.575Z</time></trkpt><trkpt lat="43.7534183" lon="12.1971583"><ele>479.0</ele><time>2026-03-29T08:34:54.576Z</time></trkpt><trkpt lat="43.753255" lon="12.197275"><ele>486.0</ele><time>2026-03-29T08:34:55.575Z</time></trkpt><trkpt lat="43.7531183" lon="12.1974233"><ele>493.0</ele><time>2026-03-29T08:34:56.575Z</time></trkpt><trkpt lat="43.753" lon="12.19757"><ele>500.0</ele><time>2026-03-29T08:34:57.576Z</time></trkpt><trkpt lat="43.7528783" lon="12.1977083"><ele>500.0</ele><time>2026-03-29T08:34:58.576Z</time></trkpt><trkpt lat="43.75275" lon="12.1978167"><ele>500.0</ele><time>2026-03-29T08:34:59.575Z</time></trkpt><trkpt lat="43.75261" lon="12.197875"><ele>500.0</ele><time>2026-03-29T08:35:00.575Z</time></trkpt><trkpt lat="43.7524533" lon="12.1979083"><ele>497.0</ele><time>2026-03-29T08:35:01.576Z</time></trkpt><trkpt lat="43.7522933" lon="12.1979"><ele>494.0</ele><time>2026-03-29T08:35:02.575Z</time></trkpt><trkpt lat="43.7521283" lon="12.1978717"><ele>491.0</ele><time>2026-03-29T08:35:03.576Z</time></trkpt><trkpt lat="43.7519533" lon="12.1978433"><ele>489.66666666666663</ele><time>2026-03-29T08:35:04.576Z</time></trkpt><trkpt lat="43.751775" lon="12.19783"><ele>488.33333333333337</ele><time>2026-03-29T08:35:05.576Z</time></trkpt><trkpt lat="43.751595" lon="12.1978583"><ele>487.0</ele><time>2026-03-29T08:35:06.575Z</time></trkpt><trkpt lat="43.7514233" lon="12.1979367"><ele>487.0</ele><time>2026-03-29T08:35:07.576Z</time></trkpt><trkpt lat="43.7512483" lon="12.1980717"><ele>487.0</ele><time>2026-03-29T08:35:08.576Z</time></trkpt><trkpt lat="43.7510983" lon="12.198245"><ele>487.0</ele><time>2026-03-29T08:35:09.576Z</time></trkpt><trkpt lat="43.7509683" lon="12.1984233"><ele>487.0</ele><time>2026-03-29T08:35:10.576Z</time></trkpt><trkpt lat="43.7508667" lon="12.1985933"><ele>487.0</ele><time>2026-03-29T08:35:11.575Z</time></trkpt><trkpt lat="43.7507733" lon="12.19875"><ele>487.0</ele><time>2026-03-29T08:35:12.575Z</time></trkpt><trkpt lat="43.7506467" lon="12.1988583"><ele>487.0</ele><time>2026-03-29T08:35:13.576Z</time></trkpt><trkpt lat="43.7504917" lon="12.1989317"><ele>487.0</ele><time>2026-03-29T08:35:14.576Z</time></trkpt><trkpt lat="43.7503167" lon="12.199005"><ele>487.0</ele><time>2026-03-29T08:35:15.575Z</time></trkpt><trkpt lat="43.7501367" lon="12.1990683"><ele>490.6666666666667</ele><time>2026-03-29T08:35:16.575Z</time></trkpt><trkpt lat="43.749945" lon="12.1991267"><ele>494.33333333333337</ele><time>2026-03-29T08:35:17.576Z</time></trkpt><trkpt lat="43.7497533" lon="12.199155"><ele>498.0</ele><time>2026-03-29T08:35:18.576Z</time></trkpt><trkpt lat="43.749575" lon="12.19918"><ele>498.0</ele><time>2026-03-29T08:35:19.575Z</time></trkpt><trkpt lat="43.7494083" lon="12.199205"><ele>498.0</ele><time>2026-03-29T08:35:20.575Z</time></trkpt><trkpt lat="43.7492417" lon="12.1992233"><ele>498.0</ele><time>2026-03-29T08:35:21.575Z</time></trkpt><trkpt lat="43.7490633" lon="12.1992217"><ele>499.33333333333337</ele><time>2026-03-29T08:35:22.576Z</time></trkpt><trkpt lat="43.7488867" lon="12.19919"><ele>500.6666666666667</ele><time>2026-03-29T08:35:23.575Z</time></trkpt><trkpt lat="43.7487233" lon="12.1991367"><ele>502.0</ele><time>2026-03-29T08:35:24.576Z</time></trkpt><trkpt lat="43.7485733" lon="12.1990483"><ele>497.33333333333337</ele><time>2026-03-29T08:35:25.576Z</time></trkpt><trkpt lat="43.748425" lon="12.1989167"><ele>492.66666666666663</ele><time>2026-03-29T08:35:26.576Z</time></trkpt><trkpt lat="43.7482983" lon="12.1987083"><ele>488.0</ele><time>2026-03-29T08:35:27.576Z</time></trkpt><trkpt lat="43.748175" lon="12.1985217"><ele>488.0</ele><time>2026-03-29T08:35:28.576Z</time></trkpt><trkpt lat="43.7480717" lon="12.19835"><ele>488.0</ele><time>2026-03-29T08:35:29.575Z</time></trkpt><trkpt lat="43.7479667" lon="12.1982167"><ele>488.0</ele><time>2026-03-29T08:35:30.575Z</time></trkpt><trkpt lat="43.7478333" lon="12.1980817"><ele>484.66666666666663</ele><time>2026-03-29T08:35:31.575Z</time></trkpt><trkpt lat="43.747675" lon="12.19799"><ele>481.33333333333337</ele><time>2026-03-29T08:35:32.576Z</time></trkpt><trkpt lat="43.74751" lon="12.1979183"><ele>478.0</ele><time>2026-03-29T08:35:33.575Z</time></trkpt><trkpt lat="43.7473517" lon="12.197855"><ele>478.0</ele><time>2026-03-29T08:35:34.576Z</time></trkpt><trkpt lat="43.747205" lon="12.1978117"><ele>478.0</ele><time>2026-03-29T08:35:35.576Z</time></trkpt><trkpt lat="43.747055" lon="12.197795"><ele>478.0</ele><time>2026-03-29T08:35:36.576Z</time></trkpt><trkpt lat="43.7469117" lon="12.1978217"><ele>478.0</ele><time>2026-03-29T08:35:37.576Z</time></trkpt><trkpt lat="43.7467533" lon="12.1979067"><ele>478.0</ele><time>2026-03-29T08:35:38.576Z</time></trkpt><trkpt lat="43.7465683" lon="12.198005"><ele>478.0</ele><time>2026-03-29T08:35:39.576Z</time></trkpt><trkpt lat="43.74638" lon="12.1981233"><ele>478.0</ele><time>2026-03-29T08:35:40.575Z</time></trkpt><trkpt lat="43.7461983" lon="12.19825"><ele>479.6666666666667</ele><time>2026-03-29T08:35:41.575Z</time></trkpt><trkpt lat="43.7460267" lon="12.19837"><ele>481.33333333333337</ele><time>2026-03-29T08:35:42.576Z</time></trkpt><trkpt lat="43.74586" lon="12.1985117"><ele>483.0</ele><time>2026-03-29T08:35:43.576Z</time></trkpt><trkpt lat="43.7456967" lon="12.1986883"><ele>483.0</ele><time>2026-03-29T08:35:44.576Z</time></trkpt><trkpt lat="43.7455267" lon="12.198905"><ele>483.0</ele><time>2026-03-29T08:35:45.576Z</time></trkpt><trkpt lat="43.7453567" lon="12.1991183"><ele>482.0</ele><time>2026-03-29T08:35:46.575Z</time></trkpt><trkpt lat="43.7451883" lon="12.1993367"><ele>481.0</ele><time>2026-03-29T08:35:47.576Z</time></trkpt><trkpt lat="43.74503" lon="12.1995583"><ele>481.0</ele><time>2026-03-29T08:35:48.576Z</time></trkpt><trkpt lat="43.7448867" lon="12.1997817"><ele>481.0</ele><time>2026-03-29T08:35:49.576Z</time></trkpt><trkpt lat="43.7447567" lon="12.200015"><ele>481.0</ele><time>2026-03-29T08:35:50.576Z</time></trkpt><trkpt lat="43.7446483" lon="12.2002517"><ele>485.33333333333337</ele><time>2026-03-29T08:35:51.575Z</time></trkpt><trkpt lat="43.744565" lon="12.200495"><ele>489.66666666666663</ele><time>2026-03-29T08:35:52.576Z</time></trkpt><trkpt lat="43.7444917" lon="12.20072"><ele>494.0</ele><time>2026-03-29T08:35:53.576Z</time></trkpt><trkpt lat="43.74441" lon="12.200935"><ele>493.0</ele><time>2026-03-29T08:35:54.576Z</time></trkpt><trkpt lat="43.7443083" lon="12.2011317"><ele>492.0</ele><time>2026-03-29T08:35:55.575Z</time></trkpt><trkpt lat="43.744185" lon="12.2013183"><ele>491.0</ele><time>2026-03-29T08:35:56.575Z</time></trkpt><trkpt lat="43.7439933" lon="12.201665"><ele>491.0</ele><time>2026-03-29T08:35:57.683Z</time></trkpt><trkpt lat="43.743865" lon="12.2018817"><ele>491.0</ele><time>2026-03-29T08:35:59.074Z</time></trkpt><trkpt lat="43.7437533" lon="12.2019683"><ele>491.0</ele><time>2026-03-29T08:36:00.074Z</time></trkpt><trkpt lat="43.7436283" lon="12.20206"><ele>488.66666666666663</ele><time>2026-03-29T08:36:01.074Z</time></trkpt><trkpt lat="43.74349" lon="12.2021483"><ele>486.33333333333337</ele><time>2026-03-29T08:36:02.073Z</time></trkpt><trkpt lat="43.7432133" lon="12.2021817"><ele>484.0</ele><time>2026-03-29T08:36:03.574Z</time></trkpt><trkpt lat="43.7430217" lon="12.2021683"><ele>484.0</ele><time>2026-03-29T08:36:04.573Z</time></trkpt><trkpt lat="43.74283" lon="12.2021367"><ele>484.0</ele><time>2026-03-29T08:36:05.574Z</time></trkpt><trkpt lat="43.7426517" lon="12.20207"><ele>484.0</ele><time>2026-03-29T08:36:06.574Z</time></trkpt><trkpt lat="43.742505" lon="12.2019867"><ele>485.0</ele><time>2026-03-29T08:36:07.574Z</time></trkpt><trkpt lat="43.7423783" lon="12.2019183"><ele>486.0</ele><time>2026-03-29T08:36:08.574Z</time></trkpt><trkpt lat="43.7422733" lon="12.2018883"><ele>487.0</ele><time>2026-03-29T08:36:09.574Z</time></trkpt><trkpt lat="43.742165" lon="12.2018917"><ele>488.0</ele><time>2026-03-29T08:36:10.573Z</time></trkpt><trkpt lat="43.7420683" lon="12.20196"><ele>488.0</ele><time>2026-03-29T08:36:11.573Z</time></trkpt><trkpt lat="43.7420117" lon="12.2021117"><ele>488.0</ele><time>2026-03-29T08:36:12.574Z</time></trkpt><trkpt lat="43.741975" lon="12.20231"><ele>488.0</ele><time>2026-03-29T08:36:13.573Z</time></trkpt><trkpt lat="43.7419417" lon="12.2024967"><ele>488.0</ele><time>2026-03-29T08:36:14.574Z</time></trkpt><trkpt lat="43.7419" lon="12.20264"><ele>490.4</ele><time>2026-03-29T08:36:15.574Z</time></trkpt><trkpt lat="43.7418533" lon="12.20273"><ele>492.79999999999995</ele><time>2026-03-29T08:36:16.574Z</time></trkpt><trkpt lat="43.7417917" lon="12.2027867"><ele>495.2</ele><time>2026-03-29T08:36:17.574Z</time></trkpt><trkpt lat="43.7417067" lon="12.2027983"><ele>497.6</ele><time>2026-03-29T08:36:18.574Z</time></trkpt><trkpt lat="43.7416017" lon="12.202755"><ele>500.0</ele><time>2026-03-29T08:36:19.573Z</time></trkpt><trkpt lat="43.74148" lon="12.202675"><ele>500.0</ele><time>2026-03-29T08:36:20.574Z</time></trkpt><trkpt lat="43.7413683" lon="12.2025467"><ele>500.0</ele><time>2026-03-29T08:36:21.574Z</time></trkpt><trkpt lat="43.7412867" lon="12.20238"><ele>500.0</ele><time>2026-03-29T08:36:22.573Z</time></trkpt><trkpt lat="43.7412417" lon="12.20218"><ele>500.0</ele><time>2026-03-29T08:36:23.574Z</time></trkpt><trkpt lat="43.74122" lon="12.2019867"><ele>497.25</ele><time>2026-03-29T08:36:24.574Z</time></trkpt><trkpt lat="43.7412067" lon="12.2018167"><ele>494.5</ele><time>2026-03-29T08:36:25.573Z</time></trkpt><trkpt lat="43.741175" lon="12.2016683"><ele>491.75</ele><time>2026-03-29T08:36:26.573Z</time></trkpt><trkpt lat="43.7411167" lon="12.2015533"><ele>489.0</ele><time>2026-03-29T08:36:27.574Z</time></trkpt><trkpt lat="43.7410067" lon="12.2014817"><ele>485.33333333333337</ele><time>2026-03-29T08:36:28.573Z</time></trkpt><trkpt lat="43.7408567" lon="12.2014517"><ele>481.6666666666667</ele><time>2026-03-29T08:36:29.573Z</time></trkpt><trkpt lat="43.740685" lon="12.201475"><ele>478.0</ele><time>2026-03-29T08:36:30.574Z</time></trkpt><trkpt lat="43.7404867" lon="12.2015133"><ele>493.0</ele><time>2026-03-29T08:36:31.573Z</time></trkpt><trkpt lat="43.740275" lon="12.2015533"><ele>508.0</ele><time>2026-03-29T08:36:32.574Z</time></trkpt><trkpt lat="43.7400383" lon="12.2016"><ele>512.5</ele><time>2026-03-29T08:36:33.573Z</time></trkpt><trkpt lat="43.7398033" lon="12.2016433"><ele>517.0</ele><time>2026-03-29T08:36:34.574Z</time></trkpt><trkpt lat="43.7395933" lon="12.2016883"><ele>517.0</ele><time>2026-03-29T08:36:35.574Z</time></trkpt><trkpt lat="43.7393983" lon="12.2017233"><ele>517.0</ele><time>2026-03-29T08:36:36.574Z</time></trkpt><trkpt lat="43.7392283" lon="12.2017517"><ele>517.0</ele><time>2026-03-29T08:36:37.573Z</time></trkpt><trkpt lat="43.7390833" lon="12.20177"><ele>519.5</ele><time>2026-03-29T08:36:38.573Z</time></trkpt><trkpt lat="43.7389533" lon="12.20176"><ele>522.0</ele><time>2026-03-29T08:36:39.573Z</time></trkpt><trkpt lat="43.7388467" lon="12.2016833"><ele>524.5</ele><time>2026-03-29T08:36:40.574Z</time></trkpt><trkpt lat="43.73878" lon="12.2015633"><ele>527.0</ele><time>2026-03-29T08:36:41.574Z</time></trkpt><trkpt lat="43.7387433" lon="12.2013917"><ele>527.75</ele><time>2026-03-29T08:36:42.573Z</time></trkpt><trkpt lat="43.7387167" lon="12.2011983"><ele>528.5</ele><time>2026-03-29T08:36:43.574Z</time></trkpt><trkpt lat="43.7386883" lon="12.2010033"><ele>529.25</ele><time>2026-03-29T08:36:44.574Z</time></trkpt><trkpt lat="43.7386317" lon="12.2008217"><ele>530.0</ele><time>2026-03-29T08:36:45.574Z</time></trkpt><trkpt lat="43.7385433" lon="12.20067"><ele>520.0</ele><time>2026-03-29T08:36:46.574Z</time></trkpt><trkpt lat="43.7384317" lon="12.2005533"><ele>510.0</ele><time>2026-03-29T08:36:47.574Z</time></trkpt><trkpt lat="43.7383083" lon="12.200485"><ele>500.0</ele><time>2026-03-29T08:36:48.573Z</time></trkpt><trkpt lat="43.7381883" lon="12.200455"><ele>490.0</ele><time>2026-03-29T08:36:49.574Z</time></trkpt><trkpt lat="43.7380733" lon="12.2004833"><ele>490.0</ele><time>2026-03-29T08:36:50.574Z</time></trkpt><trkpt lat="43.7379617" lon="12.2005683"><ele>490.0</ele><time>2026-03-29T08:36:51.573Z</time></trkpt><trkpt lat="43.73786" lon="12.20071"><ele>490.0</ele><time>2026-03-29T08:36:52.574Z</time></trkpt><trkpt lat="43.737725" lon="12.20086"><ele>490.0</ele><time>2026-03-29T08:36:53.574Z</time></trkpt><trkpt lat="43.7375567" lon="12.2010017"><ele>500.0</ele><time>2026-03-29T08:36:54.574Z</time></trkpt><trkpt lat="43.737375" lon="12.2011217"><ele>510.0</ele><time>2026-03-29T08:36:55.574Z</time></trkpt><trkpt lat="43.7371867" lon="12.2012567"><ele>520.0</ele><time>2026-03-29T08:36:56.574Z</time></trkpt><trkpt lat="43.7369967" lon="12.201385"><ele>519.6666666666667</ele><time>2026-03-29T08:36:57.573Z</time></trkpt><trkpt lat="43.7368117" lon="12.2014917"><ele>519.3333333333334</ele><time>2026-03-29T08:36:58.573Z</time></trkpt><trkpt lat="43.7366383" lon="12.201575"><ele>519.0</ele><time>2026-03-29T08:36:59.574Z</time></trkpt><trkpt lat="43.7364667" lon="12.2016417"><ele>524.25</ele><time>2026-03-29T08:37:00.573Z</time></trkpt><trkpt lat="43.7363117" lon="12.201675"><ele>529.5</ele><time>2026-03-29T08:37:01.574Z</time></trkpt><trkpt lat="43.7361683" lon="12.201675"><ele>534.75</ele><time>2026-03-29T08:37:02.574Z</time></trkpt><trkpt lat="43.736045" lon="12.2016267"><ele>540.0</ele><time>2026-03-29T08:37:03.574Z</time></trkpt><trkpt lat="43.73594" lon="12.2015317"><ele>539.0</ele><time>2026-03-29T08:37:04.573Z</time></trkpt><trkpt lat="43.7358633" lon="12.2013883"><ele>538.0</ele><time>2026-03-29T08:37:05.573Z</time></trkpt><trkpt lat="43.73583" lon="12.201205"><ele>537.0</ele><time>2026-03-29T08:37:06.574Z</time></trkpt><trkpt lat="43.7358267" lon="12.2010183"><ele>536.0</ele><time>2026-03-29T08:37:07.574Z</time></trkpt><trkpt lat="43.735825" lon="12.2008333"><ele>531.25</ele><time>2026-03-29T08:37:08.574Z</time></trkpt><trkpt lat="43.7357883" lon="12.200665"><ele>526.5</ele><time>2026-03-29T08:37:09.573Z</time></trkpt><trkpt lat="43.7357067" lon="12.2004983"><ele>521.75</ele><time>2026-03-29T08:37:10.573Z</time></trkpt><trkpt lat="43.735575" lon="12.2003683"><ele>517.0</ele><time>2026-03-29T08:37:11.573Z</time></trkpt><trkpt lat="43.7353967" lon="12.2002333"><ele>525.3333333333334</ele><time>2026-03-29T08:37:12.574Z</time></trkpt><trkpt lat="43.735215" lon="12.2000933"><ele>533.6666666666666</ele><time>2026-03-29T08:37:13.573Z</time></trkpt><trkpt lat="43.7350417" lon="12.1999567"><ele>542.0</ele><time>2026-03-29T08:37:14.574Z</time></trkpt><trkpt lat="43.7348833" lon="12.1998417"><ele>528.6666666666666</ele><time>2026-03-29T08:37:15.574Z</time></trkpt><trkpt lat="43.7347433" lon="12.199745"><ele>515.3333333333334</ele><time>2026-03-29T08:37:16.573Z</time></trkpt><trkpt lat="43.734585" lon="12.1996617"><ele>502.0</ele><time>2026-03-29T08:37:17.574Z</time></trkpt><trkpt lat="43.7344117" lon="12.1996067"><ele>509.33333333333337</ele><time>2026-03-29T08:37:18.574Z</time></trkpt><trkpt lat="43.73423" lon="12.199575"><ele>516.6666666666666</ele><time>2026-03-29T08:37:19.573Z</time></trkpt><trkpt lat="43.73407" lon="12.1995667"><ele>524.0</ele><time>2026-03-29T08:37:20.574Z</time></trkpt><trkpt lat="43.7339117" lon="12.1995517"><ele>524.0</ele><time>2026-03-29T08:37:21.573Z</time></trkpt><trkpt lat="43.73375" lon="12.1995"><ele>524.0</ele><time>2026-03-29T08:37:22.574Z</time></trkpt><trkpt lat="43.73358" lon="12.1994117"><ele>524.0</ele><time>2026-03-29T08:37:23.574Z</time></trkpt><trkpt lat="43.73341" lon="12.1992917"><ele>529.6666666666666</ele><time>2026-03-29T08:37:24.574Z</time></trkpt><trkpt lat="43.7332517" lon="12.1991767"><ele>535.3333333333334</ele><time>2026-03-29T08:37:25.574Z</time></trkpt><trkpt lat="43.7331" lon="12.1990833"><ele>541.0</ele><time>2026-03-29T08:37:26.574Z</time></trkpt><trkpt lat="43.7329633" lon="12.199005"><ele>543.3333333333334</ele><time>2026-03-29T08:37:27.573Z</time></trkpt><trkpt lat="43.73282" lon="12.1989633"><ele>545.6666666666666</ele><time>2026-03-29T08:37:28.574Z</time></trkpt><trkpt lat="43.7326567" lon="12.1989867"><ele>548.0</ele><time>2026-03-29T08:37:29.574Z</time></trkpt><trkpt lat="43.7325033" lon="12.1990433"><ele>548.0</ele><time>2026-03-29T08:37:30.573Z</time></trkpt><trkpt lat="43.7323683" lon="12.1990983"><ele>548.0</ele><time>2026-03-29T08:37:31.574Z</time></trkpt><trkpt lat="43.7322317" lon="12.1991133"><ele>548.0</ele><time>2026-03-29T08:37:32.574Z</time></trkpt><trkpt lat="43.7320917" lon="12.1990683"><ele>548.0</ele><time>2026-03-29T08:37:33.574Z</time></trkpt><trkpt lat="43.731965" lon="12.1989617"><ele>545.0</ele><time>2026-03-29T08:37:34.574Z</time></trkpt><trkpt lat="43.7318683" lon="12.198815"><ele>542.0</ele><time>2026-03-29T08:37:35.573Z</time></trkpt><trkpt lat="43.731785" lon="12.19869"><ele>539.0</ele><time>2026-03-29T08:37:36.574Z</time></trkpt><trkpt lat="43.7317017" lon="12.1985833"><ele>536.0</ele><time>2026-03-29T08:37:37.574Z</time></trkpt><trkpt lat="43.7315867" lon="12.1985183"><ele>536.0</ele><time>2026-03-29T08:37:38.574Z</time></trkpt><trkpt lat="43.7314433" lon="12.1984933"><ele>536.0</ele><time>2026-03-29T08:37:39.573Z</time></trkpt><trkpt lat="43.7312733" lon="12.1985417"><ele>536.0</ele><time>2026-03-29T08:37:40.574Z</time></trkpt><trkpt lat="43.7310917" lon="12.1985967"><ele>537.3333333333333</ele><time>2026-03-29T08:37:41.573Z</time></trkpt><trkpt lat="43.7309167" lon="12.19863"><ele>538.6666666666666</ele><time>2026-03-29T08:37:42.574Z</time></trkpt><trkpt lat="43.7307533" lon="12.1986267"><ele>540.0</ele><time>2026-03-29T08:37:43.574Z</time></trkpt><trkpt lat="43.7305917" lon="12.1985783"><ele>540.0</ele><time>2026-03-29T08:37:44.574Z</time></trkpt><trkpt lat="43.730425" lon="12.1984817"><ele>540.0</ele><time>2026-03-29T08:37:45.574Z</time></trkpt><trkpt lat="43.7302533" lon="12.1983633"><ele>540.0</ele><time>2026-03-29T08:37:46.573Z</time></trkpt><trkpt lat="43.7301" lon="12.1982567"><ele>539.75</ele><time>2026-03-29T08:37:47.574Z</time></trkpt><trkpt lat="43.729965" lon="12.1981617"><ele>539.5</ele><time>2026-03-29T08:37:48.574Z</time></trkpt><trkpt lat="43.7298467" lon="12.198045"><ele>539.25</ele><time>2026-03-29T08:37:49.573Z</time></trkpt><trkpt lat="43.7297567" lon="12.1978933"><ele>539.0</ele><time>2026-03-29T08:37:50.574Z</time></trkpt><trkpt lat="43.7296667" lon="12.1977017"><ele>539.0</ele><time>2026-03-29T08:37:51.574Z</time></trkpt><trkpt lat="43.7295683" lon="12.1975067"><ele>539.0</ele><time>2026-03-29T08:37:52.574Z</time></trkpt><trkpt lat="43.7294433" lon="12.1973233"><ele>539.0</ele><time>2026-03-29T08:37:53.573Z</time></trkpt><trkpt lat="43.7292983" lon="12.1971583"><ele>541.0</ele><time>2026-03-29T08:37:54.574Z</time></trkpt><trkpt lat="43.7291533" lon="12.197015"><ele>543.0</ele><time>2026-03-29T08:37:55.573Z</time></trkpt><trkpt lat="43.72901" lon="12.196875"><ele>545.0</ele><time>2026-03-29T08:37:56.574Z</time></trkpt><trkpt lat="43.7288633" lon="12.19675"><ele>545.0</ele><time>2026-03-29T08:37:57.574Z</time></trkpt><trkpt lat="43.7286817" lon="12.1966433"><ele>545.0</ele><time>2026-03-29T08:37:58.574Z</time></trkpt><trkpt lat="43.7284783" lon="12.196565"><ele>545.0</ele><time>2026-03-29T08:37:59.573Z</time></trkpt><trkpt lat="43.7282733" lon="12.1965033"><ele>543.0</ele><time>2026-03-29T08:38:00.574Z</time></trkpt><trkpt lat="43.72809" lon="12.1964233"><ele>541.0</ele><time>2026-03-29T08:38:01.574Z</time></trkpt><trkpt lat="43.7279183" lon="12.1963467"><ele>539.0</ele><time>2026-03-29T08:38:02.573Z</time></trkpt><trkpt lat="43.7277617" lon="12.1962567"><ele>544.6666666666666</ele><time>2026-03-29T08:38:03.574Z</time></trkpt><trkpt lat="43.7276167" lon="12.1961733"><ele>550.3333333333334</ele><time>2026-03-29T08:38:04.574Z</time></trkpt><trkpt lat="43.7274733" lon="12.19608"><ele>556.0</ele><time>2026-03-29T08:38:05.574Z</time></trkpt><trkpt lat="43.72732" lon="12.1959933"><ele>556.0</ele><time>2026-03-29T08:38:06.573Z</time></trkpt><trkpt lat="43.7271433" lon="12.1958967"><ele>556.0</ele><time>2026-03-29T08:38:07.574Z</time></trkpt><trkpt lat="43.7269617" lon="12.19578"><ele>556.0</ele><time>2026-03-29T08:38:08.574Z</time></trkpt><trkpt lat="43.7267767" lon="12.1956533"><ele>560.0</ele><time>2026-03-29T08:38:09.574Z</time></trkpt><trkpt lat="43.7266" lon="12.1955467"><ele>564.0</ele><time>2026-03-29T08:38:10.574Z</time></trkpt><trkpt lat="43.72643" lon="12.1954633"><ele>568.0</ele><time>2026-03-29T08:38:11.573Z</time></trkpt><trkpt lat="43.7262583" lon="12.19536"><ele>568.0</ele><time>2026-03-29T08:38:12.574Z</time></trkpt><trkpt lat="43.7261" lon="12.1952617"><ele>568.0</ele><time>2026-03-29T08:38:13.574Z</time></trkpt><trkpt lat="43.7259383" lon="12.1951433"><ele>568.0</ele><time>2026-03-29T08:38:14.573Z</time></trkpt><trkpt lat="43.7257917" lon="12.1950017"><ele>565.3333333333334</ele><time>2026-03-29T08:38:15.574Z</time></trkpt><trkpt lat="43.72566" lon="12.1948217"><ele>562.6666666666666</ele><time>2026-03-29T08:38:16.573Z</time></trkpt><trkpt lat="43.725555" lon="12.19462"><ele>560.0</ele><time>2026-03-29T08:38:17.574Z</time></trkpt><trkpt lat="43.7254533" lon="12.19443"><ele>560.0</ele><time>2026-03-29T08:38:18.574Z</time></trkpt><trkpt lat="43.7253617" lon="12.194255"><ele>560.0</ele><time>2026-03-29T08:38:19.574Z</time></trkpt><trkpt lat="43.7252817" lon="12.19411"><ele>560.0</ele><time>2026-03-29T08:38:20.574Z</time></trkpt><trkpt lat="43.7252033" lon="12.1939883"><ele>560.0</ele><time>2026-03-29T08:38:21.573Z</time></trkpt><trkpt lat="43.7251067" lon="12.1939133"><ele>558.75</ele><time>2026-03-29T08:38:22.573Z</time></trkpt><trkpt lat="43.7249983" lon="12.1938917"><ele>557.5</ele><time>2026-03-29T08:38:23.573Z</time></trkpt><trkpt lat="43.72489" lon="12.1939417"><ele>556.25</ele><time>2026-03-29T08:38:24.573Z</time></trkpt><trkpt lat="43.7247917" lon="12.194075"><ele>555.0</ele><time>2026-03-29T08:38:25.574Z</time></trkpt><trkpt lat="43.7247117" lon="12.19426"><ele>555.0</ele><time>2026-03-29T08:38:26.574Z</time></trkpt><trkpt lat="43.72462" lon="12.1944483"><ele>555.0</ele><time>2026-03-29T08:38:27.574Z</time></trkpt><trkpt lat="43.7244917" lon="12.1946017"><ele>555.0</ele><time>2026-03-29T08:38:28.574Z</time></trkpt><trkpt lat="43.7243317" lon="12.1947183"><ele>556.0</ele><time>2026-03-29T08:38:29.574Z</time></trkpt><trkpt lat="43.7241433" lon="12.1948"><ele>557.0</ele><time>2026-03-29T08:38:30.574Z</time></trkpt><trkpt lat="43.7239417" lon="12.1948783"><ele>558.0</ele><time>2026-03-29T08:38:31.573Z</time></trkpt><trkpt lat="43.72375" lon="12.19494"><ele>555.0</ele><time>2026-03-29T08:38:32.574Z</time></trkpt><trkpt lat="43.7235533" lon="12.19496"><ele>552.0</ele><time>2026-03-29T08:38:33.574Z</time></trkpt><trkpt lat="43.72335" lon="12.19492"><ele>549.0</ele><time>2026-03-29T08:38:34.574Z</time></trkpt><trkpt lat="43.7231583" lon="12.1948417"><ele>549.3333333333334</ele><time>2026-03-29T08:38:35.574Z</time></trkpt><trkpt lat="43.7229767" lon="12.1947733"><ele>549.6666666666667</ele><time>2026-03-29T08:38:36.574Z</time></trkpt><trkpt lat="43.722815" lon="12.19471"><ele>550.0</ele><time>2026-03-29T08:38:37.574Z</time></trkpt><trkpt lat="43.7226683" lon="12.19464"><ele>550.0</ele><time>2026-03-29T08:38:38.573Z</time></trkpt><trkpt lat="43.7225483" lon="12.1945133"><ele>550.0</ele><time>2026-03-29T08:38:39.574Z</time></trkpt><trkpt lat="43.7224467" lon="12.1943483"><ele>550.0</ele><time>2026-03-29T08:38:40.573Z</time></trkpt><trkpt lat="43.72234" lon="12.1942067"><ele>550.0</ele><time>2026-03-29T08:38:41.574Z</time></trkpt><trkpt lat="43.7222117" lon="12.1941033"><ele>550.0</ele><time>2026-03-29T08:38:42.574Z</time></trkpt><trkpt lat="43.7220717" lon="12.1940417"><ele>550.0</ele><time>2026-03-29T08:38:43.574Z</time></trkpt><trkpt lat="43.7219067" lon="12.1940233"><ele>551.6666666666667</ele><time>2026-03-29T08:38:44.574Z</time></trkpt><trkpt lat="43.7217317" lon="12.19403"><ele>553.3333333333334</ele><time>2026-03-29T08:38:45.573Z</time></trkpt><trkpt lat="43.72156" lon="12.1940383"><ele>555.0</ele><time>2026-03-29T08:38:46.574Z</time></trkpt><trkpt lat="43.72139" lon="12.19405"><ele>555.0</ele><time>2026-03-29T08:38:47.574Z</time></trkpt><trkpt lat="43.7212217" lon="12.1940717"><ele>555.0</ele><time>2026-03-29T08:38:48.574Z</time></trkpt><trkpt lat="43.7210583" lon="12.1940833"><ele>555.0</ele><time>2026-03-29T08:38:49.573Z</time></trkpt><trkpt lat="43.7208933" lon="12.1940933"><ele>555.6666666666666</ele><time>2026-03-29T08:38:50.574Z</time></trkpt><trkpt lat="43.720725" lon="12.194135"><ele>556.3333333333333</ele><time>2026-03-29T08:38:51.574Z</time></trkpt><trkpt lat="43.7205683" lon="12.1942067"><ele>557.0</ele><time>2026-03-29T08:38:52.574Z</time></trkpt><trkpt lat="43.72041" lon="12.1943033"><ele>557.0</ele><time>2026-03-29T08:38:53.574Z</time></trkpt><trkpt lat="43.72025" lon="12.1944083"><ele>557.0</ele><time>2026-03-29T08:38:54.573Z</time></trkpt><trkpt lat="43.7200883" lon="12.19452"><ele>557.0</ele><time>2026-03-29T08:38:55.573Z</time></trkpt><trkpt lat="43.7199217" lon="12.1946233"><ele>555.6666666666666</ele><time>2026-03-29T08:38:56.574Z</time></trkpt><trkpt lat="43.7197633" lon="12.19472"><ele>554.3333333333334</ele><time>2026-03-29T08:38:57.573Z</time></trkpt><trkpt lat="43.7196067" lon="12.1948033"><ele>553.0</ele><time>2026-03-29T08:38:58.574Z</time></trkpt><trkpt lat="43.719445" lon="12.194875"><ele>555.0</ele><time>2026-03-29T08:38:59.574Z</time></trkpt><trkpt lat="43.7192883" lon="12.1949483"><ele>557.0</ele><time>2026-03-29T08:39:00.573Z</time></trkpt><trkpt lat="43.71913" lon="12.1950167"><ele>559.0</ele><time>2026-03-29T08:39:01.574Z</time></trkpt><trkpt lat="43.7189683" lon="12.1950833"><ele>559.0</ele><time>2026-03-29T08:39:02.574Z</time></trkpt><trkpt lat="43.718805" lon="12.19514"><ele>559.0</ele><time>2026-03-29T08:39:03.574Z</time></trkpt><trkpt lat="43.7186433" lon="12.19521"><ele>559.0</ele><time>2026-03-29T08:39:04.574Z</time></trkpt><trkpt lat="43.7184883" lon="12.1952717"><ele>557.3333333333334</ele><time>2026-03-29T08:39:05.574Z</time></trkpt><trkpt lat="43.7183317" lon="12.1953417"><ele>555.6666666666666</ele><time>2026-03-29T08:39:06.574Z</time></trkpt><trkpt lat="43.7181783" lon="12.1954083"><ele>554.0</ele><time>2026-03-29T08:39:07.574Z</time></trkpt><trkpt lat="43.7180267" lon="12.1954667"><ele>554.0</ele><time>2026-03-29T08:39:08.573Z</time></trkpt><trkpt lat="43.7178783" lon="12.195525"><ele>554.0</ele><time>2026-03-29T08:39:09.574Z</time></trkpt><trkpt lat="43.7177333" lon="12.19558"><ele>554.0</ele><time>2026-03-29T08:39:10.574Z</time></trkpt><trkpt lat="43.717595" lon="12.1956367"><ele>554.0</ele><time>2026-03-29T08:39:11.574Z</time></trkpt><trkpt lat="43.7174617" lon="12.19568"><ele>555.0</ele><time>2026-03-29T08:39:12.574Z</time></trkpt><trkpt lat="43.717345" lon="12.1957283"><ele>556.0</ele><time>2026-03-29T08:39:13.574Z</time></trkpt><trkpt lat="43.7172483" lon="12.195775"><ele>557.0</ele><time>2026-03-29T08:39:14.574Z</time></trkpt><trkpt lat="43.7171567" lon="12.1958133"><ele>558.0</ele><time>2026-03-29T08:39:15.574Z</time></trkpt><trkpt lat="43.7170667" lon="12.1958467"><ele>559.0</ele><time>2026-03-29T08:39:16.573Z</time></trkpt><trkpt lat="43.716975" lon="12.19589"><ele>557.8</ele><time>2026-03-29T08:39:17.574Z</time></trkpt><trkpt lat="43.7168733" lon="12.1959333"><ele>556.5999999999999</ele><time>2026-03-29T08:39:18.574Z</time></trkpt><trkpt lat="43.7167617" lon="12.1959783"><ele>555.4</ele><time>2026-03-29T08:39:19.573Z</time></trkpt><trkpt lat="43.7166567" lon="12.1960233"><ele>554.1999999999999</ele><time>2026-03-29T08:39:20.574Z</time></trkpt><trkpt lat="43.7165567" lon="12.1960717"><ele>553.0</ele><time>2026-03-29T08:39:21.573Z</time></trkpt><trkpt lat="43.71647" lon="12.1961233"><ele>553.0</ele><time>2026-03-29T08:39:22.574Z</time></trkpt><trkpt lat="43.7163967" lon="12.1961767"><ele>553.0</ele><time>2026-03-29T08:39:23.574Z</time></trkpt><trkpt lat="43.7163417" lon="12.196235"><ele>553.0</ele><time>2026-03-29T08:39:24.574Z</time></trkpt><trkpt lat="43.7163117" lon="12.1963133"><ele>553.0</ele><time>2026-03-29T08:39:25.574Z</time></trkpt><trkpt lat="43.7162983" lon="12.1964083"><ele>553.0</ele><time>2026-03-29T08:39:26.574Z</time></trkpt><trkpt lat="43.7163083" lon="12.1965217"><ele>553.0</ele><time>2026-03-29T08:39:27.574Z</time></trkpt><trkpt lat="43.7163117" lon="12.19664"><ele>552.4</ele><time>2026-03-29T08:39:28.574Z</time></trkpt><trkpt lat="43.716285" lon="12.19673"><ele>551.8</ele><time>2026-03-29T08:39:29.573Z</time></trkpt><trkpt lat="43.7161633" lon="12.1968083"><ele>551.2</ele><time>2026-03-29T08:39:31.574Z</time></trkpt><trkpt lat="43.7160667" lon="12.1968133"><ele>550.6</ele><time>2026-03-29T08:39:32.574Z</time></trkpt><trkpt lat="43.7159483" lon="12.1968067"><ele>550.0</ele><time>2026-03-29T08:39:33.573Z</time></trkpt><trkpt lat="43.7158183" lon="12.19681"><ele>550.0</ele><time>2026-03-29T08:39:34.574Z</time></trkpt><trkpt lat="43.71568" lon="12.1968567"><ele>550.0</ele><time>2026-03-29T08:39:35.574Z</time></trkpt><trkpt lat="43.71555" lon="12.1969417"><ele>550.0</ele><time>2026-03-29T08:39:36.574Z</time></trkpt><trkpt lat="43.7154217" lon="12.19704"><ele>550.0</ele><time>2026-03-29T08:39:37.574Z</time></trkpt><trkpt lat="43.7152967" lon="12.1971483"><ele>549.25</ele><time>2026-03-29T08:39:38.574Z</time></trkpt><trkpt lat="43.7151733" lon="12.19725"><ele>548.5</ele><time>2026-03-29T08:39:39.574Z</time></trkpt><trkpt lat="43.7150517" lon="12.1973467"><ele>547.75</ele><time>2026-03-29T08:39:40.574Z</time></trkpt><trkpt lat="43.7149283" lon="12.19745"><ele>547.0</ele><time>2026-03-29T08:39:41.574Z</time></trkpt><trkpt lat="43.71481" lon="12.1975533"><ele>547.0</ele><time>2026-03-29T08:39:42.574Z</time></trkpt><trkpt lat="43.714685" lon="12.1976617"><ele>547.0</ele><time>2026-03-29T08:39:43.574Z</time></trkpt><trkpt lat="43.714565" lon="12.197765"><ele>547.0</ele><time>2026-03-29T08:39:44.574Z</time></trkpt><trkpt lat="43.7144433" lon="12.1978633"><ele>547.0</ele><time>2026-03-29T08:39:45.574Z</time></trkpt><trkpt lat="43.7143317" lon="12.1979617"><ele>546.75</ele><time>2026-03-29T08:39:46.574Z</time></trkpt><trkpt lat="43.71423" lon="12.1980567"><ele>546.5</ele><time>2026-03-29T08:39:47.573Z</time></trkpt><trkpt lat="43.71414" lon="12.198155"><ele>546.25</ele><time>2026-03-29T08:39:48.574Z</time></trkpt><trkpt lat="43.7140567" lon="12.1982567"><ele>546.0</ele><time>2026-03-29T08:39:49.573Z</time></trkpt><trkpt lat="43.7139633" lon="12.1983717"><ele>546.0</ele><time>2026-03-29T08:39:50.574Z</time></trkpt><trkpt lat="43.7138717" lon="12.19849"><ele>546.0</ele><time>2026-03-29T08:39:51.573Z</time></trkpt><trkpt lat="43.713795" lon="12.1986233"><ele>546.0</ele><time>2026-03-29T08:39:52.573Z</time></trkpt><trkpt lat="43.7137283" lon="12.198765"><ele>546.0</ele><time>2026-03-29T08:39:53.574Z</time></trkpt><trkpt lat="43.713655" lon="12.1988967"><ele>545.0</ele><time>2026-03-29T08:39:54.574Z</time></trkpt><trkpt lat="43.713595" lon="12.19904"><ele>544.0</ele><time>2026-03-29T08:39:55.573Z</time></trkpt><trkpt lat="43.7135217" lon="12.1991683"><ele>543.0</ele><time>2026-03-29T08:39:56.574Z</time></trkpt><trkpt lat="43.7134383" lon="12.1992967"><ele>542.0</ele><time>2026-03-29T08:39:57.574Z</time></trkpt><trkpt lat="43.7133633" lon="12.1994333"><ele>542.0</ele><time>2026-03-29T08:39:58.574Z</time></trkpt><trkpt lat="43.7132933" lon="12.1995483"><ele>542.0</ele><time>2026-03-29T08:39:59.573Z</time></trkpt><trkpt lat="43.71323" lon="12.199655"><ele>542.0</ele><time>2026-03-29T08:40:00.574Z</time></trkpt><trkpt lat="43.7131767" lon="12.1997617"><ele>542.0</ele><time>2026-03-29T08:40:01.573Z</time></trkpt><trkpt lat="43.713125" lon="12.1998567"><ele>542.0</ele><time>2026-03-29T08:40:02.574Z</time></trkpt><trkpt lat="43.71306" lon="12.1999283"><ele>541.5</ele><time>2026-03-29T08:40:03.574Z</time></trkpt><trkpt lat="43.71298" lon="12.1999767"><ele>541.0</ele><time>2026-03-29T08:40:04.574Z</time></trkpt><trkpt lat="43.7128917" lon="12.2000033"><ele>540.5</ele><time>2026-03-29T08:40:05.574Z</time></trkpt><trkpt lat="43.7128" lon="12.20001"><ele>540.0</ele><time>2026-03-29T08:40:06.573Z</time></trkpt><trkpt lat="43.7127167" lon="12.200015"><ele>539.5</ele><time>2026-03-29T08:40:07.574Z</time></trkpt><trkpt lat="43.712645" lon="12.200035"><ele>539.0</ele><time>2026-03-29T08:40:08.574Z</time></trkpt><trkpt lat="43.7125667" lon="12.2001233"><ele>539.0</ele><time>2026-03-29T08:40:09.574Z</time></trkpt><trkpt lat="43.7124983" lon="12.2002517"><ele>539.0</ele><time>2026-03-29T08:40:10.573Z</time></trkpt><trkpt lat="43.712425" lon="12.2004217"><ele>539.0</ele><time>2026-03-29T08:40:11.574Z</time></trkpt><trkpt lat="43.7123633" lon="12.2005967"><ele>539.0</ele><time>2026-03-29T08:40:12.574Z</time></trkpt><trkpt lat="43.7123083" lon="12.2007367"><ele>540.2</ele><time>2026-03-29T08:40:13.574Z</time></trkpt><trkpt lat="43.712255" lon="12.200865"><ele>541.4</ele><time>2026-03-29T08:40:14.573Z</time></trkpt><trkpt lat="43.712215" lon="12.2009933"><ele>542.6</ele><time>2026-03-29T08:40:15.574Z</time></trkpt><trkpt lat="43.7121967" lon="12.2011283"><ele>543.8</ele><time>2026-03-29T08:40:16.574Z</time></trkpt><trkpt lat="43.7122167" lon="12.2012717"><ele>545.0</ele><time>2026-03-29T08:40:17.573Z</time></trkpt><trkpt lat="43.7122783" lon="12.20141"><ele>544.75</ele><time>2026-03-29T08:40:18.574Z</time></trkpt><trkpt lat="43.7123783" lon="12.2015283"><ele>544.5</ele><time>2026-03-29T08:40:19.574Z</time></trkpt><trkpt lat="43.712505" lon="12.2016233"><ele>544.25</ele><time>2026-03-29T08:40:20.574Z</time></trkpt><trkpt lat="43.7126367" lon="12.201695"><ele>544.0</ele><time>2026-03-29T08:40:21.573Z</time></trkpt><trkpt lat="43.7127533" lon="12.2017617"><ele>545.2</ele><time>2026-03-29T08:40:22.574Z</time></trkpt><trkpt lat="43.712845" lon="12.201845"><ele>546.4</ele><time>2026-03-29T08:40:23.573Z</time></trkpt><trkpt lat="43.7129167" lon="12.2019433"><ele>547.6</ele><time>2026-03-29T08:40:24.573Z</time></trkpt><trkpt lat="43.71297" lon="12.20206"><ele>548.8</ele><time>2026-03-29T08:40:25.573Z</time></trkpt><trkpt lat="43.7129967" lon="12.2022"><ele>550.0</ele><time>2026-03-29T08:40:26.574Z</time></trkpt><trkpt lat="43.7129883" lon="12.2023317"><ele>550.0</ele><time>2026-03-29T08:40:27.574Z</time></trkpt><trkpt lat="43.71295" lon="12.2024483"><ele>550.0</ele><time>2026-03-29T08:40:28.573Z</time></trkpt><trkpt lat="43.7128917" lon="12.20254"><ele>550.0</ele><time>2026-03-29T08:40:29.574Z</time></trkpt><trkpt lat="43.71281" lon="12.202595"><ele>550.0</ele><time>2026-03-29T08:40:30.574Z</time></trkpt><trkpt lat="43.7126917" lon="12.2025867"><ele>550.0</ele><time>2026-03-29T08:40:31.574Z</time></trkpt><trkpt lat="43.7125583" lon="12.2025333"><ele>549.25</ele><time>2026-03-29T08:40:32.573Z</time></trkpt><trkpt lat="43.7124367" lon="12.2024917"><ele>548.5</ele><time>2026-03-29T08:40:33.574Z</time></trkpt><trkpt lat="43.7123217" lon="12.2024783"><ele>547.75</ele><time>2026-03-29T08:40:34.573Z</time></trkpt><trkpt lat="43.7122083" lon="12.2024933"><ele>547.0</ele><time>2026-03-29T08:40:35.573Z</time></trkpt><trkpt lat="43.7120967" lon="12.2025583"><ele>547.0</ele><time>2026-03-29T08:40:36.573Z</time></trkpt><trkpt lat="43.71199" lon="12.2026733"><ele>547.0</ele><time>2026-03-29T08:40:37.574Z</time></trkpt><trkpt lat="43.711885" lon="12.2028267"><ele>547.0</ele><time>2026-03-29T08:40:38.574Z</time></trkpt><trkpt lat="43.71179" lon="12.2029883"><ele>547.0</ele><time>2026-03-29T08:40:39.574Z</time></trkpt><trkpt lat="43.7117" lon="12.2031467"><ele>548.25</ele><time>2026-03-29T08:40:40.574Z</time></trkpt><trkpt lat="43.7116267" lon="12.2033"><ele>549.5</ele><time>2026-03-29T08:40:41.574Z</time></trkpt><trkpt lat="43.711575" lon="12.2034783"><ele>550.75</ele><time>2026-03-29T08:40:42.573Z</time></trkpt><trkpt lat="43.7115417" lon="12.2037"><ele>552.0</ele><time>2026-03-29T08:40:43.573Z</time></trkpt><trkpt lat="43.7115217" lon="12.2039683"><ele>553.3333333333334</ele><time>2026-03-29T08:40:44.574Z</time></trkpt><trkpt lat="43.7115083" lon="12.2042583"><ele>554.6666666666667</ele><time>2026-03-29T08:40:45.573Z</time></trkpt><trkpt lat="43.71148" lon="12.2045467"><ele>556.0</ele><time>2026-03-29T08:40:46.574Z</time></trkpt><trkpt lat="43.7114567" lon="12.2047917"><ele>557.75</ele><time>2026-03-29T08:40:47.573Z</time></trkpt><trkpt lat="43.71144" lon="12.2050083"><ele>559.5</ele><time>2026-03-29T08:40:48.574Z</time></trkpt><trkpt lat="43.711415" lon="12.2052033"><ele>561.25</ele><time>2026-03-29T08:40:49.574Z</time></trkpt><trkpt lat="43.7113733" lon="12.2053717"><ele>563.0</ele><time>2026-03-29T08:40:50.574Z</time></trkpt><trkpt lat="43.7113033" lon="12.205515"><ele>563.0</ele><time>2026-03-29T08:40:51.574Z</time></trkpt><trkpt lat="43.7112017" lon="12.2056517"><ele>563.0</ele><time>2026-03-29T08:40:52.574Z</time></trkpt><trkpt lat="43.7110833" lon="12.2057867"><ele>563.0</ele><time>2026-03-29T08:40:53.574Z</time></trkpt><trkpt lat="43.7109617" lon="12.2058817"><ele>563.0</ele><time>2026-03-29T08:40:54.573Z</time></trkpt><trkpt lat="43.7108383" lon="12.205945"><ele>564.25</ele><time>2026-03-29T08:40:55.574Z</time></trkpt><trkpt lat="43.710705" lon="12.205965"><ele>565.5</ele><time>2026-03-29T08:40:56.573Z</time></trkpt><trkpt lat="43.7105733" lon="12.2059517"><ele>566.75</ele><time>2026-03-29T08:40:57.574Z</time></trkpt><trkpt lat="43.7104583" lon="12.205945"><ele>568.0</ele><time>2026-03-29T08:40:58.573Z</time></trkpt><trkpt lat="43.7103617" lon="12.2059633"><ele>568.0</ele><time>2026-03-29T08:40:59.574Z</time></trkpt><trkpt lat="43.710265" lon="12.2060267"><ele>568.0</ele><time>2026-03-29T08:41:00.573Z</time></trkpt><trkpt lat="43.71019" lon="12.206155"><ele>568.0</ele><time>2026-03-29T08:41:01.574Z</time></trkpt><trkpt lat="43.7101217" lon="12.2063333"><ele>568.0</ele><time>2026-03-29T08:41:02.574Z</time></trkpt><trkpt lat="43.7100633" lon="12.206555"><ele>570.6666666666667</ele><time>2026-03-29T08:41:03.573Z</time></trkpt><trkpt lat="43.7099967" lon="12.2067883"><ele>573.3333333333334</ele><time>2026-03-29T08:41:04.574Z</time></trkpt><trkpt lat="43.7099267" lon="12.20701"><ele>576.0</ele><time>2026-03-29T08:41:05.574Z</time></trkpt><trkpt lat="43.709845" lon="12.2072083"><ele>578.0</ele><time>2026-03-29T08:41:06.574Z</time></trkpt><trkpt lat="43.7097483" lon="12.2074017"><ele>580.0</ele><time>2026-03-29T08:41:07.573Z</time></trkpt><trkpt lat="43.7096167" lon="12.2075917"><ele>582.0</ele><time>2026-03-29T08:41:08.573Z</time></trkpt><trkpt lat="43.7094783" lon="12.2077917"><ele>582.3333333333334</ele><time>2026-03-29T08:41:09.574Z</time></trkpt><trkpt lat="43.7093433" lon="12.2079833"><ele>582.6666666666667</ele><time>2026-03-29T08:41:10.574Z</time></trkpt><trkpt lat="43.7092267" lon="12.2081633"><ele>583.0</ele><time>2026-03-29T08:41:11.574Z</time></trkpt><trkpt lat="43.7091083" lon="12.2083233"><ele>583.0</ele><time>2026-03-29T08:41:12.573Z</time></trkpt><trkpt lat="43.7090117" lon="12.2084667"><ele>583.0</ele><time>2026-03-29T08:41:13.573Z</time></trkpt><trkpt lat="43.7089267" lon="12.2085883"><ele>583.0</ele><time>2026-03-29T08:41:14.573Z</time></trkpt><trkpt lat="43.7088667" lon="12.20871"><ele>583.0</ele><time>2026-03-29T08:41:15.574Z</time></trkpt><trkpt lat="43.7088367" lon="12.2088483"><ele>584.4</ele><time>2026-03-29T08:41:16.574Z</time></trkpt><trkpt lat="43.70884" lon="12.2089933"><ele>585.8</ele><time>2026-03-29T08:41:17.574Z</time></trkpt><trkpt lat="43.7088833" lon="12.2091217"><ele>587.2</ele><time>2026-03-29T08:41:18.574Z</time></trkpt><trkpt lat="43.7089583" lon="12.20923"><ele>588.6</ele><time>2026-03-29T08:41:19.574Z</time></trkpt><trkpt lat="43.70907" lon="12.2093033"><ele>590.0</ele><time>2026-03-29T08:41:20.574Z</time></trkpt><trkpt lat="43.7092367" lon="12.2093567"><ele>591.6666666666666</ele><time>2026-03-29T08:41:21.573Z</time></trkpt><trkpt lat="43.70942" lon="12.2093983"><ele>593.3333333333334</ele><time>2026-03-29T08:41:22.574Z</time></trkpt><trkpt lat="43.709615" lon="12.2094633"><ele>595.0</ele><time>2026-03-29T08:41:23.574Z</time></trkpt><trkpt lat="43.7098233" lon="12.209535"><ele>595.0</ele><time>2026-03-29T08:41:24.574Z</time></trkpt><trkpt lat="43.71001" lon="12.2096067"><ele>595.0</ele><time>2026-03-29T08:41:25.573Z</time></trkpt><trkpt lat="43.7101833" lon="12.2096733"><ele>595.0</ele><time>2026-03-29T08:41:26.574Z</time></trkpt><trkpt lat="43.7103483" lon="12.2097267"><ele>595.6666666666667</ele><time>2026-03-29T08:41:27.574Z</time></trkpt><trkpt lat="43.7105233" lon="12.2097467"><ele>596.3333333333334</ele><time>2026-03-29T08:41:28.575Z</time></trkpt><trkpt lat="43.710695" lon="12.2097333"><ele>597.0</ele><time>2026-03-29T08:41:29.575Z</time></trkpt><trkpt lat="43.710845" lon="12.2097217"><ele>597.0</ele><time>2026-03-29T08:41:30.574Z</time></trkpt><trkpt lat="43.7110117" lon="12.20973"><ele>597.0</ele><time>2026-03-29T08:41:31.575Z</time></trkpt><trkpt lat="43.7111633" lon="12.2097417"><ele>597.0</ele><time>2026-03-29T08:41:32.575Z</time></trkpt><trkpt lat="43.7112933" lon="12.2097383"><ele>597.0</ele><time>2026-03-29T08:41:33.574Z</time></trkpt><trkpt lat="43.7114167" lon="12.2097083"><ele>599.75</ele><time>2026-03-29T08:41:34.575Z</time></trkpt><trkpt lat="43.71153" lon="12.2096217"><ele>602.5</ele><time>2026-03-29T08:41:35.575Z</time></trkpt><trkpt lat="43.7116367" lon="12.2094683"><ele>605.25</ele><time>2026-03-29T08:41:36.574Z</time></trkpt><trkpt lat="43.7117217" lon="12.2092717"><ele>608.0</ele><time>2026-03-29T08:41:37.575Z</time></trkpt><trkpt lat="43.7118033" lon="12.2090333"><ele>606.6666666666666</ele><time>2026-03-29T08:41:38.575Z</time></trkpt><trkpt lat="43.7118833" lon="12.208805"><ele>605.3333333333334</ele><time>2026-03-29T08:41:39.575Z</time></trkpt><trkpt lat="43.711955" lon="12.2085917"><ele>604.0</ele><time>2026-03-29T08:41:40.575Z</time></trkpt><trkpt lat="43.7120183" lon="12.2084133"><ele>603.8</ele><time>2026-03-29T08:41:41.574Z</time></trkpt><trkpt lat="43.712075" lon="12.208255"><ele>603.5999999999999</ele><time>2026-03-29T08:41:42.575Z</time></trkpt><trkpt lat="43.7121417" lon="12.20814"><ele>603.4</ele><time>2026-03-29T08:41:43.575Z</time></trkpt><trkpt lat="43.7122217" lon="12.2080617"><ele>603.1999999999999</ele><time>2026-03-29T08:41:44.575Z</time></trkpt><trkpt lat="43.7123133" lon="12.2080467"><ele>603.0</ele><time>2026-03-29T08:41:45.574Z</time></trkpt><trkpt lat="43.71242" lon="12.2080867"><ele>603.6666666666666</ele><time>2026-03-29T08:41:46.575Z</time></trkpt><trkpt lat="43.71253" lon="12.2081983"><ele>604.3333333333333</ele><time>2026-03-29T08:41:47.574Z</time></trkpt><trkpt lat="43.7126367" lon="12.20835"><ele>605.0</ele><time>2026-03-29T08:41:48.575Z</time></trkpt><trkpt lat="43.7127567" lon="12.208525"><ele>605.0</ele><time>2026-03-29T08:41:49.575Z</time></trkpt><trkpt lat="43.7129017" lon="12.2087167"><ele>605.0</ele><time>2026-03-29T08:41:50.575Z</time></trkpt><trkpt lat="43.7130433" lon="12.20892"><ele>605.0</ele><time>2026-03-29T08:41:51.575Z</time></trkpt><trkpt lat="43.7131817" lon="12.2091133"><ele>610.3333333333333</ele><time>2026-03-29T08:41:52.575Z</time></trkpt><trkpt lat="43.7133017" lon="12.2092767"><ele>615.6666666666666</ele><time>2026-03-29T08:41:53.575Z</time></trkpt><trkpt lat="43.713405" lon="12.2094417"><ele>621.0</ele><time>2026-03-29T08:41:54.575Z</time></trkpt><trkpt lat="43.7134983" lon="12.20964"><ele>620.6666666666666</ele><time>2026-03-29T08:41:55.575Z</time></trkpt><trkpt lat="43.7135933" lon="12.2098833"><ele>620.3333333333333</ele><time>2026-03-29T08:41:56.575Z</time></trkpt><trkpt lat="43.7136767" lon="12.2101533"><ele>620.0</ele><time>2026-03-29T08:41:57.575Z</time></trkpt><trkpt lat="43.713745" lon="12.2103967"><ele>620.0</ele><time>2026-03-29T08:41:58.575Z</time></trkpt><trkpt lat="43.7138183" lon="12.2106217"><ele>620.0</ele><time>2026-03-29T08:41:59.575Z</time></trkpt><trkpt lat="43.713905" lon="12.2108233"><ele>620.0</ele><time>2026-03-29T08:42:00.575Z</time></trkpt><trkpt lat="43.7140233" lon="12.2110133"><ele>623.3333333333333</ele><time>2026-03-29T08:42:01.574Z</time></trkpt><trkpt lat="43.7141533" lon="12.2111917"><ele>626.6666666666666</ele><time>2026-03-29T08:42:02.575Z</time></trkpt><trkpt lat="43.7143183" lon="12.2113617"><ele>630.0</ele><time>2026-03-29T08:42:03.575Z</time></trkpt><trkpt lat="43.71451" lon="12.211515"><ele>631.6666666666666</ele><time>2026-03-29T08:42:04.574Z</time></trkpt><trkpt lat="43.71469" lon="12.21168"><ele>633.3333333333333</ele><time>2026-03-29T08:42:05.574Z</time></trkpt><trkpt lat="43.7148583" lon="12.2118267"><ele>635.0</ele><time>2026-03-29T08:42:06.574Z</time></trkpt><trkpt lat="43.715005" lon="12.2119617"><ele>635.0</ele><time>2026-03-29T08:42:07.575Z</time></trkpt><trkpt lat="43.7151483" lon="12.2120867"><ele>635.0</ele><time>2026-03-29T08:42:08.574Z</time></trkpt><trkpt lat="43.7152933" lon="12.21217"><ele>635.0</ele><time>2026-03-29T08:42:09.574Z</time></trkpt><trkpt lat="43.71545" lon="12.2121933"><ele>635.0</ele><time>2026-03-29T08:42:10.575Z</time></trkpt><trkpt lat="43.7155983" lon="12.212185"><ele>635.0</ele><time>2026-03-29T08:42:11.574Z</time></trkpt><trkpt lat="43.715735" lon="12.2122017"><ele>635.0</ele><time>2026-03-29T08:42:12.575Z</time></trkpt><trkpt lat="43.7158667" lon="12.2122633"><ele>635.0</ele><time>2026-03-29T08:42:13.574Z</time></trkpt><trkpt lat="43.7160033" lon="12.2123767"><ele>640.0</ele><time>2026-03-29T08:42:14.575Z</time></trkpt><trkpt lat="43.7161367" lon="12.212555"><ele>645.0</ele><time>2026-03-29T08:42:15.575Z</time></trkpt><trkpt lat="43.71627" lon="12.2127483"><ele>650.0</ele><time>2026-03-29T08:42:16.574Z</time></trkpt><trkpt lat="43.71638" lon="12.212885"><ele>650.0</ele><time>2026-03-29T08:42:17.575Z</time></trkpt><trkpt lat="43.7164817" lon="12.212975"><ele>650.0</ele><time>2026-03-29T08:42:18.575Z</time></trkpt><trkpt lat="43.7166017" lon="12.2130183"><ele>650.0</ele><time>2026-03-29T08:42:19.575Z</time></trkpt><trkpt lat="43.7167317" lon="12.2130217"><ele>650.0</ele><time>2026-03-29T08:42:20.575Z</time></trkpt><trkpt lat="43.71685" lon="12.21298"><ele>651.5</ele><time>2026-03-29T08:42:21.574Z</time></trkpt><trkpt lat="43.7169467" lon="12.2128833"><ele>653.0</ele><time>2026-03-29T08:42:22.575Z</time></trkpt><trkpt lat="43.71702" lon="12.2127433"><ele>654.5</ele><time>2026-03-29T08:42:23.575Z</time></trkpt><trkpt lat="43.717075" lon="12.2125317"><ele>656.0</ele><time>2026-03-29T08:42:24.575Z</time></trkpt><trkpt lat="43.7171183" lon="12.2122967"><ele>656.0</ele><time>2026-03-29T08:42:25.575Z</time></trkpt><trkpt lat="43.7171567" lon="12.2120767"><ele>656.0</ele><time>2026-03-29T08:42:26.574Z</time></trkpt><trkpt lat="43.717185" lon="12.2119017"><ele>656.0</ele><time>2026-03-29T08:42:27.574Z</time></trkpt><trkpt lat="43.717225" lon="12.2117617"><ele>656.0</ele><time>2026-03-29T08:42:28.575Z</time></trkpt><trkpt lat="43.71729" lon="12.2116517"><ele>656.0</ele><time>2026-03-29T08:42:29.574Z</time></trkpt><trkpt lat="43.7173833" lon="12.2115867"><ele>656.0</ele><time>2026-03-29T08:42:30.575Z</time></trkpt><trkpt lat="43.7174983" lon="12.21157"><ele>656.0</ele><time>2026-03-29T08:42:31.575Z</time></trkpt><trkpt lat="43.71764" lon="12.21161"><ele>656.0</ele><time>2026-03-29T08:42:32.575Z</time></trkpt><trkpt lat="43.7178033" lon="12.2117017"><ele>656.6666666666666</ele><time>2026-03-29T08:42:33.574Z</time></trkpt><trkpt lat="43.7179783" lon="12.2118083"><ele>657.3333333333334</ele><time>2026-03-29T08:42:34.575Z</time></trkpt><trkpt lat="43.7181617" lon="12.2119117"><ele>658.0</ele><time>2026-03-29T08:42:35.575Z</time></trkpt><trkpt lat="43.7183417" lon="12.2120067"><ele>658.0</ele><time>2026-03-29T08:42:36.575Z</time></trkpt><trkpt lat="43.7185067" lon="12.2120817"><ele>658.0</ele><time>2026-03-29T08:42:37.575Z</time></trkpt><trkpt lat="43.7186733" lon="12.2121133"><ele>658.0</ele><time>2026-03-29T08:42:38.575Z</time></trkpt><trkpt lat="43.7188433" lon="12.2121083"><ele>659.75</ele><time>2026-03-29T08:42:39.575Z</time></trkpt><trkpt lat="43.7190033" lon="12.212105"><ele>661.5</ele><time>2026-03-29T08:42:40.575Z</time></trkpt><trkpt lat="43.7191483" lon="12.2120883"><ele>663.25</ele><time>2026-03-29T08:42:41.575Z</time></trkpt><trkpt lat="43.7192783" lon="12.21203"><ele>665.0</ele><time>2026-03-29T08:42:42.575Z</time></trkpt><trkpt lat="43.719395" lon="12.2119217"><ele>667.6666666666666</ele><time>2026-03-29T08:42:43.574Z</time></trkpt><trkpt lat="43.7194933" lon="12.21175"><ele>670.3333333333334</ele><time>2026-03-29T08:42:44.574Z</time></trkpt><trkpt lat="43.7195783" lon="12.2115767"><ele>673.0</ele><time>2026-03-29T08:42:45.575Z</time></trkpt><trkpt lat="43.7196517" lon="12.2114117"><ele>673.0</ele><time>2026-03-29T08:42:46.575Z</time></trkpt><trkpt lat="43.719735" lon="12.2112683"><ele>673.0</ele><time>2026-03-29T08:42:47.574Z</time></trkpt><trkpt lat="43.7198467" lon="12.2111683"><ele>673.0</ele><time>2026-03-29T08:42:48.574Z</time></trkpt><trkpt lat="43.7199717" lon="12.211105"><ele>673.0</ele><time>2026-03-29T08:42:49.575Z</time></trkpt><trkpt lat="43.72009" lon="12.211085"><ele>673.0</ele><time>2026-03-29T08:42:50.575Z</time></trkpt><trkpt lat="43.720205" lon="12.2111017"><ele>673.0</ele><time>2026-03-29T08:42:51.575Z</time></trkpt><trkpt lat="43.7203167" lon="12.21116"><ele>673.0</ele><time>2026-03-29T08:42:52.575Z</time></trkpt><trkpt lat="43.7204133" lon="12.2112817"><ele>673.0</ele><time>2026-03-29T08:42:53.574Z</time></trkpt><trkpt lat="43.7204967" lon="12.2114433"><ele>675.3333333333334</ele><time>2026-03-29T08:42:54.575Z</time></trkpt><trkpt lat="43.720575" lon="12.211635"><ele>677.6666666666666</ele><time>2026-03-29T08:42:55.575Z</time></trkpt><trkpt lat="43.7206567" lon="12.2118433"><ele>680.0</ele><time>2026-03-29T08:42:56.574Z</time></trkpt><trkpt lat="43.72073" lon="12.2120383"><ele>680.0</ele><time>2026-03-29T08:42:57.574Z</time></trkpt><trkpt lat="43.7208067" lon="12.2122033"><ele>680.0</ele><time>2026-03-29T08:42:58.575Z</time></trkpt><trkpt lat="43.7208983" lon="12.2123483"><ele>680.0</ele><time>2026-03-29T08:42:59.575Z</time></trkpt><trkpt lat="43.721005" lon="12.21248"><ele>680.0</ele><time>2026-03-29T08:43:00.574Z</time></trkpt><trkpt lat="43.7211433" lon="12.2125983"><ele>683.0</ele><time>2026-03-29T08:43:01.575Z</time></trkpt><trkpt lat="43.7213183" lon="12.2127267"><ele>686.0</ele><time>2026-03-29T08:43:02.575Z</time></trkpt><trkpt lat="43.7215033" lon="12.21286"><ele>689.0</ele><time>2026-03-29T08:43:03.575Z</time></trkpt><trkpt lat="43.7216817" lon="12.21298"><ele>689.0</ele><time>2026-03-29T08:43:04.575Z</time></trkpt><trkpt lat="43.7218417" lon="12.2130917"><ele>689.0</ele><time>2026-03-29T08:43:05.575Z</time></trkpt><trkpt lat="43.72199" lon="12.2131917"><ele>689.0</ele><time>2026-03-29T08:43:06.574Z</time></trkpt><trkpt lat="43.722115" lon="12.2132817"><ele>691.75</ele><time>2026-03-29T08:43:07.574Z</time></trkpt><trkpt lat="43.7222383" lon="12.2133633"><ele>694.5</ele><time>2026-03-29T08:43:08.575Z</time></trkpt><trkpt lat="43.7223483" lon="12.2134133"><ele>697.25</ele><time>2026-03-29T08:43:09.574Z</time></trkpt><trkpt lat="43.7224617" lon="12.2134067"><ele>700.0</ele><time>2026-03-29T08:43:10.574Z</time></trkpt><trkpt lat="43.722565" lon="12.2133433"><ele>700.0</ele><time>2026-03-29T08:43:11.575Z</time></trkpt><trkpt lat="43.722645" lon="12.2132117"><ele>700.0</ele><time>2026-03-29T08:43:12.575Z</time></trkpt><trkpt lat="43.7227" lon="12.21303"><ele>700.0</ele><time>2026-03-29T08:43:13.575Z</time></trkpt><trkpt lat="43.72275" lon="12.2128317"><ele>700.0</ele><time>2026-03-29T08:43:14.575Z</time></trkpt><trkpt lat="43.722815" lon="12.2126467"><ele>701.0</ele><time>2026-03-29T08:43:15.574Z</time></trkpt><trkpt lat="43.7229167" lon="12.21247"><ele>702.0</ele><time>2026-03-29T08:43:16.574Z</time></trkpt><trkpt lat="43.7230333" lon="12.2122933"><ele>703.0</ele><time>2026-03-29T08:43:17.574Z</time></trkpt><trkpt lat="43.7231567" lon="12.21211"><ele>703.0</ele><time>2026-03-29T08:43:18.575Z</time></trkpt><trkpt lat="43.7232667" lon="12.211955"><ele>703.0</ele><time>2026-03-29T08:43:19.574Z</time></trkpt><trkpt lat="43.7233683" lon="12.2118167"><ele>703.0</ele><time>2026-03-29T08:43:20.575Z</time></trkpt><trkpt lat="43.7234683" lon="12.2117217"><ele>703.0</ele><time>2026-03-29T08:43:21.575Z</time></trkpt><trkpt lat="43.723585" lon="12.2116733"><ele>705.0</ele><time>2026-03-29T08:43:22.575Z</time></trkpt><trkpt lat="43.7237083" lon="12.2116883"><ele>707.0</ele><time>2026-03-29T08:43:23.575Z</time></trkpt><trkpt lat="43.72385" lon="12.2117583"><ele>709.0</ele><time>2026-03-29T08:43:24.575Z</time></trkpt><trkpt lat="43.724005" lon="12.2118533"><ele>711.0</ele><time>2026-03-29T08:43:25.575Z</time></trkpt><trkpt lat="43.7241767" lon="12.2119683"><ele>711.0</ele><time>2026-03-29T08:43:26.575Z</time></trkpt><trkpt lat="43.724355" lon="12.2120933"><ele>711.0</ele><time>2026-03-29T08:43:27.575Z</time></trkpt><trkpt lat="43.7245417" lon="12.2122417"><ele>711.0</ele><time>2026-03-29T08:43:28.575Z</time></trkpt><trkpt lat="43.7247267" lon="12.2124017"><ele>714.0</ele><time>2026-03-29T08:43:29.575Z</time></trkpt><trkpt lat="43.7248917" lon="12.212545"><ele>717.0</ele><time>2026-03-29T08:43:30.575Z</time></trkpt><trkpt lat="43.72505" lon="12.2126817"><ele>720.0</ele><time>2026-03-29T08:43:31.574Z</time></trkpt><trkpt lat="43.7251883" lon="12.212815"><ele>720.3333333333334</ele><time>2026-03-29T08:43:32.575Z</time></trkpt><trkpt lat="43.7253217" lon="12.2129483"><ele>720.6666666666667</ele><time>2026-03-29T08:43:33.575Z</time></trkpt><trkpt lat="43.72544" lon="12.2130933"><ele>721.0</ele><time>2026-03-29T08:43:34.574Z</time></trkpt><trkpt lat="43.7255417" lon="12.2132317"><ele>722.5</ele><time>2026-03-29T08:43:35.574Z</time></trkpt><trkpt lat="43.7256133" lon="12.213375"><ele>724.0</ele><time>2026-03-29T08:43:36.575Z</time></trkpt><trkpt lat="43.7256467" lon="12.2135333"><ele>725.5</ele><time>2026-03-29T08:43:37.574Z</time></trkpt><trkpt lat="43.725635" lon="12.2136983"><ele>727.0</ele><time>2026-03-29T08:43:38.575Z</time></trkpt><trkpt lat="43.7255883" lon="12.21386"><ele>731.0</ele><time>2026-03-29T08:43:39.574Z</time></trkpt><trkpt lat="43.7255" lon="12.21401"><ele>735.0</ele><time>2026-03-29T08:43:40.574Z</time></trkpt><trkpt lat="43.7253817" lon="12.2141467"><ele>739.0</ele><time>2026-03-29T08:43:41.575Z</time></trkpt><trkpt lat="43.725235" lon="12.2142767"><ele>736.6666666666667</ele><time>2026-03-29T08:43:42.575Z</time></trkpt><trkpt lat="43.7250733" lon="12.21441"><ele>734.3333333333334</ele><time>2026-03-29T08:43:43.574Z</time></trkpt><trkpt lat="43.7249083" lon="12.2145483"><ele>732.0</ele><time>2026-03-29T08:43:44.575Z</time></trkpt><trkpt lat="43.7247567" lon="12.2146867"><ele>736.3333333333334</ele><time>2026-03-29T08:43:45.574Z</time></trkpt><trkpt lat="43.7246183" lon="12.2148333"><ele>740.6666666666667</ele><time>2026-03-29T08:43:46.574Z</time></trkpt><trkpt lat="43.724525" lon="12.21503"><ele>745.0</ele><time>2026-03-29T08:43:47.575Z</time></trkpt><trkpt lat="43.7244517" lon="12.2152733"><ele>745.0</ele><time>2026-03-29T08:43:48.575Z</time></trkpt><trkpt lat="43.7243783" lon="12.2155117"><ele>745.0</ele><time>2026-03-29T08:43:49.575Z</time></trkpt><trkpt lat="43.7242783" lon="12.215725"><ele>745.0</ele><time>2026-03-29T08:43:50.574Z</time></trkpt><trkpt lat="43.724155" lon="12.2159"><ele>745.0</ele><time>2026-03-29T08:43:51.575Z</time></trkpt><trkpt lat="43.7240333" lon="12.216025"><ele>745.0</ele><time>2026-03-29T08:43:52.575Z</time></trkpt><trkpt lat="43.7239217" lon="12.2161717"><ele>745.0</ele><time>2026-03-29T08:43:53.574Z</time></trkpt><trkpt lat="43.7238317" lon="12.2163567"><ele>748.6666666666667</ele><time>2026-03-29T08:43:54.575Z</time></trkpt><trkpt lat="43.723755" lon="12.2166033"><ele>752.3333333333334</ele><time>2026-03-29T08:43:55.575Z</time></trkpt><trkpt lat="43.7236967" lon="12.2168667"><ele>756.0</ele><time>2026-03-29T08:43:56.575Z</time></trkpt><trkpt lat="43.72364" lon="12.2171"><ele>759.0</ele><time>2026-03-29T08:43:57.574Z</time></trkpt><trkpt lat="43.7235933" lon="12.2173283"><ele>762.0</ele><time>2026-03-29T08:43:58.575Z</time></trkpt><trkpt lat="43.7235717" lon="12.217585"><ele>765.0</ele><time>2026-03-29T08:43:59.574Z</time></trkpt><trkpt lat="43.723565" lon="12.2178683"><ele>761.6666666666666</ele><time>2026-03-29T08:44:00.574Z</time></trkpt><trkpt lat="43.7235567" lon="12.2181283"><ele>758.3333333333333</ele><time>2026-03-29T08:44:01.575Z</time></trkpt><trkpt lat="43.7235433" lon="12.2183567"><ele>755.0</ele><time>2026-03-29T08:44:02.574Z</time></trkpt><trkpt lat="43.7235283" lon="12.2185483"><ele>755.0</ele><time>2026-03-29T08:44:03.575Z</time></trkpt><trkpt lat="43.723485" lon="12.2187333"><ele>755.0</ele><time>2026-03-29T08:44:04.575Z</time></trkpt><trkpt lat="43.7234117" lon="12.2188967"><ele>755.0</ele><time>2026-03-29T08:44:05.575Z</time></trkpt><trkpt lat="43.7233067" lon="12.219045"><ele>755.0</ele><time>2026-03-29T08:44:06.575Z</time></trkpt><trkpt lat="43.723185" lon="12.2191683"><ele>758.0</ele><time>2026-03-29T08:44:07.574Z</time></trkpt><trkpt lat="43.72308" lon="12.21927"><ele>761.0</ele><time>2026-03-29T08:44:08.574Z</time></trkpt><trkpt lat="43.7229417" lon="12.2193367"><ele>764.0</ele><time>2026-03-29T08:44:09.574Z</time></trkpt><trkpt lat="43.7227933" lon="12.21936"><ele>767.0</ele><time>2026-03-29T08:44:10.575Z</time></trkpt><trkpt lat="43.7226383" lon="12.2193383"><ele>767.0</ele><time>2026-03-29T08:44:11.574Z</time></trkpt><trkpt lat="43.7224783" lon="12.2192833"><ele>767.0</ele><time>2026-03-29T08:44:12.575Z</time></trkpt><trkpt lat="43.7223267" lon="12.2191983"><ele>767.0</ele><time>2026-03-29T08:44:13.575Z</time></trkpt><trkpt lat="43.7221983" lon="12.21906"><ele>767.5</ele><time>2026-03-29T08:44:14.575Z</time></trkpt><trkpt lat="43.7221" lon="12.2189517"><ele>768.0</ele><time>2026-03-29T08:44:15.575Z</time></trkpt><trkpt lat="43.7220017" lon="12.21888"><ele>768.5</ele><time>2026-03-29T08:44:16.575Z</time></trkpt><trkpt lat="43.72189" lon="12.2188633"><ele>769.0</ele><time>2026-03-29T08:44:17.575Z</time></trkpt><trkpt lat="43.7217767" lon="12.21891"><ele>769.25</ele><time>2026-03-29T08:44:18.575Z</time></trkpt><trkpt lat="43.721665" lon="12.2190133"><ele>769.5</ele><time>2026-03-29T08:44:19.575Z</time></trkpt><trkpt lat="43.7215767" lon="12.2191617"><ele>769.75</ele><time>2026-03-29T08:44:20.574Z</time></trkpt><trkpt lat="43.7214967" lon="12.219315"><ele>770.0</ele><time>2026-03-29T08:44:21.574Z</time></trkpt><trkpt lat="43.7214283" lon="12.2194617"><ele>770.0</ele><time>2026-03-29T08:44:22.575Z</time></trkpt><trkpt lat="43.721385" lon="12.2196183"><ele>770.0</ele><time>2026-03-29T08:44:23.575Z</time></trkpt><trkpt lat="43.7213667" lon="12.2197683"><ele>770.0</ele><time>2026-03-29T08:44:24.574Z</time></trkpt><trkpt lat="43.72138" lon="12.2199017"><ele>770.0</ele><time>2026-03-29T08:44:25.575Z</time></trkpt><trkpt lat="43.7214067" lon="12.2200133"><ele>770.0</ele><time>2026-03-29T08:44:26.574Z</time></trkpt><trkpt lat="43.7214433" lon="12.2201267"><ele>771.8</ele><time>2026-03-29T08:44:27.575Z</time></trkpt><trkpt lat="43.72148" lon="12.2202433"><ele>773.6</ele><time>2026-03-29T08:44:28.575Z</time></trkpt><trkpt lat="43.7215067" lon="12.22037"><ele>775.4000000000001</ele><time>2026-03-29T08:44:29.574Z</time></trkpt><trkpt lat="43.7215167" lon="12.2205"><ele>777.2</ele><time>2026-03-29T08:44:30.575Z</time></trkpt><trkpt lat="43.7215067" lon="12.2206233"><ele>779.0</ele><time>2026-03-29T08:44:31.575Z</time></trkpt><trkpt lat="43.7214733" lon="12.2207417"><ele>780.5000000000001</ele><time>2026-03-29T08:44:32.575Z</time></trkpt><trkpt lat="43.7214283" lon="12.2208467"><ele>782.0</ele><time>2026-03-29T08:44:33.575Z</time></trkpt><trkpt lat="43.7213783" lon="12.2209317"><ele>783.5</ele><time>2026-03-29T08:44:34.575Z</time></trkpt><trkpt lat="43.7213217" lon="12.221005"><ele>785.0</ele><time>2026-03-29T08:44:35.575Z</time></trkpt><trkpt lat="43.7212617" lon="12.221075"><ele>786.5000000000001</ele><time>2026-03-29T08:44:36.574Z</time></trkpt><trkpt lat="43.721205" lon="12.2211283"><ele>788.0</ele><time>2026-03-29T08:44:37.574Z</time></trkpt><trkpt lat="43.721145" lon="12.22117"><ele>788.0000000000001</ele><time>2026-03-29T08:44:38.574Z</time></trkpt><trkpt lat="43.7210867" lon="12.2212033"><ele>788.0</ele><time>2026-03-29T08:44:40.575Z</time></trkpt><trkpt lat="43.7210183" lon="12.2212167"><ele>788.0</ele><time>2026-03-29T08:44:43.575Z</time></trkpt><trkpt lat="43.7209467" lon="12.2212483"><ele>788.0</ele><time>2026-03-29T08:44:44.575Z</time></trkpt><trkpt lat="43.7208617" lon="12.2212867"><ele>788.0000000000001</ele><time>2026-03-29T08:44:45.574Z</time></trkpt><trkpt lat="43.7207367" lon="12.2213383"><ele>788.0</ele><time>2026-03-29T08:44:46.575Z</time></trkpt><trkpt lat="43.7204283" lon="12.2215933"><ele>787.6666666666667</ele><time>2026-03-29T08:44:48.574Z</time></trkpt><trkpt lat="43.7202817" lon="12.221775"><ele>787.3333333333333</ele><time>2026-03-29T08:44:49.574Z</time></trkpt><trkpt lat="43.720145" lon="12.2219517"><ele>787.0</ele><time>2026-03-29T08:44:50.575Z</time></trkpt><trkpt lat="43.72002" lon="12.2221017"><ele>786.6</ele><time>2026-03-29T08:44:51.574Z</time></trkpt><trkpt lat="43.7199117" lon="12.2222267"><ele>786.2</ele><time>2026-03-29T08:44:52.575Z</time></trkpt><trkpt lat="43.7198267" lon="12.222335"><ele>785.8</ele><time>2026-03-29T08:44:53.574Z</time></trkpt><trkpt lat="43.7197733" lon="12.2224333"><ele>785.4</ele><time>2026-03-29T08:44:54.575Z</time></trkpt><trkpt lat="43.7197433" lon="12.2225383"><ele>785.0</ele><time>2026-03-29T08:44:55.575Z</time></trkpt><trkpt lat="43.719735" lon="12.22264"><ele>785.0</ele><time>2026-03-29T08:44:56.575Z</time></trkpt><trkpt lat="43.71978" lon="12.2227333"><ele>785.0</ele><time>2026-03-29T08:44:57.575Z</time></trkpt><trkpt lat="43.7198417" lon="12.222805"><ele>785.0</ele><time>2026-03-29T08:44:58.574Z</time></trkpt><trkpt lat="43.71993" lon="12.2228517"><ele>785.0</ele><time>2026-03-29T08:44:59.575Z</time></trkpt><trkpt lat="43.7200583" lon="12.2228117"><ele>785.0</ele><time>2026-03-29T08:45:00.575Z</time></trkpt><trkpt lat="43.7201917" lon="12.2227317"><ele>787.0</ele><time>2026-03-29T08:45:01.574Z</time></trkpt><trkpt lat="43.7203383" lon="12.222635"><ele>789.0</ele><time>2026-03-29T08:45:02.575Z</time></trkpt><trkpt lat="43.72048" lon="12.2225633"><ele>791.0</ele><time>2026-03-29T08:45:03.575Z</time></trkpt><trkpt lat="43.7205967" lon="12.2225183"><ele>793.0</ele><time>2026-03-29T08:45:04.575Z</time></trkpt><trkpt lat="43.7207233" lon="12.2225183"><ele>793.0</ele><time>2026-03-29T08:45:05.575Z</time></trkpt><trkpt lat="43.7208767" lon="12.2225533"><ele>793.0</ele><time>2026-03-29T08:45:06.574Z</time></trkpt><trkpt lat="43.72107" lon="12.222605"><ele>793.0</ele><time>2026-03-29T08:45:07.575Z</time></trkpt><trkpt lat="43.721275" lon="12.2226583"><ele>795.6666666666666</ele><time>2026-03-29T08:45:08.575Z</time></trkpt><trkpt lat="43.7214617" lon="12.2227133"><ele>798.3333333333333</ele><time>2026-03-29T08:45:09.575Z</time></trkpt><trkpt lat="43.7216283" lon="12.2227583"><ele>801.0</ele><time>2026-03-29T08:45:10.575Z</time></trkpt><trkpt lat="43.72178" lon="12.2227883"><ele>802.0</ele><time>2026-03-29T08:45:11.575Z</time></trkpt><trkpt lat="43.7219183" lon="12.222825"><ele>803.0</ele><time>2026-03-29T08:45:12.574Z</time></trkpt><trkpt lat="43.722045" lon="12.22287"><ele>804.0</ele><time>2026-03-29T08:45:13.574Z</time></trkpt><trkpt lat="43.7221667" lon="12.222935"><ele>805.0</ele><time>2026-03-29T08:45:14.575Z</time></trkpt><trkpt lat="43.7222833" lon="12.2230333"><ele>804.3333333333333</ele><time>2026-03-29T08:45:15.574Z</time></trkpt><trkpt lat="43.7223967" lon="12.22317"><ele>803.6666666666667</ele><time>2026-03-29T08:45:16.575Z</time></trkpt><trkpt lat="43.7224767" lon="12.22334"><ele>803.0</ele><time>2026-03-29T08:45:17.575Z</time></trkpt><trkpt lat="43.7225383" lon="12.2235433"><ele>803.0</ele><time>2026-03-29T08:45:18.575Z</time></trkpt><trkpt lat="43.7225883" lon="12.2237783"><ele>803.0</ele><time>2026-03-29T08:45:19.575Z</time></trkpt><trkpt lat="43.7226367" lon="12.2240533"><ele>803.0</ele><time>2026-03-29T08:45:20.575Z</time></trkpt><trkpt lat="43.72269" lon="12.22433"><ele>808.0</ele><time>2026-03-29T08:45:21.575Z</time></trkpt><trkpt lat="43.7227383" lon="12.224575"><ele>813.0</ele><time>2026-03-29T08:45:22.575Z</time></trkpt><trkpt lat="43.7227783" lon="12.2248017"><ele>818.0</ele><time>2026-03-29T08:45:23.575Z</time></trkpt><trkpt lat="43.72282" lon="12.2250033"><ele>818.0</ele><time>2026-03-29T08:45:24.575Z</time></trkpt><trkpt lat="43.7228783" lon="12.2251867"><ele>818.0</ele><time>2026-03-29T08:45:25.575Z</time></trkpt><trkpt lat="43.7229733" lon="12.22536"><ele>818.0</ele><time>2026-03-29T08:45:26.574Z</time></trkpt><trkpt lat="43.7230967" lon="12.2255083"><ele>813.0</ele><time>2026-03-29T08:45:27.575Z</time></trkpt><trkpt lat="43.7232417" lon="12.2256517"><ele>808.0</ele><time>2026-03-29T08:45:28.574Z</time></trkpt><trkpt lat="43.72341" lon="12.2258033"><ele>803.0</ele><time>2026-03-29T08:45:29.575Z</time></trkpt><trkpt lat="43.72356" lon="12.22596"><ele>804.3333333333334</ele><time>2026-03-29T08:45:30.574Z</time></trkpt><trkpt lat="43.7236967" lon="12.2261117"><ele>805.6666666666667</ele><time>2026-03-29T08:45:31.575Z</time></trkpt><trkpt lat="43.7238033" lon="12.2262833"><ele>807.0</ele><time>2026-03-29T08:45:32.574Z</time></trkpt><trkpt lat="43.7238933" lon="12.2264817"><ele>807.0</ele><time>2026-03-29T08:45:33.575Z</time></trkpt><trkpt lat="43.7239767" lon="12.22671"><ele>807.0</ele><time>2026-03-29T08:45:34.575Z</time></trkpt><trkpt lat="43.724055" lon="12.22695"><ele>807.0</ele><time>2026-03-29T08:45:35.575Z</time></trkpt><trkpt lat="43.7241233" lon="12.2271883"><ele>805.3333333333333</ele><time>2026-03-29T08:45:36.575Z</time></trkpt><trkpt lat="43.7241783" lon="12.22742"><ele>803.6666666666666</ele><time>2026-03-29T08:45:37.575Z</time></trkpt><trkpt lat="43.7242067" lon="12.2276567"><ele>802.0</ele><time>2026-03-29T08:45:38.575Z</time></trkpt><trkpt lat="43.724205" lon="12.2279083"><ele>802.6666666666666</ele><time>2026-03-29T08:45:39.575Z</time></trkpt><trkpt lat="43.7241883" lon="12.2281783"><ele>803.3333333333333</ele><time>2026-03-29T08:45:40.575Z</time></trkpt><trkpt lat="43.7241617" lon="12.22847"><ele>804.0</ele><time>2026-03-29T08:45:41.575Z</time></trkpt><trkpt lat="43.7241317" lon="12.228765"><ele>804.6666666666667</ele><time>2026-03-29T08:45:42.574Z</time></trkpt><trkpt lat="43.7241033" lon="12.2290433"><ele>805.3333333333334</ele><time>2026-03-29T08:45:43.575Z</time></trkpt><trkpt lat="43.7240783" lon="12.2293017"><ele>806.0</ele><time>2026-03-29T08:45:44.574Z</time></trkpt><trkpt lat="43.7240567" lon="12.2295417"><ele>806.0</ele><time>2026-03-29T08:45:45.575Z</time></trkpt><trkpt lat="43.7240333" lon="12.22977"><ele>806.0</ele><time>2026-03-29T08:45:46.575Z</time></trkpt><trkpt lat="43.7239933" lon="12.2299833"><ele>806.0</ele><time>2026-03-29T08:45:47.574Z</time></trkpt><trkpt lat="43.7239167" lon="12.2301983"><ele>805.6666666666667</ele><time>2026-03-29T08:45:48.575Z</time></trkpt><trkpt lat="43.7238117" lon="12.230405"><ele>805.3333333333333</ele><time>2026-03-29T08:45:49.575Z</time></trkpt><trkpt lat="43.72369" lon="12.2306083"><ele>805.0</ele><time>2026-03-29T08:45:50.575Z</time></trkpt><trkpt lat="43.7235683" lon="12.23081"><ele>803.75</ele><time>2026-03-29T08:45:51.574Z</time></trkpt><trkpt lat="43.72346" lon="12.2309917"><ele>802.5</ele><time>2026-03-29T08:45:52.574Z</time></trkpt><trkpt lat="43.72338" lon="12.231155"><ele>801.25</ele><time>2026-03-29T08:45:53.575Z</time></trkpt><trkpt lat="43.723315" lon="12.2313133"><ele>800.0</ele><time>2026-03-29T08:45:54.574Z</time></trkpt><trkpt lat="43.7232767" lon="12.231475"><ele>800.0</ele><time>2026-03-29T08:45:55.575Z</time></trkpt><trkpt lat="43.7232767" lon="12.2316567"><ele>800.0</ele><time>2026-03-29T08:45:56.574Z</time></trkpt><trkpt lat="43.7233117" lon="12.2318667"><ele>800.0</ele><time>2026-03-29T08:45:57.575Z</time></trkpt><trkpt lat="43.723365" lon="12.2320933"><ele>800.3333333333334</ele><time>2026-03-29T08:45:58.575Z</time></trkpt><trkpt lat="43.7234" lon="12.2323167"><ele>800.6666666666667</ele><time>2026-03-29T08:45:59.574Z</time></trkpt><trkpt lat="43.7234" lon="12.2325517"><ele>801.0</ele><time>2026-03-29T08:46:00.575Z</time></trkpt><trkpt lat="43.7233583" lon="12.2328133"><ele>801.0</ele><time>2026-03-29T08:46:01.575Z</time></trkpt><trkpt lat="43.72329" lon="12.2330783"><ele>801.0</ele><time>2026-03-29T08:46:02.575Z</time></trkpt><trkpt lat="43.723215" lon="12.2333683"><ele>801.0</ele><time>2026-03-29T08:46:03.575Z</time></trkpt><trkpt lat="43.723135" lon="12.2336717"><ele>802.6666666666667</ele><time>2026-03-29T08:46:04.574Z</time></trkpt><trkpt lat="43.7230667" lon="12.2339667"><ele>804.3333333333334</ele><time>2026-03-29T08:46:05.575Z</time></trkpt><trkpt lat="43.7230033" lon="12.23423"><ele>806.0</ele><time>2026-03-29T08:46:06.575Z</time></trkpt><trkpt lat="43.7229483" lon="12.2344783"><ele>805.75</ele><time>2026-03-29T08:46:07.575Z</time></trkpt><trkpt lat="43.722895" lon="12.234695"><ele>805.5</ele><time>2026-03-29T08:46:08.575Z</time></trkpt><trkpt lat="43.722845" lon="12.234875"><ele>805.25</ele><time>2026-03-29T08:46:09.575Z</time></trkpt><trkpt lat="43.7227767" lon="12.2350183"><ele>805.0</ele><time>2026-03-29T08:46:10.575Z</time></trkpt><trkpt lat="43.7226833" lon="12.2351367"><ele>805.0</ele><time>2026-03-29T08:46:11.575Z</time></trkpt><trkpt lat="43.722565" lon="12.2352033"><ele>805.0</ele><time>2026-03-29T08:46:12.575Z</time></trkpt><trkpt lat="43.722435" lon="12.2352133"><ele>805.0</ele><time>2026-03-29T08:46:13.575Z</time></trkpt><trkpt lat="43.722315" lon="12.2351633"><ele>805.0</ele><time>2026-03-29T08:46:14.575Z</time></trkpt><trkpt lat="43.72221" lon="12.2350533"><ele>805.0</ele><time>2026-03-29T08:46:15.574Z</time></trkpt><trkpt lat="43.72211" lon="12.234905"><ele>805.0</ele><time>2026-03-29T08:46:16.574Z</time></trkpt><trkpt lat="43.72201" lon="12.2347567"><ele>805.0</ele><time>2026-03-29T08:46:17.574Z</time></trkpt><trkpt lat="43.7219033" lon="12.2346533"><ele>805.0</ele><time>2026-03-29T08:46:18.575Z</time></trkpt><trkpt lat="43.721785" lon="12.2345933"><ele>802.5</ele><time>2026-03-29T08:46:19.575Z</time></trkpt><trkpt lat="43.72167" lon="12.2345717"><ele>800.0</ele><time>2026-03-29T08:46:20.574Z</time></trkpt><trkpt lat="43.7215567" lon="12.23461"><ele>797.5</ele><time>2026-03-29T08:46:21.574Z</time></trkpt><trkpt lat="43.721435" lon="12.2346633"><ele>795.0</ele><time>2026-03-29T08:46:22.574Z</time></trkpt><trkpt lat="43.7213267" lon="12.23467"><ele>795.0</ele><time>2026-03-29T08:46:23.575Z</time></trkpt><trkpt lat="43.72123" lon="12.23461"><ele>795.0</ele><time>2026-03-29T08:46:24.575Z</time></trkpt><trkpt lat="43.7211467" lon="12.2345083"><ele>795.0</ele><time>2026-03-29T08:46:25.575Z</time></trkpt><trkpt lat="43.7210567" lon="12.2344117"><ele>795.0</ele><time>2026-03-29T08:46:26.574Z</time></trkpt><trkpt lat="43.7209367" lon="12.2343417"><ele>798.3333333333333</ele><time>2026-03-29T08:46:27.574Z</time></trkpt><trkpt lat="43.7207867" lon="12.234295"><ele>801.6666666666666</ele><time>2026-03-29T08:46:28.575Z</time></trkpt><trkpt lat="43.72061" lon="12.2342517"><ele>805.0</ele><time>2026-03-29T08:46:29.575Z</time></trkpt><trkpt lat="43.7204183" lon="12.23419"><ele>806.6666666666666</ele><time>2026-03-29T08:46:30.575Z</time></trkpt><trkpt lat="43.7202317" lon="12.23413"><ele>808.3333333333333</ele><time>2026-03-29T08:46:31.575Z</time></trkpt><trkpt lat="43.7200583" lon="12.234075"><ele>810.0</ele><time>2026-03-29T08:46:32.574Z</time></trkpt><trkpt lat="43.719905" lon="12.2340217"><ele>810.0</ele><time>2026-03-29T08:46:33.574Z</time></trkpt><trkpt lat="43.7197667" lon="12.2339717"><ele>810.0</ele><time>2026-03-29T08:46:34.575Z</time></trkpt><trkpt lat="43.7196317" lon="12.2339333"><ele>810.0</ele><time>2026-03-29T08:46:35.575Z</time></trkpt><trkpt lat="43.719505" lon="12.233905"><ele>810.0</ele><time>2026-03-29T08:46:36.575Z</time></trkpt><trkpt lat="43.7193767" lon="12.2338933"><ele>809.25</ele><time>2026-03-29T08:46:37.574Z</time></trkpt><trkpt lat="43.7192517" lon="12.2339317"><ele>808.5</ele><time>2026-03-29T08:46:38.575Z</time></trkpt><trkpt lat="43.719125" lon="12.23403"><ele>807.75</ele><time>2026-03-29T08:46:39.575Z</time></trkpt><trkpt lat="43.7190067" lon="12.2341517"><ele>807.0</ele><time>2026-03-29T08:46:40.575Z</time></trkpt><trkpt lat="43.71888" lon="12.2342983"><ele>807.0</ele><time>2026-03-29T08:46:41.575Z</time></trkpt><trkpt lat="43.7187583" lon="12.23444"><ele>807.0</ele><time>2026-03-29T08:46:42.575Z</time></trkpt><trkpt lat="43.7186433" lon="12.2346"><ele>807.0</ele><time>2026-03-29T08:46:43.575Z</time></trkpt><trkpt lat="43.7185467" lon="12.2347783"><ele>805.6666666666667</ele><time>2026-03-29T08:46:44.575Z</time></trkpt><trkpt lat="43.7184583" lon="12.2350033"><ele>804.3333333333334</ele><time>2026-03-29T08:46:45.575Z</time></trkpt><trkpt lat="43.7183833" lon="12.23525"><ele>803.0</ele><time>2026-03-29T08:46:46.574Z</time></trkpt><trkpt lat="43.7183233" lon="12.2354883"><ele>805.6666666666667</ele><time>2026-03-29T08:46:47.574Z</time></trkpt><trkpt lat="43.7182617" lon="12.2357017"><ele>808.3333333333333</ele><time>2026-03-29T08:46:48.574Z</time></trkpt><trkpt lat="43.71818" lon="12.2358933"><ele>811.0</ele><time>2026-03-29T08:46:49.575Z</time></trkpt><trkpt lat="43.7180683" lon="12.2360617"><ele>811.0</ele><time>2026-03-29T08:46:50.574Z</time></trkpt><trkpt lat="43.7179183" lon="12.2362133"><ele>811.0</ele><time>2026-03-29T08:46:51.575Z</time></trkpt><trkpt lat="43.7177483" lon="12.23635"><ele>811.0</ele><time>2026-03-29T08:46:52.575Z</time></trkpt><trkpt lat="43.717565" lon="12.2364783"><ele>811.3333333333333</ele><time>2026-03-29T08:46:53.574Z</time></trkpt><trkpt lat="43.717395" lon="12.236595"><ele>811.6666666666667</ele><time>2026-03-29T08:46:54.575Z</time></trkpt><trkpt lat="43.71726" lon="12.2366933"><ele>812.0</ele><time>2026-03-29T08:46:55.574Z</time></trkpt><trkpt lat="43.7171467" lon="12.236775"><ele>812.0</ele><time>2026-03-29T08:46:56.574Z</time></trkpt><trkpt lat="43.71706" lon="12.236865"><ele>812.0</ele><time>2026-03-29T08:46:57.574Z</time></trkpt><trkpt lat="43.7170033" lon="12.2369833"><ele>812.0</ele><time>2026-03-29T08:46:58.575Z</time></trkpt><trkpt lat="43.7169833" lon="12.2371317"><ele>812.0</ele><time>2026-03-29T08:46:59.575Z</time></trkpt><trkpt lat="43.7170133" lon="12.2372717"><ele>812.0</ele><time>2026-03-29T08:47:00.575Z</time></trkpt><trkpt lat="43.7170783" lon="12.2373917"><ele>815.25</ele><time>2026-03-29T08:47:01.575Z</time></trkpt><trkpt lat="43.7171767" lon="12.2374517"><ele>818.5</ele><time>2026-03-29T08:47:02.574Z</time></trkpt><trkpt lat="43.7173" lon="12.2374583"><ele>821.75</ele><time>2026-03-29T08:47:03.574Z</time></trkpt><trkpt lat="43.7174383" lon="12.23741"><ele>825.0</ele><time>2026-03-29T08:47:04.575Z</time></trkpt><trkpt lat="43.71759" lon="12.2373133"><ele>823.8</ele><time>2026-03-29T08:47:05.576Z</time></trkpt><trkpt lat="43.71772" lon="12.2372267"><ele>822.6</ele><time>2026-03-29T08:47:06.576Z</time></trkpt><trkpt lat="43.7178217" lon="12.2371833"><ele>821.4000000000001</ele><time>2026-03-29T08:47:07.576Z</time></trkpt><trkpt lat="43.7179117" lon="12.23718"><ele>820.2</ele><time>2026-03-29T08:47:08.576Z</time></trkpt><trkpt lat="43.718" lon="12.2372267"><ele>819.0</ele><time>2026-03-29T08:47:09.576Z</time></trkpt><trkpt lat="43.71807" lon="12.2373067"><ele>821.6</ele><time>2026-03-29T08:47:10.576Z</time></trkpt><trkpt lat="43.7180933" lon="12.2374217"><ele>824.2</ele><time>2026-03-29T08:47:11.576Z</time></trkpt><trkpt lat="43.7180817" lon="12.2375533"><ele>826.8000000000001</ele><time>2026-03-29T08:47:12.575Z</time></trkpt><trkpt lat="43.7180217" lon="12.23767"><ele>829.4000000000001</ele><time>2026-03-29T08:47:13.576Z</time></trkpt><trkpt lat="43.7179183" lon="12.2377483"><ele>832.0</ele><time>2026-03-29T08:47:14.576Z</time></trkpt><trkpt lat="43.717795" lon="12.2377733"><ele>830.25</ele><time>2026-03-29T08:47:15.576Z</time></trkpt><trkpt lat="43.71767" lon="12.2377767"><ele>828.5</ele><time>2026-03-29T08:47:16.575Z</time></trkpt><trkpt lat="43.71755" lon="12.2378"><ele>826.75</ele><time>2026-03-29T08:47:17.576Z</time></trkpt><trkpt lat="43.7174217" lon="12.237865"><ele>825.0</ele><time>2026-03-29T08:47:18.576Z</time></trkpt><trkpt lat="43.7173133" lon="12.2379783"><ele>829.3333333333333</ele><time>2026-03-29T08:47:19.575Z</time></trkpt><trkpt lat="43.7172367" lon="12.238155"><ele>833.6666666666666</ele><time>2026-03-29T08:47:20.576Z</time></trkpt><trkpt lat="43.7171683" lon="12.2383667"><ele>838.0</ele><time>2026-03-29T08:47:21.575Z</time></trkpt><trkpt lat="43.717115" lon="12.2385567"><ele>838.0</ele><time>2026-03-29T08:47:22.575Z</time></trkpt><trkpt lat="43.7170433" lon="12.2387133"><ele>838.0</ele><time>2026-03-29T08:47:23.575Z</time></trkpt><trkpt lat="43.7169483" lon="12.2388267"><ele>838.0</ele><time>2026-03-29T08:47:24.576Z</time></trkpt><trkpt lat="43.716815" lon="12.238885"><ele>838.0</ele><time>2026-03-29T08:47:25.575Z</time></trkpt><trkpt lat="43.71666" lon="12.238905"><ele>835.5</ele><time>2026-03-29T08:47:26.575Z</time></trkpt><trkpt lat="43.7165083" lon="12.2389067"><ele>833.0</ele><time>2026-03-29T08:47:27.576Z</time></trkpt><trkpt lat="43.71636" lon="12.2389033"><ele>830.5</ele><time>2026-03-29T08:47:28.576Z</time></trkpt><trkpt lat="43.7162283" lon="12.2389033"><ele>828.0</ele><time>2026-03-29T08:47:29.576Z</time></trkpt><trkpt lat="43.716105" lon="12.2389217"><ele>826.75</ele><time>2026-03-29T08:47:30.576Z</time></trkpt><trkpt lat="43.715985" lon="12.238965"><ele>825.5</ele><time>2026-03-29T08:47:31.576Z</time></trkpt><trkpt lat="43.7158817" lon="12.2390567"><ele>824.25</ele><time>2026-03-29T08:47:32.576Z</time></trkpt><trkpt lat="43.71581" lon="12.239185"><ele>823.0</ele><time>2026-03-29T08:47:33.575Z</time></trkpt><trkpt lat="43.7157683" lon="12.239365"><ele>828.0</ele><time>2026-03-29T08:47:34.575Z</time></trkpt><trkpt lat="43.7157567" lon="12.239575"><ele>833.0</ele><time>2026-03-29T08:47:35.576Z</time></trkpt><trkpt lat="43.7157683" lon="12.2398133"><ele>838.0</ele><time>2026-03-29T08:47:36.576Z</time></trkpt><trkpt lat="43.715795" lon="12.24008"><ele>841.0</ele><time>2026-03-29T08:47:37.575Z</time></trkpt><trkpt lat="43.715805" lon="12.240365"><ele>844.0</ele><time>2026-03-29T08:47:38.576Z</time></trkpt><trkpt lat="43.715795" lon="12.24064"><ele>847.0</ele><time>2026-03-29T08:47:39.575Z</time></trkpt><trkpt lat="43.7157567" lon="12.2409083"><ele>850.6666666666666</ele><time>2026-03-29T08:47:40.576Z</time></trkpt><trkpt lat="43.715705" lon="12.2411917"><ele>854.3333333333333</ele><time>2026-03-29T08:47:41.576Z</time></trkpt><trkpt lat="43.7156533" lon="12.241485"><ele>858.0</ele><time>2026-03-29T08:47:42.575Z</time></trkpt><trkpt lat="43.7156" lon="12.241755"><ele>860.0</ele><time>2026-03-29T08:47:43.576Z</time></trkpt><trkpt lat="43.7155483" lon="12.2419967"><ele>862.0</ele><time>2026-03-29T08:47:44.576Z</time></trkpt><trkpt lat="43.7155083" lon="12.2422083"><ele>864.0</ele><time>2026-03-29T08:47:45.576Z</time></trkpt><trkpt lat="43.7154733" lon="12.2423883"><ele>865.0</ele><time>2026-03-29T08:47:46.576Z</time></trkpt><trkpt lat="43.7154467" lon="12.242535"><ele>866.0000000000001</ele><time>2026-03-29T08:47:47.575Z</time></trkpt><trkpt lat="43.7154617" lon="12.242685"><ele>867.0000000000001</ele><time>2026-03-29T08:47:48.576Z</time></trkpt><trkpt lat="43.7155133" lon="12.2428167"><ele>868.0</ele><time>2026-03-29T08:47:49.576Z</time></trkpt><trkpt lat="43.7155983" lon="12.2429233"><ele>869.0</ele><time>2026-03-29T08:47:50.576Z</time></trkpt><trkpt lat="43.7157083" lon="12.2429783"><ele>869.0</ele><time>2026-03-29T08:47:51.575Z</time></trkpt><trkpt lat="43.7158283" lon="12.24298"><ele>869.0</ele><time>2026-03-29T08:47:52.576Z</time></trkpt><trkpt lat="43.7159517" lon="12.242925"><ele>869.0</ele><time>2026-03-29T08:47:53.575Z</time></trkpt><trkpt lat="43.7160783" lon="12.24281"><ele>869.0</ele><time>2026-03-29T08:47:54.576Z</time></trkpt><trkpt lat="43.71619" lon="12.2426817"><ele>873.75</ele><time>2026-03-29T08:47:55.575Z</time></trkpt><trkpt lat="43.71629" lon="12.242575"><ele>878.5</ele><time>2026-03-29T08:47:56.576Z</time></trkpt><trkpt lat="43.7163583" lon="12.24245"><ele>883.25</ele><time>2026-03-29T08:47:57.575Z</time></trkpt><trkpt lat="43.7163967" lon="12.2423017"><ele>888.0</ele><time>2026-03-29T08:47:58.576Z</time></trkpt><trkpt lat="43.7164" lon="12.2421233"><ele>888.0</ele><time>2026-03-29T08:47:59.576Z</time></trkpt><trkpt lat="43.7163667" lon="12.2419467"><ele>888.0</ele><time>2026-03-29T08:48:00.575Z</time></trkpt><trkpt lat="43.7162983" lon="12.24176"><ele>888.0</ele><time>2026-03-29T08:48:01.575Z</time></trkpt><trkpt lat="43.7162467" lon="12.2415933"><ele>888.0</ele><time>2026-03-29T08:48:02.575Z</time></trkpt><trkpt lat="43.716215" lon="12.2414367"><ele>885.75</ele><time>2026-03-29T08:48:03.576Z</time></trkpt><trkpt lat="43.716215" lon="12.2412817"><ele>883.5</ele><time>2026-03-29T08:48:04.575Z</time></trkpt><trkpt lat="43.71625" lon="12.2411367"><ele>881.25</ele><time>2026-03-29T08:48:05.575Z</time></trkpt><trkpt lat="43.71632" lon="12.2410217"><ele>879.0</ele><time>2026-03-29T08:48:06.576Z</time></trkpt><trkpt lat="43.7164217" lon="12.24093"><ele>879.0</ele><time>2026-03-29T08:48:07.576Z</time></trkpt><trkpt lat="43.7165517" lon="12.2408533"><ele>879.0</ele><time>2026-03-29T08:48:08.575Z</time></trkpt><trkpt lat="43.7167033" lon="12.2407833"><ele>879.0</ele><time>2026-03-29T08:48:09.576Z</time></trkpt><trkpt lat="43.7168633" lon="12.2407233"><ele>882.3333333333333</ele><time>2026-03-29T08:48:10.576Z</time></trkpt><trkpt lat="43.717025" lon="12.2406883"><ele>885.6666666666666</ele><time>2026-03-29T08:48:11.576Z</time></trkpt><trkpt lat="43.7171917" lon="12.240685"><ele>889.0</ele><time>2026-03-29T08:48:12.576Z</time></trkpt><trkpt lat="43.717375" lon="12.24072"><ele>889.0</ele><time>2026-03-29T08:48:13.576Z</time></trkpt><trkpt lat="43.7175467" lon="12.2407733"><ele>889.0</ele><time>2026-03-29T08:48:14.576Z</time></trkpt><trkpt lat="43.7177067" lon="12.2408117"><ele>889.0</ele><time>2026-03-29T08:48:15.576Z</time></trkpt><trkpt lat="43.7178533" lon="12.2408183"><ele>889.0</ele><time>2026-03-29T08:48:16.576Z</time></trkpt><trkpt lat="43.71799" lon="12.240785"><ele>889.0</ele><time>2026-03-29T08:48:17.576Z</time></trkpt><trkpt lat="43.7181167" lon="12.2407683"><ele>889.0</ele><time>2026-03-29T08:48:18.576Z</time></trkpt><trkpt lat="43.7182217" lon="12.2407617"><ele>889.0</ele><time>2026-03-29T08:48:19.575Z</time></trkpt><trkpt lat="43.7183067" lon="12.240785"><ele>889.0</ele><time>2026-03-29T08:48:20.575Z</time></trkpt><trkpt lat="43.718385" lon="12.2408517"><ele>889.0000000000001</ele><time>2026-03-29T08:48:21.575Z</time></trkpt><trkpt lat="43.718435" lon="12.2409417"><ele>889.0000000000001</ele><time>2026-03-29T08:48:22.576Z</time></trkpt><trkpt lat="43.7184317" lon="12.2410717"><ele>889.0</ele><time>2026-03-29T08:48:23.575Z</time></trkpt><trkpt lat="43.71838" lon="12.241195"><ele>889.0</ele><time>2026-03-29T08:48:24.575Z</time></trkpt><trkpt lat="43.7182933" lon="12.2412683"><ele>889.0</ele><time>2026-03-29T08:48:25.575Z</time></trkpt><trkpt lat="43.7181833" lon="12.2412783"><ele>889.0</ele><time>2026-03-29T08:48:26.576Z</time></trkpt><trkpt lat="43.7180467" lon="12.241255"><ele>889.0</ele><time>2026-03-29T08:48:27.575Z</time></trkpt><trkpt lat="43.7178883" lon="12.2412117"><ele>889.0</ele><time>2026-03-29T08:48:28.576Z</time></trkpt><trkpt lat="43.7177367" lon="12.2411717"><ele>889.0</ele><time>2026-03-29T08:48:29.576Z</time></trkpt><trkpt lat="43.7175933" lon="12.2411533"><ele>889.0</ele><time>2026-03-29T08:48:30.576Z</time></trkpt><trkpt lat="43.7174533" lon="12.2411983"><ele>889.0</ele><time>2026-03-29T08:48:31.576Z</time></trkpt><trkpt lat="43.7173183" lon="12.2413017"><ele>889.0</ele><time>2026-03-29T08:48:32.576Z</time></trkpt><trkpt lat="43.717205" lon="12.24142"><ele>893.5</ele><time>2026-03-29T08:48:33.575Z</time></trkpt><trkpt lat="43.7171267" lon="12.2415783"><ele>898.0</ele><time>2026-03-29T08:48:34.575Z</time></trkpt><trkpt lat="43.71708" lon="12.241755"><ele>902.5</ele><time>2026-03-29T08:48:35.576Z</time></trkpt><trkpt lat="43.71707" lon="12.241945"><ele>907.0</ele><time>2026-03-29T08:48:36.576Z</time></trkpt><trkpt lat="43.7170933" lon="12.2421417"><ele>909.0</ele><time>2026-03-29T08:48:37.576Z</time></trkpt><trkpt lat="43.7171567" lon="12.2423267"><ele>911.0</ele><time>2026-03-29T08:48:38.576Z</time></trkpt><trkpt lat="43.7172417" lon="12.2424933"><ele>913.0</ele><time>2026-03-29T08:48:39.576Z</time></trkpt><trkpt lat="43.7172967" lon="12.242665"><ele>915.0</ele><time>2026-03-29T08:48:40.576Z</time></trkpt><trkpt lat="43.7173233" lon="12.2428433"><ele>915.0</ele><time>2026-03-29T08:48:41.575Z</time></trkpt><trkpt lat="43.7172967" lon="12.24301"><ele>915.0</ele><time>2026-03-29T08:48:42.576Z</time></trkpt><trkpt lat="43.7172433" lon="12.2431583"><ele>915.0</ele><time>2026-03-29T08:48:43.575Z</time></trkpt><trkpt lat="43.7171783" lon="12.2433033"><ele>915.0</ele><time>2026-03-29T08:48:44.575Z</time></trkpt><trkpt lat="43.7171167" lon="12.24345"><ele>915.0</ele><time>2026-03-29T08:48:45.575Z</time></trkpt><trkpt lat="43.7170683" lon="12.2436083"><ele>915.0</ele><time>2026-03-29T08:48:46.576Z</time></trkpt><trkpt lat="43.717065" lon="12.2437717"><ele>915.0</ele><time>2026-03-29T08:48:47.575Z</time></trkpt><trkpt lat="43.7170983" lon="12.2439433"><ele>915.0</ele><time>2026-03-29T08:48:48.576Z</time></trkpt><trkpt lat="43.7171667" lon="12.2441133"><ele>915.25</ele><time>2026-03-29T08:48:49.576Z</time></trkpt><trkpt lat="43.7172667" lon="12.2442767"><ele>915.5</ele><time>2026-03-29T08:48:50.576Z</time></trkpt><trkpt lat="43.71736" lon="12.2444417"><ele>915.75</ele><time>2026-03-29T08:48:51.575Z</time></trkpt><trkpt lat="43.7174317" lon="12.2446017"><ele>916.0</ele><time>2026-03-29T08:48:52.575Z</time></trkpt><trkpt lat="43.7174733" lon="12.2447617"><ele>916.75</ele><time>2026-03-29T08:48:53.576Z</time></trkpt><trkpt lat="43.7174767" lon="12.2449233"><ele>917.5</ele><time>2026-03-29T08:48:54.575Z</time></trkpt><trkpt lat="43.7174417" lon="12.24509"><ele>918.25</ele><time>2026-03-29T08:48:55.575Z</time></trkpt><trkpt lat="43.71738" lon="12.2452467"><ele>919.0</ele><time>2026-03-29T08:48:56.575Z</time></trkpt><trkpt lat="43.7172883" lon="12.24539"><ele>919.0</ele><time>2026-03-29T08:48:57.575Z</time></trkpt><trkpt lat="43.7171883" lon="12.245515"><ele>919.0</ele><time>2026-03-29T08:48:58.576Z</time></trkpt><trkpt lat="43.717085" lon="12.2456083"><ele>919.0</ele><time>2026-03-29T08:48:59.575Z</time></trkpt><trkpt lat="43.7169817" lon="12.245685"><ele>919.0</ele><time>2026-03-29T08:49:00.575Z</time></trkpt><trkpt lat="43.7168683" lon="12.2457417"><ele>919.0</ele><time>2026-03-29T08:49:01.575Z</time></trkpt><trkpt lat="43.7167467" lon="12.24579"><ele>919.0</ele><time>2026-03-29T08:49:02.576Z</time></trkpt><trkpt lat="43.71662" lon="12.2458283"><ele>919.0</ele><time>2026-03-29T08:49:03.576Z</time></trkpt><trkpt lat="43.7164883" lon="12.245875"><ele>919.0</ele><time>2026-03-29T08:49:04.575Z</time></trkpt><trkpt lat="43.71634" lon="12.2459233"><ele>919.0</ele><time>2026-03-29T08:49:05.576Z</time></trkpt><trkpt lat="43.7161917" lon="12.245965"><ele>919.0</ele><time>2026-03-29T08:49:06.576Z</time></trkpt><trkpt lat="43.716055" lon="12.245995"><ele>919.0</ele><time>2026-03-29T08:49:07.576Z</time></trkpt><trkpt lat="43.7159217" lon="12.246005"><ele>919.0</ele><time>2026-03-29T08:49:08.576Z</time></trkpt><trkpt lat="43.7157817" lon="12.2459883"><ele>918.5</ele><time>2026-03-29T08:49:09.576Z</time></trkpt><trkpt lat="43.71564" lon="12.24595"><ele>918.0</ele><time>2026-03-29T08:49:10.575Z</time></trkpt><trkpt lat="43.7155067" lon="12.2459067"><ele>917.5</ele><time>2026-03-29T08:49:11.575Z</time></trkpt><trkpt lat="43.7153783" lon="12.2458817"><ele>917.0</ele><time>2026-03-29T08:49:12.575Z</time></trkpt><trkpt lat="43.7152417" lon="12.2458983"><ele>917.0</ele><time>2026-03-29T08:49:13.576Z</time></trkpt><trkpt lat="43.7151" lon="12.2459583"><ele>917.0</ele><time>2026-03-29T08:49:14.576Z</time></trkpt><trkpt lat="43.714945" lon="12.246065"><ele>917.0</ele><time>2026-03-29T08:49:15.576Z</time></trkpt><trkpt lat="43.714775" lon="12.2461917"><ele>917.0</ele><time>2026-03-29T08:49:16.575Z</time></trkpt><trkpt lat="43.7146067" lon="12.24632"><ele>917.0</ele><time>2026-03-29T08:49:17.576Z</time></trkpt><trkpt lat="43.71445" lon="12.2464467"><ele>917.0</ele><time>2026-03-29T08:49:18.576Z</time></trkpt><trkpt lat="43.7142983" lon="12.2465767"><ele>916.6666666666667</ele><time>2026-03-29T08:49:19.575Z</time></trkpt><trkpt lat="43.7141483" lon="12.2467133"><ele>916.3333333333333</ele><time>2026-03-29T08:49:20.576Z</time></trkpt><trkpt lat="43.7140067" lon="12.2468533"><ele>916.0</ele><time>2026-03-29T08:49:21.576Z</time></trkpt><trkpt lat="43.7138767" lon="12.24698"><ele>916.0</ele><time>2026-03-29T08:49:22.576Z</time></trkpt><trkpt lat="43.7137533" lon="12.2470933"><ele>916.0</ele><time>2026-03-29T08:49:23.576Z</time></trkpt><trkpt lat="43.7136417" lon="12.2471933"><ele>916.0</ele><time>2026-03-29T08:49:24.575Z</time></trkpt><trkpt lat="43.71354" lon="12.24728"><ele>916.0</ele><time>2026-03-29T08:49:25.576Z</time></trkpt><trkpt lat="43.7134333" lon="12.247335"><ele>915.0</ele><time>2026-03-29T08:49:26.576Z</time></trkpt><trkpt lat="43.7133133" lon="12.2473383"><ele>914.0</ele><time>2026-03-29T08:49:27.576Z</time></trkpt><trkpt lat="43.71319" lon="12.2472983"><ele>913.0</ele><time>2026-03-29T08:49:28.576Z</time></trkpt><trkpt lat="43.7130767" lon="12.247205"><ele>912.0</ele><time>2026-03-29T08:49:29.576Z</time></trkpt><trkpt lat="43.7129633" lon="12.2470733"><ele>912.0</ele><time>2026-03-29T08:49:30.576Z</time></trkpt><trkpt lat="43.712835" lon="12.2469367"><ele>912.0</ele><time>2026-03-29T08:49:31.576Z</time></trkpt><trkpt lat="43.712685" lon="12.2468"><ele>912.0</ele><time>2026-03-29T08:49:32.576Z</time></trkpt><trkpt lat="43.712535" lon="12.246685"><ele>912.0</ele><time>2026-03-29T08:49:33.576Z</time></trkpt><trkpt lat="43.7123717" lon="12.2465883"><ele>912.0</ele><time>2026-03-29T08:49:34.576Z</time></trkpt><trkpt lat="43.7121983" lon="12.2465133"><ele>912.0</ele><time>2026-03-29T08:49:35.576Z</time></trkpt><trkpt lat="43.7120217" lon="12.2464617"><ele>914.6666666666667</ele><time>2026-03-29T08:49:36.576Z</time></trkpt><trkpt lat="43.7118533" lon="12.2464217"><ele>917.3333333333334</ele><time>2026-03-29T08:49:37.576Z</time></trkpt><trkpt lat="43.7116917" lon="12.24639"><ele>920.0</ele><time>2026-03-29T08:49:38.576Z</time></trkpt><trkpt lat="43.7115367" lon="12.246355"><ele>920.0</ele><time>2026-03-29T08:49:39.576Z</time></trkpt><trkpt lat="43.7113867" lon="12.2463083"><ele>920.0</ele><time>2026-03-29T08:49:40.576Z</time></trkpt><trkpt lat="43.7112417" lon="12.246245"><ele>920.0</ele><time>2026-03-29T08:49:41.576Z</time></trkpt><trkpt lat="43.7111017" lon="12.2461833"><ele>915.6666666666667</ele><time>2026-03-29T08:49:42.576Z</time></trkpt><trkpt lat="43.7109633" lon="12.2461267"><ele>911.3333333333333</ele><time>2026-03-29T08:49:43.576Z</time></trkpt><trkpt lat="43.7108" lon="12.2461067"><ele>907.0</ele><time>2026-03-29T08:49:44.575Z</time></trkpt><trkpt lat="43.7106333" lon="12.24612"><ele>907.0</ele><time>2026-03-29T08:49:45.576Z</time></trkpt><trkpt lat="43.7104783" lon="12.246145"><ele>907.0</ele><time>2026-03-29T08:49:46.576Z</time></trkpt><trkpt lat="43.7103367" lon="12.246195"><ele>907.0</ele><time>2026-03-29T08:49:47.576Z</time></trkpt><trkpt lat="43.7102017" lon="12.2462683"><ele>907.0</ele><time>2026-03-29T08:49:48.576Z</time></trkpt><trkpt lat="43.710075" lon="12.2463717"><ele>904.3333333333333</ele><time>2026-03-29T08:49:49.576Z</time></trkpt><trkpt lat="43.709955" lon="12.2465183"><ele>901.6666666666667</ele><time>2026-03-29T08:49:50.575Z</time></trkpt><trkpt lat="43.7098383" lon="12.246705"><ele>899.0</ele><time>2026-03-29T08:49:51.576Z</time></trkpt><trkpt lat="43.7097183" lon="12.24691"><ele>899.0</ele><time>2026-03-29T08:49:52.576Z</time></trkpt><trkpt lat="43.7095883" lon="12.2471233"><ele>899.0</ele><time>2026-03-29T08:49:53.575Z</time></trkpt><trkpt lat="43.70945" lon="12.2473483"><ele>899.0</ele><time>2026-03-29T08:49:54.576Z</time></trkpt><trkpt lat="43.7093083" lon="12.2475733"><ele>898.0</ele><time>2026-03-29T08:49:55.575Z</time></trkpt><trkpt lat="43.7091717" lon="12.247785"><ele>897.0</ele><time>2026-03-29T08:49:56.576Z</time></trkpt><trkpt lat="43.7090433" lon="12.2479833"><ele>896.0</ele><time>2026-03-29T08:49:57.576Z</time></trkpt><trkpt lat="43.708925" lon="12.2481783"><ele>892.3333333333334</ele><time>2026-03-29T08:49:58.575Z</time></trkpt><trkpt lat="43.70882" lon="12.2483683"><ele>888.6666666666667</ele><time>2026-03-29T08:49:59.576Z</time></trkpt><trkpt lat="43.70874" lon="12.2485617"><ele>885.0</ele><time>2026-03-29T08:50:00.575Z</time></trkpt><trkpt lat="43.70868" lon="12.248745"><ele>885.0</ele><time>2026-03-29T08:50:01.575Z</time></trkpt><trkpt lat="43.70863" lon="12.24891"><ele>885.0</ele><time>2026-03-29T08:50:02.576Z</time></trkpt><trkpt lat="43.7085883" lon="12.24906"><ele>885.0</ele><time>2026-03-29T08:50:03.576Z</time></trkpt><trkpt lat="43.7085317" lon="12.2491917"><ele>885.0</ele><time>2026-03-29T08:50:04.575Z</time></trkpt><trkpt lat="43.708445" lon="12.249295"><ele>885.6666666666667</ele><time>2026-03-29T08:50:05.576Z</time></trkpt><trkpt lat="43.70832" lon="12.249365"><ele>886.3333333333334</ele><time>2026-03-29T08:50:06.576Z</time></trkpt><trkpt lat="43.7081617" lon="12.24942"><ele>887.0</ele><time>2026-03-29T08:50:07.576Z</time></trkpt><trkpt lat="43.7079867" lon="12.2494717"><ele>887.0</ele><time>2026-03-29T08:50:08.576Z</time></trkpt><trkpt lat="43.7078133" lon="12.249515"><ele>887.0</ele><time>2026-03-29T08:50:09.575Z</time></trkpt><trkpt lat="43.707655" lon="12.2495383"><ele>887.0</ele><time>2026-03-29T08:50:10.576Z</time></trkpt><trkpt lat="43.707515" lon="12.2495583"><ele>888.6666666666667</ele><time>2026-03-29T08:50:11.575Z</time></trkpt><trkpt lat="43.70738" lon="12.2496067"><ele>890.3333333333333</ele><time>2026-03-29T08:50:12.575Z</time></trkpt><trkpt lat="43.7072517" lon="12.2497233"><ele>892.0</ele><time>2026-03-29T08:50:13.576Z</time></trkpt><trkpt lat="43.707135" lon="12.249895"><ele>890.0</ele><time>2026-03-29T08:50:14.576Z</time></trkpt><trkpt lat="43.7070433" lon="12.25011"><ele>888.0</ele><time>2026-03-29T08:50:15.575Z</time></trkpt><trkpt lat="43.7069633" lon="12.2503183"><ele>886.0</ele><time>2026-03-29T08:50:16.576Z</time></trkpt><trkpt lat="43.7068783" lon="12.2504983"><ele>881.0</ele><time>2026-03-29T08:50:17.576Z</time></trkpt><trkpt lat="43.7067683" lon="12.2506583"><ele>876.0</ele><time>2026-03-29T08:50:18.576Z</time></trkpt><trkpt lat="43.70665" lon="12.2508083"><ele>871.0</ele><time>2026-03-29T08:50:19.576Z</time></trkpt><trkpt lat="43.70654" lon="12.2509367"><ele>871.0</ele><time>2026-03-29T08:50:20.576Z</time></trkpt><trkpt lat="43.7064533" lon="12.25103"><ele>870.9999999999999</ele><time>2026-03-29T08:50:21.576Z</time></trkpt><trkpt lat="43.70637" lon="12.2510967"><ele>870.9999999999999</ele><time>2026-03-29T08:50:22.575Z</time></trkpt><trkpt lat="43.7062767" lon="12.25113"><ele>871.0</ele><time>2026-03-29T08:50:23.575Z</time></trkpt><trkpt lat="43.7061667" lon="12.25112"><ele>871.0</ele><time>2026-03-29T08:50:24.575Z</time></trkpt><trkpt lat="43.7060417" lon="12.2510733"><ele>872.0</ele><time>2026-03-29T08:50:25.576Z</time></trkpt><trkpt lat="43.7059067" lon="12.2510117"><ele>873.0</ele><time>2026-03-29T08:50:26.575Z</time></trkpt><trkpt lat="43.7057617" lon="12.2509567"><ele>874.0</ele><time>2026-03-29T08:50:27.576Z</time></trkpt><trkpt lat="43.70561" lon="12.2509217"><ele>875.0</ele><time>2026-03-29T08:50:28.576Z</time></trkpt><trkpt lat="43.7054633" lon="12.2509033"><ele>875.0</ele><time>2026-03-29T08:50:29.575Z</time></trkpt><trkpt lat="43.70532" lon="12.250895"><ele>875.0</ele><time>2026-03-29T08:50:30.575Z</time></trkpt><trkpt lat="43.7051717" lon="12.2509017"><ele>875.0</ele><time>2026-03-29T08:50:31.575Z</time></trkpt><trkpt lat="43.7050133" lon="12.2509267"><ele>872.5</ele><time>2026-03-29T08:50:32.576Z</time></trkpt><trkpt lat="43.70487" lon="12.2509683"><ele>870.0</ele><time>2026-03-29T08:50:33.576Z</time></trkpt><trkpt lat="43.7047317" lon="12.2510317"><ele>867.5</ele><time>2026-03-29T08:50:34.576Z</time></trkpt><trkpt lat="43.7045933" lon="12.2511117"><ele>865.0</ele><time>2026-03-29T08:50:35.575Z</time></trkpt><trkpt lat="43.704455" lon="12.2512183"><ele>862.75</ele><time>2026-03-29T08:50:36.575Z</time></trkpt><trkpt lat="43.70434" lon="12.25133"><ele>860.5</ele><time>2026-03-29T08:50:37.576Z</time></trkpt><trkpt lat="43.7042367" lon="12.2514467"><ele>858.25</ele><time>2026-03-29T08:50:38.576Z</time></trkpt><trkpt lat="43.7041383" lon="12.2515617"><ele>856.0</ele><time>2026-03-29T08:50:39.576Z</time></trkpt><trkpt lat="43.7040617" lon="12.2516917"><ele>855.4</ele><time>2026-03-29T08:50:40.575Z</time></trkpt><trkpt lat="43.70401" lon="12.251825"><ele>854.8</ele><time>2026-03-29T08:50:41.576Z</time></trkpt><trkpt lat="43.70398" lon="12.2519617"><ele>854.1999999999999</ele><time>2026-03-29T08:50:42.576Z</time></trkpt><trkpt lat="43.7039883" lon="12.25209"><ele>853.5999999999999</ele><time>2026-03-29T08:50:43.576Z</time></trkpt><trkpt lat="43.7040433" lon="12.252205"><ele>853.0</ele><time>2026-03-29T08:50:44.576Z</time></trkpt><trkpt lat="43.7041367" lon="12.2523"><ele>851.75</ele><time>2026-03-29T08:50:45.575Z</time></trkpt><trkpt lat="43.7042583" lon="12.252365"><ele>850.5</ele><time>2026-03-29T08:50:46.576Z</time></trkpt><trkpt lat="43.7043967" lon="12.2524033"><ele>849.25</ele><time>2026-03-29T08:50:47.576Z</time></trkpt><trkpt lat="43.7045317" lon="12.2524117"><ele>848.0</ele><time>2026-03-29T08:50:48.575Z</time></trkpt><trkpt lat="43.7046583" lon="12.2523783"><ele>849.0</ele><time>2026-03-29T08:50:49.575Z</time></trkpt><trkpt lat="43.70478" lon="12.2522983"><ele>850.0</ele><time>2026-03-29T08:50:50.576Z</time></trkpt><trkpt lat="43.7048967" lon="12.252195"><ele>851.0</ele><time>2026-03-29T08:50:51.576Z</time></trkpt><trkpt lat="43.7050133" lon="12.25211"><ele>852.0</ele><time>2026-03-29T08:50:52.576Z</time></trkpt><trkpt lat="43.70514" lon="12.2520533"><ele>852.25</ele><time>2026-03-29T08:50:53.575Z</time></trkpt><trkpt lat="43.705275" lon="12.25204"><ele>852.5</ele><time>2026-03-29T08:50:54.576Z</time></trkpt><trkpt lat="43.70541" lon="12.2520467"><ele>852.75</ele><time>2026-03-29T08:50:55.576Z</time></trkpt><trkpt lat="43.7055283" lon="12.2520667"><ele>853.0</ele><time>2026-03-29T08:50:56.575Z</time></trkpt><trkpt lat="43.7056283" lon="12.2521217"><ele>853.0</ele><time>2026-03-29T08:50:57.575Z</time></trkpt><trkpt lat="43.7057217" lon="12.2522133"><ele>853.0</ele><time>2026-03-29T08:50:58.576Z</time></trkpt><trkpt lat="43.705805" lon="12.2523667"><ele>853.0</ele><time>2026-03-29T08:50:59.575Z</time></trkpt><trkpt lat="43.7058833" lon="12.2525233"><ele>853.0</ele><time>2026-03-29T08:51:00.576Z</time></trkpt><trkpt lat="43.7059583" lon="12.2526733"><ele>851.25</ele><time>2026-03-29T08:51:01.575Z</time></trkpt><trkpt lat="43.7060333" lon="12.252815"><ele>849.5</ele><time>2026-03-29T08:51:02.576Z</time></trkpt><trkpt lat="43.7061133" lon="12.2529433"><ele>847.75</ele><time>2026-03-29T08:51:03.575Z</time></trkpt><trkpt lat="43.7061783" lon="12.2530667"><ele>846.0</ele><time>2026-03-29T08:51:04.575Z</time></trkpt><trkpt lat="43.7062433" lon="12.2531817"><ele>842.0</ele><time>2026-03-29T08:51:05.576Z</time></trkpt><trkpt lat="43.706315" lon="12.2532883"><ele>838.0</ele><time>2026-03-29T08:51:06.576Z</time></trkpt><trkpt lat="43.7064017" lon="12.2533717"><ele>834.0</ele><time>2026-03-29T08:51:07.576Z</time></trkpt><trkpt lat="43.70652" lon="12.2534183"><ele>830.0</ele><time>2026-03-29T08:51:08.576Z</time></trkpt><trkpt lat="43.70666" lon="12.253425"><ele>830.0</ele><time>2026-03-29T08:51:09.576Z</time></trkpt><trkpt lat="43.7068283" lon="12.2533967"><ele>830.0</ele><time>2026-03-29T08:51:10.576Z</time></trkpt><trkpt lat="43.7069967" lon="12.2533633"><ele>830.0</ele><time>2026-03-29T08:51:11.576Z</time></trkpt><trkpt lat="43.70715" lon="12.2533367"><ele>829.25</ele><time>2026-03-29T08:51:12.575Z</time></trkpt><trkpt lat="43.7072933" lon="12.2533167"><ele>828.5</ele><time>2026-03-29T08:51:13.576Z</time></trkpt><trkpt lat="43.7074283" lon="12.2533117"><ele>827.75</ele><time>2026-03-29T08:51:14.576Z</time></trkpt><trkpt lat="43.7075583" lon="12.2533233"><ele>827.0</ele><time>2026-03-29T08:51:15.576Z</time></trkpt><trkpt lat="43.7076717" lon="12.25336"><ele>827.4000000000001</ele><time>2026-03-29T08:51:16.576Z</time></trkpt><trkpt lat="43.7077717" lon="12.253425"><ele>827.8000000000001</ele><time>2026-03-29T08:51:17.575Z</time></trkpt><trkpt lat="43.7078467" lon="12.2535083"><ele>828.2</ele><time>2026-03-29T08:51:18.575Z</time></trkpt><trkpt lat="43.7079" lon="12.2536"><ele>828.6</ele><time>2026-03-29T08:51:19.576Z</time></trkpt><trkpt lat="43.70793" lon="12.2537033"><ele>829.0</ele><time>2026-03-29T08:51:20.576Z</time></trkpt><trkpt lat="43.7078917" lon="12.253805"><ele>829.0</ele><time>2026-03-29T08:51:21.576Z</time></trkpt><trkpt lat="43.7078283" lon="12.2538983"><ele>829.0</ele><time>2026-03-29T08:51:22.576Z</time></trkpt><trkpt lat="43.7077317" lon="12.2539683"><ele>829.0</ele><time>2026-03-29T08:51:23.575Z</time></trkpt><trkpt lat="43.7075683" lon="12.2539967"><ele>829.0</ele><time>2026-03-29T08:51:24.576Z</time></trkpt><trkpt lat="43.7073933" lon="12.254005"><ele>825.0</ele><time>2026-03-29T08:51:25.575Z</time></trkpt><trkpt lat="43.7072" lon="12.254025"><ele>821.0</ele><time>2026-03-29T08:51:26.576Z</time></trkpt><trkpt lat="43.7070083" lon="12.2540467"><ele>817.0</ele><time>2026-03-29T08:51:27.576Z</time></trkpt><trkpt lat="43.7068367" lon="12.2540667"><ele>816.8</ele><time>2026-03-29T08:51:28.576Z</time></trkpt><trkpt lat="43.7066933" lon="12.2540767"><ele>816.6</ele><time>2026-03-29T08:51:29.576Z</time></trkpt><trkpt lat="43.7065783" lon="12.2540883"><ele>816.4</ele><time>2026-03-29T08:51:30.576Z</time></trkpt><trkpt lat="43.7064933" lon="12.254105"><ele>816.1999999999999</ele><time>2026-03-29T08:51:31.576Z</time></trkpt><trkpt lat="43.706415" lon="12.2541383"><ele>816.0</ele><time>2026-03-29T08:51:32.576Z</time></trkpt><trkpt lat="43.7063583" lon="12.2541983"><ele>816.0</ele><time>2026-03-29T08:51:33.576Z</time></trkpt><trkpt lat="43.706355" lon="12.2542883"><ele>816.0</ele><time>2026-03-29T08:51:34.576Z</time></trkpt><trkpt lat="43.70644" lon="12.2544317"><ele>816.0</ele><time>2026-03-29T08:51:36.575Z</time></trkpt><trkpt lat="43.70655" lon="12.254505"><ele>816.0</ele><time>2026-03-29T08:51:37.576Z</time></trkpt><trkpt lat="43.7066983" lon="12.25459"><ele>816.0</ele><time>2026-03-29T08:51:38.576Z</time></trkpt><trkpt lat="43.7068533" lon="12.254685"><ele>816.0</ele><time>2026-03-29T08:51:39.576Z</time></trkpt><trkpt lat="43.7070033" lon="12.254795"><ele>816.0</ele><time>2026-03-29T08:51:40.575Z</time></trkpt><trkpt lat="43.707155" lon="12.2548833"><ele>812.3333333333333</ele><time>2026-03-29T08:51:41.575Z</time></trkpt><trkpt lat="43.7072967" lon="12.2549583"><ele>808.6666666666666</ele><time>2026-03-29T08:51:42.576Z</time></trkpt><trkpt lat="43.70745" lon="12.25502"><ele>805.0</ele><time>2026-03-29T08:51:43.576Z</time></trkpt><trkpt lat="43.7076033" lon="12.2550383"><ele>805.2</ele><time>2026-03-29T08:51:44.576Z</time></trkpt><trkpt lat="43.7077467" lon="12.2550217"><ele>805.4</ele><time>2026-03-29T08:51:45.576Z</time></trkpt><trkpt lat="43.7078583" lon="12.2549967"><ele>805.5999999999999</ele><time>2026-03-29T08:51:46.576Z</time></trkpt><trkpt lat="43.7079433" lon="12.2549783"><ele>805.8</ele><time>2026-03-29T08:51:47.576Z</time></trkpt><trkpt lat="43.7080083" lon="12.2549667"><ele>806.0</ele><time>2026-03-29T08:51:48.576Z</time></trkpt><trkpt lat="43.7080983" lon="12.2550217"><ele>806.0</ele><time>2026-03-29T08:51:50.575Z</time></trkpt><trkpt lat="43.7080633" lon="12.2551917"><ele>806.0</ele><time>2026-03-29T08:51:52.575Z</time></trkpt><trkpt lat="43.7079917" lon="12.25528"><ele>806.0</ele><time>2026-03-29T08:51:53.576Z</time></trkpt><trkpt lat="43.70788" lon="12.2553717"><ele>806.0</ele><time>2026-03-29T08:51:54.575Z</time></trkpt><trkpt lat="43.707725" lon="12.25547"><ele>805.6666666666667</ele><time>2026-03-29T08:51:55.575Z</time></trkpt><trkpt lat="43.7075733" lon="12.2555767"><ele>805.3333333333333</ele><time>2026-03-29T08:51:56.575Z</time></trkpt><trkpt lat="43.7074383" lon="12.2556833"><ele>805.0</ele><time>2026-03-29T08:51:57.576Z</time></trkpt><trkpt lat="43.70732" lon="12.2557733"><ele>802.0</ele><time>2026-03-29T08:51:58.576Z</time></trkpt><trkpt lat="43.7072083" lon="12.25585"><ele>799.0</ele><time>2026-03-29T08:51:59.576Z</time></trkpt><trkpt lat="43.70709" lon="12.25589"><ele>796.0</ele><time>2026-03-29T08:52:00.575Z</time></trkpt><trkpt lat="43.7069533" lon="12.2558833"><ele>793.0</ele><time>2026-03-29T08:52:01.576Z</time></trkpt><trkpt lat="43.7068017" lon="12.2558467"><ele>792.4</ele><time>2026-03-29T08:52:02.576Z</time></trkpt><trkpt lat="43.7066567" lon="12.255805"><ele>791.8</ele><time>2026-03-29T08:52:03.576Z</time></trkpt><trkpt lat="43.70654" lon="12.2557633"><ele>791.2</ele><time>2026-03-29T08:52:04.575Z</time></trkpt><trkpt lat="43.7064533" lon="12.255735"><ele>790.6</ele><time>2026-03-29T08:52:05.575Z</time></trkpt><trkpt lat="43.7063817" lon="12.2557317"><ele>790.0</ele><time>2026-03-29T08:52:06.576Z</time></trkpt><trkpt lat="43.7063167" lon="12.25578"><ele>790.0</ele><time>2026-03-29T08:52:07.575Z</time></trkpt><trkpt lat="43.70626" lon="12.2558583"><ele>790.0</ele><time>2026-03-29T08:52:08.576Z</time></trkpt><trkpt lat="43.7062333" lon="12.25596"><ele>790.0</ele><time>2026-03-29T08:52:09.576Z</time></trkpt><trkpt lat="43.7062567" lon="12.2560883"><ele>790.0</ele><time>2026-03-29T08:52:10.575Z</time></trkpt><trkpt lat="43.70632" lon="12.2562033"><ele>790.0</ele><time>2026-03-29T08:52:11.575Z</time></trkpt><trkpt lat="43.7064517" lon="12.2563167"><ele>790.0</ele><time>2026-03-29T08:52:12.575Z</time></trkpt><trkpt lat="43.7066333" lon="12.2564483"><ele>790.0</ele><time>2026-03-29T08:52:13.576Z</time></trkpt><trkpt lat="43.70678" lon="12.25658"><ele>790.0</ele><time>2026-03-29T08:52:14.575Z</time></trkpt><trkpt lat="43.7069" lon="12.25673"><ele>788.6666666666666</ele><time>2026-03-29T08:52:15.576Z</time></trkpt><trkpt lat="43.7070017" lon="12.2568917"><ele>787.3333333333333</ele><time>2026-03-29T08:52:16.575Z</time></trkpt><trkpt lat="43.7070917" lon="12.2570717"><ele>786.0</ele><time>2026-03-29T08:52:17.576Z</time></trkpt><trkpt lat="43.7071733" lon="12.2572733"><ele>784.0</ele><time>2026-03-29T08:52:18.576Z</time></trkpt><trkpt lat="43.70725" lon="12.2574867"><ele>782.0</ele><time>2026-03-29T08:52:19.576Z</time></trkpt><trkpt lat="43.7073233" lon="12.257725"><ele>780.0</ele><time>2026-03-29T08:52:20.576Z</time></trkpt><trkpt lat="43.7074067" lon="12.2579817"><ele>777.6666666666667</ele><time>2026-03-29T08:52:21.575Z</time></trkpt><trkpt lat="43.7074933" lon="12.2582417"><ele>775.3333333333334</ele><time>2026-03-29T08:52:22.576Z</time></trkpt><trkpt lat="43.7075817" lon="12.2585033"><ele>773.0</ele><time>2026-03-29T08:52:23.576Z</time></trkpt><trkpt lat="43.7076667" lon="12.2587583"><ele>773.0</ele><time>2026-03-29T08:52:24.575Z</time></trkpt><trkpt lat="43.7077533" lon="12.259005"><ele>773.0</ele><time>2026-03-29T08:52:25.575Z</time></trkpt><trkpt lat="43.7078367" lon="12.2592433"><ele>773.0</ele><time>2026-03-29T08:52:26.575Z</time></trkpt><trkpt lat="43.707915" lon="12.2594733"><ele>773.0</ele><time>2026-03-29T08:52:27.576Z</time></trkpt><trkpt lat="43.70799" lon="12.2596917"><ele>773.0</ele><time>2026-03-29T08:52:28.577Z</time></trkpt><trkpt lat="43.7080567" lon="12.2599017"><ele>773.0</ele><time>2026-03-29T08:52:29.576Z</time></trkpt><trkpt lat="43.70811" lon="12.2601"><ele>771.6666666666667</ele><time>2026-03-29T08:52:30.577Z</time></trkpt><trkpt lat="43.708155" lon="12.2603067"><ele>770.3333333333333</ele><time>2026-03-29T08:52:31.577Z</time></trkpt><trkpt lat="43.7081783" lon="12.2605467"><ele>769.0</ele><time>2026-03-29T08:52:32.577Z</time></trkpt><trkpt lat="43.70819" lon="12.2608067"><ele>768.3333333333333</ele><time>2026-03-29T08:52:33.576Z</time></trkpt><trkpt lat="43.708195" lon="12.2610883"><ele>767.6666666666666</ele><time>2026-03-29T08:52:34.577Z</time></trkpt><trkpt lat="43.7082017" lon="12.261365"><ele>767.0</ele><time>2026-03-29T08:52:35.576Z</time></trkpt><trkpt lat="43.708205" lon="12.2616283"><ele>765.3333333333333</ele><time>2026-03-29T08:52:36.576Z</time></trkpt><trkpt lat="43.7082033" lon="12.261865"><ele>763.6666666666666</ele><time>2026-03-29T08:52:37.576Z</time></trkpt><trkpt lat="43.7081983" lon="12.2620733"><ele>762.0</ele><time>2026-03-29T08:52:38.577Z</time></trkpt><trkpt lat="43.7081933" lon="12.2622617"><ele>761.3333333333334</ele><time>2026-03-29T08:52:39.577Z</time></trkpt><trkpt lat="43.7081867" lon="12.2624233"><ele>760.6666666666666</ele><time>2026-03-29T08:52:40.576Z</time></trkpt><trkpt lat="43.7081683" lon="12.2625517"><ele>760.0</ele><time>2026-03-29T08:52:41.577Z</time></trkpt><trkpt lat="43.7081333" lon="12.2626533"><ele>759.3333333333333</ele><time>2026-03-29T08:52:42.577Z</time></trkpt><trkpt lat="43.7080817" lon="12.2627283"><ele>758.6666666666666</ele><time>2026-03-29T08:52:43.576Z</time></trkpt><trkpt lat="43.7080083" lon="12.2627383"><ele>758.0</ele><time>2026-03-29T08:52:44.577Z</time></trkpt><trkpt lat="43.70794" lon="12.26267"><ele>758.0</ele><time>2026-03-29T08:52:45.577Z</time></trkpt><trkpt lat="43.7078967" lon="12.2625667"><ele>758.0</ele><time>2026-03-29T08:52:46.577Z</time></trkpt><trkpt lat="43.70787" lon="12.2624367"><ele>758.0</ele><time>2026-03-29T08:52:47.576Z</time></trkpt><trkpt lat="43.707865" lon="12.26228"><ele>758.0</ele><time>2026-03-29T08:52:48.577Z</time></trkpt><trkpt lat="43.7078633" lon="12.2621017"><ele>758.0</ele><time>2026-03-29T08:52:49.577Z</time></trkpt><trkpt lat="43.70786" lon="12.2619083"><ele>759.0</ele><time>2026-03-29T08:52:50.577Z</time></trkpt><trkpt lat="43.7078517" lon="12.2617183"><ele>760.0</ele><time>2026-03-29T08:52:51.576Z</time></trkpt><trkpt lat="43.7078283" lon="12.26154"><ele>761.0</ele><time>2026-03-29T08:52:52.577Z</time></trkpt><trkpt lat="43.7077883" lon="12.2613667"><ele>762.0</ele><time>2026-03-29T08:52:53.576Z</time></trkpt><trkpt lat="43.7077467" lon="12.261215"><ele>759.4000000000001</ele><time>2026-03-29T08:52:54.576Z</time></trkpt><trkpt lat="43.707705" lon="12.26108"><ele>756.8000000000001</ele><time>2026-03-29T08:52:55.577Z</time></trkpt><trkpt lat="43.7076433" lon="12.26099"><ele>754.2</ele><time>2026-03-29T08:52:56.576Z</time></trkpt><trkpt lat="43.7075533" lon="12.2609317"><ele>751.6</ele><time>2026-03-29T08:52:57.577Z</time></trkpt><trkpt lat="43.7074133" lon="12.26094"><ele>749.0</ele><time>2026-03-29T08:52:58.577Z</time></trkpt><trkpt lat="43.7072733" lon="12.2609567"><ele>749.0</ele><time>2026-03-29T08:52:59.576Z</time></trkpt><trkpt lat="43.7071417" lon="12.2609733"><ele>749.0</ele><time>2026-03-29T08:53:00.577Z</time></trkpt><trkpt lat="43.707015" lon="12.2609883"><ele>749.0</ele><time>2026-03-29T08:53:01.577Z</time></trkpt><trkpt lat="43.7069" lon="12.2610067"><ele>749.0</ele><time>2026-03-29T08:53:02.577Z</time></trkpt><trkpt lat="43.7067983" lon="12.2610417"><ele>747.25</ele><time>2026-03-29T08:53:03.577Z</time></trkpt><trkpt lat="43.7067117" lon="12.2611117"><ele>745.5</ele><time>2026-03-29T08:53:04.577Z</time></trkpt><trkpt lat="43.706645" lon="12.261235"><ele>743.75</ele><time>2026-03-29T08:53:05.576Z</time></trkpt><trkpt lat="43.7065933" lon="12.261405"><ele>742.0</ele><time>2026-03-29T08:53:06.577Z</time></trkpt><trkpt lat="43.70656" lon="12.261615"><ele>739.0</ele><time>2026-03-29T08:53:07.576Z</time></trkpt><trkpt lat="43.706525" lon="12.2618733"><ele>736.0</ele><time>2026-03-29T08:53:08.577Z</time></trkpt><trkpt lat="43.70648" lon="12.26216"><ele>733.0</ele><time>2026-03-29T08:53:09.577Z</time></trkpt><trkpt lat="43.7064333" lon="12.2624417"><ele>731.3333333333334</ele><time>2026-03-29T08:53:10.577Z</time></trkpt><trkpt lat="43.7063833" lon="12.2627117"><ele>729.6666666666666</ele><time>2026-03-29T08:53:11.577Z</time></trkpt><trkpt lat="43.7063317" lon="12.26297"><ele>728.0</ele><time>2026-03-29T08:53:12.577Z</time></trkpt><trkpt lat="43.706285" lon="12.2632167"><ele>726.6666666666666</ele><time>2026-03-29T08:53:13.576Z</time></trkpt><trkpt lat="43.7062417" lon="12.2634533"><ele>725.3333333333334</ele><time>2026-03-29T08:53:14.577Z</time></trkpt><trkpt lat="43.7062067" lon="12.2636917"><ele>724.0</ele><time>2026-03-29T08:53:15.577Z</time></trkpt><trkpt lat="43.706185" lon="12.2639433"><ele>721.6666666666667</ele><time>2026-03-29T08:53:16.577Z</time></trkpt><trkpt lat="43.7061783" lon="12.26422"><ele>719.3333333333334</ele><time>2026-03-29T08:53:17.576Z</time></trkpt><trkpt lat="43.7061783" lon="12.2644917"><ele>717.0</ele><time>2026-03-29T08:53:18.577Z</time></trkpt><trkpt lat="43.7061817" lon="12.264745"><ele>715.6666666666666</ele><time>2026-03-29T08:53:19.577Z</time></trkpt><trkpt lat="43.7061883" lon="12.2649767"><ele>714.3333333333333</ele><time>2026-03-29T08:53:20.577Z</time></trkpt><trkpt lat="43.70621" lon="12.2651983"><ele>713.0</ele><time>2026-03-29T08:53:21.576Z</time></trkpt><trkpt lat="43.7062533" lon="12.2654083"><ele>713.0</ele><time>2026-03-29T08:53:22.577Z</time></trkpt><trkpt lat="43.70631" lon="12.2655967"><ele>713.0</ele><time>2026-03-29T08:53:23.577Z</time></trkpt><trkpt lat="43.7063717" lon="12.2657683"><ele>713.0</ele><time>2026-03-29T08:53:24.577Z</time></trkpt><trkpt lat="43.7064217" lon="12.265925"><ele>713.0</ele><time>2026-03-29T08:53:25.577Z</time></trkpt><trkpt lat="43.7064483" lon="12.2660733"><ele>713.25</ele><time>2026-03-29T08:53:26.577Z</time></trkpt><trkpt lat="43.7064483" lon="12.266235"><ele>713.5</ele><time>2026-03-29T08:53:27.577Z</time></trkpt><trkpt lat="43.70642" lon="12.266415"><ele>713.75</ele><time>2026-03-29T08:53:28.577Z</time></trkpt><trkpt lat="43.70637" lon="12.2665917"><ele>714.0</ele><time>2026-03-29T08:53:29.577Z</time></trkpt><trkpt lat="43.7063133" lon="12.2667567"><ele>713.25</ele><time>2026-03-29T08:53:30.577Z</time></trkpt><trkpt lat="43.7062483" lon="12.26691"><ele>712.5</ele><time>2026-03-29T08:53:31.576Z</time></trkpt><trkpt lat="43.7061683" lon="12.2670433"><ele>711.75</ele><time>2026-03-29T08:53:32.577Z</time></trkpt><trkpt lat="43.7060733" lon="12.2671533"><ele>711.0</ele><time>2026-03-29T08:53:33.577Z</time></trkpt><trkpt lat="43.70598" lon="12.2672417"><ele>708.1999999999999</ele><time>2026-03-29T08:53:34.576Z</time></trkpt><trkpt lat="43.7059083" lon="12.2673233"><ele>705.4</ele><time>2026-03-29T08:53:35.577Z</time></trkpt><trkpt lat="43.7058483" lon="12.2674183"><ele>702.6</ele><time>2026-03-29T08:53:36.577Z</time></trkpt><trkpt lat="43.7058117" lon="12.26754"><ele>699.8</ele><time>2026-03-29T08:53:37.577Z</time></trkpt><trkpt lat="43.7058033" lon="12.26767"><ele>697.0</ele><time>2026-03-29T08:53:38.576Z</time></trkpt><trkpt lat="43.7058267" lon="12.2678067"><ele>697.0</ele><time>2026-03-29T08:53:39.577Z</time></trkpt><trkpt lat="43.7058833" lon="12.2679333"><ele>697.0</ele><time>2026-03-29T08:53:40.577Z</time></trkpt><trkpt lat="43.705975" lon="12.2680333"><ele>697.0</ele><time>2026-03-29T08:53:41.577Z</time></trkpt><trkpt lat="43.7060933" lon="12.2681017"><ele>697.0</ele><time>2026-03-29T08:53:42.577Z</time></trkpt><trkpt lat="43.70624" lon="12.2681567"><ele>695.3333333333334</ele><time>2026-03-29T08:53:43.577Z</time></trkpt><trkpt lat="43.7064017" lon="12.26821"><ele>693.6666666666666</ele><time>2026-03-29T08:53:44.577Z</time></trkpt><trkpt lat="43.7065583" lon="12.2682633"><ele>692.0</ele><time>2026-03-29T08:53:45.577Z</time></trkpt><trkpt lat="43.7067033" lon="12.268315"><ele>692.0</ele><time>2026-03-29T08:53:46.577Z</time></trkpt><trkpt lat="43.7068367" lon="12.2683567"><ele>692.0</ele><time>2026-03-29T08:53:47.576Z</time></trkpt><trkpt lat="43.70695" lon="12.26839"><ele>692.0</ele><time>2026-03-29T08:53:48.576Z</time></trkpt><trkpt lat="43.707045" lon="12.268425"><ele>692.0</ele><time>2026-03-29T08:53:49.577Z</time></trkpt><trkpt lat="43.7071233" lon="12.268475"><ele>692.0</ele><time>2026-03-29T08:53:50.577Z</time></trkpt><trkpt lat="43.7071833" lon="12.2685517"><ele>690.0</ele><time>2026-03-29T08:53:51.577Z</time></trkpt><trkpt lat="43.707225" lon="12.268665"><ele>688.0</ele><time>2026-03-29T08:53:52.577Z</time></trkpt><trkpt lat="43.7072417" lon="12.268805"><ele>686.0</ele><time>2026-03-29T08:53:53.576Z</time></trkpt><trkpt lat="43.7072267" lon="12.2689483"><ele>684.0</ele><time>2026-03-29T08:53:54.576Z</time></trkpt><trkpt lat="43.70717" lon="12.2690967"><ele>682.0</ele><time>2026-03-29T08:53:55.576Z</time></trkpt><trkpt lat="43.70708" lon="12.2692417"><ele>681.6666666666667</ele><time>2026-03-29T08:53:56.577Z</time></trkpt><trkpt lat="43.706955" lon="12.26939"><ele>681.3333333333334</ele><time>2026-03-29T08:53:57.576Z</time></trkpt><trkpt lat="43.70681" lon="12.2695367"><ele>681.0</ele><time>2026-03-29T08:53:58.577Z</time></trkpt><trkpt lat="43.7066633" lon="12.2696883"><ele>677.3333333333334</ele><time>2026-03-29T08:53:59.577Z</time></trkpt><trkpt lat="43.7065267" lon="12.26983"><ele>673.6666666666667</ele><time>2026-03-29T08:54:00.576Z</time></trkpt><trkpt lat="43.7063983" lon="12.2699583"><ele>670.0</ele><time>2026-03-29T08:54:01.576Z</time></trkpt><trkpt lat="43.70629" lon="12.2700667"><ele>670.0</ele><time>2026-03-29T08:54:02.577Z</time></trkpt><trkpt lat="43.7061833" lon="12.2701417"><ele>670.0</ele><time>2026-03-29T08:54:03.576Z</time></trkpt><trkpt lat="43.70607" lon="12.2701733"><ele>670.0</ele><time>2026-03-29T08:54:04.576Z</time></trkpt><trkpt lat="43.7059483" lon="12.2701683"><ele>670.0</ele><time>2026-03-29T08:54:05.576Z</time></trkpt><trkpt lat="43.7058217" lon="12.2701217"><ele>669.5</ele><time>2026-03-29T08:54:06.577Z</time></trkpt><trkpt lat="43.7056983" lon="12.2700483"><ele>669.0</ele><time>2026-03-29T08:54:07.577Z</time></trkpt><trkpt lat="43.7055883" lon="12.2699517"><ele>668.5</ele><time>2026-03-29T08:54:08.577Z</time></trkpt><trkpt lat="43.7054933" lon="12.2698317"><ele>668.0</ele><time>2026-03-29T08:54:09.577Z</time></trkpt><trkpt lat="43.7054167" lon="12.2696983"><ele>667.2</ele><time>2026-03-29T08:54:10.577Z</time></trkpt><trkpt lat="43.70535" lon="12.2695717"><ele>666.4</ele><time>2026-03-29T08:54:11.577Z</time></trkpt><trkpt lat="43.7052783" lon="12.2694717"><ele>665.6</ele><time>2026-03-29T08:54:12.577Z</time></trkpt><trkpt lat="43.7051917" lon="12.2694083"><ele>664.8000000000001</ele><time>2026-03-29T08:54:13.577Z</time></trkpt><trkpt lat="43.70509" lon="12.2694"><ele>664.0</ele><time>2026-03-29T08:54:14.577Z</time></trkpt><trkpt lat="43.7049883" lon="12.2694467"><ele>664.0</ele><time>2026-03-29T08:54:15.576Z</time></trkpt><trkpt lat="43.7049117" lon="12.2695433"><ele>664.0</ele><time>2026-03-29T08:54:16.576Z</time></trkpt><trkpt lat="43.7048583" lon="12.2696917"><ele>664.0</ele><time>2026-03-29T08:54:17.577Z</time></trkpt><trkpt lat="43.70482" lon="12.2698867"><ele>664.0</ele><time>2026-03-29T08:54:18.577Z</time></trkpt><trkpt lat="43.7047883" lon="12.27009"><ele>662.0</ele><time>2026-03-29T08:54:19.577Z</time></trkpt><trkpt lat="43.7047617" lon="12.2702833"><ele>660.0</ele><time>2026-03-29T08:54:20.576Z</time></trkpt><trkpt lat="43.704735" lon="12.2704517"><ele>658.0</ele><time>2026-03-29T08:54:21.577Z</time></trkpt><trkpt lat="43.70472" lon="12.2706"><ele>656.0</ele><time>2026-03-29T08:54:22.577Z</time></trkpt><trkpt lat="43.7047367" lon="12.27075"><ele>653.6666666666666</ele><time>2026-03-29T08:54:23.577Z</time></trkpt><trkpt lat="43.7047933" lon="12.27091"><ele>651.3333333333334</ele><time>2026-03-29T08:54:24.577Z</time></trkpt><trkpt lat="43.7048867" lon="12.27108"><ele>649.0</ele><time>2026-03-29T08:54:25.577Z</time></trkpt><trkpt lat="43.7049983" lon="12.2712533"><ele>649.0</ele><time>2026-03-29T08:54:26.577Z</time></trkpt><trkpt lat="43.70511" lon="12.2714167"><ele>649.0</ele><time>2026-03-29T08:54:27.577Z</time></trkpt><trkpt lat="43.7052117" lon="12.2715683"><ele>649.0</ele><time>2026-03-29T08:54:28.577Z</time></trkpt><trkpt lat="43.7053083" lon="12.2717183"><ele>646.0</ele><time>2026-03-29T08:54:29.577Z</time></trkpt><trkpt lat="43.705405" lon="12.271865"><ele>643.0</ele><time>2026-03-29T08:54:30.577Z</time></trkpt><trkpt lat="43.705505" lon="12.2720183"><ele>640.0</ele><time>2026-03-29T08:54:31.577Z</time></trkpt><trkpt lat="43.7056083" lon="12.2721817"><ele>638.0</ele><time>2026-03-29T08:54:32.576Z</time></trkpt><trkpt lat="43.7057217" lon="12.2723567"><ele>636.0</ele><time>2026-03-29T08:54:33.576Z</time></trkpt><trkpt lat="43.7058467" lon="12.272545"><ele>634.0</ele><time>2026-03-29T08:54:34.577Z</time></trkpt><trkpt lat="43.7059767" lon="12.27274"><ele>633.0</ele><time>2026-03-29T08:54:35.577Z</time></trkpt><trkpt lat="43.7061033" lon="12.272935"><ele>632.0</ele><time>2026-03-29T08:54:36.577Z</time></trkpt><trkpt lat="43.7062367" lon="12.27314"><ele>631.0</ele><time>2026-03-29T08:54:37.577Z</time></trkpt><trkpt lat="43.70636" lon="12.2733283"><ele>631.0</ele><time>2026-03-29T08:54:38.576Z</time></trkpt><trkpt lat="43.7064833" lon="12.2735067"><ele>631.0</ele><time>2026-03-29T08:54:39.576Z</time></trkpt><trkpt lat="43.7066117" lon="12.273665"><ele>631.0</ele><time>2026-03-29T08:54:40.577Z</time></trkpt><trkpt lat="43.7067217" lon="12.2738133"><ele>629.5</ele><time>2026-03-29T08:54:41.576Z</time></trkpt><trkpt lat="43.7068233" lon="12.27395"><ele>628.0</ele><time>2026-03-29T08:54:42.577Z</time></trkpt><trkpt lat="43.706915" lon="12.2740683"><ele>626.5</ele><time>2026-03-29T08:54:43.577Z</time></trkpt><trkpt lat="43.7069933" lon="12.274175"><ele>625.0</ele><time>2026-03-29T08:54:44.577Z</time></trkpt><trkpt lat="43.7070583" lon="12.274275"><ele>623.6</ele><time>2026-03-29T08:54:45.577Z</time></trkpt><trkpt lat="43.7071333" lon="12.274355"><ele>622.2</ele><time>2026-03-29T08:54:46.577Z</time></trkpt><trkpt lat="43.7071983" lon="12.274405"><ele>620.8</ele><time>2026-03-29T08:54:47.576Z</time></trkpt><trkpt lat="43.7072767" lon="12.27441"><ele>619.4</ele><time>2026-03-29T08:54:48.576Z</time></trkpt><trkpt lat="43.70736" lon="12.274345"><ele>618.0</ele><time>2026-03-29T08:54:49.577Z</time></trkpt><trkpt lat="43.7074367" lon="12.2742417"><ele>618.0</ele><time>2026-03-29T08:54:50.576Z</time></trkpt><trkpt lat="43.707485" lon="12.2741133"><ele>618.0</ele><time>2026-03-29T08:54:51.576Z</time></trkpt><trkpt lat="43.707505" lon="12.2739733"><ele>618.0</ele><time>2026-03-29T08:54:52.577Z</time></trkpt><trkpt lat="43.7075133" lon="12.2738333"><ele>618.0</ele><time>2026-03-29T08:54:53.576Z</time></trkpt><trkpt lat="43.707525" lon="12.2736933"><ele>618.0</ele><time>2026-03-29T08:54:54.577Z</time></trkpt><trkpt lat="43.707535" lon="12.2735583"><ele>618.6666666666666</ele><time>2026-03-29T08:54:55.577Z</time></trkpt><trkpt lat="43.7075633" lon="12.2734517"><ele>619.3333333333334</ele><time>2026-03-29T08:54:56.576Z</time></trkpt><trkpt lat="43.707585" lon="12.2733583"><ele>620.0</ele><time>2026-03-29T08:54:57.577Z</time></trkpt><trkpt lat="43.7076133" lon="12.27328"><ele>620.6666666666667</ele><time>2026-03-29T08:54:58.577Z</time></trkpt><trkpt lat="43.7077083" lon="12.2732133"><ele>621.3333333333334</ele><time>2026-03-29T08:55:00.577Z</time></trkpt><trkpt lat="43.7078233" lon="12.2732867"><ele>622.0</ele><time>2026-03-29T08:55:02.577Z</time></trkpt><trkpt lat="43.707875" lon="12.2733917"><ele>617.5</ele><time>2026-03-29T08:55:03.577Z</time></trkpt><trkpt lat="43.7079167" lon="12.27355"><ele>613.0</ele><time>2026-03-29T08:55:04.577Z</time></trkpt><trkpt lat="43.7079467" lon="12.2737533"><ele>608.5</ele><time>2026-03-29T08:55:05.577Z</time></trkpt><trkpt lat="43.707955" lon="12.2739783"><ele>604.0</ele><time>2026-03-29T08:55:06.576Z</time></trkpt><trkpt lat="43.7079517" lon="12.2741933"><ele>602.75</ele><time>2026-03-29T08:55:07.576Z</time></trkpt><trkpt lat="43.7079483" lon="12.2743967"><ele>601.5</ele><time>2026-03-29T08:55:08.577Z</time></trkpt><trkpt lat="43.7079683" lon="12.2745783"><ele>600.25</ele><time>2026-03-29T08:55:09.577Z</time></trkpt><trkpt lat="43.70803" lon="12.2747467"><ele>599.0</ele><time>2026-03-29T08:55:10.576Z</time></trkpt><trkpt lat="43.70808" lon="12.274905"><ele>597.5</ele><time>2026-03-29T08:55:11.576Z</time></trkpt><trkpt lat="43.7081117" lon="12.275075"><ele>596.0</ele><time>2026-03-29T08:55:12.577Z</time></trkpt><trkpt lat="43.7081117" lon="12.2752533"><ele>594.5</ele><time>2026-03-29T08:55:13.577Z</time></trkpt><trkpt lat="43.7080817" lon="12.275445"><ele>593.0</ele><time>2026-03-29T08:55:14.576Z</time></trkpt><trkpt lat="43.7080183" lon="12.2756567"><ele>589.6666666666666</ele><time>2026-03-29T08:55:15.576Z</time></trkpt><trkpt lat="43.707945" lon="12.2758817"><ele>586.3333333333334</ele><time>2026-03-29T08:55:16.576Z</time></trkpt><trkpt lat="43.7078783" lon="12.2761217"><ele>583.0</ele><time>2026-03-29T08:55:17.576Z</time></trkpt><trkpt lat="43.7078233" lon="12.2763667"><ele>585.0</ele><time>2026-03-29T08:55:18.577Z</time></trkpt><trkpt lat="43.7077683" lon="12.2766017"><ele>587.0</ele><time>2026-03-29T08:55:19.577Z</time></trkpt><trkpt lat="43.7077133" lon="12.2768283"><ele>589.0</ele><time>2026-03-29T08:55:20.577Z</time></trkpt><trkpt lat="43.7076633" lon="12.2770483"><ele>589.0</ele><time>2026-03-29T08:55:21.577Z</time></trkpt><trkpt lat="43.7076133" lon="12.2772533"><ele>589.0</ele><time>2026-03-29T08:55:22.577Z</time></trkpt><trkpt lat="43.7075633" lon="12.277455"><ele>589.0</ele><time>2026-03-29T08:55:23.576Z</time></trkpt><trkpt lat="43.707505" lon="12.2776533"><ele>586.0</ele><time>2026-03-29T08:55:24.576Z</time></trkpt><trkpt lat="43.7074317" lon="12.2778367"><ele>583.0</ele><time>2026-03-29T08:55:25.577Z</time></trkpt><trkpt lat="43.7073483" lon="12.278005"><ele>580.0</ele><time>2026-03-29T08:55:26.577Z</time></trkpt><trkpt lat="43.70726" lon="12.2781417"><ele>577.0</ele><time>2026-03-29T08:55:27.577Z</time></trkpt><trkpt lat="43.707175" lon="12.2782633"><ele>574.0</ele><time>2026-03-29T08:55:28.577Z</time></trkpt><trkpt lat="43.70711" lon="12.2783917"><ele>571.0</ele><time>2026-03-29T08:55:29.577Z</time></trkpt><trkpt lat="43.7070733" lon="12.2785483"><ele>568.0</ele><time>2026-03-29T08:55:30.577Z</time></trkpt><trkpt lat="43.7070767" lon="12.2787217"><ele>565.0</ele><time>2026-03-29T08:55:31.576Z</time></trkpt><trkpt lat="43.70711" lon="12.2789033"><ele>562.0</ele><time>2026-03-29T08:55:32.577Z</time></trkpt><trkpt lat="43.7071633" lon="12.2790733"><ele>559.0</ele><time>2026-03-29T08:55:33.577Z</time></trkpt><trkpt lat="43.70724" lon="12.2792317"><ele>556.0</ele><time>2026-03-29T08:55:34.576Z</time></trkpt><trkpt lat="43.7073467" lon="12.2793783"><ele>553.0</ele><time>2026-03-29T08:55:35.576Z</time></trkpt><trkpt lat="43.707465" lon="12.27951"><ele>553.0</ele><time>2026-03-29T08:55:36.577Z</time></trkpt><trkpt lat="43.70757" lon="12.2796233"><ele>553.0</ele><time>2026-03-29T08:55:37.577Z</time></trkpt><trkpt lat="43.7076467" lon="12.279725"><ele>553.0</ele><time>2026-03-29T08:55:38.577Z</time></trkpt><trkpt lat="43.7077033" lon="12.2798317"><ele>553.0</ele><time>2026-03-29T08:55:39.577Z</time></trkpt><trkpt lat="43.7077317" lon="12.2799633"><ele>553.0</ele><time>2026-03-29T08:55:40.577Z</time></trkpt><trkpt lat="43.7077283" lon="12.28012"><ele>551.0</ele><time>2026-03-29T08:55:41.577Z</time></trkpt><trkpt lat="43.7076967" lon="12.280275"><ele>549.0</ele><time>2026-03-29T08:55:42.576Z</time></trkpt><trkpt lat="43.7076633" lon="12.280425"><ele>547.0</ele><time>2026-03-29T08:55:43.577Z</time></trkpt><trkpt lat="43.7076533" lon="12.2805883"><ele>545.0</ele><time>2026-03-29T08:55:44.577Z</time></trkpt><trkpt lat="43.7076767" lon="12.2807617"><ele>543.25</ele><time>2026-03-29T08:55:45.576Z</time></trkpt><trkpt lat="43.70772" lon="12.2809333"><ele>541.5</ele><time>2026-03-29T08:55:46.576Z</time></trkpt><trkpt lat="43.707745" lon="12.2811133"><ele>539.75</ele><time>2026-03-29T08:55:47.577Z</time></trkpt><trkpt lat="43.7077417" lon="12.2812983"><ele>538.0</ele><time>2026-03-29T08:55:48.577Z</time></trkpt><trkpt lat="43.7077217" lon="12.2814683"><ele>536.8</ele><time>2026-03-29T08:55:49.576Z</time></trkpt><trkpt lat="43.7076917" lon="12.2816083"><ele>535.5999999999999</ele><time>2026-03-29T08:55:50.577Z</time></trkpt><trkpt lat="43.7076683" lon="12.2817183"><ele>534.4000000000001</ele><time>2026-03-29T08:55:51.576Z</time></trkpt><trkpt lat="43.707665" lon="12.2818117"><ele>533.2</ele><time>2026-03-29T08:55:52.577Z</time></trkpt><trkpt lat="43.7076917" lon="12.2818917"><ele>532.0</ele><time>2026-03-29T08:55:53.577Z</time></trkpt><trkpt lat="43.7078233" lon="12.2819367"><ele>528.75</ele><time>2026-03-29T08:55:55.577Z</time></trkpt><trkpt lat="43.707925" lon="12.28187"><ele>525.5</ele><time>2026-03-29T08:55:56.576Z</time></trkpt><trkpt lat="43.708025" lon="12.281735"><ele>522.25</ele><time>2026-03-29T08:55:57.577Z</time></trkpt><trkpt lat="43.7081233" lon="12.2815717"><ele>519.0</ele><time>2026-03-29T08:55:58.577Z</time></trkpt><trkpt lat="43.7082" lon="12.281455"><ele>519.0</ele><time>2026-03-29T08:55:59.577Z</time></trkpt><trkpt lat="43.7082667" lon="12.2813933"><ele>519.0</ele><time>2026-03-29T08:56:00.576Z</time></trkpt><trkpt lat="43.70833" lon="12.28137"><ele>519.0</ele><time>2026-03-29T08:56:01.577Z</time></trkpt><trkpt lat="43.70839" lon="12.2814017"><ele>519.0</ele><time>2026-03-29T08:56:02.577Z</time></trkpt><trkpt lat="43.7084483" lon="12.28148"><ele>519.0</ele><time>2026-03-29T08:56:03.577Z</time></trkpt><trkpt lat="43.7084783" lon="12.281615"><ele>519.0</ele><time>2026-03-29T08:56:04.577Z</time></trkpt><trkpt lat="43.70848" lon="12.2818"><ele>519.0</ele><time>2026-03-29T08:56:05.577Z</time></trkpt><trkpt lat="43.708455" lon="12.2820433"><ele>519.0</ele><time>2026-03-29T08:56:06.576Z</time></trkpt><trkpt lat="43.70844" lon="12.2822683"><ele>519.0</ele><time>2026-03-29T08:56:07.576Z</time></trkpt><trkpt lat="43.70843" lon="12.2824567"><ele>516.5</ele><time>2026-03-29T08:56:08.577Z</time></trkpt><trkpt lat="43.7084083" lon="12.28261"><ele>514.0</ele><time>2026-03-29T08:56:09.577Z</time></trkpt><trkpt lat="43.7083633" lon="12.282745"><ele>511.5</ele><time>2026-03-29T08:56:10.576Z</time></trkpt><trkpt lat="43.708285" lon="12.282865"><ele>509.0</ele><time>2026-03-29T08:56:11.577Z</time></trkpt><trkpt lat="43.7081917" lon="12.28296"><ele>508.99999999999994</ele><time>2026-03-29T08:56:12.577Z</time></trkpt><trkpt lat="43.7081133" lon="12.2830367"><ele>509.0</ele><time>2026-03-29T08:56:13.577Z</time></trkpt><trkpt lat="43.7080633" lon="12.2831167"><ele>509.0</ele><time>2026-03-29T08:56:14.576Z</time></trkpt><trkpt lat="43.7080333" lon="12.2832533"><ele>509.0</ele><time>2026-03-29T08:56:16.576Z</time></trkpt><trkpt lat="43.7080683" lon="12.2833367"><ele>508.99999999999994</ele><time>2026-03-29T08:56:18.576Z</time></trkpt><trkpt lat="43.7081383" lon="12.2833317"><ele>509.0</ele><time>2026-03-29T08:56:20.577Z</time></trkpt><trkpt lat="43.7081317" lon="12.2832017"><ele>509.0</ele><time>2026-03-29T08:56:23.577Z</time></trkpt><trkpt lat="43.7081283" lon="12.2830833"><ele>509.0</ele><time>2026-03-29T08:56:25.577Z</time></trkpt><trkpt lat="43.7082217" lon="12.282935"><ele>509.0</ele><time>2026-03-29T08:56:27.577Z</time></trkpt><trkpt lat="43.708305" lon="12.282855"><ele>509.0</ele><time>2026-03-29T08:56:28.577Z</time></trkpt><trkpt lat="43.7083783" lon="12.282755"><ele>509.0</ele><time>2026-03-29T08:56:29.577Z</time></trkpt><trkpt lat="43.7084317" lon="12.2826083"><ele>509.0</ele><time>2026-03-29T08:56:30.577Z</time></trkpt><trkpt lat="43.7084667" lon="12.2824"><ele>509.0</ele><time>2026-03-29T08:56:31.576Z</time></trkpt><trkpt lat="43.7084817" lon="12.2821633"><ele>509.0</ele><time>2026-03-29T08:56:32.577Z</time></trkpt><trkpt lat="43.7084833" lon="12.281935"><ele>511.0</ele><time>2026-03-29T08:56:33.577Z</time></trkpt><trkpt lat="43.708495" lon="12.28174"><ele>513.0</ele><time>2026-03-29T08:56:34.576Z</time></trkpt><trkpt lat="43.708495" lon="12.2815833"><ele>515.0</ele><time>2026-03-29T08:56:35.576Z</time></trkpt><trkpt lat="43.7084717" lon="12.2814667"><ele>517.0</ele><time>2026-03-29T08:56:36.577Z</time></trkpt><trkpt lat="43.708425" lon="12.2813817"><ele>519.0</ele><time>2026-03-29T08:56:37.577Z</time></trkpt><trkpt lat="43.7083583" lon="12.2813233"><ele>519.0</ele><time>2026-03-29T08:56:38.576Z</time></trkpt><trkpt lat="43.7082783" lon="12.2813133"><ele>519.0</ele><time>2026-03-29T08:56:39.577Z</time></trkpt><trkpt lat="43.7081817" lon="12.281365"><ele>519.0</ele><time>2026-03-29T08:56:40.577Z</time></trkpt><trkpt lat="43.70808" lon="12.281485"><ele>519.0</ele><time>2026-03-29T08:56:41.577Z</time></trkpt><trkpt lat="43.70799" lon="12.28166"><ele>519.0</ele><time>2026-03-29T08:56:42.576Z</time></trkpt><trkpt lat="43.7079133" lon="12.2817817"><ele>519.0</ele><time>2026-03-29T08:56:43.576Z</time></trkpt><trkpt lat="43.70784" lon="12.2818483"><ele>519.0</ele><time>2026-03-29T08:56:44.576Z</time></trkpt><trkpt lat="43.7077733" lon="12.28187"><ele>519.0</ele><time>2026-03-29T08:56:45.577Z</time></trkpt><trkpt lat="43.7077083" lon="12.2818483"><ele>519.0</ele><time>2026-03-29T08:56:46.577Z</time></trkpt><trkpt lat="43.7076617" lon="12.2817733"><ele>519.0</ele><time>2026-03-29T08:56:47.577Z</time></trkpt><trkpt lat="43.7076533" lon="12.2816683"><ele>520.5</ele><time>2026-03-29T08:56:48.576Z</time></trkpt><trkpt lat="43.7076767" lon="12.28154"><ele>522.0</ele><time>2026-03-29T08:56:49.577Z</time></trkpt><trkpt lat="43.7077233" lon="12.2813667"><ele>523.5</ele><time>2026-03-29T08:56:50.576Z</time></trkpt><trkpt lat="43.7077567" lon="12.281155"><ele>525.0</ele><time>2026-03-29T08:56:51.576Z</time></trkpt><trkpt lat="43.7077467" lon="12.2809617"><ele>527.6</ele><time>2026-03-29T08:56:52.577Z</time></trkpt><trkpt lat="43.7077183" lon="12.2807967"><ele>530.2</ele><time>2026-03-29T08:56:53.577Z</time></trkpt><trkpt lat="43.7076883" lon="12.2806617"><ele>532.8</ele><time>2026-03-29T08:56:54.576Z</time></trkpt><trkpt lat="43.707675" lon="12.280525"><ele>535.4</ele><time>2026-03-29T08:56:55.577Z</time></trkpt><trkpt lat="43.7076883" lon="12.2803733"><ele>538.0</ele><time>2026-03-29T08:56:56.576Z</time></trkpt><trkpt lat="43.7077283" lon="12.2802067"><ele>535.5</ele><time>2026-03-29T08:56:57.577Z</time></trkpt><trkpt lat="43.7077633" lon="12.2800483"><ele>533.0</ele><time>2026-03-29T08:56:58.577Z</time></trkpt><trkpt lat="43.70777" lon="12.2798967"><ele>530.5</ele><time>2026-03-29T08:56:59.577Z</time></trkpt><trkpt lat="43.7077383" lon="12.2797467"><ele>528.0</ele><time>2026-03-29T08:57:00.577Z</time></trkpt><trkpt lat="43.7076583" lon="12.2796033"><ele>534.25</ele><time>2026-03-29T08:57:01.576Z</time></trkpt><trkpt lat="43.7075417" lon="12.2794767"><ele>540.5</ele><time>2026-03-29T08:57:02.577Z</time></trkpt><trkpt lat="43.7074267" lon="12.2793733"><ele>546.75</ele><time>2026-03-29T08:57:03.577Z</time></trkpt><trkpt lat="43.7073217" lon="12.2792733"><ele>553.0</ele><time>2026-03-29T08:57:04.577Z</time></trkpt><trkpt lat="43.7072367" lon="12.2791433"><ele>553.0</ele><time>2026-03-29T08:57:05.577Z</time></trkpt><trkpt lat="43.7071683" lon="12.2789833"><ele>553.0</ele><time>2026-03-29T08:57:06.576Z</time></trkpt><trkpt lat="43.7071217" lon="12.278815"><ele>553.0</ele><time>2026-03-29T08:57:07.576Z</time></trkpt><trkpt lat="43.7070967" lon="12.2786467"><ele>553.0</ele><time>2026-03-29T08:57:08.577Z</time></trkpt><trkpt lat="43.7071033" lon="12.278485"><ele>556.0</ele><time>2026-03-29T08:57:09.576Z</time></trkpt><trkpt lat="43.7071483" lon="12.27833"><ele>559.0</ele><time>2026-03-29T08:57:10.577Z</time></trkpt><trkpt lat="43.7072333" lon="12.2781867"><ele>562.0</ele><time>2026-03-29T08:57:11.576Z</time></trkpt><trkpt lat="43.7073383" lon="12.27803"><ele>565.0</ele><time>2026-03-29T08:57:12.576Z</time></trkpt><trkpt lat="43.70744" lon="12.277845"><ele>569.0</ele><time>2026-03-29T08:57:13.577Z</time></trkpt><trkpt lat="43.70753" lon="12.2776233"><ele>573.0</ele><time>2026-03-29T08:57:14.577Z</time></trkpt><trkpt lat="43.7076083" lon="12.27736"><ele>577.0</ele><time>2026-03-29T08:57:15.577Z</time></trkpt><trkpt lat="43.7076767" lon="12.2770683"><ele>575.5</ele><time>2026-03-29T08:57:16.576Z</time></trkpt><trkpt lat="43.7077433" lon="12.2767633"><ele>574.0</ele><time>2026-03-29T08:57:17.577Z</time></trkpt><trkpt lat="43.70781" lon="12.2764617"><ele>577.0</ele><time>2026-03-29T08:57:18.577Z</time></trkpt><trkpt lat="43.7078717" lon="12.2761883"><ele>580.0</ele><time>2026-03-29T08:57:19.576Z</time></trkpt><trkpt lat="43.707935" lon="12.2759483"><ele>583.0</ele><time>2026-03-29T08:57:20.577Z</time></trkpt><trkpt lat="43.7080017" lon="12.2757417"><ele>585.5</ele><time>2026-03-29T08:57:21.576Z</time></trkpt><trkpt lat="43.70805" lon="12.2755717"><ele>588.0</ele><time>2026-03-29T08:57:22.577Z</time></trkpt><trkpt lat="43.7081017" lon="12.27541"><ele>590.5</ele><time>2026-03-29T08:57:23.577Z</time></trkpt><trkpt lat="43.7081317" lon="12.2752417"><ele>593.0</ele><time>2026-03-29T08:57:24.577Z</time></trkpt><trkpt lat="43.7081333" lon="12.2750683"><ele>593.0</ele><time>2026-03-29T08:57:25.577Z</time></trkpt><trkpt lat="43.7080983" lon="12.2748917"><ele>593.0</ele><time>2026-03-29T08:57:26.576Z</time></trkpt><trkpt lat="43.708045" lon="12.2747267"><ele>593.0</ele><time>2026-03-29T08:57:27.576Z</time></trkpt><trkpt lat="43.70799" lon="12.2745567"><ele>593.0</ele><time>2026-03-29T08:57:28.576Z</time></trkpt><trkpt lat="43.7079667" lon="12.274365"><ele>594.5</ele><time>2026-03-29T08:57:29.577Z</time></trkpt><trkpt lat="43.7079733" lon="12.2741583"><ele>596.0</ele><time>2026-03-29T08:57:30.577Z</time></trkpt><trkpt lat="43.7079783" lon="12.2739617"><ele>597.5</ele><time>2026-03-29T08:57:31.577Z</time></trkpt><trkpt lat="43.70797" lon="12.2737683"><ele>599.0</ele><time>2026-03-29T08:57:32.577Z</time></trkpt><trkpt lat="43.7079417" lon="12.2736033"><ele>599.8333333333333</ele><time>2026-03-29T08:57:33.577Z</time></trkpt><trkpt lat="43.7079067" lon="12.273465"><ele>600.6666666666666</ele><time>2026-03-29T08:57:34.577Z</time></trkpt><trkpt lat="43.7078767" lon="12.2733417"><ele>601.5</ele><time>2026-03-29T08:57:35.576Z</time></trkpt><trkpt lat="43.7078367" lon="12.27325"><ele>602.3333333333334</ele><time>2026-03-29T08:57:36.577Z</time></trkpt><trkpt lat="43.7077767" lon="12.2731883"><ele>603.1666666666667</ele><time>2026-03-29T08:57:37.576Z</time></trkpt><trkpt lat="43.7077067" lon="12.2731717"><ele>604.0</ele><time>2026-03-29T08:57:38.577Z</time></trkpt><trkpt lat="43.7076317" lon="12.273215"><ele>607.5</ele><time>2026-03-29T08:57:39.578Z</time></trkpt><trkpt lat="43.7075667" lon="12.2733233"><ele>611.0</ele><time>2026-03-29T08:57:40.577Z</time></trkpt><trkpt lat="43.7075317" lon="12.2735467"><ele>614.5</ele><time>2026-03-29T08:57:41.578Z</time></trkpt><trkpt lat="43.7075167" lon="12.2737667"><ele>618.0</ele><time>2026-03-29T08:57:42.578Z</time></trkpt><trkpt lat="43.7075017" lon="12.2739483"><ele>618.0</ele><time>2026-03-29T08:57:43.577Z</time></trkpt><trkpt lat="43.7074817" lon="12.2741083"><ele>618.0</ele><time>2026-03-29T08:57:44.578Z</time></trkpt><trkpt lat="43.7074433" lon="12.2742283"><ele>618.0</ele><time>2026-03-29T08:57:45.577Z</time></trkpt><trkpt lat="43.7073833" lon="12.2743117"><ele>618.0</ele><time>2026-03-29T08:57:46.578Z</time></trkpt><trkpt lat="43.7073033" lon="12.27436"><ele>618.0</ele><time>2026-03-29T08:57:47.578Z</time></trkpt><trkpt lat="43.7072167" lon="12.2743717"><ele>618.0</ele><time>2026-03-29T08:57:48.578Z</time></trkpt><trkpt lat="43.707125" lon="12.2743283"><ele>618.0</ele><time>2026-03-29T08:57:49.578Z</time></trkpt><trkpt lat="43.707025" lon="12.2742433"><ele>618.0</ele><time>2026-03-29T08:57:50.577Z</time></trkpt><trkpt lat="43.7069183" lon="12.2740633"><ele>618.0</ele><time>2026-03-29T08:57:51.578Z</time></trkpt><trkpt lat="43.7067933" lon="12.273865"><ele>622.3333333333334</ele><time>2026-03-29T08:57:52.577Z</time></trkpt><trkpt lat="43.706655" lon="12.273655"><ele>626.6666666666667</ele><time>2026-03-29T08:57:53.578Z</time></trkpt><trkpt lat="43.7064917" lon="12.273445"><ele>631.0</ele><time>2026-03-29T08:57:54.577Z</time></trkpt><trkpt lat="43.7063233" lon="12.2732217"><ele>630.5</ele><time>2026-03-29T08:57:55.578Z</time></trkpt><trkpt lat="43.70615" lon="12.2729717"><ele>630.0</ele><time>2026-03-29T08:57:56.577Z</time></trkpt><trkpt lat="43.7059833" lon="12.2727167"><ele>632.0</ele><time>2026-03-29T08:57:57.577Z</time></trkpt><trkpt lat="43.705825" lon="12.2724733"><ele>634.0</ele><time>2026-03-29T08:57:58.578Z</time></trkpt><trkpt lat="43.7056783" lon="12.272235"><ele>636.0</ele><time>2026-03-29T08:57:59.578Z</time></trkpt><trkpt lat="43.70553" lon="12.272005"><ele>638.0</ele><time>2026-03-29T08:58:00.577Z</time></trkpt><trkpt lat="43.7053817" lon="12.2717767"><ele>640.0</ele><time>2026-03-29T08:58:01.578Z</time></trkpt><trkpt lat="43.7052433" lon="12.2715683"><ele>643.0</ele><time>2026-03-29T08:58:02.577Z</time></trkpt><trkpt lat="43.7051167" lon="12.2713733"><ele>646.0</ele><time>2026-03-29T08:58:03.578Z</time></trkpt><trkpt lat="43.7050033" lon="12.2712017"><ele>649.0</ele><time>2026-03-29T08:58:04.578Z</time></trkpt><trkpt lat="43.7049033" lon="12.27105"><ele>649.0</ele><time>2026-03-29T08:58:05.577Z</time></trkpt><trkpt lat="43.7048233" lon="12.2709167"><ele>649.0</ele><time>2026-03-29T08:58:06.578Z</time></trkpt><trkpt lat="43.70477" lon="12.270785"><ele>649.0</ele><time>2026-03-29T08:58:07.578Z</time></trkpt><trkpt lat="43.7047483" lon="12.270635"><ele>649.0</ele><time>2026-03-29T08:58:08.578Z</time></trkpt><trkpt lat="43.7047517" lon="12.2704683"><ele>650.75</ele><time>2026-03-29T08:58:09.578Z</time></trkpt><trkpt lat="43.7047783" lon="12.270285"><ele>652.5</ele><time>2026-03-29T08:58:10.577Z</time></trkpt><trkpt lat="43.7048133" lon="12.2700983"><ele>654.25</ele><time>2026-03-29T08:58:11.577Z</time></trkpt><trkpt lat="43.7048467" lon="12.2699233"><ele>656.0</ele><time>2026-03-29T08:58:12.578Z</time></trkpt><trkpt lat="43.7048783" lon="12.2697733"><ele>657.5999999999999</ele><time>2026-03-29T08:58:13.578Z</time></trkpt><trkpt lat="43.7049167" lon="12.2696467"><ele>659.2</ele><time>2026-03-29T08:58:14.578Z</time></trkpt><trkpt lat="43.7049683" lon="12.2695383"><ele>660.8</ele><time>2026-03-29T08:58:15.578Z</time></trkpt><trkpt lat="43.7050367" lon="12.2694633"><ele>662.4000000000001</ele><time>2026-03-29T08:58:16.578Z</time></trkpt><trkpt lat="43.70512" lon="12.26942"><ele>664.0</ele><time>2026-03-29T08:58:17.578Z</time></trkpt><trkpt lat="43.7052117" lon="12.26944"><ele>664.8000000000001</ele><time>2026-03-29T08:58:18.577Z</time></trkpt><trkpt lat="43.7052967" lon="12.2695083"><ele>665.6</ele><time>2026-03-29T08:58:19.578Z</time></trkpt><trkpt lat="43.7053667" lon="12.2696183"><ele>666.4</ele><time>2026-03-29T08:58:20.577Z</time></trkpt><trkpt lat="43.705435" lon="12.2697467"><ele>667.2</ele><time>2026-03-29T08:58:21.578Z</time></trkpt><trkpt lat="43.7055117" lon="12.269875"><ele>668.0</ele><time>2026-03-29T08:58:22.577Z</time></trkpt><trkpt lat="43.7056017" lon="12.2699833"><ele>668.0</ele><time>2026-03-29T08:58:23.578Z</time></trkpt><trkpt lat="43.70571" lon="12.27008"><ele>668.0</ele><time>2026-03-29T08:58:24.578Z</time></trkpt><trkpt lat="43.7058367" lon="12.2701583"><ele>668.0</ele><time>2026-03-29T08:58:25.578Z</time></trkpt><trkpt lat="43.70596" lon="12.2701983"><ele>668.0</ele><time>2026-03-29T08:58:26.578Z</time></trkpt><trkpt lat="43.7060683" lon="12.2702083"><ele>668.5</ele><time>2026-03-29T08:58:27.578Z</time></trkpt><trkpt lat="43.70618" lon="12.2701867"><ele>669.0</ele><time>2026-03-29T08:58:28.577Z</time></trkpt><trkpt lat="43.7062983" lon="12.27011"><ele>669.5</ele><time>2026-03-29T08:58:29.578Z</time></trkpt><trkpt lat="43.7064217" lon="12.2699917"><ele>670.0</ele><time>2026-03-29T08:58:30.578Z</time></trkpt><trkpt lat="43.70655" lon="12.2698517"><ele>669.6666666666667</ele><time>2026-03-29T08:58:31.578Z</time></trkpt><trkpt lat="43.7066867" lon="12.2696967"><ele>669.3333333333334</ele><time>2026-03-29T08:58:32.577Z</time></trkpt><trkpt lat="43.7068283" lon="12.26955"><ele>669.0</ele><time>2026-03-29T08:58:33.578Z</time></trkpt><trkpt lat="43.706955" lon="12.26942"><ele>669.0</ele><time>2026-03-29T08:58:34.577Z</time></trkpt><trkpt lat="43.7070617" lon="12.269305"><ele>669.0</ele><time>2026-03-29T08:58:35.578Z</time></trkpt><trkpt lat="43.7071483" lon="12.2691967"><ele>669.0</ele><time>2026-03-29T08:58:36.578Z</time></trkpt><trkpt lat="43.70721" lon="12.26908"><ele>669.0</ele><time>2026-03-29T08:58:37.578Z</time></trkpt><trkpt lat="43.7072517" lon="12.2689533"><ele>671.6</ele><time>2026-03-29T08:58:38.578Z</time></trkpt><trkpt lat="43.707265" lon="12.2688133"><ele>674.2</ele><time>2026-03-29T08:58:39.578Z</time></trkpt><trkpt lat="43.70725" lon="12.268675"><ele>676.8000000000001</ele><time>2026-03-29T08:58:40.578Z</time></trkpt><trkpt lat="43.7072017" lon="12.268545"><ele>679.4000000000001</ele><time>2026-03-29T08:58:41.577Z</time></trkpt><trkpt lat="43.7071183" lon="12.2684417"><ele>682.0</ele><time>2026-03-29T08:58:42.577Z</time></trkpt><trkpt lat="43.7070033" lon="12.2683617"><ele>685.3333333333334</ele><time>2026-03-29T08:58:43.578Z</time></trkpt><trkpt lat="43.7068517" lon="12.2683167"><ele>688.6666666666666</ele><time>2026-03-29T08:58:44.578Z</time></trkpt><trkpt lat="43.7066733" lon="12.26827"><ele>692.0</ele><time>2026-03-29T08:58:45.578Z</time></trkpt><trkpt lat="43.7064967" lon="12.2682133"><ele>692.0</ele><time>2026-03-29T08:58:46.578Z</time></trkpt><trkpt lat="43.7063417" lon="12.2681567"><ele>692.0</ele><time>2026-03-29T08:58:47.578Z</time></trkpt><trkpt lat="43.7061983" lon="12.2681083"><ele>692.0</ele><time>2026-03-29T08:58:48.578Z</time></trkpt><trkpt lat="43.7060767" lon="12.2680633"><ele>692.0</ele><time>2026-03-29T08:58:49.578Z</time></trkpt><trkpt lat="43.7059767" lon="12.268005"><ele>693.0</ele><time>2026-03-29T08:58:50.577Z</time></trkpt><trkpt lat="43.7059" lon="12.2679217"><ele>694.0</ele><time>2026-03-29T08:58:51.578Z</time></trkpt><trkpt lat="43.70585" lon="12.26781"><ele>695.0</ele><time>2026-03-29T08:58:52.577Z</time></trkpt><trkpt lat="43.7058283" lon="12.2676883"><ele>696.0</ele><time>2026-03-29T08:58:53.578Z</time></trkpt><trkpt lat="43.705835" lon="12.26756"><ele>697.0</ele><time>2026-03-29T08:58:54.578Z</time></trkpt><trkpt lat="43.705875" lon="12.2674283"><ele>697.0</ele><time>2026-03-29T08:58:55.577Z</time></trkpt><trkpt lat="43.7059483" lon="12.2673033"><ele>697.0</ele><time>2026-03-29T08:58:56.578Z</time></trkpt><trkpt lat="43.7060417" lon="12.2671967"><ele>697.0</ele><time>2026-03-29T08:58:57.578Z</time></trkpt><trkpt lat="43.7061433" lon="12.2670983"><ele>697.0</ele><time>2026-03-29T08:58:58.578Z</time></trkpt><trkpt lat="43.7062333" lon="12.26698"><ele>700.5</ele><time>2026-03-29T08:58:59.578Z</time></trkpt><trkpt lat="43.706305" lon="12.2668333"><ele>704.0</ele><time>2026-03-29T08:59:00.578Z</time></trkpt><trkpt lat="43.706365" lon="12.26667"><ele>707.5</ele><time>2026-03-29T08:59:01.578Z</time></trkpt><trkpt lat="43.7064167" lon="12.26651"><ele>711.0</ele><time>2026-03-29T08:59:02.578Z</time></trkpt><trkpt lat="43.70646" lon="12.266355"><ele>711.75</ele><time>2026-03-29T08:59:03.578Z</time></trkpt><trkpt lat="43.7064833" lon="12.2661983"><ele>712.5</ele><time>2026-03-29T08:59:04.577Z</time></trkpt><trkpt lat="43.7064833" lon="12.2660483"><ele>713.25</ele><time>2026-03-29T08:59:05.578Z</time></trkpt><trkpt lat="43.706455" lon="12.2658967"><ele>714.0</ele><time>2026-03-29T08:59:06.578Z</time></trkpt><trkpt lat="43.7063967" lon="12.2657333"><ele>713.6666666666666</ele><time>2026-03-29T08:59:07.577Z</time></trkpt><trkpt lat="43.706325" lon="12.265545"><ele>713.3333333333333</ele><time>2026-03-29T08:59:08.577Z</time></trkpt><trkpt lat="43.7062567" lon="12.2653333"><ele>713.0</ele><time>2026-03-29T08:59:09.578Z</time></trkpt><trkpt lat="43.7062083" lon="12.2650917"><ele>713.0</ele><time>2026-03-29T08:59:10.578Z</time></trkpt><trkpt lat="43.7061833" lon="12.2648283"><ele>713.0</ele><time>2026-03-29T08:59:11.577Z</time></trkpt><trkpt lat="43.7061767" lon="12.2645467"><ele>713.0</ele><time>2026-03-29T08:59:12.578Z</time></trkpt><trkpt lat="43.7061767" lon="12.2642533"><ele>714.3333333333333</ele><time>2026-03-29T08:59:13.578Z</time></trkpt><trkpt lat="43.7061833" lon="12.2639683"><ele>715.6666666666666</ele><time>2026-03-29T08:59:14.577Z</time></trkpt><trkpt lat="43.706225" lon="12.263685"><ele>717.0</ele><time>2026-03-29T08:59:15.577Z</time></trkpt><trkpt lat="43.706275" lon="12.2633917"><ele>722.5</ele><time>2026-03-29T08:59:16.578Z</time></trkpt><trkpt lat="43.70633" lon="12.2630733"><ele>728.0</ele><time>2026-03-29T08:59:17.578Z</time></trkpt><trkpt lat="43.7063867" lon="12.2627583"><ele>728.0</ele><time>2026-03-29T08:59:18.578Z</time></trkpt><trkpt lat="43.7064417" lon="12.26247"><ele>728.0</ele><time>2026-03-29T08:59:19.577Z</time></trkpt><trkpt lat="43.70649" lon="12.2622067"><ele>728.0</ele><time>2026-03-29T08:59:20.578Z</time></trkpt><trkpt lat="43.7065333" lon="12.2619733"><ele>729.25</ele><time>2026-03-29T08:59:21.577Z</time></trkpt><trkpt lat="43.70657" lon="12.261765"><ele>730.5</ele><time>2026-03-29T08:59:22.577Z</time></trkpt><trkpt lat="43.7066033" lon="12.2615833"><ele>731.75</ele><time>2026-03-29T08:59:23.577Z</time></trkpt><trkpt lat="43.7066333" lon="12.2614233"><ele>733.0</ele><time>2026-03-29T08:59:24.577Z</time></trkpt><trkpt lat="43.70667" lon="12.2612833"><ele>734.8</ele><time>2026-03-29T08:59:25.578Z</time></trkpt><trkpt lat="43.706725" lon="12.26116"><ele>736.5999999999999</ele><time>2026-03-29T08:59:26.578Z</time></trkpt><trkpt lat="43.706805" lon="12.26107"><ele>738.4000000000001</ele><time>2026-03-29T08:59:27.578Z</time></trkpt><trkpt lat="43.7069083" lon="12.261015"><ele>740.2</ele><time>2026-03-29T08:59:28.578Z</time></trkpt><trkpt lat="43.7070367" lon="12.2609883"><ele>742.0</ele><time>2026-03-29T08:59:29.578Z</time></trkpt><trkpt lat="43.7071717" lon="12.2609767"><ele>743.4000000000001</ele><time>2026-03-29T08:59:30.578Z</time></trkpt><trkpt lat="43.7073" lon="12.2609667"><ele>744.8000000000001</ele><time>2026-03-29T08:59:31.578Z</time></trkpt><trkpt lat="43.7074133" lon="12.26096"><ele>746.2</ele><time>2026-03-29T08:59:32.577Z</time></trkpt><trkpt lat="43.7075117" lon="12.26097"><ele>747.6</ele><time>2026-03-29T08:59:33.578Z</time></trkpt><trkpt lat="43.7076" lon="12.2610133"><ele>749.0</ele><time>2026-03-29T08:59:34.578Z</time></trkpt><trkpt lat="43.7076783" lon="12.2611017"><ele>749.0</ele><time>2026-03-29T08:59:35.578Z</time></trkpt><trkpt lat="43.70774" lon="12.261235"><ele>749.0</ele><time>2026-03-29T08:59:36.578Z</time></trkpt><trkpt lat="43.7077883" lon="12.2614167"><ele>749.0</ele><time>2026-03-29T08:59:37.578Z</time></trkpt><trkpt lat="43.7078283" lon="12.2616233"><ele>749.0</ele><time>2026-03-29T08:59:38.577Z</time></trkpt><trkpt lat="43.7078567" lon="12.2618617"><ele>751.25</ele><time>2026-03-29T08:59:39.578Z</time></trkpt><trkpt lat="43.7078667" lon="12.2620917"><ele>753.5</ele><time>2026-03-29T08:59:40.577Z</time></trkpt><trkpt lat="43.7078667" lon="12.2622933"><ele>755.75</ele><time>2026-03-29T08:59:41.577Z</time></trkpt><trkpt lat="43.7078683" lon="12.26246"><ele>758.0</ele><time>2026-03-29T08:59:42.578Z</time></trkpt><trkpt lat="43.707885" lon="12.2625933"><ele>758.0</ele><time>2026-03-29T08:59:43.577Z</time></trkpt><trkpt lat="43.7079267" lon="12.2626967"><ele>758.0</ele><time>2026-03-29T08:59:44.578Z</time></trkpt><trkpt lat="43.7079883" lon="12.2627717"><ele>758.0</ele><time>2026-03-29T08:59:45.577Z</time></trkpt><trkpt lat="43.7080617" lon="12.2627817"><ele>758.0</ele><time>2026-03-29T08:59:46.578Z</time></trkpt><trkpt lat="43.7081383" lon="12.262745"><ele>758.0</ele><time>2026-03-29T08:59:47.578Z</time></trkpt><trkpt lat="43.7082" lon="12.26265"><ele>758.0</ele><time>2026-03-29T08:59:48.578Z</time></trkpt><trkpt lat="43.7082367" lon="12.2624933"><ele>758.0</ele><time>2026-03-29T08:59:49.578Z</time></trkpt><trkpt lat="43.70825" lon="12.26229"><ele>758.0</ele><time>2026-03-29T08:59:50.577Z</time></trkpt><trkpt lat="43.7082467" lon="12.2620583"><ele>758.0</ele><time>2026-03-29T08:59:51.578Z</time></trkpt><trkpt lat="43.7082283" lon="12.2617567"><ele>759.3333333333333</ele><time>2026-03-29T08:59:52.577Z</time></trkpt><trkpt lat="43.708205" lon="12.2614517"><ele>760.6666666666666</ele><time>2026-03-29T08:59:53.578Z</time></trkpt><trkpt lat="43.7082033" lon="12.2611533"><ele>762.0</ele><time>2026-03-29T08:59:54.578Z</time></trkpt><trkpt lat="43.7082033" lon="12.26087"><ele>763.6666666666666</ele><time>2026-03-29T08:59:55.577Z</time></trkpt><trkpt lat="43.7082017" lon="12.2606183"><ele>765.3333333333333</ele><time>2026-03-29T08:59:56.578Z</time></trkpt><trkpt lat="43.708185" lon="12.26038"><ele>767.0</ele><time>2026-03-29T08:59:57.578Z</time></trkpt><trkpt lat="43.7081567" lon="12.2601567"><ele>767.6666666666666</ele><time>2026-03-29T08:59:58.577Z</time></trkpt><trkpt lat="43.7080967" lon="12.259935"><ele>768.3333333333333</ele><time>2026-03-29T08:59:59.578Z</time></trkpt><trkpt lat="43.7080183" lon="12.2597067"><ele>769.0</ele><time>2026-03-29T09:00:00.578Z</time></trkpt><trkpt lat="43.7079267" lon="12.2594483"><ele>770.3333333333333</ele><time>2026-03-29T09:00:01.578Z</time></trkpt><trkpt lat="43.7078317" lon="12.25918"><ele>771.6666666666667</ele><time>2026-03-29T09:00:02.578Z</time></trkpt><trkpt lat="43.7077367" lon="12.2588917"><ele>773.0</ele><time>2026-03-29T09:00:03.578Z</time></trkpt><trkpt lat="43.7076383" lon="12.258615"><ele>773.0</ele><time>2026-03-29T09:00:04.578Z</time></trkpt><trkpt lat="43.7075467" lon="12.25835"><ele>773.0</ele><time>2026-03-29T09:00:05.578Z</time></trkpt><trkpt lat="43.707465" lon="12.258105"><ele>773.0</ele><time>2026-03-29T09:00:06.578Z</time></trkpt><trkpt lat="43.7073833" lon="12.257865"><ele>775.3333333333334</ele><time>2026-03-29T09:00:07.578Z</time></trkpt><trkpt lat="43.7073033" lon="12.2576283"><ele>777.6666666666667</ele><time>2026-03-29T09:00:08.578Z</time></trkpt><trkpt lat="43.7072333" lon="12.257405"><ele>780.0</ele><time>2026-03-29T09:00:09.577Z</time></trkpt><trkpt lat="43.70716" lon="12.257195"><ele>780.0</ele><time>2026-03-29T09:00:10.578Z</time></trkpt><trkpt lat="43.707075" lon="12.2569917"><ele>780.0</ele><time>2026-03-29T09:00:11.578Z</time></trkpt><trkpt lat="43.706975" lon="12.256795"><ele>780.0</ele><time>2026-03-29T09:00:12.578Z</time></trkpt><trkpt lat="43.7068633" lon="12.2566233"><ele>780.0</ele><time>2026-03-29T09:00:13.578Z</time></trkpt><trkpt lat="43.70675" lon="12.2564767"><ele>780.0</ele><time>2026-03-29T09:00:14.577Z</time></trkpt><trkpt lat="43.706635" lon="12.2563667"><ele>780.0</ele><time>2026-03-29T09:00:15.578Z</time></trkpt><trkpt lat="43.7065233" lon="12.2562783"><ele>780.0</ele><time>2026-03-29T09:00:16.578Z</time></trkpt><trkpt lat="43.7064217" lon="12.2561983"><ele>781.6666666666666</ele><time>2026-03-29T09:00:17.578Z</time></trkpt><trkpt lat="43.70634" lon="12.25612"><ele>783.3333333333333</ele><time>2026-03-29T09:00:18.578Z</time></trkpt><trkpt lat="43.7062933" lon="12.256025"><ele>785.0</ele><time>2026-03-29T09:00:19.578Z</time></trkpt><trkpt lat="43.7062767" lon="12.2559183"><ele>786.6666666666666</ele><time>2026-03-29T09:00:20.578Z</time></trkpt><trkpt lat="43.7063033" lon="12.2558183"><ele>788.3333333333333</ele><time>2026-03-29T09:00:21.578Z</time></trkpt><trkpt lat="43.7063683" lon="12.2557667"><ele>790.0</ele><time>2026-03-29T09:00:22.578Z</time></trkpt><trkpt lat="43.7064467" lon="12.25575"><ele>790.0</ele><time>2026-03-29T09:00:23.577Z</time></trkpt><trkpt lat="43.7065483" lon="12.255775"><ele>790.0</ele><time>2026-03-29T09:00:24.578Z</time></trkpt><trkpt lat="43.7066867" lon="12.2558267"><ele>790.0</ele><time>2026-03-29T09:00:25.578Z</time></trkpt><trkpt lat="43.70684" lon="12.25587"><ele>790.0</ele><time>2026-03-29T09:00:26.577Z</time></trkpt><trkpt lat="43.7069833" lon="12.2559"><ele>790.75</ele><time>2026-03-29T09:00:27.578Z</time></trkpt><trkpt lat="43.7071067" lon="12.2559133"><ele>791.5</ele><time>2026-03-29T09:00:28.578Z</time></trkpt><trkpt lat="43.7072317" lon="12.2558867"><ele>792.25</ele><time>2026-03-29T09:00:29.578Z</time></trkpt><trkpt lat="43.70737" lon="12.2558083"><ele>793.0</ele><time>2026-03-29T09:00:30.577Z</time></trkpt><trkpt lat="43.7075217" lon="12.2556917"><ele>796.0</ele><time>2026-03-29T09:00:31.577Z</time></trkpt><trkpt lat="43.7076683" lon="12.255575"><ele>799.0</ele><time>2026-03-29T09:00:32.577Z</time></trkpt><trkpt lat="43.7078" lon="12.25547"><ele>802.0</ele><time>2026-03-29T09:00:33.578Z</time></trkpt><trkpt lat="43.7079117" lon="12.255385"><ele>805.0</ele><time>2026-03-29T09:00:34.578Z</time></trkpt><trkpt lat="43.7080033" lon="12.25532"><ele>805.1666666666666</ele><time>2026-03-29T09:00:35.578Z</time></trkpt><trkpt lat="43.7080733" lon="12.255255"><ele>805.3333333333333</ele><time>2026-03-29T09:00:36.577Z</time></trkpt><trkpt lat="43.70813" lon="12.2551783"><ele>805.5</ele><time>2026-03-29T09:00:37.578Z</time></trkpt><trkpt lat="43.7081667" lon="12.2550983"><ele>805.6666666666667</ele><time>2026-03-29T09:00:38.578Z</time></trkpt><trkpt lat="43.7081517" lon="12.2549717"><ele>805.8333333333334</ele><time>2026-03-29T09:00:40.578Z</time></trkpt><trkpt lat="43.7080833" lon="12.25494"><ele>806.0</ele><time>2026-03-29T09:00:41.578Z</time></trkpt><trkpt lat="43.707965" lon="12.254945"><ele>806.0</ele><time>2026-03-29T09:00:42.577Z</time></trkpt><trkpt lat="43.7078083" lon="12.2549683"><ele>806.0</ele><time>2026-03-29T09:00:43.577Z</time></trkpt><trkpt lat="43.7076317" lon="12.2549867"><ele>806.0</ele><time>2026-03-29T09:00:44.578Z</time></trkpt><trkpt lat="43.7074633" lon="12.2549717"><ele>805.6666666666667</ele><time>2026-03-29T09:00:45.578Z</time></trkpt><trkpt lat="43.7073017" lon="12.254915"><ele>805.3333333333333</ele><time>2026-03-29T09:00:46.578Z</time></trkpt><trkpt lat="43.7071283" lon="12.25483"><ele>805.0</ele><time>2026-03-29T09:00:47.577Z</time></trkpt><trkpt lat="43.7069467" lon="12.254735"><ele>807.75</ele><time>2026-03-29T09:00:48.577Z</time></trkpt><trkpt lat="43.7067867" lon="12.254635"><ele>810.5</ele><time>2026-03-29T09:00:49.577Z</time></trkpt><trkpt lat="43.70665" lon="12.2545483"><ele>813.25</ele><time>2026-03-29T09:00:50.577Z</time></trkpt><trkpt lat="43.7065417" lon="12.2544833"><ele>816.0</ele><time>2026-03-29T09:00:51.578Z</time></trkpt><trkpt lat="43.7064683" lon="12.254425"><ele>816.0</ele><time>2026-03-29T09:00:52.577Z</time></trkpt><trkpt lat="43.7064067" lon="12.2543683"><ele>816.0</ele><time>2026-03-29T09:00:53.578Z</time></trkpt><trkpt lat="43.7063683" lon="12.2542317"><ele>816.0</ele><time>2026-03-29T09:00:55.578Z</time></trkpt><trkpt lat="43.7064133" lon="12.25417"><ele>816.0</ele><time>2026-03-29T09:00:56.577Z</time></trkpt><trkpt lat="43.7065133" lon="12.254115"><ele>816.0</ele><time>2026-03-29T09:00:57.578Z</time></trkpt><trkpt lat="43.7066317" lon="12.2540767"><ele>816.0</ele><time>2026-03-29T09:00:58.577Z</time></trkpt><trkpt lat="43.7067933" lon="12.254065"><ele>816.0</ele><time>2026-03-29T09:00:59.577Z</time></trkpt><trkpt lat="43.706975" lon="12.2540583"><ele>816.0</ele><time>2026-03-29T09:01:00.578Z</time></trkpt><trkpt lat="43.70716" lon="12.2540367"><ele>816.3333333333333</ele><time>2026-03-29T09:01:01.578Z</time></trkpt><trkpt lat="43.707335" lon="12.2540183"><ele>816.6666666666666</ele><time>2026-03-29T09:01:02.577Z</time></trkpt><trkpt lat="43.7074933" lon="12.2540017"><ele>817.0</ele><time>2026-03-29T09:01:03.578Z</time></trkpt><trkpt lat="43.707635" lon="12.2539833"><ele>816.9999999999999</ele><time>2026-03-29T09:01:04.578Z</time></trkpt><trkpt lat="43.7077517" lon="12.253965"><ele>817.0</ele><time>2026-03-29T09:01:05.577Z</time></trkpt><trkpt lat="43.7078417" lon="12.2539333"><ele>817.0</ele><time>2026-03-29T09:01:06.578Z</time></trkpt><trkpt lat="43.7079167" lon="12.25388"><ele>817.0</ele><time>2026-03-29T09:01:07.578Z</time></trkpt><trkpt lat="43.7079667" lon="12.2538"><ele>816.9999999999999</ele><time>2026-03-29T09:01:08.578Z</time></trkpt><trkpt lat="43.7079833" lon="12.2536983"><ele>817.0</ele><time>2026-03-29T09:01:09.577Z</time></trkpt><trkpt lat="43.7079583" lon="12.253585"><ele>819.5</ele><time>2026-03-29T09:01:10.577Z</time></trkpt><trkpt lat="43.707885" lon="12.2534817"><ele>822.0</ele><time>2026-03-29T09:01:11.578Z</time></trkpt><trkpt lat="43.7077567" lon="12.2534017"><ele>824.5</ele><time>2026-03-29T09:01:12.578Z</time></trkpt><trkpt lat="43.707585" lon="12.2533367"><ele>827.0</ele><time>2026-03-29T09:01:13.578Z</time></trkpt><trkpt lat="43.707295" lon="12.2532117"><ele>827.0</ele><time>2026-03-29T09:01:15.046Z</time></trkpt><trkpt lat="43.706955" lon="12.253245"><ele>827.0</ele><time>2026-03-29T09:01:16.229Z</time></trkpt><trkpt lat="43.7067583" lon="12.2533467"><ele>827.6</ele><time>2026-03-29T09:01:17.575Z</time></trkpt><trkpt lat="43.706655" lon="12.2534033"><ele>828.2</ele><time>2026-03-29T09:01:18.574Z</time></trkpt><trkpt lat="43.70654" lon="12.2534167"><ele>828.8</ele><time>2026-03-29T09:01:19.575Z</time></trkpt><trkpt lat="43.7064417" lon="12.2533867"><ele>829.4</ele><time>2026-03-29T09:01:20.574Z</time></trkpt><trkpt lat="43.7063433" lon="12.2533033"><ele>830.0</ele><time>2026-03-29T09:01:21.575Z</time></trkpt><trkpt lat="43.7062533" lon="12.2531733"><ele>833.3333333333334</ele><time>2026-03-29T09:01:22.575Z</time></trkpt><trkpt lat="43.7061617" lon="12.2530133"><ele>836.6666666666667</ele><time>2026-03-29T09:01:23.574Z</time></trkpt><trkpt lat="43.706055" lon="12.25282"><ele>840.0</ele><time>2026-03-29T09:01:24.575Z</time></trkpt><trkpt lat="43.7059633" lon="12.2526167"><ele>840.0</ele><time>2026-03-29T09:01:25.575Z</time></trkpt><trkpt lat="43.7058833" lon="12.2524283"><ele>840.0</ele><time>2026-03-29T09:01:26.575Z</time></trkpt><trkpt lat="43.7058083" lon="12.2522783"><ele>840.0</ele><time>2026-03-29T09:01:27.574Z</time></trkpt><trkpt lat="43.7057183" lon="12.25216"><ele>840.0</ele><time>2026-03-29T09:01:28.575Z</time></trkpt><trkpt lat="43.7056017" lon="12.2520683"><ele>844.0</ele><time>2026-03-29T09:01:29.575Z</time></trkpt><trkpt lat="43.70546" lon="12.2520033"><ele>848.0</ele><time>2026-03-29T09:01:30.574Z</time></trkpt><trkpt lat="43.7053067" lon="12.25197"><ele>852.0</ele><time>2026-03-29T09:01:31.575Z</time></trkpt><trkpt lat="43.7051533" lon="12.2519817"><ele>852.0</ele><time>2026-03-29T09:01:32.574Z</time></trkpt><trkpt lat="43.7050083" lon="12.2520333"><ele>852.0</ele><time>2026-03-29T09:01:33.575Z</time></trkpt><trkpt lat="43.7048817" lon="12.2521217"><ele>852.0</ele><time>2026-03-29T09:01:34.574Z</time></trkpt><trkpt lat="43.704775" lon="12.2522183"><ele>852.0</ele><time>2026-03-29T09:01:35.575Z</time></trkpt><trkpt lat="43.7046667" lon="12.2522933"><ele>852.25</ele><time>2026-03-29T09:01:36.575Z</time></trkpt><trkpt lat="43.7045467" lon="12.2523317"><ele>852.5</ele><time>2026-03-29T09:01:37.575Z</time></trkpt><trkpt lat="43.7044233" lon="12.25234"><ele>852.75</ele><time>2026-03-29T09:01:38.575Z</time></trkpt><trkpt lat="43.704305" lon="12.2523133"><ele>853.0</ele><time>2026-03-29T09:01:39.574Z</time></trkpt><trkpt lat="43.704205" lon="12.2522683"><ele>853.0</ele><time>2026-03-29T09:01:40.574Z</time></trkpt><trkpt lat="43.7041283" lon="12.2521967"><ele>853.0</ele><time>2026-03-29T09:01:41.574Z</time></trkpt><trkpt lat="43.7040733" lon="12.2521033"><ele>853.0</ele><time>2026-03-29T09:01:42.575Z</time></trkpt><trkpt lat="43.7040433" lon="12.251985"><ele>853.0</ele><time>2026-03-29T09:01:43.574Z</time></trkpt><trkpt lat="43.70405" lon="12.2518533"><ele>853.0</ele><time>2026-03-29T09:01:44.574Z</time></trkpt><trkpt lat="43.7041017" lon="12.2517183"><ele>853.0</ele><time>2026-03-29T09:01:45.575Z</time></trkpt><trkpt lat="43.70419" lon="12.2515767"><ele>853.0</ele><time>2026-03-29T09:01:46.575Z</time></trkpt><trkpt lat="43.7043117" lon="12.2514367"><ele>853.0</ele><time>2026-03-29T09:01:47.574Z</time></trkpt><trkpt lat="43.7044567" lon="12.2512917"><ele>857.0</ele><time>2026-03-29T09:01:48.574Z</time></trkpt><trkpt lat="43.7046133" lon="12.251165"><ele>861.0</ele><time>2026-03-29T09:01:49.575Z</time></trkpt><trkpt lat="43.7047683" lon="12.25106"><ele>865.0</ele><time>2026-03-29T09:01:50.575Z</time></trkpt><trkpt lat="43.7049217" lon="12.2509817"><ele>865.0</ele><time>2026-03-29T09:01:51.575Z</time></trkpt><trkpt lat="43.7050867" lon="12.250935"><ele>865.0</ele><time>2026-03-29T09:01:52.575Z</time></trkpt><trkpt lat="43.7052667" lon="12.2509133"><ele>865.0</ele><time>2026-03-29T09:01:53.575Z</time></trkpt><trkpt lat="43.7054417" lon="12.250915"><ele>868.3333333333333</ele><time>2026-03-29T09:01:54.575Z</time></trkpt><trkpt lat="43.705605" lon="12.2509317"><ele>871.6666666666667</ele><time>2026-03-29T09:01:55.574Z</time></trkpt><trkpt lat="43.70576" lon="12.2509667"><ele>875.0</ele><time>2026-03-29T09:01:56.575Z</time></trkpt><trkpt lat="43.705905" lon="12.2510167"><ele>875.0</ele><time>2026-03-29T09:01:57.574Z</time></trkpt><trkpt lat="43.7060333" lon="12.2510733"><ele>875.0</ele><time>2026-03-29T09:01:58.575Z</time></trkpt><trkpt lat="43.7061467" lon="12.2511233"><ele>875.0</ele><time>2026-03-29T09:01:59.575Z</time></trkpt><trkpt lat="43.7062517" lon="12.2511433"><ele>875.0</ele><time>2026-03-29T09:02:00.575Z</time></trkpt><trkpt lat="43.706345" lon="12.25114"><ele>874.0</ele><time>2026-03-29T09:02:01.575Z</time></trkpt><trkpt lat="43.706445" lon="12.2510883"><ele>873.0</ele><time>2026-03-29T09:02:02.575Z</time></trkpt><trkpt lat="43.706555" lon="12.2509933"><ele>872.0</ele><time>2026-03-29T09:02:03.575Z</time></trkpt><trkpt lat="43.7066633" lon="12.2508667"><ele>871.0</ele><time>2026-03-29T09:02:04.575Z</time></trkpt><trkpt lat="43.70677" lon="12.2507283"><ele>871.6666666666666</ele><time>2026-03-29T09:02:05.575Z</time></trkpt><trkpt lat="43.7068717" lon="12.2505817"><ele>872.3333333333333</ele><time>2026-03-29T09:02:06.575Z</time></trkpt><trkpt lat="43.706965" lon="12.2504183"><ele>873.0</ele><time>2026-03-29T09:02:07.575Z</time></trkpt><trkpt lat="43.7070483" lon="12.250235"><ele>873.0</ele><time>2026-03-29T09:02:08.575Z</time></trkpt><trkpt lat="43.7071167" lon="12.2500533"><ele>873.0</ele><time>2026-03-29T09:02:09.574Z</time></trkpt><trkpt lat="43.7071833" lon="12.2498883"><ele>873.0</ele><time>2026-03-29T09:02:10.575Z</time></trkpt><trkpt lat="43.707265" lon="12.249755"><ele>873.0</ele><time>2026-03-29T09:02:11.575Z</time></trkpt><trkpt lat="43.707365" lon="12.2496533"><ele>877.6666666666667</ele><time>2026-03-29T09:02:12.575Z</time></trkpt><trkpt lat="43.7074933" lon="12.2495917"><ele>882.3333333333334</ele><time>2026-03-29T09:02:13.575Z</time></trkpt><trkpt lat="43.7076417" lon="12.2495717"><ele>887.0</ele><time>2026-03-29T09:02:14.575Z</time></trkpt><trkpt lat="43.70781" lon="12.2495483"><ele>887.0</ele><time>2026-03-29T09:02:15.574Z</time></trkpt><trkpt lat="43.7079917" lon="12.2495"><ele>887.0</ele><time>2026-03-29T09:02:16.574Z</time></trkpt><trkpt lat="43.70816" lon="12.2494433"><ele>887.0</ele><time>2026-03-29T09:02:17.575Z</time></trkpt><trkpt lat="43.7083067" lon="12.24939"><ele>887.0</ele><time>2026-03-29T09:02:18.575Z</time></trkpt><trkpt lat="43.708425" lon="12.2493433"><ele>887.0</ele><time>2026-03-29T09:02:19.575Z</time></trkpt><trkpt lat="43.7085283" lon="12.2492817"><ele>887.0</ele><time>2026-03-29T09:02:20.575Z</time></trkpt><trkpt lat="43.7086083" lon="12.2491733"><ele>887.0</ele><time>2026-03-29T09:02:21.574Z</time></trkpt><trkpt lat="43.7086733" lon="12.2490317"><ele>886.3333333333334</ele><time>2026-03-29T09:02:22.575Z</time></trkpt><trkpt lat="43.7087267" lon="12.248825"><ele>885.6666666666667</ele><time>2026-03-29T09:02:23.574Z</time></trkpt><trkpt lat="43.70879" lon="12.2485983"><ele>885.0</ele><time>2026-03-29T09:02:24.574Z</time></trkpt><trkpt lat="43.7088817" lon="12.2483767"><ele>885.0</ele><time>2026-03-29T09:02:25.574Z</time></trkpt><trkpt lat="43.709005" lon="12.24816"><ele>885.0</ele><time>2026-03-29T09:02:26.575Z</time></trkpt><trkpt lat="43.70914" lon="12.2479333"><ele>885.0</ele><time>2026-03-29T09:02:27.575Z</time></trkpt><trkpt lat="43.709285" lon="12.2477017"><ele>886.0</ele><time>2026-03-29T09:02:28.575Z</time></trkpt><trkpt lat="43.7094217" lon="12.2474833"><ele>887.0</ele><time>2026-03-29T09:02:29.574Z</time></trkpt><trkpt lat="43.70955" lon="12.247275"><ele>888.0</ele><time>2026-03-29T09:02:30.575Z</time></trkpt><trkpt lat="43.7096783" lon="12.2470667"><ele>891.6666666666667</ele><time>2026-03-29T09:02:31.575Z</time></trkpt><trkpt lat="43.7098" lon="12.246865"><ele>895.3333333333334</ele><time>2026-03-29T09:02:32.575Z</time></trkpt><trkpt lat="43.70991" lon="12.2466817"><ele>899.0</ele><time>2026-03-29T09:02:33.575Z</time></trkpt><trkpt lat="43.7100133" lon="12.2465133"><ele>901.6666666666667</ele><time>2026-03-29T09:02:34.575Z</time></trkpt><trkpt lat="43.7101233" lon="12.2463767"><ele>904.3333333333333</ele><time>2026-03-29T09:02:35.575Z</time></trkpt><trkpt lat="43.7102533" lon="12.2462717"><ele>907.0</ele><time>2026-03-29T09:02:36.574Z</time></trkpt><trkpt lat="43.7104083" lon="12.2462"><ele>907.0</ele><time>2026-03-29T09:02:37.574Z</time></trkpt><trkpt lat="43.71057" lon="12.2461567"><ele>907.0</ele><time>2026-03-29T09:02:38.575Z</time></trkpt><trkpt lat="43.71073" lon="12.2461383"><ele>907.0</ele><time>2026-03-29T09:02:39.574Z</time></trkpt><trkpt lat="43.7108867" lon="12.2461483"><ele>907.0</ele><time>2026-03-29T09:02:40.575Z</time></trkpt><trkpt lat="43.7110383" lon="12.246185"><ele>907.0</ele><time>2026-03-29T09:02:41.575Z</time></trkpt><trkpt lat="43.71119" lon="12.246255"><ele>907.0</ele><time>2026-03-29T09:02:42.575Z</time></trkpt><trkpt lat="43.7113533" lon="12.24634"><ele>905.6666666666666</ele><time>2026-03-29T09:02:43.574Z</time></trkpt><trkpt lat="43.7115333" lon="12.2464167"><ele>904.3333333333333</ele><time>2026-03-29T09:02:44.575Z</time></trkpt><trkpt lat="43.7117267" lon="12.2464617"><ele>903.0</ele><time>2026-03-29T09:02:45.574Z</time></trkpt><trkpt lat="43.7119167" lon="12.2464917"><ele>906.0</ele><time>2026-03-29T09:02:46.574Z</time></trkpt><trkpt lat="43.7120967" lon="12.246535"><ele>909.0</ele><time>2026-03-29T09:02:47.574Z</time></trkpt><trkpt lat="43.71227" lon="12.2466017"><ele>912.0</ele><time>2026-03-29T09:02:48.575Z</time></trkpt><trkpt lat="43.7124467" lon="12.24668"><ele>912.0</ele><time>2026-03-29T09:02:49.575Z</time></trkpt><trkpt lat="43.7126133" lon="12.2467717"><ele>912.0</ele><time>2026-03-29T09:02:50.574Z</time></trkpt><trkpt lat="43.71277" lon="12.24688"><ele>912.0</ele><time>2026-03-29T09:02:51.575Z</time></trkpt><trkpt lat="43.7129083" lon="12.247015"><ele>912.0</ele><time>2026-03-29T09:02:52.575Z</time></trkpt><trkpt lat="43.7130233" lon="12.24715"><ele>912.0</ele><time>2026-03-29T09:02:53.575Z</time></trkpt><trkpt lat="43.7131283" lon="12.247265"><ele>912.0</ele><time>2026-03-29T09:02:54.575Z</time></trkpt><trkpt lat="43.7132267" lon="12.2473517"><ele>912.0</ele><time>2026-03-29T09:02:55.575Z</time></trkpt><trkpt lat="43.7133383" lon="12.2473867"><ele>912.0</ele><time>2026-03-29T09:02:56.575Z</time></trkpt><trkpt lat="43.7134633" lon="12.247355"><ele>912.0</ele><time>2026-03-29T09:02:57.575Z</time></trkpt><trkpt lat="43.71359" lon="12.2472733"><ele>912.0</ele><time>2026-03-29T09:02:58.575Z</time></trkpt><trkpt lat="43.7137333" lon="12.2471483"><ele>912.0</ele><time>2026-03-29T09:02:59.575Z</time></trkpt><trkpt lat="43.7138783" lon="12.24699"><ele>911.6666666666667</ele><time>2026-03-29T09:03:00.575Z</time></trkpt><trkpt lat="43.7140333" lon="12.2468283"><ele>911.3333333333334</ele><time>2026-03-29T09:03:01.576Z</time></trkpt><trkpt lat="43.7142167" lon="12.24666"><ele>911.0</ele><time>2026-03-29T09:03:02.576Z</time></trkpt><trkpt lat="43.714405" lon="12.2464967"><ele>913.0</ele><time>2026-03-29T09:03:03.575Z</time></trkpt><trkpt lat="43.7145883" lon="12.2463517"><ele>915.0</ele><time>2026-03-29T09:03:04.575Z</time></trkpt><trkpt lat="43.714755" lon="12.2462217"><ele>917.0</ele><time>2026-03-29T09:03:05.576Z</time></trkpt><trkpt lat="43.71491" lon="12.246105"><ele>917.0</ele><time>2026-03-29T09:03:06.575Z</time></trkpt><trkpt lat="43.715045" lon="12.246015"><ele>917.0</ele><time>2026-03-29T09:03:07.576Z</time></trkpt><trkpt lat="43.71517" lon="12.2459417"><ele>917.0</ele><time>2026-03-29T09:03:08.576Z</time></trkpt><trkpt lat="43.7153" lon="12.2459017"><ele>917.0</ele><time>2026-03-29T09:03:09.575Z</time></trkpt><trkpt lat="43.7154433" lon="12.2459033"><ele>917.0</ele><time>2026-03-29T09:03:10.576Z</time></trkpt><trkpt lat="43.7155883" lon="12.2459383"><ele>917.0</ele><time>2026-03-29T09:03:11.575Z</time></trkpt><trkpt lat="43.7157367" lon="12.2459817"><ele>917.0</ele><time>2026-03-29T09:03:12.576Z</time></trkpt><trkpt lat="43.7158817" lon="12.2460133"><ele>917.0</ele><time>2026-03-29T09:03:13.576Z</time></trkpt><trkpt lat="43.7160267" lon="12.2460183"><ele>917.6666666666667</ele><time>2026-03-29T09:03:14.576Z</time></trkpt><trkpt lat="43.71618" lon="12.2459933"><ele>918.3333333333333</ele><time>2026-03-29T09:03:15.576Z</time></trkpt><trkpt lat="43.716335" lon="12.245955"><ele>919.0</ele><time>2026-03-29T09:03:16.576Z</time></trkpt><trkpt lat="43.716485" lon="12.2459083"><ele>919.0</ele><time>2026-03-29T09:03:17.575Z</time></trkpt><trkpt lat="43.71663" lon="12.245865"><ele>919.0</ele><time>2026-03-29T09:03:18.575Z</time></trkpt><trkpt lat="43.7167667" lon="12.2458267"><ele>919.0</ele><time>2026-03-29T09:03:19.575Z</time></trkpt><trkpt lat="43.7169067" lon="12.245785"><ele>919.0</ele><time>2026-03-29T09:03:20.576Z</time></trkpt><trkpt lat="43.7170433" lon="12.2457117"><ele>919.0</ele><time>2026-03-29T09:03:21.576Z</time></trkpt><trkpt lat="43.7171633" lon="12.2456033"><ele>919.0</ele><time>2026-03-29T09:03:22.576Z</time></trkpt><trkpt lat="43.7172667" lon="12.2454833"><ele>919.0</ele><time>2026-03-29T09:03:23.576Z</time></trkpt><trkpt lat="43.717355" lon="12.2453633"><ele>919.0</ele><time>2026-03-29T09:03:24.575Z</time></trkpt><trkpt lat="43.71743" lon="12.2452433"><ele>919.0</ele><time>2026-03-29T09:03:25.575Z</time></trkpt><trkpt lat="43.7174833" lon="12.24511"><ele>919.0</ele><time>2026-03-29T09:03:26.575Z</time></trkpt><trkpt lat="43.7175183" lon="12.244955"><ele>919.0</ele><time>2026-03-29T09:03:27.576Z</time></trkpt><trkpt lat="43.717525" lon="12.2447833"><ele>919.0</ele><time>2026-03-29T09:03:28.576Z</time></trkpt><trkpt lat="43.7175017" lon="12.244605"><ele>918.25</ele><time>2026-03-29T09:03:29.576Z</time></trkpt><trkpt lat="43.717445" lon="12.2444267"><ele>917.5</ele><time>2026-03-29T09:03:30.575Z</time></trkpt><trkpt lat="43.7173583" lon="12.2442667"><ele>916.75</ele><time>2026-03-29T09:03:31.575Z</time></trkpt><trkpt lat="43.71727" lon="12.24413"><ele>916.0</ele><time>2026-03-29T09:03:32.576Z</time></trkpt><trkpt lat="43.7171867" lon="12.2440017"><ele>915.8</ele><time>2026-03-29T09:03:33.576Z</time></trkpt><trkpt lat="43.7171233" lon="12.243875"><ele>915.5999999999999</ele><time>2026-03-29T09:03:34.576Z</time></trkpt><trkpt lat="43.7170833" lon="12.2437367"><ele>915.4</ele><time>2026-03-29T09:03:35.576Z</time></trkpt><trkpt lat="43.71707" lon="12.24359"><ele>915.2</ele><time>2026-03-29T09:03:36.576Z</time></trkpt><trkpt lat="43.717095" lon="12.243435"><ele>915.0</ele><time>2026-03-29T09:03:37.576Z</time></trkpt><trkpt lat="43.71716" lon="12.2432783"><ele>915.0</ele><time>2026-03-29T09:03:38.576Z</time></trkpt><trkpt lat="43.717225" lon="12.24315"><ele>915.0</ele><time>2026-03-29T09:03:39.576Z</time></trkpt><trkpt lat="43.7172867" lon="12.243035"><ele>915.0</ele><time>2026-03-29T09:03:40.576Z</time></trkpt><trkpt lat="43.71733" lon="12.2428933"><ele>915.0</ele><time>2026-03-29T09:03:41.576Z</time></trkpt><trkpt lat="43.717335" lon="12.2427283"><ele>915.0</ele><time>2026-03-29T09:03:42.576Z</time></trkpt><trkpt lat="43.7173017" lon="12.242555"><ele>915.0</ele><time>2026-03-29T09:03:43.576Z</time></trkpt><trkpt lat="43.717235" lon="12.2423917"><ele>915.0</ele><time>2026-03-29T09:03:44.576Z</time></trkpt><trkpt lat="43.7171633" lon="12.2422483"><ele>915.0</ele><time>2026-03-29T09:03:45.576Z</time></trkpt><trkpt lat="43.7171167" lon="12.2421"><ele>915.0</ele><time>2026-03-29T09:03:46.575Z</time></trkpt><trkpt lat="43.717095" lon="12.2419367"><ele>913.0</ele><time>2026-03-29T09:03:47.576Z</time></trkpt><trkpt lat="43.7171083" lon="12.241765"><ele>911.0</ele><time>2026-03-29T09:03:48.576Z</time></trkpt><trkpt lat="43.7171617" lon="12.2416017"><ele>909.0</ele><time>2026-03-29T09:03:49.576Z</time></trkpt><trkpt lat="43.71724" lon="12.241455"><ele>907.0</ele><time>2026-03-29T09:03:50.576Z</time></trkpt><trkpt lat="43.717345" lon="12.2413367"><ele>902.5</ele><time>2026-03-29T09:03:51.576Z</time></trkpt><trkpt lat="43.7174633" lon="12.24126"><ele>898.0</ele><time>2026-03-29T09:03:52.576Z</time></trkpt><trkpt lat="43.7175983" lon="12.2412217"><ele>893.5</ele><time>2026-03-29T09:03:53.575Z</time></trkpt><trkpt lat="43.7177433" lon="12.241225"><ele>889.0</ele><time>2026-03-29T09:03:54.576Z</time></trkpt><trkpt lat="43.7178967" lon="12.2412517"><ele>889.0</ele><time>2026-03-29T09:03:55.576Z</time></trkpt><trkpt lat="43.71804" lon="12.24128"><ele>889.0</ele><time>2026-03-29T09:03:56.576Z</time></trkpt><trkpt lat="43.7181633" lon="12.241305"><ele>889.0</ele><time>2026-03-29T09:03:57.576Z</time></trkpt><trkpt lat="43.7182767" lon="12.2413133"><ele>889.0</ele><time>2026-03-29T09:03:58.575Z</time></trkpt><trkpt lat="43.7183617" lon="12.2412917"><ele>889.0</ele><time>2026-03-29T09:03:59.575Z</time></trkpt><trkpt lat="43.7184267" lon="12.241215"><ele>889.0000000000001</ele><time>2026-03-29T09:04:00.575Z</time></trkpt><trkpt lat="43.71847" lon="12.2411083"><ele>889.0000000000001</ele><time>2026-03-29T09:04:01.576Z</time></trkpt><trkpt lat="43.7184617" lon="12.2409717"><ele>889.0</ele><time>2026-03-29T09:04:02.575Z</time></trkpt><trkpt lat="43.7184217" lon="12.2408417"><ele>889.0</ele><time>2026-03-29T09:04:03.575Z</time></trkpt><trkpt lat="43.7183367" lon="12.2407567"><ele>889.0</ele><time>2026-03-29T09:04:04.576Z</time></trkpt><trkpt lat="43.7182317" lon="12.2407067"><ele>889.0</ele><time>2026-03-29T09:04:05.576Z</time></trkpt><trkpt lat="43.7181083" lon="12.240705"><ele>889.0</ele><time>2026-03-29T09:04:06.576Z</time></trkpt><trkpt lat="43.7179667" lon="12.240735"><ele>889.0</ele><time>2026-03-29T09:04:07.576Z</time></trkpt><trkpt lat="43.7178167" lon="12.2407667"><ele>889.0</ele><time>2026-03-29T09:04:08.576Z</time></trkpt><trkpt lat="43.717665" lon="12.24076"><ele>889.0</ele><time>2026-03-29T09:04:09.576Z</time></trkpt><trkpt lat="43.7175217" lon="12.2407317"><ele>889.0</ele><time>2026-03-29T09:04:10.576Z</time></trkpt><trkpt lat="43.7173917" lon="12.24069"><ele>889.0</ele><time>2026-03-29T09:04:11.576Z</time></trkpt><trkpt lat="43.7172483" lon="12.2406567"><ele>889.0</ele><time>2026-03-29T09:04:12.576Z</time></trkpt><trkpt lat="43.7170817" lon="12.2406567"><ele>889.0</ele><time>2026-03-29T09:04:13.575Z</time></trkpt><trkpt lat="43.7169067" lon="12.2406783"><ele>889.0</ele><time>2026-03-29T09:04:14.575Z</time></trkpt><trkpt lat="43.71674" lon="12.24074"><ele>886.5</ele><time>2026-03-29T09:04:15.576Z</time></trkpt><trkpt lat="43.71659" lon="12.24081"><ele>884.0</ele><time>2026-03-29T09:04:16.576Z</time></trkpt><trkpt lat="43.71646" lon="12.24088"><ele>881.5</ele><time>2026-03-29T09:04:17.576Z</time></trkpt><trkpt lat="43.7163567" lon="12.2409467"><ele>879.0</ele><time>2026-03-29T09:04:18.576Z</time></trkpt><trkpt lat="43.7162717" lon="12.24105"><ele>879.0</ele><time>2026-03-29T09:04:19.575Z</time></trkpt><trkpt lat="43.7162117" lon="12.24119"><ele>879.0</ele><time>2026-03-29T09:04:20.576Z</time></trkpt><trkpt lat="43.7161767" lon="12.2413517"><ele>879.0</ele><time>2026-03-29T09:04:21.576Z</time></trkpt><trkpt lat="43.716195" lon="12.2415267"><ele>879.0</ele><time>2026-03-29T09:04:22.576Z</time></trkpt><trkpt lat="43.71625" lon="12.24172"><ele>881.25</ele><time>2026-03-29T09:04:23.576Z</time></trkpt><trkpt lat="43.71632" lon="12.241915"><ele>883.5</ele><time>2026-03-29T09:04:24.576Z</time></trkpt><trkpt lat="43.7163633" lon="12.242085"><ele>885.75</ele><time>2026-03-29T09:04:25.576Z</time></trkpt><trkpt lat="43.7163833" lon="12.2422483"><ele>888.0</ele><time>2026-03-29T09:04:26.575Z</time></trkpt><trkpt lat="43.7163733" lon="12.2424067"><ele>888.25</ele><time>2026-03-29T09:04:27.576Z</time></trkpt><trkpt lat="43.71631" lon="12.242535"><ele>888.5</ele><time>2026-03-29T09:04:28.576Z</time></trkpt><trkpt lat="43.7162117" lon="12.2426617"><ele>888.75</ele><time>2026-03-29T09:04:29.575Z</time></trkpt><trkpt lat="43.7160983" lon="12.2427783"><ele>889.0</ele><time>2026-03-29T09:04:30.576Z</time></trkpt><trkpt lat="43.715985" lon="12.2428717"><ele>884.0</ele><time>2026-03-29T09:04:31.576Z</time></trkpt><trkpt lat="43.7158717" lon="12.2429367"><ele>879.0</ele><time>2026-03-29T09:04:32.576Z</time></trkpt><trkpt lat="43.7157633" lon="12.2429633"><ele>874.0</ele><time>2026-03-29T09:04:33.576Z</time></trkpt><trkpt lat="43.7156567" lon="12.2429267"><ele>869.0</ele><time>2026-03-29T09:04:34.576Z</time></trkpt><trkpt lat="43.71556" lon="12.2428417"><ele>869.0</ele><time>2026-03-29T09:04:35.575Z</time></trkpt><trkpt lat="43.7154983" lon="12.2427033"><ele>869.0</ele><time>2026-03-29T09:04:36.576Z</time></trkpt><trkpt lat="43.7154733" lon="12.2425467"><ele>869.0</ele><time>2026-03-29T09:04:37.575Z</time></trkpt><trkpt lat="43.7154883" lon="12.2423583"><ele>869.0</ele><time>2026-03-29T09:04:38.576Z</time></trkpt><trkpt lat="43.7155283" lon="12.242145"><ele>867.3333333333334</ele><time>2026-03-29T09:04:39.575Z</time></trkpt><trkpt lat="43.7155767" lon="12.2418967"><ele>865.6666666666667</ele><time>2026-03-29T09:04:40.576Z</time></trkpt><trkpt lat="43.715635" lon="12.24162"><ele>864.0</ele><time>2026-03-29T09:04:41.576Z</time></trkpt><trkpt lat="43.715685" lon="12.24135"><ele>862.0</ele><time>2026-03-29T09:04:42.575Z</time></trkpt><trkpt lat="43.7157283" lon="12.2410967"><ele>860.0</ele><time>2026-03-29T09:04:43.576Z</time></trkpt><trkpt lat="43.7157667" lon="12.2408533"><ele>858.0</ele><time>2026-03-29T09:04:44.576Z</time></trkpt><trkpt lat="43.7158083" lon="12.2406167"><ele>854.3333333333333</ele><time>2026-03-29T09:04:45.576Z</time></trkpt><trkpt lat="43.7158167" lon="12.2403633"><ele>850.6666666666666</ele><time>2026-03-29T09:04:46.576Z</time></trkpt><trkpt lat="43.7158117" lon="12.2401017"><ele>847.0</ele><time>2026-03-29T09:04:47.575Z</time></trkpt><trkpt lat="43.7158017" lon="12.23986"><ele>844.75</ele><time>2026-03-29T09:04:48.576Z</time></trkpt><trkpt lat="43.71579" lon="12.2396433"><ele>842.5</ele><time>2026-03-29T09:04:49.576Z</time></trkpt><trkpt lat="43.7157933" lon="12.23944"><ele>840.25</ele><time>2026-03-29T09:04:50.575Z</time></trkpt><trkpt lat="43.71582" lon="12.2392567"><ele>838.0</ele><time>2026-03-29T09:04:51.576Z</time></trkpt><trkpt lat="43.71588" lon="12.239115"><ele>838.0</ele><time>2026-03-29T09:04:52.576Z</time></trkpt><trkpt lat="43.7159717" lon="12.2390083"><ele>838.0</ele><time>2026-03-29T09:04:53.575Z</time></trkpt><trkpt lat="43.7161017" lon="12.2389533"><ele>838.0</ele><time>2026-03-29T09:04:54.576Z</time></trkpt><trkpt lat="43.7162633" lon="12.2389333"><ele>838.0</ele><time>2026-03-29T09:04:55.576Z</time></trkpt><trkpt lat="43.71645" lon="12.2389267"><ele>838.0</ele><time>2026-03-29T09:04:56.576Z</time></trkpt><trkpt lat="43.716625" lon="12.2389217"><ele>838.0</ele><time>2026-03-29T09:04:57.576Z</time></trkpt><trkpt lat="43.716775" lon="12.238915"><ele>838.0</ele><time>2026-03-29T09:04:58.576Z</time></trkpt><trkpt lat="43.716905" lon="12.238885"><ele>838.0</ele><time>2026-03-29T09:04:59.575Z</time></trkpt><trkpt lat="43.71701" lon="12.2388167"><ele>838.0</ele><time>2026-03-29T09:05:00.575Z</time></trkpt><trkpt lat="43.7171067" lon="12.2386883"><ele>838.0</ele><time>2026-03-29T09:05:01.576Z</time></trkpt><trkpt lat="43.7171833" lon="12.2384917"><ele>838.0</ele><time>2026-03-29T09:05:02.576Z</time></trkpt><trkpt lat="43.7172467" lon="12.2382883"><ele>834.75</ele><time>2026-03-29T09:05:03.576Z</time></trkpt><trkpt lat="43.717305" lon="12.23811"><ele>831.5</ele><time>2026-03-29T09:05:04.575Z</time></trkpt><trkpt lat="43.7173867" lon="12.23798"><ele>828.25</ele><time>2026-03-29T09:05:05.576Z</time></trkpt><trkpt lat="43.7174983" lon="12.2378867"><ele>825.0</ele><time>2026-03-29T09:05:06.576Z</time></trkpt><trkpt lat="43.7176317" lon="12.2378333"><ele>826.75</ele><time>2026-03-29T09:05:07.576Z</time></trkpt><trkpt lat="43.7177667" lon="12.237815"><ele>828.5</ele><time>2026-03-29T09:05:08.575Z</time></trkpt><trkpt lat="43.7178917" lon="12.2378033"><ele>830.25</ele><time>2026-03-29T09:05:09.575Z</time></trkpt><trkpt lat="43.7179917" lon="12.2377617"><ele>832.0</ele><time>2026-03-29T09:05:10.576Z</time></trkpt><trkpt lat="43.7180683" lon="12.23769"><ele>832.0</ele><time>2026-03-29T09:05:11.575Z</time></trkpt><trkpt lat="43.718125" lon="12.2375817"><ele>832.0</ele><time>2026-03-29T09:05:12.576Z</time></trkpt><trkpt lat="43.7181417" lon="12.2374417"><ele>832.0</ele><time>2026-03-29T09:05:13.576Z</time></trkpt><trkpt lat="43.7181183" lon="12.2373017"><ele>832.0</ele><time>2026-03-29T09:05:14.575Z</time></trkpt><trkpt lat="43.71804" lon="12.2372067"><ele>832.0</ele><time>2026-03-29T09:05:15.576Z</time></trkpt><trkpt lat="43.7179267" lon="12.23718"><ele>830.25</ele><time>2026-03-29T09:05:16.575Z</time></trkpt><trkpt lat="43.717805" lon="12.23718"><ele>828.5</ele><time>2026-03-29T09:05:17.576Z</time></trkpt><trkpt lat="43.7176617" lon="12.2372383"><ele>826.75</ele><time>2026-03-29T09:05:18.576Z</time></trkpt><trkpt lat="43.7175217" lon="12.2373317"><ele>825.0</ele><time>2026-03-29T09:05:19.576Z</time></trkpt><trkpt lat="43.71739" lon="12.2374067"><ele>825.0</ele><time>2026-03-29T09:05:20.576Z</time></trkpt><trkpt lat="43.7172683" lon="12.2374383"><ele>825.0</ele><time>2026-03-29T09:05:21.576Z</time></trkpt><trkpt lat="43.717165" lon="12.23742"><ele>825.0</ele><time>2026-03-29T09:05:22.575Z</time></trkpt><trkpt lat="43.717085" lon="12.237345"><ele>825.0</ele><time>2026-03-29T09:05:23.576Z</time></trkpt><trkpt lat="43.71703" lon="12.2372333"><ele>825.0</ele><time>2026-03-29T09:05:24.576Z</time></trkpt><trkpt lat="43.7170167" lon="12.2370883"><ele>821.75</ele><time>2026-03-29T09:05:25.576Z</time></trkpt><trkpt lat="43.7170583" lon="12.236945"><ele>818.5</ele><time>2026-03-29T09:05:26.576Z</time></trkpt><trkpt lat="43.717145" lon="12.236815"><ele>815.25</ele><time>2026-03-29T09:05:27.575Z</time></trkpt><trkpt lat="43.7172733" lon="12.2367033"><ele>812.0</ele><time>2026-03-29T09:05:28.575Z</time></trkpt><trkpt lat="43.7174433" lon="12.23659"><ele>812.0</ele><time>2026-03-29T09:05:29.576Z</time></trkpt><trkpt lat="43.717615" lon="12.2364717"><ele>812.0</ele><time>2026-03-29T09:05:30.576Z</time></trkpt><trkpt lat="43.7177717" lon="12.2363533"><ele>812.0</ele><time>2026-03-29T09:05:31.576Z</time></trkpt><trkpt lat="43.7179183" lon="12.236245"><ele>811.6666666666667</ele><time>2026-03-29T09:05:32.576Z</time></trkpt><trkpt lat="43.7180517" lon="12.2361233"><ele>811.3333333333333</ele><time>2026-03-29T09:05:33.575Z</time></trkpt><trkpt lat="43.7181633" lon="12.2359717"><ele>811.0</ele><time>2026-03-29T09:05:34.575Z</time></trkpt><trkpt lat="43.7182583" lon="12.2357817"><ele>808.3333333333333</ele><time>2026-03-29T09:05:35.575Z</time></trkpt><trkpt lat="43.718335" lon="12.235565"><ele>805.6666666666667</ele><time>2026-03-29T09:05:36.576Z</time></trkpt><trkpt lat="43.718395" lon="12.2353367"><ele>803.0</ele><time>2026-03-29T09:05:37.576Z</time></trkpt><trkpt lat="43.71845" lon="12.2351283"><ele>803.0</ele><time>2026-03-29T09:05:38.575Z</time></trkpt><trkpt lat="43.7185083" lon="12.2349383"><ele>803.0</ele><time>2026-03-29T09:05:39.576Z</time></trkpt><trkpt lat="43.7185933" lon="12.2347567"><ele>803.0</ele><time>2026-03-29T09:05:40.576Z</time></trkpt><trkpt lat="43.7187017" lon="12.2345733"><ele>804.3333333333334</ele><time>2026-03-29T09:05:41.576Z</time></trkpt><trkpt lat="43.71883" lon="12.2343917"><ele>805.6666666666667</ele><time>2026-03-29T09:05:42.575Z</time></trkpt><trkpt lat="43.718955" lon="12.234245"><ele>807.0</ele><time>2026-03-29T09:05:43.576Z</time></trkpt><trkpt lat="43.71908" lon="12.23411"><ele>807.0</ele><time>2026-03-29T09:05:44.576Z</time></trkpt><trkpt lat="43.7192" lon="12.2340117"><ele>807.0</ele><time>2026-03-29T09:05:45.575Z</time></trkpt><trkpt lat="43.7193183" lon="12.2339467"><ele>807.0</ele><time>2026-03-29T09:05:46.575Z</time></trkpt><trkpt lat="43.7194517" lon="12.233935"><ele>807.0</ele><time>2026-03-29T09:05:47.576Z</time></trkpt><trkpt lat="43.7196033" lon="12.2339567"><ele>808.0</ele><time>2026-03-29T09:05:48.575Z</time></trkpt><trkpt lat="43.7197833" lon="12.2340067"><ele>809.0</ele><time>2026-03-29T09:05:49.576Z</time></trkpt><trkpt lat="43.7199783" lon="12.234065"><ele>810.0</ele><time>2026-03-29T09:05:50.576Z</time></trkpt><trkpt lat="43.72018" lon="12.2341217"><ele>808.3333333333333</ele><time>2026-03-29T09:05:51.576Z</time></trkpt><trkpt lat="43.72037" lon="12.2341683"><ele>806.6666666666666</ele><time>2026-03-29T09:05:52.576Z</time></trkpt><trkpt lat="43.72055" lon="12.2342133"><ele>805.0</ele><time>2026-03-29T09:05:53.576Z</time></trkpt><trkpt lat="43.7207133" lon="12.2342717"><ele>805.0</ele><time>2026-03-29T09:05:54.576Z</time></trkpt><trkpt lat="43.7208583" lon="12.2343217"><ele>805.0</ele><time>2026-03-29T09:05:55.576Z</time></trkpt><trkpt lat="43.7209833" lon="12.2343717"><ele>805.0</ele><time>2026-03-29T09:05:56.576Z</time></trkpt><trkpt lat="43.72109" lon="12.234455"><ele>805.0</ele><time>2026-03-29T09:05:57.576Z</time></trkpt><trkpt lat="43.7211633" lon="12.2345633"><ele>803.0</ele><time>2026-03-29T09:05:58.575Z</time></trkpt><trkpt lat="43.7212417" lon="12.2346467"><ele>801.0</ele><time>2026-03-29T09:05:59.576Z</time></trkpt><trkpt lat="43.72134" lon="12.2346967"><ele>799.0</ele><time>2026-03-29T09:06:00.576Z</time></trkpt><trkpt lat="43.7214617" lon="12.2346883"><ele>797.0</ele><time>2026-03-29T09:06:01.575Z</time></trkpt><trkpt lat="43.7215783" lon="12.2346483"><ele>795.0</ele><time>2026-03-29T09:06:02.575Z</time></trkpt><trkpt lat="43.7216917" lon="12.2346333"><ele>795.0</ele><time>2026-03-29T09:06:03.576Z</time></trkpt><trkpt lat="43.7218167" lon="12.2346567"><ele>795.0</ele><time>2026-03-29T09:06:04.575Z</time></trkpt><trkpt lat="43.721935" lon="12.23473"><ele>795.0</ele><time>2026-03-29T09:06:05.576Z</time></trkpt><trkpt lat="43.7220483" lon="12.23486"><ele>795.0</ele><time>2026-03-29T09:06:06.576Z</time></trkpt><trkpt lat="43.72215" lon="12.23501"><ele>797.5</ele><time>2026-03-29T09:06:07.576Z</time></trkpt><trkpt lat="43.7222533" lon="12.235135"><ele>800.0</ele><time>2026-03-29T09:06:08.576Z</time></trkpt><trkpt lat="43.722365" lon="12.2352183"><ele>802.5</ele><time>2026-03-29T09:06:09.575Z</time></trkpt><trkpt lat="43.7224883" lon="12.235245"><ele>805.0</ele><time>2026-03-29T09:06:10.575Z</time></trkpt><trkpt lat="43.7226083" lon="12.235205"><ele>805.0</ele><time>2026-03-29T09:06:11.575Z</time></trkpt><trkpt lat="43.7227217" lon="12.235115"><ele>805.0</ele><time>2026-03-29T09:06:12.576Z</time></trkpt><trkpt lat="43.7228167" lon="12.23495"><ele>805.0</ele><time>2026-03-29T09:06:13.575Z</time></trkpt><trkpt lat="43.7228833" lon="12.2347267"><ele>805.3333333333333</ele><time>2026-03-29T09:06:14.576Z</time></trkpt><trkpt lat="43.7229483" lon="12.2344617"><ele>805.6666666666667</ele><time>2026-03-29T09:06:15.576Z</time></trkpt><trkpt lat="43.723015" lon="12.2341783"><ele>806.0</ele><time>2026-03-29T09:06:16.576Z</time></trkpt><trkpt lat="43.72309" lon="12.2338917"><ele>806.0</ele><time>2026-03-29T09:06:17.576Z</time></trkpt><trkpt lat="43.7231767" lon="12.2335967"><ele>806.0</ele><time>2026-03-29T09:06:18.575Z</time></trkpt><trkpt lat="43.7232517" lon="12.23332"><ele>806.0</ele><time>2026-03-29T09:06:19.576Z</time></trkpt><trkpt lat="43.723315" lon="12.2330667"><ele>804.3333333333334</ele><time>2026-03-29T09:06:20.576Z</time></trkpt><trkpt lat="43.7233717" lon="12.23284"><ele>802.6666666666667</ele><time>2026-03-29T09:06:21.576Z</time></trkpt><trkpt lat="43.7234083" lon="12.2326467"><ele>801.0</ele><time>2026-03-29T09:06:22.575Z</time></trkpt><trkpt lat="43.7234167" lon="12.2324333"><ele>800.6666666666667</ele><time>2026-03-29T09:06:23.576Z</time></trkpt><trkpt lat="43.7233967" lon="12.2322133"><ele>800.3333333333334</ele><time>2026-03-29T09:06:24.576Z</time></trkpt><trkpt lat="43.72336" lon="12.232005"><ele>800.0</ele><time>2026-03-29T09:06:25.576Z</time></trkpt><trkpt lat="43.72332" lon="12.2318033"><ele>800.0</ele><time>2026-03-29T09:06:26.575Z</time></trkpt><trkpt lat="43.7232983" lon="12.2316167"><ele>800.0</ele><time>2026-03-29T09:06:27.576Z</time></trkpt><trkpt lat="43.7232933" lon="12.2314417"><ele>800.0</ele><time>2026-03-29T09:06:28.576Z</time></trkpt><trkpt lat="43.72333" lon="12.2312817"><ele>800.0</ele><time>2026-03-29T09:06:29.576Z</time></trkpt><trkpt lat="43.72341" lon="12.23112"><ele>798.6666666666667</ele><time>2026-03-29T09:06:30.575Z</time></trkpt><trkpt lat="43.7235117" lon="12.2309467"><ele>797.3333333333333</ele><time>2026-03-29T09:06:31.576Z</time></trkpt><trkpt lat="43.7236217" lon="12.23076"><ele>796.0</ele><time>2026-03-29T09:06:32.576Z</time></trkpt><trkpt lat="43.723735" lon="12.2305767"><ele>798.25</ele><time>2026-03-29T09:06:33.576Z</time></trkpt><trkpt lat="43.7238333" lon="12.2304117"><ele>800.5</ele><time>2026-03-29T09:06:34.576Z</time></trkpt><trkpt lat="43.7239217" lon="12.23026"><ele>802.75</ele><time>2026-03-29T09:06:35.575Z</time></trkpt><trkpt lat="43.7239867" lon="12.23008"><ele>805.0</ele><time>2026-03-29T09:06:36.575Z</time></trkpt><trkpt lat="43.724035" lon="12.2298783"><ele>805.3333333333333</ele><time>2026-03-29T09:06:37.576Z</time></trkpt><trkpt lat="43.7240683" lon="12.22965"><ele>805.6666666666667</ele><time>2026-03-29T09:06:38.576Z</time></trkpt><trkpt lat="43.7240933" lon="12.2294083"><ele>806.0</ele><time>2026-03-29T09:06:39.576Z</time></trkpt><trkpt lat="43.7241133" lon="12.2291683"><ele>805.3333333333334</ele><time>2026-03-29T09:06:40.575Z</time></trkpt><trkpt lat="43.7241317" lon="12.2289183"><ele>804.6666666666667</ele><time>2026-03-29T09:06:41.576Z</time></trkpt><trkpt lat="43.7241583" lon="12.22867"><ele>804.0</ele><time>2026-03-29T09:06:42.576Z</time></trkpt><trkpt lat="43.7241783" lon="12.2284183"><ele>804.0</ele><time>2026-03-29T09:06:43.576Z</time></trkpt><trkpt lat="43.7242" lon="12.228185"><ele>804.0</ele><time>2026-03-29T09:06:44.576Z</time></trkpt><trkpt lat="43.7242183" lon="12.227965"><ele>804.0</ele><time>2026-03-29T09:06:45.575Z</time></trkpt><trkpt lat="43.72423" lon="12.2277517"><ele>803.3333333333333</ele><time>2026-03-29T09:06:46.575Z</time></trkpt><trkpt lat="43.7242233" lon="12.22755"><ele>802.6666666666666</ele><time>2026-03-29T09:06:47.576Z</time></trkpt><trkpt lat="43.724185" lon="12.2273417"><ele>802.0</ele><time>2026-03-29T09:06:48.576Z</time></trkpt><trkpt lat="43.72413" lon="12.2271217"><ele>803.6666666666666</ele><time>2026-03-29T09:06:49.576Z</time></trkpt><trkpt lat="43.72406" lon="12.2268917"><ele>805.3333333333333</ele><time>2026-03-29T09:06:50.575Z</time></trkpt><trkpt lat="43.7239833" lon="12.22666"><ele>807.0</ele><time>2026-03-29T09:06:51.575Z</time></trkpt><trkpt lat="43.723905" lon="12.22646"><ele>811.0</ele><time>2026-03-29T09:06:52.576Z</time></trkpt><trkpt lat="43.7238183" lon="12.226275"><ele>815.0</ele><time>2026-03-29T09:06:53.575Z</time></trkpt><trkpt lat="43.72371" lon="12.2261017"><ele>819.0</ele><time>2026-03-29T09:06:54.575Z</time></trkpt><trkpt lat="43.723585" lon="12.2259317"><ele>818.6666666666667</ele><time>2026-03-29T09:06:55.576Z</time></trkpt><trkpt lat="43.7234433" lon="12.22578"><ele>818.3333333333334</ele><time>2026-03-29T09:06:56.576Z</time></trkpt><trkpt lat="43.7233033" lon="12.225645"><ele>818.0</ele><time>2026-03-29T09:06:57.576Z</time></trkpt><trkpt lat="43.7231717" lon="12.2255183"><ele>818.0</ele><time>2026-03-29T09:06:58.575Z</time></trkpt><trkpt lat="43.7230583" lon="12.2253983"><ele>818.0</ele><time>2026-03-29T09:06:59.576Z</time></trkpt><trkpt lat="43.7229667" lon="12.22527"><ele>818.0</ele><time>2026-03-29T09:07:00.576Z</time></trkpt><trkpt lat="43.722895" lon="12.2251167"><ele>818.0</ele><time>2026-03-29T09:07:01.576Z</time></trkpt><trkpt lat="43.7228367" lon="12.224935"><ele>820.0</ele><time>2026-03-29T09:07:02.575Z</time></trkpt><trkpt lat="43.7227833" lon="12.2247217"><ele>822.0</ele><time>2026-03-29T09:07:03.576Z</time></trkpt><trkpt lat="43.722735" lon="12.2244817"><ele>824.0</ele><time>2026-03-29T09:07:04.576Z</time></trkpt><trkpt lat="43.7226833" lon="12.224235"><ele>817.0</ele><time>2026-03-29T09:07:05.576Z</time></trkpt><trkpt lat="43.722635" lon="12.2239917"><ele>810.0</ele><time>2026-03-29T09:07:06.575Z</time></trkpt><trkpt lat="43.72258" lon="12.2237733"><ele>803.0</ele><time>2026-03-29T09:07:07.576Z</time></trkpt><trkpt lat="43.7225317" lon="12.223575"><ele>803.0</ele><time>2026-03-29T09:07:08.576Z</time></trkpt><trkpt lat="43.722485" lon="12.2234"><ele>803.0</ele><time>2026-03-29T09:07:09.576Z</time></trkpt><trkpt lat="43.7224267" lon="12.22323"><ele>803.0</ele><time>2026-03-29T09:07:10.576Z</time></trkpt><trkpt lat="43.7223367" lon="12.223085"><ele>803.0</ele><time>2026-03-29T09:07:11.576Z</time></trkpt><trkpt lat="43.7222267" lon="12.2229617"><ele>803.6666666666667</ele><time>2026-03-29T09:07:12.575Z</time></trkpt><trkpt lat="43.7220867" lon="12.2228717"><ele>804.3333333333333</ele><time>2026-03-29T09:07:13.576Z</time></trkpt><trkpt lat="43.7219333" lon="12.222815"><ele>805.0</ele><time>2026-03-29T09:07:14.576Z</time></trkpt><trkpt lat="43.7217767" lon="12.22278"><ele>803.6666666666666</ele><time>2026-03-29T09:07:15.576Z</time></trkpt><trkpt lat="43.7216133" lon="12.2227433"><ele>802.3333333333333</ele><time>2026-03-29T09:07:16.576Z</time></trkpt><trkpt lat="43.7214433" lon="12.2227083"><ele>801.0</ele><time>2026-03-29T09:07:17.575Z</time></trkpt><trkpt lat="43.721275" lon="12.222665"><ele>801.0</ele><time>2026-03-29T09:07:18.576Z</time></trkpt><trkpt lat="43.7211167" lon="12.2226167"><ele>801.0</ele><time>2026-03-29T09:07:19.575Z</time></trkpt><trkpt lat="43.7209683" lon="12.2225683"><ele>801.0</ele><time>2026-03-29T09:07:20.575Z</time></trkpt><trkpt lat="43.7208383" lon="12.2225267"><ele>801.0</ele><time>2026-03-29T09:07:21.575Z</time></trkpt><trkpt lat="43.720715" lon="12.22249"><ele>799.0</ele><time>2026-03-29T09:07:22.576Z</time></trkpt><trkpt lat="43.7205917" lon="12.22249"><ele>797.0</ele><time>2026-03-29T09:07:23.576Z</time></trkpt><trkpt lat="43.72046" lon="12.222535"><ele>795.0</ele><time>2026-03-29T09:07:24.576Z</time></trkpt><trkpt lat="43.7203233" lon="12.2226033"><ele>793.0</ele><time>2026-03-29T09:07:25.575Z</time></trkpt><trkpt lat="43.7202017" lon="12.2226983"><ele>791.4</ele><time>2026-03-29T09:07:26.576Z</time></trkpt><trkpt lat="43.7200917" lon="12.2227583"><ele>789.8</ele><time>2026-03-29T09:07:27.576Z</time></trkpt><trkpt lat="43.719985" lon="12.22279"><ele>788.2</ele><time>2026-03-29T09:07:28.576Z</time></trkpt><trkpt lat="43.7198917" lon="12.2227917"><ele>786.6</ele><time>2026-03-29T09:07:29.575Z</time></trkpt><trkpt lat="43.7198217" lon="12.2227517"><ele>785.0</ele><time>2026-03-29T09:07:30.576Z</time></trkpt><trkpt lat="43.7197767" lon="12.2226717"><ele>785.0</ele><time>2026-03-29T09:07:31.576Z</time></trkpt><trkpt lat="43.7197617" lon="12.2225617"><ele>785.0</ele><time>2026-03-29T09:07:32.576Z</time></trkpt><trkpt lat="43.71978" lon="12.2224517"><ele>785.0</ele><time>2026-03-29T09:07:33.576Z</time></trkpt><trkpt lat="43.7198383" lon="12.222335"><ele>785.0</ele><time>2026-03-29T09:07:34.576Z</time></trkpt><trkpt lat="43.7199317" lon="12.2222033"><ele>785.0</ele><time>2026-03-29T09:07:35.575Z</time></trkpt><trkpt lat="43.720075" lon="12.2220567"><ele>785.6666666666667</ele><time>2026-03-29T09:07:36.575Z</time></trkpt><trkpt lat="43.7202183" lon="12.2218933"><ele>786.3333333333333</ele><time>2026-03-29T09:07:37.575Z</time></trkpt><trkpt lat="43.7203383" lon="12.221745"><ele>787.0</ele><time>2026-03-29T09:07:38.575Z</time></trkpt><trkpt lat="43.7204633" lon="12.2216017"><ele>783.6666666666666</ele><time>2026-03-29T09:07:39.576Z</time></trkpt><trkpt lat="43.7205867" lon="12.22148"><ele>780.3333333333333</ele><time>2026-03-29T09:07:40.575Z</time></trkpt><trkpt lat="43.7207183" lon="12.2213667"><ele>777.0</ele><time>2026-03-29T09:07:41.576Z</time></trkpt><trkpt lat="43.72086" lon="12.2212833"><ele>777.0</ele><time>2026-03-29T09:07:42.576Z</time></trkpt><trkpt lat="43.721005" lon="12.2212167"><ele>777.0</ele><time>2026-03-29T09:07:43.576Z</time></trkpt><trkpt lat="43.721135" lon="12.2211533"><ele>777.0</ele><time>2026-03-29T09:07:44.575Z</time></trkpt><trkpt lat="43.7212517" lon="12.2210867"><ele>777.0</ele><time>2026-03-29T09:07:45.576Z</time></trkpt><trkpt lat="43.721355" lon="12.2209967"><ele>777.5</ele><time>2026-03-29T09:07:46.576Z</time></trkpt><trkpt lat="43.72143" lon="12.2208833"><ele>778.0</ele><time>2026-03-29T09:07:47.576Z</time></trkpt><trkpt lat="43.721485" lon="12.22075"><ele>778.5</ele><time>2026-03-29T09:07:48.575Z</time></trkpt><trkpt lat="43.721515" lon="12.2205933"><ele>779.0</ele><time>2026-03-29T09:07:49.576Z</time></trkpt><trkpt lat="43.7215183" lon="12.2204033"><ele>779.0</ele><time>2026-03-29T09:07:50.576Z</time></trkpt><trkpt lat="43.7214867" lon="12.22021"><ele>779.0</ele><time>2026-03-29T09:07:51.576Z</time></trkpt><trkpt lat="43.7214417" lon="12.2200433"><ele>779.0</ele><time>2026-03-29T09:07:52.576Z</time></trkpt><trkpt lat="43.72141" lon="12.2198833"><ele>779.0</ele><time>2026-03-29T09:07:53.575Z</time></trkpt><trkpt lat="43.7214067" lon="12.2197267"><ele>776.75</ele><time>2026-03-29T09:07:54.576Z</time></trkpt><trkpt lat="43.7214317" lon="12.2195567"><ele>774.5</ele><time>2026-03-29T09:07:55.576Z</time></trkpt><trkpt lat="43.7214933" lon="12.2193817"><ele>772.25</ele><time>2026-03-29T09:07:56.576Z</time></trkpt><trkpt lat="43.7215667" lon="12.219215"><ele>770.0</ele><time>2026-03-29T09:07:57.576Z</time></trkpt><trkpt lat="43.72165" lon="12.21907"><ele>769.75</ele><time>2026-03-29T09:07:58.576Z</time></trkpt><trkpt lat="43.7217317" lon="12.218965"><ele>769.5</ele><time>2026-03-29T09:07:59.575Z</time></trkpt><trkpt lat="43.721825" lon="12.2188983"><ele>769.25</ele><time>2026-03-29T09:08:00.575Z</time></trkpt><trkpt lat="43.72194" lon="12.2188867"><ele>769.0</ele><time>2026-03-29T09:08:01.575Z</time></trkpt><trkpt lat="43.7220583" lon="12.2189317"><ele>768.5</ele><time>2026-03-29T09:08:02.576Z</time></trkpt><trkpt lat="43.7221833" lon="12.2190367"><ele>768.0</ele><time>2026-03-29T09:08:03.576Z</time></trkpt><trkpt lat="43.7222967" lon="12.2191583"><ele>767.5</ele><time>2026-03-29T09:08:04.576Z</time></trkpt><trkpt lat="43.7224267" lon="12.219265"><ele>767.0</ele><time>2026-03-29T09:08:05.576Z</time></trkpt><trkpt lat="43.722565" lon="12.2193317"><ele>767.0</ele><time>2026-03-29T09:08:06.576Z</time></trkpt><trkpt lat="43.7227067" lon="12.2193683"><ele>767.0</ele><time>2026-03-29T09:08:07.576Z</time></trkpt><trkpt lat="43.722835" lon="12.2193817"><ele>767.0</ele><time>2026-03-29T09:08:08.576Z</time></trkpt><trkpt lat="43.7229533" lon="12.2193633"><ele>767.0</ele><time>2026-03-29T09:08:09.575Z</time></trkpt><trkpt lat="43.723085" lon="12.2192917"><ele>767.0</ele><time>2026-03-29T09:08:10.576Z</time></trkpt><trkpt lat="43.7232233" lon="12.2191783"><ele>767.0</ele><time>2026-03-29T09:08:11.576Z</time></trkpt><trkpt lat="43.7233483" lon="12.21904"><ele>767.0</ele><time>2026-03-29T09:08:12.575Z</time></trkpt><trkpt lat="43.7234533" lon="12.2189133"><ele>767.6666666666666</ele><time>2026-03-29T09:08:13.576Z</time></trkpt><trkpt lat="43.7235217" lon="12.2187583"><ele>768.3333333333333</ele><time>2026-03-29T09:08:14.576Z</time></trkpt><trkpt lat="43.7235683" lon="12.2185583"><ele>769.0</ele><time>2026-03-29T09:08:15.577Z</time></trkpt><trkpt lat="43.7235867" lon="12.2183017"><ele>767.6666666666666</ele><time>2026-03-29T09:08:16.577Z</time></trkpt><trkpt lat="43.7235917" lon="12.2180183"><ele>766.3333333333333</ele><time>2026-03-29T09:08:17.576Z</time></trkpt><trkpt lat="43.7235967" lon="12.2177717"><ele>765.0</ele><time>2026-03-29T09:08:18.576Z</time></trkpt><trkpt lat="43.72361" lon="12.2175167"><ele>762.0</ele><time>2026-03-29T09:08:19.577Z</time></trkpt><trkpt lat="43.7236383" lon="12.217275"><ele>759.0</ele><time>2026-03-29T09:08:20.577Z</time></trkpt><trkpt lat="43.72369" lon="12.2170383"><ele>756.0</ele><time>2026-03-29T09:08:21.577Z</time></trkpt><trkpt lat="43.72374" lon="12.2168217"><ele>756.0</ele><time>2026-03-29T09:08:22.576Z</time></trkpt><trkpt lat="43.72379" lon="12.2165967"><ele>756.0</ele><time>2026-03-29T09:08:23.577Z</time></trkpt><trkpt lat="43.7238483" lon="12.216395"><ele>756.0</ele><time>2026-03-29T09:08:24.577Z</time></trkpt><trkpt lat="43.7239233" lon="12.2162183"><ele>752.3333333333334</ele><time>2026-03-29T09:08:25.577Z</time></trkpt><trkpt lat="43.7240333" lon="12.2160667"><ele>748.6666666666667</ele><time>2026-03-29T09:08:26.577Z</time></trkpt><trkpt lat="43.7241633" lon="12.2159183"><ele>745.0</ele><time>2026-03-29T09:08:27.577Z</time></trkpt><trkpt lat="43.7242833" lon="12.215735"><ele>745.0</ele><time>2026-03-29T09:08:28.577Z</time></trkpt><trkpt lat="43.724385" lon="12.21552"><ele>745.0</ele><time>2026-03-29T09:08:29.576Z</time></trkpt><trkpt lat="43.72447" lon="12.2153283"><ele>745.0</ele><time>2026-03-29T09:08:30.577Z</time></trkpt><trkpt lat="43.7245433" lon="12.21513"><ele>745.0</ele><time>2026-03-29T09:08:31.577Z</time></trkpt><trkpt lat="43.724625" lon="12.2149433"><ele>745.0</ele><time>2026-03-29T09:08:32.576Z</time></trkpt><trkpt lat="43.7247433" lon="12.21479"><ele>745.0</ele><time>2026-03-29T09:08:33.576Z</time></trkpt><trkpt lat="43.724885" lon="12.2146383"><ele>743.0</ele><time>2026-03-29T09:08:34.577Z</time></trkpt><trkpt lat="43.7250483" lon="12.2144933"><ele>741.0</ele><time>2026-03-29T09:08:35.577Z</time></trkpt><trkpt lat="43.7252133" lon="12.214355"><ele>739.0</ele><time>2026-03-29T09:08:36.577Z</time></trkpt><trkpt lat="43.7253617" lon="12.2142233"><ele>739.0</ele><time>2026-03-29T09:08:37.577Z</time></trkpt><trkpt lat="43.72549" lon="12.2141033"><ele>739.0</ele><time>2026-03-29T09:08:38.577Z</time></trkpt><trkpt lat="43.7255917" lon="12.2139717"><ele>739.0</ele><time>2026-03-29T09:08:39.577Z</time></trkpt><trkpt lat="43.72566" lon="12.2138183"><ele>739.0</ele><time>2026-03-29T09:08:40.577Z</time></trkpt><trkpt lat="43.7256917" lon="12.21364"><ele>735.0</ele><time>2026-03-29T09:08:41.577Z</time></trkpt><trkpt lat="43.72567" lon="12.2134583"><ele>731.0</ele><time>2026-03-29T09:08:42.577Z</time></trkpt><trkpt lat="43.7256083" lon="12.2132667"><ele>727.0</ele><time>2026-03-29T09:08:43.576Z</time></trkpt><trkpt lat="43.7254833" lon="12.2130883"><ele>725.0</ele><time>2026-03-29T09:08:44.577Z</time></trkpt><trkpt lat="43.7253317" lon="12.2129133"><ele>723.0</ele><time>2026-03-29T09:08:45.577Z</time></trkpt><trkpt lat="43.7251533" lon="12.2127433"><ele>721.0</ele><time>2026-03-29T09:08:46.577Z</time></trkpt><trkpt lat="43.7249717" lon="12.2125817"><ele>720.6666666666667</ele><time>2026-03-29T09:08:47.577Z</time></trkpt><trkpt lat="43.724805" lon="12.2124417"><ele>720.3333333333334</ele><time>2026-03-29T09:08:48.576Z</time></trkpt><trkpt lat="43.72465" lon="12.2123067"><ele>720.0</ele><time>2026-03-29T09:08:49.576Z</time></trkpt><trkpt lat="43.7244983" lon="12.2121833"><ele>717.0</ele><time>2026-03-29T09:08:50.577Z</time></trkpt><trkpt lat="43.7243433" lon="12.212065"><ele>714.0</ele><time>2026-03-29T09:08:51.577Z</time></trkpt><trkpt lat="43.7241867" lon="12.2119483"><ele>711.0</ele><time>2026-03-29T09:08:52.577Z</time></trkpt><trkpt lat="43.7240417" lon="12.2118483"><ele>711.0</ele><time>2026-03-29T09:08:53.577Z</time></trkpt><trkpt lat="43.7239117" lon="12.2117667"><ele>711.0</ele><time>2026-03-29T09:08:54.576Z</time></trkpt><trkpt lat="43.7238017" lon="12.2116933"><ele>711.0</ele><time>2026-03-29T09:08:55.576Z</time></trkpt><trkpt lat="43.723685" lon="12.2116517"><ele>711.0</ele><time>2026-03-29T09:08:56.577Z</time></trkpt><trkpt lat="43.7235717" lon="12.21164"><ele>709.0</ele><time>2026-03-29T09:08:57.576Z</time></trkpt><trkpt lat="43.7234517" lon="12.2116833"><ele>707.0</ele><time>2026-03-29T09:08:58.576Z</time></trkpt><trkpt lat="43.7233333" lon="12.2117933"><ele>705.0</ele><time>2026-03-29T09:08:59.576Z</time></trkpt><trkpt lat="43.7232117" lon="12.21197"><ele>703.0</ele><time>2026-03-29T09:09:00.577Z</time></trkpt><trkpt lat="43.7230933" lon="12.2121667"><ele>707.6666666666667</ele><time>2026-03-29T09:09:01.576Z</time></trkpt><trkpt lat="43.7229883" lon="12.2123383"><ele>712.3333333333334</ele><time>2026-03-29T09:09:02.577Z</time></trkpt><trkpt lat="43.722885" lon="12.2125017"><ele>717.0</ele><time>2026-03-29T09:09:03.576Z</time></trkpt><trkpt lat="43.7227967" lon="12.2126883"><ele>712.75</ele><time>2026-03-29T09:09:04.576Z</time></trkpt><trkpt lat="43.7227283" lon="12.2128867"><ele>708.5</ele><time>2026-03-29T09:09:05.577Z</time></trkpt><trkpt lat="43.7226883" lon="12.21306"><ele>704.25</ele><time>2026-03-29T09:09:06.577Z</time></trkpt><trkpt lat="43.7226383" lon="12.2132"><ele>700.0</ele><time>2026-03-29T09:09:07.577Z</time></trkpt><trkpt lat="43.7225767" lon="12.2132883"><ele>700.0</ele><time>2026-03-29T09:09:08.577Z</time></trkpt><trkpt lat="43.722495" lon="12.2133517"><ele>700.0</ele><time>2026-03-29T09:09:09.576Z</time></trkpt><trkpt lat="43.7224017" lon="12.2133817"><ele>700.0</ele><time>2026-03-29T09:09:10.577Z</time></trkpt><trkpt lat="43.7222933" lon="12.2133633"><ele>700.0</ele><time>2026-03-29T09:09:11.576Z</time></trkpt><trkpt lat="43.722165" lon="12.213295"><ele>700.0</ele><time>2026-03-29T09:09:12.577Z</time></trkpt><trkpt lat="43.7220133" lon="12.213185"><ele>696.3333333333334</ele><time>2026-03-29T09:09:13.577Z</time></trkpt><trkpt lat="43.7218333" lon="12.213065"><ele>692.6666666666666</ele><time>2026-03-29T09:09:14.576Z</time></trkpt><trkpt lat="43.7216383" lon="12.2129283"><ele>689.0</ele><time>2026-03-29T09:09:15.577Z</time></trkpt><trkpt lat="43.7214433" lon="12.2127933"><ele>689.0</ele><time>2026-03-29T09:09:16.577Z</time></trkpt><trkpt lat="43.7212633" lon="12.21267"><ele>689.0</ele><time>2026-03-29T09:09:17.577Z</time></trkpt><trkpt lat="43.7211033" lon="12.21254"><ele>689.0</ele><time>2026-03-29T09:09:18.576Z</time></trkpt><trkpt lat="43.7209583" lon="12.2124117"><ele>686.0</ele><time>2026-03-29T09:09:19.576Z</time></trkpt><trkpt lat="43.7208467" lon="12.21225"><ele>683.0</ele><time>2026-03-29T09:09:20.577Z</time></trkpt><trkpt lat="43.72075" lon="12.2120567"><ele>680.0</ele><time>2026-03-29T09:09:21.577Z</time></trkpt><trkpt lat="43.72066" lon="12.2118233"><ele>680.0</ele><time>2026-03-29T09:09:22.577Z</time></trkpt><trkpt lat="43.7205833" lon="12.211615"><ele>680.0</ele><time>2026-03-29T09:09:23.577Z</time></trkpt><trkpt lat="43.7205083" lon="12.211425"><ele>680.0</ele><time>2026-03-29T09:09:24.576Z</time></trkpt><trkpt lat="43.7204383" lon="12.2112667"><ele>678.25</ele><time>2026-03-29T09:09:25.576Z</time></trkpt><trkpt lat="43.7203667" lon="12.2111417"><ele>676.5</ele><time>2026-03-29T09:09:26.577Z</time></trkpt><trkpt lat="43.720265" lon="12.2110667"><ele>674.75</ele><time>2026-03-29T09:09:27.576Z</time></trkpt><trkpt lat="43.7201367" lon="12.2110367"><ele>673.0</ele><time>2026-03-29T09:09:28.577Z</time></trkpt><trkpt lat="43.7199983" lon="12.211065"><ele>673.0</ele><time>2026-03-29T09:09:29.576Z</time></trkpt><trkpt lat="43.719875" lon="12.2111283"><ele>673.0</ele><time>2026-03-29T09:09:30.576Z</time></trkpt><trkpt lat="43.7197633" lon="12.2112117"><ele>673.0</ele><time>2026-03-29T09:09:31.576Z</time></trkpt><trkpt lat="43.719655" lon="12.2113367"><ele>673.0</ele><time>2026-03-29T09:09:32.577Z</time></trkpt><trkpt lat="43.7195533" lon="12.2115183"><ele>674.25</ele><time>2026-03-29T09:09:33.577Z</time></trkpt><trkpt lat="43.7194817" lon="12.211705"><ele>675.5</ele><time>2026-03-29T09:09:34.577Z</time></trkpt><trkpt lat="43.719405" lon="12.2118583"><ele>676.75</ele><time>2026-03-29T09:09:35.577Z</time></trkpt><trkpt lat="43.7193133" lon="12.2119767"><ele>678.0</ele><time>2026-03-29T09:09:36.577Z</time></trkpt><trkpt lat="43.7191967" lon="12.2120483"><ele>673.6666666666666</ele><time>2026-03-29T09:09:37.577Z</time></trkpt><trkpt lat="43.7190583" lon="12.212085"><ele>669.3333333333333</ele><time>2026-03-29T09:09:38.576Z</time></trkpt><trkpt lat="43.7189" lon="12.212095"><ele>665.0</ele><time>2026-03-29T09:09:39.577Z</time></trkpt><trkpt lat="43.718745" lon="12.212095"><ele>665.0</ele><time>2026-03-29T09:09:40.576Z</time></trkpt><trkpt lat="43.7185867" lon="12.212075"><ele>665.0</ele><time>2026-03-29T09:09:41.576Z</time></trkpt><trkpt lat="43.71842" lon="12.21202"><ele>665.0</ele><time>2026-03-29T09:09:42.577Z</time></trkpt><trkpt lat="43.718245" lon="12.2119333"><ele>662.6666666666666</ele><time>2026-03-29T09:09:43.577Z</time></trkpt><trkpt lat="43.7180667" lon="12.211835"><ele>660.3333333333334</ele><time>2026-03-29T09:09:44.576Z</time></trkpt><trkpt lat="43.7179017" lon="12.2117383"><ele>658.0</ele><time>2026-03-29T09:09:45.576Z</time></trkpt><trkpt lat="43.7177533" lon="12.21166"><ele>657.5</ele><time>2026-03-29T09:09:46.576Z</time></trkpt><trkpt lat="43.7176233" lon="12.211595"><ele>657.0</ele><time>2026-03-29T09:09:47.577Z</time></trkpt><trkpt lat="43.7175067" lon="12.2115617"><ele>656.5</ele><time>2026-03-29T09:09:48.577Z</time></trkpt><trkpt lat="43.7173917" lon="12.2115667"><ele>656.0</ele><time>2026-03-29T09:09:49.577Z</time></trkpt><trkpt lat="43.7172833" lon="12.2116283"><ele>656.0</ele><time>2026-03-29T09:09:50.577Z</time></trkpt><trkpt lat="43.7172" lon="12.21175"><ele>656.0</ele><time>2026-03-29T09:09:51.576Z</time></trkpt><trkpt lat="43.7171383" lon="12.21193"><ele>656.0</ele><time>2026-03-29T09:09:52.577Z</time></trkpt><trkpt lat="43.71711" lon="12.21216"><ele>656.0</ele><time>2026-03-29T09:09:53.576Z</time></trkpt><trkpt lat="43.717075" lon="12.212385"><ele>654.5</ele><time>2026-03-29T09:09:54.577Z</time></trkpt><trkpt lat="43.7170417" lon="12.2125767"><ele>653.0</ele><time>2026-03-29T09:09:55.577Z</time></trkpt><trkpt lat="43.717005" lon="12.212735"><ele>651.5</ele><time>2026-03-29T09:09:56.576Z</time></trkpt><trkpt lat="43.7169483" lon="12.212865"><ele>650.0</ele><time>2026-03-29T09:09:57.577Z</time></trkpt><trkpt lat="43.7168633" lon="12.2129517"><ele>650.0</ele><time>2026-03-29T09:09:58.577Z</time></trkpt><trkpt lat="43.71676" lon="12.2129983"><ele>650.0</ele><time>2026-03-29T09:09:59.576Z</time></trkpt><trkpt lat="43.7166383" lon="12.2130067"><ele>650.0</ele><time>2026-03-29T09:10:00.576Z</time></trkpt><trkpt lat="43.7165133" lon="12.2129717"><ele>650.0</ele><time>2026-03-29T09:10:01.577Z</time></trkpt><trkpt lat="43.7163883" lon="12.2128733"><ele>650.0</ele><time>2026-03-29T09:10:02.576Z</time></trkpt><trkpt lat="43.716275" lon="12.2127117"><ele>650.0</ele><time>2026-03-29T09:10:03.577Z</time></trkpt><trkpt lat="43.7161533" lon="12.212535"><ele>650.0</ele><time>2026-03-29T09:10:04.577Z</time></trkpt><trkpt lat="43.716035" lon="12.21239"><ele>646.25</ele><time>2026-03-29T09:10:05.577Z</time></trkpt><trkpt lat="43.7159117" lon="12.2122717"><ele>642.5</ele><time>2026-03-29T09:10:06.577Z</time></trkpt><trkpt lat="43.7157817" lon="12.2121933"><ele>638.75</ele><time>2026-03-29T09:10:07.576Z</time></trkpt><trkpt lat="43.71563" lon="12.2121633"><ele>635.0</ele><time>2026-03-29T09:10:08.576Z</time></trkpt><trkpt lat="43.7154767" lon="12.2121533"><ele>635.0</ele><time>2026-03-29T09:10:09.577Z</time></trkpt><trkpt lat="43.7153183" lon="12.2121433"><ele>635.0</ele><time>2026-03-29T09:10:10.577Z</time></trkpt><trkpt lat="43.7151633" lon="12.2120833"><ele>635.0</ele><time>2026-03-29T09:10:11.577Z</time></trkpt><trkpt lat="43.7150067" lon="12.2119683"><ele>635.0</ele><time>2026-03-29T09:10:12.577Z</time></trkpt><trkpt lat="43.7148333" lon="12.2118167"><ele>635.0</ele><time>2026-03-29T09:10:13.577Z</time></trkpt><trkpt lat="43.7146633" lon="12.2116483"><ele>635.0</ele><time>2026-03-29T09:10:14.577Z</time></trkpt><trkpt lat="43.7145017" lon="12.21149"><ele>633.3333333333333</ele><time>2026-03-29T09:10:15.576Z</time></trkpt><trkpt lat="43.714345" lon="12.21134"><ele>631.6666666666666</ele><time>2026-03-29T09:10:16.576Z</time></trkpt><trkpt lat="43.7142017" lon="12.2111967"><ele>630.0</ele><time>2026-03-29T09:10:17.576Z</time></trkpt><trkpt lat="43.714065" lon="12.2110533"><ele>630.0</ele><time>2026-03-29T09:10:18.577Z</time></trkpt><trkpt lat="43.7139383" lon="12.2108617"><ele>630.0</ele><time>2026-03-29T09:10:19.577Z</time></trkpt><trkpt lat="43.7138417" lon="12.2106317"><ele>630.0</ele><time>2026-03-29T09:10:20.577Z</time></trkpt><trkpt lat="43.7137617" lon="12.2103783"><ele>627.0</ele><time>2026-03-29T09:10:21.576Z</time></trkpt><trkpt lat="43.7136917" lon="12.2101233"><ele>624.0</ele><time>2026-03-29T09:10:22.577Z</time></trkpt><trkpt lat="43.7136283" lon="12.209895"><ele>621.0</ele><time>2026-03-29T09:10:23.577Z</time></trkpt><trkpt lat="43.7135617" lon="12.2096883"><ele>621.0</ele><time>2026-03-29T09:10:24.576Z</time></trkpt><trkpt lat="43.713475" lon="12.2094817"><ele>621.0</ele><time>2026-03-29T09:10:25.577Z</time></trkpt><trkpt lat="43.7133517" lon="12.2092833"><ele>621.0</ele><time>2026-03-29T09:10:26.576Z</time></trkpt><trkpt lat="43.713195" lon="12.2090717"><ele>615.6666666666666</ele><time>2026-03-29T09:10:27.577Z</time></trkpt><trkpt lat="43.7130417" lon="12.2088633"><ele>610.3333333333333</ele><time>2026-03-29T09:10:28.576Z</time></trkpt><trkpt lat="43.7128917" lon="12.2086633"><ele>605.0</ele><time>2026-03-29T09:10:29.577Z</time></trkpt><trkpt lat="43.71275" lon="12.2084717"><ele>604.5</ele><time>2026-03-29T09:10:30.577Z</time></trkpt><trkpt lat="43.712635" lon="12.2082983"><ele>604.0</ele><time>2026-03-29T09:10:31.577Z</time></trkpt><trkpt lat="43.7125333" lon="12.2081517"><ele>603.5</ele><time>2026-03-29T09:10:32.576Z</time></trkpt><trkpt lat="43.7124283" lon="12.20805"><ele>603.0</ele><time>2026-03-29T09:10:33.577Z</time></trkpt><trkpt lat="43.7123217" lon="12.2080017"><ele>603.0</ele><time>2026-03-29T09:10:34.576Z</time></trkpt><trkpt lat="43.71221" lon="12.2080283"><ele>603.0</ele><time>2026-03-29T09:10:35.577Z</time></trkpt><trkpt lat="43.7121067" lon="12.2081333"><ele>603.0</ele><time>2026-03-29T09:10:36.577Z</time></trkpt><trkpt lat="43.7120167" lon="12.2083083"><ele>603.0</ele><time>2026-03-29T09:10:37.577Z</time></trkpt><trkpt lat="43.7119483" lon="12.2085517"><ele>603.3333333333334</ele><time>2026-03-29T09:10:38.576Z</time></trkpt><trkpt lat="43.7118733" lon="12.2088033"><ele>603.6666666666667</ele><time>2026-03-29T09:10:39.577Z</time></trkpt><trkpt lat="43.7118033" lon="12.2090233"><ele>604.0</ele><time>2026-03-29T09:10:40.577Z</time></trkpt><trkpt lat="43.7117333" lon="12.2092333"><ele>605.0</ele><time>2026-03-29T09:10:41.576Z</time></trkpt><trkpt lat="43.7116617" lon="12.20942"><ele>606.0</ele><time>2026-03-29T09:10:42.576Z</time></trkpt><trkpt lat="43.7115817" lon="12.20957"><ele>607.0</ele><time>2026-03-29T09:10:43.577Z</time></trkpt><trkpt lat="43.711475" lon="12.2096733"><ele>608.0</ele><time>2026-03-29T09:10:44.577Z</time></trkpt><trkpt lat="43.7113317" lon="12.2097333"><ele>608.0</ele><time>2026-03-29T09:10:45.577Z</time></trkpt><trkpt lat="43.7111633" lon="12.209735"><ele>608.0</ele><time>2026-03-29T09:10:46.577Z</time></trkpt><trkpt lat="43.7109767" lon="12.2097133"><ele>608.0</ele><time>2026-03-29T09:10:47.577Z</time></trkpt><trkpt lat="43.7107983" lon="12.2097033"><ele>604.3333333333333</ele><time>2026-03-29T09:10:48.576Z</time></trkpt><trkpt lat="43.710625" lon="12.2097117"><ele>600.6666666666666</ele><time>2026-03-29T09:10:49.577Z</time></trkpt><trkpt lat="43.7104467" lon="12.209715"><ele>597.0</ele><time>2026-03-29T09:10:50.577Z</time></trkpt><trkpt lat="43.7102583" lon="12.2096733"><ele>596.3333333333334</ele><time>2026-03-29T09:10:51.577Z</time></trkpt><trkpt lat="43.7100567" lon="12.2096117"><ele>595.6666666666667</ele><time>2026-03-29T09:10:52.577Z</time></trkpt><trkpt lat="43.7098633" lon="12.209535"><ele>595.0</ele><time>2026-03-29T09:10:53.576Z</time></trkpt><trkpt lat="43.7096817" lon="12.2094733"><ele>595.0</ele><time>2026-03-29T09:10:54.577Z</time></trkpt><trkpt lat="43.70951" lon="12.209405"><ele>595.0</ele><time>2026-03-29T09:10:55.577Z</time></trkpt><trkpt lat="43.7093467" lon="12.2093433"><ele>595.0</ele><time>2026-03-29T09:10:56.576Z</time></trkpt><trkpt lat="43.709205" lon="12.2092817"><ele>594.0</ele><time>2026-03-29T09:10:57.577Z</time></trkpt><trkpt lat="43.7090867" lon="12.2092283"><ele>593.0</ele><time>2026-03-29T09:10:58.577Z</time></trkpt><trkpt lat="43.70899" lon="12.209155"><ele>592.0</ele><time>2026-03-29T09:10:59.577Z</time></trkpt><trkpt lat="43.7089217" lon="12.2090583"><ele>591.0</ele><time>2026-03-29T09:11:00.577Z</time></trkpt><trkpt lat="43.70889" lon="12.2089283"><ele>590.0</ele><time>2026-03-29T09:11:01.577Z</time></trkpt><trkpt lat="43.7089017" lon="12.2087867"><ele>588.25</ele><time>2026-03-29T09:11:02.577Z</time></trkpt><trkpt lat="43.7089517" lon="12.208635"><ele>586.5</ele><time>2026-03-29T09:11:03.576Z</time></trkpt><trkpt lat="43.709045" lon="12.2084833"><ele>584.75</ele><time>2026-03-29T09:11:04.577Z</time></trkpt><trkpt lat="43.7091617" lon="12.2083133"><ele>583.0</ele><time>2026-03-29T09:11:05.577Z</time></trkpt><trkpt lat="43.7093017" lon="12.2081233"><ele>582.6666666666667</ele><time>2026-03-29T09:11:06.577Z</time></trkpt><trkpt lat="43.70943" lon="12.2079017"><ele>582.3333333333334</ele><time>2026-03-29T09:11:07.577Z</time></trkpt><trkpt lat="43.709555" lon="12.2076967"><ele>582.0</ele><time>2026-03-29T09:11:08.576Z</time></trkpt><trkpt lat="43.7096783" lon="12.2075233"><ele>582.0</ele><time>2026-03-29T09:11:09.577Z</time></trkpt><trkpt lat="43.7097883" lon="12.2073717"><ele>582.0</ele><time>2026-03-29T09:11:10.577Z</time></trkpt><trkpt lat="43.709885" lon="12.2072033"><ele>582.0</ele><time>2026-03-29T09:11:11.576Z</time></trkpt><trkpt lat="43.7099667" lon="12.206995"><ele>580.0</ele><time>2026-03-29T09:11:12.576Z</time></trkpt><trkpt lat="43.71004" lon="12.2067767"><ele>578.0</ele><time>2026-03-29T09:11:13.577Z</time></trkpt><trkpt lat="43.7101017" lon="12.2065517"><ele>576.0</ele><time>2026-03-29T09:11:14.576Z</time></trkpt><trkpt lat="43.7101667" lon="12.2063633"><ele>574.4</ele><time>2026-03-29T09:11:15.577Z</time></trkpt><trkpt lat="43.710225" lon="12.206205"><ele>572.8</ele><time>2026-03-29T09:11:16.577Z</time></trkpt><trkpt lat="43.710285" lon="12.2060833"><ele>571.1999999999999</ele><time>2026-03-29T09:11:17.577Z</time></trkpt><trkpt lat="43.710355" lon="12.206"><ele>569.6</ele><time>2026-03-29T09:11:18.576Z</time></trkpt><trkpt lat="43.71045" lon="12.2059683"><ele>568.0</ele><time>2026-03-29T09:11:19.577Z</time></trkpt><trkpt lat="43.7105783" lon="12.20597"><ele>568.0</ele><time>2026-03-29T09:11:20.576Z</time></trkpt><trkpt lat="43.7107183" lon="12.205995"><ele>568.0</ele><time>2026-03-29T09:11:21.577Z</time></trkpt><trkpt lat="43.7108533" lon="12.2059733"><ele>568.0</ele><time>2026-03-29T09:11:22.577Z</time></trkpt><trkpt lat="43.7109933" lon="12.2058983"><ele>568.0</ele><time>2026-03-29T09:11:23.577Z</time></trkpt><trkpt lat="43.7111217" lon="12.2057633"><ele>566.75</ele><time>2026-03-29T09:11:24.576Z</time></trkpt><trkpt lat="43.7112383" lon="12.2056167"><ele>565.5</ele><time>2026-03-29T09:11:25.577Z</time></trkpt><trkpt lat="43.7113317" lon="12.2054867"><ele>564.25</ele><time>2026-03-29T09:11:26.577Z</time></trkpt><trkpt lat="43.7114" lon="12.205335"><ele>563.0</ele><time>2026-03-29T09:11:27.577Z</time></trkpt><trkpt lat="43.711445" lon="12.205135"><ele>563.0</ele><time>2026-03-29T09:11:28.576Z</time></trkpt><trkpt lat="43.7114767" lon="12.2049"><ele>563.0</ele><time>2026-03-29T09:11:29.577Z</time></trkpt><trkpt lat="43.7115067" lon="12.20462"><ele>563.0</ele><time>2026-03-29T09:11:30.577Z</time></trkpt><trkpt lat="43.7115267" lon="12.2043483"><ele>560.6666666666666</ele><time>2026-03-29T09:11:31.577Z</time></trkpt><trkpt lat="43.7115367" lon="12.2040833"><ele>558.3333333333334</ele><time>2026-03-29T09:11:32.576Z</time></trkpt><trkpt lat="43.71156" lon="12.2038383"><ele>556.0</ele><time>2026-03-29T09:11:33.576Z</time></trkpt><trkpt lat="43.711585" lon="12.203625"><ele>555.0</ele><time>2026-03-29T09:11:34.576Z</time></trkpt><trkpt lat="43.71162" lon="12.2034667"><ele>554.0</ele><time>2026-03-29T09:11:35.576Z</time></trkpt><trkpt lat="43.71168" lon="12.2033067"><ele>553.0</ele><time>2026-03-29T09:11:36.576Z</time></trkpt><trkpt lat="43.7117583" lon="12.2031417"><ele>552.0</ele><time>2026-03-29T09:11:37.576Z</time></trkpt><trkpt lat="43.7118417" lon="12.2029767"><ele>550.75</ele><time>2026-03-29T09:11:38.577Z</time></trkpt><trkpt lat="43.711925" lon="12.202835"><ele>549.5</ele><time>2026-03-29T09:11:39.577Z</time></trkpt><trkpt lat="43.7120167" lon="12.20272"><ele>548.25</ele><time>2026-03-29T09:11:40.577Z</time></trkpt><trkpt lat="43.7121283" lon="12.202615"><ele>547.0</ele><time>2026-03-29T09:11:41.577Z</time></trkpt><trkpt lat="43.7122533" lon="12.2025333"><ele>547.0</ele><time>2026-03-29T09:11:42.577Z</time></trkpt><trkpt lat="43.7123933" lon="12.2025133"><ele>547.0</ele><time>2026-03-29T09:11:43.577Z</time></trkpt><trkpt lat="43.7125317" lon="12.20253"><ele>547.0</ele><time>2026-03-29T09:11:44.577Z</time></trkpt><trkpt lat="43.7127867" lon="12.20276"><ele>547.75</ele><time>2026-03-29T09:11:45.882Z</time></trkpt><trkpt lat="43.7128067" lon="12.2026717"><ele>548.5</ele><time>2026-03-29T09:11:47.08Z</time></trkpt><trkpt lat="43.71285" lon="12.20243"><ele>549.25</ele><time>2026-03-29T09:11:48.073Z</time></trkpt><trkpt lat="43.7129533" lon="12.202385"><ele>550.0</ele><time>2026-03-29T09:11:49.073Z</time></trkpt><trkpt lat="43.7130767" lon="12.2022817"><ele>550.0</ele><time>2026-03-29T09:11:51.573Z</time></trkpt><trkpt lat="43.71297" lon="12.202035"><ele>550.0</ele><time>2026-03-29T09:11:52.572Z</time></trkpt><trkpt lat="43.7128567" lon="12.20184"><ele>550.0</ele><time>2026-03-29T09:11:53.573Z</time></trkpt><trkpt lat="43.71274" lon="12.2017083"><ele>548.3333333333334</ele><time>2026-03-29T09:11:54.572Z</time></trkpt><trkpt lat="43.7125717" lon="12.201615"><ele>546.6666666666666</ele><time>2026-03-29T09:11:55.573Z</time></trkpt><trkpt lat="43.7124083" lon="12.2015067"><ele>545.0</ele><time>2026-03-29T09:11:56.573Z</time></trkpt><trkpt lat="43.7123067" lon="12.20139"><ele>545.0</ele><time>2026-03-29T09:11:57.573Z</time></trkpt><trkpt lat="43.7122433" lon="12.2012717"><ele>545.0</ele><time>2026-03-29T09:11:58.573Z</time></trkpt><trkpt lat="43.712235" lon="12.201125"><ele>545.0</ele><time>2026-03-29T09:11:59.573Z</time></trkpt><trkpt lat="43.71227" lon="12.2009433"><ele>545.0</ele><time>2026-03-29T09:12:00.573Z</time></trkpt><trkpt lat="43.7123333" lon="12.2007533"><ele>543.5</ele><time>2026-03-29T09:12:01.572Z</time></trkpt><trkpt lat="43.7124033" lon="12.2005833"><ele>542.0</ele><time>2026-03-29T09:12:02.573Z</time></trkpt><trkpt lat="43.7124617" lon="12.2004183"><ele>540.5</ele><time>2026-03-29T09:12:03.573Z</time></trkpt><trkpt lat="43.712505" lon="12.2002867"><ele>539.0</ele><time>2026-03-29T09:12:04.572Z</time></trkpt><trkpt lat="43.71255" lon="12.2001967"><ele>539.0</ele><time>2026-03-29T09:12:05.573Z</time></trkpt><trkpt lat="43.7126033" lon="12.2001183"><ele>539.0</ele><time>2026-03-29T09:12:06.572Z</time></trkpt><trkpt lat="43.7126783" lon="12.2000583"><ele>539.0</ele><time>2026-03-29T09:12:07.573Z</time></trkpt><trkpt lat="43.712775" lon="12.2000233"><ele>539.0</ele><time>2026-03-29T09:12:08.573Z</time></trkpt><trkpt lat="43.7129783" lon="12.1999683"><ele>539.75</ele><time>2026-03-29T09:12:10.572Z</time></trkpt><trkpt lat="43.7130833" lon="12.1999283"><ele>540.5</ele><time>2026-03-29T09:12:11.572Z</time></trkpt><trkpt lat="43.7131783" lon="12.1998133"><ele>541.25</ele><time>2026-03-29T09:12:12.572Z</time></trkpt><trkpt lat="43.71327" lon="12.1996467"><ele>542.0</ele><time>2026-03-29T09:12:13.573Z</time></trkpt><trkpt lat="43.7133733" lon="12.1994567"><ele>542.0</ele><time>2026-03-29T09:12:14.573Z</time></trkpt><trkpt lat="43.7135017" lon="12.1992467"><ele>542.0</ele><time>2026-03-29T09:12:15.573Z</time></trkpt><trkpt lat="43.713625" lon="12.19905"><ele>542.0</ele><time>2026-03-29T09:12:16.573Z</time></trkpt><trkpt lat="43.713735" lon="12.19887"><ele>543.0</ele><time>2026-03-29T09:12:17.572Z</time></trkpt><trkpt lat="43.7138383" lon="12.198705"><ele>544.0</ele><time>2026-03-29T09:12:18.573Z</time></trkpt><trkpt lat="43.7139333" lon="12.198545"><ele>545.0</ele><time>2026-03-29T09:12:19.573Z</time></trkpt><trkpt lat="43.7140283" lon="12.1984033"><ele>546.0</ele><time>2026-03-29T09:12:20.573Z</time></trkpt><trkpt lat="43.71413" lon="12.1982667"><ele>546.3333333333334</ele><time>2026-03-29T09:12:21.572Z</time></trkpt><trkpt lat="43.7142333" lon="12.19813"><ele>546.6666666666667</ele><time>2026-03-29T09:12:22.573Z</time></trkpt><trkpt lat="43.7143783" lon="12.1979683"><ele>547.0</ele><time>2026-03-29T09:12:23.572Z</time></trkpt><trkpt lat="43.7145283" lon="12.19782"><ele>547.0</ele><time>2026-03-29T09:12:24.573Z</time></trkpt><trkpt lat="43.7146983" lon="12.1976733"><ele>547.0</ele><time>2026-03-29T09:12:25.573Z</time></trkpt><trkpt lat="43.71489" lon="12.1975117"><ele>547.0</ele><time>2026-03-29T09:12:26.573Z</time></trkpt><trkpt lat="43.71508" lon="12.1973583"><ele>548.0</ele><time>2026-03-29T09:12:27.573Z</time></trkpt><trkpt lat="43.715255" lon="12.19721"><ele>549.0</ele><time>2026-03-29T09:12:28.572Z</time></trkpt><trkpt lat="43.7154167" lon="12.1970733"><ele>550.0</ele><time>2026-03-29T09:12:29.572Z</time></trkpt><trkpt lat="43.715565" lon="12.1969583"><ele>550.0</ele><time>2026-03-29T09:12:30.573Z</time></trkpt><trkpt lat="43.7157083" lon="12.196875"><ele>550.0</ele><time>2026-03-29T09:12:31.573Z</time></trkpt><trkpt lat="43.715855" lon="12.196825"><ele>550.0</ele><time>2026-03-29T09:12:32.572Z</time></trkpt><trkpt lat="43.7160017" lon="12.1968217"><ele>550.6</ele><time>2026-03-29T09:12:33.573Z</time></trkpt><trkpt lat="43.7161283" lon="12.1968217"><ele>551.2</ele><time>2026-03-29T09:12:34.573Z</time></trkpt><trkpt lat="43.716235" lon="12.1968033"><ele>551.8</ele><time>2026-03-29T09:12:35.572Z</time></trkpt><trkpt lat="43.7163233" lon="12.1967517"><ele>552.4</ele><time>2026-03-29T09:12:36.573Z</time></trkpt><trkpt lat="43.7163783" lon="12.196635"><ele>553.0</ele><time>2026-03-29T09:12:37.572Z</time></trkpt><trkpt lat="43.7164017" lon="12.1964983"><ele>553.0</ele><time>2026-03-29T09:12:38.573Z</time></trkpt><trkpt lat="43.71642" lon="12.1963717"><ele>553.0</ele><time>2026-03-29T09:12:39.573Z</time></trkpt><trkpt lat="43.71644" lon="12.19628"><ele>553.0</ele><time>2026-03-29T09:12:40.573Z</time></trkpt><trkpt lat="43.7165033" lon="12.1961617"><ele>553.0</ele><time>2026-03-29T09:12:42.572Z</time></trkpt><trkpt lat="43.7165567" lon="12.1961117"><ele>553.0</ele><time>2026-03-29T09:12:43.572Z</time></trkpt><trkpt lat="43.7166333" lon="12.1960633"><ele>553.0</ele><time>2026-03-29T09:12:44.573Z</time></trkpt><trkpt lat="43.7167183" lon="12.1960167"><ele>553.0</ele><time>2026-03-29T09:12:45.573Z</time></trkpt><trkpt lat="43.71681" lon="12.1959833"><ele>553.0</ele><time>2026-03-29T09:12:46.573Z</time></trkpt><trkpt lat="43.7169033" lon="12.19596"><ele>553.0</ele><time>2026-03-29T09:12:47.572Z</time></trkpt><trkpt lat="43.7169983" lon="12.19593"><ele>553.0</ele><time>2026-03-29T09:12:48.573Z</time></trkpt><trkpt lat="43.7170933" lon="12.1958933"><ele>553.0</ele><time>2026-03-29T09:12:49.573Z</time></trkpt><trkpt lat="43.717185" lon="12.1958467"><ele>553.0</ele><time>2026-03-29T09:12:50.573Z</time></trkpt><trkpt lat="43.717275" lon="12.19581"><ele>553.0</ele><time>2026-03-29T09:12:51.573Z</time></trkpt><trkpt lat="43.7173683" lon="12.1957633"><ele>553.0</ele><time>2026-03-29T09:12:52.573Z</time></trkpt><trkpt lat="43.71747" lon="12.1957067"><ele>553.0</ele><time>2026-03-29T09:12:53.573Z</time></trkpt><trkpt lat="43.7175833" lon="12.195655"><ele>553.0</ele><time>2026-03-29T09:12:54.573Z</time></trkpt><trkpt lat="43.71772" lon="12.1955967"><ele>553.3333333333334</ele><time>2026-03-29T09:12:55.572Z</time></trkpt><trkpt lat="43.7178667" lon="12.19554"><ele>553.6666666666666</ele><time>2026-03-29T09:12:56.573Z</time></trkpt><trkpt lat="43.7180333" lon="12.1954783"><ele>554.0</ele><time>2026-03-29T09:12:57.573Z</time></trkpt><trkpt lat="43.7182217" lon="12.1954067"><ele>554.0</ele><time>2026-03-29T09:12:58.573Z</time></trkpt><trkpt lat="43.7184233" lon="12.1953333"><ele>554.0</ele><time>2026-03-29T09:12:59.573Z</time></trkpt><trkpt lat="43.7186417" lon="12.1952433"><ele>554.0</ele><time>2026-03-29T09:13:00.572Z</time></trkpt><trkpt lat="43.71886" lon="12.1951583"><ele>555.6666666666666</ele><time>2026-03-29T09:13:01.573Z</time></trkpt><trkpt lat="43.7190733" lon="12.1950683"><ele>557.3333333333334</ele><time>2026-03-29T09:13:02.573Z</time></trkpt><trkpt lat="43.7192733" lon="12.1949883"><ele>559.0</ele><time>2026-03-29T09:13:03.573Z</time></trkpt><trkpt lat="43.719465" lon="12.19491"><ele>560.3333333333334</ele><time>2026-03-29T09:13:04.573Z</time></trkpt><trkpt lat="43.7196583" lon="12.1948433"><ele>561.6666666666666</ele><time>2026-03-29T09:13:05.572Z</time></trkpt><trkpt lat="43.7198383" lon="12.1947467"><ele>563.0</ele><time>2026-03-29T09:13:06.573Z</time></trkpt><trkpt lat="43.720015" lon="12.1946333"><ele>561.0</ele><time>2026-03-29T09:13:07.573Z</time></trkpt><trkpt lat="43.7201917" lon="12.19452"><ele>559.0</ele><time>2026-03-29T09:13:08.573Z</time></trkpt><trkpt lat="43.7203633" lon="12.19441"><ele>557.0</ele><time>2026-03-29T09:13:09.572Z</time></trkpt><trkpt lat="43.7205233" lon="12.1942933"><ele>557.0</ele><time>2026-03-29T09:13:10.572Z</time></trkpt><trkpt lat="43.72069" lon="12.1942017"><ele>557.0</ele><time>2026-03-29T09:13:11.572Z</time></trkpt><trkpt lat="43.720865" lon="12.194145"><ele>557.0</ele><time>2026-03-29T09:13:12.573Z</time></trkpt><trkpt lat="43.7210483" lon="12.1941117"><ele>556.3333333333333</ele><time>2026-03-29T09:13:13.573Z</time></trkpt><trkpt lat="43.721245" lon="12.194105"><ele>555.6666666666666</ele><time>2026-03-29T09:13:14.573Z</time></trkpt><trkpt lat="43.7214417" lon="12.19409"><ele>555.0</ele><time>2026-03-29T09:13:15.573Z</time></trkpt><trkpt lat="43.7216167" lon="12.194075"><ele>555.0</ele><time>2026-03-29T09:13:16.572Z</time></trkpt><trkpt lat="43.7217833" lon="12.1940767"><ele>555.0</ele><time>2026-03-29T09:13:17.573Z</time></trkpt><trkpt lat="43.72193" lon="12.1940667"><ele>555.0</ele><time>2026-03-29T09:13:18.573Z</time></trkpt><trkpt lat="43.7220567" lon="12.1940683"><ele>555.0</ele><time>2026-03-29T09:13:19.573Z</time></trkpt><trkpt lat="43.7221867" lon="12.194115"><ele>553.3333333333334</ele><time>2026-03-29T09:13:20.573Z</time></trkpt><trkpt lat="43.72232" lon="12.19421"><ele>551.6666666666667</ele><time>2026-03-29T09:13:21.572Z</time></trkpt><trkpt lat="43.7224417" lon="12.194365"><ele>550.0</ele><time>2026-03-29T09:13:22.573Z</time></trkpt><trkpt lat="43.7225517" lon="12.1945183"><ele>550.0</ele><time>2026-03-29T09:13:23.572Z</time></trkpt><trkpt lat="43.7226733" lon="12.1946583"><ele>550.0</ele><time>2026-03-29T09:13:24.572Z</time></trkpt><trkpt lat="43.722835" lon="12.1947633"><ele>550.0</ele><time>2026-03-29T09:13:25.573Z</time></trkpt><trkpt lat="43.7230333" lon="12.1948383"><ele>549.6666666666667</ele><time>2026-03-29T09:13:26.573Z</time></trkpt><trkpt lat="43.723235" lon="12.1949017"><ele>549.3333333333334</ele><time>2026-03-29T09:13:27.573Z</time></trkpt><trkpt lat="43.7234283" lon="12.19496"><ele>549.0</ele><time>2026-03-29T09:13:28.573Z</time></trkpt><trkpt lat="43.7236367" lon="12.1949717"><ele>552.0</ele><time>2026-03-29T09:13:29.573Z</time></trkpt><trkpt lat="43.72386" lon="12.1949333"><ele>555.0</ele><time>2026-03-29T09:13:30.573Z</time></trkpt><trkpt lat="43.7240633" lon="12.194865"><ele>558.0</ele><time>2026-03-29T09:13:31.573Z</time></trkpt><trkpt lat="43.7242417" lon="12.1947967"><ele>557.0</ele><time>2026-03-29T09:13:32.573Z</time></trkpt><trkpt lat="43.7244033" lon="12.1947183"><ele>556.0</ele><time>2026-03-29T09:13:33.572Z</time></trkpt><trkpt lat="43.72455" lon="12.1946083"><ele>555.0</ele><time>2026-03-29T09:13:34.573Z</time></trkpt><trkpt lat="43.7246767" lon="12.194455"><ele>555.0</ele><time>2026-03-29T09:13:35.573Z</time></trkpt><trkpt lat="43.72477" lon="12.19428"><ele>555.0</ele><time>2026-03-29T09:13:36.572Z</time></trkpt><trkpt lat="43.724845" lon="12.1941233"><ele>555.0</ele><time>2026-03-29T09:13:37.573Z</time></trkpt><trkpt lat="43.7249233" lon="12.1939983"><ele>555.0</ele><time>2026-03-29T09:13:38.572Z</time></trkpt><trkpt lat="43.7250167" lon="12.1939383"><ele>555.0</ele><time>2026-03-29T09:13:39.572Z</time></trkpt><trkpt lat="43.7251217" lon="12.1939333"><ele>555.0</ele><time>2026-03-29T09:13:40.572Z</time></trkpt><trkpt lat="43.7252267" lon="12.1940233"><ele>555.0</ele><time>2026-03-29T09:13:41.573Z</time></trkpt><trkpt lat="43.7253233" lon="12.1941783"><ele>555.0</ele><time>2026-03-29T09:13:42.573Z</time></trkpt><trkpt lat="43.7254167" lon="12.194385"><ele>556.6666666666666</ele><time>2026-03-29T09:13:43.573Z</time></trkpt><trkpt lat="43.7255217" lon="12.1946083"><ele>558.3333333333333</ele><time>2026-03-29T09:13:44.573Z</time></trkpt><trkpt lat="43.725625" lon="12.1948233"><ele>560.0</ele><time>2026-03-29T09:13:45.573Z</time></trkpt><trkpt lat="43.725745" lon="12.1950067"><ele>562.6666666666666</ele><time>2026-03-29T09:13:46.573Z</time></trkpt><trkpt lat="43.7258967" lon="12.1951583"><ele>565.3333333333334</ele><time>2026-03-29T09:13:47.573Z</time></trkpt><trkpt lat="43.7260717" lon="12.1952917"><ele>568.0</ele><time>2026-03-29T09:13:48.574Z</time></trkpt><trkpt lat="43.7262667" lon="12.1954083"><ele>568.0</ele><time>2026-03-29T09:13:49.573Z</time></trkpt><trkpt lat="43.7264833" lon="12.1955233"><ele>568.0</ele><time>2026-03-29T09:13:50.573Z</time></trkpt><trkpt lat="43.7267217" lon="12.1956383"><ele>562.0</ele><time>2026-03-29T09:13:51.574Z</time></trkpt><trkpt lat="43.7269617" lon="12.1957667"><ele>556.0</ele><time>2026-03-29T09:13:52.573Z</time></trkpt><trkpt lat="43.7271983" lon="12.1959067"><ele>556.0</ele><time>2026-03-29T09:13:53.574Z</time></trkpt><trkpt lat="43.7274167" lon="12.1960483"><ele>556.0</ele><time>2026-03-29T09:13:54.573Z</time></trkpt><trkpt lat="43.72763" lon="12.1962"><ele>547.5</ele><time>2026-03-29T09:13:55.574Z</time></trkpt><trkpt lat="43.7278433" lon="12.1963367"><ele>539.0</ele><time>2026-03-29T09:13:56.574Z</time></trkpt><trkpt lat="43.72805" lon="12.19644"><ele>541.0</ele><time>2026-03-29T09:13:57.573Z</time></trkpt><trkpt lat="43.7282567" lon="12.1965233"><ele>543.0</ele><time>2026-03-29T09:13:58.574Z</time></trkpt><trkpt lat="43.72845" lon="12.196575"><ele>545.0</ele><time>2026-03-29T09:13:59.574Z</time></trkpt><trkpt lat="43.7286417" lon="12.1966383"><ele>545.0</ele><time>2026-03-29T09:14:00.574Z</time></trkpt><trkpt lat="43.7288233" lon="12.196735"><ele>545.0</ele><time>2026-03-29T09:14:01.573Z</time></trkpt><trkpt lat="43.7289833" lon="12.196855"><ele>545.0</ele><time>2026-03-29T09:14:02.574Z</time></trkpt><trkpt lat="43.7291283" lon="12.196995"><ele>545.0</ele><time>2026-03-29T09:14:03.573Z</time></trkpt><trkpt lat="43.7292683" lon="12.1971533"><ele>545.0</ele><time>2026-03-29T09:14:04.574Z</time></trkpt><trkpt lat="43.7294" lon="12.1973083"><ele>545.0</ele><time>2026-03-29T09:14:05.573Z</time></trkpt><trkpt lat="43.7295233" lon="12.197475"><ele>543.0</ele><time>2026-03-29T09:14:06.574Z</time></trkpt><trkpt lat="43.7296233" lon="12.197645"><ele>541.0</ele><time>2026-03-29T09:14:07.573Z</time></trkpt><trkpt lat="43.7297067" lon="12.1978167"><ele>539.0</ele><time>2026-03-29T09:14:08.574Z</time></trkpt><trkpt lat="43.7297967" lon="12.1979833"><ele>539.0</ele><time>2026-03-29T09:14:09.574Z</time></trkpt><trkpt lat="43.7299067" lon="12.1981333"><ele>539.0</ele><time>2026-03-29T09:14:10.574Z</time></trkpt><trkpt lat="43.7300433" lon="12.1982683"><ele>539.0</ele><time>2026-03-29T09:14:11.574Z</time></trkpt><trkpt lat="43.7302133" lon="12.198385"><ele>539.3333333333333</ele><time>2026-03-29T09:14:12.574Z</time></trkpt><trkpt lat="43.730385" lon="12.19849"><ele>539.6666666666666</ele><time>2026-03-29T09:14:13.573Z</time></trkpt><trkpt lat="43.7305383" lon="12.1985883"><ele>540.0</ele><time>2026-03-29T09:14:14.573Z</time></trkpt><trkpt lat="43.7306967" lon="12.19866"><ele>540.0</ele><time>2026-03-29T09:14:15.574Z</time></trkpt><trkpt lat="43.73087" lon="12.1986833"><ele>540.0</ele><time>2026-03-29T09:14:16.574Z</time></trkpt><trkpt lat="43.73105" lon="12.19866"><ele>540.0</ele><time>2026-03-29T09:14:17.573Z</time></trkpt><trkpt lat="43.73122" lon="12.1985983"><ele>539.0</ele><time>2026-03-29T09:14:18.574Z</time></trkpt><trkpt lat="43.7313783" lon="12.1985517"><ele>538.0</ele><time>2026-03-29T09:14:19.574Z</time></trkpt><trkpt lat="43.7315133" lon="12.1985317"><ele>537.0</ele><time>2026-03-29T09:14:20.574Z</time></trkpt><trkpt lat="43.7316367" lon="12.1985717"><ele>536.0</ele><time>2026-03-29T09:14:21.573Z</time></trkpt><trkpt lat="43.7317583" lon="12.1986767"><ele>536.0</ele><time>2026-03-29T09:14:22.574Z</time></trkpt><trkpt lat="43.7318733" lon="12.19883"><ele>536.0</ele><time>2026-03-29T09:14:23.574Z</time></trkpt><trkpt lat="43.73198" lon="12.1989767"><ele>536.0</ele><time>2026-03-29T09:14:24.573Z</time></trkpt><trkpt lat="43.7321017" lon="12.19909"><ele>540.0</ele><time>2026-03-29T09:14:25.574Z</time></trkpt><trkpt lat="43.7322267" lon="12.199165"><ele>544.0</ele><time>2026-03-29T09:14:26.574Z</time></trkpt><trkpt lat="43.7323817" lon="12.19917"><ele>548.0</ele><time>2026-03-29T09:14:27.574Z</time></trkpt><trkpt lat="43.7325383" lon="12.19911"><ele>548.0</ele><time>2026-03-29T09:14:28.574Z</time></trkpt><trkpt lat="43.732685" lon="12.1990333"><ele>548.0</ele><time>2026-03-29T09:14:29.573Z</time></trkpt><trkpt lat="43.7328367" lon="12.19901"><ele>548.0</ele><time>2026-03-29T09:14:30.573Z</time></trkpt><trkpt lat="43.7330067" lon="12.1990433"><ele>545.6666666666666</ele><time>2026-03-29T09:14:31.573Z</time></trkpt><trkpt lat="43.7331817" lon="12.1991417"><ele>543.3333333333334</ele><time>2026-03-29T09:14:32.574Z</time></trkpt><trkpt lat="43.7333633" lon="12.1992683"><ele>541.0</ele><time>2026-03-29T09:14:33.573Z</time></trkpt><trkpt lat="43.73353" lon="12.1994033"><ele>535.3333333333334</ele><time>2026-03-29T09:14:34.573Z</time></trkpt><trkpt lat="43.7336883" lon="12.1995117"><ele>529.6666666666666</ele><time>2026-03-29T09:14:35.574Z</time></trkpt><trkpt lat="43.7338583" lon="12.1995817"><ele>524.0</ele><time>2026-03-29T09:14:36.573Z</time></trkpt><trkpt lat="43.7340383" lon="12.1996083"><ele>524.0</ele><time>2026-03-29T09:14:37.574Z</time></trkpt><trkpt lat="43.7342183" lon="12.1996133"><ele>524.0</ele><time>2026-03-29T09:14:38.574Z</time></trkpt><trkpt lat="43.73439" lon="12.1996133"><ele>524.0</ele><time>2026-03-29T09:14:39.574Z</time></trkpt><trkpt lat="43.734555" lon="12.19966"><ele>530.0</ele><time>2026-03-29T09:14:40.574Z</time></trkpt><trkpt lat="43.7347183" lon="12.1997417"><ele>536.0</ele><time>2026-03-29T09:14:41.573Z</time></trkpt><trkpt lat="43.7348917" lon="12.1998483"><ele>542.0</ele><time>2026-03-29T09:14:42.573Z</time></trkpt><trkpt lat="43.73507" lon="12.1999833"><ele>533.6666666666666</ele><time>2026-03-29T09:14:43.573Z</time></trkpt><trkpt lat="43.73525" lon="12.2001217"><ele>525.3333333333334</ele><time>2026-03-29T09:14:44.574Z</time></trkpt><trkpt lat="43.7354133" lon="12.2002533"><ele>517.0</ele><time>2026-03-29T09:14:45.574Z</time></trkpt><trkpt lat="43.735555" lon="12.20037"><ele>517.0</ele><time>2026-03-29T09:14:46.574Z</time></trkpt><trkpt lat="43.73566" lon="12.2004933"><ele>517.0</ele><time>2026-03-29T09:14:47.574Z</time></trkpt><trkpt lat="43.7357567" lon="12.2006417"><ele>517.0</ele><time>2026-03-29T09:14:48.574Z</time></trkpt><trkpt lat="43.7358" lon="12.2008267"><ele>517.0</ele><time>2026-03-29T09:14:49.574Z</time></trkpt><trkpt lat="43.7358217" lon="12.2010267"><ele>521.75</ele><time>2026-03-29T09:14:50.574Z</time></trkpt><trkpt lat="43.7358183" lon="12.2012067"><ele>526.5</ele><time>2026-03-29T09:14:51.574Z</time></trkpt><trkpt lat="43.73584" lon="12.2013567"><ele>531.25</ele><time>2026-03-29T09:14:52.574Z</time></trkpt><trkpt lat="43.735895" lon="12.201505"><ele>536.0</ele><time>2026-03-29T09:14:53.574Z</time></trkpt><trkpt lat="43.7359983" lon="12.2016167"><ele>537.3333333333333</ele><time>2026-03-29T09:14:54.573Z</time></trkpt><trkpt lat="43.7361433" lon="12.2016883"><ele>538.6666666666666</ele><time>2026-03-29T09:14:55.574Z</time></trkpt><trkpt lat="43.736315" lon="12.2017133"><ele>540.0</ele><time>2026-03-29T09:14:56.573Z</time></trkpt><trkpt lat="43.7365067" lon="12.2016767"><ele>540.0</ele><time>2026-03-29T09:14:57.573Z</time></trkpt><trkpt lat="43.736715" lon="12.201605"><ele>540.0</ele><time>2026-03-29T09:14:58.574Z</time></trkpt><trkpt lat="43.7369367" lon="12.2014967"><ele>533.3333333333334</ele><time>2026-03-29T09:14:59.573Z</time></trkpt><trkpt lat="43.7371483" lon="12.2013683"><ele>526.6666666666667</ele><time>2026-03-29T09:15:00.574Z</time></trkpt><trkpt lat="43.7373433" lon="12.2012483"><ele>520.0</ele><time>2026-03-29T09:15:01.574Z</time></trkpt><trkpt lat="43.73752" lon="12.201125"><ele>520.0</ele><time>2026-03-29T09:15:02.574Z</time></trkpt><trkpt lat="43.73769" lon="12.2010083"><ele>520.0</ele><time>2026-03-29T09:15:03.574Z</time></trkpt><trkpt lat="43.7378283" lon="12.20088"><ele>520.0</ele><time>2026-03-29T09:15:04.574Z</time></trkpt><trkpt lat="43.7379383" lon="12.200755"><ele>512.5</ele><time>2026-03-29T09:15:05.574Z</time></trkpt><trkpt lat="43.73803" lon="12.2006483"><ele>505.0</ele><time>2026-03-29T09:15:06.574Z</time></trkpt><trkpt lat="43.7381233" lon="12.2005533"><ele>497.5</ele><time>2026-03-29T09:15:07.574Z</time></trkpt><trkpt lat="43.7382233" lon="12.2005083"><ele>490.0</ele><time>2026-03-29T09:15:08.573Z</time></trkpt><trkpt lat="43.7383467" lon="12.2005367"><ele>490.0</ele><time>2026-03-29T09:15:09.573Z</time></trkpt><trkpt lat="43.73847" lon="12.2006183"><ele>490.0</ele><time>2026-03-29T09:15:10.573Z</time></trkpt><trkpt lat="43.7385783" lon="12.200745"><ele>490.0</ele><time>2026-03-29T09:15:11.573Z</time></trkpt><trkpt lat="43.738665" lon="12.2009"><ele>490.0</ele><time>2026-03-29T09:15:12.574Z</time></trkpt><trkpt lat="43.7387233" lon="12.20109"><ele>492.75</ele><time>2026-03-29T09:15:13.573Z</time></trkpt><trkpt lat="43.738755" lon="12.2012983"><ele>495.5</ele><time>2026-03-29T09:15:14.574Z</time></trkpt><trkpt lat="43.7387733" lon="12.2014867"><ele>498.25</ele><time>2026-03-29T09:15:15.574Z</time></trkpt><trkpt lat="43.7388067" lon="12.2016283"><ele>501.0</ele><time>2026-03-29T09:15:16.574Z</time></trkpt><trkpt lat="43.7388767" lon="12.20173"><ele>505.0</ele><time>2026-03-29T09:15:17.574Z</time></trkpt><trkpt lat="43.7389867" lon="12.2017883"><ele>509.0</ele><time>2026-03-29T09:15:18.573Z</time></trkpt><trkpt lat="43.7391317" lon="12.20181"><ele>513.0</ele><time>2026-03-29T09:15:19.573Z</time></trkpt><trkpt lat="43.7393133" lon="12.2017867"><ele>517.0</ele><time>2026-03-29T09:15:20.574Z</time></trkpt><trkpt lat="43.7395283" lon="12.2017317"><ele>517.0</ele><time>2026-03-29T09:15:21.574Z</time></trkpt><trkpt lat="43.7397583" lon="12.2016767"><ele>517.0</ele><time>2026-03-29T09:15:22.574Z</time></trkpt><trkpt lat="43.7399817" lon="12.20163"><ele>517.0</ele><time>2026-03-29T09:15:23.573Z</time></trkpt><trkpt lat="43.7401883" lon="12.2015983"><ele>517.0</ele><time>2026-03-29T09:15:24.573Z</time></trkpt><trkpt lat="43.7403867" lon="12.2015717"><ele>517.0</ele><time>2026-03-29T09:15:25.574Z</time></trkpt><trkpt lat="43.7405683" lon="12.2015517"><ele>514.75</ele><time>2026-03-29T09:15:26.574Z</time></trkpt><trkpt lat="43.74073" lon="12.201545"><ele>512.5</ele><time>2026-03-29T09:15:27.573Z</time></trkpt><trkpt lat="43.7408633" lon="12.201525"><ele>510.25</ele><time>2026-03-29T09:15:28.574Z</time></trkpt><trkpt lat="43.740965" lon="12.201525"><ele>508.0</ele><time>2026-03-29T09:15:29.573Z</time></trkpt><trkpt lat="43.74105" lon="12.201555"><ele>503.25</ele><time>2026-03-29T09:15:30.574Z</time></trkpt><trkpt lat="43.7411317" lon="12.201645"><ele>498.5</ele><time>2026-03-29T09:15:31.574Z</time></trkpt><trkpt lat="43.741195" lon="12.2018117"><ele>493.75</ele><time>2026-03-29T09:15:32.574Z</time></trkpt><trkpt lat="43.7412383" lon="12.2020217"><ele>489.0</ele><time>2026-03-29T09:15:33.574Z</time></trkpt><trkpt lat="43.7412733" lon="12.20222"><ele>491.75</ele><time>2026-03-29T09:15:34.574Z</time></trkpt><trkpt lat="43.7413117" lon="12.2024083"><ele>494.5</ele><time>2026-03-29T09:15:35.573Z</time></trkpt><trkpt lat="43.74138" lon="12.2025683"><ele>497.25</ele><time>2026-03-29T09:15:36.574Z</time></trkpt><trkpt lat="43.7414667" lon="12.2026917"><ele>500.0</ele><time>2026-03-29T09:15:37.573Z</time></trkpt><trkpt lat="43.7415833" lon="12.2027817"><ele>500.0</ele><time>2026-03-29T09:15:38.574Z</time></trkpt><trkpt lat="43.7416967" lon="12.2028167"><ele>500.0</ele><time>2026-03-29T09:15:39.574Z</time></trkpt><trkpt lat="43.7418" lon="12.2028133"><ele>500.0</ele><time>2026-03-29T09:15:40.574Z</time></trkpt><trkpt lat="43.7418883" lon="12.2027533"><ele>500.0</ele><time>2026-03-29T09:15:41.574Z</time></trkpt><trkpt lat="43.7419617" lon="12.2026283"><ele>500.0</ele><time>2026-03-29T09:15:42.574Z</time></trkpt><trkpt lat="43.74202" lon="12.2024533"><ele>497.0</ele><time>2026-03-29T09:15:43.574Z</time></trkpt><trkpt lat="43.7420617" lon="12.2022633"><ele>494.0</ele><time>2026-03-29T09:15:44.574Z</time></trkpt><trkpt lat="43.742095" lon="12.2020933"><ele>491.0</ele><time>2026-03-29T09:15:45.574Z</time></trkpt><trkpt lat="43.7421383" lon="12.201955"><ele>488.0</ele><time>2026-03-29T09:15:46.574Z</time></trkpt><trkpt lat="43.742205" lon="12.201855"><ele>488.0</ele><time>2026-03-29T09:15:47.574Z</time></trkpt><trkpt lat="43.7423033" lon="12.201815"><ele>488.0</ele><time>2026-03-29T09:15:48.574Z</time></trkpt><trkpt lat="43.7424283" lon="12.2018467"><ele>488.0</ele><time>2026-03-29T09:15:49.574Z</time></trkpt><trkpt lat="43.74257" lon="12.2019083"><ele>488.0</ele><time>2026-03-29T09:15:50.573Z</time></trkpt><trkpt lat="43.7427517" lon="12.20198"><ele>486.66666666666663</ele><time>2026-03-29T09:15:51.574Z</time></trkpt><trkpt lat="43.7429617" lon="12.2020283"><ele>485.33333333333337</ele><time>2026-03-29T09:15:52.573Z</time></trkpt><trkpt lat="43.7431733" lon="12.2020483"><ele>484.0</ele><time>2026-03-29T09:15:53.574Z</time></trkpt><trkpt lat="43.7433683" lon="12.202055"><ele>484.0</ele><time>2026-03-29T09:15:54.574Z</time></trkpt><trkpt lat="43.7435417" lon="12.2020433"><ele>484.0</ele><time>2026-03-29T09:15:55.574Z</time></trkpt><trkpt lat="43.7436933" lon="12.202005"><ele>484.0</ele><time>2026-03-29T09:15:56.573Z</time></trkpt><trkpt lat="43.7438383" lon="12.2019033"><ele>483.0</ele><time>2026-03-29T09:15:57.573Z</time></trkpt><trkpt lat="43.7439783" lon="12.2017483"><ele>482.0</ele><time>2026-03-29T09:15:58.573Z</time></trkpt><trkpt lat="43.744115" lon="12.20155"><ele>481.0</ele><time>2026-03-29T09:15:59.574Z</time></trkpt><trkpt lat="43.7442417" lon="12.20136"><ele>481.0</ele><time>2026-03-29T09:16:00.574Z</time></trkpt><trkpt lat="43.7443617" lon="12.201155"><ele>481.0</ele><time>2026-03-29T09:16:01.574Z</time></trkpt><trkpt lat="43.7444717" lon="12.2009167"><ele>481.0</ele><time>2026-03-29T09:16:02.574Z</time></trkpt><trkpt lat="43.7445583" lon="12.200665"><ele>485.33333333333337</ele><time>2026-03-29T09:16:03.574Z</time></trkpt><trkpt lat="43.7446367" lon="12.2004217"><ele>489.66666666666663</ele><time>2026-03-29T09:16:04.574Z</time></trkpt><trkpt lat="43.7447333" lon="12.200185"><ele>494.0</ele><time>2026-03-29T09:16:05.574Z</time></trkpt><trkpt lat="43.744855" lon="12.1999533"><ele>497.3333333333333</ele><time>2026-03-29T09:16:06.573Z</time></trkpt><trkpt lat="43.7449833" lon="12.1997183"><ele>500.66666666666663</ele><time>2026-03-29T09:16:07.574Z</time></trkpt><trkpt lat="43.7451333" lon="12.1994883"><ele>504.0</ele><time>2026-03-29T09:16:08.574Z</time></trkpt><trkpt lat="43.7452783" lon="12.19927"><ele>504.0</ele><time>2026-03-29T09:16:09.574Z</time></trkpt><trkpt lat="43.745425" lon="12.1990733"><ele>504.0</ele><time>2026-03-29T09:16:10.574Z</time></trkpt><trkpt lat="43.7455717" lon="12.1988917"><ele>504.0</ele><time>2026-03-29T09:16:11.573Z</time></trkpt><trkpt lat="43.7457117" lon="12.1987217"><ele>503.33333333333337</ele><time>2026-03-29T09:16:12.573Z</time></trkpt><trkpt lat="43.745855" lon="12.1985733"><ele>502.6666666666667</ele><time>2026-03-29T09:16:13.574Z</time></trkpt><trkpt lat="43.7460017" lon="12.19842"><ele>502.0</ele><time>2026-03-29T09:16:14.573Z</time></trkpt><trkpt lat="43.7461767" lon="12.198295"><ele>502.0</ele><time>2026-03-29T09:16:15.574Z</time></trkpt><trkpt lat="43.7463667" lon="12.1981883"><ele>502.0</ele><time>2026-03-29T09:16:16.574Z</time></trkpt><trkpt lat="43.74654" lon="12.198085"><ele>502.0</ele><time>2026-03-29T09:16:17.573Z</time></trkpt><trkpt lat="43.7466967" lon="12.197985"><ele>494.0</ele><time>2026-03-29T09:16:18.573Z</time></trkpt><trkpt lat="43.746845" lon="12.197905"><ele>486.0</ele><time>2026-03-29T09:16:19.574Z</time></trkpt><trkpt lat="43.7469883" lon="12.1978467"><ele>478.0</ele><time>2026-03-29T09:16:20.573Z</time></trkpt><trkpt lat="43.747135" lon="12.1978367"><ele>478.0</ele><time>2026-03-29T09:16:21.573Z</time></trkpt><trkpt lat="43.7472867" lon="12.1978667"><ele>478.0</ele><time>2026-03-29T09:16:22.573Z</time></trkpt><trkpt lat="43.7474467" lon="12.1979217"><ele>478.0</ele><time>2026-03-29T09:16:23.573Z</time></trkpt><trkpt lat="43.7476183" lon="12.197995"><ele>481.33333333333337</ele><time>2026-03-29T09:16:24.574Z</time></trkpt><trkpt lat="43.7477833" lon="12.1980883"><ele>484.66666666666663</ele><time>2026-03-29T09:16:25.574Z</time></trkpt><trkpt lat="43.7479417" lon="12.1982017"><ele>488.0</ele><time>2026-03-29T09:16:26.574Z</time></trkpt><trkpt lat="43.74808" lon="12.1983567"><ele>488.0</ele><time>2026-03-29T09:16:27.574Z</time></trkpt><trkpt lat="43.74821" lon="12.1985417"><ele>488.0</ele><time>2026-03-29T09:16:28.573Z</time></trkpt><trkpt lat="43.74833" lon="12.1987083"><ele>488.0</ele><time>2026-03-29T09:16:29.574Z</time></trkpt><trkpt lat="43.7484417" lon="12.19886"><ele>492.66666666666663</ele><time>2026-03-29T09:16:30.573Z</time></trkpt><trkpt lat="43.748555" lon="12.198995"><ele>497.33333333333337</ele><time>2026-03-29T09:16:31.574Z</time></trkpt><trkpt lat="43.7486967" lon="12.19911"><ele>502.0</ele><time>2026-03-29T09:16:32.574Z</time></trkpt><trkpt lat="43.74886" lon="12.1992083"><ele>502.0</ele><time>2026-03-29T09:16:33.574Z</time></trkpt><trkpt lat="43.7490433" lon="12.199255"><ele>502.0</ele><time>2026-03-29T09:16:34.573Z</time></trkpt><trkpt lat="43.7492433" lon="12.1992717"><ele>502.0</ele><time>2026-03-29T09:16:35.574Z</time></trkpt><trkpt lat="43.7494667" lon="12.199255"><ele>500.6666666666667</ele><time>2026-03-29T09:16:36.573Z</time></trkpt><trkpt lat="43.74968" lon="12.199225"><ele>499.33333333333337</ele><time>2026-03-29T09:16:37.574Z</time></trkpt><trkpt lat="43.7498817" lon="12.199185"><ele>498.0</ele><time>2026-03-29T09:16:38.574Z</time></trkpt><trkpt lat="43.7500783" lon="12.1991383"><ele>494.33333333333337</ele><time>2026-03-29T09:16:39.574Z</time></trkpt><trkpt lat="43.750255" lon="12.1990783"><ele>490.6666666666667</ele><time>2026-03-29T09:16:40.574Z</time></trkpt><trkpt lat="43.750415" lon="12.1990067"><ele>487.0</ele><time>2026-03-29T09:16:41.573Z</time></trkpt><trkpt lat="43.75056" lon="12.19894"><ele>487.0</ele><time>2026-03-29T09:16:42.574Z</time></trkpt><trkpt lat="43.7506917" lon="12.1988667"><ele>487.0</ele><time>2026-03-29T09:16:43.574Z</time></trkpt><trkpt lat="43.7508133" lon="12.1987567"><ele>487.0</ele><time>2026-03-29T09:16:44.574Z</time></trkpt><trkpt lat="43.7509283" lon="12.1985917"><ele>487.0</ele><time>2026-03-29T09:16:45.574Z</time></trkpt><trkpt lat="43.7510467" lon="12.1984067"><ele>487.0</ele><time>2026-03-29T09:16:46.574Z</time></trkpt><trkpt lat="43.7511767" lon="12.198225"><ele>487.0</ele><time>2026-03-29T09:16:47.574Z</time></trkpt><trkpt lat="43.75132" lon="12.1980717"><ele>487.0</ele><time>2026-03-29T09:16:48.574Z</time></trkpt><trkpt lat="43.7514733" lon="12.1979583"><ele>487.0</ele><time>2026-03-29T09:16:49.573Z</time></trkpt><trkpt lat="43.7516483" lon="12.1978917"><ele>487.0</ele><time>2026-03-29T09:16:50.574Z</time></trkpt><trkpt lat="43.7518283" lon="12.1978583"><ele>488.33333333333337</ele><time>2026-03-29T09:16:51.573Z</time></trkpt><trkpt lat="43.7520167" lon="12.1978683"><ele>489.66666666666663</ele><time>2026-03-29T09:16:52.573Z</time></trkpt><trkpt lat="43.7522033" lon="12.1978967"><ele>491.0</ele><time>2026-03-29T09:16:53.574Z</time></trkpt><trkpt lat="43.7523767" lon="12.197925"><ele>491.0</ele><time>2026-03-29T09:16:54.574Z</time></trkpt><trkpt lat="43.7525433" lon="12.197905"><ele>491.0</ele><time>2026-03-29T09:16:55.574Z</time></trkpt><trkpt lat="43.7526983" lon="12.1978467"><ele>491.0</ele><time>2026-03-29T09:16:56.573Z</time></trkpt><trkpt lat="43.75285" lon="12.1977533"><ele>494.0</ele><time>2026-03-29T09:16:57.573Z</time></trkpt><trkpt lat="43.7529917" lon="12.197625"><ele>497.0</ele><time>2026-03-29T09:16:58.574Z</time></trkpt><trkpt lat="43.7531283" lon="12.1974733"><ele>500.0</ele><time>2026-03-29T09:16:59.574Z</time></trkpt><trkpt lat="43.7532683" lon="12.1973267"><ele>493.0</ele><time>2026-03-29T09:17:00.574Z</time></trkpt><trkpt lat="43.7534217" lon="12.1972017"><ele>486.0</ele><time>2026-03-29T09:17:01.574Z</time></trkpt><trkpt lat="43.75359" lon="12.1971167"><ele>479.0</ele><time>2026-03-29T09:17:02.574Z</time></trkpt><trkpt lat="43.75376" lon="12.1970783"><ele>479.0</ele><time>2026-03-29T09:17:03.574Z</time></trkpt><trkpt lat="43.7539233" lon="12.197075"><ele>479.0</ele><time>2026-03-29T09:17:04.574Z</time></trkpt><trkpt lat="43.754095" lon="12.1971317"><ele>479.0</ele><time>2026-03-29T09:17:05.574Z</time></trkpt><trkpt lat="43.7542717" lon="12.1972033"><ele>482.0</ele><time>2026-03-29T09:17:06.574Z</time></trkpt><trkpt lat="43.7544383" lon="12.1972683"><ele>485.0</ele><time>2026-03-29T09:17:07.574Z</time></trkpt><trkpt lat="43.7545983" lon="12.1973133"><ele>488.0</ele><time>2026-03-29T09:17:08.574Z</time></trkpt><trkpt lat="43.7547717" lon="12.1973083"><ele>488.0</ele><time>2026-03-29T09:17:09.574Z</time></trkpt><trkpt lat="43.75494" lon="12.1972467"><ele>488.0</ele><time>2026-03-29T09:17:10.574Z</time></trkpt><trkpt lat="43.7551067" lon="12.197125"><ele>488.0</ele><time>2026-03-29T09:17:11.574Z</time></trkpt><trkpt lat="43.75526" lon="12.1969583"><ele>484.5</ele><time>2026-03-29T09:17:12.573Z</time></trkpt><trkpt lat="43.7554183" lon="12.19674"><ele>481.0</ele><time>2026-03-29T09:17:13.573Z</time></trkpt><trkpt lat="43.7555783" lon="12.1965017"><ele>481.0</ele><time>2026-03-29T09:17:14.573Z</time></trkpt><trkpt lat="43.7557383" lon="12.1962833"><ele>481.0</ele><time>2026-03-29T09:17:15.573Z</time></trkpt><trkpt lat="43.7558817" lon="12.1960933"><ele>481.0</ele><time>2026-03-29T09:17:16.574Z</time></trkpt><trkpt lat="43.7560017" lon="12.1959267"><ele>483.0</ele><time>2026-03-29T09:17:17.573Z</time></trkpt><trkpt lat="43.7561133" lon="12.1957833"><ele>485.0</ele><time>2026-03-29T09:17:18.574Z</time></trkpt><trkpt lat="43.7562333" lon="12.1956667"><ele>487.0</ele><time>2026-03-29T09:17:19.573Z</time></trkpt><trkpt lat="43.75636" lon="12.1955883"><ele>489.0</ele><time>2026-03-29T09:17:20.573Z</time></trkpt><trkpt lat="43.7564933" lon="12.1955517"><ele>489.0</ele><time>2026-03-29T09:17:21.574Z</time></trkpt><trkpt lat="43.7566333" lon="12.1955817"><ele>489.0</ele><time>2026-03-29T09:17:22.574Z</time></trkpt><trkpt lat="43.7567633" lon="12.1956983"><ele>489.0</ele><time>2026-03-29T09:17:23.574Z</time></trkpt><trkpt lat="43.75687" lon="12.1958733"><ele>486.33333333333337</ele><time>2026-03-29T09:17:24.574Z</time></trkpt><trkpt lat="43.7569633" lon="12.1961033"><ele>483.6666666666667</ele><time>2026-03-29T09:17:25.574Z</time></trkpt><trkpt lat="43.7570367" lon="12.1963483"><ele>481.0</ele><time>2026-03-29T09:17:26.574Z</time></trkpt><trkpt lat="43.757095" lon="12.19657"><ele>481.0</ele><time>2026-03-29T09:17:27.573Z</time></trkpt><trkpt lat="43.757155" lon="12.1967717"><ele>481.0</ele><time>2026-03-29T09:17:28.574Z</time></trkpt><trkpt lat="43.7572317" lon="12.19695"><ele>481.0</ele><time>2026-03-29T09:17:29.573Z</time></trkpt><trkpt lat="43.75735" lon="12.1971067"><ele>481.0</ele><time>2026-03-29T09:17:30.574Z</time></trkpt><trkpt lat="43.757505" lon="12.1972133"><ele>481.0</ele><time>2026-03-29T09:17:31.573Z</time></trkpt><trkpt lat="43.7576633" lon="12.1973"><ele>481.0</ele><time>2026-03-29T09:17:32.574Z</time></trkpt><trkpt lat="43.7578183" lon="12.1974017"><ele>478.0</ele><time>2026-03-29T09:17:33.574Z</time></trkpt><trkpt lat="43.7579683" lon="12.1975683"><ele>475.0</ele><time>2026-03-29T09:17:34.573Z</time></trkpt><trkpt lat="43.7581067" lon="12.1977933"><ele>472.0</ele><time>2026-03-29T09:17:35.574Z</time></trkpt><trkpt lat="43.7582483" lon="12.198045"><ele>477.33333333333337</ele><time>2026-03-29T09:17:36.574Z</time></trkpt><trkpt lat="43.7583883" lon="12.1982967"><ele>482.66666666666663</ele><time>2026-03-29T09:17:37.573Z</time></trkpt><trkpt lat="43.7585217" lon="12.1985383"><ele>488.0</ele><time>2026-03-29T09:17:38.574Z</time></trkpt><trkpt lat="43.7586433" lon="12.1987683"><ele>479.66666666666663</ele><time>2026-03-29T09:17:39.573Z</time></trkpt><trkpt lat="43.7587517" lon="12.1989917"><ele>471.33333333333337</ele><time>2026-03-29T09:17:40.574Z</time></trkpt><trkpt lat="43.7588567" lon="12.199205"><ele>463.0</ele><time>2026-03-29T09:17:41.574Z</time></trkpt><trkpt lat="43.7589433" lon="12.1993833"><ele>463.0</ele><time>2026-03-29T09:17:42.573Z</time></trkpt><trkpt lat="43.7590783" lon="12.19954"><ele>463.0</ele><time>2026-03-29T09:17:43.574Z</time></trkpt><trkpt lat="43.759215" lon="12.1996767"><ele>463.0</ele><time>2026-03-29T09:17:44.574Z</time></trkpt><trkpt lat="43.759375" lon="12.1998"><ele>463.33333333333337</ele><time>2026-03-29T09:17:45.573Z</time></trkpt><trkpt lat="43.75956" lon="12.1999033"><ele>463.66666666666663</ele><time>2026-03-29T09:17:46.574Z</time></trkpt><trkpt lat="43.7597667" lon="12.199985"><ele>464.0</ele><time>2026-03-29T09:17:47.573Z</time></trkpt><trkpt lat="43.7599833" lon="12.20004"><ele>464.0</ele><time>2026-03-29T09:17:48.574Z</time></trkpt><trkpt lat="43.7601933" lon="12.20008"><ele>464.0</ele><time>2026-03-29T09:17:49.573Z</time></trkpt><trkpt lat="43.760385" lon="12.20012"><ele>464.0</ele><time>2026-03-29T09:17:50.574Z</time></trkpt><trkpt lat="43.760565" lon="12.2001517"><ele>463.0</ele><time>2026-03-29T09:17:51.574Z</time></trkpt><trkpt lat="43.7607333" lon="12.200155"><ele>462.0</ele><time>2026-03-29T09:17:52.574Z</time></trkpt><trkpt lat="43.760905" lon="12.2001167"><ele>461.0</ele><time>2026-03-29T09:17:53.574Z</time></trkpt><trkpt lat="43.7610733" lon="12.2000233"><ele>461.0</ele><time>2026-03-29T09:17:54.574Z</time></trkpt><trkpt lat="43.76122" lon="12.19989"><ele>461.0</ele><time>2026-03-29T09:17:55.574Z</time></trkpt><trkpt lat="43.761345" lon="12.1997483"><ele>461.0</ele><time>2026-03-29T09:17:56.573Z</time></trkpt><trkpt lat="43.7614667" lon="12.1996217"><ele>456.0</ele><time>2026-03-29T09:17:57.574Z</time></trkpt><trkpt lat="43.76161" lon="12.1995333"><ele>451.0</ele><time>2026-03-29T09:17:58.574Z</time></trkpt><trkpt lat="43.7617733" lon="12.1995033"><ele>446.0</ele><time>2026-03-29T09:17:59.573Z</time></trkpt><trkpt lat="43.7619567" lon="12.199505"><ele>446.0</ele><time>2026-03-29T09:18:00.574Z</time></trkpt><trkpt lat="43.7621533" lon="12.1995333"><ele>446.0</ele><time>2026-03-29T09:18:01.573Z</time></trkpt><trkpt lat="43.7623433" lon="12.1995717"><ele>446.0</ele><time>2026-03-29T09:18:02.573Z</time></trkpt><trkpt lat="43.762525" lon="12.1995833"><ele>446.66666666666663</ele><time>2026-03-29T09:18:03.574Z</time></trkpt><trkpt lat="43.762705" lon="12.1995483"><ele>447.33333333333337</ele><time>2026-03-29T09:18:04.574Z</time></trkpt><trkpt lat="43.762875" lon="12.199505"><ele>448.0</ele><time>2026-03-29T09:18:05.574Z</time></trkpt><trkpt lat="43.7630333" lon="12.19941"><ele>448.0</ele><time>2026-03-29T09:18:06.574Z</time></trkpt><trkpt lat="43.7631933" lon="12.1992867"><ele>448.0</ele><time>2026-03-29T09:18:07.574Z</time></trkpt><trkpt lat="43.763345" lon="12.1991333"><ele>448.0</ele><time>2026-03-29T09:18:08.574Z</time></trkpt><trkpt lat="43.76349" lon="12.1989683"><ele>446.6666666666667</ele><time>2026-03-29T09:18:09.574Z</time></trkpt><trkpt lat="43.76362" lon="12.1988083"><ele>445.33333333333337</ele><time>2026-03-29T09:18:10.573Z</time></trkpt><trkpt lat="43.763745" lon="12.1986633"><ele>444.0</ele><time>2026-03-29T09:18:11.574Z</time></trkpt><trkpt lat="43.7638783" lon="12.1985417"><ele>444.0</ele><time>2026-03-29T09:18:12.574Z</time></trkpt><trkpt lat="43.7640117" lon="12.1984483"><ele>444.0</ele><time>2026-03-29T09:18:13.574Z</time></trkpt><trkpt lat="43.7641467" lon="12.1984067"><ele>444.0</ele><time>2026-03-29T09:18:14.573Z</time></trkpt><trkpt lat="43.7642983" lon="12.19842"><ele>444.0</ele><time>2026-03-29T09:18:15.574Z</time></trkpt><trkpt lat="43.7644617" lon="12.198455"><ele>442.25</ele><time>2026-03-29T09:18:16.574Z</time></trkpt><trkpt lat="43.7646067" lon="12.19851"><ele>440.5</ele><time>2026-03-29T09:18:17.574Z</time></trkpt><trkpt lat="43.7647333" lon="12.19858"><ele>438.75</ele><time>2026-03-29T09:18:18.573Z</time></trkpt><trkpt lat="43.7648617" lon="12.1986383"><ele>437.0</ele><time>2026-03-29T09:18:19.574Z</time></trkpt><trkpt lat="43.7649783" lon="12.1986867"><ele>437.0</ele><time>2026-03-29T09:18:20.573Z</time></trkpt><trkpt lat="43.7650867" lon="12.1987333"><ele>437.00000000000006</ele><time>2026-03-29T09:18:21.574Z</time></trkpt><trkpt lat="43.7651933" lon="12.1987767"><ele>437.00000000000006</ele><time>2026-03-29T09:18:22.573Z</time></trkpt><trkpt lat="43.7652967" lon="12.198825"><ele>437.0</ele><time>2026-03-29T09:18:23.573Z</time></trkpt><trkpt lat="43.76539" lon="12.1988817"><ele>437.0</ele><time>2026-03-29T09:18:24.574Z</time></trkpt><trkpt lat="43.7654883" lon="12.1989467"><ele>435.75</ele><time>2026-03-29T09:18:25.574Z</time></trkpt><trkpt lat="43.7655783" lon="12.1990367"><ele>434.5</ele><time>2026-03-29T09:18:26.574Z</time></trkpt><trkpt lat="43.7656583" lon="12.1991633"><ele>433.25</ele><time>2026-03-29T09:18:27.574Z</time></trkpt><trkpt lat="43.7657317" lon="12.199305"><ele>432.0</ele><time>2026-03-29T09:18:28.574Z</time></trkpt><trkpt lat="43.7658017" lon="12.1994533"><ele>432.0</ele><time>2026-03-29T09:18:29.573Z</time></trkpt><trkpt lat="43.765865" lon="12.1996"><ele>432.0</ele><time>2026-03-29T09:18:30.573Z</time></trkpt><trkpt lat="43.765935" lon="12.199745"><ele>432.0</ele><time>2026-03-29T09:18:31.574Z</time></trkpt><trkpt lat="43.7660017" lon="12.19989"><ele>432.0</ele><time>2026-03-29T09:18:32.574Z</time></trkpt><trkpt lat="43.766075" lon="12.2000167"><ele>431.75</ele><time>2026-03-29T09:18:33.574Z</time></trkpt><trkpt lat="43.7661367" lon="12.2001367"><ele>431.5</ele><time>2026-03-29T09:18:34.573Z</time></trkpt><trkpt lat="43.766215" lon="12.2002417"><ele>431.25</ele><time>2026-03-29T09:18:35.574Z</time></trkpt><trkpt lat="43.766325" lon="12.2003233"><ele>431.0</ele><time>2026-03-29T09:18:36.574Z</time></trkpt><trkpt lat="43.76645" lon="12.2003717"><ele>431.0</ele><time>2026-03-29T09:18:37.574Z</time></trkpt><trkpt lat="43.76658" lon="12.2004083"><ele>431.0</ele><time>2026-03-29T09:18:38.574Z</time></trkpt><trkpt lat="43.7667167" lon="12.200435"><ele>431.0</ele><time>2026-03-29T09:18:39.574Z</time></trkpt><trkpt lat="43.76686" lon="12.2004567"><ele>431.0</ele><time>2026-03-29T09:18:40.574Z</time></trkpt><trkpt lat="43.7670017" lon="12.200475"><ele>431.25</ele><time>2026-03-29T09:18:41.574Z</time></trkpt><trkpt lat="43.7671267" lon="12.200475"><ele>431.5</ele><time>2026-03-29T09:18:42.574Z</time></trkpt><trkpt lat="43.76726" lon="12.2004567"><ele>431.75</ele><time>2026-03-29T09:18:43.574Z</time></trkpt><trkpt lat="43.7674033" lon="12.2004217"><ele>432.0</ele><time>2026-03-29T09:18:44.574Z</time></trkpt><trkpt lat="43.767555" lon="12.2003617"><ele>432.66666666666663</ele><time>2026-03-29T09:18:45.574Z</time></trkpt><trkpt lat="43.7676967" lon="12.20028"><ele>433.3333333333333</ele><time>2026-03-29T09:18:46.574Z</time></trkpt><trkpt lat="43.767835" lon="12.200205"><ele>434.0</ele><time>2026-03-29T09:18:47.573Z</time></trkpt><trkpt lat="43.7679833" lon="12.200145"><ele>434.0</ele><time>2026-03-29T09:18:48.574Z</time></trkpt><trkpt lat="43.7681417" lon="12.2001133"><ele>434.0</ele><time>2026-03-29T09:18:49.573Z</time></trkpt><trkpt lat="43.7683367" lon="12.200135"><ele>434.0</ele><time>2026-03-29T09:18:50.573Z</time></trkpt><trkpt lat="43.7685233" lon="12.20017"><ele>431.66666666666663</ele><time>2026-03-29T09:18:51.573Z</time></trkpt><trkpt lat="43.7687133" lon="12.2002483"><ele>429.33333333333337</ele><time>2026-03-29T09:18:52.573Z</time></trkpt><trkpt lat="43.768915" lon="12.2003517"><ele>427.0</ele><time>2026-03-29T09:18:53.574Z</time></trkpt><trkpt lat="43.769095" lon="12.2004733"><ele>434.0</ele><time>2026-03-29T09:18:54.574Z</time></trkpt><trkpt lat="43.7703583" lon="12.200705"><ele>434.0</ele><time>2026-03-29T09:19:01.576Z</time></trkpt><trkpt lat="43.7705433" lon="12.200685"><ele>434.0</ele><time>2026-03-29T09:19:02.577Z</time></trkpt><trkpt lat="43.7707233" lon="12.2006867"><ele>434.0</ele><time>2026-03-29T09:19:03.577Z</time></trkpt><trkpt lat="43.770895" lon="12.2007283"><ele>431.3333333333333</ele><time>2026-03-29T09:19:04.577Z</time></trkpt><trkpt lat="43.7710633" lon="12.200825"><ele>428.66666666666663</ele><time>2026-03-29T09:19:05.576Z</time></trkpt><trkpt lat="43.7712283" lon="12.20096"><ele>426.0</ele><time>2026-03-29T09:19:06.577Z</time></trkpt><trkpt lat="43.77139" lon="12.20109"><ele>426.0</ele><time>2026-03-29T09:19:07.576Z</time></trkpt><trkpt lat="43.7715483" lon="12.2012067"><ele>426.0</ele><time>2026-03-29T09:19:08.577Z</time></trkpt><trkpt lat="43.7717217" lon="12.2013033"><ele>426.0</ele><time>2026-03-29T09:19:09.577Z</time></trkpt><trkpt lat="43.7719067" lon="12.2013667"><ele>426.0</ele><time>2026-03-29T09:19:10.576Z</time></trkpt><trkpt lat="43.7720967" lon="12.2014017"><ele>426.0</ele><time>2026-03-29T09:19:11.576Z</time></trkpt><trkpt lat="43.7722917" lon="12.2014017"><ele>426.0</ele><time>2026-03-29T09:19:12.577Z</time></trkpt><trkpt lat="43.7724783" lon="12.2013733"><ele>426.0</ele><time>2026-03-29T09:19:13.577Z</time></trkpt><trkpt lat="43.7726667" lon="12.2013467"><ele>426.0</ele><time>2026-03-29T09:19:14.577Z</time></trkpt><trkpt lat="43.7728467" lon="12.2013433"><ele>426.0</ele><time>2026-03-29T09:19:15.577Z</time></trkpt><trkpt lat="43.7730333" lon="12.20137"><ele>424.66666666666663</ele><time>2026-03-29T09:19:16.577Z</time></trkpt><trkpt lat="43.7732233" lon="12.2014133"><ele>423.3333333333333</ele><time>2026-03-29T09:19:17.577Z</time></trkpt><trkpt lat="43.773415" lon="12.201475"><ele>422.0</ele><time>2026-03-29T09:19:18.577Z</time></trkpt><trkpt lat="43.77361" lon="12.2015683"><ele>424.66666666666663</ele><time>2026-03-29T09:19:19.577Z</time></trkpt><trkpt lat="43.77379" lon="12.201695"><ele>427.33333333333337</ele><time>2026-03-29T09:19:20.577Z</time></trkpt><trkpt lat="43.7739683" lon="12.20183"><ele>430.0</ele><time>2026-03-29T09:19:21.577Z</time></trkpt><trkpt lat="43.7741433" lon="12.20194"><ele>430.0</ele><time>2026-03-29T09:19:22.577Z</time></trkpt><trkpt lat="43.7743283" lon="12.20201"><ele>430.0</ele><time>2026-03-29T09:19:23.577Z</time></trkpt><trkpt lat="43.7745117" lon="12.202045"><ele>430.0</ele><time>2026-03-29T09:19:24.577Z</time></trkpt><trkpt lat="43.7746867" lon="12.2020933"><ele>429.33333333333337</ele><time>2026-03-29T09:19:25.577Z</time></trkpt><trkpt lat="43.774845" lon="12.2021683"><ele>428.66666666666663</ele><time>2026-03-29T09:19:26.577Z</time></trkpt><trkpt lat="43.7749967" lon="12.2022883"><ele>428.0</ele><time>2026-03-29T09:19:27.577Z</time></trkpt><trkpt lat="43.7751433" lon="12.2024433"><ele>426.3333333333333</ele><time>2026-03-29T09:19:28.576Z</time></trkpt><trkpt lat="43.7752933" lon="12.20262"><ele>424.66666666666663</ele><time>2026-03-29T09:19:29.577Z</time></trkpt><trkpt lat="43.7754467" lon="12.2027983"><ele>423.0</ele><time>2026-03-29T09:19:30.576Z</time></trkpt><trkpt lat="43.775625" lon="12.2029517"><ele>423.0</ele><time>2026-03-29T09:19:31.577Z</time></trkpt><trkpt lat="43.77581" lon="12.2031017"><ele>423.0</ele><time>2026-03-29T09:19:32.576Z</time></trkpt><trkpt lat="43.7759933" lon="12.2032433"><ele>423.0</ele><time>2026-03-29T09:19:33.576Z</time></trkpt><trkpt lat="43.7761683" lon="12.2033717"><ele>424.33333333333337</ele><time>2026-03-29T09:19:34.577Z</time></trkpt><trkpt lat="43.7763333" lon="12.20349"><ele>425.6666666666667</ele><time>2026-03-29T09:19:35.577Z</time></trkpt><trkpt lat="43.7764883" lon="12.2036083"><ele>427.0</ele><time>2026-03-29T09:19:36.577Z</time></trkpt><trkpt lat="43.7766333" lon="12.2037183"><ele>427.0</ele><time>2026-03-29T09:19:37.576Z</time></trkpt><trkpt lat="43.7767717" lon="12.20382"><ele>427.0</ele><time>2026-03-29T09:19:38.576Z</time></trkpt><trkpt lat="43.7768817" lon="12.2039117"><ele>427.0</ele><time>2026-03-29T09:19:39.576Z</time></trkpt><trkpt lat="43.776985" lon="12.20399"><ele>427.0</ele><time>2026-03-29T09:19:40.577Z</time></trkpt><trkpt lat="43.77708" lon="12.204065"><ele>427.6</ele><time>2026-03-29T09:19:41.577Z</time></trkpt><trkpt lat="43.7771717" lon="12.2041383"><ele>428.20000000000005</ele><time>2026-03-29T09:19:42.577Z</time></trkpt><trkpt lat="43.777265" lon="12.2042167"><ele>428.8</ele><time>2026-03-29T09:19:43.577Z</time></trkpt><trkpt lat="43.7773667" lon="12.204285"><ele>429.4</ele><time>2026-03-29T09:19:44.577Z</time></trkpt><trkpt lat="43.7774733" lon="12.2043583"><ele>430.0</ele><time>2026-03-29T09:19:45.577Z</time></trkpt><trkpt lat="43.7775717" lon="12.2044383"><ele>430.0</ele><time>2026-03-29T09:19:46.576Z</time></trkpt><trkpt lat="43.7776783" lon="12.2045167"><ele>430.0</ele><time>2026-03-29T09:19:47.577Z</time></trkpt><trkpt lat="43.777785" lon="12.2045883"><ele>430.0</ele><time>2026-03-29T09:19:48.576Z</time></trkpt><trkpt lat="43.7778917" lon="12.2046667"><ele>430.0</ele><time>2026-03-29T09:19:49.577Z</time></trkpt><trkpt lat="43.7779983" lon="12.204745"><ele>431.25</ele><time>2026-03-29T09:19:50.577Z</time></trkpt><trkpt lat="43.7781" lon="12.20483"><ele>432.5</ele><time>2026-03-29T09:19:51.577Z</time></trkpt><trkpt lat="43.778205" lon="12.2049083"><ele>433.75</ele><time>2026-03-29T09:19:52.577Z</time></trkpt><trkpt lat="43.778315" lon="12.2049783"><ele>435.0</ele><time>2026-03-29T09:19:53.577Z</time></trkpt><trkpt lat="43.7784367" lon="12.2050333"><ele>434.0</ele><time>2026-03-29T09:19:54.577Z</time></trkpt><trkpt lat="43.7785667" lon="12.20507"><ele>433.0</ele><time>2026-03-29T09:19:55.577Z</time></trkpt><trkpt lat="43.778695" lon="12.2050717"><ele>432.0</ele><time>2026-03-29T09:19:56.577Z</time></trkpt><trkpt lat="43.7788383" lon="12.205045"><ele>431.0</ele><time>2026-03-29T09:19:57.577Z</time></trkpt><trkpt lat="43.778975" lon="12.2050067"><ele>431.0</ele><time>2026-03-29T09:19:58.577Z</time></trkpt><trkpt lat="43.7791083" lon="12.20498"><ele>431.0</ele><time>2026-03-29T09:19:59.576Z</time></trkpt><trkpt lat="43.779245" lon="12.20496"><ele>431.0</ele><time>2026-03-29T09:20:00.577Z</time></trkpt><trkpt lat="43.779385" lon="12.204975"><ele>431.0</ele><time>2026-03-29T09:20:01.577Z</time></trkpt><trkpt lat="43.779525" lon="12.20503"><ele>427.75</ele><time>2026-03-29T09:20:02.577Z</time></trkpt><trkpt lat="43.7796667" lon="12.2051"><ele>424.5</ele><time>2026-03-29T09:20:03.577Z</time></trkpt><trkpt lat="43.7797967" lon="12.205175"><ele>421.25</ele><time>2026-03-29T09:20:04.576Z</time></trkpt><trkpt lat="43.7799233" lon="12.20526"><ele>418.0</ele><time>2026-03-29T09:20:05.577Z</time></trkpt><trkpt lat="43.78002" lon="12.2053733"><ele>418.0</ele><time>2026-03-29T09:20:06.577Z</time></trkpt><trkpt lat="43.7800967" lon="12.2055233"><ele>418.0</ele><time>2026-03-29T09:20:07.576Z</time></trkpt><trkpt lat="43.780135" lon="12.2057083"><ele>418.0</ele><time>2026-03-29T09:20:08.577Z</time></trkpt><trkpt lat="43.7801717" lon="12.205925"><ele>418.0</ele><time>2026-03-29T09:20:09.576Z</time></trkpt><trkpt lat="43.78023" lon="12.206155"><ele>417.6666666666667</ele><time>2026-03-29T09:20:10.577Z</time></trkpt><trkpt lat="43.7803333" lon="12.2063967"><ele>417.33333333333337</ele><time>2026-03-29T09:20:11.577Z</time></trkpt><trkpt lat="43.7804583" lon="12.2066517"><ele>417.0</ele><time>2026-03-29T09:20:12.576Z</time></trkpt><trkpt lat="43.78058" lon="12.2069017"><ele>417.0</ele><time>2026-03-29T09:20:13.577Z</time></trkpt><trkpt lat="43.780715" lon="12.2071433"><ele>417.0</ele><time>2026-03-29T09:20:14.577Z</time></trkpt><trkpt lat="43.7808383" lon="12.2073617"><ele>417.0</ele><time>2026-03-29T09:20:15.576Z</time></trkpt><trkpt lat="43.7809683" lon="12.207565"><ele>413.0</ele><time>2026-03-29T09:20:16.577Z</time></trkpt><trkpt lat="43.781085" lon="12.2077617"><ele>409.0</ele><time>2026-03-29T09:20:17.577Z</time></trkpt><trkpt lat="43.7811933" lon="12.207945"><ele>405.0</ele><time>2026-03-29T09:20:18.577Z</time></trkpt><trkpt lat="43.7812983" lon="12.208125"><ele>407.66666666666663</ele><time>2026-03-29T09:20:19.576Z</time></trkpt><trkpt lat="43.7813933" lon="12.208305"><ele>410.3333333333333</ele><time>2026-03-29T09:20:20.577Z</time></trkpt><trkpt lat="43.781465" lon="12.20851"><ele>413.0</ele><time>2026-03-29T09:20:21.577Z</time></trkpt><trkpt lat="43.7815183" lon="12.208745"><ele>412.66666666666663</ele><time>2026-03-29T09:20:22.576Z</time></trkpt><trkpt lat="43.781555" lon="12.2090133"><ele>412.33333333333337</ele><time>2026-03-29T09:20:23.577Z</time></trkpt><trkpt lat="43.781585" lon="12.2092867"><ele>412.0</ele><time>2026-03-29T09:20:24.576Z</time></trkpt><trkpt lat="43.78161" lon="12.2095367"><ele>412.0</ele><time>2026-03-29T09:20:25.577Z</time></trkpt><trkpt lat="43.7816433" lon="12.2097583"><ele>412.0</ele><time>2026-03-29T09:20:26.577Z</time></trkpt><trkpt lat="43.7816717" lon="12.2099583"><ele>412.0</ele><time>2026-03-29T09:20:27.577Z</time></trkpt><trkpt lat="43.781705" lon="12.2101217"><ele>412.0</ele><time>2026-03-29T09:20:28.576Z</time></trkpt><trkpt lat="43.7817617" lon="12.210265"><ele>412.0</ele><time>2026-03-29T09:20:29.577Z</time></trkpt><trkpt lat="43.7818633" lon="12.21038"><ele>412.0</ele><time>2026-03-29T09:20:30.577Z</time></trkpt><trkpt lat="43.781995" lon="12.2104583"><ele>412.0</ele><time>2026-03-29T09:20:31.576Z</time></trkpt><trkpt lat="43.7821567" lon="12.21049"><ele>412.0</ele><time>2026-03-29T09:20:32.577Z</time></trkpt><trkpt lat="43.7823383" lon="12.21051"><ele>412.0</ele><time>2026-03-29T09:20:33.577Z</time></trkpt><trkpt lat="43.7825183" lon="12.2105317"><ele>412.0</ele><time>2026-03-29T09:20:34.577Z</time></trkpt><trkpt lat="43.7827033" lon="12.2105517"><ele>412.0</ele><time>2026-03-29T09:20:35.577Z</time></trkpt><trkpt lat="43.78287" lon="12.21057"><ele>412.0</ele><time>2026-03-29T09:20:36.577Z</time></trkpt><trkpt lat="43.7830217" lon="12.2106083"><ele>412.0</ele><time>2026-03-29T09:20:37.577Z</time></trkpt><trkpt lat="43.7831633" lon="12.210675"><ele>412.0</ele><time>2026-03-29T09:20:38.577Z</time></trkpt><trkpt lat="43.78331" lon="12.210755"><ele>415.0</ele><time>2026-03-29T09:20:39.576Z</time></trkpt><trkpt lat="43.7834833" lon="12.2108367"><ele>418.0</ele><time>2026-03-29T09:20:40.577Z</time></trkpt><trkpt lat="43.7836633" lon="12.2109083"><ele>421.0</ele><time>2026-03-29T09:20:41.577Z</time></trkpt><trkpt lat="43.78384" lon="12.210975"><ele>421.0</ele><time>2026-03-29T09:20:42.576Z</time></trkpt><trkpt lat="43.78401" lon="12.211035"><ele>421.0</ele><time>2026-03-29T09:20:43.577Z</time></trkpt><trkpt lat="43.7841633" lon="12.2110833"><ele>421.0</ele><time>2026-03-29T09:20:44.577Z</time></trkpt><trkpt lat="43.7843183" lon="12.211105"><ele>422.25</ele><time>2026-03-29T09:20:45.576Z</time></trkpt><trkpt lat="43.7844667" lon="12.2110783"><ele>423.5</ele><time>2026-03-29T09:20:46.576Z</time></trkpt><trkpt lat="43.7846083" lon="12.2110167"><ele>424.75</ele><time>2026-03-29T09:20:47.576Z</time></trkpt><trkpt lat="43.7847333" lon="12.2109133"><ele>426.0</ele><time>2026-03-29T09:20:48.577Z</time></trkpt><trkpt lat="43.78483" lon="12.210765"><ele>423.75</ele><time>2026-03-29T09:20:49.576Z</time></trkpt><trkpt lat="43.7848917" lon="12.2105717"><ele>421.5</ele><time>2026-03-29T09:20:50.577Z</time></trkpt><trkpt lat="43.78495" lon="12.2103783"><ele>419.25</ele><time>2026-03-29T09:20:51.577Z</time></trkpt><trkpt lat="43.78502" lon="12.21021"><ele>417.0</ele><time>2026-03-29T09:20:52.577Z</time></trkpt><trkpt lat="43.785115" lon="12.2100733"><ele>420.0</ele><time>2026-03-29T09:20:53.577Z</time></trkpt><trkpt lat="43.78524" lon="12.209995"><ele>423.0</ele><time>2026-03-29T09:20:54.576Z</time></trkpt><trkpt lat="43.7853983" lon="12.20996"><ele>426.0</ele><time>2026-03-29T09:20:55.577Z</time></trkpt><trkpt lat="43.7855833" lon="12.2099583"><ele>426.0</ele><time>2026-03-29T09:20:56.576Z</time></trkpt><trkpt lat="43.7857717" lon="12.209975"><ele>426.0</ele><time>2026-03-29T09:20:57.576Z</time></trkpt><trkpt lat="43.7859333" lon="12.21002"><ele>426.0</ele><time>2026-03-29T09:20:58.577Z</time></trkpt><trkpt lat="43.78608" lon="12.2100567"><ele>427.33333333333337</ele><time>2026-03-29T09:20:59.577Z</time></trkpt><trkpt lat="43.78625" lon="12.2100633"><ele>428.6666666666667</ele><time>2026-03-29T09:21:00.577Z</time></trkpt><trkpt lat="43.7864317" lon="12.2100183"><ele>430.0</ele><time>2026-03-29T09:21:01.576Z</time></trkpt><trkpt lat="43.7866083" lon="12.2099283"><ele>430.0</ele><time>2026-03-29T09:21:02.577Z</time></trkpt><trkpt lat="43.7867667" lon="12.2098467"><ele>430.0</ele><time>2026-03-29T09:21:03.577Z</time></trkpt><trkpt lat="43.7869267" lon="12.2097967"><ele>430.0</ele><time>2026-03-29T09:21:04.577Z</time></trkpt><trkpt lat="43.78709" lon="12.209805"><ele>428.6666666666667</ele><time>2026-03-29T09:21:05.577Z</time></trkpt><trkpt lat="43.7872517" lon="12.2098633"><ele>427.33333333333337</ele><time>2026-03-29T09:21:06.577Z</time></trkpt><trkpt lat="43.7874117" lon="12.20998"><ele>426.0</ele><time>2026-03-29T09:21:07.577Z</time></trkpt><trkpt lat="43.7875733" lon="12.2101183"><ele>425.33333333333337</ele><time>2026-03-29T09:21:08.576Z</time></trkpt><trkpt lat="43.7877417" lon="12.2102533"><ele>424.6666666666667</ele><time>2026-03-29T09:21:09.577Z</time></trkpt><trkpt lat="43.7879" lon="12.2103667"><ele>424.0</ele><time>2026-03-29T09:21:10.576Z</time></trkpt><trkpt lat="43.788045" lon="12.210445"><ele>424.0</ele><time>2026-03-29T09:21:11.576Z</time></trkpt><trkpt lat="43.788205" lon="12.2104817"><ele>424.0</ele><time>2026-03-29T09:21:12.576Z</time></trkpt><trkpt lat="43.7883633" lon="12.2104683"><ele>424.0</ele><time>2026-03-29T09:21:13.577Z</time></trkpt><trkpt lat="43.788525" lon="12.2104083"><ele>427.6666666666667</ele><time>2026-03-29T09:21:14.577Z</time></trkpt><trkpt lat="43.7886883" lon="12.2102883"><ele>431.33333333333337</ele><time>2026-03-29T09:21:15.577Z</time></trkpt><trkpt lat="43.7888383" lon="12.2101417"><ele>435.0</ele><time>2026-03-29T09:21:16.576Z</time></trkpt><trkpt lat="43.7889833" lon="12.21001"><ele>435.0</ele><time>2026-03-29T09:21:17.577Z</time></trkpt><trkpt lat="43.7891317" lon="12.20987"><ele>435.0</ele><time>2026-03-29T09:21:18.576Z</time></trkpt><trkpt lat="43.7892983" lon="12.2097583"><ele>435.0</ele><time>2026-03-29T09:21:19.577Z</time></trkpt><trkpt lat="43.7894867" lon="12.20968"><ele>431.33333333333337</ele><time>2026-03-29T09:21:20.577Z</time></trkpt><trkpt lat="43.7896917" lon="12.20961"><ele>427.6666666666667</ele><time>2026-03-29T09:21:21.577Z</time></trkpt><trkpt lat="43.7899017" lon="12.2095567"><ele>424.0</ele><time>2026-03-29T09:21:22.577Z</time></trkpt><trkpt lat="43.790125" lon="12.2095217"><ele>424.0</ele><time>2026-03-29T09:21:23.576Z</time></trkpt><trkpt lat="43.79035" lon="12.209515"><ele>424.0</ele><time>2026-03-29T09:21:24.577Z</time></trkpt><trkpt lat="43.79056" lon="12.2095183"><ele>424.0</ele><time>2026-03-29T09:21:25.577Z</time></trkpt><trkpt lat="43.7907633" lon="12.209525"><ele>424.0</ele><time>2026-03-29T09:21:26.577Z</time></trkpt><trkpt lat="43.790945" lon="12.2095483"><ele>424.0</ele><time>2026-03-29T09:21:27.576Z</time></trkpt><trkpt lat="43.7911167" lon="12.2095817"><ele>424.0</ele><time>2026-03-29T09:21:28.577Z</time></trkpt><trkpt lat="43.7912667" lon="12.209625"><ele>422.25</ele><time>2026-03-29T09:21:29.577Z</time></trkpt><trkpt lat="43.7914" lon="12.2096817"><ele>420.5</ele><time>2026-03-29T09:21:30.577Z</time></trkpt><trkpt lat="43.7915117" lon="12.20976"><ele>418.75</ele><time>2026-03-29T09:21:31.577Z</time></trkpt><trkpt lat="43.7915983" lon="12.2098833"><ele>417.0</ele><time>2026-03-29T09:21:32.577Z</time></trkpt><trkpt lat="43.7916533" lon="12.21005"><ele>421.66666666666663</ele><time>2026-03-29T09:21:33.576Z</time></trkpt><trkpt lat="43.7916717" lon="12.2102633"><ele>426.3333333333333</ele><time>2026-03-29T09:21:34.577Z</time></trkpt><trkpt lat="43.7916667" lon="12.210525"><ele>431.0</ele><time>2026-03-29T09:21:35.577Z</time></trkpt><trkpt lat="43.7916517" lon="12.21081"><ele>431.0</ele><time>2026-03-29T09:21:36.576Z</time></trkpt><trkpt lat="43.791645" lon="12.211075"><ele>431.0</ele><time>2026-03-29T09:21:37.577Z</time></trkpt><trkpt lat="43.7916433" lon="12.211305"><ele>431.0</ele><time>2026-03-29T09:21:38.577Z</time></trkpt><trkpt lat="43.7916333" lon="12.2114867"><ele>432.25</ele><time>2026-03-29T09:21:39.577Z</time></trkpt><trkpt lat="43.79167" lon="12.21165"><ele>433.5</ele><time>2026-03-29T09:21:40.577Z</time></trkpt><trkpt lat="43.7917483" lon="12.21179"><ele>434.75</ele><time>2026-03-29T09:21:41.577Z</time></trkpt><trkpt lat="43.791875" lon="12.21189"><ele>436.0</ele><time>2026-03-29T09:21:42.577Z</time></trkpt><trkpt lat="43.79203" lon="12.211935"><ele>432.33333333333337</ele><time>2026-03-29T09:21:43.576Z</time></trkpt><trkpt lat="43.79222" lon="12.2119533"><ele>428.66666666666663</ele><time>2026-03-29T09:21:44.576Z</time></trkpt><trkpt lat="43.79243" lon="12.2119317"><ele>425.0</ele><time>2026-03-29T09:21:45.577Z</time></trkpt><trkpt lat="43.7926417" lon="12.2118767"><ele>431.0</ele><time>2026-03-29T09:21:46.577Z</time></trkpt><trkpt lat="43.7928633" lon="12.2117933"><ele>437.0</ele><time>2026-03-29T09:21:47.577Z</time></trkpt><trkpt lat="43.7930867" lon="12.211675"><ele>437.0</ele><time>2026-03-29T09:21:48.576Z</time></trkpt><trkpt lat="43.7932967" lon="12.211555"><ele>437.0</ele><time>2026-03-29T09:21:49.577Z</time></trkpt><trkpt lat="43.79349" lon="12.21144"><ele>437.0</ele><time>2026-03-29T09:21:50.577Z</time></trkpt><trkpt lat="43.7936783" lon="12.2113333"><ele>434.0</ele><time>2026-03-29T09:21:51.577Z</time></trkpt><trkpt lat="43.7938533" lon="12.211225"><ele>431.0</ele><time>2026-03-29T09:21:52.577Z</time></trkpt><trkpt lat="43.7940233" lon="12.2111233"><ele>428.0</ele><time>2026-03-29T09:21:53.577Z</time></trkpt><trkpt lat="43.7942" lon="12.2110267"><ele>428.66666666666663</ele><time>2026-03-29T09:21:54.576Z</time></trkpt><trkpt lat="43.794385" lon="12.2109617"><ele>429.33333333333337</ele><time>2026-03-29T09:21:55.576Z</time></trkpt><trkpt lat="43.794575" lon="12.2109217"><ele>430.0</ele><time>2026-03-29T09:21:56.577Z</time></trkpt><trkpt lat="43.79478" lon="12.210905"><ele>430.0</ele><time>2026-03-29T09:21:57.576Z</time></trkpt><trkpt lat="43.7949817" lon="12.210925"><ele>430.0</ele><time>2026-03-29T09:21:58.577Z</time></trkpt><trkpt lat="43.7951917" lon="12.2109833"><ele>430.0</ele><time>2026-03-29T09:21:59.577Z</time></trkpt><trkpt lat="43.795405" lon="12.2110733"><ele>426.0</ele><time>2026-03-29T09:22:00.577Z</time></trkpt><trkpt lat="43.79562" lon="12.2111917"><ele>422.0</ele><time>2026-03-29T09:22:01.576Z</time></trkpt><trkpt lat="43.7958333" lon="12.2113217"><ele>425.0</ele><time>2026-03-29T09:22:02.577Z</time></trkpt><trkpt lat="43.7960467" lon="12.211455"><ele>428.0</ele><time>2026-03-29T09:22:03.577Z</time></trkpt><trkpt lat="43.7962467" lon="12.2115933"><ele>428.0</ele><time>2026-03-29T09:22:04.576Z</time></trkpt><trkpt lat="43.79643" lon="12.2117417"><ele>428.0</ele><time>2026-03-29T09:22:05.577Z</time></trkpt><trkpt lat="43.7966017" lon="12.211905"><ele>428.0</ele><time>2026-03-29T09:22:06.577Z</time></trkpt><trkpt lat="43.7967617" lon="12.2120767"><ele>429.0</ele><time>2026-03-29T09:22:07.577Z</time></trkpt><trkpt lat="43.796915" lon="12.2122583"><ele>430.0</ele><time>2026-03-29T09:22:08.576Z</time></trkpt><trkpt lat="43.7970633" lon="12.21246"><ele>431.0</ele><time>2026-03-29T09:22:09.577Z</time></trkpt><trkpt lat="43.7971967" lon="12.2126833"><ele>431.0</ele><time>2026-03-29T09:22:10.576Z</time></trkpt><trkpt lat="43.797315" lon="12.212905"><ele>431.0</ele><time>2026-03-29T09:22:11.577Z</time></trkpt><trkpt lat="43.7974367" lon="12.2131033"><ele>431.0</ele><time>2026-03-29T09:22:12.577Z</time></trkpt><trkpt lat="43.7975667" lon="12.2132617"><ele>428.3333333333333</ele><time>2026-03-29T09:22:13.577Z</time></trkpt><trkpt lat="43.79771" lon="12.2133833"><ele>425.66666666666663</ele><time>2026-03-29T09:22:14.576Z</time></trkpt><trkpt lat="43.7978417" lon="12.213505"><ele>423.0</ele><time>2026-03-29T09:22:15.576Z</time></trkpt><trkpt lat="43.7979533" lon="12.213665"><ele>423.0</ele><time>2026-03-29T09:22:16.577Z</time></trkpt><trkpt lat="43.7980333" lon="12.21387"><ele>423.0</ele><time>2026-03-29T09:22:17.577Z</time></trkpt><trkpt lat="43.7981067" lon="12.214115"><ele>423.0</ele><time>2026-03-29T09:22:18.577Z</time></trkpt><trkpt lat="43.7981767" lon="12.2143667"><ele>420.5</ele><time>2026-03-29T09:22:19.577Z</time></trkpt><trkpt lat="43.7982583" lon="12.214605"><ele>418.0</ele><time>2026-03-29T09:22:20.576Z</time></trkpt><trkpt lat="43.7985967" lon="12.215065"><ele>418.0</ele><time>2026-03-29T09:22:21.65Z</time></trkpt><trkpt lat="43.798515" lon="12.2150717"><ele>418.0</ele><time>2026-03-29T09:22:23.022Z</time></trkpt><trkpt lat="43.79862" lon="12.2152483"><ele>418.0</ele><time>2026-03-29T09:22:24.072Z</time></trkpt><trkpt lat="43.7987183" lon="12.2153917"><ele>418.0</ele><time>2026-03-29T09:22:25.073Z</time></trkpt><trkpt lat="43.7987867" lon="12.2155233"><ele>421.75</ele><time>2026-03-29T09:22:26.073Z</time></trkpt><trkpt lat="43.7988833" lon="12.2157117"><ele>425.5</ele><time>2026-03-29T09:22:27.573Z</time></trkpt><trkpt lat="43.7988817" lon="12.2158683"><ele>429.25</ele><time>2026-03-29T09:22:28.573Z</time></trkpt><trkpt lat="43.7988983" lon="12.2160117"><ele>433.0</ele><time>2026-03-29T09:22:29.573Z</time></trkpt><trkpt lat="43.7989117" lon="12.2161733"><ele>433.0</ele><time>2026-03-29T09:22:30.573Z</time></trkpt><trkpt lat="43.798965" lon="12.216325"><ele>433.0</ele><time>2026-03-29T09:22:31.573Z</time></trkpt><trkpt lat="43.79908" lon="12.2164467"><ele>433.0</ele><time>2026-03-29T09:22:32.573Z</time></trkpt><trkpt lat="43.7992117" lon="12.2165217"><ele>433.0</ele><time>2026-03-29T09:22:33.573Z</time></trkpt><trkpt lat="43.7993883" lon="12.2165717"><ele>433.33333333333337</ele><time>2026-03-29T09:22:34.573Z</time></trkpt><trkpt lat="43.79958" lon="12.2166133"><ele>433.66666666666663</ele><time>2026-03-29T09:22:35.573Z</time></trkpt><trkpt lat="43.7997567" lon="12.2166917"><ele>434.0</ele><time>2026-03-29T09:22:36.573Z</time></trkpt><trkpt lat="43.799905" lon="12.2168083"><ele>434.0</ele><time>2026-03-29T09:22:37.573Z</time></trkpt><trkpt lat="43.800055" lon="12.21696"><ele>434.0</ele><time>2026-03-29T09:22:38.573Z</time></trkpt><trkpt lat="43.8001717" lon="12.2171533"><ele>434.0</ele><time>2026-03-29T09:22:39.573Z</time></trkpt><trkpt lat="43.800275" lon="12.2173567"><ele>429.3333333333333</ele><time>2026-03-29T09:22:40.573Z</time></trkpt><trkpt lat="43.8003933" lon="12.21752"><ele>424.66666666666663</ele><time>2026-03-29T09:22:41.573Z</time></trkpt><trkpt lat="43.8005217" lon="12.2176567"><ele>420.0</ele><time>2026-03-29T09:22:42.574Z</time></trkpt><trkpt lat="43.8006483" lon="12.21782"><ele>420.0</ele><time>2026-03-29T09:22:43.573Z</time></trkpt><trkpt lat="43.8007533" lon="12.2180017"><ele>420.0</ele><time>2026-03-29T09:22:44.574Z</time></trkpt><trkpt lat="43.800835" lon="12.2181817"><ele>420.0</ele><time>2026-03-29T09:22:45.574Z</time></trkpt><trkpt lat="43.800885" lon="12.2183583"><ele>425.75</ele><time>2026-03-29T09:22:46.573Z</time></trkpt><trkpt lat="43.8009033" lon="12.218555"><ele>431.5</ele><time>2026-03-29T09:22:47.573Z</time></trkpt><trkpt lat="43.8008833" lon="12.2187567"><ele>437.25</ele><time>2026-03-29T09:22:48.573Z</time></trkpt><trkpt lat="43.8008617" lon="12.21892"><ele>443.0</ele><time>2026-03-29T09:22:49.574Z</time></trkpt><trkpt lat="43.8008517" lon="12.2190783"><ele>444.75</ele><time>2026-03-29T09:22:50.574Z</time></trkpt><trkpt lat="43.8008667" lon="12.219245"><ele>446.5</ele><time>2026-03-29T09:22:51.574Z</time></trkpt><trkpt lat="43.8009167" lon="12.21939"><ele>448.25</ele><time>2026-03-29T09:22:52.574Z</time></trkpt><trkpt lat="43.800995" lon="12.2194833"><ele>450.0</ele><time>2026-03-29T09:22:53.574Z</time></trkpt><trkpt lat="43.8011067" lon="12.219545"><ele>445.5</ele><time>2026-03-29T09:22:54.574Z</time></trkpt><trkpt lat="43.8012433" lon="12.21954"><ele>441.0</ele><time>2026-03-29T09:22:55.573Z</time></trkpt><trkpt lat="43.80139" lon="12.2195133"><ele>436.5</ele><time>2026-03-29T09:22:56.574Z</time></trkpt><trkpt lat="43.801525" lon="12.2195367"><ele>432.0</ele><time>2026-03-29T09:22:57.573Z</time></trkpt><trkpt lat="43.8016483" lon="12.2196267"><ele>432.0</ele><time>2026-03-29T09:22:58.573Z</time></trkpt><trkpt lat="43.8017417" lon="12.219765"><ele>432.0</ele><time>2026-03-29T09:22:59.573Z</time></trkpt><trkpt lat="43.8018183" lon="12.2199383"><ele>432.0</ele><time>2026-03-29T09:23:00.574Z</time></trkpt><trkpt lat="43.8019183" lon="12.2201517"><ele>430.66666666666663</ele><time>2026-03-29T09:23:01.573Z</time></trkpt><trkpt lat="43.8020217" lon="12.2203983"><ele>429.3333333333333</ele><time>2026-03-29T09:23:02.574Z</time></trkpt><trkpt lat="43.8021167" lon="12.2206517"><ele>428.0</ele><time>2026-03-29T09:23:03.574Z</time></trkpt><trkpt lat="43.8022067" lon="12.2209"><ele>428.0</ele><time>2026-03-29T09:23:04.573Z</time></trkpt><trkpt lat="43.8022817" lon="12.2211583"><ele>428.0</ele><time>2026-03-29T09:23:05.573Z</time></trkpt><trkpt lat="43.80235" lon="12.2214117"><ele>428.0</ele><time>2026-03-29T09:23:06.574Z</time></trkpt><trkpt lat="43.8023933" lon="12.22163"><ele>434.3333333333333</ele><time>2026-03-29T09:23:07.573Z</time></trkpt><trkpt lat="43.8024433" lon="12.22182"><ele>440.66666666666663</ele><time>2026-03-29T09:23:08.574Z</time></trkpt><trkpt lat="43.8025233" lon="12.2219917"><ele>447.0</ele><time>2026-03-29T09:23:09.573Z</time></trkpt><trkpt lat="43.8026467" lon="12.2221483"><ele>437.66666666666663</ele><time>2026-03-29T09:23:10.573Z</time></trkpt><trkpt lat="43.8027833" lon="12.2223033"><ele>428.3333333333333</ele><time>2026-03-29T09:23:11.574Z</time></trkpt><trkpt lat="43.8028967" lon="12.2224583"><ele>419.0</ele><time>2026-03-29T09:23:12.574Z</time></trkpt><trkpt lat="43.80298" lon="12.2226133"><ele>419.0</ele><time>2026-03-29T09:23:13.573Z</time></trkpt><trkpt lat="43.8030283" lon="12.2227783"><ele>419.0</ele><time>2026-03-29T09:23:14.574Z</time></trkpt><trkpt lat="43.80304" lon="12.222975"><ele>419.0</ele><time>2026-03-29T09:23:15.574Z</time></trkpt><trkpt lat="43.8030117" lon="12.2231917"><ele>419.0</ele><time>2026-03-29T09:23:16.574Z</time></trkpt><trkpt lat="43.8029517" lon="12.2234233"><ele>420.66666666666663</ele><time>2026-03-29T09:23:17.573Z</time></trkpt><trkpt lat="43.8028783" lon="12.2236567"><ele>422.33333333333337</ele><time>2026-03-29T09:23:18.573Z</time></trkpt><trkpt lat="43.8028083" lon="12.22386"><ele>424.0</ele><time>2026-03-29T09:23:19.574Z</time></trkpt><trkpt lat="43.80275" lon="12.2240383"><ele>424.5</ele><time>2026-03-29T09:23:20.573Z</time></trkpt><trkpt lat="43.8027267" lon="12.2242117"><ele>425.0</ele><time>2026-03-29T09:23:21.573Z</time></trkpt><trkpt lat="43.8027483" lon="12.224405"><ele>425.5</ele><time>2026-03-29T09:23:22.574Z</time></trkpt><trkpt lat="43.802815" lon="12.2246167"><ele>426.0</ele><time>2026-03-29T09:23:23.573Z</time></trkpt><trkpt lat="43.802895" lon="12.2248267"><ele>429.75</ele><time>2026-03-29T09:23:24.574Z</time></trkpt><trkpt lat="43.8029667" lon="12.2250183"><ele>433.5</ele><time>2026-03-29T09:23:25.573Z</time></trkpt><trkpt lat="43.8030267" lon="12.225175"><ele>437.25</ele><time>2026-03-29T09:23:26.574Z</time></trkpt><trkpt lat="43.8031017" lon="12.22529"><ele>441.0</ele><time>2026-03-29T09:23:27.574Z</time></trkpt><trkpt lat="43.8032033" lon="12.22536"><ele>441.0</ele><time>2026-03-29T09:23:28.573Z</time></trkpt><trkpt lat="43.803325" lon="12.2253833"><ele>441.0</ele><time>2026-03-29T09:23:29.573Z</time></trkpt><trkpt lat="43.8034517" lon="12.2253333"><ele>441.0</ele><time>2026-03-29T09:23:30.574Z</time></trkpt><trkpt lat="43.8036133" lon="12.22528"><ele>441.0</ele><time>2026-03-29T09:23:31.574Z</time></trkpt><trkpt lat="43.8037833" lon="12.22523"><ele>442.0</ele><time>2026-03-29T09:23:32.574Z</time></trkpt><trkpt lat="43.8039617" lon="12.2251817"><ele>443.0</ele><time>2026-03-29T09:23:33.574Z</time></trkpt><trkpt lat="43.8041217" lon="12.2251117"><ele>444.0</ele><time>2026-03-29T09:23:34.574Z</time></trkpt><trkpt lat="43.8042583" lon="12.2250167"><ele>440.25</ele><time>2026-03-29T09:23:35.573Z</time></trkpt><trkpt lat="43.804375" lon="12.2249433"><ele>436.5</ele><time>2026-03-29T09:23:36.574Z</time></trkpt><trkpt lat="43.8044933" lon="12.22492"><ele>432.75</ele><time>2026-03-29T09:23:37.574Z</time></trkpt><trkpt lat="43.8046083" lon="12.2249617"><ele>429.0</ele><time>2026-03-29T09:23:38.573Z</time></trkpt><trkpt lat="43.8047217" lon="12.2250567"><ele>429.0</ele><time>2026-03-29T09:23:39.573Z</time></trkpt><trkpt lat="43.8048517" lon="12.2252083"><ele>429.0</ele><time>2026-03-29T09:23:40.574Z</time></trkpt><trkpt lat="43.8050017" lon="12.22537"><ele>429.0</ele><time>2026-03-29T09:23:41.574Z</time></trkpt><trkpt lat="43.8051567" lon="12.2255033"><ele>427.75</ele><time>2026-03-29T09:23:42.574Z</time></trkpt><trkpt lat="43.8052883" lon="12.225595"><ele>426.5</ele><time>2026-03-29T09:23:43.573Z</time></trkpt><trkpt lat="43.8053917" lon="12.225695"><ele>425.25</ele><time>2026-03-29T09:23:44.574Z</time></trkpt><trkpt lat="43.805455" lon="12.2258133"><ele>424.0</ele><time>2026-03-29T09:23:45.573Z</time></trkpt><trkpt lat="43.8054733" lon="12.225975"><ele>424.0</ele><time>2026-03-29T09:23:46.574Z</time></trkpt><trkpt lat="43.8054467" lon="12.2261817"><ele>424.0</ele><time>2026-03-29T09:23:47.574Z</time></trkpt><trkpt lat="43.8053983" lon="12.226395"><ele>424.0</ele><time>2026-03-29T09:23:48.574Z</time></trkpt><trkpt lat="43.8053383" lon="12.226605"><ele>425.79999999999995</ele><time>2026-03-29T09:23:49.574Z</time></trkpt><trkpt lat="43.805295" lon="12.2267767"><ele>427.59999999999997</ele><time>2026-03-29T09:23:50.573Z</time></trkpt><trkpt lat="43.8052667" lon="12.2269183"><ele>429.4</ele><time>2026-03-29T09:23:51.573Z</time></trkpt><trkpt lat="43.80528" lon="12.2270517"><ele>431.2</ele><time>2026-03-29T09:23:52.574Z</time></trkpt><trkpt lat="43.80533" lon="12.2271633"><ele>433.0</ele><time>2026-03-29T09:23:53.574Z</time></trkpt><trkpt lat="43.805425" lon="12.227235"><ele>433.0</ele><time>2026-03-29T09:23:54.574Z</time></trkpt><trkpt lat="43.8055533" lon="12.2272583"><ele>433.0</ele><time>2026-03-29T09:23:55.574Z</time></trkpt><trkpt lat="43.8057" lon="12.2272283"><ele>433.0</ele><time>2026-03-29T09:23:56.574Z</time></trkpt><trkpt lat="43.8058817" lon="12.2271733"><ele>431.6666666666667</ele><time>2026-03-29T09:23:57.574Z</time></trkpt><trkpt lat="43.8060817" lon="12.22711"><ele>430.33333333333337</ele><time>2026-03-29T09:23:58.574Z</time></trkpt><trkpt lat="43.8062767" lon="12.2270267"><ele>429.0</ele><time>2026-03-29T09:23:59.573Z</time></trkpt><trkpt lat="43.8064667" lon="12.22691"><ele>429.0</ele><time>2026-03-29T09:24:00.573Z</time></trkpt><trkpt lat="43.806645" lon="12.22679"><ele>429.0</ele><time>2026-03-29T09:24:01.573Z</time></trkpt><trkpt lat="43.806815" lon="12.2267"><ele>429.0</ele><time>2026-03-29T09:24:02.574Z</time></trkpt><trkpt lat="43.8069683" lon="12.2266417"><ele>428.66666666666663</ele><time>2026-03-29T09:24:03.573Z</time></trkpt><trkpt lat="43.8071133" lon="12.22662"><ele>428.3333333333333</ele><time>2026-03-29T09:24:04.574Z</time></trkpt><trkpt lat="43.80727" lon="12.2266567"><ele>428.0</ele><time>2026-03-29T09:24:05.574Z</time></trkpt><trkpt lat="43.8074367" lon="12.2267283"><ele>428.0</ele><time>2026-03-29T09:24:06.574Z</time></trkpt><trkpt lat="43.8076083" lon="12.2268217"><ele>428.0</ele><time>2026-03-29T09:24:07.573Z</time></trkpt><trkpt lat="43.8077817" lon="12.22691"><ele>428.0</ele><time>2026-03-29T09:24:08.573Z</time></trkpt><trkpt lat="43.807935" lon="12.227"><ele>430.3333333333333</ele><time>2026-03-29T09:24:09.574Z</time></trkpt><trkpt lat="43.8080867" lon="12.22712"><ele>432.66666666666663</ele><time>2026-03-29T09:24:10.574Z</time></trkpt><trkpt lat="43.8082333" lon="12.227265"><ele>435.0</ele><time>2026-03-29T09:24:11.574Z</time></trkpt><trkpt lat="43.8083833" lon="12.2274467"><ele>422.66666666666663</ele><time>2026-03-29T09:24:12.574Z</time></trkpt><trkpt lat="43.8085317" lon="12.2276617"><ele>410.3333333333333</ele><time>2026-03-29T09:24:13.574Z</time></trkpt><trkpt lat="43.8086917" lon="12.227885"><ele>398.0</ele><time>2026-03-29T09:24:14.573Z</time></trkpt><trkpt lat="43.8088417" lon="12.2281067"><ele>404.66666666666663</ele><time>2026-03-29T09:24:15.574Z</time></trkpt><trkpt lat="43.8089817" lon="12.2283117"><ele>411.33333333333337</ele><time>2026-03-29T09:24:16.573Z</time></trkpt><trkpt lat="43.8091083" lon="12.228515"><ele>418.0</ele><time>2026-03-29T09:24:17.574Z</time></trkpt><trkpt lat="43.8092333" lon="12.2287017"><ele>409.6666666666667</ele><time>2026-03-29T09:24:18.574Z</time></trkpt><trkpt lat="43.8093433" lon="12.2288817"><ele>401.33333333333337</ele><time>2026-03-29T09:24:19.574Z</time></trkpt><trkpt lat="43.8094267" lon="12.2290567"><ele>393.0</ele><time>2026-03-29T09:24:20.573Z</time></trkpt><trkpt lat="43.8094917" lon="12.2292517"><ele>393.0</ele><time>2026-03-29T09:24:21.574Z</time></trkpt><trkpt lat="43.8095117" lon="12.2294817"><ele>393.0</ele><time>2026-03-29T09:24:22.574Z</time></trkpt><trkpt lat="43.8095083" lon="12.2297233"><ele>393.0</ele><time>2026-03-29T09:24:23.574Z</time></trkpt><trkpt lat="43.809485" lon="12.2299567"><ele>392.33333333333337</ele><time>2026-03-29T09:24:24.574Z</time></trkpt><trkpt lat="43.8094217" lon="12.2301967"><ele>391.6666666666667</ele><time>2026-03-29T09:24:25.574Z</time></trkpt><trkpt lat="43.8093317" lon="12.2304517"><ele>391.0</ele><time>2026-03-29T09:24:26.573Z</time></trkpt><trkpt lat="43.8092433" lon="12.23074"><ele>412.0</ele><time>2026-03-29T09:24:27.574Z</time></trkpt><trkpt lat="43.8091833" lon="12.23105"><ele>433.0</ele><time>2026-03-29T09:24:28.574Z</time></trkpt><trkpt lat="43.809145" lon="12.2313483"><ele>429.0</ele><time>2026-03-29T09:24:29.573Z</time></trkpt><trkpt lat="43.8091083" lon="12.2316317"><ele>425.0</ele><time>2026-03-29T09:24:30.574Z</time></trkpt><trkpt lat="43.8090633" lon="12.2318967"><ele>421.0</ele><time>2026-03-29T09:24:31.573Z</time></trkpt><trkpt lat="43.8090233" lon="12.2321467"><ele>418.6666666666667</ele><time>2026-03-29T09:24:32.574Z</time></trkpt><trkpt lat="43.80899" lon="12.2323883"><ele>416.33333333333337</ele><time>2026-03-29T09:24:33.574Z</time></trkpt><trkpt lat="43.8089717" lon="12.232605"><ele>414.0</ele><time>2026-03-29T09:24:34.574Z</time></trkpt><trkpt lat="43.808975" lon="12.2328167"><ele>414.0</ele><time>2026-03-29T09:24:35.573Z</time></trkpt><trkpt lat="43.80902" lon="12.2330333"><ele>414.0</ele><time>2026-03-29T09:24:36.574Z</time></trkpt><trkpt lat="43.8091033" lon="12.23325"><ele>414.0</ele><time>2026-03-29T09:24:37.574Z</time></trkpt><trkpt lat="43.8092067" lon="12.2334467"><ele>415.66666666666663</ele><time>2026-03-29T09:24:38.573Z</time></trkpt><trkpt lat="43.80932" lon="12.2336233"><ele>417.3333333333333</ele><time>2026-03-29T09:24:39.574Z</time></trkpt><trkpt lat="43.8094133" lon="12.233805"><ele>419.0</ele><time>2026-03-29T09:24:40.574Z</time></trkpt><trkpt lat="43.8094767" lon="12.234005"><ele>411.3333333333333</ele><time>2026-03-29T09:24:41.573Z</time></trkpt><trkpt lat="43.8095033" lon="12.2342383"><ele>403.66666666666663</ele><time>2026-03-29T09:24:42.574Z</time></trkpt><trkpt lat="43.8095083" lon="12.2345083"><ele>396.0</ele><time>2026-03-29T09:24:43.573Z</time></trkpt><trkpt lat="43.8095083" lon="12.2348017"><ele>397.0</ele><time>2026-03-29T09:24:44.574Z</time></trkpt><trkpt lat="43.8095033" lon="12.2351"><ele>398.0</ele><time>2026-03-29T09:24:45.574Z</time></trkpt><trkpt lat="43.8095017" lon="12.2353767"><ele>399.0</ele><time>2026-03-29T09:24:46.573Z</time></trkpt><trkpt lat="43.8094967" lon="12.235615"><ele>398.0</ele><time>2026-03-29T09:24:47.574Z</time></trkpt><trkpt lat="43.8095133" lon="12.2358333"><ele>397.0</ele><time>2026-03-29T09:24:48.573Z</time></trkpt><trkpt lat="43.8095617" lon="12.2360483"><ele>396.0</ele><time>2026-03-29T09:24:49.573Z</time></trkpt><trkpt lat="43.80964" lon="12.23624"><ele>396.0</ele><time>2026-03-29T09:24:50.574Z</time></trkpt><trkpt lat="43.80975" lon="12.2364017"><ele>396.0</ele><time>2026-03-29T09:24:51.574Z</time></trkpt><trkpt lat="43.8098867" lon="12.2365283"><ele>396.0</ele><time>2026-03-29T09:24:52.573Z</time></trkpt><trkpt lat="43.81003" lon="12.2366267"><ele>393.5</ele><time>2026-03-29T09:24:53.573Z</time></trkpt><trkpt lat="43.8101683" lon="12.23672"><ele>391.0</ele><time>2026-03-29T09:24:54.573Z</time></trkpt><trkpt lat="43.8102883" lon="12.236845"><ele>388.5</ele><time>2026-03-29T09:24:55.574Z</time></trkpt><trkpt lat="43.8103817" lon="12.2369983"><ele>386.0</ele><time>2026-03-29T09:24:56.573Z</time></trkpt><trkpt lat="43.81044" lon="12.2371733"><ele>387.5</ele><time>2026-03-29T09:24:57.574Z</time></trkpt><trkpt lat="43.8104483" lon="12.2373583"><ele>389.0</ele><time>2026-03-29T09:24:58.574Z</time></trkpt><trkpt lat="43.810405" lon="12.23753"><ele>390.5</ele><time>2026-03-29T09:24:59.573Z</time></trkpt><trkpt lat="43.8103167" lon="12.23769"><ele>392.0</ele><time>2026-03-29T09:25:00.574Z</time></trkpt><trkpt lat="43.810175" lon="12.2378383"><ele>394.0</ele><time>2026-03-29T09:25:01.573Z</time></trkpt><trkpt lat="43.81001" lon="12.2379817"><ele>396.0</ele><time>2026-03-29T09:25:02.573Z</time></trkpt><trkpt lat="43.8098317" lon="12.2381167"><ele>398.0</ele><time>2026-03-29T09:25:03.573Z</time></trkpt><trkpt lat="43.80966" lon="12.2382617"><ele>398.0</ele><time>2026-03-29T09:25:04.574Z</time></trkpt><trkpt lat="43.8095017" lon="12.238405"><ele>398.0</ele><time>2026-03-29T09:25:05.574Z</time></trkpt><trkpt lat="43.809355" lon="12.238555"><ele>398.0</ele><time>2026-03-29T09:25:06.573Z</time></trkpt><trkpt lat="43.8092117" lon="12.23873"><ele>398.3333333333333</ele><time>2026-03-29T09:25:07.574Z</time></trkpt><trkpt lat="43.8091017" lon="12.2389083"><ele>398.66666666666663</ele><time>2026-03-29T09:25:08.573Z</time></trkpt><trkpt lat="43.8090133" lon="12.23912"><ele>399.0</ele><time>2026-03-29T09:25:09.573Z</time></trkpt><trkpt lat="43.8089467" lon="12.2393683"><ele>399.0</ele><time>2026-03-29T09:25:10.574Z</time></trkpt><trkpt lat="43.8089033" lon="12.23963"><ele>399.0</ele><time>2026-03-29T09:25:11.573Z</time></trkpt><trkpt lat="43.80889" lon="12.2398933"><ele>399.0</ele><time>2026-03-29T09:25:12.574Z</time></trkpt><trkpt lat="43.8089083" lon="12.2401633"><ele>398.33333333333337</ele><time>2026-03-29T09:25:13.573Z</time></trkpt><trkpt lat="43.8089583" lon="12.2404133"><ele>397.6666666666667</ele><time>2026-03-29T09:25:14.574Z</time></trkpt><trkpt lat="43.8090333" lon="12.2406617"><ele>397.0</ele><time>2026-03-29T09:25:15.573Z</time></trkpt><trkpt lat="43.8091433" lon="12.2408883"><ele>397.0</ele><time>2026-03-29T09:25:16.573Z</time></trkpt><trkpt lat="43.80928" lon="12.24108"><ele>397.0</ele><time>2026-03-29T09:25:17.573Z</time></trkpt><trkpt lat="43.8094567" lon="12.241245"><ele>397.0</ele><time>2026-03-29T09:25:18.573Z</time></trkpt><trkpt lat="43.809665" lon="12.2413917"><ele>395.0</ele><time>2026-03-29T09:25:19.574Z</time></trkpt><trkpt lat="43.80989" lon="12.2415083"><ele>393.0</ele><time>2026-03-29T09:25:20.574Z</time></trkpt><trkpt lat="43.8101217" lon="12.24161"><ele>390.0</ele><time>2026-03-29T09:25:21.574Z</time></trkpt><trkpt lat="43.8103767" lon="12.24172"><ele>387.0</ele><time>2026-03-29T09:25:22.574Z</time></trkpt><trkpt lat="43.810635" lon="12.2418383"><ele>387.0</ele><time>2026-03-29T09:25:23.574Z</time></trkpt><trkpt lat="43.8108933" lon="12.2419517"><ele>387.0</ele><time>2026-03-29T09:25:24.573Z</time></trkpt><trkpt lat="43.8111333" lon="12.242055"><ele>386.5</ele><time>2026-03-29T09:25:25.573Z</time></trkpt><trkpt lat="43.8113633" lon="12.2421583"><ele>386.0</ele><time>2026-03-29T09:25:26.574Z</time></trkpt><trkpt lat="43.8115767" lon="12.2422567"><ele>386.66666666666663</ele><time>2026-03-29T09:25:27.574Z</time></trkpt><trkpt lat="43.8117783" lon="12.2423417"><ele>387.33333333333337</ele><time>2026-03-29T09:25:28.574Z</time></trkpt><trkpt lat="43.8119633" lon="12.2423967"><ele>388.0</ele><time>2026-03-29T09:25:29.574Z</time></trkpt><trkpt lat="43.8121433" lon="12.2424067"><ele>388.6666666666667</ele><time>2026-03-29T09:25:30.574Z</time></trkpt><trkpt lat="43.8123183" lon="12.24235"><ele>389.33333333333337</ele><time>2026-03-29T09:25:31.574Z</time></trkpt><trkpt lat="43.812495" lon="12.24225"><ele>390.0</ele><time>2026-03-29T09:25:32.573Z</time></trkpt><trkpt lat="43.8126567" lon="12.24211"><ele>388.66666666666663</ele><time>2026-03-29T09:25:33.574Z</time></trkpt><trkpt lat="43.8128183" lon="12.2419883"><ele>387.3333333333333</ele><time>2026-03-29T09:25:34.573Z</time></trkpt><trkpt lat="43.8129867" lon="12.2418967"><ele>386.0</ele><time>2026-03-29T09:25:35.574Z</time></trkpt><trkpt lat="43.81316" lon="12.241845"><ele>386.0</ele><time>2026-03-29T09:25:36.574Z</time></trkpt><trkpt lat="43.8133433" lon="12.24182"><ele>386.0</ele><time>2026-03-29T09:25:37.574Z</time></trkpt><trkpt lat="43.8135317" lon="12.2418417"><ele>386.0</ele><time>2026-03-29T09:25:38.574Z</time></trkpt><trkpt lat="43.8137217" lon="12.2419033"><ele>384.0</ele><time>2026-03-29T09:25:39.573Z</time></trkpt><trkpt lat="43.8139117" lon="12.2420133"><ele>382.0</ele><time>2026-03-29T09:25:40.574Z</time></trkpt><trkpt lat="43.8141217" lon="12.2421417"><ele>380.0</ele><time>2026-03-29T09:25:41.574Z</time></trkpt><trkpt lat="43.8143417" lon="12.242285"><ele>381.0</ele><time>2026-03-29T09:25:42.574Z</time></trkpt><trkpt lat="43.814575" lon="12.242435"><ele>382.0</ele><time>2026-03-29T09:25:43.574Z</time></trkpt><trkpt lat="43.8148067" lon="12.2425767"><ele>382.0</ele><time>2026-03-29T09:25:44.573Z</time></trkpt><trkpt lat="43.8150317" lon="12.2427217"><ele>382.0</ele><time>2026-03-29T09:25:45.573Z</time></trkpt><trkpt lat="43.8152533" lon="12.2428617"><ele>378.0</ele><time>2026-03-29T09:25:46.574Z</time></trkpt><trkpt lat="43.8154683" lon="12.2429933"><ele>374.0</ele><time>2026-03-29T09:25:47.574Z</time></trkpt><trkpt lat="43.8156733" lon="12.2431233"><ele>374.6666666666667</ele><time>2026-03-29T09:25:48.574Z</time></trkpt><trkpt lat="43.8158767" lon="12.2432517"><ele>375.3333333333333</ele><time>2026-03-29T09:25:49.573Z</time></trkpt><trkpt lat="43.8160767" lon="12.243385"><ele>376.0</ele><time>2026-03-29T09:25:50.574Z</time></trkpt><trkpt lat="43.8162817" lon="12.2435183"><ele>376.0</ele><time>2026-03-29T09:25:51.573Z</time></trkpt><trkpt lat="43.816485" lon="12.243655"><ele>376.0</ele><time>2026-03-29T09:25:52.573Z</time></trkpt><trkpt lat="43.8166833" lon="12.2437817"><ele>376.0</ele><time>2026-03-29T09:25:53.574Z</time></trkpt><trkpt lat="43.8168767" lon="12.2438933"><ele>375.0</ele><time>2026-03-29T09:25:54.574Z</time></trkpt><trkpt lat="43.817065" lon="12.24401"><ele>374.0</ele><time>2026-03-29T09:25:55.574Z</time></trkpt><trkpt lat="43.8172433" lon="12.2441317"><ele>373.0</ele><time>2026-03-29T09:25:56.573Z</time></trkpt><trkpt lat="43.81741" lon="12.24424"><ele>373.0</ele><time>2026-03-29T09:25:57.574Z</time></trkpt><trkpt lat="43.817575" lon="12.2443467"><ele>373.0</ele><time>2026-03-29T09:25:58.574Z</time></trkpt><trkpt lat="43.8177367" lon="12.244455"><ele>373.0</ele><time>2026-03-29T09:25:59.573Z</time></trkpt><trkpt lat="43.8179" lon="12.2445633"><ele>373.0</ele><time>2026-03-29T09:26:00.573Z</time></trkpt><trkpt lat="43.8180583" lon="12.2446733"><ele>373.0</ele><time>2026-03-29T09:26:01.573Z</time></trkpt><trkpt lat="43.8181983" lon="12.2448017"><ele>373.0</ele><time>2026-03-29T09:26:02.574Z</time></trkpt><trkpt lat="43.8183317" lon="12.2449383"><ele>373.0</ele><time>2026-03-29T09:26:03.574Z</time></trkpt><trkpt lat="43.8184517" lon="12.2450817"><ele>373.0</ele><time>2026-03-29T09:26:04.573Z</time></trkpt><trkpt lat="43.8185583" lon="12.2452367"><ele>373.0</ele><time>2026-03-29T09:26:05.574Z</time></trkpt><trkpt lat="43.8186683" lon="12.2453983"><ele>371.3333333333333</ele><time>2026-03-29T09:26:06.574Z</time></trkpt><trkpt lat="43.8187683" lon="12.2455717"><ele>369.6666666666667</ele><time>2026-03-29T09:26:07.574Z</time></trkpt><trkpt lat="43.8188617" lon="12.245755"><ele>368.0</ele><time>2026-03-29T09:26:08.573Z</time></trkpt><trkpt lat="43.8189567" lon="12.2459417"><ele>368.0</ele><time>2026-03-29T09:26:09.574Z</time></trkpt><trkpt lat="43.8190517" lon="12.2461217"><ele>368.0</ele><time>2026-03-29T09:26:10.574Z</time></trkpt><trkpt lat="43.8191417" lon="12.2463017"><ele>368.0</ele><time>2026-03-29T09:26:11.574Z</time></trkpt><trkpt lat="43.8192333" lon="12.2464817"><ele>365.6666666666667</ele><time>2026-03-29T09:26:12.574Z</time></trkpt><trkpt lat="43.819325" lon="12.2466617"><ele>363.3333333333333</ele><time>2026-03-29T09:26:13.574Z</time></trkpt><trkpt lat="43.819415" lon="12.2468367"><ele>361.0</ele><time>2026-03-29T09:26:14.574Z</time></trkpt><trkpt lat="43.8195017" lon="12.2470033"><ele>361.0</ele><time>2026-03-29T09:26:15.573Z</time></trkpt><trkpt lat="43.8195817" lon="12.2471617"><ele>361.0</ele><time>2026-03-29T09:26:16.574Z</time></trkpt><trkpt lat="43.819665" lon="12.2473133"><ele>361.0</ele><time>2026-03-29T09:26:17.574Z</time></trkpt><trkpt lat="43.819735" lon="12.2474583"><ele>361.0</ele><time>2026-03-29T09:26:18.573Z</time></trkpt><trkpt lat="43.8198017" lon="12.2476"><ele>361.8</ele><time>2026-03-29T09:26:19.573Z</time></trkpt><trkpt lat="43.819865" lon="12.2477183"><ele>362.6</ele><time>2026-03-29T09:26:20.574Z</time></trkpt><trkpt lat="43.8199217" lon="12.247825"><ele>363.4</ele><time>2026-03-29T09:26:21.574Z</time></trkpt><trkpt lat="43.81998" lon="12.2479183"><ele>364.2</ele><time>2026-03-29T09:26:22.573Z</time></trkpt><trkpt lat="43.8200433" lon="12.2480067"><ele>365.0</ele><time>2026-03-29T09:26:23.574Z</time></trkpt><trkpt lat="43.82013" lon="12.2480683"><ele>364.75</ele><time>2026-03-29T09:26:24.574Z</time></trkpt><trkpt lat="43.8202383" lon="12.248085"><ele>364.5</ele><time>2026-03-29T09:26:25.573Z</time></trkpt><trkpt lat="43.82036" lon="12.2480433"><ele>364.25</ele><time>2026-03-29T09:26:26.574Z</time></trkpt><trkpt lat="43.82051" lon="12.24797"><ele>364.0</ele><time>2026-03-29T09:26:27.574Z</time></trkpt><trkpt lat="43.82067" lon="12.2478833"><ele>364.0</ele><time>2026-03-29T09:26:28.573Z</time></trkpt><trkpt lat="43.8208217" lon="12.247805"><ele>364.0</ele><time>2026-03-29T09:26:29.574Z</time></trkpt><trkpt lat="43.8209667" lon="12.2477167"><ele>364.0</ele><time>2026-03-29T09:26:30.574Z</time></trkpt><trkpt lat="43.8211133" lon="12.247645"><ele>364.75</ele><time>2026-03-29T09:26:31.573Z</time></trkpt><trkpt lat="43.8212533" lon="12.2475783"><ele>365.5</ele><time>2026-03-29T09:26:32.574Z</time></trkpt><trkpt lat="43.821385" lon="12.2475083"><ele>366.25</ele><time>2026-03-29T09:26:33.574Z</time></trkpt><trkpt lat="43.8215183" lon="12.2474533"><ele>367.0</ele><time>2026-03-29T09:26:34.574Z</time></trkpt><trkpt lat="43.8216533" lon="12.2474117"><ele>367.0</ele><time>2026-03-29T09:26:35.574Z</time></trkpt><trkpt lat="43.82179" lon="12.2473867"><ele>367.0</ele><time>2026-03-29T09:26:36.574Z</time></trkpt><trkpt lat="43.8219333" lon="12.24738"><ele>367.0</ele><time>2026-03-29T09:26:37.574Z</time></trkpt><trkpt lat="43.8220817" lon="12.2473917"><ele>367.0</ele><time>2026-03-29T09:26:38.574Z</time></trkpt><trkpt lat="43.82223" lon="12.2474117"><ele>365.75</ele><time>2026-03-29T09:26:39.573Z</time></trkpt><trkpt lat="43.8223683" lon="12.2474383"><ele>364.5</ele><time>2026-03-29T09:26:40.574Z</time></trkpt><trkpt lat="43.8225133" lon="12.2474733"><ele>363.25</ele><time>2026-03-29T09:26:41.574Z</time></trkpt><trkpt lat="43.8226483" lon="12.2475067"><ele>362.0</ele><time>2026-03-29T09:26:42.573Z</time></trkpt><trkpt lat="43.82278" lon="12.2475333"><ele>360.25</ele><time>2026-03-29T09:26:43.574Z</time></trkpt><trkpt lat="43.8229083" lon="12.2475617"><ele>358.5</ele><time>2026-03-29T09:26:44.574Z</time></trkpt><trkpt lat="43.8230333" lon="12.2475883"><ele>356.75</ele><time>2026-03-29T09:26:45.574Z</time></trkpt><trkpt lat="43.8231617" lon="12.2476067"><ele>355.0</ele><time>2026-03-29T09:26:46.574Z</time></trkpt><trkpt lat="43.823285" lon="12.2476233"><ele>355.0</ele><time>2026-03-29T09:26:47.574Z</time></trkpt><trkpt lat="43.8234017" lon="12.247655"><ele>355.0</ele><time>2026-03-29T09:26:48.573Z</time></trkpt><trkpt lat="43.823515" lon="12.2476917"><ele>355.0</ele><time>2026-03-29T09:26:49.574Z</time></trkpt><trkpt lat="43.823625" lon="12.2477367"><ele>355.0</ele><time>2026-03-29T09:26:50.573Z</time></trkpt><trkpt lat="43.8237383" lon="12.2477983"><ele>354.5</ele><time>2026-03-29T09:26:51.573Z</time></trkpt><trkpt lat="43.823845" lon="12.2478817"><ele>354.0</ele><time>2026-03-29T09:26:52.574Z</time></trkpt><trkpt lat="43.8239517" lon="12.2479683"><ele>353.5</ele><time>2026-03-29T09:26:53.573Z</time></trkpt><trkpt lat="43.8240583" lon="12.24806"><ele>353.0</ele><time>2026-03-29T09:26:54.574Z</time></trkpt><trkpt lat="43.8241533" lon="12.2481467"><ele>353.0</ele><time>2026-03-29T09:26:55.574Z</time></trkpt><trkpt lat="43.824245" lon="12.2482517"><ele>353.0</ele><time>2026-03-29T09:26:56.574Z</time></trkpt><trkpt lat="43.824335" lon="12.2483733"><ele>353.0</ele><time>2026-03-29T09:26:57.574Z</time></trkpt><trkpt lat="43.8244167" lon="12.248505"><ele>353.0</ele><time>2026-03-29T09:26:58.574Z</time></trkpt><trkpt lat="43.8244933" lon="12.2486417"><ele>350.25</ele><time>2026-03-29T09:26:59.574Z</time></trkpt><trkpt lat="43.8245717" lon="12.2487933"><ele>347.5</ele><time>2026-03-29T09:27:00.574Z</time></trkpt><trkpt lat="43.8246517" lon="12.24894"><ele>344.75</ele><time>2026-03-29T09:27:01.574Z</time></trkpt><trkpt lat="43.8247367" lon="12.2490883"><ele>342.0</ele><time>2026-03-29T09:27:02.573Z</time></trkpt><trkpt lat="43.8248283" lon="12.2492717"><ele>342.0</ele><time>2026-03-29T09:27:03.574Z</time></trkpt><trkpt lat="43.8249267" lon="12.2494783"><ele>342.0</ele><time>2026-03-29T09:27:04.574Z</time></trkpt><trkpt lat="43.8250283" lon="12.2496833"><ele>342.0</ele><time>2026-03-29T09:27:05.574Z</time></trkpt><trkpt lat="43.825135" lon="12.2498867"><ele>339.0</ele><time>2026-03-29T09:27:06.574Z</time></trkpt><trkpt lat="43.8252417" lon="12.2500883"><ele>336.0</ele><time>2026-03-29T09:27:07.574Z</time></trkpt><trkpt lat="43.8253383" lon="12.250285"><ele>333.0</ele><time>2026-03-29T09:27:08.573Z</time></trkpt><trkpt lat="43.82544" lon="12.2504883"><ele>333.3333333333333</ele><time>2026-03-29T09:27:09.574Z</time></trkpt><trkpt lat="43.8255483" lon="12.2506933"><ele>333.66666666666663</ele><time>2026-03-29T09:27:10.574Z</time></trkpt><trkpt lat="43.8256667" lon="12.2509133"><ele>334.0</ele><time>2026-03-29T09:27:11.574Z</time></trkpt><trkpt lat="43.82578" lon="12.251125"><ele>334.0</ele><time>2026-03-29T09:27:12.574Z</time></trkpt><trkpt lat="43.8258817" lon="12.2513333"><ele>334.0</ele><time>2026-03-29T09:27:13.574Z</time></trkpt><trkpt lat="43.8259783" lon="12.2515317"><ele>334.0</ele><time>2026-03-29T09:27:14.574Z</time></trkpt><trkpt lat="43.8260967" lon="12.2517383"><ele>333.3333333333333</ele><time>2026-03-29T09:27:15.574Z</time></trkpt><trkpt lat="43.82623" lon="12.251965"><ele>332.6666666666667</ele><time>2026-03-29T09:27:16.574Z</time></trkpt><trkpt lat="43.826355" lon="12.2522167"><ele>332.0</ele><time>2026-03-29T09:27:17.574Z</time></trkpt><trkpt lat="43.8264933" lon="12.2524883"><ele>332.0</ele><time>2026-03-29T09:27:18.574Z</time></trkpt><trkpt lat="43.82663" lon="12.2527733"><ele>332.0</ele><time>2026-03-29T09:27:19.574Z</time></trkpt><trkpt lat="43.8267783" lon="12.2530767"><ele>329.5</ele><time>2026-03-29T09:27:20.574Z</time></trkpt><trkpt lat="43.8269417" lon="12.2533733"><ele>327.0</ele><time>2026-03-29T09:27:21.574Z</time></trkpt><trkpt lat="43.8271067" lon="12.2536767"><ele>328.5</ele><time>2026-03-29T09:27:22.574Z</time></trkpt><trkpt lat="43.827275" lon="12.2539933"><ele>330.0</ele><time>2026-03-29T09:27:23.573Z</time></trkpt><trkpt lat="43.8274483" lon="12.25432"><ele>330.0</ele><time>2026-03-29T09:27:24.574Z</time></trkpt><trkpt lat="43.8276283" lon="12.2546533"><ele>330.0</ele><time>2026-03-29T09:27:25.574Z</time></trkpt><trkpt lat="43.827805" lon="12.254995"><ele>329.5</ele><time>2026-03-29T09:27:26.573Z</time></trkpt><trkpt lat="43.8279883" lon="12.25535"><ele>329.0</ele><time>2026-03-29T09:27:27.573Z</time></trkpt><trkpt lat="43.8281717" lon="12.2557083"><ele>328.0</ele><time>2026-03-29T09:27:28.573Z</time></trkpt><trkpt lat="43.8283483" lon="12.256045"><ele>327.0</ele><time>2026-03-29T09:27:29.574Z</time></trkpt><trkpt lat="43.828505" lon="12.2563667"><ele>331.0</ele><time>2026-03-29T09:27:30.573Z</time></trkpt><trkpt lat="43.8286617" lon="12.256665"><ele>335.0</ele><time>2026-03-29T09:27:31.574Z</time></trkpt><trkpt lat="43.8288217" lon="12.2569433"><ele>335.0</ele><time>2026-03-29T09:27:32.574Z</time></trkpt><trkpt lat="43.8289617" lon="12.257225"><ele>335.0</ele><time>2026-03-29T09:27:33.574Z</time></trkpt><trkpt lat="43.8291017" lon="12.2574917"><ele>335.6666666666667</ele><time>2026-03-29T09:27:34.574Z</time></trkpt><trkpt lat="43.8292333" lon="12.2577467"><ele>336.3333333333333</ele><time>2026-03-29T09:27:35.574Z</time></trkpt><trkpt lat="43.8293517" lon="12.258"><ele>337.0</ele><time>2026-03-29T09:27:36.574Z</time></trkpt><trkpt lat="43.8294533" lon="12.2582517"><ele>337.0</ele><time>2026-03-29T09:27:37.574Z</time></trkpt><trkpt lat="43.82954" lon="12.2585183"><ele>337.0</ele><time>2026-03-29T09:27:38.574Z</time></trkpt><trkpt lat="43.8296233" lon="12.2587917"><ele>337.0</ele><time>2026-03-29T09:27:39.574Z</time></trkpt><trkpt lat="43.8297" lon="12.2590717"><ele>337.0</ele><time>2026-03-29T09:27:40.574Z</time></trkpt><trkpt lat="43.8297667" lon="12.2593717"><ele>337.0</ele><time>2026-03-29T09:27:41.574Z</time></trkpt><trkpt lat="43.8298333" lon="12.2596817"><ele>338.5</ele><time>2026-03-29T09:27:42.574Z</time></trkpt><trkpt lat="43.8298883" lon="12.260005"><ele>340.0</ele><time>2026-03-29T09:27:43.574Z</time></trkpt><trkpt lat="43.8299333" lon="12.260315"><ele>340.0</ele><time>2026-03-29T09:27:44.573Z</time></trkpt><trkpt lat="43.82996" lon="12.260615"><ele>340.0</ele><time>2026-03-29T09:27:45.574Z</time></trkpt><trkpt lat="43.8299783" lon="12.2608883"><ele>340.0</ele><time>2026-03-29T09:27:46.574Z</time></trkpt><trkpt lat="43.83" lon="12.2611467"><ele>341.66666666666663</ele><time>2026-03-29T09:27:47.574Z</time></trkpt><trkpt lat="43.83002" lon="12.2613817"><ele>343.3333333333333</ele><time>2026-03-29T09:27:48.574Z</time></trkpt><trkpt lat="43.83006" lon="12.261605"><ele>345.0</ele><time>2026-03-29T09:27:49.574Z</time></trkpt><trkpt lat="43.8301333" lon="12.2618167"><ele>344.3333333333333</ele><time>2026-03-29T09:27:50.574Z</time></trkpt><trkpt lat="43.8302317" lon="12.2620017"><ele>343.66666666666663</ele><time>2026-03-29T09:27:51.574Z</time></trkpt><trkpt lat="43.830375" lon="12.262145"><ele>343.0</ele><time>2026-03-29T09:27:52.574Z</time></trkpt><trkpt lat="43.8305417" lon="12.2622467"><ele>343.0</ele><time>2026-03-29T09:27:53.574Z</time></trkpt><trkpt lat="43.8307283" lon="12.262285"><ele>343.0</ele><time>2026-03-29T09:27:54.573Z</time></trkpt><trkpt lat="43.8309283" lon="12.262265"><ele>343.0</ele><time>2026-03-29T09:27:55.574Z</time></trkpt><trkpt lat="43.8311367" lon="12.26219"><ele>346.5</ele><time>2026-03-29T09:27:56.574Z</time></trkpt><trkpt lat="43.8313533" lon="12.2620933"><ele>350.0</ele><time>2026-03-29T09:27:57.574Z</time></trkpt><trkpt lat="43.8315683" lon="12.2620133"><ele>350.0</ele><time>2026-03-29T09:27:58.574Z</time></trkpt><trkpt lat="43.831765" lon="12.2619217"><ele>350.0</ele><time>2026-03-29T09:27:59.573Z</time></trkpt><trkpt lat="43.83196" lon="12.2618417"><ele>350.0</ele><time>2026-03-29T09:28:00.574Z</time></trkpt><trkpt lat="43.8321667" lon="12.2617817"><ele>350.6666666666667</ele><time>2026-03-29T09:28:01.573Z</time></trkpt><trkpt lat="43.8323783" lon="12.2617533"><ele>351.3333333333333</ele><time>2026-03-29T09:28:02.573Z</time></trkpt><trkpt lat="43.8325933" lon="12.2617567"><ele>352.0</ele><time>2026-03-29T09:28:03.573Z</time></trkpt><trkpt lat="43.8328033" lon="12.2617933"><ele>352.5</ele><time>2026-03-29T09:28:04.574Z</time></trkpt><trkpt lat="43.8330283" lon="12.2618267"><ele>353.0</ele><time>2026-03-29T09:28:05.574Z</time></trkpt><trkpt lat="43.8332517" lon="12.261865"><ele>353.0</ele><time>2026-03-29T09:28:06.574Z</time></trkpt><trkpt lat="43.8334833" lon="12.2619133"><ele>353.0</ele><time>2026-03-29T09:28:07.574Z</time></trkpt><trkpt lat="43.83371" lon="12.261955"><ele>353.0</ele><time>2026-03-29T09:28:08.574Z</time></trkpt><trkpt lat="43.8339317" lon="12.2619983"><ele>353.0</ele><time>2026-03-29T09:28:09.574Z</time></trkpt><trkpt lat="43.83415" lon="12.2620433"><ele>353.0</ele><time>2026-03-29T09:28:10.574Z</time></trkpt><trkpt lat="43.8343583" lon="12.2621"><ele>352.6666666666667</ele><time>2026-03-29T09:28:11.574Z</time></trkpt><trkpt lat="43.83457" lon="12.2621567"><ele>352.3333333333333</ele><time>2026-03-29T09:28:12.574Z</time></trkpt><trkpt lat="43.834785" lon="12.2622"><ele>352.0</ele><time>2026-03-29T09:28:13.573Z</time></trkpt><trkpt lat="43.8350133" lon="12.26221"><ele>353.66666666666663</ele><time>2026-03-29T09:28:14.575Z</time></trkpt><trkpt lat="43.83524" lon="12.2621767"><ele>355.3333333333333</ele><time>2026-03-29T09:28:15.574Z</time></trkpt><trkpt lat="43.8354533" lon="12.2621283"><ele>357.0</ele><time>2026-03-29T09:28:16.575Z</time></trkpt><trkpt lat="43.8356733" lon="12.2620883"><ele>357.0</ele><time>2026-03-29T09:28:17.575Z</time></trkpt><trkpt lat="43.8358933" lon="12.2620617"><ele>357.0</ele><time>2026-03-29T09:28:18.575Z</time></trkpt><trkpt lat="43.836115" lon="12.2620667"><ele>357.0</ele><time>2026-03-29T09:28:19.575Z</time></trkpt><trkpt lat="43.83634" lon="12.2621083"><ele>354.5</ele><time>2026-03-29T09:28:20.575Z</time></trkpt><trkpt lat="43.8365783" lon="12.262175"><ele>352.0</ele><time>2026-03-29T09:28:21.575Z</time></trkpt><trkpt lat="43.836805" lon="12.26228"><ele>352.5</ele><time>2026-03-29T09:28:22.574Z</time></trkpt><trkpt lat="43.8370267" lon="12.262425"><ele>353.0</ele><time>2026-03-29T09:28:23.574Z</time></trkpt><trkpt lat="43.8372333" lon="12.26261"><ele>353.0</ele><time>2026-03-29T09:28:24.575Z</time></trkpt><trkpt lat="43.8374317" lon="12.2628183"><ele>353.0</ele><time>2026-03-29T09:28:25.575Z</time></trkpt><trkpt lat="43.837615" lon="12.2630683"><ele>353.0</ele><time>2026-03-29T09:28:26.574Z</time></trkpt><trkpt lat="43.8378033" lon="12.263335"><ele>353.0</ele><time>2026-03-29T09:28:27.574Z</time></trkpt><trkpt lat="43.8379933" lon="12.263605"><ele>353.0</ele><time>2026-03-29T09:28:28.574Z</time></trkpt><trkpt lat="43.8381767" lon="12.2638783"><ele>353.0</ele><time>2026-03-29T09:28:29.574Z</time></trkpt><trkpt lat="43.8383633" lon="12.2641533"><ele>347.5</ele><time>2026-03-29T09:28:30.575Z</time></trkpt><trkpt lat="43.8385617" lon="12.2644433"><ele>342.0</ele><time>2026-03-29T09:28:31.575Z</time></trkpt><trkpt lat="43.8387517" lon="12.2647283"><ele>346.0</ele><time>2026-03-29T09:28:32.575Z</time></trkpt><trkpt lat="43.8389433" lon="12.2650033"><ele>350.0</ele><time>2026-03-29T09:28:33.574Z</time></trkpt><trkpt lat="43.8391267" lon="12.2652683"><ele>350.0</ele><time>2026-03-29T09:28:34.575Z</time></trkpt><trkpt lat="43.8393" lon="12.2655217"><ele>350.0</ele><time>2026-03-29T09:28:35.575Z</time></trkpt><trkpt lat="43.8394683" lon="12.2657683"><ele>347.5</ele><time>2026-03-29T09:28:36.575Z</time></trkpt><trkpt lat="43.8396317" lon="12.2660067"><ele>345.0</ele><time>2026-03-29T09:28:37.574Z</time></trkpt><trkpt lat="43.8397967" lon="12.2662483"><ele>349.5</ele><time>2026-03-29T09:28:38.575Z</time></trkpt><trkpt lat="43.8399617" lon="12.2664767"><ele>354.0</ele><time>2026-03-29T09:28:39.575Z</time></trkpt><trkpt lat="43.840115" lon="12.2666983"><ele>352.0</ele><time>2026-03-29T09:28:40.574Z</time></trkpt><trkpt lat="43.8402567" lon="12.2669067"><ele>350.0</ele><time>2026-03-29T09:28:41.575Z</time></trkpt><trkpt lat="43.8403883" lon="12.2671183"><ele>348.0</ele><time>2026-03-29T09:28:42.574Z</time></trkpt><trkpt lat="43.8404967" lon="12.2673517"><ele>348.0</ele><time>2026-03-29T09:28:43.575Z</time></trkpt><trkpt lat="43.840595" lon="12.267605"><ele>348.0</ele><time>2026-03-29T09:28:44.575Z</time></trkpt><trkpt lat="43.8406883" lon="12.2678717"><ele>348.0</ele><time>2026-03-29T09:28:45.575Z</time></trkpt><trkpt lat="43.8407633" lon="12.2681117"><ele>347.3333333333333</ele><time>2026-03-29T09:28:46.574Z</time></trkpt><trkpt lat="43.840835" lon="12.2683333"><ele>346.66666666666663</ele><time>2026-03-29T09:28:47.574Z</time></trkpt><trkpt lat="43.840925" lon="12.2685283"><ele>346.0</ele><time>2026-03-29T09:28:48.574Z</time></trkpt><trkpt lat="43.84104" lon="12.2686883"><ele>346.0</ele><time>2026-03-29T09:28:49.575Z</time></trkpt><trkpt lat="43.8412017" lon="12.268815"><ele>346.0</ele><time>2026-03-29T09:28:50.575Z</time></trkpt><trkpt lat="43.8413867" lon="12.268885"><ele>346.0</ele><time>2026-03-29T09:28:51.575Z</time></trkpt><trkpt lat="43.8415733" lon="12.268895"><ele>346.0</ele><time>2026-03-29T09:28:52.575Z</time></trkpt><trkpt lat="43.8417633" lon="12.2688433"><ele>346.0</ele><time>2026-03-29T09:28:53.575Z</time></trkpt><trkpt lat="43.8419617" lon="12.2687717"><ele>346.0</ele><time>2026-03-29T09:28:54.574Z</time></trkpt><trkpt lat="43.8421367" lon="12.2687067"><ele>344.66666666666663</ele><time>2026-03-29T09:28:55.574Z</time></trkpt><trkpt lat="43.8422933" lon="12.268655"><ele>343.3333333333333</ele><time>2026-03-29T09:28:56.575Z</time></trkpt><trkpt lat="43.8424433" lon="12.268635"><ele>342.0</ele><time>2026-03-29T09:28:57.575Z</time></trkpt><trkpt lat="43.8425983" lon="12.268665"><ele>337.0</ele><time>2026-03-29T09:28:58.575Z</time></trkpt><trkpt lat="43.8427383" lon="12.268765"><ele>332.0</ele><time>2026-03-29T09:28:59.574Z</time></trkpt><trkpt lat="43.8428433" lon="12.26891"><ele>327.0</ele><time>2026-03-29T09:29:00.574Z</time></trkpt><trkpt lat="43.8429133" lon="12.2690933"><ele>327.0</ele><time>2026-03-29T09:29:01.575Z</time></trkpt><trkpt lat="43.8429417" lon="12.269305"><ele>327.0</ele><time>2026-03-29T09:29:02.575Z</time></trkpt><trkpt lat="43.8429467" lon="12.2695317"><ele>327.0</ele><time>2026-03-29T09:29:03.574Z</time></trkpt><trkpt lat="43.8429" lon="12.2697533"><ele>328.6666666666667</ele><time>2026-03-29T09:29:04.574Z</time></trkpt><trkpt lat="43.8428183" lon="12.2699783"><ele>330.33333333333337</ele><time>2026-03-29T09:29:05.575Z</time></trkpt><trkpt lat="43.84272" lon="12.27019"><ele>332.0</ele><time>2026-03-29T09:29:06.575Z</time></trkpt><trkpt lat="43.8425983" lon="12.2704083"><ele>340.6666666666667</ele><time>2026-03-29T09:29:07.575Z</time></trkpt><trkpt lat="43.8424683" lon="12.270605"><ele>349.3333333333333</ele><time>2026-03-29T09:29:08.574Z</time></trkpt><trkpt lat="43.8423517" lon="12.2708217"><ele>358.0</ele><time>2026-03-29T09:29:09.575Z</time></trkpt><trkpt lat="43.84228" lon="12.2710733"><ele>358.0</ele><time>2026-03-29T09:29:10.574Z</time></trkpt><trkpt lat="43.8422317" lon="12.27138"><ele>358.0</ele><time>2026-03-29T09:29:11.575Z</time></trkpt><trkpt lat="43.8421867" lon="12.2716967"><ele>353.5</ele><time>2026-03-29T09:29:12.574Z</time></trkpt><trkpt lat="43.842145" lon="12.27202"><ele>349.0</ele><time>2026-03-29T09:29:13.575Z</time></trkpt><trkpt lat="43.8421017" lon="12.2723333"><ele>348.3333333333333</ele><time>2026-03-29T09:29:14.575Z</time></trkpt><trkpt lat="43.8420683" lon="12.2726317"><ele>347.6666666666667</ele><time>2026-03-29T09:29:15.575Z</time></trkpt><trkpt lat="43.842045" lon="12.2729183"><ele>347.0</ele><time>2026-03-29T09:29:16.575Z</time></trkpt><trkpt lat="43.8420233" lon="12.27318"><ele>347.0</ele><time>2026-03-29T09:29:17.575Z</time></trkpt><trkpt lat="43.8420033" lon="12.2734183"><ele>347.0</ele><time>2026-03-29T09:29:18.575Z</time></trkpt><trkpt lat="43.8420117" lon="12.2736383"><ele>347.0</ele><time>2026-03-29T09:29:19.574Z</time></trkpt><trkpt lat="43.84206" lon="12.2738683"><ele>348.33333333333337</ele><time>2026-03-29T09:29:20.575Z</time></trkpt><trkpt lat="43.8421467" lon="12.2740917"><ele>349.6666666666667</ele><time>2026-03-29T09:29:21.575Z</time></trkpt><trkpt lat="43.8422533" lon="12.2743067"><ele>351.0</ele><time>2026-03-29T09:29:22.575Z</time></trkpt><trkpt lat="43.8423633" lon="12.2744933"><ele>351.0</ele><time>2026-03-29T09:29:23.575Z</time></trkpt><trkpt lat="43.8424933" lon="12.27467"><ele>351.0</ele><time>2026-03-29T09:29:24.574Z</time></trkpt><trkpt lat="43.8426317" lon="12.2748467"><ele>351.0</ele><time>2026-03-29T09:29:25.575Z</time></trkpt><trkpt lat="43.8427767" lon="12.275035"><ele>351.3333333333333</ele><time>2026-03-29T09:29:26.575Z</time></trkpt><trkpt lat="43.842925" lon="12.275235"><ele>351.66666666666663</ele><time>2026-03-29T09:29:27.575Z</time></trkpt><trkpt lat="43.8430667" lon="12.2754367"><ele>352.0</ele><time>2026-03-29T09:29:28.574Z</time></trkpt><trkpt lat="43.8432067" lon="12.2756383"><ele>352.0</ele><time>2026-03-29T09:29:29.575Z</time></trkpt><trkpt lat="43.8433467" lon="12.2758"><ele>352.0</ele><time>2026-03-29T09:29:30.575Z</time></trkpt><trkpt lat="43.8435183" lon="12.27595"><ele>352.0</ele><time>2026-03-29T09:29:31.575Z</time></trkpt><trkpt lat="43.8437133" lon="12.2760533"><ele>350.66666666666663</ele><time>2026-03-29T09:29:32.575Z</time></trkpt><trkpt lat="43.8439233" lon="12.276145"><ele>349.3333333333333</ele><time>2026-03-29T09:29:33.575Z</time></trkpt><trkpt lat="43.8441167" lon="12.2762267"><ele>348.0</ele><time>2026-03-29T09:29:34.575Z</time></trkpt><trkpt lat="43.844305" lon="12.2763117"><ele>347.3333333333333</ele><time>2026-03-29T09:29:35.575Z</time></trkpt><trkpt lat="43.8444767" lon="12.2763867"><ele>346.66666666666663</ele><time>2026-03-29T09:29:36.575Z</time></trkpt><trkpt lat="43.844645" lon="12.2764717"><ele>346.0</ele><time>2026-03-29T09:29:37.575Z</time></trkpt><trkpt lat="43.8448033" lon="12.2766"><ele>346.0</ele><time>2026-03-29T09:29:38.575Z</time></trkpt><trkpt lat="43.8449517" lon="12.27677"><ele>346.0</ele><time>2026-03-29T09:29:39.575Z</time></trkpt><trkpt lat="43.84508" lon="12.2769917"><ele>346.0</ele><time>2026-03-29T09:29:40.574Z</time></trkpt><trkpt lat="43.8451867" lon="12.2772433"><ele>343.3333333333333</ele><time>2026-03-29T09:29:41.575Z</time></trkpt><trkpt lat="43.84527" lon="12.2774917"><ele>340.6666666666667</ele><time>2026-03-29T09:29:42.575Z</time></trkpt><trkpt lat="43.8453567" lon="12.2777217"><ele>338.0</ele><time>2026-03-29T09:29:43.574Z</time></trkpt><trkpt lat="43.8454533" lon="12.27793"><ele>339.6666666666667</ele><time>2026-03-29T09:29:44.575Z</time></trkpt><trkpt lat="43.845585" lon="12.278105"><ele>341.3333333333333</ele><time>2026-03-29T09:29:45.574Z</time></trkpt><trkpt lat="43.8457517" lon="12.2782217"><ele>343.0</ele><time>2026-03-29T09:29:46.575Z</time></trkpt><trkpt lat="43.84593" lon="12.27829"><ele>343.3333333333333</ele><time>2026-03-29T09:29:47.574Z</time></trkpt><trkpt lat="43.8461283" lon="12.278305"><ele>343.6666666666667</ele><time>2026-03-29T09:29:48.574Z</time></trkpt><trkpt lat="43.846355" lon="12.2782917"><ele>344.0</ele><time>2026-03-29T09:29:49.574Z</time></trkpt><trkpt lat="43.8465917" lon="12.2782717"><ele>345.0</ele><time>2026-03-29T09:29:50.575Z</time></trkpt><trkpt lat="43.8468133" lon="12.2782683"><ele>346.0</ele><time>2026-03-29T09:29:51.575Z</time></trkpt><trkpt lat="43.84702" lon="12.2782483"><ele>347.0</ele><time>2026-03-29T09:29:52.575Z</time></trkpt><trkpt lat="43.8472217" lon="12.2782"><ele>347.0</ele><time>2026-03-29T09:29:53.574Z</time></trkpt><trkpt lat="43.8474067" lon="12.2781283"><ele>347.0</ele><time>2026-03-29T09:29:54.575Z</time></trkpt><trkpt lat="43.8475883" lon="12.2779733"><ele>347.0</ele><time>2026-03-29T09:29:55.575Z</time></trkpt><trkpt lat="43.8477633" lon="12.277775"><ele>346.0</ele><time>2026-03-29T09:29:56.575Z</time></trkpt><trkpt lat="43.8479117" lon="12.2775633"><ele>345.0</ele><time>2026-03-29T09:29:57.575Z</time></trkpt><trkpt lat="43.8480617" lon="12.2773667"><ele>344.0</ele><time>2026-03-29T09:29:58.574Z</time></trkpt><trkpt lat="43.8482217" lon="12.2772"><ele>339.6666666666667</ele><time>2026-03-29T09:29:59.575Z</time></trkpt><trkpt lat="43.84839" lon="12.27708"><ele>335.3333333333333</ele><time>2026-03-29T09:30:00.575Z</time></trkpt><trkpt lat="43.8485917" lon="12.2770183"><ele>331.0</ele><time>2026-03-29T09:30:01.574Z</time></trkpt><trkpt lat="43.84881" lon="12.27701"><ele>330.0</ele><time>2026-03-29T09:30:02.574Z</time></trkpt><trkpt lat="43.8490517" lon="12.277005"><ele>329.0</ele><time>2026-03-29T09:30:03.574Z</time></trkpt><trkpt lat="43.849285" lon="12.277"><ele>331.33333333333337</ele><time>2026-03-29T09:30:04.574Z</time></trkpt><trkpt lat="43.8495" lon="12.277"><ele>333.6666666666667</ele><time>2026-03-29T09:30:05.575Z</time></trkpt><trkpt lat="43.8497017" lon="12.2770117"><ele>336.0</ele><time>2026-03-29T09:30:06.574Z</time></trkpt><trkpt lat="43.8499017" lon="12.2769917"><ele>336.0</ele><time>2026-03-29T09:30:07.574Z</time></trkpt><trkpt lat="43.850105" lon="12.2769267"><ele>336.0</ele><time>2026-03-29T09:30:08.575Z</time></trkpt><trkpt lat="43.8503133" lon="12.2768217"><ele>336.0</ele><time>2026-03-29T09:30:09.574Z</time></trkpt><trkpt lat="43.8505283" lon="12.276665"><ele>339.0</ele><time>2026-03-29T09:30:10.575Z</time></trkpt><trkpt lat="43.8507367" lon="12.27649"><ele>342.0</ele><time>2026-03-29T09:30:11.575Z</time></trkpt><trkpt lat="43.8509333" lon="12.2763433"><ele>340.0</ele><time>2026-03-29T09:30:12.574Z</time></trkpt><trkpt lat="43.851115" lon="12.2762033"><ele>338.0</ele><time>2026-03-29T09:30:13.575Z</time></trkpt><trkpt lat="43.8512817" lon="12.276075"><ele>336.0</ele><time>2026-03-29T09:30:14.575Z</time></trkpt><trkpt lat="43.8514367" lon="12.2759717"><ele>336.0</ele><time>2026-03-29T09:30:15.574Z</time></trkpt><trkpt lat="43.8515983" lon="12.27591"><ele>336.0</ele><time>2026-03-29T09:30:16.575Z</time></trkpt><trkpt lat="43.851765" lon="12.2758967"><ele>336.0</ele><time>2026-03-29T09:30:17.575Z</time></trkpt><trkpt lat="43.851935" lon="12.2759383"><ele>333.0</ele><time>2026-03-29T09:30:18.575Z</time></trkpt><trkpt lat="43.8521133" lon="12.2760433"><ele>330.0</ele><time>2026-03-29T09:30:19.575Z</time></trkpt><trkpt lat="43.852295" lon="12.2761933"><ele>327.0</ele><time>2026-03-29T09:30:20.575Z</time></trkpt><trkpt lat="43.852485" lon="12.27637"><ele>327.5</ele><time>2026-03-29T09:30:21.574Z</time></trkpt><trkpt lat="43.852695" lon="12.2765633"><ele>328.0</ele><time>2026-03-29T09:30:22.575Z</time></trkpt><trkpt lat="43.8529183" lon="12.27675"><ele>328.0</ele><time>2026-03-29T09:30:23.575Z</time></trkpt><trkpt lat="43.8531267" lon="12.27694"><ele>328.0</ele><time>2026-03-29T09:30:24.574Z</time></trkpt><trkpt lat="43.85333" lon="12.2771233"><ele>327.3333333333333</ele><time>2026-03-29T09:30:25.574Z</time></trkpt><trkpt lat="43.8535217" lon="12.277285"><ele>326.6666666666667</ele><time>2026-03-29T09:30:26.574Z</time></trkpt><trkpt lat="43.853705" lon="12.27744"><ele>326.0</ele><time>2026-03-29T09:30:27.575Z</time></trkpt><trkpt lat="43.8538733" lon="12.2775933"><ele>326.0</ele><time>2026-03-29T09:30:28.575Z</time></trkpt><trkpt lat="43.8540317" lon="12.2777317"><ele>326.0</ele><time>2026-03-29T09:30:29.575Z</time></trkpt><trkpt lat="43.854185" lon="12.2778567"><ele>326.0</ele><time>2026-03-29T09:30:30.575Z</time></trkpt><trkpt lat="43.8543167" lon="12.2779767"><ele>325.0</ele><time>2026-03-29T09:30:31.574Z</time></trkpt><trkpt lat="43.85442" lon="12.2781217"><ele>324.0</ele><time>2026-03-29T09:30:32.575Z</time></trkpt><trkpt lat="43.8545067" lon="12.2783083"><ele>323.0</ele><time>2026-03-29T09:30:33.575Z</time></trkpt><trkpt lat="43.8545733" lon="12.2785283"><ele>323.0</ele><time>2026-03-29T09:30:34.574Z</time></trkpt><trkpt lat="43.85461" lon="12.2787483"><ele>323.0</ele><time>2026-03-29T09:30:35.575Z</time></trkpt><trkpt lat="43.8546333" lon="12.27895"><ele>323.0</ele><time>2026-03-29T09:30:36.575Z</time></trkpt><trkpt lat="43.8546433" lon="12.2791367"><ele>323.0</ele><time>2026-03-29T09:30:37.574Z</time></trkpt><trkpt lat="43.8546233" lon="12.2793167"><ele>323.0</ele><time>2026-03-29T09:30:38.575Z</time></trkpt><trkpt lat="43.8545683" lon="12.27951"><ele>323.0</ele><time>2026-03-29T09:30:39.575Z</time></trkpt><trkpt lat="43.8544883" lon="12.2796833"><ele>323.0</ele><time>2026-03-29T09:30:40.575Z</time></trkpt><trkpt lat="43.8543667" lon="12.2798417"><ele>324.33333333333337</ele><time>2026-03-29T09:30:41.575Z</time></trkpt><trkpt lat="43.85425" lon="12.2799867"><ele>325.6666666666667</ele><time>2026-03-29T09:30:42.575Z</time></trkpt><trkpt lat="43.8541367" lon="12.2801217"><ele>327.0</ele><time>2026-03-29T09:30:43.574Z</time></trkpt><trkpt lat="43.854045" lon="12.2802867"><ele>327.0</ele><time>2026-03-29T09:30:44.574Z</time></trkpt><trkpt lat="43.853985" lon="12.28048"><ele>327.0</ele><time>2026-03-29T09:30:45.575Z</time></trkpt><trkpt lat="43.853935" lon="12.2807067"><ele>327.0</ele><time>2026-03-29T09:30:46.574Z</time></trkpt><trkpt lat="43.8538983" lon="12.2809367"><ele>325.75</ele><time>2026-03-29T09:30:47.574Z</time></trkpt><trkpt lat="43.8538767" lon="12.2811617"><ele>324.5</ele><time>2026-03-29T09:30:48.574Z</time></trkpt><trkpt lat="43.8538583" lon="12.28136"><ele>323.25</ele><time>2026-03-29T09:30:49.575Z</time></trkpt><trkpt lat="43.853835" lon="12.2815367"><ele>322.0</ele><time>2026-03-29T09:30:50.575Z</time></trkpt><trkpt lat="43.8538283" lon="12.281705"><ele>322.0</ele><time>2026-03-29T09:30:51.575Z</time></trkpt><trkpt lat="43.853885" lon="12.2818783"><ele>322.0</ele><time>2026-03-29T09:30:52.575Z</time></trkpt><trkpt lat="43.853985" lon="12.2820533"><ele>322.0</ele><time>2026-03-29T09:30:53.575Z</time></trkpt><trkpt lat="43.85409" lon="12.28221"><ele>323.0</ele><time>2026-03-29T09:30:54.575Z</time></trkpt><trkpt lat="43.8542133" lon="12.282315"><ele>324.0</ele><time>2026-03-29T09:30:55.575Z</time></trkpt><trkpt lat="43.8543483" lon="12.28236"><ele>325.0</ele><time>2026-03-29T09:30:56.575Z</time></trkpt><trkpt lat="43.854505" lon="12.2823367"><ele>326.0</ele><time>2026-03-29T09:30:57.575Z</time></trkpt><trkpt lat="43.8546783" lon="12.2822667"><ele>327.6666666666667</ele><time>2026-03-29T09:30:58.574Z</time></trkpt><trkpt lat="43.8548617" lon="12.2821683"><ele>329.3333333333333</ele><time>2026-03-29T09:30:59.575Z</time></trkpt><trkpt lat="43.8550517" lon="12.2821033"><ele>331.0</ele><time>2026-03-29T09:31:00.575Z</time></trkpt><trkpt lat="43.855235" lon="12.28207"><ele>331.0</ele><time>2026-03-29T09:31:01.574Z</time></trkpt><trkpt lat="43.8554017" lon="12.2820417"><ele>331.0</ele><time>2026-03-29T09:31:02.574Z</time></trkpt><trkpt lat="43.85556" lon="12.2820083"><ele>331.0</ele><time>2026-03-29T09:31:03.574Z</time></trkpt><trkpt lat="43.855705" lon="12.2819567"><ele>331.0</ele><time>2026-03-29T09:31:04.575Z</time></trkpt><trkpt lat="43.8558333" lon="12.2818567"><ele>331.0</ele><time>2026-03-29T09:31:05.575Z</time></trkpt><trkpt lat="43.8559367" lon="12.2817167"><ele>331.0</ele><time>2026-03-29T09:31:06.575Z</time></trkpt><trkpt lat="43.856015" lon="12.281515"><ele>331.0</ele><time>2026-03-29T09:31:07.575Z</time></trkpt><trkpt lat="43.8560567" lon="12.2813033"><ele>331.0</ele><time>2026-03-29T09:31:08.575Z</time></trkpt><trkpt lat="43.8561067" lon="12.2810883"><ele>331.0</ele><time>2026-03-29T09:31:09.575Z</time></trkpt><trkpt lat="43.8561717" lon="12.2809067"><ele>331.0</ele><time>2026-03-29T09:31:10.575Z</time></trkpt><trkpt lat="43.8562683" lon="12.2807617"><ele>331.0</ele><time>2026-03-29T09:31:11.575Z</time></trkpt><trkpt lat="43.8564017" lon="12.2806567"><ele>331.0</ele><time>2026-03-29T09:31:12.575Z</time></trkpt><trkpt lat="43.8565667" lon="12.2805933"><ele>326.66666666666663</ele><time>2026-03-29T09:31:13.575Z</time></trkpt><trkpt lat="43.85676" lon="12.280525"><ele>322.3333333333333</ele><time>2026-03-29T09:31:14.575Z</time></trkpt><trkpt lat="43.8569683" lon="12.2804433"><ele>318.0</ele><time>2026-03-29T09:31:15.574Z</time></trkpt><trkpt lat="43.8571783" lon="12.2803483"><ele>318.0</ele><time>2026-03-29T09:31:16.575Z</time></trkpt><trkpt lat="43.8573833" lon="12.2802417"><ele>318.0</ele><time>2026-03-29T09:31:17.574Z</time></trkpt><trkpt lat="43.857575" lon="12.2801417"><ele>318.0</ele><time>2026-03-29T09:31:18.575Z</time></trkpt><trkpt lat="43.857755" lon="12.280045"><ele>319.0</ele><time>2026-03-29T09:31:19.574Z</time></trkpt><trkpt lat="43.85794" lon="12.2799783"><ele>320.0</ele><time>2026-03-29T09:31:20.575Z</time></trkpt><trkpt lat="43.8581167" lon="12.2799383"><ele>321.0</ele><time>2026-03-29T09:31:21.575Z</time></trkpt><trkpt lat="43.8583033" lon="12.2799317"><ele>318.3333333333333</ele><time>2026-03-29T09:31:22.575Z</time></trkpt><trkpt lat="43.8584917" lon="12.2799833"><ele>315.66666666666663</ele><time>2026-03-29T09:31:23.575Z</time></trkpt><trkpt lat="43.8586683" lon="12.2801067"><ele>313.0</ele><time>2026-03-29T09:31:24.575Z</time></trkpt><trkpt lat="43.85882" lon="12.2802883"><ele>313.0</ele><time>2026-03-29T09:31:25.574Z</time></trkpt><trkpt lat="43.8589717" lon="12.2805233"><ele>313.0</ele><time>2026-03-29T09:31:26.575Z</time></trkpt><trkpt lat="43.85911" lon="12.280795"><ele>317.5</ele><time>2026-03-29T09:31:27.575Z</time></trkpt><trkpt lat="43.8592383" lon="12.281085"><ele>322.0</ele><time>2026-03-29T09:31:28.574Z</time></trkpt><trkpt lat="43.859365" lon="12.28137"><ele>317.5</ele><time>2026-03-29T09:31:29.575Z</time></trkpt><trkpt lat="43.859515" lon="12.28163"><ele>313.0</ele><time>2026-03-29T09:31:30.574Z</time></trkpt><trkpt lat="43.859675" lon="12.2818633"><ele>313.0</ele><time>2026-03-29T09:31:31.575Z</time></trkpt><trkpt lat="43.8598467" lon="12.282075"><ele>313.0</ele><time>2026-03-29T09:31:32.575Z</time></trkpt><trkpt lat="43.86005" lon="12.2822683"><ele>311.5</ele><time>2026-03-29T09:31:33.575Z</time></trkpt><trkpt lat="43.8602583" lon="12.2824283"><ele>310.0</ele><time>2026-03-29T09:31:34.575Z</time></trkpt><trkpt lat="43.8604667" lon="12.2825833"><ele>310.0</ele><time>2026-03-29T09:31:35.574Z</time></trkpt><trkpt lat="43.8606717" lon="12.282745"><ele>310.0</ele><time>2026-03-29T09:31:36.574Z</time></trkpt><trkpt lat="43.8608617" lon="12.2829183"><ele>311.0</ele><time>2026-03-29T09:31:37.574Z</time></trkpt><trkpt lat="43.8610383" lon="12.2830983"><ele>312.0</ele><time>2026-03-29T09:31:38.575Z</time></trkpt><trkpt lat="43.8612017" lon="12.2832783"><ele>313.0</ele><time>2026-03-29T09:31:39.575Z</time></trkpt><trkpt lat="43.8613483" lon="12.2834383"><ele>313.0</ele><time>2026-03-29T09:31:40.575Z</time></trkpt><trkpt lat="43.8614933" lon="12.2835767"><ele>313.0</ele><time>2026-03-29T09:31:41.575Z</time></trkpt><trkpt lat="43.8616483" lon="12.283665"><ele>313.0</ele><time>2026-03-29T09:31:42.575Z</time></trkpt><trkpt lat="43.8618183" lon="12.2836883"><ele>314.0</ele><time>2026-03-29T09:31:43.575Z</time></trkpt><trkpt lat="43.8619967" lon="12.2836567"><ele>315.0</ele><time>2026-03-29T09:31:44.575Z</time></trkpt><trkpt lat="43.8621667" lon="12.2835717"><ele>316.0</ele><time>2026-03-29T09:31:45.575Z</time></trkpt><trkpt lat="43.8623283" lon="12.28346"><ele>316.0</ele><time>2026-03-29T09:31:46.574Z</time></trkpt><trkpt lat="43.862465" lon="12.2833333"><ele>316.0</ele><time>2026-03-29T09:31:47.575Z</time></trkpt><trkpt lat="43.86261" lon="12.2832367"><ele>316.0</ele><time>2026-03-29T09:31:48.575Z</time></trkpt><trkpt lat="43.8627683" lon="12.28318"><ele>315.66666666666663</ele><time>2026-03-29T09:31:49.575Z</time></trkpt><trkpt lat="43.8629283" lon="12.2831583"><ele>315.3333333333333</ele><time>2026-03-29T09:31:50.575Z</time></trkpt><trkpt lat="43.8630817" lon="12.2831683"><ele>315.0</ele><time>2026-03-29T09:31:51.575Z</time></trkpt><trkpt lat="43.863225" lon="12.2832483"><ele>315.0</ele><time>2026-03-29T09:31:52.575Z</time></trkpt><trkpt lat="43.8633517" lon="12.2833683"><ele>315.0</ele><time>2026-03-29T09:31:53.575Z</time></trkpt><trkpt lat="43.86347" lon="12.2835167"><ele>315.0</ele><time>2026-03-29T09:31:54.575Z</time></trkpt><trkpt lat="43.863565" lon="12.28366"><ele>313.5</ele><time>2026-03-29T09:31:55.575Z</time></trkpt><trkpt lat="43.86367" lon="12.283775"><ele>312.0</ele><time>2026-03-29T09:31:56.574Z</time></trkpt><trkpt lat="43.8637817" lon="12.2838383"><ele>310.5</ele><time>2026-03-29T09:31:57.574Z</time></trkpt><trkpt lat="43.8639033" lon="12.2838233"><ele>309.0</ele><time>2026-03-29T09:31:58.574Z</time></trkpt><trkpt lat="43.8640133" lon="12.2837533"><ele>309.0</ele><time>2026-03-29T09:31:59.574Z</time></trkpt><trkpt lat="43.8640967" lon="12.28365"><ele>309.0</ele><time>2026-03-29T09:32:00.574Z</time></trkpt><trkpt lat="43.8641767" lon="12.2835517"><ele>309.0</ele><time>2026-03-29T09:32:01.574Z</time></trkpt><trkpt lat="43.864255" lon="12.283465"><ele>309.0</ele><time>2026-03-29T09:32:02.575Z</time></trkpt><trkpt lat="43.8643483" lon="12.2833983"><ele>309.0</ele><time>2026-03-29T09:32:03.575Z</time></trkpt><trkpt lat="43.8644467" lon="12.2833683"><ele>307.0</ele><time>2026-03-29T09:32:04.574Z</time></trkpt><trkpt lat="43.86455" lon="12.28338"><ele>305.0</ele><time>2026-03-29T09:32:05.574Z</time></trkpt><trkpt lat="43.86465" lon="12.283425"><ele>303.0</ele><time>2026-03-29T09:32:06.575Z</time></trkpt><trkpt lat="43.864745" lon="12.28349"><ele>301.0</ele><time>2026-03-29T09:32:07.574Z</time></trkpt><trkpt lat="43.86483" lon="12.28356"><ele>299.0</ele><time>2026-03-29T09:32:08.575Z</time></trkpt><trkpt lat="43.86492" lon="12.2836333"><ele>299.0</ele><time>2026-03-29T09:32:09.575Z</time></trkpt><trkpt lat="43.865015" lon="12.2836917"><ele>299.0</ele><time>2026-03-29T09:32:10.574Z</time></trkpt><trkpt lat="43.86511" lon="12.2837383"><ele>299.0</ele><time>2026-03-29T09:32:11.575Z</time></trkpt><trkpt lat="43.8652133" lon="12.2837567"><ele>299.0</ele><time>2026-03-29T09:32:12.575Z</time></trkpt><trkpt lat="43.8653217" lon="12.2837483"><ele>299.0</ele><time>2026-03-29T09:32:13.575Z</time></trkpt><trkpt lat="43.86544" lon="12.28369"><ele>296.75</ele><time>2026-03-29T09:32:14.575Z</time></trkpt><trkpt lat="43.8655867" lon="12.2836233"><ele>294.5</ele><time>2026-03-29T09:32:15.575Z</time></trkpt><trkpt lat="43.8657317" lon="12.283575"><ele>292.25</ele><time>2026-03-29T09:32:16.575Z</time></trkpt><trkpt lat="43.8658617" lon="12.2835517"><ele>290.0</ele><time>2026-03-29T09:32:17.575Z</time></trkpt><trkpt lat="43.8659867" lon="12.2835533"><ele>289.4</ele><time>2026-03-29T09:32:18.575Z</time></trkpt><trkpt lat="43.8660917" lon="12.2835883"><ele>288.8</ele><time>2026-03-29T09:32:19.574Z</time></trkpt><trkpt lat="43.8661883" lon="12.2836433"><ele>288.2</ele><time>2026-03-29T09:32:20.574Z</time></trkpt><trkpt lat="43.86628" lon="12.2837283"><ele>287.6</ele><time>2026-03-29T09:32:21.575Z</time></trkpt><trkpt lat="43.8663683" lon="12.2838433"><ele>287.0</ele><time>2026-03-29T09:32:22.575Z</time></trkpt><trkpt lat="43.8664567" lon="12.28397"><ele>287.0</ele><time>2026-03-29T09:32:23.575Z</time></trkpt><trkpt lat="43.8665283" lon="12.2841067"><ele>287.0</ele><time>2026-03-29T09:32:24.575Z</time></trkpt><trkpt lat="43.866605" lon="12.284235"><ele>287.0</ele><time>2026-03-29T09:32:25.575Z</time></trkpt><trkpt lat="43.8666783" lon="12.2843767"><ele>287.0</ele><time>2026-03-29T09:32:26.575Z</time></trkpt><trkpt lat="43.866755" lon="12.2845317"><ele>286.5</ele><time>2026-03-29T09:32:27.575Z</time></trkpt><trkpt lat="43.866845" lon="12.2846917"><ele>286.0</ele><time>2026-03-29T09:32:28.575Z</time></trkpt><trkpt lat="43.86694" lon="12.284825"><ele>285.5</ele><time>2026-03-29T09:32:29.574Z</time></trkpt><trkpt lat="43.867025" lon="12.2849567"><ele>285.0</ele><time>2026-03-29T09:32:30.575Z</time></trkpt><trkpt lat="43.8671167" lon="12.2850633"><ele>285.0</ele><time>2026-03-29T09:32:31.575Z</time></trkpt><trkpt lat="43.8672267" lon="12.2851667"><ele>285.0</ele><time>2026-03-29T09:32:32.575Z</time></trkpt><trkpt lat="43.8673583" lon="12.2852067"><ele>285.0</ele><time>2026-03-29T09:32:33.575Z</time></trkpt><trkpt lat="43.8675033" lon="12.2851817"><ele>285.0</ele><time>2026-03-29T09:32:34.575Z</time></trkpt><trkpt lat="43.86765" lon="12.2851067"><ele>283.0</ele><time>2026-03-29T09:32:35.575Z</time></trkpt><trkpt lat="43.867815" lon="12.2849833"><ele>281.0</ele><time>2026-03-29T09:32:36.574Z</time></trkpt><trkpt lat="43.8679917" lon="12.2848517"><ele>279.0</ele><time>2026-03-29T09:32:37.575Z</time></trkpt><trkpt lat="43.8681783" lon="12.28472"><ele>279.0</ele><time>2026-03-29T09:32:38.574Z</time></trkpt><trkpt lat="43.8683617" lon="12.2845817"><ele>279.0</ele><time>2026-03-29T09:32:39.575Z</time></trkpt><trkpt lat="43.8685283" lon="12.2844583"><ele>279.0</ele><time>2026-03-29T09:32:40.575Z</time></trkpt><trkpt lat="43.8686933" lon="12.2843367"><ele>281.3333333333333</ele><time>2026-03-29T09:32:41.575Z</time></trkpt><trkpt lat="43.8688633" lon="12.2842367"><ele>283.66666666666663</ele><time>2026-03-29T09:32:42.575Z</time></trkpt><trkpt lat="43.8690333" lon="12.2841617"><ele>286.0</ele><time>2026-03-29T09:32:43.575Z</time></trkpt><trkpt lat="43.8692017" lon="12.2841167"><ele>286.3333333333333</ele><time>2026-03-29T09:32:44.575Z</time></trkpt><trkpt lat="43.8694017" lon="12.284095"><ele>286.6666666666667</ele><time>2026-03-29T09:32:45.575Z</time></trkpt><trkpt lat="43.86962" lon="12.2840867"><ele>287.0</ele><time>2026-03-29T09:32:46.575Z</time></trkpt><trkpt lat="43.869855" lon="12.2840883"><ele>287.0</ele><time>2026-03-29T09:32:47.574Z</time></trkpt><trkpt lat="43.8701017" lon="12.28409"><ele>287.0</ele><time>2026-03-29T09:32:48.575Z</time></trkpt><trkpt lat="43.87033" lon="12.2840783"><ele>285.5</ele><time>2026-03-29T09:32:49.575Z</time></trkpt><trkpt lat="43.8705533" lon="12.2840483"><ele>284.0</ele><time>2026-03-29T09:32:50.575Z</time></trkpt><trkpt lat="43.8707867" lon="12.2839917"><ele>289.0</ele><time>2026-03-29T09:32:51.575Z</time></trkpt><trkpt lat="43.8710167" lon="12.2839233"><ele>294.0</ele><time>2026-03-29T09:32:52.574Z</time></trkpt><trkpt lat="43.8712283" lon="12.2838617"><ele>294.0</ele><time>2026-03-29T09:32:53.575Z</time></trkpt><trkpt lat="43.871425" lon="12.2838067"><ele>294.0</ele><time>2026-03-29T09:32:54.575Z</time></trkpt><trkpt lat="43.8716133" lon="12.2837517"><ele>294.0</ele><time>2026-03-29T09:32:55.575Z</time></trkpt><trkpt lat="43.8718" lon="12.28369"><ele>292.6666666666667</ele><time>2026-03-29T09:32:56.575Z</time></trkpt><trkpt lat="43.8719867" lon="12.28362"><ele>291.33333333333337</ele><time>2026-03-29T09:32:57.575Z</time></trkpt><trkpt lat="43.8721817" lon="12.28355"><ele>290.0</ele><time>2026-03-29T09:32:58.575Z</time></trkpt><trkpt lat="43.8723933" lon="12.2834567"><ele>290.0</ele><time>2026-03-29T09:32:59.575Z</time></trkpt><trkpt lat="43.872615" lon="12.2833683"><ele>290.0</ele><time>2026-03-29T09:33:00.575Z</time></trkpt><trkpt lat="43.87283" lon="12.2832767"><ele>290.0</ele><time>2026-03-29T09:33:01.575Z</time></trkpt><trkpt lat="43.87303" lon="12.283165"><ele>290.0</ele><time>2026-03-29T09:33:02.575Z</time></trkpt><trkpt lat="43.873215" lon="12.2830467"><ele>290.0</ele><time>2026-03-29T09:33:03.575Z</time></trkpt><trkpt lat="43.8733833" lon="12.2829167"><ele>293.6666666666667</ele><time>2026-03-29T09:33:04.574Z</time></trkpt><trkpt lat="43.87356" lon="12.28278"><ele>297.3333333333333</ele><time>2026-03-29T09:33:05.575Z</time></trkpt><trkpt lat="43.8737467" lon="12.28268"><ele>301.0</ele><time>2026-03-29T09:33:06.575Z</time></trkpt><trkpt lat="43.873945" lon="12.282625"><ele>301.0</ele><time>2026-03-29T09:33:07.575Z</time></trkpt><trkpt lat="43.87415" lon="12.2826"><ele>301.0</ele><time>2026-03-29T09:33:08.575Z</time></trkpt><trkpt lat="43.8743667" lon="12.2825817"><ele>301.0</ele><time>2026-03-29T09:33:09.574Z</time></trkpt><trkpt lat="43.8745683" lon="12.2825633"><ele>303.0</ele><time>2026-03-29T09:33:10.575Z</time></trkpt><trkpt lat="43.8747533" lon="12.2825517"><ele>305.0</ele><time>2026-03-29T09:33:11.575Z</time></trkpt><trkpt lat="43.874925" lon="12.2825617"><ele>307.0</ele><time>2026-03-29T09:33:12.575Z</time></trkpt><trkpt lat="43.8750833" lon="12.2826233"><ele>306.66666666666663</ele><time>2026-03-29T09:33:13.574Z</time></trkpt><trkpt lat="43.87523" lon="12.2827333"><ele>306.3333333333333</ele><time>2026-03-29T09:33:14.574Z</time></trkpt><trkpt lat="43.875365" lon="12.2828617"><ele>306.0</ele><time>2026-03-29T09:33:15.575Z</time></trkpt><trkpt lat="43.8754817" lon="12.28299"><ele>306.0</ele><time>2026-03-29T09:33:16.575Z</time></trkpt><trkpt lat="43.8756" lon="12.2830833"><ele>306.0</ele><time>2026-03-29T09:33:17.575Z</time></trkpt><trkpt lat="43.87571" lon="12.2831217"><ele>306.0</ele><time>2026-03-29T09:33:18.575Z</time></trkpt><trkpt lat="43.8758317" lon="12.283095"><ele>306.0</ele><time>2026-03-29T09:33:19.575Z</time></trkpt><trkpt lat="43.8759333" lon="12.2829733"><ele>304.6666666666667</ele><time>2026-03-29T09:33:20.574Z</time></trkpt><trkpt lat="43.876015" lon="12.2827783"><ele>303.33333333333337</ele><time>2026-03-29T09:33:21.575Z</time></trkpt><trkpt lat="43.8760867" lon="12.2825583"><ele>302.0</ele><time>2026-03-29T09:33:22.574Z</time></trkpt><trkpt lat="43.87617" lon="12.2823283"><ele>302.33333333333337</ele><time>2026-03-29T09:33:23.575Z</time></trkpt><trkpt lat="43.8762833" lon="12.2821017"><ele>302.6666666666667</ele><time>2026-03-29T09:33:24.574Z</time></trkpt><trkpt lat="43.8764167" lon="12.281915"><ele>303.0</ele><time>2026-03-29T09:33:25.575Z</time></trkpt><trkpt lat="43.8765617" lon="12.2817583"><ele>303.0</ele><time>2026-03-29T09:33:26.575Z</time></trkpt><trkpt lat="43.8767067" lon="12.28162"><ele>303.0</ele><time>2026-03-29T09:33:27.575Z</time></trkpt><trkpt lat="43.87682" lon="12.281485"><ele>303.0</ele><time>2026-03-29T09:33:28.575Z</time></trkpt><trkpt lat="43.8769083" lon="12.2813167"><ele>303.75</ele><time>2026-03-29T09:33:29.574Z</time></trkpt><trkpt lat="43.876955" lon="12.2811283"><ele>304.5</ele><time>2026-03-29T09:33:30.575Z</time></trkpt><trkpt lat="43.876975" lon="12.2809317"><ele>305.25</ele><time>2026-03-29T09:33:31.575Z</time></trkpt><trkpt lat="43.8770083" lon="12.28074"><ele>306.0</ele><time>2026-03-29T09:33:32.575Z</time></trkpt><trkpt lat="43.8770867" lon="12.2805883"><ele>310.0</ele><time>2026-03-29T09:33:33.575Z</time></trkpt><trkpt lat="43.8772033" lon="12.2804817"><ele>314.0</ele><time>2026-03-29T09:33:34.575Z</time></trkpt><trkpt lat="43.8773583" lon="12.2804083"><ele>318.0</ele><time>2026-03-29T09:33:35.574Z</time></trkpt><trkpt lat="43.8775117" lon="12.2804067"><ele>317.3333333333333</ele><time>2026-03-29T09:33:36.575Z</time></trkpt><trkpt lat="43.8776683" lon="12.2804517"><ele>316.66666666666663</ele><time>2026-03-29T09:33:37.575Z</time></trkpt><trkpt lat="43.87783" lon="12.2805333"><ele>316.0</ele><time>2026-03-29T09:33:38.575Z</time></trkpt><trkpt lat="43.878005" lon="12.2806417"><ele>316.0</ele><time>2026-03-29T09:33:39.575Z</time></trkpt><trkpt lat="43.878195" lon="12.2807817"><ele>316.0</ele><time>2026-03-29T09:33:40.575Z</time></trkpt><trkpt lat="43.8783983" lon="12.2809283"><ele>316.0</ele><time>2026-03-29T09:33:41.575Z</time></trkpt><trkpt lat="43.8785983" lon="12.2810717"><ele>324.5</ele><time>2026-03-29T09:33:42.575Z</time></trkpt><trkpt lat="43.87881" lon="12.2811833"><ele>333.0</ele><time>2026-03-29T09:33:43.575Z</time></trkpt><trkpt lat="43.8790383" lon="12.2812833"><ele>338.0</ele><time>2026-03-29T09:33:44.575Z</time></trkpt><trkpt lat="43.8792817" lon="12.2813767"><ele>343.0</ele><time>2026-03-29T09:33:45.575Z</time></trkpt><trkpt lat="43.8795067" lon="12.281465"><ele>341.66666666666663</ele><time>2026-03-29T09:33:46.574Z</time></trkpt><trkpt lat="43.8797117" lon="12.28156"><ele>340.3333333333333</ele><time>2026-03-29T09:33:47.574Z</time></trkpt><trkpt lat="43.8799067" lon="12.28165"><ele>339.0</ele><time>2026-03-29T09:33:48.574Z</time></trkpt><trkpt lat="43.8801" lon="12.2817333"><ele>339.0</ele><time>2026-03-29T09:33:49.575Z</time></trkpt><trkpt lat="43.8802767" lon="12.2818117"><ele>339.0</ele><time>2026-03-29T09:33:50.574Z</time></trkpt><trkpt lat="43.8804433" lon="12.2819217"><ele>339.0</ele><time>2026-03-29T09:33:51.575Z</time></trkpt><trkpt lat="43.8805917" lon="12.2820667"><ele>339.0</ele><time>2026-03-29T09:33:52.574Z</time></trkpt><trkpt lat="43.8807167" lon="12.2822483"><ele>339.0</ele><time>2026-03-29T09:33:53.575Z</time></trkpt><trkpt lat="43.8808267" lon="12.2824317"><ele>339.0</ele><time>2026-03-29T09:33:54.575Z</time></trkpt><trkpt lat="43.880935" lon="12.282595"><ele>338.5</ele><time>2026-03-29T09:33:55.575Z</time></trkpt><trkpt lat="43.8810283" lon="12.28275"><ele>338.0</ele><time>2026-03-29T09:33:56.574Z</time></trkpt><trkpt lat="43.8811167" lon="12.2828867"><ele>337.5</ele><time>2026-03-29T09:33:57.574Z</time></trkpt><trkpt lat="43.8811933" lon="12.2830183"><ele>337.0</ele><time>2026-03-29T09:33:58.575Z</time></trkpt><trkpt lat="43.8812667" lon="12.2831217"><ele>335.3333333333333</ele><time>2026-03-29T09:33:59.575Z</time></trkpt><trkpt lat="43.8813233" lon="12.2831933"><ele>333.66666666666663</ele><time>2026-03-29T09:34:00.575Z</time></trkpt><trkpt lat="43.88137" lon="12.2832567"><ele>332.0</ele><time>2026-03-29T09:34:01.575Z</time></trkpt><trkpt lat="43.881425" lon="12.283335"><ele>330.3333333333333</ele><time>2026-03-29T09:34:02.576Z</time></trkpt><trkpt lat="43.8814833" lon="12.283435"><ele>328.6666666666667</ele><time>2026-03-29T09:34:03.576Z</time></trkpt><trkpt lat="43.8815383" lon="12.28354"><ele>327.0</ele><time>2026-03-29T09:34:04.575Z</time></trkpt><trkpt lat="43.8815983" lon="12.2836217"><ele>327.0</ele><time>2026-03-29T09:34:05.575Z</time></trkpt><trkpt lat="43.8816767" lon="12.2836917"><ele>327.0</ele><time>2026-03-29T09:34:06.576Z</time></trkpt><trkpt lat="43.8817817" lon="12.28376"><ele>327.0</ele><time>2026-03-29T09:34:07.576Z</time></trkpt><trkpt lat="43.8819067" lon="12.283825"><ele>327.0</ele><time>2026-03-29T09:34:08.576Z</time></trkpt><trkpt lat="43.8820367" lon="12.28387"><ele>327.75</ele><time>2026-03-29T09:34:09.576Z</time></trkpt><trkpt lat="43.88216" lon="12.2838933"><ele>328.5</ele><time>2026-03-29T09:34:10.576Z</time></trkpt><trkpt lat="43.8822883" lon="12.28389"><ele>329.25</ele><time>2026-03-29T09:34:11.575Z</time></trkpt><trkpt lat="43.8824183" lon="12.2838833"><ele>330.0</ele><time>2026-03-29T09:34:12.575Z</time></trkpt><trkpt lat="43.8825367" lon="12.28386"><ele>326.3333333333333</ele><time>2026-03-29T09:34:13.576Z</time></trkpt><trkpt lat="43.8826633" lon="12.283795"><ele>322.66666666666663</ele><time>2026-03-29T09:34:14.576Z</time></trkpt><trkpt lat="43.8828017" lon="12.2837083"><ele>319.0</ele><time>2026-03-29T09:34:15.575Z</time></trkpt><trkpt lat="43.8829683" lon="12.2835933"><ele>319.0</ele><time>2026-03-29T09:34:16.576Z</time></trkpt><trkpt lat="43.8831333" lon="12.2834717"><ele>319.0</ele><time>2026-03-29T09:34:17.576Z</time></trkpt><trkpt lat="43.8832933" lon="12.2833567"><ele>319.0</ele><time>2026-03-29T09:34:18.575Z</time></trkpt><trkpt lat="43.8834517" lon="12.283245"><ele>321.3333333333333</ele><time>2026-03-29T09:34:19.575Z</time></trkpt><trkpt lat="43.8835967" lon="12.283145"><ele>323.6666666666667</ele><time>2026-03-29T09:34:20.575Z</time></trkpt><trkpt lat="43.8837433" lon="12.2830883"><ele>326.0</ele><time>2026-03-29T09:34:21.576Z</time></trkpt><trkpt lat="43.8839017" lon="12.2830917"><ele>321.33333333333337</ele><time>2026-03-29T09:34:22.576Z</time></trkpt><trkpt lat="43.884055" lon="12.283135"><ele>316.6666666666667</ele><time>2026-03-29T09:34:23.575Z</time></trkpt><trkpt lat="43.8842033" lon="12.2831933"><ele>312.0</ele><time>2026-03-29T09:34:24.576Z</time></trkpt><trkpt lat="43.884355" lon="12.2832483"><ele>312.0</ele><time>2026-03-29T09:34:25.575Z</time></trkpt><trkpt lat="43.8844917" lon="12.283305"><ele>312.0</ele><time>2026-03-29T09:34:26.576Z</time></trkpt><trkpt lat="43.88461" lon="12.283375"><ele>312.0</ele><time>2026-03-29T09:34:27.576Z</time></trkpt><trkpt lat="43.884725" lon="12.2834683"><ele>312.0</ele><time>2026-03-29T09:34:28.576Z</time></trkpt><trkpt lat="43.8848283" lon="12.2835767"><ele>312.0</ele><time>2026-03-29T09:34:29.576Z</time></trkpt><trkpt lat="43.884915" lon="12.2836933"><ele>312.0</ele><time>2026-03-29T09:34:30.576Z</time></trkpt><trkpt lat="43.8849767" lon="12.283815"><ele>312.0</ele><time>2026-03-29T09:34:31.576Z</time></trkpt><trkpt lat="43.885015" lon="12.2839467"><ele>312.0</ele><time>2026-03-29T09:34:32.576Z</time></trkpt><trkpt lat="43.885055" lon="12.2840667"><ele>312.0</ele><time>2026-03-29T09:34:33.576Z</time></trkpt><trkpt lat="43.885095" lon="12.2841833"><ele>309.8</ele><time>2026-03-29T09:34:34.576Z</time></trkpt><trkpt lat="43.8851367" lon="12.2843033"><ele>307.6</ele><time>2026-03-29T09:34:35.576Z</time></trkpt><trkpt lat="43.8851967" lon="12.2844133"><ele>305.40000000000003</ele><time>2026-03-29T09:34:36.575Z</time></trkpt><trkpt lat="43.8852633" lon="12.2844933"><ele>303.2</ele><time>2026-03-29T09:34:37.576Z</time></trkpt><trkpt lat="43.8853483" lon="12.2845417"><ele>301.0</ele><time>2026-03-29T09:34:38.575Z</time></trkpt><trkpt lat="43.88545" lon="12.2845633"><ele>301.0</ele><time>2026-03-29T09:34:39.575Z</time></trkpt><trkpt lat="43.88555" lon="12.284575"><ele>301.0</ele><time>2026-03-29T09:34:40.576Z</time></trkpt><trkpt lat="43.8856533" lon="12.28459"><ele>301.0</ele><time>2026-03-29T09:34:41.576Z</time></trkpt><trkpt lat="43.885755" lon="12.2846017"><ele>301.0</ele><time>2026-03-29T09:34:42.576Z</time></trkpt><trkpt lat="43.88586" lon="12.2846317"><ele>301.0</ele><time>2026-03-29T09:34:43.576Z</time></trkpt><trkpt lat="43.88596" lon="12.28469"><ele>299.0</ele><time>2026-03-29T09:34:44.576Z</time></trkpt><trkpt lat="43.8860683" lon="12.2847883"><ele>297.0</ele><time>2026-03-29T09:34:45.575Z</time></trkpt><trkpt lat="43.8861683" lon="12.284905"><ele>295.0</ele><time>2026-03-29T09:34:46.576Z</time></trkpt><trkpt lat="43.886255" lon="12.2850217"><ele>293.0</ele><time>2026-03-29T09:34:47.576Z</time></trkpt><trkpt lat="43.8863417" lon="12.2851367"><ele>293.0</ele><time>2026-03-29T09:34:48.575Z</time></trkpt><trkpt lat="43.8864333" lon="12.285245"><ele>293.0</ele><time>2026-03-29T09:34:49.575Z</time></trkpt><trkpt lat="43.8865217" lon="12.28534"><ele>293.0</ele><time>2026-03-29T09:34:50.575Z</time></trkpt><trkpt lat="43.886625" lon="12.2854083"><ele>293.0</ele><time>2026-03-29T09:34:51.576Z</time></trkpt><trkpt lat="43.8867333" lon="12.2854583"><ele>292.75</ele><time>2026-03-29T09:34:52.576Z</time></trkpt><trkpt lat="43.886845" lon="12.28548"><ele>292.5</ele><time>2026-03-29T09:34:53.575Z</time></trkpt><trkpt lat="43.8869717" lon="12.2854783"><ele>292.25</ele><time>2026-03-29T09:34:54.575Z</time></trkpt><trkpt lat="43.88709" lon="12.28546"><ele>292.0</ele><time>2026-03-29T09:34:55.576Z</time></trkpt><trkpt lat="43.887205" lon="12.28544"><ele>292.0</ele><time>2026-03-29T09:34:56.576Z</time></trkpt><trkpt lat="43.8873233" lon="12.2854267"><ele>292.0</ele><time>2026-03-29T09:34:57.576Z</time></trkpt><trkpt lat="43.88744" lon="12.2854467"><ele>292.0</ele><time>2026-03-29T09:34:58.576Z</time></trkpt><trkpt lat="43.8875433" lon="12.28551"><ele>292.0</ele><time>2026-03-29T09:34:59.575Z</time></trkpt><trkpt lat="43.8876383" lon="12.2855983"><ele>291.0</ele><time>2026-03-29T09:35:00.575Z</time></trkpt><trkpt lat="43.8877233" lon="12.2856967"><ele>290.0</ele><time>2026-03-29T09:35:01.575Z</time></trkpt><trkpt lat="43.8877967" lon="12.2857983"><ele>289.0</ele><time>2026-03-29T09:35:02.576Z</time></trkpt><trkpt lat="43.8878617" lon="12.285885"><ele>288.0</ele><time>2026-03-29T09:35:03.575Z</time></trkpt><trkpt lat="43.8879233" lon="12.28597"><ele>287.0</ele><time>2026-03-29T09:35:04.576Z</time></trkpt><trkpt lat="43.8879867" lon="12.2860517"><ele>287.0</ele><time>2026-03-29T09:35:05.575Z</time></trkpt><trkpt lat="43.8880467" lon="12.2861283"><ele>287.0</ele><time>2026-03-29T09:35:06.576Z</time></trkpt><trkpt lat="43.8881" lon="12.2861967"><ele>287.0</ele><time>2026-03-29T09:35:07.575Z</time></trkpt><trkpt lat="43.8881533" lon="12.2862683"><ele>287.0</ele><time>2026-03-29T09:35:08.576Z</time></trkpt><trkpt lat="43.8881983" lon="12.2863483"><ele>287.0</ele><time>2026-03-29T09:35:09.576Z</time></trkpt><trkpt lat="43.888245" lon="12.2864433"><ele>287.0</ele><time>2026-03-29T09:35:10.576Z</time></trkpt><trkpt lat="43.8882833" lon="12.2865383"><ele>286.83333333333337</ele><time>2026-03-29T09:35:11.576Z</time></trkpt><trkpt lat="43.8883117" lon="12.2866317"><ele>286.6666666666667</ele><time>2026-03-29T09:35:12.576Z</time></trkpt><trkpt lat="43.8883167" lon="12.2867367"><ele>286.5</ele><time>2026-03-29T09:35:13.576Z</time></trkpt><trkpt lat="43.8883083" lon="12.286845"><ele>286.3333333333333</ele><time>2026-03-29T09:35:14.576Z</time></trkpt><trkpt lat="43.888315" lon="12.2869633"><ele>286.16666666666663</ele><time>2026-03-29T09:35:15.576Z</time></trkpt><trkpt lat="43.8883433" lon="12.28708"><ele>286.0</ele><time>2026-03-29T09:35:16.576Z</time></trkpt><trkpt lat="43.8883767" lon="12.287205"><ele>285.2</ele><time>2026-03-29T09:35:17.576Z</time></trkpt><trkpt lat="43.88841" lon="12.28734"><ele>284.40000000000003</ele><time>2026-03-29T09:35:18.576Z</time></trkpt><trkpt lat="43.8884417" lon="12.2874683"><ele>283.6</ele><time>2026-03-29T09:35:19.576Z</time></trkpt><trkpt lat="43.8884933" lon="12.2875867"><ele>282.8</ele><time>2026-03-29T09:35:20.576Z</time></trkpt><trkpt lat="43.888555" lon="12.2877"><ele>282.0</ele><time>2026-03-29T09:35:21.576Z</time></trkpt><trkpt lat="43.8886283" lon="12.2877983"><ele>282.8</ele><time>2026-03-29T09:35:22.576Z</time></trkpt><trkpt lat="43.88871" lon="12.2878883"><ele>283.6</ele><time>2026-03-29T09:35:23.576Z</time></trkpt><trkpt lat="43.8888083" lon="12.2879667"><ele>284.40000000000003</ele><time>2026-03-29T09:35:24.575Z</time></trkpt><trkpt lat="43.888915" lon="12.2880167"><ele>285.2</ele><time>2026-03-29T09:35:25.576Z</time></trkpt><trkpt lat="43.889025" lon="12.2880517"><ele>286.0</ele><time>2026-03-29T09:35:26.575Z</time></trkpt><trkpt lat="43.8891367" lon="12.288095"><ele>286.0</ele><time>2026-03-29T09:35:27.576Z</time></trkpt><trkpt lat="43.8892483" lon="12.2881333"><ele>286.0</ele><time>2026-03-29T09:35:28.575Z</time></trkpt><trkpt lat="43.8893633" lon="12.2881717"><ele>286.0</ele><time>2026-03-29T09:35:29.575Z</time></trkpt><trkpt lat="43.8894767" lon="12.288215"><ele>286.0</ele><time>2026-03-29T09:35:30.575Z</time></trkpt><trkpt lat="43.88959" lon="12.2882617"><ele>287.0</ele><time>2026-03-29T09:35:31.576Z</time></trkpt><trkpt lat="43.889695" lon="12.288305"><ele>288.0</ele><time>2026-03-29T09:35:32.576Z</time></trkpt><trkpt lat="43.8898" lon="12.28834"><ele>289.0</ele><time>2026-03-29T09:35:33.576Z</time></trkpt><trkpt lat="43.8899117" lon="12.288385"><ele>290.0</ele><time>2026-03-29T09:35:34.576Z</time></trkpt><trkpt lat="43.890025" lon="12.2884217"><ele>291.25</ele><time>2026-03-29T09:35:35.576Z</time></trkpt><trkpt lat="43.8901383" lon="12.2884583"><ele>292.5</ele><time>2026-03-29T09:35:36.576Z</time></trkpt><trkpt lat="43.8902483" lon="12.2884983"><ele>293.75</ele><time>2026-03-29T09:35:37.575Z</time></trkpt><trkpt lat="43.890355" lon="12.2885333"><ele>295.0</ele><time>2026-03-29T09:35:38.576Z</time></trkpt><trkpt lat="43.8904633" lon="12.2885717"><ele>295.0</ele><time>2026-03-29T09:35:39.576Z</time></trkpt><trkpt lat="43.89057" lon="12.2886117"><ele>295.0</ele><time>2026-03-29T09:35:40.576Z</time></trkpt><trkpt lat="43.89067" lon="12.28865"><ele>295.0</ele><time>2026-03-29T09:35:41.576Z</time></trkpt><trkpt lat="43.8907767" lon="12.2886917"><ele>295.0</ele><time>2026-03-29T09:35:42.576Z</time></trkpt><trkpt lat="43.8908867" lon="12.288735"><ele>295.0</ele><time>2026-03-29T09:35:43.576Z</time></trkpt><trkpt lat="43.890995" lon="12.2887783"><ele>294.5</ele><time>2026-03-29T09:35:44.576Z</time></trkpt><trkpt lat="43.8911" lon="12.2888183"><ele>294.0</ele><time>2026-03-29T09:35:45.576Z</time></trkpt><trkpt lat="43.891215" lon="12.28886"><ele>293.5</ele><time>2026-03-29T09:35:46.575Z</time></trkpt><trkpt lat="43.8913317" lon="12.2889033"><ele>293.0</ele><time>2026-03-29T09:35:47.576Z</time></trkpt><trkpt lat="43.8914367" lon="12.288945"><ele>293.0</ele><time>2026-03-29T09:35:48.576Z</time></trkpt><trkpt lat="43.891535" lon="12.28897"><ele>293.0</ele><time>2026-03-29T09:35:49.576Z</time></trkpt><trkpt lat="43.8916417" lon="12.2890117"><ele>293.0</ele><time>2026-03-29T09:35:50.575Z</time></trkpt><trkpt lat="43.8917433" lon="12.2890433"><ele>293.0</ele><time>2026-03-29T09:35:51.576Z</time></trkpt><trkpt lat="43.8918467" lon="12.2890817"><ele>293.0</ele><time>2026-03-29T09:35:52.576Z</time></trkpt><trkpt lat="43.89195" lon="12.2891167"><ele>293.0</ele><time>2026-03-29T09:35:53.576Z</time></trkpt><trkpt lat="43.892055" lon="12.2891533"><ele>293.0</ele><time>2026-03-29T09:35:54.576Z</time></trkpt><trkpt lat="43.892155" lon="12.28919"><ele>293.0</ele><time>2026-03-29T09:35:55.576Z</time></trkpt><trkpt lat="43.8922383" lon="12.2892233"><ele>293.0</ele><time>2026-03-29T09:35:56.576Z</time></trkpt><trkpt lat="43.8923017" lon="12.2892517"><ele>293.0</ele><time>2026-03-29T09:35:57.575Z</time></trkpt><trkpt lat="43.8924017" lon="12.2893033"><ele>293.0</ele><time>2026-03-29T09:35:59.576Z</time></trkpt><trkpt lat="43.8924733" lon="12.2893367"><ele>293.0</ele><time>2026-03-29T09:36:01.575Z</time></trkpt><trkpt lat="43.8926417" lon="12.28936"><ele>293.0</ele><time>2026-03-29T09:36:51.576Z</time></trkpt><trkpt lat="43.892705" lon="12.28938"><ele>293.0</ele><time>2026-03-29T09:36:52.575Z</time></trkpt><trkpt lat="43.8927883" lon="12.28941"><ele>293.0</ele><time>2026-03-29T09:36:53.576Z</time></trkpt><trkpt lat="43.8928933" lon="12.2894483"><ele>293.0</ele><time>2026-03-29T09:36:54.575Z</time></trkpt><trkpt lat="43.8930067" lon="12.2894833"><ele>293.0</ele><time>2026-03-29T09:36:55.575Z</time></trkpt><trkpt lat="43.8931267" lon="12.2895"><ele>293.0</ele><time>2026-03-29T09:36:56.575Z</time></trkpt><trkpt lat="43.8932567" lon="12.2894933"><ele>293.0</ele><time>2026-03-29T09:36:57.575Z</time></trkpt><trkpt lat="43.8933933" lon="12.2894567"><ele>292.25</ele><time>2026-03-29T09:36:58.576Z</time></trkpt><trkpt lat="43.8935167" lon="12.28943"><ele>291.5</ele><time>2026-03-29T09:36:59.576Z</time></trkpt><trkpt lat="43.8936433" lon="12.2893983"><ele>290.75</ele><time>2026-03-29T09:37:00.576Z</time></trkpt><trkpt lat="43.8937667" lon="12.289365"><ele>290.0</ele><time>2026-03-29T09:37:01.576Z</time></trkpt><trkpt lat="43.89388" lon="12.2893333"><ele>290.0</ele><time>2026-03-29T09:37:02.575Z</time></trkpt><trkpt lat="43.894" lon="12.2892967"><ele>290.0</ele><time>2026-03-29T09:37:03.575Z</time></trkpt><trkpt lat="43.89412" lon="12.28927"><ele>290.0</ele><time>2026-03-29T09:37:04.576Z</time></trkpt><trkpt lat="43.89424" lon="12.2892433"><ele>290.0</ele><time>2026-03-29T09:37:05.576Z</time></trkpt><trkpt lat="43.8943483" lon="12.2892083"><ele>289.25</ele><time>2026-03-29T09:37:06.575Z</time></trkpt><trkpt lat="43.8944583" lon="12.2891833"><ele>288.5</ele><time>2026-03-29T09:37:07.576Z</time></trkpt><trkpt lat="43.8945683" lon="12.2891483"><ele>287.75</ele><time>2026-03-29T09:37:08.575Z</time></trkpt><trkpt lat="43.89468" lon="12.289085"><ele>287.0</ele><time>2026-03-29T09:37:09.575Z</time></trkpt><trkpt lat="43.8947833" lon="12.2890017"><ele>287.25</ele><time>2026-03-29T09:37:10.576Z</time></trkpt><trkpt lat="43.8948733" lon="12.2888983"><ele>287.5</ele><time>2026-03-29T09:37:11.576Z</time></trkpt><trkpt lat="43.8949433" lon="12.2887767"><ele>287.75</ele><time>2026-03-29T09:37:12.576Z</time></trkpt><trkpt lat="43.895015" lon="12.2886433"><ele>288.0</ele><time>2026-03-29T09:37:13.575Z</time></trkpt><trkpt lat="43.8950783" lon="12.2884983"><ele>286.5</ele><time>2026-03-29T09:37:14.576Z</time></trkpt><trkpt lat="43.8951333" lon="12.2883483"><ele>285.0</ele><time>2026-03-29T09:37:15.576Z</time></trkpt><trkpt lat="43.895185" lon="12.2882033"><ele>283.5</ele><time>2026-03-29T09:37:16.576Z</time></trkpt><trkpt lat="43.8952533" lon="12.2880683"><ele>282.0</ele><time>2026-03-29T09:37:17.575Z</time></trkpt><trkpt lat="43.89534" lon="12.28795"><ele>282.0</ele><time>2026-03-29T09:37:18.575Z</time></trkpt><trkpt lat="43.8954333" lon="12.2878433"><ele>282.0</ele><time>2026-03-29T09:37:19.575Z</time></trkpt><trkpt lat="43.8955283" lon="12.2877367"><ele>282.0</ele><time>2026-03-29T09:37:20.576Z</time></trkpt><trkpt lat="43.895625" lon="12.287645"><ele>282.0</ele><time>2026-03-29T09:37:21.575Z</time></trkpt><trkpt lat="43.8957317" lon="12.2876"><ele>282.0</ele><time>2026-03-29T09:37:22.576Z</time></trkpt><trkpt lat="43.8958517" lon="12.2875917"><ele>282.0</ele><time>2026-03-29T09:37:23.575Z</time></trkpt><trkpt lat="43.8959667" lon="12.2876333"><ele>282.0</ele><time>2026-03-29T09:37:24.576Z</time></trkpt><trkpt lat="43.89609" lon="12.2877233"><ele>282.0</ele><time>2026-03-29T09:37:25.575Z</time></trkpt><trkpt lat="43.8962067" lon="12.287835"><ele>281.75</ele><time>2026-03-29T09:37:26.576Z</time></trkpt><trkpt lat="43.8963317" lon="12.287945"><ele>281.5</ele><time>2026-03-29T09:37:27.576Z</time></trkpt><trkpt lat="43.8964533" lon="12.2880583"><ele>281.25</ele><time>2026-03-29T09:37:28.576Z</time></trkpt><trkpt lat="43.8965783" lon="12.28817"><ele>281.0</ele><time>2026-03-29T09:37:29.576Z</time></trkpt><trkpt lat="43.8967033" lon="12.2882833"><ele>280.25</ele><time>2026-03-29T09:37:30.576Z</time></trkpt><trkpt lat="43.89683" lon="12.28839"><ele>279.5</ele><time>2026-03-29T09:37:31.576Z</time></trkpt><trkpt lat="43.8969533" lon="12.2885083"><ele>278.75</ele><time>2026-03-29T09:37:32.575Z</time></trkpt><trkpt lat="43.8970717" lon="12.2886133"><ele>278.0</ele><time>2026-03-29T09:37:33.576Z</time></trkpt><trkpt lat="43.8971817" lon="12.2887067"><ele>278.0</ele><time>2026-03-29T09:37:34.575Z</time></trkpt><trkpt lat="43.8972883" lon="12.288795"><ele>278.0</ele><time>2026-03-29T09:37:35.575Z</time></trkpt><trkpt lat="43.8973833" lon="12.2888867"><ele>278.0</ele><time>2026-03-29T09:37:36.575Z</time></trkpt><trkpt lat="43.8974617" lon="12.2889583"><ele>278.0</ele><time>2026-03-29T09:37:37.575Z</time></trkpt><trkpt lat="43.8975267" lon="12.28901"><ele>278.0</ele><time>2026-03-29T09:37:38.575Z</time></trkpt><trkpt lat="43.89764" lon="12.2890583"><ele>277.2</ele><time>2026-03-29T09:37:40.575Z</time></trkpt><trkpt lat="43.8977083" lon="12.2890583"><ele>276.4</ele><time>2026-03-29T09:37:41.576Z</time></trkpt><trkpt lat="43.8977883" lon="12.289015"><ele>275.59999999999997</ele><time>2026-03-29T09:37:42.576Z</time></trkpt><trkpt lat="43.89789" lon="12.28896"><ele>274.8</ele><time>2026-03-29T09:37:43.576Z</time></trkpt><trkpt lat="43.8980117" lon="12.288925"><ele>274.0</ele><time>2026-03-29T09:37:44.576Z</time></trkpt><trkpt lat="43.8981433" lon="12.2889067"><ele>274.0</ele><time>2026-03-29T09:37:45.575Z</time></trkpt><trkpt lat="43.8982667" lon="12.2889"><ele>274.0</ele><time>2026-03-29T09:37:46.576Z</time></trkpt><trkpt lat="43.8983783" lon="12.288905"><ele>274.0</ele><time>2026-03-29T09:37:47.576Z</time></trkpt><trkpt lat="43.898485" lon="12.2889183"><ele>274.0</ele><time>2026-03-29T09:37:48.576Z</time></trkpt><trkpt lat="43.89858" lon="12.28896"><ele>274.0</ele><time>2026-03-29T09:37:49.576Z</time></trkpt><trkpt lat="43.8986717" lon="12.2890017"><ele>271.25</ele><time>2026-03-29T09:37:50.575Z</time></trkpt><trkpt lat="43.8987633" lon="12.28906"><ele>268.5</ele><time>2026-03-29T09:37:51.576Z</time></trkpt><trkpt lat="43.8988683" lon="12.28915"><ele>265.75</ele><time>2026-03-29T09:37:52.576Z</time></trkpt><trkpt lat="43.8989767" lon="12.2892683"><ele>263.0</ele><time>2026-03-29T09:37:53.576Z</time></trkpt><trkpt lat="43.89909" lon="12.289395"><ele>263.0</ele><time>2026-03-29T09:37:54.576Z</time></trkpt><trkpt lat="43.8991967" lon="12.289535"><ele>263.0</ele><time>2026-03-29T09:37:55.576Z</time></trkpt><trkpt lat="43.8992917" lon="12.2897017"><ele>263.0</ele><time>2026-03-29T09:37:56.576Z</time></trkpt><trkpt lat="43.8993817" lon="12.2898667"><ele>263.0</ele><time>2026-03-29T09:37:57.576Z</time></trkpt><trkpt lat="43.8994783" lon="12.2900317"><ele>263.33333333333337</ele><time>2026-03-29T09:37:58.576Z</time></trkpt><trkpt lat="43.8995667" lon="12.2901917"><ele>263.6666666666667</ele><time>2026-03-29T09:37:59.576Z</time></trkpt><trkpt lat="43.8996567" lon="12.2903583"><ele>264.0</ele><time>2026-03-29T09:38:00.576Z</time></trkpt><trkpt lat="43.8997567" lon="12.2905233"><ele>262.75</ele><time>2026-03-29T09:38:01.575Z</time></trkpt><trkpt lat="43.8998517" lon="12.2906883"><ele>261.5</ele><time>2026-03-29T09:38:02.576Z</time></trkpt><trkpt lat="43.8999383" lon="12.2908483"><ele>260.25</ele><time>2026-03-29T09:38:03.575Z</time></trkpt><trkpt lat="43.90002" lon="12.291005"><ele>259.0</ele><time>2026-03-29T09:38:04.576Z</time></trkpt><trkpt lat="43.9000817" lon="12.2911683"><ele>259.3333333333333</ele><time>2026-03-29T09:38:05.576Z</time></trkpt><trkpt lat="43.9001317" lon="12.2913533"><ele>259.6666666666667</ele><time>2026-03-29T09:38:06.575Z</time></trkpt><trkpt lat="43.9001583" lon="12.29156"><ele>260.0</ele><time>2026-03-29T09:38:07.575Z</time></trkpt><trkpt lat="43.9001733" lon="12.29178"><ele>260.0</ele><time>2026-03-29T09:38:08.576Z</time></trkpt><trkpt lat="43.9001833" lon="12.2920083"><ele>260.0</ele><time>2026-03-29T09:38:09.576Z</time></trkpt><trkpt lat="43.9001983" lon="12.2922233"><ele>260.0</ele><time>2026-03-29T09:38:10.575Z</time></trkpt><trkpt lat="43.9002167" lon="12.2924583"><ele>258.6666666666667</ele><time>2026-03-29T09:38:11.576Z</time></trkpt><trkpt lat="43.9002317" lon="12.2926967"><ele>257.3333333333333</ele><time>2026-03-29T09:38:12.576Z</time></trkpt><trkpt lat="43.9002433" lon="12.2929183"><ele>256.0</ele><time>2026-03-29T09:38:13.575Z</time></trkpt><trkpt lat="43.9002733" lon="12.2931333"><ele>254.66666666666666</ele><time>2026-03-29T09:38:14.575Z</time></trkpt><trkpt lat="43.9003317" lon="12.293355"><ele>253.33333333333331</ele><time>2026-03-29T09:38:15.576Z</time></trkpt><trkpt lat="43.9004283" lon="12.293555"><ele>252.0</ele><time>2026-03-29T09:38:16.576Z</time></trkpt><trkpt lat="43.900565" lon="12.29375"><ele>250.33333333333331</ele><time>2026-03-29T09:38:17.576Z</time></trkpt><trkpt lat="43.900745" lon="12.2939333"><ele>248.66666666666666</ele><time>2026-03-29T09:38:18.576Z</time></trkpt><trkpt lat="43.9009133" lon="12.29412"><ele>247.0</ele><time>2026-03-29T09:38:19.576Z</time></trkpt><trkpt lat="43.9010733" lon="12.2942933"><ele>247.0</ele><time>2026-03-29T09:38:20.575Z</time></trkpt><trkpt lat="43.9012317" lon="12.29445"><ele>247.0</ele><time>2026-03-29T09:38:21.576Z</time></trkpt><trkpt lat="43.9013783" lon="12.2945933"><ele>247.0</ele><time>2026-03-29T09:38:22.575Z</time></trkpt><trkpt lat="43.90154" lon="12.2947317"><ele>244.66666666666666</ele><time>2026-03-29T09:38:23.576Z</time></trkpt><trkpt lat="43.9017133" lon="12.2948417"><ele>242.33333333333331</ele><time>2026-03-29T09:38:24.576Z</time></trkpt><trkpt lat="43.9019083" lon="12.2949233"><ele>240.0</ele><time>2026-03-29T09:38:25.576Z</time></trkpt><trkpt lat="43.9021167" lon="12.294985"><ele>240.0</ele><time>2026-03-29T09:38:26.576Z</time></trkpt><trkpt lat="43.9023083" lon="12.2950383"><ele>240.0</ele><time>2026-03-29T09:38:27.576Z</time></trkpt><trkpt lat="43.9024933" lon="12.29508"><ele>240.0</ele><time>2026-03-29T09:38:28.575Z</time></trkpt><trkpt lat="43.9026683" lon="12.2951117"><ele>239.33333333333331</ele><time>2026-03-29T09:38:29.576Z</time></trkpt><trkpt lat="43.9028417" lon="12.29511"><ele>238.66666666666666</ele><time>2026-03-29T09:38:30.576Z</time></trkpt><trkpt lat="43.9029983" lon="12.2950683"><ele>238.0</ele><time>2026-03-29T09:38:31.576Z</time></trkpt><trkpt lat="43.9031467" lon="12.2949817"><ele>238.0</ele><time>2026-03-29T09:38:32.576Z</time></trkpt><trkpt lat="43.90327" lon="12.2948267"><ele>238.0</ele><time>2026-03-29T09:38:33.575Z</time></trkpt><trkpt lat="43.90338" lon="12.2946117"><ele>238.0</ele><time>2026-03-29T09:38:34.575Z</time></trkpt><trkpt lat="43.9034983" lon="12.29437"><ele>237.66666666666666</ele><time>2026-03-29T09:38:35.576Z</time></trkpt><trkpt lat="43.903625" lon="12.2941467"><ele>237.33333333333331</ele><time>2026-03-29T09:38:36.576Z</time></trkpt><trkpt lat="43.9037683" lon="12.2939533"><ele>237.0</ele><time>2026-03-29T09:38:37.576Z</time></trkpt><trkpt lat="43.9039117" lon="12.29378"><ele>238.0</ele><time>2026-03-29T09:38:38.576Z</time></trkpt><trkpt lat="43.9040433" lon="12.2936233"><ele>239.0</ele><time>2026-03-29T09:38:39.576Z</time></trkpt><trkpt lat="43.904185" lon="12.2935017"><ele>240.0</ele><time>2026-03-29T09:38:40.576Z</time></trkpt><trkpt lat="43.9043333" lon="12.2933933"><ele>240.0</ele><time>2026-03-29T09:38:41.576Z</time></trkpt><trkpt lat="43.9045" lon="12.2933283"><ele>240.0</ele><time>2026-03-29T09:38:42.576Z</time></trkpt><trkpt lat="43.9046567" lon="12.29331"><ele>240.0</ele><time>2026-03-29T09:38:43.576Z</time></trkpt><trkpt lat="43.9048167" lon="12.2933367"><ele>240.0</ele><time>2026-03-29T09:38:44.576Z</time></trkpt><trkpt lat="43.9049783" lon="12.29339"><ele>240.0</ele><time>2026-03-29T09:38:45.575Z</time></trkpt><trkpt lat="43.9051383" lon="12.2934467"><ele>240.0</ele><time>2026-03-29T09:38:46.576Z</time></trkpt><trkpt lat="43.905305" lon="12.2934983"><ele>240.66666666666669</ele><time>2026-03-29T09:38:47.576Z</time></trkpt><trkpt lat="43.9054633" lon="12.2935483"><ele>241.33333333333334</ele><time>2026-03-29T09:38:48.576Z</time></trkpt><trkpt lat="43.905625" lon="12.2935933"><ele>242.0</ele><time>2026-03-29T09:38:49.576Z</time></trkpt><trkpt lat="43.9057667" lon="12.2936233"><ele>242.0</ele><time>2026-03-29T09:38:50.576Z</time></trkpt><trkpt lat="43.9059083" lon="12.2936417"><ele>242.0</ele><time>2026-03-29T09:38:51.576Z</time></trkpt><trkpt lat="43.9060467" lon="12.2936483"><ele>242.0</ele><time>2026-03-29T09:38:52.576Z</time></trkpt><trkpt lat="43.9061717" lon="12.2936733"><ele>242.0</ele><time>2026-03-29T09:38:53.576Z</time></trkpt><trkpt lat="43.9062867" lon="12.2937067"><ele>241.75</ele><time>2026-03-29T09:38:54.576Z</time></trkpt><trkpt lat="43.9064133" lon="12.293735"><ele>241.5</ele><time>2026-03-29T09:38:55.575Z</time></trkpt><trkpt lat="43.9065433" lon="12.29376"><ele>241.25</ele><time>2026-03-29T09:38:56.575Z</time></trkpt><trkpt lat="43.90668" lon="12.2937917"><ele>241.0</ele><time>2026-03-29T09:38:57.575Z</time></trkpt><trkpt lat="43.906815" lon="12.2938233"><ele>240.25</ele><time>2026-03-29T09:38:58.576Z</time></trkpt><trkpt lat="43.9069367" lon="12.2938567"><ele>239.5</ele><time>2026-03-29T09:38:59.576Z</time></trkpt><trkpt lat="43.9070533" lon="12.2938867"><ele>238.75</ele><time>2026-03-29T09:39:00.576Z</time></trkpt><trkpt lat="43.907175" lon="12.2939133"><ele>238.0</ele><time>2026-03-29T09:39:01.576Z</time></trkpt><trkpt lat="43.9072967" lon="12.293935"><ele>238.25</ele><time>2026-03-29T09:39:02.576Z</time></trkpt><trkpt lat="43.9074133" lon="12.293955"><ele>238.5</ele><time>2026-03-29T09:39:03.575Z</time></trkpt><trkpt lat="43.9075233" lon="12.29398"><ele>238.75</ele><time>2026-03-29T09:39:04.576Z</time></trkpt><trkpt lat="43.907635" lon="12.29401"><ele>239.0</ele><time>2026-03-29T09:39:05.576Z</time></trkpt><trkpt lat="43.9077483" lon="12.2940433"><ele>239.0</ele><time>2026-03-29T09:39:06.576Z</time></trkpt><trkpt lat="43.9078617" lon="12.2940767"><ele>238.99999999999997</ele><time>2026-03-29T09:39:07.576Z</time></trkpt><trkpt lat="43.90797" lon="12.2941083"><ele>238.99999999999997</ele><time>2026-03-29T09:39:08.576Z</time></trkpt><trkpt lat="43.9080817" lon="12.2941517"><ele>239.0</ele><time>2026-03-29T09:39:09.576Z</time></trkpt><trkpt lat="43.9081717" lon="12.29421"><ele>239.0</ele><time>2026-03-29T09:39:10.576Z</time></trkpt><trkpt lat="43.908245" lon="12.2942717"><ele>239.0</ele><time>2026-03-29T09:39:11.576Z</time></trkpt><trkpt lat="43.9082983" lon="12.2943367"><ele>238.99999999999997</ele><time>2026-03-29T09:39:12.575Z</time></trkpt><trkpt lat="43.9083667" lon="12.29447"><ele>238.99999999999997</ele><time>2026-03-29T09:39:14.576Z</time></trkpt><trkpt lat="43.908395" lon="12.2945583"><ele>239.0</ele><time>2026-03-29T09:39:15.576Z</time></trkpt><trkpt lat="43.9084367" lon="12.2946817"><ele>239.0</ele><time>2026-03-29T09:39:16.576Z</time></trkpt><trkpt lat="43.9085117" lon="12.2948567"><ele>240.66666666666669</ele><time>2026-03-29T09:39:17.575Z</time></trkpt><trkpt lat="43.908585" lon="12.29507"><ele>242.33333333333331</ele><time>2026-03-29T09:39:18.575Z</time></trkpt><trkpt lat="43.9086533" lon="12.295315"><ele>244.0</ele><time>2026-03-29T09:39:19.576Z</time></trkpt><trkpt lat="43.908745" lon="12.295585"><ele>243.33333333333331</ele><time>2026-03-29T09:39:20.576Z</time></trkpt><trkpt lat="43.908835" lon="12.2958683"><ele>242.66666666666669</ele><time>2026-03-29T09:39:21.576Z</time></trkpt><trkpt lat="43.90892" lon="12.2961417"><ele>242.0</ele><time>2026-03-29T09:39:22.575Z</time></trkpt><trkpt lat="43.9089917" lon="12.2964"><ele>241.66666666666669</ele><time>2026-03-29T09:39:23.576Z</time></trkpt><trkpt lat="43.9090467" lon="12.2966467"><ele>241.33333333333331</ele><time>2026-03-29T09:39:24.575Z</time></trkpt><trkpt lat="43.9090933" lon="12.29688"><ele>241.0</ele><time>2026-03-29T09:39:25.576Z</time></trkpt><trkpt lat="43.9091717" lon="12.2970883"><ele>242.66666666666666</ele><time>2026-03-29T09:39:26.576Z</time></trkpt><trkpt lat="43.9092883" lon="12.2973133"><ele>244.33333333333331</ele><time>2026-03-29T09:39:27.575Z</time></trkpt><trkpt lat="43.909405" lon="12.2975217"><ele>246.0</ele><time>2026-03-29T09:39:28.575Z</time></trkpt><trkpt lat="43.90952" lon="12.2977217"><ele>246.0</ele><time>2026-03-29T09:39:29.575Z</time></trkpt><trkpt lat="43.9096617" lon="12.2979083"><ele>246.0</ele><time>2026-03-29T09:39:30.576Z</time></trkpt><trkpt lat="43.9098317" lon="12.2980817"><ele>246.0</ele><time>2026-03-29T09:39:31.576Z</time></trkpt><trkpt lat="43.9100017" lon="12.2982267"><ele>246.66666666666669</ele><time>2026-03-29T09:39:32.576Z</time></trkpt><trkpt lat="43.9101683" lon="12.29835"><ele>247.33333333333334</ele><time>2026-03-29T09:39:33.576Z</time></trkpt><trkpt lat="43.9103167" lon="12.2984733"><ele>248.0</ele><time>2026-03-29T09:39:34.575Z</time></trkpt><trkpt lat="43.9104383" lon="12.2986333"><ele>248.0</ele><time>2026-03-29T09:39:35.575Z</time></trkpt><trkpt lat="43.9105267" lon="12.2988267"><ele>248.0</ele><time>2026-03-29T09:39:36.576Z</time></trkpt><trkpt lat="43.9105683" lon="12.29906"><ele>248.0</ele><time>2026-03-29T09:39:37.575Z</time></trkpt><trkpt lat="43.9105667" lon="12.2993233"><ele>247.33333333333334</ele><time>2026-03-29T09:39:38.576Z</time></trkpt><trkpt lat="43.9105583" lon="12.2996133"><ele>246.66666666666669</ele><time>2026-03-29T09:39:39.575Z</time></trkpt><trkpt lat="43.91054" lon="12.29994"><ele>246.0</ele><time>2026-03-29T09:39:40.576Z</time></trkpt><trkpt lat="43.9105133" lon="12.300265"><ele>246.0</ele><time>2026-03-29T09:39:41.576Z</time></trkpt><trkpt lat="43.91048" lon="12.30057"><ele>246.0</ele><time>2026-03-29T09:39:42.576Z</time></trkpt><trkpt lat="43.9104433" lon="12.3008717"><ele>246.0</ele><time>2026-03-29T09:39:43.575Z</time></trkpt><trkpt lat="43.9103917" lon="12.3011367"><ele>247.0</ele><time>2026-03-29T09:39:44.576Z</time></trkpt><trkpt lat="43.91034" lon="12.3014"><ele>248.0</ele><time>2026-03-29T09:39:45.576Z</time></trkpt><trkpt lat="43.9102967" lon="12.3016583"><ele>249.0</ele><time>2026-03-29T09:39:46.576Z</time></trkpt><trkpt lat="43.910265" lon="12.3019017"><ele>249.33333333333331</ele><time>2026-03-29T09:39:47.576Z</time></trkpt><trkpt lat="43.9102333" lon="12.3021367"><ele>249.66666666666666</ele><time>2026-03-29T09:39:48.575Z</time></trkpt><trkpt lat="43.9101833" lon="12.3023367"><ele>250.0</ele><time>2026-03-29T09:39:49.575Z</time></trkpt><trkpt lat="43.9101067" lon="12.3025017"><ele>247.75</ele><time>2026-03-29T09:39:50.576Z</time></trkpt><trkpt lat="43.91004" lon="12.3026583"><ele>245.5</ele><time>2026-03-29T09:39:51.576Z</time></trkpt><trkpt lat="43.910015" lon="12.302805"><ele>243.25</ele><time>2026-03-29T09:39:52.576Z</time></trkpt><trkpt lat="43.910045" lon="12.3029883"><ele>241.0</ele><time>2026-03-29T09:39:53.576Z</time></trkpt><trkpt lat="43.91012" lon="12.3031583"><ele>241.0</ele><time>2026-03-29T09:39:54.576Z</time></trkpt><trkpt lat="43.9102333" lon="12.303305"><ele>241.0</ele><time>2026-03-29T09:39:55.576Z</time></trkpt><trkpt lat="43.91035" lon="12.3034433"><ele>241.0</ele><time>2026-03-29T09:39:56.575Z</time></trkpt><trkpt lat="43.91046" lon="12.3035717"><ele>241.0</ele><time>2026-03-29T09:39:57.576Z</time></trkpt><trkpt lat="43.9105683" lon="12.3037017"><ele>241.0</ele><time>2026-03-29T09:39:58.576Z</time></trkpt><trkpt lat="43.9106833" lon="12.3038283"><ele>241.0</ele><time>2026-03-29T09:39:59.575Z</time></trkpt><trkpt lat="43.910825" lon="12.303935"><ele>237.66666666666666</ele><time>2026-03-29T09:40:00.576Z</time></trkpt><trkpt lat="43.9109817" lon="12.3040233"><ele>234.33333333333331</ele><time>2026-03-29T09:40:01.576Z</time></trkpt><trkpt lat="43.9111583" lon="12.3040767"><ele>231.0</ele><time>2026-03-29T09:40:02.576Z</time></trkpt><trkpt lat="43.911375" lon="12.304105"><ele>231.0</ele><time>2026-03-29T09:40:03.576Z</time></trkpt><trkpt lat="43.9116083" lon="12.304135"><ele>231.0</ele><time>2026-03-29T09:40:04.576Z</time></trkpt><trkpt lat="43.9118517" lon="12.30417"><ele>231.0</ele><time>2026-03-29T09:40:05.575Z</time></trkpt><trkpt lat="43.9120983" lon="12.3042117"><ele>231.0</ele><time>2026-03-29T09:40:06.576Z</time></trkpt><trkpt lat="43.9123433" lon="12.3042667"><ele>229.5</ele><time>2026-03-29T09:40:07.575Z</time></trkpt><trkpt lat="43.9125917" lon="12.3043433"><ele>228.0</ele><time>2026-03-29T09:40:08.576Z</time></trkpt><trkpt lat="43.9128417" lon="12.30445"><ele>228.0</ele><time>2026-03-29T09:40:09.576Z</time></trkpt><trkpt lat="43.91309" lon="12.30458"><ele>228.0</ele><time>2026-03-29T09:40:10.576Z</time></trkpt><trkpt lat="43.91334" lon="12.3047117"><ele>229.5</ele><time>2026-03-29T09:40:11.575Z</time></trkpt><trkpt lat="43.9135883" lon="12.3048533"><ele>231.0</ele><time>2026-03-29T09:40:12.576Z</time></trkpt><trkpt lat="43.9138283" lon="12.3049833"><ele>231.0</ele><time>2026-03-29T09:40:13.575Z</time></trkpt><trkpt lat="43.91406" lon="12.3051083"><ele>231.0</ele><time>2026-03-29T09:40:14.575Z</time></trkpt><trkpt lat="43.9142917" lon="12.3052217"><ele>231.5</ele><time>2026-03-29T09:40:15.575Z</time></trkpt><trkpt lat="43.914525" lon="12.3053367"><ele>232.0</ele><time>2026-03-29T09:40:16.576Z</time></trkpt><trkpt lat="43.91476" lon="12.3054583"><ele>232.0</ele><time>2026-03-29T09:40:17.575Z</time></trkpt><trkpt lat="43.9149917" lon="12.3055833"><ele>232.0</ele><time>2026-03-29T09:40:18.575Z</time></trkpt><trkpt lat="43.9152167" lon="12.3057017"><ele>232.0</ele><time>2026-03-29T09:40:19.576Z</time></trkpt><trkpt lat="43.9154267" lon="12.3058017"><ele>232.0</ele><time>2026-03-29T09:40:20.576Z</time></trkpt><trkpt lat="43.9156217" lon="12.3058883"><ele>232.0</ele><time>2026-03-29T09:40:21.576Z</time></trkpt><trkpt lat="43.915805" lon="12.30597"><ele>232.66666666666666</ele><time>2026-03-29T09:40:22.576Z</time></trkpt><trkpt lat="43.9160017" lon="12.3060317"><ele>233.33333333333331</ele><time>2026-03-29T09:40:23.576Z</time></trkpt><trkpt lat="43.9161783" lon="12.3061033"><ele>234.0</ele><time>2026-03-29T09:40:24.576Z</time></trkpt><trkpt lat="43.9163517" lon="12.3061783"><ele>234.0</ele><time>2026-03-29T09:40:25.576Z</time></trkpt><trkpt lat="43.9165117" lon="12.30626"><ele>234.0</ele><time>2026-03-29T09:40:26.576Z</time></trkpt><trkpt lat="43.916665" lon="12.3063783"><ele>234.0</ele><time>2026-03-29T09:40:27.576Z</time></trkpt><trkpt lat="43.9167983" lon="12.3065217"><ele>232.66666666666669</ele><time>2026-03-29T09:40:28.575Z</time></trkpt><trkpt lat="43.9169217" lon="12.3066733"><ele>231.33333333333334</ele><time>2026-03-29T09:40:29.576Z</time></trkpt><trkpt lat="43.9170367" lon="12.3068417"><ele>230.0</ele><time>2026-03-29T09:40:30.576Z</time></trkpt><trkpt lat="43.917155" lon="12.3070117"><ele>230.0</ele><time>2026-03-29T09:40:31.576Z</time></trkpt><trkpt lat="43.91727" lon="12.3071783"><ele>230.0</ele><time>2026-03-29T09:40:32.576Z</time></trkpt><trkpt lat="43.917385" lon="12.3073467"><ele>230.0</ele><time>2026-03-29T09:40:33.575Z</time></trkpt><trkpt lat="43.9175067" lon="12.3075183"><ele>229.66666666666669</ele><time>2026-03-29T09:40:34.575Z</time></trkpt><trkpt lat="43.91763" lon="12.30769"><ele>229.33333333333331</ele><time>2026-03-29T09:40:35.576Z</time></trkpt><trkpt lat="43.9177567" lon="12.3078633"><ele>229.0</ele><time>2026-03-29T09:40:36.576Z</time></trkpt><trkpt lat="43.9178883" lon="12.30805"><ele>228.0</ele><time>2026-03-29T09:40:37.576Z</time></trkpt><trkpt lat="43.9180333" lon="12.30824"><ele>227.0</ele><time>2026-03-29T09:40:38.576Z</time></trkpt><trkpt lat="43.9181717" lon="12.308435"><ele>226.0</ele><time>2026-03-29T09:40:39.576Z</time></trkpt><trkpt lat="43.9183117" lon="12.3086383"><ele>226.33333333333331</ele><time>2026-03-29T09:40:40.577Z</time></trkpt><trkpt lat="43.9184517" lon="12.3088283"><ele>226.66666666666669</ele><time>2026-03-29T09:40:41.577Z</time></trkpt><trkpt lat="43.918595" lon="12.30902"><ele>227.0</ele><time>2026-03-29T09:40:42.576Z</time></trkpt><trkpt lat="43.9187433" lon="12.3092317"><ele>225.5</ele><time>2026-03-29T09:40:43.577Z</time></trkpt><trkpt lat="43.918915" lon="12.3094617"><ele>224.0</ele><time>2026-03-29T09:40:44.577Z</time></trkpt><trkpt lat="43.919085" lon="12.3097"><ele>224.0</ele><time>2026-03-29T09:40:45.577Z</time></trkpt><trkpt lat="43.919235" lon="12.3099267"><ele>224.0</ele><time>2026-03-29T09:40:46.577Z</time></trkpt><trkpt lat="43.9193783" lon="12.3101517"><ele>224.0</ele><time>2026-03-29T09:40:47.577Z</time></trkpt><trkpt lat="43.9195083" lon="12.3103683"><ele>224.0</ele><time>2026-03-29T09:40:48.577Z</time></trkpt><trkpt lat="43.919625" lon="12.3105717"><ele>224.0</ele><time>2026-03-29T09:40:49.577Z</time></trkpt><trkpt lat="43.9197333" lon="12.310775"><ele>224.0</ele><time>2026-03-29T09:40:50.577Z</time></trkpt><trkpt lat="43.9198233" lon="12.3109883"><ele>222.0</ele><time>2026-03-29T09:40:51.576Z</time></trkpt><trkpt lat="43.9199067" lon="12.3111933"><ele>220.0</ele><time>2026-03-29T09:40:52.577Z</time></trkpt><trkpt lat="43.9199833" lon="12.3113917"><ele>218.0</ele><time>2026-03-29T09:40:53.577Z</time></trkpt><trkpt lat="43.92007" lon="12.3115633"><ele>217.75</ele><time>2026-03-29T09:40:54.576Z</time></trkpt><trkpt lat="43.9201633" lon="12.3117"><ele>217.5</ele><time>2026-03-29T09:40:55.576Z</time></trkpt><trkpt lat="43.9202817" lon="12.311805"><ele>217.25</ele><time>2026-03-29T09:40:56.577Z</time></trkpt><trkpt lat="43.9203933" lon="12.31191"><ele>217.0</ele><time>2026-03-29T09:40:57.577Z</time></trkpt><trkpt lat="43.9205" lon="12.3120033"><ele>217.0</ele><time>2026-03-29T09:40:58.577Z</time></trkpt><trkpt lat="43.92061" lon="12.3120933"><ele>217.0</ele><time>2026-03-29T09:40:59.577Z</time></trkpt><trkpt lat="43.9207217" lon="12.312205"><ele>217.0</ele><time>2026-03-29T09:41:00.577Z</time></trkpt><trkpt lat="43.9208367" lon="12.3123167"><ele>217.0</ele><time>2026-03-29T09:41:01.577Z</time></trkpt><trkpt lat="43.9209567" lon="12.31242"><ele>214.75</ele><time>2026-03-29T09:41:02.577Z</time></trkpt><trkpt lat="43.9210683" lon="12.31253"><ele>212.5</ele><time>2026-03-29T09:41:03.577Z</time></trkpt><trkpt lat="43.9211667" lon="12.31263"><ele>210.25</ele><time>2026-03-29T09:41:04.577Z</time></trkpt><trkpt lat="43.9212567" lon="12.3127217"><ele>208.0</ele><time>2026-03-29T09:41:05.576Z</time></trkpt><trkpt lat="43.92136" lon="12.3128167"><ele>208.0</ele><time>2026-03-29T09:41:06.577Z</time></trkpt><trkpt lat="43.9214633" lon="12.3129183"><ele>208.0</ele><time>2026-03-29T09:41:07.577Z</time></trkpt><trkpt lat="43.921565" lon="12.3130133"><ele>208.0</ele><time>2026-03-29T09:41:08.576Z</time></trkpt><trkpt lat="43.92166" lon="12.313105"><ele>208.0</ele><time>2026-03-29T09:41:09.577Z</time></trkpt><trkpt lat="43.921755" lon="12.3132067"><ele>209.25</ele><time>2026-03-29T09:41:10.577Z</time></trkpt><trkpt lat="43.9218517" lon="12.31333"><ele>210.5</ele><time>2026-03-29T09:41:11.576Z</time></trkpt><trkpt lat="43.9219417" lon="12.313455"><ele>211.75</ele><time>2026-03-29T09:41:12.577Z</time></trkpt><trkpt lat="43.9220283" lon="12.3135967"><ele>213.0</ele><time>2026-03-29T09:41:13.577Z</time></trkpt><trkpt lat="43.92212" lon="12.3137367"><ele>213.0</ele><time>2026-03-29T09:41:14.577Z</time></trkpt><trkpt lat="43.9222183" lon="12.3138917"><ele>213.0</ele><time>2026-03-29T09:41:15.577Z</time></trkpt><trkpt lat="43.9223367" lon="12.3140783"><ele>213.0</ele><time>2026-03-29T09:41:16.576Z</time></trkpt><trkpt lat="43.9224617" lon="12.31429"><ele>214.33333333333331</ele><time>2026-03-29T09:41:17.577Z</time></trkpt><trkpt lat="43.9225667" lon="12.31449"><ele>215.66666666666666</ele><time>2026-03-29T09:41:18.576Z</time></trkpt><trkpt lat="43.9226633" lon="12.3146667"><ele>217.0</ele><time>2026-03-29T09:41:19.577Z</time></trkpt><trkpt lat="43.9227533" lon="12.3148167"><ele>217.0</ele><time>2026-03-29T09:41:20.577Z</time></trkpt><trkpt lat="43.922825" lon="12.3149483"><ele>217.0</ele><time>2026-03-29T09:41:21.577Z</time></trkpt><trkpt lat="43.922885" lon="12.3150733"><ele>217.0</ele><time>2026-03-29T09:41:22.577Z</time></trkpt><trkpt lat="43.922935" lon="12.3152033"><ele>217.0</ele><time>2026-03-29T09:41:23.576Z</time></trkpt><trkpt lat="43.9229833" lon="12.3153483"><ele>217.0</ele><time>2026-03-29T09:41:24.577Z</time></trkpt><trkpt lat="43.92303" lon="12.315495"><ele>217.0</ele><time>2026-03-29T09:41:25.576Z</time></trkpt><trkpt lat="43.9230683" lon="12.3156383"><ele>217.0</ele><time>2026-03-29T09:41:26.576Z</time></trkpt><trkpt lat="43.923105" lon="12.3157717"><ele>217.0</ele><time>2026-03-29T09:41:27.577Z</time></trkpt><trkpt lat="43.9231433" lon="12.3159"><ele>217.0</ele><time>2026-03-29T09:41:28.577Z</time></trkpt><trkpt lat="43.9231817" lon="12.3160167"><ele>217.0</ele><time>2026-03-29T09:41:29.577Z</time></trkpt><trkpt lat="43.9232317" lon="12.3161267"><ele>217.0</ele><time>2026-03-29T09:41:30.577Z</time></trkpt><trkpt lat="43.9232833" lon="12.31623"><ele>217.0</ele><time>2026-03-29T09:41:31.577Z</time></trkpt><trkpt lat="43.9233467" lon="12.3163267"><ele>217.0</ele><time>2026-03-29T09:41:32.577Z</time></trkpt><trkpt lat="43.923435" lon="12.3164333"><ele>217.0</ele><time>2026-03-29T09:41:33.576Z</time></trkpt><trkpt lat="43.9235367" lon="12.3165667"><ele>217.0</ele><time>2026-03-29T09:41:34.577Z</time></trkpt><trkpt lat="43.9236433" lon="12.316725"><ele>215.66666666666666</ele><time>2026-03-29T09:41:35.577Z</time></trkpt><trkpt lat="43.923755" lon="12.3168917"><ele>214.33333333333331</ele><time>2026-03-29T09:41:36.577Z</time></trkpt><trkpt lat="43.92386" lon="12.3170383"><ele>213.0</ele><time>2026-03-29T09:41:37.577Z</time></trkpt><trkpt lat="43.9239633" lon="12.3171717"><ele>213.0</ele><time>2026-03-29T09:41:38.576Z</time></trkpt><trkpt lat="43.924065" lon="12.3173133"><ele>213.0</ele><time>2026-03-29T09:41:39.576Z</time></trkpt><trkpt lat="43.9241783" lon="12.3174533"><ele>213.0</ele><time>2026-03-29T09:41:40.577Z</time></trkpt><trkpt lat="43.92429" lon="12.3175917"><ele>213.0</ele><time>2026-03-29T09:41:41.577Z</time></trkpt><trkpt lat="43.9244067" lon="12.3177183"><ele>213.66666666666669</ele><time>2026-03-29T09:41:42.576Z</time></trkpt><trkpt lat="43.9245433" lon="12.31782"><ele>214.33333333333334</ele><time>2026-03-29T09:41:43.576Z</time></trkpt><trkpt lat="43.9246917" lon="12.3179133"><ele>215.0</ele><time>2026-03-29T09:41:44.577Z</time></trkpt><trkpt lat="43.92486" lon="12.317995"><ele>214.33333333333334</ele><time>2026-03-29T09:41:45.577Z</time></trkpt><trkpt lat="43.9250317" lon="12.3180683"><ele>213.66666666666669</ele><time>2026-03-29T09:41:46.576Z</time></trkpt><trkpt lat="43.9251967" lon="12.3181483"><ele>213.0</ele><time>2026-03-29T09:41:47.576Z</time></trkpt><trkpt lat="43.9253583" lon="12.3182633"><ele>212.66666666666669</ele><time>2026-03-29T09:41:48.577Z</time></trkpt><trkpt lat="43.925515" lon="12.31842"><ele>212.33333333333334</ele><time>2026-03-29T09:41:49.577Z</time></trkpt><trkpt lat="43.925645" lon="12.3186167"><ele>212.0</ele><time>2026-03-29T09:41:50.576Z</time></trkpt><trkpt lat="43.9257617" lon="12.3188233"><ele>211.66666666666669</ele><time>2026-03-29T09:41:51.577Z</time></trkpt><trkpt lat="43.92587" lon="12.319015"><ele>211.33333333333331</ele><time>2026-03-29T09:41:52.576Z</time></trkpt><trkpt lat="43.92597" lon="12.3191967"><ele>211.0</ele><time>2026-03-29T09:41:53.576Z</time></trkpt><trkpt lat="43.9260733" lon="12.3193717"><ele>211.0</ele><time>2026-03-29T09:41:54.576Z</time></trkpt><trkpt lat="43.9261733" lon="12.319555"><ele>211.0</ele><time>2026-03-29T09:41:55.577Z</time></trkpt><trkpt lat="43.926275" lon="12.3197317"><ele>211.0</ele><time>2026-03-29T09:41:56.577Z</time></trkpt><trkpt lat="43.92638" lon="12.3198967"><ele>211.0</ele><time>2026-03-29T09:41:57.577Z</time></trkpt><trkpt lat="43.926485" lon="12.3200783"><ele>211.0</ele><time>2026-03-29T09:41:58.577Z</time></trkpt><trkpt lat="43.9265917" lon="12.320265"><ele>211.0</ele><time>2026-03-29T09:41:59.577Z</time></trkpt><trkpt lat="43.9266967" lon="12.320445"><ele>210.0</ele><time>2026-03-29T09:42:00.577Z</time></trkpt><trkpt lat="43.926795" lon="12.32062"><ele>209.0</ele><time>2026-03-29T09:42:01.577Z</time></trkpt><trkpt lat="43.926895" lon="12.320795"><ele>208.0</ele><time>2026-03-29T09:42:02.576Z</time></trkpt><trkpt lat="43.9269983" lon="12.3209783"><ele>208.0</ele><time>2026-03-29T09:42:03.577Z</time></trkpt><trkpt lat="43.9271033" lon="12.321165"><ele>208.0</ele><time>2026-03-29T09:42:04.577Z</time></trkpt><trkpt lat="43.9272167" lon="12.32135"><ele>208.0</ele><time>2026-03-29T09:42:05.577Z</time></trkpt><trkpt lat="43.9273283" lon="12.321535"><ele>207.33333333333331</ele><time>2026-03-29T09:42:06.577Z</time></trkpt><trkpt lat="43.9274433" lon="12.321725"><ele>206.66666666666669</ele><time>2026-03-29T09:42:07.577Z</time></trkpt><trkpt lat="43.9275833" lon="12.3219183"><ele>206.0</ele><time>2026-03-29T09:42:08.577Z</time></trkpt><trkpt lat="43.927735" lon="12.322125"><ele>204.66666666666669</ele><time>2026-03-29T09:42:09.576Z</time></trkpt><trkpt lat="43.927885" lon="12.3223333"><ele>203.33333333333331</ele><time>2026-03-29T09:42:10.577Z</time></trkpt><trkpt lat="43.92803" lon="12.3225283"><ele>202.0</ele><time>2026-03-29T09:42:11.577Z</time></trkpt><trkpt lat="43.9281683" lon="12.3227017"><ele>202.0</ele><time>2026-03-29T09:42:12.576Z</time></trkpt><trkpt lat="43.9282833" lon="12.3228533"><ele>202.0</ele><time>2026-03-29T09:42:13.576Z</time></trkpt><trkpt lat="43.9283733" lon="12.32298"><ele>202.0</ele><time>2026-03-29T09:42:14.576Z</time></trkpt><trkpt lat="43.9284383" lon="12.323105"><ele>202.0</ele><time>2026-03-29T09:42:15.577Z</time></trkpt><trkpt lat="43.9284967" lon="12.3232367"><ele>202.33333333333331</ele><time>2026-03-29T09:42:16.577Z</time></trkpt><trkpt lat="43.9285867" lon="12.32335"><ele>202.66666666666669</ele><time>2026-03-29T09:42:17.576Z</time></trkpt><trkpt lat="43.9287133" lon="12.323455"><ele>203.0</ele><time>2026-03-29T09:42:18.577Z</time></trkpt><trkpt lat="43.92887" lon="12.3235833"><ele>203.0</ele><time>2026-03-29T09:42:19.577Z</time></trkpt><trkpt lat="43.9290167" lon="12.3237433"><ele>203.0</ele><time>2026-03-29T09:42:20.577Z</time></trkpt><trkpt lat="43.9291617" lon="12.3239117"><ele>203.0</ele><time>2026-03-29T09:42:21.577Z</time></trkpt><trkpt lat="43.929305" lon="12.3240833"><ele>202.33333333333334</ele><time>2026-03-29T09:42:22.576Z</time></trkpt><trkpt lat="43.92945" lon="12.3242583"><ele>201.66666666666669</ele><time>2026-03-29T09:42:23.577Z</time></trkpt><trkpt lat="43.9296083" lon="12.3244317"><ele>201.0</ele><time>2026-03-29T09:42:24.577Z</time></trkpt><trkpt lat="43.9297517" lon="12.324605"><ele>201.0</ele><time>2026-03-29T09:42:25.577Z</time></trkpt><trkpt lat="43.9298933" lon="12.3247817"><ele>201.0</ele><time>2026-03-29T09:42:26.577Z</time></trkpt><trkpt lat="43.9300233" lon="12.32496"><ele>201.0</ele><time>2026-03-29T09:42:27.577Z</time></trkpt><trkpt lat="43.9301583" lon="12.3251567"><ele>201.0</ele><time>2026-03-29T09:42:28.576Z</time></trkpt><trkpt lat="43.9302783" lon="12.3253717"><ele>201.0</ele><time>2026-03-29T09:42:29.577Z</time></trkpt><trkpt lat="43.9303883" lon="12.3255867"><ele>201.0</ele><time>2026-03-29T09:42:30.577Z</time></trkpt><trkpt lat="43.9304917" lon="12.3257883"><ele>200.33333333333331</ele><time>2026-03-29T09:42:31.576Z</time></trkpt><trkpt lat="43.93059" lon="12.325975"><ele>199.66666666666666</ele><time>2026-03-29T09:42:32.577Z</time></trkpt><trkpt lat="43.9306833" lon="12.32616"><ele>199.0</ele><time>2026-03-29T09:42:33.577Z</time></trkpt><trkpt lat="43.9307717" lon="12.32633"><ele>198.0</ele><time>2026-03-29T09:42:34.577Z</time></trkpt><trkpt lat="43.93085" lon="12.3265133"><ele>197.0</ele><time>2026-03-29T09:42:35.577Z</time></trkpt><trkpt lat="43.930915" lon="12.3267067"><ele>196.0</ele><time>2026-03-29T09:42:36.577Z</time></trkpt><trkpt lat="43.9309683" lon="12.3269183"><ele>196.0</ele><time>2026-03-29T09:42:37.576Z</time></trkpt><trkpt lat="43.9310167" lon="12.3271467"><ele>196.0</ele><time>2026-03-29T09:42:38.577Z</time></trkpt><trkpt lat="43.9310567" lon="12.327395"><ele>196.0</ele><time>2026-03-29T09:42:39.576Z</time></trkpt><trkpt lat="43.9311017" lon="12.3276567"><ele>196.5</ele><time>2026-03-29T09:42:40.576Z</time></trkpt><trkpt lat="43.9311667" lon="12.32793"><ele>197.0</ele><time>2026-03-29T09:42:41.577Z</time></trkpt><trkpt lat="43.9312217" lon="12.3282583"><ele>196.0</ele><time>2026-03-29T09:42:42.577Z</time></trkpt><trkpt lat="43.9312767" lon="12.32863"><ele>195.0</ele><time>2026-03-29T09:42:43.576Z</time></trkpt><trkpt lat="43.93133" lon="12.3290233"><ele>194.5</ele><time>2026-03-29T09:42:44.577Z</time></trkpt><trkpt lat="43.9313917" lon="12.3294133"><ele>194.0</ele><time>2026-03-29T09:42:45.576Z</time></trkpt><trkpt lat="43.93146" lon="12.3298033"><ele>193.0</ele><time>2026-03-29T09:42:46.577Z</time></trkpt><trkpt lat="43.93153" lon="12.330185"><ele>192.0</ele><time>2026-03-29T09:42:47.577Z</time></trkpt><trkpt lat="43.9315867" lon="12.330545"><ele>189.5</ele><time>2026-03-29T09:42:48.577Z</time></trkpt><trkpt lat="43.9316483" lon="12.3308883"><ele>187.0</ele><time>2026-03-29T09:42:49.577Z</time></trkpt><trkpt lat="43.9317" lon="12.331215"><ele>185.0</ele><time>2026-03-29T09:42:50.577Z</time></trkpt><trkpt lat="43.9317733" lon="12.3315217"><ele>183.0</ele><time>2026-03-29T09:42:51.577Z</time></trkpt><trkpt lat="43.9318867" lon="12.3318167"><ele>183.0</ele><time>2026-03-29T09:42:52.577Z</time></trkpt><trkpt lat="43.9320433" lon="12.3321017"><ele>183.0</ele><time>2026-03-29T09:42:53.577Z</time></trkpt><trkpt lat="43.9322383" lon="12.33239"><ele>183.0</ele><time>2026-03-29T09:42:54.577Z</time></trkpt><trkpt lat="43.932455" lon="12.3326833"><ele>183.0</ele><time>2026-03-29T09:42:55.576Z</time></trkpt><trkpt lat="43.9326617" lon="12.33297"><ele>184.5</ele><time>2026-03-29T09:42:56.577Z</time></trkpt><trkpt lat="43.93287" lon="12.33326"><ele>186.0</ele><time>2026-03-29T09:42:57.576Z</time></trkpt><trkpt lat="43.93308" lon="12.33356"><ele>186.0</ele><time>2026-03-29T09:42:58.576Z</time></trkpt><trkpt lat="43.9333017" lon="12.3338717"><ele>186.0</ele><time>2026-03-29T09:42:59.577Z</time></trkpt><trkpt lat="43.93353" lon="12.3341967"><ele>184.0</ele><time>2026-03-29T09:43:00.577Z</time></trkpt><trkpt lat="43.9337617" lon="12.3345383"><ele>182.0</ele><time>2026-03-29T09:43:01.577Z</time></trkpt><trkpt lat="43.933995" lon="12.3348933"><ele>184.0</ele><time>2026-03-29T09:43:02.576Z</time></trkpt><trkpt lat="43.934235" lon="12.3352667"><ele>186.0</ele><time>2026-03-29T09:43:03.576Z</time></trkpt><trkpt lat="43.934475" lon="12.33561"><ele>186.0</ele><time>2026-03-29T09:43:04.577Z</time></trkpt><trkpt lat="43.9346983" lon="12.3359267"><ele>186.0</ele><time>2026-03-29T09:43:05.576Z</time></trkpt><trkpt lat="43.934905" lon="12.3362267"><ele>191.0</ele><time>2026-03-29T09:43:06.577Z</time></trkpt><trkpt lat="43.9351033" lon="12.3365033"><ele>196.0</ele><time>2026-03-29T09:43:07.577Z</time></trkpt><trkpt lat="43.9352867" lon="12.3367567"><ele>196.0</ele><time>2026-03-29T09:43:08.576Z</time></trkpt><trkpt lat="43.9354583" lon="12.337005"><ele>196.0</ele><time>2026-03-29T09:43:09.577Z</time></trkpt><trkpt lat="43.9356" lon="12.337265"><ele>192.5</ele><time>2026-03-29T09:43:10.577Z</time></trkpt><trkpt lat="43.9357067" lon="12.3375533"><ele>189.0</ele><time>2026-03-29T09:43:11.577Z</time></trkpt><trkpt lat="43.9357817" lon="12.337875"><ele>187.0</ele><time>2026-03-29T09:43:12.577Z</time></trkpt><trkpt lat="43.9358133" lon="12.3382067"><ele>185.0</ele><time>2026-03-29T09:43:13.577Z</time></trkpt><trkpt lat="43.9358083" lon="12.3385283"><ele>185.0</ele><time>2026-03-29T09:43:14.576Z</time></trkpt><trkpt lat="43.9357783" lon="12.3388283"><ele>185.0</ele><time>2026-03-29T09:43:15.576Z</time></trkpt><trkpt lat="43.93575" lon="12.339125"><ele>185.0</ele><time>2026-03-29T09:43:16.577Z</time></trkpt><trkpt lat="43.9357483" lon="12.3394267"><ele>186.5</ele><time>2026-03-29T09:43:17.577Z</time></trkpt><trkpt lat="43.9357783" lon="12.3397333"><ele>188.0</ele><time>2026-03-29T09:43:18.577Z</time></trkpt><trkpt lat="43.9358433" lon="12.340035"><ele>190.66666666666666</ele><time>2026-03-29T09:43:19.576Z</time></trkpt><trkpt lat="43.93591" lon="12.340305"><ele>193.33333333333331</ele><time>2026-03-29T09:43:20.577Z</time></trkpt><trkpt lat="43.935965" lon="12.3405583"><ele>196.0</ele><time>2026-03-29T09:43:21.576Z</time></trkpt><trkpt lat="43.93602" lon="12.340805"><ele>196.0</ele><time>2026-03-29T09:43:22.577Z</time></trkpt><trkpt lat="43.9360767" lon="12.3410367"><ele>196.0</ele><time>2026-03-29T09:43:23.577Z</time></trkpt><trkpt lat="43.9361233" lon="12.341255"><ele>196.0</ele><time>2026-03-29T09:43:24.577Z</time></trkpt><trkpt lat="43.9361633" lon="12.3414767"><ele>195.33333333333331</ele><time>2026-03-29T09:43:25.577Z</time></trkpt><trkpt lat="43.9361767" lon="12.3416983"><ele>194.66666666666669</ele><time>2026-03-29T09:43:26.577Z</time></trkpt><trkpt lat="43.936155" lon="12.3419067"><ele>194.0</ele><time>2026-03-29T09:43:27.577Z</time></trkpt><trkpt lat="43.93611" lon="12.342105"><ele>194.5</ele><time>2026-03-29T09:43:28.577Z</time></trkpt><trkpt lat="43.936045" lon="12.3422817"><ele>195.0</ele><time>2026-03-29T09:43:29.576Z</time></trkpt><trkpt lat="43.93595" lon="12.3424283"><ele>195.5</ele><time>2026-03-29T09:43:30.576Z</time></trkpt><trkpt lat="43.935835" lon="12.3425583"><ele>196.0</ele><time>2026-03-29T09:43:31.576Z</time></trkpt><trkpt lat="43.9357083" lon="12.342665"><ele>191.33333333333331</ele><time>2026-03-29T09:43:32.577Z</time></trkpt><trkpt lat="43.9355733" lon="12.3427683"><ele>186.66666666666666</ele><time>2026-03-29T09:43:33.576Z</time></trkpt><trkpt lat="43.9354133" lon="12.3428683"><ele>182.0</ele><time>2026-03-29T09:43:34.577Z</time></trkpt><trkpt lat="43.9352467" lon="12.342985"><ele>182.33333333333331</ele><time>2026-03-29T09:43:35.576Z</time></trkpt><trkpt lat="43.9350817" lon="12.343085"><ele>182.66666666666666</ele><time>2026-03-29T09:43:36.576Z</time></trkpt><trkpt lat="43.9349333" lon="12.343185"><ele>183.0</ele><time>2026-03-29T09:43:37.576Z</time></trkpt><trkpt lat="43.9348017" lon="12.3432967"><ele>181.66666666666666</ele><time>2026-03-29T09:43:38.577Z</time></trkpt><trkpt lat="43.9346867" lon="12.3434367"><ele>180.33333333333331</ele><time>2026-03-29T09:43:39.576Z</time></trkpt><trkpt lat="43.93461" lon="12.343625"><ele>179.0</ele><time>2026-03-29T09:43:40.576Z</time></trkpt><trkpt lat="43.9345517" lon="12.3438433"><ele>179.0</ele><time>2026-03-29T09:43:41.577Z</time></trkpt><trkpt lat="43.9345067" lon="12.3440783"><ele>179.0</ele><time>2026-03-29T09:43:42.576Z</time></trkpt><trkpt lat="43.9344917" lon="12.3443167"><ele>179.0</ele><time>2026-03-29T09:43:43.576Z</time></trkpt><trkpt lat="43.93452" lon="12.3445667"><ele>180.0</ele><time>2026-03-29T09:43:44.576Z</time></trkpt><trkpt lat="43.9345933" lon="12.344815"><ele>181.0</ele><time>2026-03-29T09:43:45.576Z</time></trkpt><trkpt lat="43.9346967" lon="12.3450517"><ele>182.0</ele><time>2026-03-29T09:43:46.576Z</time></trkpt><trkpt lat="43.9348083" lon="12.3452817"><ele>182.0</ele><time>2026-03-29T09:43:47.577Z</time></trkpt><trkpt lat="43.9349117" lon="12.345495"><ele>182.0</ele><time>2026-03-29T09:43:48.577Z</time></trkpt><trkpt lat="43.9350183" lon="12.3456967"><ele>182.0</ele><time>2026-03-29T09:43:49.576Z</time></trkpt><trkpt lat="43.9351217" lon="12.3458933"><ele>180.66666666666666</ele><time>2026-03-29T09:43:50.577Z</time></trkpt><trkpt lat="43.9352483" lon="12.3460667"><ele>179.33333333333334</ele><time>2026-03-29T09:43:51.577Z</time></trkpt><trkpt lat="43.935405" lon="12.34621"><ele>178.0</ele><time>2026-03-29T09:43:52.577Z</time></trkpt><trkpt lat="43.93558" lon="12.346295"><ele>180.5</ele><time>2026-03-29T09:43:53.576Z</time></trkpt><trkpt lat="43.935815" lon="12.3464017"><ele>183.0</ele><time>2026-03-29T09:43:54.577Z</time></trkpt><trkpt lat="43.936055" lon="12.34655"><ele>183.0</ele><time>2026-03-29T09:43:55.576Z</time></trkpt><trkpt lat="43.9363017" lon="12.3466833"><ele>183.0</ele><time>2026-03-29T09:43:56.577Z</time></trkpt><trkpt lat="43.93654" lon="12.3467983"><ele>178.5</ele><time>2026-03-29T09:43:57.577Z</time></trkpt><trkpt lat="43.93676" lon="12.3469217"><ele>174.0</ele><time>2026-03-29T09:43:58.577Z</time></trkpt><trkpt lat="43.9369567" lon="12.34704"><ele>174.0</ele><time>2026-03-29T09:43:59.577Z</time></trkpt><trkpt lat="43.93715" lon="12.3471783"><ele>174.0</ele><time>2026-03-29T09:44:00.576Z</time></trkpt><trkpt lat="43.937335" lon="12.3473467"><ele>174.0</ele><time>2026-03-29T09:44:01.577Z</time></trkpt><trkpt lat="43.93751" lon="12.34751"><ele>174.0</ele><time>2026-03-29T09:44:02.577Z</time></trkpt><trkpt lat="43.93768" lon="12.3476683"><ele>174.0</ele><time>2026-03-29T09:44:03.576Z</time></trkpt><trkpt lat="43.93784" lon="12.3478133"><ele>174.0</ele><time>2026-03-29T09:44:04.576Z</time></trkpt><trkpt lat="43.9379783" lon="12.34797"><ele>176.66666666666666</ele><time>2026-03-29T09:44:05.577Z</time></trkpt><trkpt lat="43.938095" lon="12.3481483"><ele>179.33333333333331</ele><time>2026-03-29T09:44:06.576Z</time></trkpt><trkpt lat="43.9381933" lon="12.3483717"><ele>182.0</ele><time>2026-03-29T09:44:07.576Z</time></trkpt><trkpt lat="43.9382683" lon="12.34861"><ele>182.33333333333331</ele><time>2026-03-29T09:44:08.577Z</time></trkpt><trkpt lat="43.93831" lon="12.3488783"><ele>182.66666666666666</ele><time>2026-03-29T09:44:09.577Z</time></trkpt><trkpt lat="43.9383267" lon="12.3491667"><ele>183.0</ele><time>2026-03-29T09:44:10.576Z</time></trkpt><trkpt lat="43.9383067" lon="12.349465"><ele>181.0</ele><time>2026-03-29T09:44:11.577Z</time></trkpt><trkpt lat="43.9382683" lon="12.349785"><ele>179.0</ele><time>2026-03-29T09:44:12.576Z</time></trkpt><trkpt lat="43.9382267" lon="12.350095"><ele>179.0</ele><time>2026-03-29T09:44:13.577Z</time></trkpt><trkpt lat="43.93819" lon="12.3503783"><ele>179.0</ele><time>2026-03-29T09:44:14.577Z</time></trkpt><trkpt lat="43.9381683" lon="12.3506467"><ele>179.0</ele><time>2026-03-29T09:44:15.577Z</time></trkpt><trkpt lat="43.9381767" lon="12.3509133"><ele>179.0</ele><time>2026-03-29T09:44:16.577Z</time></trkpt><trkpt lat="43.9382317" lon="12.351185"><ele>179.0</ele><time>2026-03-29T09:44:17.577Z</time></trkpt><trkpt lat="43.93833" lon="12.3514517"><ele>179.0</ele><time>2026-03-29T09:44:18.577Z</time></trkpt><trkpt lat="43.938475" lon="12.3517"><ele>175.0</ele><time>2026-03-29T09:44:19.577Z</time></trkpt><trkpt lat="43.938645" lon="12.35196"><ele>171.0</ele><time>2026-03-29T09:44:20.576Z</time></trkpt><trkpt lat="43.938825" lon="12.3522217"><ele>171.0</ele><time>2026-03-29T09:44:21.576Z</time></trkpt><trkpt lat="43.93901" lon="12.3524883"><ele>171.0</ele><time>2026-03-29T09:44:22.577Z</time></trkpt><trkpt lat="43.9391883" lon="12.352755"><ele>168.5</ele><time>2026-03-29T09:44:23.576Z</time></trkpt><trkpt lat="43.9393833" lon="12.35301"><ele>166.0</ele><time>2026-03-29T09:44:24.577Z</time></trkpt><trkpt lat="43.9395917" lon="12.3532667"><ele>166.0</ele><time>2026-03-29T09:44:25.577Z</time></trkpt><trkpt lat="43.93981" lon="12.353505"><ele>166.0</ele><time>2026-03-29T09:44:26.577Z</time></trkpt><trkpt lat="43.9400317" lon="12.3537333"><ele>164.5</ele><time>2026-03-29T09:44:27.577Z</time></trkpt><trkpt lat="43.940265" lon="12.353945"><ele>163.0</ele><time>2026-03-29T09:44:28.577Z</time></trkpt><trkpt lat="43.9405067" lon="12.35416"><ele>163.0</ele><time>2026-03-29T09:44:29.576Z</time></trkpt><trkpt lat="43.940755" lon="12.3543817"><ele>163.0</ele><time>2026-03-29T09:44:30.577Z</time></trkpt><trkpt lat="43.941" lon="12.354595"><ele>163.0</ele><time>2026-03-29T09:44:31.577Z</time></trkpt><trkpt lat="43.941245" lon="12.3548133"><ele>163.0</ele><time>2026-03-29T09:44:32.577Z</time></trkpt><trkpt lat="43.94149" lon="12.3550433"><ele>162.0</ele><time>2026-03-29T09:44:33.576Z</time></trkpt><trkpt lat="43.9417283" lon="12.3552733"><ele>161.0</ele><time>2026-03-29T09:44:34.577Z</time></trkpt><trkpt lat="43.9419733" lon="12.355495"><ele>160.5</ele><time>2026-03-29T09:44:35.576Z</time></trkpt><trkpt lat="43.9422167" lon="12.35571"><ele>160.0</ele><time>2026-03-29T09:44:36.576Z</time></trkpt><trkpt lat="43.9424517" lon="12.3559267"><ele>160.5</ele><time>2026-03-29T09:44:37.577Z</time></trkpt><trkpt lat="43.9426767" lon="12.3561233"><ele>161.0</ele><time>2026-03-29T09:44:38.576Z</time></trkpt><trkpt lat="43.9428933" lon="12.3563183"><ele>161.5</ele><time>2026-03-29T09:44:39.576Z</time></trkpt><trkpt lat="43.943095" lon="12.356525"><ele>162.0</ele><time>2026-03-29T09:44:40.577Z</time></trkpt><trkpt lat="43.9432917" lon="12.35675"><ele>161.5</ele><time>2026-03-29T09:44:41.577Z</time></trkpt><trkpt lat="43.9434767" lon="12.3570067"><ele>161.0</ele><time>2026-03-29T09:44:42.576Z</time></trkpt><trkpt lat="43.9436517" lon="12.3573033"><ele>160.5</ele><time>2026-03-29T09:44:43.577Z</time></trkpt><trkpt lat="43.9438267" lon="12.35761"><ele>160.0</ele><time>2026-03-29T09:44:44.577Z</time></trkpt><trkpt lat="43.9440183" lon="12.357925"><ele>159.0</ele><time>2026-03-29T09:44:45.576Z</time></trkpt><trkpt lat="43.9442133" lon="12.3582483"><ele>158.0</ele><time>2026-03-29T09:44:46.576Z</time></trkpt><trkpt lat="43.9444117" lon="12.35857"><ele>159.0</ele><time>2026-03-29T09:44:47.576Z</time></trkpt><trkpt lat="43.9446" lon="12.358875"><ele>160.0</ele><time>2026-03-29T09:44:48.577Z</time></trkpt><trkpt lat="43.9447783" lon="12.3591617"><ele>160.0</ele><time>2026-03-29T09:44:49.576Z</time></trkpt><trkpt lat="43.9449433" lon="12.3594417"><ele>160.0</ele><time>2026-03-29T09:44:50.577Z</time></trkpt><trkpt lat="43.94511" lon="12.3597033"><ele>160.0</ele><time>2026-03-29T09:44:51.577Z</time></trkpt><trkpt lat="43.9452767" lon="12.3599467"><ele>160.0</ele><time>2026-03-29T09:44:52.576Z</time></trkpt><trkpt lat="43.945445" lon="12.3601717"><ele>160.0</ele><time>2026-03-29T09:44:53.577Z</time></trkpt><trkpt lat="43.9456333" lon="12.3603733"><ele>160.0</ele><time>2026-03-29T09:44:54.577Z</time></trkpt><trkpt lat="43.945835" lon="12.360545"><ele>160.5</ele><time>2026-03-29T09:44:55.577Z</time></trkpt><trkpt lat="43.9460433" lon="12.36071"><ele>161.0</ele><time>2026-03-29T09:44:56.577Z</time></trkpt><trkpt lat="43.94624" lon="12.36085"><ele>161.0</ele><time>2026-03-29T09:44:57.577Z</time></trkpt><trkpt lat="43.9464217" lon="12.3609817"><ele>161.0</ele><time>2026-03-29T09:44:58.577Z</time></trkpt><trkpt lat="43.9465967" lon="12.36111"><ele>161.0</ele><time>2026-03-29T09:44:59.576Z</time></trkpt><trkpt lat="43.9467617" lon="12.3612517"><ele>161.66666666666666</ele><time>2026-03-29T09:45:00.576Z</time></trkpt><trkpt lat="43.94692" lon="12.361415"><ele>162.33333333333334</ele><time>2026-03-29T09:45:01.576Z</time></trkpt><trkpt lat="43.947075" lon="12.3615733"><ele>163.0</ele><time>2026-03-29T09:45:02.576Z</time></trkpt><trkpt lat="43.947235" lon="12.361735"><ele>163.0</ele><time>2026-03-29T09:45:03.577Z</time></trkpt><trkpt lat="43.9473883" lon="12.3618983"><ele>163.0</ele><time>2026-03-29T09:45:04.577Z</time></trkpt><trkpt lat="43.9475467" lon="12.362055"><ele>163.0</ele><time>2026-03-29T09:45:05.577Z</time></trkpt><trkpt lat="43.9477033" lon="12.3622217"><ele>163.0</ele><time>2026-03-29T09:45:06.577Z</time></trkpt><trkpt lat="43.947845" lon="12.3624017"><ele>163.0</ele><time>2026-03-29T09:45:07.577Z</time></trkpt><trkpt lat="43.94798" lon="12.3626117"><ele>163.0</ele><time>2026-03-29T09:45:08.577Z</time></trkpt><trkpt lat="43.948115" lon="12.3628283"><ele>162.33333333333334</ele><time>2026-03-29T09:45:09.576Z</time></trkpt><trkpt lat="43.948235" lon="12.3630667"><ele>161.66666666666666</ele><time>2026-03-29T09:45:10.576Z</time></trkpt><trkpt lat="43.9483433" lon="12.3633317"><ele>161.0</ele><time>2026-03-29T09:45:11.577Z</time></trkpt><trkpt lat="43.94845" lon="12.3635983"><ele>161.0</ele><time>2026-03-29T09:45:12.577Z</time></trkpt><trkpt lat="43.9485533" lon="12.3638717"><ele>161.0</ele><time>2026-03-29T09:45:13.576Z</time></trkpt><trkpt lat="43.9486567" lon="12.3641517"><ele>161.0</ele><time>2026-03-29T09:45:14.577Z</time></trkpt><trkpt lat="43.9487583" lon="12.3644283"><ele>161.0</ele><time>2026-03-29T09:45:15.576Z</time></trkpt><trkpt lat="43.9488717" lon="12.3646933"><ele>161.0</ele><time>2026-03-29T09:45:16.577Z</time></trkpt><trkpt lat="43.94899" lon="12.3649383"><ele>161.0</ele><time>2026-03-29T09:45:17.576Z</time></trkpt><trkpt lat="43.9491183" lon="12.3651733"><ele>163.0</ele><time>2026-03-29T09:45:18.577Z</time></trkpt><trkpt lat="43.9492533" lon="12.3653917"><ele>165.0</ele><time>2026-03-29T09:45:19.577Z</time></trkpt><trkpt lat="43.949405" lon="12.3655967"><ele>167.0</ele><time>2026-03-29T09:45:20.577Z</time></trkpt><trkpt lat="43.9495533" lon="12.3657883"><ele>167.0</ele><time>2026-03-29T09:45:21.576Z</time></trkpt><trkpt lat="43.949705" lon="12.3659717"><ele>167.0</ele><time>2026-03-29T09:45:22.577Z</time></trkpt><trkpt lat="43.9498583" lon="12.3661433"><ele>167.0</ele><time>2026-03-29T09:45:23.576Z</time></trkpt><trkpt lat="43.9500217" lon="12.3663183"><ele>162.0</ele><time>2026-03-29T09:45:24.577Z</time></trkpt><trkpt lat="43.9501933" lon="12.366505"><ele>157.0</ele><time>2026-03-29T09:45:25.577Z</time></trkpt><trkpt lat="43.9503817" lon="12.3667117"><ele>157.0</ele><time>2026-03-29T09:45:26.576Z</time></trkpt><trkpt lat="43.9505783" lon="12.366935"><ele>157.0</ele><time>2026-03-29T09:45:27.577Z</time></trkpt><trkpt lat="43.9507717" lon="12.3671633"><ele>158.5</ele><time>2026-03-29T09:45:28.576Z</time></trkpt><trkpt lat="43.9509533" lon="12.3673883"><ele>160.0</ele><time>2026-03-29T09:45:29.576Z</time></trkpt><trkpt lat="43.9511217" lon="12.367605"><ele>160.0</ele><time>2026-03-29T09:45:30.577Z</time></trkpt><trkpt lat="43.9512933" lon="12.3678117"><ele>160.0</ele><time>2026-03-29T09:45:31.576Z</time></trkpt><trkpt lat="43.9514633" lon="12.3680117"><ele>161.66666666666669</ele><time>2026-03-29T09:45:32.577Z</time></trkpt><trkpt lat="43.9516233" lon="12.368205"><ele>163.33333333333334</ele><time>2026-03-29T09:45:33.577Z</time></trkpt><trkpt lat="43.951775" lon="12.3684033"><ele>165.0</ele><time>2026-03-29T09:45:34.577Z</time></trkpt><trkpt lat="43.951915" lon="12.36861"><ele>165.0</ele><time>2026-03-29T09:45:35.577Z</time></trkpt><trkpt lat="43.9520533" lon="12.368825"><ele>165.0</ele><time>2026-03-29T09:45:36.576Z</time></trkpt><trkpt lat="43.9521817" lon="12.3690633"><ele>165.0</ele><time>2026-03-29T09:45:37.577Z</time></trkpt><trkpt lat="43.9523" lon="12.369325"><ele>165.66666666666666</ele><time>2026-03-29T09:45:38.577Z</time></trkpt><trkpt lat="43.9524133" lon="12.369595"><ele>166.33333333333331</ele><time>2026-03-29T09:45:39.577Z</time></trkpt><trkpt lat="43.9525117" lon="12.3698717"><ele>167.0</ele><time>2026-03-29T09:45:40.577Z</time></trkpt><trkpt lat="43.9525983" lon="12.3701517"><ele>166.0</ele><time>2026-03-29T09:45:41.577Z</time></trkpt><trkpt lat="43.9526783" lon="12.37042"><ele>165.0</ele><time>2026-03-29T09:45:42.577Z</time></trkpt><trkpt lat="43.952755" lon="12.3706783"><ele>164.0</ele><time>2026-03-29T09:45:43.577Z</time></trkpt><trkpt lat="43.9528267" lon="12.3709317"><ele>164.0</ele><time>2026-03-29T09:45:44.577Z</time></trkpt><trkpt lat="43.9529" lon="12.3711667"><ele>164.0</ele><time>2026-03-29T09:45:45.576Z</time></trkpt><trkpt lat="43.95297" lon="12.3713967"><ele>164.0</ele><time>2026-03-29T09:45:46.577Z</time></trkpt><trkpt lat="43.9530317" lon="12.3716233"><ele>164.0</ele><time>2026-03-29T09:45:47.577Z</time></trkpt><trkpt lat="43.9530917" lon="12.371825"><ele>164.0</ele><time>2026-03-29T09:45:48.576Z</time></trkpt><trkpt lat="43.9531383" lon="12.3720183"><ele>164.0</ele><time>2026-03-29T09:45:49.577Z</time></trkpt><trkpt lat="43.953185" lon="12.3721983"><ele>164.0</ele><time>2026-03-29T09:45:50.577Z</time></trkpt><trkpt lat="43.9532333" lon="12.37236"><ele>164.2</ele><time>2026-03-29T09:45:51.576Z</time></trkpt><trkpt lat="43.9532683" lon="12.37252"><ele>164.39999999999998</ele><time>2026-03-29T09:45:52.577Z</time></trkpt><trkpt lat="43.9532883" lon="12.37268"><ele>164.6</ele><time>2026-03-29T09:45:53.577Z</time></trkpt><trkpt lat="43.9532933" lon="12.372835"><ele>164.8</ele><time>2026-03-29T09:45:54.576Z</time></trkpt><trkpt lat="43.95331" lon="12.3729567"><ele>165.0</ele><time>2026-03-29T09:45:55.577Z</time></trkpt><trkpt lat="43.953355" lon="12.3730883"><ele>164.0</ele><time>2026-03-29T09:45:56.576Z</time></trkpt><trkpt lat="43.9534217" lon="12.3732233"><ele>163.0</ele><time>2026-03-29T09:45:57.577Z</time></trkpt><trkpt lat="43.9535067" lon="12.3733683"><ele>162.0</ele><time>2026-03-29T09:45:58.577Z</time></trkpt><trkpt lat="43.9535717" lon="12.373525"><ele>161.0</ele><time>2026-03-29T09:45:59.577Z</time></trkpt><trkpt lat="43.9536317" lon="12.3737083"><ele>161.33333333333331</ele><time>2026-03-29T09:46:00.576Z</time></trkpt><trkpt lat="43.9536933" lon="12.3739117"><ele>161.66666666666666</ele><time>2026-03-29T09:46:01.577Z</time></trkpt><trkpt lat="43.9537567" lon="12.3741333"><ele>162.0</ele><time>2026-03-29T09:46:02.576Z</time></trkpt><trkpt lat="43.9538183" lon="12.374365"><ele>162.0</ele><time>2026-03-29T09:46:03.577Z</time></trkpt><trkpt lat="43.95389" lon="12.3746083"><ele>162.0</ele><time>2026-03-29T09:46:04.576Z</time></trkpt><trkpt lat="43.9539583" lon="12.37486"><ele>162.0</ele><time>2026-03-29T09:46:05.577Z</time></trkpt><trkpt lat="43.9540267" lon="12.3751183"><ele>162.33333333333334</ele><time>2026-03-29T09:46:06.577Z</time></trkpt><trkpt lat="43.9541017" lon="12.3753783"><ele>162.66666666666669</ele><time>2026-03-29T09:46:07.577Z</time></trkpt><trkpt lat="43.95418" lon="12.3756367"><ele>163.0</ele><time>2026-03-29T09:46:08.577Z</time></trkpt><trkpt lat="43.95425" lon="12.375885"><ele>161.0</ele><time>2026-03-29T09:46:09.577Z</time></trkpt><trkpt lat="43.954335" lon="12.3761317"><ele>159.0</ele><time>2026-03-29T09:46:10.577Z</time></trkpt><trkpt lat="43.95442" lon="12.37638"><ele>157.0</ele><time>2026-03-29T09:46:11.577Z</time></trkpt><trkpt lat="43.9544967" lon="12.3766183"><ele>157.0</ele><time>2026-03-29T09:46:12.577Z</time></trkpt><trkpt lat="43.9545867" lon="12.37685"><ele>157.0</ele><time>2026-03-29T09:46:13.577Z</time></trkpt><trkpt lat="43.9546733" lon="12.3770833"><ele>157.0</ele><time>2026-03-29T09:46:14.577Z</time></trkpt><trkpt lat="43.9547633" lon="12.3773183"><ele>158.33333333333334</ele><time>2026-03-29T09:46:15.577Z</time></trkpt><trkpt lat="43.954855" lon="12.37756"><ele>159.66666666666666</ele><time>2026-03-29T09:46:16.577Z</time></trkpt><trkpt lat="43.9549567" lon="12.3778"><ele>161.0</ele><time>2026-03-29T09:46:17.577Z</time></trkpt><trkpt lat="43.955065" lon="12.378035"><ele>157.66666666666666</ele><time>2026-03-29T09:46:18.577Z</time></trkpt><trkpt lat="43.955165" lon="12.3782667"><ele>154.33333333333334</ele><time>2026-03-29T09:46:19.577Z</time></trkpt><trkpt lat="43.95526" lon="12.3784967"><ele>151.0</ele><time>2026-03-29T09:46:20.577Z</time></trkpt><trkpt lat="43.95535" lon="12.3787183"><ele>151.66666666666669</ele><time>2026-03-29T09:46:21.577Z</time></trkpt><trkpt lat="43.9554467" lon="12.378945"><ele>152.33333333333334</ele><time>2026-03-29T09:46:22.577Z</time></trkpt><trkpt lat="43.9555467" lon="12.3791717"><ele>153.0</ele><time>2026-03-29T09:46:23.576Z</time></trkpt><trkpt lat="43.95564" lon="12.379415"><ele>153.0</ele><time>2026-03-29T09:46:24.577Z</time></trkpt><trkpt lat="43.95574" lon="12.3796717"><ele>153.0</ele><time>2026-03-29T09:46:25.577Z</time></trkpt><trkpt lat="43.95585" lon="12.37993"><ele>153.0</ele><time>2026-03-29T09:46:26.577Z</time></trkpt><trkpt lat="43.9559567" lon="12.3802033"><ele>150.0</ele><time>2026-03-29T09:46:27.577Z</time></trkpt><trkpt lat="43.9560733" lon="12.380485"><ele>147.0</ele><time>2026-03-29T09:46:28.576Z</time></trkpt><trkpt lat="43.9561933" lon="12.380775"><ele>147.0</ele><time>2026-03-29T09:46:29.576Z</time></trkpt><trkpt lat="43.9563183" lon="12.3810667"><ele>147.0</ele><time>2026-03-29T09:46:30.577Z</time></trkpt><trkpt lat="43.9564417" lon="12.3813683"><ele>149.5</ele><time>2026-03-29T09:46:31.577Z</time></trkpt><trkpt lat="43.956565" lon="12.3816867"><ele>152.0</ele><time>2026-03-29T09:46:32.577Z</time></trkpt><trkpt lat="43.9567083" lon="12.38202"><ele>146.0</ele><time>2026-03-29T09:46:33.577Z</time></trkpt><trkpt lat="43.9568483" lon="12.38237"><ele>140.0</ele><time>2026-03-29T09:46:34.577Z</time></trkpt><trkpt lat="43.9569917" lon="12.3827017"><ele>143.5</ele><time>2026-03-29T09:46:35.577Z</time></trkpt><trkpt lat="43.95713" lon="12.38302"><ele>147.0</ele><time>2026-03-29T09:46:36.577Z</time></trkpt><trkpt lat="43.9572583" lon="12.3833283"><ele>147.0</ele><time>2026-03-29T09:46:37.577Z</time></trkpt><trkpt lat="43.957385" lon="12.3836267"><ele>147.0</ele><time>2026-03-29T09:46:38.577Z</time></trkpt><trkpt lat="43.957505" lon="12.3839267"><ele>140.5</ele><time>2026-03-29T09:46:39.577Z</time></trkpt><trkpt lat="43.957615" lon="12.3842233"><ele>134.0</ele><time>2026-03-29T09:46:40.577Z</time></trkpt><trkpt lat="43.95771" lon="12.3845317"><ele>133.0</ele><time>2026-03-29T09:46:41.577Z</time></trkpt><trkpt lat="43.957785" lon="12.38486"><ele>132.0</ele><time>2026-03-29T09:46:42.577Z</time></trkpt><trkpt lat="43.9578383" lon="12.3852083"><ele>133.5</ele><time>2026-03-29T09:46:43.576Z</time></trkpt><trkpt lat="43.95787" lon="12.385565"><ele>135.0</ele><time>2026-03-29T09:46:44.577Z</time></trkpt><trkpt lat="43.9578667" lon="12.38593"><ele>135.0</ele><time>2026-03-29T09:46:45.577Z</time></trkpt><trkpt lat="43.9578233" lon="12.3862883"><ele>135.0</ele><time>2026-03-29T09:46:46.577Z</time></trkpt><trkpt lat="43.9577567" lon="12.3866533"><ele>134.5</ele><time>2026-03-29T09:46:47.577Z</time></trkpt><trkpt lat="43.9576683" lon="12.3870267"><ele>134.0</ele><time>2026-03-29T09:46:48.577Z</time></trkpt><trkpt lat="43.9575733" lon="12.3874017"><ele>134.0</ele><time>2026-03-29T09:46:49.576Z</time></trkpt><trkpt lat="43.9574817" lon="12.3877517"><ele>134.0</ele><time>2026-03-29T09:46:50.577Z</time></trkpt><trkpt lat="43.9573933" lon="12.3880833"><ele>134.0</ele><time>2026-03-29T09:46:51.577Z</time></trkpt><trkpt lat="43.9573067" lon="12.388405"><ele>134.0</ele><time>2026-03-29T09:46:52.577Z</time></trkpt><trkpt lat="43.957225" lon="12.388735"><ele>132.0</ele><time>2026-03-29T09:46:53.577Z</time></trkpt><trkpt lat="43.9571483" lon="12.389065"><ele>130.0</ele><time>2026-03-29T09:46:54.577Z</time></trkpt><trkpt lat="43.957075" lon="12.3894033"><ele>130.5</ele><time>2026-03-29T09:46:55.577Z</time></trkpt><trkpt lat="43.95702" lon="12.3897333"><ele>131.0</ele><time>2026-03-29T09:46:56.576Z</time></trkpt><trkpt lat="43.9569867" lon="12.3900633"><ele>131.0</ele><time>2026-03-29T09:46:57.576Z</time></trkpt><trkpt lat="43.9569617" lon="12.3903917"><ele>131.0</ele><time>2026-03-29T09:46:58.577Z</time></trkpt><trkpt lat="43.9569533" lon="12.3907033"><ele>130.66666666666666</ele><time>2026-03-29T09:46:59.577Z</time></trkpt><trkpt lat="43.9569667" lon="12.3910117"><ele>130.33333333333334</ele><time>2026-03-29T09:47:00.577Z</time></trkpt><trkpt lat="43.956995" lon="12.391315"><ele>130.0</ele><time>2026-03-29T09:47:01.577Z</time></trkpt><trkpt lat="43.9570283" lon="12.3916067"><ele>130.0</ele><time>2026-03-29T09:47:02.576Z</time></trkpt><trkpt lat="43.9570817" lon="12.3918883"><ele>130.0</ele><time>2026-03-29T09:47:03.577Z</time></trkpt><trkpt lat="43.9571517" lon="12.39216"><ele>130.0</ele><time>2026-03-29T09:47:04.576Z</time></trkpt><trkpt lat="43.9572233" lon="12.39242"><ele>130.33333333333334</ele><time>2026-03-29T09:47:05.577Z</time></trkpt><trkpt lat="43.9573017" lon="12.3926667"><ele>130.66666666666666</ele><time>2026-03-29T09:47:06.576Z</time></trkpt><trkpt lat="43.957385" lon="12.3929067"><ele>131.0</ele><time>2026-03-29T09:47:07.577Z</time></trkpt><trkpt lat="43.9574867" lon="12.3931617"><ele>129.0</ele><time>2026-03-29T09:47:08.577Z</time></trkpt><trkpt lat="43.95759" lon="12.3934417"><ele>127.0</ele><time>2026-03-29T09:47:09.577Z</time></trkpt><trkpt lat="43.95771" lon="12.3937717"><ele>127.5</ele><time>2026-03-29T09:47:10.576Z</time></trkpt><trkpt lat="43.95783" lon="12.3941183"><ele>128.0</ele><time>2026-03-29T09:47:11.576Z</time></trkpt><trkpt lat="43.9579517" lon="12.39447"><ele>130.0</ele><time>2026-03-29T09:47:12.576Z</time></trkpt><trkpt lat="43.9580717" lon="12.3948333"><ele>132.0</ele><time>2026-03-29T09:47:13.576Z</time></trkpt><trkpt lat="43.958185" lon="12.3951867"><ele>129.5</ele><time>2026-03-29T09:47:14.577Z</time></trkpt><trkpt lat="43.95829" lon="12.3955167"><ele>127.0</ele><time>2026-03-29T09:47:15.577Z</time></trkpt><trkpt lat="43.9584" lon="12.395835"><ele>127.0</ele><time>2026-03-29T09:47:16.576Z</time></trkpt><trkpt lat="43.958515" lon="12.3961417"><ele>127.0</ele><time>2026-03-29T09:47:17.576Z</time></trkpt><trkpt lat="43.9586167" lon="12.3964433"><ele>128.0</ele><time>2026-03-29T09:47:18.576Z</time></trkpt><trkpt lat="43.9587167" lon="12.39673"><ele>129.0</ele><time>2026-03-29T09:47:19.577Z</time></trkpt><trkpt lat="43.9588133" lon="12.3970033"><ele>130.0</ele><time>2026-03-29T09:47:20.577Z</time></trkpt><trkpt lat="43.9589083" lon="12.3972633"><ele>130.66666666666669</ele><time>2026-03-29T09:47:21.576Z</time></trkpt><trkpt lat="43.9590083" lon="12.3975117"><ele>131.33333333333334</ele><time>2026-03-29T09:47:22.576Z</time></trkpt><trkpt lat="43.9591183" lon="12.39776"><ele>132.0</ele><time>2026-03-29T09:47:23.578Z</time></trkpt><trkpt lat="43.959235" lon="12.398015"><ele>132.0</ele><time>2026-03-29T09:47:24.578Z</time></trkpt><trkpt lat="43.9593567" lon="12.398265"><ele>132.0</ele><time>2026-03-29T09:47:25.578Z</time></trkpt><trkpt lat="43.95948" lon="12.3984983"><ele>132.0</ele><time>2026-03-29T09:47:26.577Z</time></trkpt><trkpt lat="43.9596067" lon="12.3987333"><ele>129.66666666666666</ele><time>2026-03-29T09:47:27.578Z</time></trkpt><trkpt lat="43.9597333" lon="12.398965"><ele>127.33333333333333</ele><time>2026-03-29T09:47:28.578Z</time></trkpt><trkpt lat="43.9598583" lon="12.3991967"><ele>125.0</ele><time>2026-03-29T09:47:29.577Z</time></trkpt><trkpt lat="43.9599883" lon="12.3994233"><ele>125.0</ele><time>2026-03-29T09:47:30.578Z</time></trkpt><trkpt lat="43.9601283" lon="12.399665"><ele>125.0</ele><time>2026-03-29T09:47:31.577Z</time></trkpt><trkpt lat="43.9602617" lon="12.399925"><ele>125.0</ele><time>2026-03-29T09:47:32.578Z</time></trkpt><trkpt lat="43.9604083" lon="12.400195"><ele>125.0</ele><time>2026-03-29T09:47:33.578Z</time></trkpt><trkpt lat="43.960535" lon="12.4004417"><ele>124.33333333333333</ele><time>2026-03-29T09:47:34.578Z</time></trkpt><trkpt lat="43.9606517" lon="12.4006717"><ele>123.66666666666666</ele><time>2026-03-29T09:47:35.578Z</time></trkpt><trkpt lat="43.96077" lon="12.400875"><ele>123.0</ele><time>2026-03-29T09:47:36.578Z</time></trkpt><trkpt lat="43.9608867" lon="12.401035"><ele>123.0</ele><time>2026-03-29T09:47:37.578Z</time></trkpt><trkpt lat="43.9609883" lon="12.40115"><ele>123.00000000000001</ele><time>2026-03-29T09:47:38.578Z</time></trkpt><trkpt lat="43.9610717" lon="12.4012417"><ele>123.00000000000001</ele><time>2026-03-29T09:47:39.578Z</time></trkpt><trkpt lat="43.9611483" lon="12.4013183"><ele>123.0</ele><time>2026-03-29T09:47:40.578Z</time></trkpt><trkpt lat="43.9612083" lon="12.401395"><ele>123.0</ele><time>2026-03-29T09:47:41.578Z</time></trkpt><trkpt lat="43.9612617" lon="12.4014767"><ele>124.60000000000001</ele><time>2026-03-29T09:47:42.577Z</time></trkpt><trkpt lat="43.9613017" lon="12.4015783"><ele>126.20000000000002</ele><time>2026-03-29T09:47:43.577Z</time></trkpt><trkpt lat="43.9613483" lon="12.40169"><ele>127.8</ele><time>2026-03-29T09:47:44.577Z</time></trkpt><trkpt lat="43.961425" lon="12.4017733"><ele>129.4</ele><time>2026-03-29T09:47:45.578Z</time></trkpt><trkpt lat="43.961525" lon="12.4018083"><ele>131.0</ele><time>2026-03-29T09:47:46.577Z</time></trkpt><trkpt lat="43.9616433" lon="12.401815"><ele>130.33333333333331</ele><time>2026-03-29T09:47:47.578Z</time></trkpt><trkpt lat="43.9617683" lon="12.40184"><ele>129.66666666666666</ele><time>2026-03-29T09:47:48.577Z</time></trkpt><trkpt lat="43.961915" lon="12.4019017"><ele>129.0</ele><time>2026-03-29T09:47:49.578Z</time></trkpt><trkpt lat="43.962085" lon="12.4019983"><ele>129.0</ele><time>2026-03-29T09:47:50.578Z</time></trkpt><trkpt lat="43.962245" lon="12.4021"><ele>129.0</ele><time>2026-03-29T09:47:51.578Z</time></trkpt><trkpt lat="43.9623883" lon="12.4021967"><ele>129.0</ele><time>2026-03-29T09:47:52.578Z</time></trkpt><trkpt lat="43.962525" lon="12.40229"><ele>129.0</ele><time>2026-03-29T09:47:53.578Z</time></trkpt><trkpt lat="43.9626567" lon="12.402375"><ele>129.0</ele><time>2026-03-29T09:47:54.577Z</time></trkpt><trkpt lat="43.9627917" lon="12.402445"><ele>129.0</ele><time>2026-03-29T09:47:55.578Z</time></trkpt><trkpt lat="43.962925" lon="12.4025267"><ele>129.0</ele><time>2026-03-29T09:47:56.577Z</time></trkpt><trkpt lat="43.9630617" lon="12.4026117"><ele>129.0</ele><time>2026-03-29T09:47:57.577Z</time></trkpt><trkpt lat="43.9632" lon="12.4027017"><ele>129.0</ele><time>2026-03-29T09:47:58.578Z</time></trkpt><trkpt lat="43.9633417" lon="12.4028017"><ele>129.0</ele><time>2026-03-29T09:47:59.578Z</time></trkpt><trkpt lat="43.9634817" lon="12.4029167"><ele>129.0</ele><time>2026-03-29T09:48:00.578Z</time></trkpt><trkpt lat="43.9636233" lon="12.4030367"><ele>129.0</ele><time>2026-03-29T09:48:01.578Z</time></trkpt><trkpt lat="43.9637683" lon="12.4031667"><ele>129.0</ele><time>2026-03-29T09:48:02.578Z</time></trkpt><trkpt lat="43.9639233" lon="12.4033133"><ele>129.0</ele><time>2026-03-29T09:48:03.577Z</time></trkpt><trkpt lat="43.9640817" lon="12.4034967"><ele>129.0</ele><time>2026-03-29T09:48:04.578Z</time></trkpt><trkpt lat="43.9642317" lon="12.4037"><ele>129.0</ele><time>2026-03-29T09:48:05.578Z</time></trkpt><trkpt lat="43.9643767" lon="12.4039033"><ele>126.33333333333334</ele><time>2026-03-29T09:48:06.578Z</time></trkpt><trkpt lat="43.9645233" lon="12.4041067"><ele>123.66666666666667</ele><time>2026-03-29T09:48:07.578Z</time></trkpt><trkpt lat="43.9646683" lon="12.40431"><ele>121.0</ele><time>2026-03-29T09:48:08.578Z</time></trkpt><trkpt lat="43.9648067" lon="12.4045117"><ele>120.66666666666667</ele><time>2026-03-29T09:48:09.578Z</time></trkpt><trkpt lat="43.9649483" lon="12.404715"><ele>120.33333333333334</ele><time>2026-03-29T09:48:10.578Z</time></trkpt><trkpt lat="43.9650917" lon="12.404915"><ele>120.0</ele><time>2026-03-29T09:48:11.577Z</time></trkpt><trkpt lat="43.9652267" lon="12.4051033"><ele>120.0</ele><time>2026-03-29T09:48:12.577Z</time></trkpt><trkpt lat="43.9653683" lon="12.4052867"><ele>120.0</ele><time>2026-03-29T09:48:13.578Z</time></trkpt><trkpt lat="43.96552" lon="12.4054767"><ele>120.0</ele><time>2026-03-29T09:48:14.578Z</time></trkpt><trkpt lat="43.96569" lon="12.4056867"><ele>119.0</ele><time>2026-03-29T09:48:15.578Z</time></trkpt><trkpt lat="43.965865" lon="12.4059383"><ele>118.0</ele><time>2026-03-29T09:48:16.577Z</time></trkpt><trkpt lat="43.966045" lon="12.4062333"><ele>118.5</ele><time>2026-03-29T09:48:17.577Z</time></trkpt><trkpt lat="43.9662167" lon="12.40655"><ele>119.0</ele><time>2026-03-29T09:48:18.577Z</time></trkpt><trkpt lat="43.9663967" lon="12.4068983"><ele>117.5</ele><time>2026-03-29T09:48:19.578Z</time></trkpt><trkpt lat="43.9665633" lon="12.4072417"><ele>116.0</ele><time>2026-03-29T09:48:20.578Z</time></trkpt><trkpt lat="43.9667217" lon="12.4075983"><ele>116.0</ele><time>2026-03-29T09:48:21.578Z</time></trkpt><trkpt lat="43.9668733" lon="12.4079367"><ele>116.0</ele><time>2026-03-29T09:48:22.577Z</time></trkpt><trkpt lat="43.96702" lon="12.4082567"><ele>116.5</ele><time>2026-03-29T09:48:23.577Z</time></trkpt><trkpt lat="43.9671633" lon="12.4085717"><ele>117.0</ele><time>2026-03-29T09:48:24.578Z</time></trkpt><trkpt lat="43.9673" lon="12.4088783"><ele>117.0</ele><time>2026-03-29T09:48:25.577Z</time></trkpt><trkpt lat="43.967435" lon="12.4091767"><ele>117.0</ele><time>2026-03-29T09:48:26.578Z</time></trkpt><trkpt lat="43.967565" lon="12.4094717"><ele>115.5</ele><time>2026-03-29T09:48:27.577Z</time></trkpt><trkpt lat="43.96769" lon="12.4097683"><ele>114.0</ele><time>2026-03-29T09:48:28.578Z</time></trkpt><trkpt lat="43.9678233" lon="12.4100617"><ele>114.0</ele><time>2026-03-29T09:48:29.577Z</time></trkpt><trkpt lat="43.967955" lon="12.4103433"><ele>114.0</ele><time>2026-03-29T09:48:30.578Z</time></trkpt><trkpt lat="43.9680883" lon="12.4106067"><ele>114.0</ele><time>2026-03-29T09:48:31.578Z</time></trkpt><trkpt lat="43.9682267" lon="12.4108533"><ele>114.0</ele><time>2026-03-29T09:48:32.578Z</time></trkpt><trkpt lat="43.9683733" lon="12.41108"><ele>114.0</ele><time>2026-03-29T09:48:33.578Z</time></trkpt><trkpt lat="43.9685333" lon="12.4112967"><ele>116.0</ele><time>2026-03-29T09:48:34.577Z</time></trkpt><trkpt lat="43.9687233" lon="12.4114917"><ele>118.0</ele><time>2026-03-29T09:48:35.578Z</time></trkpt><trkpt lat="43.9689167" lon="12.4116733"><ele>118.0</ele><time>2026-03-29T09:48:36.578Z</time></trkpt><trkpt lat="43.969125" lon="12.4118417"><ele>118.0</ele><time>2026-03-29T09:48:37.578Z</time></trkpt><trkpt lat="43.9693483" lon="12.411985"><ele>118.5</ele><time>2026-03-29T09:48:38.578Z</time></trkpt><trkpt lat="43.9695733" lon="12.412105"><ele>119.0</ele><time>2026-03-29T09:48:39.577Z</time></trkpt><trkpt lat="43.9698167" lon="12.4122"><ele>117.0</ele><time>2026-03-29T09:48:40.578Z</time></trkpt><trkpt lat="43.9700533" lon="12.41227"><ele>115.0</ele><time>2026-03-29T09:48:41.578Z</time></trkpt><trkpt lat="43.9702867" lon="12.4123183"><ele>115.0</ele><time>2026-03-29T09:48:42.578Z</time></trkpt><trkpt lat="43.9705167" lon="12.4123367"><ele>115.0</ele><time>2026-03-29T09:48:43.577Z</time></trkpt><trkpt lat="43.9707417" lon="12.4123283"><ele>115.66666666666667</ele><time>2026-03-29T09:48:44.577Z</time></trkpt><trkpt lat="43.9709583" lon="12.412295"><ele>116.33333333333334</ele><time>2026-03-29T09:48:45.578Z</time></trkpt><trkpt lat="43.9711617" lon="12.4122467"><ele>117.0</ele><time>2026-03-29T09:48:46.578Z</time></trkpt><trkpt lat="43.9713617" lon="12.4121933"><ele>116.33333333333334</ele><time>2026-03-29T09:48:47.577Z</time></trkpt><trkpt lat="43.9715517" lon="12.4121333"><ele>115.66666666666667</ele><time>2026-03-29T09:48:48.578Z</time></trkpt><trkpt lat="43.9717217" lon="12.4120817"><ele>115.0</ele><time>2026-03-29T09:48:49.578Z</time></trkpt><trkpt lat="43.9718783" lon="12.4120233"><ele>116.2</ele><time>2026-03-29T09:48:50.578Z</time></trkpt><trkpt lat="43.972015" lon="12.4119667"><ele>117.4</ele><time>2026-03-29T09:48:51.578Z</time></trkpt><trkpt lat="43.9721317" lon="12.411915"><ele>118.6</ele><time>2026-03-29T09:48:52.578Z</time></trkpt><trkpt lat="43.9722283" lon="12.4118717"><ele>119.8</ele><time>2026-03-29T09:48:53.577Z</time></trkpt><trkpt lat="43.9723033" lon="12.4118583"><ele>121.0</ele><time>2026-03-29T09:48:54.577Z</time></trkpt><trkpt lat="43.972375" lon="12.4118767"><ele>121.0</ele><time>2026-03-29T09:48:55.578Z</time></trkpt><trkpt lat="43.9724317" lon="12.4120283"><ele>121.0</ele><time>2026-03-29T09:48:57.578Z</time></trkpt><trkpt lat="43.972415" lon="12.4121333"><ele>121.0</ele><time>2026-03-29T09:48:58.578Z</time></trkpt><trkpt lat="43.97236" lon="12.412245"><ele>121.0</ele><time>2026-03-29T09:48:59.578Z</time></trkpt><trkpt lat="43.972295" lon="12.4123583"><ele>121.0</ele><time>2026-03-29T09:49:00.578Z</time></trkpt><trkpt lat="43.9722517" lon="12.4124783"><ele>122.0</ele><time>2026-03-29T09:49:01.578Z</time></trkpt><trkpt lat="43.9722483" lon="12.4126117"><ele>123.0</ele><time>2026-03-29T09:49:02.577Z</time></trkpt><trkpt lat="43.972285" lon="12.412735"><ele>124.0</ele><time>2026-03-29T09:49:03.577Z</time></trkpt><trkpt lat="43.9723633" lon="12.4127883"><ele>125.0</ele><time>2026-03-29T09:49:04.577Z</time></trkpt><trkpt lat="43.9724633" lon="12.412775"><ele>126.0</ele><time>2026-03-29T09:49:05.577Z</time></trkpt><trkpt lat="43.9725733" lon="12.412695"><ele>128.0</ele><time>2026-03-29T09:49:06.577Z</time></trkpt><trkpt lat="43.9726733" lon="12.4126"><ele>130.0</ele><time>2026-03-29T09:49:07.578Z</time></trkpt><trkpt lat="43.972765" lon="12.4125517"><ele>132.0</ele><time>2026-03-29T09:49:08.577Z</time></trkpt><trkpt lat="43.9728483" lon="12.4125717"><ele>134.0</ele><time>2026-03-29T09:49:09.578Z</time></trkpt><trkpt lat="43.9728983" lon="12.4126467"><ele>136.0</ele><time>2026-03-29T09:49:10.578Z</time></trkpt><trkpt lat="43.9729117" lon="12.4127533"><ele>136.0</ele><time>2026-03-29T09:49:11.577Z</time></trkpt><trkpt lat="43.9728683" lon="12.4128933"><ele>136.0</ele><time>2026-03-29T09:49:12.578Z</time></trkpt><trkpt lat="43.9727983" lon="12.4130617"><ele>136.0</ele><time>2026-03-29T09:49:13.578Z</time></trkpt><trkpt lat="43.9727483" lon="12.41324"><ele>136.0</ele><time>2026-03-29T09:49:14.577Z</time></trkpt><trkpt lat="43.9727167" lon="12.4134233"><ele>138.33333333333334</ele><time>2026-03-29T09:49:15.578Z</time></trkpt><trkpt lat="43.9727033" lon="12.4136117"><ele>140.66666666666666</ele><time>2026-03-29T09:49:16.578Z</time></trkpt><trkpt lat="43.972705" lon="12.4138133"><ele>143.0</ele><time>2026-03-29T09:49:17.578Z</time></trkpt><trkpt lat="43.9727267" lon="12.41406"><ele>146.66666666666666</ele><time>2026-03-29T09:49:18.578Z</time></trkpt><trkpt lat="43.9727483" lon="12.4143283"><ele>150.33333333333334</ele><time>2026-03-29T09:49:19.577Z</time></trkpt><trkpt lat="43.972775" lon="12.414615"><ele>154.0</ele><time>2026-03-29T09:49:20.578Z</time></trkpt><trkpt lat="43.9727983" lon="12.4148867"><ele>155.66666666666669</ele><time>2026-03-29T09:49:21.578Z</time></trkpt><trkpt lat="43.9728217" lon="12.41512"><ele>157.33333333333334</ele><time>2026-03-29T09:49:22.578Z</time></trkpt><trkpt lat="43.9728517" lon="12.4153383"><ele>159.0</ele><time>2026-03-29T09:49:23.578Z</time></trkpt><trkpt lat="43.972875" lon="12.4155533"><ele>159.4</ele><time>2026-03-29T09:49:24.578Z</time></trkpt><trkpt lat="43.97289" lon="12.4157533"><ele>159.8</ele><time>2026-03-29T09:49:25.578Z</time></trkpt><trkpt lat="43.9728917" lon="12.415925"><ele>160.20000000000002</ele><time>2026-03-29T09:49:26.578Z</time></trkpt><trkpt lat="43.97288" lon="12.4160433"><ele>160.60000000000002</ele><time>2026-03-29T09:49:27.577Z</time></trkpt><trkpt lat="43.97287" lon="12.4161483"><ele>161.0</ele><time>2026-03-29T09:49:28.578Z</time></trkpt><trkpt lat="43.9728483" lon="12.4163267"><ele>161.20000000000002</ele><time>2026-03-29T09:49:30.578Z</time></trkpt><trkpt lat="43.972835" lon="12.4164533"><ele>161.4</ele><time>2026-03-29T09:49:31.578Z</time></trkpt><trkpt lat="43.972815" lon="12.4165817"><ele>161.6</ele><time>2026-03-29T09:49:32.578Z</time></trkpt><trkpt lat="43.9728" lon="12.4167017"><ele>161.8</ele><time>2026-03-29T09:49:33.578Z</time></trkpt><trkpt lat="43.972775" lon="12.416835"><ele>162.0</ele><time>2026-03-29T09:49:34.578Z</time></trkpt><trkpt lat="43.9727383" lon="12.4169767"><ele>162.0</ele><time>2026-03-29T09:49:35.578Z</time></trkpt><trkpt lat="43.9726967" lon="12.4171133"><ele>162.0</ele><time>2026-03-29T09:49:36.578Z</time></trkpt><trkpt lat="43.9726483" lon="12.417245"><ele>162.0</ele><time>2026-03-29T09:49:37.578Z</time></trkpt><trkpt lat="43.972575" lon="12.4173883"><ele>162.0</ele><time>2026-03-29T09:49:38.578Z</time></trkpt><trkpt lat="43.9724917" lon="12.41752"><ele>161.25</ele><time>2026-03-29T09:49:39.577Z</time></trkpt><trkpt lat="43.9724033" lon="12.4176317"><ele>160.5</ele><time>2026-03-29T09:49:40.578Z</time></trkpt><trkpt lat="43.97231" lon="12.4177283"><ele>159.75</ele><time>2026-03-29T09:49:41.578Z</time></trkpt><trkpt lat="43.9722233" lon="12.4178283"><ele>159.0</ele><time>2026-03-29T09:49:42.577Z</time></trkpt><trkpt lat="43.972135" lon="12.417935"><ele>160.75</ele><time>2026-03-29T09:49:43.578Z</time></trkpt><trkpt lat="43.972055" lon="12.418055"><ele>162.5</ele><time>2026-03-29T09:49:44.578Z</time></trkpt><trkpt lat="43.9719717" lon="12.4181917"><ele>164.25</ele><time>2026-03-29T09:49:45.578Z</time></trkpt><trkpt lat="43.97189" lon="12.4183233"><ele>166.0</ele><time>2026-03-29T09:49:46.578Z</time></trkpt><trkpt lat="43.97182" lon="12.4184467"><ele>166.0</ele><time>2026-03-29T09:49:47.577Z</time></trkpt><trkpt lat="43.9717583" lon="12.41857"><ele>166.0</ele><time>2026-03-29T09:49:48.578Z</time></trkpt><trkpt lat="43.9717133" lon="12.4187117"><ele>166.0</ele><time>2026-03-29T09:49:49.578Z</time></trkpt><trkpt lat="43.9716867" lon="12.4188583"><ele>166.0</ele><time>2026-03-29T09:49:50.577Z</time></trkpt><trkpt lat="43.9716867" lon="12.4190133"><ele>166.0</ele><time>2026-03-29T09:49:51.578Z</time></trkpt><trkpt lat="43.9716967" lon="12.4191583"><ele>167.20000000000002</ele><time>2026-03-29T09:49:52.577Z</time></trkpt><trkpt lat="43.971725" lon="12.4192883"><ele>168.4</ele><time>2026-03-29T09:49:53.578Z</time></trkpt><trkpt lat="43.9717783" lon="12.41939"><ele>169.6</ele><time>2026-03-29T09:49:54.578Z</time></trkpt><trkpt lat="43.97184" lon="12.419455"><ele>170.8</ele><time>2026-03-29T09:49:55.578Z</time></trkpt><trkpt lat="43.9719433" lon="12.4194733"><ele>172.0</ele><time>2026-03-29T09:49:56.578Z</time></trkpt><trkpt lat="43.97205" lon="12.4194783"><ele>172.0</ele><time>2026-03-29T09:49:57.577Z</time></trkpt><trkpt lat="43.9721483" lon="12.419495"><ele>172.0</ele><time>2026-03-29T09:49:58.578Z</time></trkpt><trkpt lat="43.972225" lon="12.4195367"><ele>172.0</ele><time>2026-03-29T09:49:59.578Z</time></trkpt><trkpt lat="43.972285" lon="12.419605"><ele>172.0</ele><time>2026-03-29T09:50:00.578Z</time></trkpt><trkpt lat="43.9723167" lon="12.4197017"><ele>172.0</ele><time>2026-03-29T09:50:01.577Z</time></trkpt><trkpt lat="43.9723183" lon="12.4198067"><ele>172.0</ele><time>2026-03-29T09:50:02.578Z</time></trkpt><trkpt lat="43.9722917" lon="12.419925"><ele>172.39999999999998</ele><time>2026-03-29T09:50:03.578Z</time></trkpt><trkpt lat="43.9722483" lon="12.420055"><ele>172.79999999999998</ele><time>2026-03-29T09:50:04.578Z</time></trkpt><trkpt lat="43.972205" lon="12.4201833"><ele>173.2</ele><time>2026-03-29T09:50:05.577Z</time></trkpt><trkpt lat="43.9721583" lon="12.4203017"><ele>173.6</ele><time>2026-03-29T09:50:06.578Z</time></trkpt><trkpt lat="43.9721083" lon="12.4204233"><ele>174.0</ele><time>2026-03-29T09:50:07.578Z</time></trkpt><trkpt lat="43.9720583" lon="12.42056"><ele>174.6</ele><time>2026-03-29T09:50:08.578Z</time></trkpt><trkpt lat="43.972" lon="12.42069"><ele>175.2</ele><time>2026-03-29T09:50:09.577Z</time></trkpt><trkpt lat="43.97195" lon="12.4208033"><ele>175.79999999999998</ele><time>2026-03-29T09:50:10.578Z</time></trkpt><trkpt lat="43.971915" lon="12.4209133"><ele>176.39999999999998</ele><time>2026-03-29T09:50:11.578Z</time></trkpt><trkpt lat="43.971905" lon="12.421025"><ele>177.0</ele><time>2026-03-29T09:50:12.577Z</time></trkpt><trkpt lat="43.971945" lon="12.4211217"><ele>177.0</ele><time>2026-03-29T09:50:13.578Z</time></trkpt><trkpt lat="43.9720217" lon="12.4212017"><ele>177.0</ele><time>2026-03-29T09:50:14.578Z</time></trkpt><trkpt lat="43.9721517" lon="12.4212533"><ele>177.0</ele><time>2026-03-29T09:50:15.577Z</time></trkpt><trkpt lat="43.972305" lon="12.4213117"><ele>177.0</ele><time>2026-03-29T09:50:16.578Z</time></trkpt><trkpt lat="43.9724567" lon="12.4213633"><ele>180.0</ele><time>2026-03-29T09:50:17.578Z</time></trkpt><trkpt lat="43.9725817" lon="12.4214483"><ele>183.0</ele><time>2026-03-29T09:50:18.578Z</time></trkpt><trkpt lat="43.97268" lon="12.4215567"><ele>186.0</ele><time>2026-03-29T09:50:19.578Z</time></trkpt><trkpt lat="43.9727417" lon="12.42169"><ele>189.0</ele><time>2026-03-29T09:50:20.577Z</time></trkpt><trkpt lat="43.9727317" lon="12.4218517"><ele>189.0</ele><time>2026-03-29T09:50:21.577Z</time></trkpt><trkpt lat="43.9726733" lon="12.42202"><ele>189.0</ele><time>2026-03-29T09:50:22.578Z</time></trkpt><trkpt lat="43.9725867" lon="12.4221833"><ele>189.0</ele><time>2026-03-29T09:50:23.577Z</time></trkpt><trkpt lat="43.972525" lon="12.4223583"><ele>189.0</ele><time>2026-03-29T09:50:24.578Z</time></trkpt><trkpt lat="43.9725133" lon="12.4225517"><ele>190.0</ele><time>2026-03-29T09:50:25.578Z</time></trkpt><trkpt lat="43.9725567" lon="12.42277"><ele>191.0</ele><time>2026-03-29T09:50:26.578Z</time></trkpt><trkpt lat="43.9726333" lon="12.4230167"><ele>192.0</ele><time>2026-03-29T09:50:27.578Z</time></trkpt><trkpt lat="43.9727017" lon="12.4232333"><ele>193.5</ele><time>2026-03-29T09:50:28.578Z</time></trkpt><trkpt lat="43.972755" lon="12.4234467"><ele>195.0</ele><time>2026-03-29T09:50:29.578Z</time></trkpt><trkpt lat="43.9727683" lon="12.4236517"><ele>196.5</ele><time>2026-03-29T09:50:30.578Z</time></trkpt><trkpt lat="43.9727617" lon="12.4238267"><ele>198.0</ele><time>2026-03-29T09:50:31.578Z</time></trkpt><trkpt lat="43.9727717" lon="12.42396"><ele>198.2</ele><time>2026-03-29T09:50:32.578Z</time></trkpt><trkpt lat="43.9728117" lon="12.4240783"><ele>198.4</ele><time>2026-03-29T09:50:33.577Z</time></trkpt><trkpt lat="43.972885" lon="12.4241533"><ele>198.6</ele><time>2026-03-29T09:50:34.578Z</time></trkpt><trkpt lat="43.9729667" lon="12.4241667"><ele>198.79999999999998</ele><time>2026-03-29T09:50:35.578Z</time></trkpt><trkpt lat="43.9730633" lon="12.4240683"><ele>199.0</ele><time>2026-03-29T09:50:36.578Z</time></trkpt><trkpt lat="43.9731317" lon="12.4239167"><ele>198.79999999999998</ele><time>2026-03-29T09:50:37.577Z</time></trkpt><trkpt lat="43.973185" lon="12.4237667"><ele>198.6</ele><time>2026-03-29T09:50:38.578Z</time></trkpt><trkpt lat="43.9732333" lon="12.423645"><ele>198.4</ele><time>2026-03-29T09:50:39.577Z</time></trkpt><trkpt lat="43.9733117" lon="12.423565"><ele>198.2</ele><time>2026-03-29T09:50:40.577Z</time></trkpt><trkpt lat="43.9734183" lon="12.4235467"><ele>198.0</ele><time>2026-03-29T09:50:41.577Z</time></trkpt><trkpt lat="43.9735333" lon="12.423595"><ele>200.25</ele><time>2026-03-29T09:50:42.578Z</time></trkpt><trkpt lat="43.973655" lon="12.4236883"><ele>202.5</ele><time>2026-03-29T09:50:43.577Z</time></trkpt><trkpt lat="43.9737883" lon="12.4237617"><ele>204.75</ele><time>2026-03-29T09:50:44.578Z</time></trkpt><trkpt lat="43.9739067" lon="12.4238033"><ele>207.0</ele><time>2026-03-29T09:50:45.578Z</time></trkpt><trkpt lat="43.9740167" lon="12.4237983"><ele>207.0</ele><time>2026-03-29T09:50:46.578Z</time></trkpt><trkpt lat="43.97411" lon="12.4237283"><ele>207.0</ele><time>2026-03-29T09:50:47.578Z</time></trkpt><trkpt lat="43.97417" lon="12.4236167"><ele>207.0</ele><time>2026-03-29T09:50:48.578Z</time></trkpt><trkpt lat="43.9741867" lon="12.423495"><ele>207.0</ele><time>2026-03-29T09:50:49.577Z</time></trkpt><trkpt lat="43.9742067" lon="12.4233917"><ele>207.0</ele><time>2026-03-29T09:50:50.578Z</time></trkpt><trkpt lat="43.9742517" lon="12.4233217"><ele>207.0</ele><time>2026-03-29T09:50:51.577Z</time></trkpt><trkpt lat="43.9743183" lon="12.4233"><ele>211.25</ele><time>2026-03-29T09:50:52.578Z</time></trkpt><trkpt lat="43.9744017" lon="12.4233217"><ele>215.5</ele><time>2026-03-29T09:50:53.577Z</time></trkpt><trkpt lat="43.9744917" lon="12.4234317"><ele>219.75</ele><time>2026-03-29T09:50:54.578Z</time></trkpt><trkpt lat="43.974575" lon="12.42359"><ele>224.0</ele><time>2026-03-29T09:50:55.578Z</time></trkpt><trkpt lat="43.9746533" lon="12.42379"><ele>226.0</ele><time>2026-03-29T09:50:56.578Z</time></trkpt><trkpt lat="43.974735" lon="12.4240217"><ele>228.0</ele><time>2026-03-29T09:50:57.578Z</time></trkpt><trkpt lat="43.9748217" lon="12.4242783"><ele>230.0</ele><time>2026-03-29T09:50:58.577Z</time></trkpt><trkpt lat="43.9749033" lon="12.42453"><ele>232.0</ele><time>2026-03-29T09:50:59.577Z</time></trkpt><trkpt lat="43.9749617" lon="12.424815"><ele>234.0</ele><time>2026-03-29T09:51:00.577Z</time></trkpt><trkpt lat="43.9749867" lon="12.425105"><ele>236.0</ele><time>2026-03-29T09:51:01.578Z</time></trkpt><trkpt lat="43.9750133" lon="12.4253567"><ele>244.0</ele><time>2026-03-29T09:51:02.578Z</time></trkpt><trkpt lat="43.9750533" lon="12.425595"><ele>252.0</ele><time>2026-03-29T09:51:03.578Z</time></trkpt><trkpt lat="43.9751333" lon="12.4258067"><ele>260.0</ele><time>2026-03-29T09:51:04.578Z</time></trkpt><trkpt lat="43.9752433" lon="12.42597"><ele>260.0</ele><time>2026-03-29T09:51:05.578Z</time></trkpt><trkpt lat="43.97537" lon="12.42611"><ele>260.0</ele><time>2026-03-29T09:51:06.578Z</time></trkpt><trkpt lat="43.975465" lon="12.426265"><ele>260.0</ele><time>2026-03-29T09:51:07.578Z</time></trkpt><trkpt lat="43.975525" lon="12.42643"><ele>260.0</ele><time>2026-03-29T09:51:08.578Z</time></trkpt><trkpt lat="43.97556" lon="12.4265917"><ele>260.2</ele><time>2026-03-29T09:51:09.577Z</time></trkpt><trkpt lat="43.9755667" lon="12.4267517"><ele>260.4</ele><time>2026-03-29T09:51:10.577Z</time></trkpt><trkpt lat="43.9755717" lon="12.4268933"><ele>260.6</ele><time>2026-03-29T09:51:11.578Z</time></trkpt><trkpt lat="43.97558" lon="12.427015"><ele>260.8</ele><time>2026-03-29T09:51:12.578Z</time></trkpt><trkpt lat="43.975605" lon="12.42713"><ele>261.0</ele><time>2026-03-29T09:51:13.578Z</time></trkpt><trkpt lat="43.975655" lon="12.427235"><ele>260.5</ele><time>2026-03-29T09:51:14.578Z</time></trkpt><trkpt lat="43.9757367" lon="12.427335"><ele>260.0</ele><time>2026-03-29T09:51:15.577Z</time></trkpt><trkpt lat="43.9758417" lon="12.4274667"><ele>259.5</ele><time>2026-03-29T09:51:16.578Z</time></trkpt><trkpt lat="43.97596" lon="12.427625"><ele>259.0</ele><time>2026-03-29T09:51:17.578Z</time></trkpt><trkpt lat="43.976085" lon="12.427785"><ele>257.3333333333333</ele><time>2026-03-29T09:51:18.577Z</time></trkpt><trkpt lat="43.9762233" lon="12.427915"><ele>255.66666666666669</ele><time>2026-03-29T09:51:19.578Z</time></trkpt><trkpt lat="43.9763783" lon="12.42798"><ele>254.0</ele><time>2026-03-29T09:51:20.578Z</time></trkpt><trkpt lat="43.9765483" lon="12.4280017"><ele>260.33333333333337</ele><time>2026-03-29T09:51:21.578Z</time></trkpt><trkpt lat="43.976735" lon="12.4279517"><ele>266.6666666666667</ele><time>2026-03-29T09:51:22.578Z</time></trkpt><trkpt lat="43.9769117" lon="12.42786"><ele>273.0</ele><time>2026-03-29T09:51:23.578Z</time></trkpt><trkpt lat="43.9770717" lon="12.4277633"><ele>273.0</ele><time>2026-03-29T09:51:24.578Z</time></trkpt><trkpt lat="43.97723" lon="12.4277067"><ele>273.0</ele><time>2026-03-29T09:51:25.577Z</time></trkpt><trkpt lat="43.9774017" lon="12.4277317"><ele>273.0</ele><time>2026-03-29T09:51:26.578Z</time></trkpt><trkpt lat="43.9775833" lon="12.427765"><ele>277.0</ele><time>2026-03-29T09:51:27.578Z</time></trkpt><trkpt lat="43.9777717" lon="12.4278083"><ele>281.0</ele><time>2026-03-29T09:51:28.577Z</time></trkpt><trkpt lat="43.9779417" lon="12.427855"><ele>285.0</ele><time>2026-03-29T09:51:29.578Z</time></trkpt><trkpt lat="43.978085" lon="12.42791"><ele>284.0</ele><time>2026-03-29T09:51:30.578Z</time></trkpt><trkpt lat="43.9781967" lon="12.4279983"><ele>283.0</ele><time>2026-03-29T09:51:31.578Z</time></trkpt><trkpt lat="43.9782917" lon="12.428125"><ele>282.0</ele><time>2026-03-29T09:51:32.578Z</time></trkpt><trkpt lat="43.9783617" lon="12.4282783"><ele>281.0</ele><time>2026-03-29T09:51:33.578Z</time></trkpt><trkpt lat="43.9784333" lon="12.4284617"><ele>281.0</ele><time>2026-03-29T09:51:34.578Z</time></trkpt><trkpt lat="43.9785233" lon="12.4286883"><ele>281.0</ele><time>2026-03-29T09:51:35.578Z</time></trkpt><trkpt lat="43.9786283" lon="12.42894"><ele>281.0</ele><time>2026-03-29T09:51:36.578Z</time></trkpt><trkpt lat="43.9787217" lon="12.42919"><ele>277.6666666666667</ele><time>2026-03-29T09:51:37.578Z</time></trkpt><trkpt lat="43.9788033" lon="12.4294133"><ele>274.3333333333333</ele><time>2026-03-29T09:51:38.577Z</time></trkpt><trkpt lat="43.9788967" lon="12.4295917"><ele>271.0</ele><time>2026-03-29T09:51:39.578Z</time></trkpt><trkpt lat="43.9790133" lon="12.4297433"><ele>267.0</ele><time>2026-03-29T09:51:40.577Z</time></trkpt><trkpt lat="43.97914" lon="12.4298233"><ele>263.0</ele><time>2026-03-29T09:51:41.578Z</time></trkpt><trkpt lat="43.9792883" lon="12.4298433"><ele>259.0</ele><time>2026-03-29T09:51:42.578Z</time></trkpt><trkpt lat="43.9794617" lon="12.4297967"><ele>260.0</ele><time>2026-03-29T09:51:43.578Z</time></trkpt><trkpt lat="43.9796667" lon="12.4297217"><ele>261.0</ele><time>2026-03-29T09:51:44.578Z</time></trkpt><trkpt lat="43.9798817" lon="12.4296683"><ele>262.0</ele><time>2026-03-29T09:51:45.577Z</time></trkpt><trkpt lat="43.9800833" lon="12.4296317"><ele>262.0</ele><time>2026-03-29T09:51:46.577Z</time></trkpt><trkpt lat="43.9802633" lon="12.4296067"><ele>262.0</ele><time>2026-03-29T09:51:47.577Z</time></trkpt><trkpt lat="43.9804417" lon="12.429615"><ele>262.0</ele><time>2026-03-29T09:51:48.578Z</time></trkpt><trkpt lat="43.98061" lon="12.4296667"><ele>258.3333333333333</ele><time>2026-03-29T09:51:49.578Z</time></trkpt><trkpt lat="43.9807633" lon="12.42978"><ele>254.66666666666669</ele><time>2026-03-29T09:51:50.577Z</time></trkpt><trkpt lat="43.9809117" lon="12.4299483"><ele>251.0</ele><time>2026-03-29T09:51:51.578Z</time></trkpt><trkpt lat="43.98105" lon="12.4301517"><ele>248.33333333333334</ele><time>2026-03-29T09:51:52.578Z</time></trkpt><trkpt lat="43.981185" lon="12.430345"><ele>245.66666666666669</ele><time>2026-03-29T09:51:53.578Z</time></trkpt><trkpt lat="43.9813183" lon="12.4305267"><ele>243.0</ele><time>2026-03-29T09:51:54.578Z</time></trkpt><trkpt lat="43.9814417" lon="12.4306983"><ele>243.0</ele><time>2026-03-29T09:51:55.578Z</time></trkpt><trkpt lat="43.9815583" lon="12.430885"><ele>243.0</ele><time>2026-03-29T09:51:56.577Z</time></trkpt><trkpt lat="43.9816483" lon="12.4310933"><ele>243.0</ele><time>2026-03-29T09:51:57.578Z</time></trkpt><trkpt lat="43.9816983" lon="12.4313417"><ele>240.66666666666669</ele><time>2026-03-29T09:51:58.578Z</time></trkpt><trkpt lat="43.9817117" lon="12.431615"><ele>238.33333333333334</ele><time>2026-03-29T09:51:59.578Z</time></trkpt><trkpt lat="43.9817" lon="12.4319017"><ele>236.0</ele><time>2026-03-29T09:52:00.578Z</time></trkpt><trkpt lat="43.98168" lon="12.4322167"><ele>236.0</ele><time>2026-03-29T09:52:01.578Z</time></trkpt><trkpt lat="43.9816517" lon="12.4325433"><ele>236.0</ele><time>2026-03-29T09:52:02.577Z</time></trkpt><trkpt lat="43.9816183" lon="12.4328867"><ele>235.5</ele><time>2026-03-29T09:52:03.578Z</time></trkpt><trkpt lat="43.9815883" lon="12.433235"><ele>235.0</ele><time>2026-03-29T09:52:04.578Z</time></trkpt><trkpt lat="43.981565" lon="12.4335567"><ele>235.33333333333331</ele><time>2026-03-29T09:52:05.578Z</time></trkpt><trkpt lat="43.9815367" lon="12.433875"><ele>235.66666666666669</ele><time>2026-03-29T09:52:06.578Z</time></trkpt><trkpt lat="43.9815117" lon="12.4341717"><ele>236.0</ele><time>2026-03-29T09:52:07.578Z</time></trkpt><trkpt lat="43.9814867" lon="12.4344467"><ele>238.0</ele><time>2026-03-29T09:52:08.578Z</time></trkpt><trkpt lat="43.981455" lon="12.4347183"><ele>240.0</ele><time>2026-03-29T09:52:09.578Z</time></trkpt><trkpt lat="43.981435" lon="12.43496"><ele>242.0</ele><time>2026-03-29T09:52:10.577Z</time></trkpt><trkpt lat="43.9814233" lon="12.435195"><ele>242.0</ele><time>2026-03-29T09:52:11.577Z</time></trkpt><trkpt lat="43.9814517" lon="12.4354417"><ele>242.0</ele><time>2026-03-29T09:52:12.577Z</time></trkpt><trkpt lat="43.9815217" lon="12.4356917"><ele>242.0</ele><time>2026-03-29T09:52:13.577Z</time></trkpt><trkpt lat="43.9816317" lon="12.4359833"><ele>242.0</ele><time>2026-03-29T09:52:14.578Z</time></trkpt><trkpt lat="43.9817367" lon="12.43628"><ele>242.0</ele><time>2026-03-29T09:52:15.578Z</time></trkpt><trkpt lat="43.981835" lon="12.4365667"><ele>241.0</ele><time>2026-03-29T09:52:16.577Z</time></trkpt><trkpt lat="43.9819167" lon="12.43685"><ele>240.0</ele><time>2026-03-29T09:52:17.577Z</time></trkpt><trkpt lat="43.9819767" lon="12.4371317"><ele>239.0</ele><time>2026-03-29T09:52:18.578Z</time></trkpt><trkpt lat="43.9820267" lon="12.4373983"><ele>238.0</ele><time>2026-03-29T09:52:19.578Z</time></trkpt><trkpt lat="43.9820583" lon="12.437665"><ele>237.0</ele><time>2026-03-29T09:52:20.578Z</time></trkpt><trkpt lat="43.982085" lon="12.4379233"><ele>236.0</ele><time>2026-03-29T09:52:21.577Z</time></trkpt><trkpt lat="43.982105" lon="12.4381683"><ele>234.66666666666669</ele><time>2026-03-29T09:52:22.578Z</time></trkpt><trkpt lat="43.9821217" lon="12.4383933"><ele>233.33333333333331</ele><time>2026-03-29T09:52:23.577Z</time></trkpt><trkpt lat="43.982145" lon="12.4386183"><ele>232.0</ele><time>2026-03-29T09:52:24.578Z</time></trkpt><trkpt lat="43.982155" lon="12.4388467"><ele>230.66666666666666</ele><time>2026-03-29T09:52:25.578Z</time></trkpt><trkpt lat="43.9821633" lon="12.4390967"><ele>229.33333333333331</ele><time>2026-03-29T09:52:26.578Z</time></trkpt><trkpt lat="43.982145" lon="12.4393467"><ele>228.0</ele><time>2026-03-29T09:52:27.578Z</time></trkpt><trkpt lat="43.9821033" lon="12.4396017"><ele>226.33333333333331</ele><time>2026-03-29T09:52:28.578Z</time></trkpt><trkpt lat="43.982045" lon="12.4398583"><ele>224.66666666666666</ele><time>2026-03-29T09:52:29.578Z</time></trkpt><trkpt lat="43.9819767" lon="12.440135"><ele>223.0</ele><time>2026-03-29T09:52:30.578Z</time></trkpt><trkpt lat="43.9818967" lon="12.4404383"><ele>219.5</ele><time>2026-03-29T09:52:31.578Z</time></trkpt><trkpt lat="43.9818067" lon="12.4407467"><ele>216.0</ele><time>2026-03-29T09:52:32.577Z</time></trkpt><trkpt lat="43.9817167" lon="12.4410417"><ele>221.0</ele><time>2026-03-29T09:52:33.578Z</time></trkpt><trkpt lat="43.9816433" lon="12.4413117"><ele>226.0</ele><time>2026-03-29T09:52:34.578Z</time></trkpt><trkpt lat="43.9815783" lon="12.44155"><ele>231.0</ele><time>2026-03-29T09:52:35.578Z</time></trkpt><trkpt lat="43.9815117" lon="12.441765"><ele>231.0</ele><time>2026-03-29T09:52:36.578Z</time></trkpt><trkpt lat="43.9814317" lon="12.4419467"><ele>231.0</ele><time>2026-03-29T09:52:37.577Z</time></trkpt><trkpt lat="43.98133" lon="12.4421017"><ele>231.0</ele><time>2026-03-29T09:52:38.577Z</time></trkpt><trkpt lat="43.98119" lon="12.442235"><ele>232.0</ele><time>2026-03-29T09:52:39.577Z</time></trkpt><trkpt lat="43.9810183" lon="12.4423767"><ele>233.0</ele><time>2026-03-29T09:52:40.578Z</time></trkpt><trkpt lat="43.9808217" lon="12.4425383"><ele>234.0</ele><time>2026-03-29T09:52:41.578Z</time></trkpt><trkpt lat="43.98063" lon="12.4426933"><ele>234.0</ele><time>2026-03-29T09:52:42.577Z</time></trkpt><trkpt lat="43.9804567" lon="12.442845"><ele>234.0</ele><time>2026-03-29T09:52:43.578Z</time></trkpt><trkpt lat="43.98029" lon="12.4430017"><ele>234.0</ele><time>2026-03-29T09:52:44.578Z</time></trkpt><trkpt lat="43.98014" lon="12.44317"><ele>232.33333333333331</ele><time>2026-03-29T09:52:45.578Z</time></trkpt><trkpt lat="43.9800017" lon="12.44338"><ele>230.66666666666666</ele><time>2026-03-29T09:52:46.578Z</time></trkpt><trkpt lat="43.9798817" lon="12.4436467"><ele>229.0</ele><time>2026-03-29T09:52:47.578Z</time></trkpt><trkpt lat="43.9797767" lon="12.4439533"><ele>224.5</ele><time>2026-03-29T09:52:48.577Z</time></trkpt><trkpt lat="43.9796633" lon="12.4442933"><ele>220.0</ele><time>2026-03-29T09:52:49.578Z</time></trkpt><trkpt lat="43.9795317" lon="12.4446517"><ele>216.5</ele><time>2026-03-29T09:52:50.578Z</time></trkpt><trkpt lat="43.9793917" lon="12.44502"><ele>213.0</ele><time>2026-03-29T09:52:51.578Z</time></trkpt><trkpt lat="43.979255" lon="12.44541"><ele>214.5</ele><time>2026-03-29T09:52:52.578Z</time></trkpt><trkpt lat="43.9791167" lon="12.4458017"><ele>216.0</ele><time>2026-03-29T09:52:53.578Z</time></trkpt><trkpt lat="43.978985" lon="12.4461783"><ele>213.5</ele><time>2026-03-29T09:52:54.578Z</time></trkpt><trkpt lat="43.9788583" lon="12.446535"><ele>211.0</ele><time>2026-03-29T09:52:55.577Z</time></trkpt><trkpt lat="43.9787417" lon="12.4468817"><ele>208.5</ele><time>2026-03-29T09:52:56.578Z</time></trkpt><trkpt lat="43.9786233" lon="12.4472317"><ele>206.0</ele><time>2026-03-29T09:52:57.578Z</time></trkpt><trkpt lat="43.9785183" lon="12.4475633"><ele>206.0</ele><time>2026-03-29T09:52:58.578Z</time></trkpt><trkpt lat="43.978425" lon="12.4479"><ele>206.0</ele><time>2026-03-29T09:52:59.577Z</time></trkpt><trkpt lat="43.9783317" lon="12.4482417"><ele>206.5</ele><time>2026-03-29T09:53:00.578Z</time></trkpt><trkpt lat="43.97824" lon="12.4485667"><ele>207.0</ele><time>2026-03-29T09:53:01.578Z</time></trkpt><trkpt lat="43.9781517" lon="12.4488717"><ele>207.0</ele><time>2026-03-29T09:53:02.578Z</time></trkpt><trkpt lat="43.9780417" lon="12.4491483"><ele>207.0</ele><time>2026-03-29T09:53:03.577Z</time></trkpt><trkpt lat="43.9778983" lon="12.4493883"><ele>207.0</ele><time>2026-03-29T09:53:04.578Z</time></trkpt><trkpt lat="43.9777267" lon="12.4495917"><ele>207.0</ele><time>2026-03-29T09:53:05.578Z</time></trkpt><trkpt lat="43.97753" lon="12.4497967"><ele>205.5</ele><time>2026-03-29T09:53:06.578Z</time></trkpt><trkpt lat="43.9773333" lon="12.4500267"><ele>204.0</ele><time>2026-03-29T09:53:07.577Z</time></trkpt><trkpt lat="43.97714" lon="12.4502617"><ele>201.0</ele><time>2026-03-29T09:53:08.578Z</time></trkpt><trkpt lat="43.9769567" lon="12.450485"><ele>198.0</ele><time>2026-03-29T09:53:09.578Z</time></trkpt><trkpt lat="43.9767867" lon="12.4506917"><ele>201.33333333333331</ele><time>2026-03-29T09:53:10.578Z</time></trkpt><trkpt lat="43.9766217" lon="12.450895"><ele>204.66666666666666</ele><time>2026-03-29T09:53:11.577Z</time></trkpt><trkpt lat="43.976455" lon="12.4510967"><ele>208.0</ele><time>2026-03-29T09:53:12.578Z</time></trkpt><trkpt lat="43.976295" lon="12.4512967"><ele>208.0</ele><time>2026-03-29T09:53:13.578Z</time></trkpt><trkpt lat="43.9761433" lon="12.4514817"><ele>208.0</ele><time>2026-03-29T09:53:14.578Z</time></trkpt><trkpt lat="43.976" lon="12.4516467"><ele>208.0</ele><time>2026-03-29T09:53:15.578Z</time></trkpt><trkpt lat="43.9758567" lon="12.451805"><ele>208.33333333333331</ele><time>2026-03-29T09:53:16.578Z</time></trkpt><trkpt lat="43.9757117" lon="12.4519583"><ele>208.66666666666669</ele><time>2026-03-29T09:53:17.578Z</time></trkpt><trkpt lat="43.975565" lon="12.4521033"><ele>209.0</ele><time>2026-03-29T09:53:18.577Z</time></trkpt><trkpt lat="43.9754183" lon="12.45223"><ele>209.0</ele><time>2026-03-29T09:53:19.578Z</time></trkpt><trkpt lat="43.97526" lon="12.4523117"><ele>209.0</ele><time>2026-03-29T09:53:20.578Z</time></trkpt><trkpt lat="43.97508" lon="12.45234"><ele>209.0</ele><time>2026-03-29T09:53:21.578Z</time></trkpt><trkpt lat="43.974895" lon="12.4523417"><ele>210.0</ele><time>2026-03-29T09:53:22.577Z</time></trkpt><trkpt lat="43.9747217" lon="12.4523483"><ele>211.0</ele><time>2026-03-29T09:53:23.578Z</time></trkpt><trkpt lat="43.974555" lon="12.4523617"><ele>212.0</ele><time>2026-03-29T09:53:24.578Z</time></trkpt><trkpt lat="43.9743983" lon="12.452365"><ele>212.0</ele><time>2026-03-29T09:53:25.578Z</time></trkpt><trkpt lat="43.9742333" lon="12.4523833"><ele>212.0</ele><time>2026-03-29T09:53:26.578Z</time></trkpt><trkpt lat="43.9740817" lon="12.45239"><ele>212.0</ele><time>2026-03-29T09:53:27.578Z</time></trkpt><trkpt lat="43.97395" lon="12.452365"><ele>213.2</ele><time>2026-03-29T09:53:28.578Z</time></trkpt><trkpt lat="43.973825" lon="12.45231"><ele>214.39999999999998</ele><time>2026-03-29T09:53:29.577Z</time></trkpt><trkpt lat="43.9737267" lon="12.4522567"><ele>215.60000000000002</ele><time>2026-03-29T09:53:30.578Z</time></trkpt><trkpt lat="43.9736367" lon="12.4522067"><ele>216.8</ele><time>2026-03-29T09:53:31.577Z</time></trkpt><trkpt lat="43.9735333" lon="12.4521417"><ele>218.0</ele><time>2026-03-29T09:53:32.578Z</time></trkpt><trkpt lat="43.9734267" lon="12.4520767"><ele>219.0</ele><time>2026-03-29T09:53:33.578Z</time></trkpt><trkpt lat="43.9733283" lon="12.45203"><ele>220.0</ele><time>2026-03-29T09:53:34.578Z</time></trkpt><trkpt lat="43.9732283" lon="12.4520083"><ele>221.0</ele><time>2026-03-29T09:53:35.578Z</time></trkpt><trkpt lat="43.973115" lon="12.4520183"><ele>222.0</ele><time>2026-03-29T09:53:36.578Z</time></trkpt><trkpt lat="43.9729767" lon="12.4520367"><ele>222.0</ele><time>2026-03-29T09:53:37.577Z</time></trkpt><trkpt lat="43.9728317" lon="12.4520483"><ele>222.0</ele><time>2026-03-29T09:53:38.577Z</time></trkpt><trkpt lat="43.972675" lon="12.4520567"><ele>222.0</ele><time>2026-03-29T09:53:39.577Z</time></trkpt><trkpt lat="43.9725167" lon="12.45207"><ele>223.75</ele><time>2026-03-29T09:53:40.578Z</time></trkpt><trkpt lat="43.972355" lon="12.4520783"><ele>225.5</ele><time>2026-03-29T09:53:41.578Z</time></trkpt><trkpt lat="43.9722067" lon="12.4520783"><ele>227.25</ele><time>2026-03-29T09:53:42.578Z</time></trkpt><trkpt lat="43.9720817" lon="12.4520733"><ele>229.0</ele><time>2026-03-29T09:53:43.577Z</time></trkpt><trkpt lat="43.9719767" lon="12.4520867"><ele>228.99999999999997</ele><time>2026-03-29T09:53:44.578Z</time></trkpt><trkpt lat="43.9718933" lon="12.4521217"><ele>229.0</ele><time>2026-03-29T09:53:45.578Z</time></trkpt><trkpt lat="43.9718617" lon="12.4522117"><ele>229.0</ele><time>2026-03-29T09:53:46.578Z</time></trkpt><trkpt lat="43.9718683" lon="12.4523067"><ele>229.0</ele><time>2026-03-29T09:53:47.578Z</time></trkpt><trkpt lat="43.9719233" lon="12.4523933"><ele>228.99999999999997</ele><time>2026-03-29T09:53:48.578Z</time></trkpt><trkpt lat="43.9720183" lon="12.4524617"><ele>229.0</ele><time>2026-03-29T09:53:49.577Z</time></trkpt><trkpt lat="43.9721583" lon="12.4525217"><ele>228.5</ele><time>2026-03-29T09:53:50.579Z</time></trkpt><trkpt lat="43.9722917" lon="12.4525833"><ele>228.0</ele><time>2026-03-29T09:53:51.579Z</time></trkpt><trkpt lat="43.9724083" lon="12.45264"><ele>227.5</ele><time>2026-03-29T09:53:52.579Z</time></trkpt><trkpt lat="43.97252" lon="12.4527217"><ele>227.0</ele><time>2026-03-29T09:53:53.579Z</time></trkpt><trkpt lat="43.9726283" lon="12.4528183"><ele>227.0</ele><time>2026-03-29T09:53:54.579Z</time></trkpt><trkpt lat="43.9727083" lon="12.4529433"><ele>227.0</ele><time>2026-03-29T09:53:55.578Z</time></trkpt><trkpt lat="43.9727567" lon="12.4530917"><ele>227.0</ele><time>2026-03-29T09:53:56.579Z</time></trkpt><trkpt lat="43.9727617" lon="12.45326"><ele>227.0</ele><time>2026-03-29T09:53:57.579Z</time></trkpt><trkpt lat="43.9727333" lon="12.4534233"><ele>226.33333333333334</ele><time>2026-03-29T09:53:58.579Z</time></trkpt><trkpt lat="43.972685" lon="12.4536083"><ele>225.66666666666669</ele><time>2026-03-29T09:53:59.578Z</time></trkpt><trkpt lat="43.9726167" lon="12.4538"><ele>225.0</ele><time>2026-03-29T09:54:00.579Z</time></trkpt><trkpt lat="43.9725417" lon="12.453995"><ele>228.0</ele><time>2026-03-29T09:54:01.578Z</time></trkpt><trkpt lat="43.9724717" lon="12.4541867"><ele>231.0</ele><time>2026-03-29T09:54:02.578Z</time></trkpt><trkpt lat="43.972425" lon="12.45439"><ele>234.0</ele><time>2026-03-29T09:54:03.579Z</time></trkpt><trkpt lat="43.9724317" lon="12.4546183"><ele>233.0</ele><time>2026-03-29T09:54:04.579Z</time></trkpt><trkpt lat="43.9724917" lon="12.45486"><ele>232.0</ele><time>2026-03-29T09:54:05.578Z</time></trkpt><trkpt lat="43.97257" lon="12.4550817"><ele>231.0</ele><time>2026-03-29T09:54:06.578Z</time></trkpt><trkpt lat="43.9726483" lon="12.45529"><ele>228.5</ele><time>2026-03-29T09:54:07.579Z</time></trkpt><trkpt lat="43.972715" lon="12.45548"><ele>226.0</ele><time>2026-03-29T09:54:08.579Z</time></trkpt><trkpt lat="43.972775" lon="12.4556667"><ele>223.5</ele><time>2026-03-29T09:54:09.579Z</time></trkpt><trkpt lat="43.9728233" lon="12.4558417"><ele>221.0</ele><time>2026-03-29T09:54:10.579Z</time></trkpt><trkpt lat="43.97285" lon="12.45602"><ele>221.0</ele><time>2026-03-29T09:54:11.579Z</time></trkpt><trkpt lat="43.9728567" lon="12.4562067"><ele>221.0</ele><time>2026-03-29T09:54:12.578Z</time></trkpt><trkpt lat="43.9728417" lon="12.4563817"><ele>221.0</ele><time>2026-03-29T09:54:13.578Z</time></trkpt><trkpt lat="43.97281" lon="12.4565517"><ele>221.0</ele><time>2026-03-29T09:54:14.579Z</time></trkpt><trkpt lat="43.9727733" lon="12.4567183"><ele>220.60000000000002</ele><time>2026-03-29T09:54:15.578Z</time></trkpt><trkpt lat="43.972745" lon="12.4568717"><ele>220.20000000000002</ele><time>2026-03-29T09:54:16.579Z</time></trkpt><trkpt lat="43.9727133" lon="12.4570083"><ele>219.79999999999998</ele><time>2026-03-29T09:54:17.578Z</time></trkpt><trkpt lat="43.97269" lon="12.457145"><ele>219.39999999999998</ele><time>2026-03-29T09:54:18.579Z</time></trkpt><trkpt lat="43.97267" lon="12.457285"><ele>219.0</ele><time>2026-03-29T09:54:19.578Z</time></trkpt><trkpt lat="43.9726683" lon="12.457435"><ele>217.25</ele><time>2026-03-29T09:54:20.579Z</time></trkpt><trkpt lat="43.9726817" lon="12.4576017"><ele>215.5</ele><time>2026-03-29T09:54:21.579Z</time></trkpt><trkpt lat="43.972715" lon="12.4577817"><ele>213.75</ele><time>2026-03-29T09:54:22.579Z</time></trkpt><trkpt lat="43.9727517" lon="12.457975"><ele>212.0</ele><time>2026-03-29T09:54:23.579Z</time></trkpt><trkpt lat="43.9727883" lon="12.4581917"><ele>211.66666666666669</ele><time>2026-03-29T09:54:24.579Z</time></trkpt><trkpt lat="43.9728417" lon="12.4584383"><ele>211.33333333333331</ele><time>2026-03-29T09:54:25.579Z</time></trkpt><trkpt lat="43.9729033" lon="12.4586783"><ele>211.0</ele><time>2026-03-29T09:54:26.579Z</time></trkpt><trkpt lat="43.9729667" lon="12.4589333"><ele>211.0</ele><time>2026-03-29T09:54:27.578Z</time></trkpt><trkpt lat="43.97306" lon="12.4592"><ele>211.0</ele><time>2026-03-29T09:54:28.579Z</time></trkpt><trkpt lat="43.9731667" lon="12.45949"><ele>211.0</ele><time>2026-03-29T09:54:29.578Z</time></trkpt><trkpt lat="43.9732917" lon="12.459795"><ele>206.5</ele><time>2026-03-29T09:54:30.579Z</time></trkpt><trkpt lat="43.9734167" lon="12.460105"><ele>202.0</ele><time>2026-03-29T09:54:31.579Z</time></trkpt><trkpt lat="43.9735567" lon="12.460435"><ele>206.5</ele><time>2026-03-29T09:54:32.579Z</time></trkpt><trkpt lat="43.9737033" lon="12.4607967"><ele>211.0</ele><time>2026-03-29T09:54:33.578Z</time></trkpt><trkpt lat="43.9738533" lon="12.4611667"><ele>213.0</ele><time>2026-03-29T09:54:34.578Z</time></trkpt><trkpt lat="43.9739817" lon="12.4615883"><ele>215.0</ele><time>2026-03-29T09:54:35.658Z</time></trkpt><trkpt lat="43.9740983" lon="12.4617783"><ele>217.0</ele><time>2026-03-29T09:54:36.598Z</time></trkpt><trkpt lat="43.97432" lon="12.462235"><ele>219.0</ele><time>2026-03-29T09:54:38.074Z</time></trkpt><trkpt lat="43.974425" lon="12.462525"><ele>219.0</ele><time>2026-03-29T09:54:39.074Z</time></trkpt><trkpt lat="43.9746117" lon="12.4628167"><ele>219.0</ele><time>2026-03-29T09:54:40.574Z</time></trkpt><trkpt lat="43.9747617" lon="12.4629117"><ele>219.0</ele><time>2026-03-29T09:54:41.574Z</time></trkpt><trkpt lat="43.9749067" lon="12.462975"><ele>219.25</ele><time>2026-03-29T09:54:42.573Z</time></trkpt><trkpt lat="43.975035" lon="12.4630083"><ele>219.5</ele><time>2026-03-29T09:54:43.573Z</time></trkpt><trkpt lat="43.97518" lon="12.4630417"><ele>219.75</ele><time>2026-03-29T09:54:44.574Z</time></trkpt><trkpt lat="43.97535" lon="12.463065"><ele>220.0</ele><time>2026-03-29T09:54:45.574Z</time></trkpt><trkpt lat="43.9755383" lon="12.4630583"><ele>220.0</ele><time>2026-03-29T09:54:46.573Z</time></trkpt><trkpt lat="43.975715" lon="12.4630367"><ele>220.0</ele><time>2026-03-29T09:54:47.574Z</time></trkpt><trkpt lat="43.9758833" lon="12.46301"><ele>220.0</ele><time>2026-03-29T09:54:48.573Z</time></trkpt><trkpt lat="43.9760383" lon="12.4629967"><ele>217.75</ele><time>2026-03-29T09:54:49.574Z</time></trkpt><trkpt lat="43.976175" lon="12.4630133"><ele>215.5</ele><time>2026-03-29T09:54:50.573Z</time></trkpt><trkpt lat="43.9763" lon="12.4630717"><ele>213.25</ele><time>2026-03-29T09:54:51.573Z</time></trkpt><trkpt lat="43.9764067" lon="12.463175"><ele>211.0</ele><time>2026-03-29T09:54:52.574Z</time></trkpt><trkpt lat="43.976485" lon="12.4633033"><ele>210.99999999999997</ele><time>2026-03-29T09:54:53.574Z</time></trkpt><trkpt lat="43.976535" lon="12.4634167"><ele>211.0</ele><time>2026-03-29T09:54:54.573Z</time></trkpt><trkpt lat="43.9765833" lon="12.4634983"><ele>211.0</ele><time>2026-03-29T09:54:55.573Z</time></trkpt><trkpt lat="43.9766483" lon="12.4635267"><ele>211.0</ele><time>2026-03-29T09:54:56.573Z</time></trkpt><trkpt lat="43.9767133" lon="12.4634733"><ele>210.99999999999997</ele><time>2026-03-29T09:54:57.573Z</time></trkpt><trkpt lat="43.976765" lon="12.4633567"><ele>211.0</ele><time>2026-03-29T09:54:58.574Z</time></trkpt><trkpt lat="43.9767883" lon="12.4631733"><ele>208.5</ele><time>2026-03-29T09:54:59.574Z</time></trkpt><trkpt lat="43.976795" lon="12.4629717"><ele>206.0</ele><time>2026-03-29T09:55:00.574Z</time></trkpt><trkpt lat="43.9767983" lon="12.4627867"><ele>203.5</ele><time>2026-03-29T09:55:01.574Z</time></trkpt><trkpt lat="43.9768167" lon="12.4626067"><ele>201.0</ele><time>2026-03-29T09:55:02.574Z</time></trkpt><trkpt lat="43.97688" lon="12.4624517"><ele>201.0</ele><time>2026-03-29T09:55:03.573Z</time></trkpt><trkpt lat="43.9769683" lon="12.4623267"><ele>201.0</ele><time>2026-03-29T09:55:04.573Z</time></trkpt><trkpt lat="43.9770933" lon="12.4622717"><ele>201.0</ele><time>2026-03-29T09:55:05.574Z</time></trkpt><trkpt lat="43.9772517" lon="12.462255"><ele>201.0</ele><time>2026-03-29T09:55:06.573Z</time></trkpt><trkpt lat="43.977425" lon="12.4622617"><ele>198.0</ele><time>2026-03-29T09:55:07.573Z</time></trkpt><trkpt lat="43.9776067" lon="12.4622783"><ele>195.0</ele><time>2026-03-29T09:55:08.574Z</time></trkpt><trkpt lat="43.9777967" lon="12.462285"><ele>192.0</ele><time>2026-03-29T09:55:09.574Z</time></trkpt><trkpt lat="43.9779883" lon="12.4622717"><ele>192.0</ele><time>2026-03-29T09:55:10.573Z</time></trkpt><trkpt lat="43.978215" lon="12.4622417"><ele>192.0</ele><time>2026-03-29T09:55:11.573Z</time></trkpt><trkpt lat="43.9784683" lon="12.4621967"><ele>190.5</ele><time>2026-03-29T09:55:12.573Z</time></trkpt><trkpt lat="43.9787283" lon="12.4621367"><ele>189.0</ele><time>2026-03-29T09:55:13.573Z</time></trkpt><trkpt lat="43.97898" lon="12.4620833"><ele>187.0</ele><time>2026-03-29T09:55:14.574Z</time></trkpt><trkpt lat="43.979215" lon="12.4620183"><ele>185.0</ele><time>2026-03-29T09:55:15.574Z</time></trkpt><trkpt lat="43.979435" lon="12.4619583"><ele>185.0</ele><time>2026-03-29T09:55:16.574Z</time></trkpt><trkpt lat="43.97964" lon="12.4619067"><ele>185.0</ele><time>2026-03-29T09:55:17.573Z</time></trkpt><trkpt lat="43.9798383" lon="12.4618567"><ele>185.0</ele><time>2026-03-29T09:55:18.574Z</time></trkpt><trkpt lat="43.98003" lon="12.4617867"><ele>183.33333333333331</ele><time>2026-03-29T09:55:19.574Z</time></trkpt><trkpt lat="43.9802133" lon="12.4616767"><ele>181.66666666666666</ele><time>2026-03-29T09:55:20.573Z</time></trkpt><trkpt lat="43.9804" lon="12.46153"><ele>180.0</ele><time>2026-03-29T09:55:21.573Z</time></trkpt><trkpt lat="43.980575" lon="12.461345"><ele>180.33333333333334</ele><time>2026-03-29T09:55:22.574Z</time></trkpt><trkpt lat="43.980735" lon="12.4611567"><ele>180.66666666666669</ele><time>2026-03-29T09:55:23.573Z</time></trkpt><trkpt lat="43.98089" lon="12.46098"><ele>181.0</ele><time>2026-03-29T09:55:24.574Z</time></trkpt><trkpt lat="43.98104" lon="12.460815"><ele>181.0</ele><time>2026-03-29T09:55:25.574Z</time></trkpt><trkpt lat="43.98118" lon="12.4606683"><ele>181.0</ele><time>2026-03-29T09:55:26.573Z</time></trkpt><trkpt lat="43.9813167" lon="12.4605383"><ele>181.0</ele><time>2026-03-29T09:55:27.574Z</time></trkpt><trkpt lat="43.9814583" lon="12.4604183"><ele>180.33333333333334</ele><time>2026-03-29T09:55:28.574Z</time></trkpt><trkpt lat="43.9816167" lon="12.460345"><ele>179.66666666666666</ele><time>2026-03-29T09:55:29.574Z</time></trkpt><trkpt lat="43.9818017" lon="12.4603033"><ele>179.0</ele><time>2026-03-29T09:55:30.574Z</time></trkpt><trkpt lat="43.9820183" lon="12.4602817"><ele>179.0</ele><time>2026-03-29T09:55:31.574Z</time></trkpt><trkpt lat="43.9822567" lon="12.4602533"><ele>179.0</ele><time>2026-03-29T09:55:32.573Z</time></trkpt><trkpt lat="43.9825" lon="12.4602283"><ele>180.66666666666666</ele><time>2026-03-29T09:55:33.573Z</time></trkpt><trkpt lat="43.9827267" lon="12.4602133"><ele>182.33333333333334</ele><time>2026-03-29T09:55:34.574Z</time></trkpt><trkpt lat="43.9829417" lon="12.4602033"><ele>184.0</ele><time>2026-03-29T09:55:35.574Z</time></trkpt><trkpt lat="43.983135" lon="12.460195"><ele>184.0</ele><time>2026-03-29T09:55:36.574Z</time></trkpt><trkpt lat="43.983325" lon="12.460195"><ele>184.0</ele><time>2026-03-29T09:55:37.574Z</time></trkpt><trkpt lat="43.9835183" lon="12.4602333"><ele>184.0</ele><time>2026-03-29T09:55:38.573Z</time></trkpt><trkpt lat="43.9837267" lon="12.4603083"><ele>182.5</ele><time>2026-03-29T09:55:39.573Z</time></trkpt><trkpt lat="43.9839483" lon="12.4604117"><ele>181.0</ele><time>2026-03-29T09:55:40.573Z</time></trkpt><trkpt lat="43.9841783" lon="12.4605083"><ele>177.0</ele><time>2026-03-29T09:55:41.574Z</time></trkpt><trkpt lat="43.984415" lon="12.460595"><ele>173.0</ele><time>2026-03-29T09:55:42.574Z</time></trkpt><trkpt lat="43.9846567" lon="12.4606583"><ele>173.0</ele><time>2026-03-29T09:55:43.573Z</time></trkpt><trkpt lat="43.9848917" lon="12.4607"><ele>173.0</ele><time>2026-03-29T09:55:44.574Z</time></trkpt><trkpt lat="43.98513" lon="12.4607483"><ele>172.0</ele><time>2026-03-29T09:55:45.573Z</time></trkpt><trkpt lat="43.98537" lon="12.460815"><ele>171.0</ele><time>2026-03-29T09:55:46.574Z</time></trkpt><trkpt lat="43.9856233" lon="12.4608983"><ele>171.0</ele><time>2026-03-29T09:55:47.574Z</time></trkpt><trkpt lat="43.9858683" lon="12.4610017"><ele>171.0</ele><time>2026-03-29T09:55:48.573Z</time></trkpt><trkpt lat="43.9860983" lon="12.4610967"><ele>171.0</ele><time>2026-03-29T09:55:49.574Z</time></trkpt><trkpt lat="43.9863083" lon="12.461195"><ele>171.0</ele><time>2026-03-29T09:55:50.573Z</time></trkpt><trkpt lat="43.9864883" lon="12.4612833"><ele>171.0</ele><time>2026-03-29T09:55:51.573Z</time></trkpt><trkpt lat="43.9866383" lon="12.461355"><ele>172.20000000000002</ele><time>2026-03-29T09:55:52.574Z</time></trkpt><trkpt lat="43.98676" lon="12.4614167"><ele>173.4</ele><time>2026-03-29T09:55:53.573Z</time></trkpt><trkpt lat="43.986855" lon="12.4614633"><ele>174.6</ele><time>2026-03-29T09:55:54.574Z</time></trkpt><trkpt lat="43.98694" lon="12.4615"><ele>175.8</ele><time>2026-03-29T09:55:55.574Z</time></trkpt><trkpt lat="43.9870317" lon="12.4615433"><ele>177.0</ele><time>2026-03-29T09:55:56.573Z</time></trkpt><trkpt lat="43.9871383" lon="12.4615883"><ele>177.0</ele><time>2026-03-29T09:55:57.574Z</time></trkpt><trkpt lat="43.987275" lon="12.4616467"><ele>177.0</ele><time>2026-03-29T09:55:58.573Z</time></trkpt><trkpt lat="43.9874333" lon="12.4617233"><ele>177.0</ele><time>2026-03-29T09:55:59.574Z</time></trkpt><trkpt lat="43.9876133" lon="12.4618083"><ele>179.0</ele><time>2026-03-29T09:56:00.574Z</time></trkpt><trkpt lat="43.98778" lon="12.4618783"><ele>181.0</ele><time>2026-03-29T09:56:01.574Z</time></trkpt><trkpt lat="43.9879367" lon="12.46195"><ele>183.0</ele><time>2026-03-29T09:56:02.574Z</time></trkpt><trkpt lat="43.9880967" lon="12.4620233"><ele>183.0</ele><time>2026-03-29T09:56:03.573Z</time></trkpt><trkpt lat="43.98827" lon="12.4621083"><ele>183.0</ele><time>2026-03-29T09:56:04.573Z</time></trkpt><trkpt lat="43.9884483" lon="12.462205"><ele>183.0</ele><time>2026-03-29T09:56:05.574Z</time></trkpt><trkpt lat="43.9886317" lon="12.462305"><ele>183.66666666666666</ele><time>2026-03-29T09:56:06.574Z</time></trkpt><trkpt lat="43.9887967" lon="12.4624083"><ele>184.33333333333331</ele><time>2026-03-29T09:56:07.573Z</time></trkpt><trkpt lat="43.988965" lon="12.4625117"><ele>185.0</ele><time>2026-03-29T09:56:08.574Z</time></trkpt><trkpt lat="43.9891283" lon="12.4626083"><ele>185.33333333333331</ele><time>2026-03-29T09:56:09.574Z</time></trkpt><trkpt lat="43.98929" lon="12.46271"><ele>185.66666666666666</ele><time>2026-03-29T09:56:10.574Z</time></trkpt><trkpt lat="43.989445" lon="12.4628"><ele>186.0</ele><time>2026-03-29T09:56:11.574Z</time></trkpt><trkpt lat="43.9896017" lon="12.4628967"><ele>185.0</ele><time>2026-03-29T09:56:12.574Z</time></trkpt><trkpt lat="43.9897567" lon="12.4630167"><ele>184.0</ele><time>2026-03-29T09:56:13.574Z</time></trkpt><trkpt lat="43.9899067" lon="12.4631533"><ele>183.0</ele><time>2026-03-29T09:56:14.574Z</time></trkpt><trkpt lat="43.9900633" lon="12.463315"><ele>182.0</ele><time>2026-03-29T09:56:15.573Z</time></trkpt><trkpt lat="43.9902333" lon="12.46348"><ele>181.0</ele><time>2026-03-29T09:56:16.574Z</time></trkpt><trkpt lat="43.9903983" lon="12.4636383"><ele>180.0</ele><time>2026-03-29T09:56:17.574Z</time></trkpt><trkpt lat="43.9905417" lon="12.4638"><ele>180.0</ele><time>2026-03-29T09:56:18.574Z</time></trkpt><trkpt lat="43.99068" lon="12.46398"><ele>180.0</ele><time>2026-03-29T09:56:19.574Z</time></trkpt><trkpt lat="43.9908183" lon="12.464175"><ele>180.0</ele><time>2026-03-29T09:56:20.574Z</time></trkpt><trkpt lat="43.99096" lon="12.464365"><ele>178.33333333333334</ele><time>2026-03-29T09:56:21.574Z</time></trkpt><trkpt lat="43.9911083" lon="12.46456"><ele>176.66666666666669</ele><time>2026-03-29T09:56:22.574Z</time></trkpt><trkpt lat="43.991255" lon="12.464765"><ele>175.0</ele><time>2026-03-29T09:56:23.573Z</time></trkpt><trkpt lat="43.9914033" lon="12.464975"><ele>175.0</ele><time>2026-03-29T09:56:24.574Z</time></trkpt><trkpt lat="43.99156" lon="12.4651933"><ele>175.0</ele><time>2026-03-29T09:56:25.574Z</time></trkpt><trkpt lat="43.9917133" lon="12.4654067"><ele>175.0</ele><time>2026-03-29T09:56:26.573Z</time></trkpt><trkpt lat="43.99187" lon="12.4656233"><ele>175.66666666666669</ele><time>2026-03-29T09:56:27.574Z</time></trkpt><trkpt lat="43.9920183" lon="12.46584"><ele>176.33333333333334</ele><time>2026-03-29T09:56:28.573Z</time></trkpt><trkpt lat="43.9921633" lon="12.466075"><ele>177.0</ele><time>2026-03-29T09:56:29.573Z</time></trkpt><trkpt lat="43.9923117" lon="12.4663183"><ele>177.0</ele><time>2026-03-29T09:56:30.574Z</time></trkpt><trkpt lat="43.992465" lon="12.46656"><ele>177.0</ele><time>2026-03-29T09:56:31.574Z</time></trkpt><trkpt lat="43.99261" lon="12.4668"><ele>176.5</ele><time>2026-03-29T09:56:32.574Z</time></trkpt><trkpt lat="43.99277" lon="12.46704"><ele>176.0</ele><time>2026-03-29T09:56:33.574Z</time></trkpt><trkpt lat="43.9929383" lon="12.4672833"><ele>176.0</ele><time>2026-03-29T09:56:34.573Z</time></trkpt><trkpt lat="43.993105" lon="12.4675283"><ele>176.0</ele><time>2026-03-29T09:56:35.574Z</time></trkpt><trkpt lat="43.9932617" lon="12.4677683"><ele>176.5</ele><time>2026-03-29T09:56:36.574Z</time></trkpt><trkpt lat="43.993415" lon="12.4680083"><ele>177.0</ele><time>2026-03-29T09:56:37.574Z</time></trkpt><trkpt lat="43.9935633" lon="12.4682517"><ele>177.0</ele><time>2026-03-29T09:56:38.574Z</time></trkpt><trkpt lat="43.9937167" lon="12.4685017"><ele>177.0</ele><time>2026-03-29T09:56:39.574Z</time></trkpt><trkpt lat="43.9938767" lon="12.4687567"><ele>176.5</ele><time>2026-03-29T09:56:40.573Z</time></trkpt><trkpt lat="43.9940483" lon="12.468995"><ele>176.0</ele><time>2026-03-29T09:56:41.573Z</time></trkpt><trkpt lat="43.9942167" lon="12.4692417"><ele>175.5</ele><time>2026-03-29T09:56:42.574Z</time></trkpt><trkpt lat="43.994395" lon="12.4694983"><ele>175.0</ele><time>2026-03-29T09:56:43.574Z</time></trkpt><trkpt lat="43.9945767" lon="12.4697567"><ele>175.0</ele><time>2026-03-29T09:56:44.574Z</time></trkpt><trkpt lat="43.99475" lon="12.4700167"><ele>175.0</ele><time>2026-03-29T09:56:45.573Z</time></trkpt><trkpt lat="43.994935" lon="12.4702733"><ele>175.0</ele><time>2026-03-29T09:56:46.573Z</time></trkpt><trkpt lat="43.9951233" lon="12.4705267"><ele>175.0</ele><time>2026-03-29T09:56:47.574Z</time></trkpt><trkpt lat="43.99531" lon="12.4707817"><ele>175.0</ele><time>2026-03-29T09:56:48.573Z</time></trkpt><trkpt lat="43.9954883" lon="12.4710317"><ele>175.0</ele><time>2026-03-29T09:56:49.574Z</time></trkpt><trkpt lat="43.9956717" lon="12.4712767"><ele>175.5</ele><time>2026-03-29T09:56:50.574Z</time></trkpt><trkpt lat="43.9958483" lon="12.4715167"><ele>176.0</ele><time>2026-03-29T09:56:51.573Z</time></trkpt><trkpt lat="43.9960283" lon="12.47175"><ele>176.0</ele><time>2026-03-29T09:56:52.574Z</time></trkpt><trkpt lat="43.9962033" lon="12.47198"><ele>176.0</ele><time>2026-03-29T09:56:53.573Z</time></trkpt><trkpt lat="43.9963783" lon="12.4722067"><ele>177.0</ele><time>2026-03-29T09:56:54.574Z</time></trkpt><trkpt lat="43.9965533" lon="12.4724383"><ele>178.0</ele><time>2026-03-29T09:56:55.575Z</time></trkpt><trkpt lat="43.9967167" lon="12.47267"><ele>178.0</ele><time>2026-03-29T09:56:56.575Z</time></trkpt><trkpt lat="43.9968667" lon="12.4728967"><ele>178.0</ele><time>2026-03-29T09:56:57.574Z</time></trkpt><trkpt lat="43.9969967" lon="12.473115"><ele>178.0</ele><time>2026-03-29T09:56:58.575Z</time></trkpt><trkpt lat="43.9971217" lon="12.4733133"><ele>180.33333333333334</ele><time>2026-03-29T09:56:59.575Z</time></trkpt><trkpt lat="43.9972517" lon="12.4734917"><ele>182.66666666666666</ele><time>2026-03-29T09:57:00.575Z</time></trkpt><trkpt lat="43.9974117" lon="12.4736367"><ele>185.0</ele><time>2026-03-29T09:57:01.575Z</time></trkpt><trkpt lat="43.9975917" lon="12.4737683"><ele>187.5</ele><time>2026-03-29T09:57:02.575Z</time></trkpt><trkpt lat="43.99779" lon="12.4739"><ele>190.0</ele><time>2026-03-29T09:57:03.574Z</time></trkpt><trkpt lat="43.9980067" lon="12.4740433"><ele>190.0</ele><time>2026-03-29T09:57:04.575Z</time></trkpt><trkpt lat="43.9982317" lon="12.4741717"><ele>190.0</ele><time>2026-03-29T09:57:05.575Z</time></trkpt><trkpt lat="43.9984283" lon="12.4742917"><ele>190.66666666666669</ele><time>2026-03-29T09:57:06.575Z</time></trkpt><trkpt lat="43.9986183" lon="12.4744083"><ele>191.33333333333334</ele><time>2026-03-29T09:57:07.575Z</time></trkpt><trkpt lat="43.9987917" lon="12.4745067"><ele>192.0</ele><time>2026-03-29T09:57:08.575Z</time></trkpt><trkpt lat="43.9989533" lon="12.4745983"><ele>192.0</ele><time>2026-03-29T09:57:09.574Z</time></trkpt><trkpt lat="43.9990933" lon="12.4746783"><ele>192.0</ele><time>2026-03-29T09:57:10.575Z</time></trkpt><trkpt lat="43.9992317" lon="12.4747583"><ele>192.0</ele><time>2026-03-29T09:57:11.575Z</time></trkpt><trkpt lat="43.9993483" lon="12.4748317"><ele>192.0</ele><time>2026-03-29T09:57:12.575Z</time></trkpt><trkpt lat="43.9994567" lon="12.4748833"><ele>193.16666666666666</ele><time>2026-03-29T09:57:13.574Z</time></trkpt><trkpt lat="43.99955" lon="12.47495"><ele>194.33333333333331</ele><time>2026-03-29T09:57:14.575Z</time></trkpt><trkpt lat="43.99963" lon="12.475005"><ele>195.5</ele><time>2026-03-29T09:57:15.574Z</time></trkpt><trkpt lat="43.9997083" lon="12.4750583"><ele>196.66666666666666</ele><time>2026-03-29T09:57:16.575Z</time></trkpt><trkpt lat="43.9997683" lon="12.475105"><ele>197.83333333333331</ele><time>2026-03-29T09:57:17.575Z</time></trkpt><trkpt lat="43.9998367" lon="12.4751467"><ele>199.0</ele><time>2026-03-29T09:57:18.575Z</time></trkpt><trkpt lat="43.9999017" lon="12.4751967"><ele>199.0</ele><time>2026-03-29T09:57:19.575Z</time></trkpt><trkpt lat="43.999965" lon="12.4752517"><ele>199.0</ele><time>2026-03-29T09:57:20.575Z</time></trkpt><trkpt lat="44.0000367" lon="12.4753283"><ele>199.0</ele><time>2026-03-29T09:57:21.574Z</time></trkpt><trkpt lat="44.0001183" lon="12.4754217"><ele>199.0</ele><time>2026-03-29T09:57:22.574Z</time></trkpt><trkpt lat="44.000195" lon="12.475545"><ele>199.0</ele><time>2026-03-29T09:57:23.574Z</time></trkpt><trkpt lat="44.0002717" lon="12.4756833"><ele>197.0</ele><time>2026-03-29T09:57:24.575Z</time></trkpt><trkpt lat="44.0003567" lon="12.4758467"><ele>195.0</ele><time>2026-03-29T09:57:25.575Z</time></trkpt><trkpt lat="44.0004483" lon="12.4760183"><ele>193.0</ele><time>2026-03-29T09:57:26.575Z</time></trkpt><trkpt lat="44.000545" lon="12.4762333"><ele>188.0</ele><time>2026-03-29T09:57:27.574Z</time></trkpt><trkpt lat="44.0006383" lon="12.4765067"><ele>183.0</ele><time>2026-03-29T09:57:28.575Z</time></trkpt><trkpt lat="44.0007383" lon="12.4768"><ele>185.0</ele><time>2026-03-29T09:57:29.575Z</time></trkpt><trkpt lat="44.0008333" lon="12.4771267"><ele>187.0</ele><time>2026-03-29T09:57:30.574Z</time></trkpt><trkpt lat="44.000915" lon="12.4774517"><ele>187.0</ele><time>2026-03-29T09:57:31.575Z</time></trkpt><trkpt lat="44.0009917" lon="12.4777667"><ele>187.0</ele><time>2026-03-29T09:57:32.575Z</time></trkpt><trkpt lat="44.00107" lon="12.4780633"><ele>186.66666666666669</ele><time>2026-03-29T09:57:33.575Z</time></trkpt><trkpt lat="44.001145" lon="12.4783417"><ele>186.33333333333334</ele><time>2026-03-29T09:57:34.575Z</time></trkpt><trkpt lat="44.001235" lon="12.478595"><ele>186.0</ele><time>2026-03-29T09:57:35.575Z</time></trkpt><trkpt lat="44.0013467" lon="12.4788233"><ele>186.0</ele><time>2026-03-29T09:57:36.575Z</time></trkpt><trkpt lat="44.001465" lon="12.4790417"><ele>186.0</ele><time>2026-03-29T09:57:37.575Z</time></trkpt><trkpt lat="44.0015783" lon="12.4792567"><ele>186.0</ele><time>2026-03-29T09:57:38.575Z</time></trkpt><trkpt lat="44.0016817" lon="12.4794633"><ele>184.25</ele><time>2026-03-29T09:57:39.575Z</time></trkpt><trkpt lat="44.0017617" lon="12.47966"><ele>182.5</ele><time>2026-03-29T09:57:40.574Z</time></trkpt><trkpt lat="44.001815" lon="12.4798533"><ele>180.75</ele><time>2026-03-29T09:57:41.574Z</time></trkpt><trkpt lat="44.0018217" lon="12.4800433"><ele>179.0</ele><time>2026-03-29T09:57:42.574Z</time></trkpt><trkpt lat="44.0017883" lon="12.48023"><ele>179.0</ele><time>2026-03-29T09:57:43.575Z</time></trkpt><trkpt lat="44.0017383" lon="12.4804167"><ele>179.0</ele><time>2026-03-29T09:57:44.574Z</time></trkpt><trkpt lat="44.0016933" lon="12.480575"><ele>179.0</ele><time>2026-03-29T09:57:45.574Z</time></trkpt><trkpt lat="44.00168" lon="12.4806967"><ele>179.0</ele><time>2026-03-29T09:57:46.574Z</time></trkpt><trkpt lat="44.0017067" lon="12.4808017"><ele>179.0</ele><time>2026-03-29T09:57:47.574Z</time></trkpt><trkpt lat="44.0017683" lon="12.4808617"><ele>179.0</ele><time>2026-03-29T09:57:48.575Z</time></trkpt><trkpt lat="44.001845" lon="12.48087"><ele>179.0</ele><time>2026-03-29T09:57:49.575Z</time></trkpt><trkpt lat="44.0019383" lon="12.4808033"><ele>179.0</ele><time>2026-03-29T09:57:50.575Z</time></trkpt><trkpt lat="44.0020583" lon="12.4806267"><ele>179.0</ele><time>2026-03-29T09:57:51.575Z</time></trkpt><trkpt lat="44.0021733" lon="12.4804283"><ele>179.0</ele><time>2026-03-29T09:57:52.575Z</time></trkpt><trkpt lat="44.0022883" lon="12.48025"><ele>179.0</ele><time>2026-03-29T09:57:53.575Z</time></trkpt><trkpt lat="44.002385" lon="12.4801067"><ele>179.0</ele><time>2026-03-29T09:57:54.575Z</time></trkpt><trkpt lat="44.0024817" lon="12.4800133"><ele>179.0</ele><time>2026-03-29T09:57:55.575Z</time></trkpt><trkpt lat="44.002575" lon="12.4799717"><ele>176.0</ele><time>2026-03-29T09:57:56.575Z</time></trkpt><trkpt lat="44.002675" lon="12.4799833"><ele>173.0</ele><time>2026-03-29T09:57:57.574Z</time></trkpt><trkpt lat="44.00275" lon="12.4800733"><ele>170.0</ele><time>2026-03-29T09:57:58.574Z</time></trkpt><trkpt lat="44.00279" lon="12.4802217"><ele>167.0</ele><time>2026-03-29T09:57:59.575Z</time></trkpt><trkpt lat="44.0028033" lon="12.480395"><ele>164.0</ele><time>2026-03-29T09:58:00.575Z</time></trkpt><trkpt lat="44.0028317" lon="12.480595"><ele>163.33333333333331</ele><time>2026-03-29T09:58:01.574Z</time></trkpt><trkpt lat="44.0029167" lon="12.4807883"><ele>162.66666666666666</ele><time>2026-03-29T09:58:02.574Z</time></trkpt><trkpt lat="44.0030467" lon="12.4809633"><ele>162.0</ele><time>2026-03-29T09:58:03.575Z</time></trkpt><trkpt lat="44.003215" lon="12.48111"><ele>158.66666666666666</ele><time>2026-03-29T09:58:04.575Z</time></trkpt><trkpt lat="44.0034017" lon="12.481255"><ele>155.33333333333331</ele><time>2026-03-29T09:58:05.574Z</time></trkpt><trkpt lat="44.0035867" lon="12.4813917"><ele>152.0</ele><time>2026-03-29T09:58:06.575Z</time></trkpt><trkpt lat="44.0037633" lon="12.4815333"><ele>152.0</ele><time>2026-03-29T09:58:07.574Z</time></trkpt><trkpt lat="44.00394" lon="12.481695"><ele>152.0</ele><time>2026-03-29T09:58:08.575Z</time></trkpt><trkpt lat="44.0041067" lon="12.4818883"><ele>152.0</ele><time>2026-03-29T09:58:09.575Z</time></trkpt><trkpt lat="44.0042633" lon="12.48212"><ele>148.5</ele><time>2026-03-29T09:58:10.575Z</time></trkpt><trkpt lat="44.004415" lon="12.4823867"><ele>145.0</ele><time>2026-03-29T09:58:11.575Z</time></trkpt><trkpt lat="44.0045817" lon="12.482625"><ele>145.0</ele><time>2026-03-29T09:58:12.575Z</time></trkpt><trkpt lat="44.0047433" lon="12.4828583"><ele>145.0</ele><time>2026-03-29T09:58:13.575Z</time></trkpt><trkpt lat="44.0048917" lon="12.4830967"><ele>144.0</ele><time>2026-03-29T09:58:14.575Z</time></trkpt><trkpt lat="44.0050433" lon="12.48331"><ele>143.0</ele><time>2026-03-29T09:58:15.575Z</time></trkpt><trkpt lat="44.00519" lon="12.48352"><ele>142.0</ele><time>2026-03-29T09:58:16.575Z</time></trkpt><trkpt lat="44.0053383" lon="12.483725"><ele>139.5</ele><time>2026-03-29T09:58:17.574Z</time></trkpt><trkpt lat="44.005495" lon="12.4839533"><ele>137.0</ele><time>2026-03-29T09:58:18.575Z</time></trkpt><trkpt lat="44.005665" lon="12.48421"><ele>137.5</ele><time>2026-03-29T09:58:19.575Z</time></trkpt><trkpt lat="44.00584" lon="12.4844833"><ele>138.0</ele><time>2026-03-29T09:58:20.575Z</time></trkpt><trkpt lat="44.0060117" lon="12.4847517"><ele>139.5</ele><time>2026-03-29T09:58:21.574Z</time></trkpt><trkpt lat="44.0061683" lon="12.4850117"><ele>141.0</ele><time>2026-03-29T09:58:22.575Z</time></trkpt><trkpt lat="44.0063183" lon="12.4852517"><ele>140.66666666666666</ele><time>2026-03-29T09:58:23.575Z</time></trkpt><trkpt lat="44.006475" lon="12.4854633"><ele>140.33333333333331</ele><time>2026-03-29T09:58:24.575Z</time></trkpt><trkpt lat="44.0066417" lon="12.4856483"><ele>140.0</ele><time>2026-03-29T09:58:25.575Z</time></trkpt><trkpt lat="44.00683" lon="12.48579"><ele>138.0</ele><time>2026-03-29T09:58:26.574Z</time></trkpt><trkpt lat="44.0070267" lon="12.48591"><ele>136.0</ele><time>2026-03-29T09:58:27.574Z</time></trkpt><trkpt lat="44.0072567" lon="12.4860167"><ele>136.0</ele><time>2026-03-29T09:58:28.574Z</time></trkpt><trkpt lat="44.0074917" lon="12.48615"><ele>136.0</ele><time>2026-03-29T09:58:29.575Z</time></trkpt><trkpt lat="44.00773" lon="12.4863133"><ele>133.0</ele><time>2026-03-29T09:58:30.574Z</time></trkpt><trkpt lat="44.0079667" lon="12.48649"><ele>130.0</ele><time>2026-03-29T09:58:31.575Z</time></trkpt><trkpt lat="44.0081983" lon="12.4866767"><ele>133.5</ele><time>2026-03-29T09:58:32.575Z</time></trkpt><trkpt lat="44.00842" lon="12.4868667"><ele>137.0</ele><time>2026-03-29T09:58:33.575Z</time></trkpt><trkpt lat="44.00863" lon="12.4870583"><ele>136.5</ele><time>2026-03-29T09:58:34.574Z</time></trkpt><trkpt lat="44.0088333" lon="12.4872667"><ele>136.0</ele><time>2026-03-29T09:58:35.575Z</time></trkpt><trkpt lat="44.0090433" lon="12.4874933"><ele>139.0</ele><time>2026-03-29T09:58:36.575Z</time></trkpt><trkpt lat="44.009255" lon="12.48771"><ele>142.0</ele><time>2026-03-29T09:58:37.575Z</time></trkpt><trkpt lat="44.00945" lon="12.487925"><ele>142.0</ele><time>2026-03-29T09:58:38.575Z</time></trkpt><trkpt lat="44.00964" lon="12.4881417"><ele>142.0</ele><time>2026-03-29T09:58:39.574Z</time></trkpt><trkpt lat="44.0098233" lon="12.48835"><ele>143.5</ele><time>2026-03-29T09:58:40.574Z</time></trkpt><trkpt lat="44.0100117" lon="12.4885533"><ele>145.0</ele><time>2026-03-29T09:58:41.575Z</time></trkpt><trkpt lat="44.0102017" lon="12.4887333"><ele>146.66666666666669</ele><time>2026-03-29T09:58:42.575Z</time></trkpt><trkpt lat="44.0103867" lon="12.4888933"><ele>148.33333333333334</ele><time>2026-03-29T09:58:43.575Z</time></trkpt><trkpt lat="44.0105667" lon="12.4890483"><ele>150.0</ele><time>2026-03-29T09:58:44.575Z</time></trkpt><trkpt lat="44.0107367" lon="12.4891917"><ele>149.66666666666666</ele><time>2026-03-29T09:58:45.574Z</time></trkpt><trkpt lat="44.0109133" lon="12.48933"><ele>149.33333333333331</ele><time>2026-03-29T09:58:46.575Z</time></trkpt><trkpt lat="44.0111017" lon="12.489475"><ele>149.0</ele><time>2026-03-29T09:58:47.575Z</time></trkpt><trkpt lat="44.011315" lon="12.48964"><ele>149.0</ele><time>2026-03-29T09:58:48.575Z</time></trkpt><trkpt lat="44.0115417" lon="12.4898183"><ele>149.0</ele><time>2026-03-29T09:58:49.575Z</time></trkpt><trkpt lat="44.01178" lon="12.49001"><ele>144.5</ele><time>2026-03-29T09:58:50.575Z</time></trkpt><trkpt lat="44.012025" lon="12.4902067"><ele>140.0</ele><time>2026-03-29T09:58:51.575Z</time></trkpt><trkpt lat="44.0122783" lon="12.4904083"><ele>136.5</ele><time>2026-03-29T09:58:52.574Z</time></trkpt><trkpt lat="44.0125333" lon="12.490605"><ele>133.0</ele><time>2026-03-29T09:58:53.574Z</time></trkpt><trkpt lat="44.0127767" lon="12.4907933"><ele>133.0</ele><time>2026-03-29T09:58:54.575Z</time></trkpt><trkpt lat="44.0130067" lon="12.49097"><ele>133.0</ele><time>2026-03-29T09:58:55.575Z</time></trkpt><trkpt lat="44.0132283" lon="12.4911533"><ele>132.0</ele><time>2026-03-29T09:58:56.575Z</time></trkpt><trkpt lat="44.0134467" lon="12.4913417"><ele>131.0</ele><time>2026-03-29T09:58:57.575Z</time></trkpt><trkpt lat="44.0136583" lon="12.491545"><ele>131.0</ele><time>2026-03-29T09:58:58.575Z</time></trkpt><trkpt lat="44.0138717" lon="12.4917617"><ele>131.0</ele><time>2026-03-29T09:58:59.575Z</time></trkpt><trkpt lat="44.01408" lon="12.491985"><ele>133.0</ele><time>2026-03-29T09:59:00.575Z</time></trkpt><trkpt lat="44.0143067" lon="12.49221"><ele>135.0</ele><time>2026-03-29T09:59:01.574Z</time></trkpt><trkpt lat="44.0145433" lon="12.4924433"><ele>135.0</ele><time>2026-03-29T09:59:02.575Z</time></trkpt><trkpt lat="44.01479" lon="12.4926867"><ele>135.0</ele><time>2026-03-29T09:59:03.574Z</time></trkpt><trkpt lat="44.0150233" lon="12.4929317"><ele>133.0</ele><time>2026-03-29T09:59:04.575Z</time></trkpt><trkpt lat="44.01524" lon="12.4931633"><ele>131.0</ele><time>2026-03-29T09:59:05.574Z</time></trkpt><trkpt lat="44.015445" lon="12.4933917"><ele>131.0</ele><time>2026-03-29T09:59:06.574Z</time></trkpt><trkpt lat="44.0156367" lon="12.49362"><ele>131.0</ele><time>2026-03-29T09:59:07.575Z</time></trkpt><trkpt lat="44.0158233" lon="12.4938483"><ele>128.0</ele><time>2026-03-29T09:59:08.575Z</time></trkpt><trkpt lat="44.016" lon="12.4940733"><ele>125.0</ele><time>2026-03-29T09:59:09.575Z</time></trkpt><trkpt lat="44.0161567" lon="12.4942967"><ele>125.0</ele><time>2026-03-29T09:59:10.575Z</time></trkpt><trkpt lat="44.0163283" lon="12.4945033"><ele>125.0</ele><time>2026-03-29T09:59:11.575Z</time></trkpt><trkpt lat="44.0164833" lon="12.4947167"><ele>125.0</ele><time>2026-03-29T09:59:12.575Z</time></trkpt><trkpt lat="44.0166417" lon="12.49492"><ele>125.66666666666666</ele><time>2026-03-29T09:59:13.574Z</time></trkpt><trkpt lat="44.0167967" lon="12.4951167"><ele>126.33333333333334</ele><time>2026-03-29T09:59:14.575Z</time></trkpt><trkpt lat="44.0169383" lon="12.4953167"><ele>127.0</ele><time>2026-03-29T09:59:15.574Z</time></trkpt><trkpt lat="44.0170717" lon="12.49553"><ele>123.66666666666667</ele><time>2026-03-29T09:59:16.575Z</time></trkpt><trkpt lat="44.0171967" lon="12.4957467"><ele>120.33333333333334</ele><time>2026-03-29T09:59:17.574Z</time></trkpt><trkpt lat="44.0173067" lon="12.4959683"><ele>117.0</ele><time>2026-03-29T09:59:18.575Z</time></trkpt><trkpt lat="44.01742" lon="12.4961833"><ele>119.66666666666666</ele><time>2026-03-29T09:59:19.575Z</time></trkpt><trkpt lat="44.017515" lon="12.4963833"><ele>122.33333333333333</ele><time>2026-03-29T09:59:20.575Z</time></trkpt><trkpt lat="44.017605" lon="12.4965767"><ele>125.0</ele><time>2026-03-29T09:59:21.575Z</time></trkpt><trkpt lat="44.017695" lon="12.4967517"><ele>125.0</ele><time>2026-03-29T09:59:22.575Z</time></trkpt><trkpt lat="44.0177817" lon="12.4969167"><ele>125.0</ele><time>2026-03-29T09:59:23.574Z</time></trkpt><trkpt lat="44.0178733" lon="12.4970583"><ele>125.0</ele><time>2026-03-29T09:59:24.575Z</time></trkpt><trkpt lat="44.0179667" lon="12.49716"><ele>125.0</ele><time>2026-03-29T09:59:25.575Z</time></trkpt><trkpt lat="44.0180483" lon="12.4972417"><ele>124.83333333333333</ele><time>2026-03-29T09:59:26.575Z</time></trkpt><trkpt lat="44.01811" lon="12.4972867"><ele>124.66666666666666</ele><time>2026-03-29T09:59:27.574Z</time></trkpt><trkpt lat="44.0181683" lon="12.49732"><ele>124.5</ele><time>2026-03-29T09:59:29.575Z</time></trkpt><trkpt lat="44.0182267" lon="12.49736"><ele>124.33333333333334</ele><time>2026-03-29T09:59:31.575Z</time></trkpt><trkpt lat="44.0183" lon="12.49738"><ele>124.16666666666667</ele><time>2026-03-29T09:59:32.574Z</time></trkpt><trkpt lat="44.0184017" lon="12.4974083"><ele>124.0</ele><time>2026-03-29T09:59:33.575Z</time></trkpt><trkpt lat="44.0185333" lon="12.4974417"><ele>124.0</ele><time>2026-03-29T09:59:34.574Z</time></trkpt><trkpt lat="44.0186717" lon="12.4974883"><ele>124.0</ele><time>2026-03-29T09:59:35.575Z</time></trkpt><trkpt lat="44.0188" lon="12.49753"><ele>124.0</ele><time>2026-03-29T09:59:36.575Z</time></trkpt><trkpt lat="44.018925" lon="12.49757"><ele>124.0</ele><time>2026-03-29T09:59:37.574Z</time></trkpt><trkpt lat="44.0190383" lon="12.4976133"><ele>124.0</ele><time>2026-03-29T09:59:38.575Z</time></trkpt><trkpt lat="44.01914" lon="12.4976933"><ele>124.0</ele><time>2026-03-29T09:59:39.575Z</time></trkpt><trkpt lat="44.01925" lon="12.4978083"><ele>124.0</ele><time>2026-03-29T09:59:40.575Z</time></trkpt><trkpt lat="44.0193483" lon="12.4979667"><ele>124.0</ele><time>2026-03-29T09:59:41.575Z</time></trkpt><trkpt lat="44.0194367" lon="12.4981533"><ele>120.33333333333334</ele><time>2026-03-29T09:59:42.575Z</time></trkpt><trkpt lat="44.0195267" lon="12.49836"><ele>116.66666666666666</ele><time>2026-03-29T09:59:43.574Z</time></trkpt><trkpt lat="44.019625" lon="12.498555"><ele>113.0</ele><time>2026-03-29T09:59:44.575Z</time></trkpt><trkpt lat="44.0197233" lon="12.4987317"><ele>112.0</ele><time>2026-03-29T09:59:45.575Z</time></trkpt><trkpt lat="44.01983" lon="12.4989"><ele>111.0</ele><time>2026-03-29T09:59:46.575Z</time></trkpt><trkpt lat="44.01997" lon="12.49905"><ele>110.0</ele><time>2026-03-29T09:59:47.575Z</time></trkpt><trkpt lat="44.0201267" lon="12.4992067"><ele>110.0</ele><time>2026-03-29T09:59:48.575Z</time></trkpt><trkpt lat="44.0202917" lon="12.4993667"><ele>110.0</ele><time>2026-03-29T09:59:49.574Z</time></trkpt><trkpt lat="44.020445" lon="12.49954"><ele>110.0</ele><time>2026-03-29T09:59:50.575Z</time></trkpt><trkpt lat="44.0205983" lon="12.4997017"><ele>108.0</ele><time>2026-03-29T09:59:51.575Z</time></trkpt><trkpt lat="44.0207467" lon="12.4998883"><ele>106.0</ele><time>2026-03-29T09:59:52.575Z</time></trkpt><trkpt lat="44.0208833" lon="12.5000683"><ele>104.0</ele><time>2026-03-29T09:59:53.575Z</time></trkpt><trkpt lat="44.0210233" lon="12.5002483"><ele>104.33333333333333</ele><time>2026-03-29T09:59:54.575Z</time></trkpt><trkpt lat="44.0211533" lon="12.5004267"><ele>104.66666666666666</ele><time>2026-03-29T09:59:55.574Z</time></trkpt><trkpt lat="44.0212767" lon="12.500605"><ele>105.0</ele><time>2026-03-29T09:59:56.574Z</time></trkpt><trkpt lat="44.021405" lon="12.50078"><ele>105.0</ele><time>2026-03-29T09:59:57.575Z</time></trkpt><trkpt lat="44.0215233" lon="12.5009433"><ele>105.0</ele><time>2026-03-29T09:59:58.575Z</time></trkpt><trkpt lat="44.0216367" lon="12.5011117"><ele>105.0</ele><time>2026-03-29T09:59:59.575Z</time></trkpt><trkpt lat="44.0217483" lon="12.5012667"><ele>102.66666666666666</ele><time>2026-03-29T10:00:00.575Z</time></trkpt><trkpt lat="44.0218583" lon="12.501415"><ele>100.33333333333333</ele><time>2026-03-29T10:00:01.575Z</time></trkpt><trkpt lat="44.021965" lon="12.50157"><ele>98.0</ele><time>2026-03-29T10:00:02.575Z</time></trkpt><trkpt lat="44.0220733" lon="12.5017283"><ele>98.0</ele><time>2026-03-29T10:00:03.574Z</time></trkpt><trkpt lat="44.0221783" lon="12.5018733"><ele>98.0</ele><time>2026-03-29T10:00:04.574Z</time></trkpt><trkpt lat="44.0222867" lon="12.5020067"><ele>98.0</ele><time>2026-03-29T10:00:05.575Z</time></trkpt><trkpt lat="44.0223867" lon="12.5021333"><ele>98.0</ele><time>2026-03-29T10:00:06.575Z</time></trkpt><trkpt lat="44.0224783" lon="12.5022867"><ele>96.33333333333333</ele><time>2026-03-29T10:00:07.575Z</time></trkpt><trkpt lat="44.0225583" lon="12.5025"><ele>94.66666666666666</ele><time>2026-03-29T10:00:08.574Z</time></trkpt><trkpt lat="44.0226317" lon="12.5027617"><ele>93.0</ele><time>2026-03-29T10:00:09.574Z</time></trkpt><trkpt lat="44.0227167" lon="12.5029967"><ele>92.33333333333333</ele><time>2026-03-29T10:00:10.575Z</time></trkpt><trkpt lat="44.0228017" lon="12.5032267"><ele>91.66666666666666</ele><time>2026-03-29T10:00:11.574Z</time></trkpt><trkpt lat="44.022855" lon="12.5034817"><ele>91.0</ele><time>2026-03-29T10:00:12.575Z</time></trkpt><trkpt lat="44.0228717" lon="12.5037617"><ele>90.66666666666666</ele><time>2026-03-29T10:00:13.575Z</time></trkpt><trkpt lat="44.0228517" lon="12.5040617"><ele>90.33333333333333</ele><time>2026-03-29T10:00:14.574Z</time></trkpt><trkpt lat="44.02284" lon="12.504345"><ele>90.0</ele><time>2026-03-29T10:00:15.575Z</time></trkpt><trkpt lat="44.022845" lon="12.5046317"><ele>90.0</ele><time>2026-03-29T10:00:16.575Z</time></trkpt><trkpt lat="44.0228733" lon="12.50492"><ele>90.0</ele><time>2026-03-29T10:00:17.575Z</time></trkpt><trkpt lat="44.0229317" lon="12.5052217"><ele>90.0</ele><time>2026-03-29T10:00:18.574Z</time></trkpt><trkpt lat="44.0230267" lon="12.50554"><ele>90.5</ele><time>2026-03-29T10:00:19.574Z</time></trkpt><trkpt lat="44.0231133" lon="12.5058633"><ele>91.0</ele><time>2026-03-29T10:00:20.574Z</time></trkpt><trkpt lat="44.0231983" lon="12.5061917"><ele>93.0</ele><time>2026-03-29T10:00:21.575Z</time></trkpt><trkpt lat="44.02327" lon="12.506505"><ele>95.0</ele><time>2026-03-29T10:00:22.575Z</time></trkpt><trkpt lat="44.0233433" lon="12.5068133"><ele>96.0</ele><time>2026-03-29T10:00:23.575Z</time></trkpt><trkpt lat="44.023415" lon="12.5071117"><ele>97.0</ele><time>2026-03-29T10:00:24.575Z</time></trkpt><trkpt lat="44.023485" lon="12.5074117"><ele>97.0</ele><time>2026-03-29T10:00:25.575Z</time></trkpt><trkpt lat="44.0235483" lon="12.5077133"><ele>97.0</ele><time>2026-03-29T10:00:26.574Z</time></trkpt><trkpt lat="44.0236017" lon="12.508005"><ele>97.0</ele><time>2026-03-29T10:00:27.574Z</time></trkpt><trkpt lat="44.023655" lon="12.5082767"><ele>97.66666666666667</ele><time>2026-03-29T10:00:28.575Z</time></trkpt><trkpt lat="44.0237383" lon="12.508535"><ele>98.33333333333334</ele><time>2026-03-29T10:00:29.575Z</time></trkpt><trkpt lat="44.0238517" lon="12.508785"><ele>99.0</ele><time>2026-03-29T10:00:30.575Z</time></trkpt><trkpt lat="44.0239783" lon="12.5090267"><ele>99.33333333333334</ele><time>2026-03-29T10:00:31.575Z</time></trkpt><trkpt lat="44.0240833" lon="12.5092733"><ele>99.66666666666667</ele><time>2026-03-29T10:00:32.575Z</time></trkpt><trkpt lat="44.0241833" lon="12.509515"><ele>100.0</ele><time>2026-03-29T10:00:33.575Z</time></trkpt><trkpt lat="44.0242817" lon="12.509755"><ele>98.66666666666667</ele><time>2026-03-29T10:00:34.574Z</time></trkpt><trkpt lat="44.0243767" lon="12.5099867"><ele>97.33333333333334</ele><time>2026-03-29T10:00:35.575Z</time></trkpt><trkpt lat="44.024465" lon="12.5102033"><ele>96.0</ele><time>2026-03-29T10:00:36.574Z</time></trkpt><trkpt lat="44.024555" lon="12.5104167"><ele>95.33333333333333</ele><time>2026-03-29T10:00:37.574Z</time></trkpt><trkpt lat="44.0246617" lon="12.510605"><ele>94.66666666666666</ele><time>2026-03-29T10:00:38.574Z</time></trkpt><trkpt lat="44.02479" lon="12.5107667"><ele>94.0</ele><time>2026-03-29T10:00:39.574Z</time></trkpt><trkpt lat="44.0249517" lon="12.5109167"><ele>92.0</ele><time>2026-03-29T10:00:40.575Z</time></trkpt><trkpt lat="44.02512" lon="12.51107"><ele>90.0</ele><time>2026-03-29T10:00:41.575Z</time></trkpt><trkpt lat="44.0252917" lon="12.5112433"><ele>88.0</ele><time>2026-03-29T10:00:42.575Z</time></trkpt><trkpt lat="44.025455" lon="12.5114467"><ele>88.0</ele><time>2026-03-29T10:00:43.575Z</time></trkpt><trkpt lat="44.0256217" lon="12.51167"><ele>88.0</ele><time>2026-03-29T10:00:44.574Z</time></trkpt><trkpt lat="44.0257833" lon="12.5118933"><ele>84.66666666666666</ele><time>2026-03-29T10:00:45.574Z</time></trkpt><trkpt lat="44.0259283" lon="12.5121117"><ele>81.33333333333333</ele><time>2026-03-29T10:00:46.575Z</time></trkpt><trkpt lat="44.0260633" lon="12.5123267"><ele>78.0</ele><time>2026-03-29T10:00:47.575Z</time></trkpt><trkpt lat="44.0261867" lon="12.5125333"><ele>78.0</ele><time>2026-03-29T10:00:48.575Z</time></trkpt><trkpt lat="44.026295" lon="12.5127267"><ele>78.0</ele><time>2026-03-29T10:00:49.574Z</time></trkpt><trkpt lat="44.026395" lon="12.5129"><ele>78.0</ele><time>2026-03-29T10:00:50.575Z</time></trkpt><trkpt lat="44.0265017" lon="12.5130283"><ele>78.5</ele><time>2026-03-29T10:00:51.575Z</time></trkpt><trkpt lat="44.026615" lon="12.5131117"><ele>79.0</ele><time>2026-03-29T10:00:52.575Z</time></trkpt><trkpt lat="44.0267467" lon="12.513125"><ele>79.5</ele><time>2026-03-29T10:00:53.574Z</time></trkpt><trkpt lat="44.0269083" lon="12.51309"><ele>80.0</ele><time>2026-03-29T10:00:54.575Z</time></trkpt><trkpt lat="44.027095" lon="12.5130217"><ele>80.0</ele><time>2026-03-29T10:00:55.575Z</time></trkpt><trkpt lat="44.0272983" lon="12.5129467"><ele>80.0</ele><time>2026-03-29T10:00:56.574Z</time></trkpt><trkpt lat="44.027515" lon="12.51286"><ele>80.0</ele><time>2026-03-29T10:00:57.575Z</time></trkpt><trkpt lat="44.0277467" lon="12.51278"><ele>78.0</ele><time>2026-03-29T10:00:58.575Z</time></trkpt><trkpt lat="44.0279767" lon="12.5126983"><ele>76.0</ele><time>2026-03-29T10:00:59.575Z</time></trkpt><trkpt lat="44.0281933" lon="12.512615"><ele>75.33333333333333</ele><time>2026-03-29T10:01:00.574Z</time></trkpt><trkpt lat="44.028405" lon="12.51253"><ele>74.66666666666667</ele><time>2026-03-29T10:01:01.575Z</time></trkpt><trkpt lat="44.0286" lon="12.51245"><ele>74.0</ele><time>2026-03-29T10:01:02.574Z</time></trkpt><trkpt lat="44.0287867" lon="12.5123783"><ele>74.0</ele><time>2026-03-29T10:01:03.574Z</time></trkpt><trkpt lat="44.02896" lon="12.5123183"><ele>74.0</ele><time>2026-03-29T10:01:04.574Z</time></trkpt><trkpt lat="44.0291183" lon="12.5122817"><ele>74.0</ele><time>2026-03-29T10:01:05.575Z</time></trkpt><trkpt lat="44.029265" lon="12.51229"><ele>74.66666666666667</ele><time>2026-03-29T10:01:06.575Z</time></trkpt><trkpt lat="44.02941" lon="12.5123467"><ele>75.33333333333333</ele><time>2026-03-29T10:01:07.575Z</time></trkpt><trkpt lat="44.0295567" lon="12.512435"><ele>76.0</ele><time>2026-03-29T10:01:08.574Z</time></trkpt><trkpt lat="44.0297167" lon="12.51254"><ele>76.0</ele><time>2026-03-29T10:01:09.575Z</time></trkpt><trkpt lat="44.029895" lon="12.5126533"><ele>76.0</ele><time>2026-03-29T10:01:10.574Z</time></trkpt><trkpt lat="44.030085" lon="12.51278"><ele>76.0</ele><time>2026-03-29T10:01:11.575Z</time></trkpt><trkpt lat="44.0302833" lon="12.5129333"><ele>74.66666666666666</ele><time>2026-03-29T10:01:12.575Z</time></trkpt><trkpt lat="44.0304583" lon="12.5130967"><ele>73.33333333333333</ele><time>2026-03-29T10:01:13.575Z</time></trkpt><trkpt lat="44.0306217" lon="12.51329"><ele>72.0</ele><time>2026-03-29T10:01:14.574Z</time></trkpt><trkpt lat="44.0307867" lon="12.5135133"><ele>69.66666666666667</ele><time>2026-03-29T10:01:15.575Z</time></trkpt><trkpt lat="44.0309367" lon="12.5137367"><ele>67.33333333333334</ele><time>2026-03-29T10:01:16.575Z</time></trkpt><trkpt lat="44.0310783" lon="12.5139567"><ele>65.0</ele><time>2026-03-29T10:01:17.575Z</time></trkpt><trkpt lat="44.0312167" lon="12.5141683"><ele>65.0</ele><time>2026-03-29T10:01:18.575Z</time></trkpt><trkpt lat="44.0313633" lon="12.51436"><ele>65.0</ele><time>2026-03-29T10:01:19.575Z</time></trkpt><trkpt lat="44.0315417" lon="12.514535"><ele>65.0</ele><time>2026-03-29T10:01:20.574Z</time></trkpt><trkpt lat="44.0317217" lon="12.5146817"><ele>62.333333333333336</ele><time>2026-03-29T10:01:21.574Z</time></trkpt><trkpt lat="44.0318983" lon="12.5148083"><ele>59.66666666666667</ele><time>2026-03-29T10:01:22.575Z</time></trkpt><trkpt lat="44.0320833" lon="12.514925"><ele>57.0</ele><time>2026-03-29T10:01:23.575Z</time></trkpt><trkpt lat="44.032275" lon="12.515005"><ele>55.33333333333333</ele><time>2026-03-29T10:01:24.575Z</time></trkpt><trkpt lat="44.0324733" lon="12.5150417"><ele>53.666666666666664</ele><time>2026-03-29T10:01:25.575Z</time></trkpt><trkpt lat="44.0326683" lon="12.51503"><ele>52.0</ele><time>2026-03-29T10:01:26.575Z</time></trkpt><trkpt lat="44.0328583" lon="12.5149967"><ele>52.0</ele><time>2026-03-29T10:01:27.575Z</time></trkpt><trkpt lat="44.0330283" lon="12.5149583"><ele>52.0</ele><time>2026-03-29T10:01:28.574Z</time></trkpt><trkpt lat="44.0331833" lon="12.5149033"><ele>52.0</ele><time>2026-03-29T10:01:29.575Z</time></trkpt><trkpt lat="44.033325" lon="12.514805"><ele>52.0</ele><time>2026-03-29T10:01:30.574Z</time></trkpt><trkpt lat="44.0334383" lon="12.5146517"><ele>52.0</ele><time>2026-03-29T10:01:31.575Z</time></trkpt><trkpt lat="44.0335367" lon="12.51447"><ele>52.0</ele><time>2026-03-29T10:01:32.575Z</time></trkpt><trkpt lat="44.0336267" lon="12.5143067"><ele>52.25</ele><time>2026-03-29T10:01:33.574Z</time></trkpt><trkpt lat="44.0337117" lon="12.5141833"><ele>52.5</ele><time>2026-03-29T10:01:34.575Z</time></trkpt><trkpt lat="44.0337983" lon="12.5141067"><ele>52.75</ele><time>2026-03-29T10:01:35.575Z</time></trkpt><trkpt lat="44.03391" lon="12.5141017"><ele>53.0</ele><time>2026-03-29T10:01:36.575Z</time></trkpt><trkpt lat="44.03403" lon="12.5141767"><ele>52.333333333333336</ele><time>2026-03-29T10:01:37.574Z</time></trkpt><trkpt lat="44.0341633" lon="12.514305"><ele>51.66666666666667</ele><time>2026-03-29T10:01:38.574Z</time></trkpt><trkpt lat="44.0343133" lon="12.514455"><ele>51.0</ele><time>2026-03-29T10:01:39.575Z</time></trkpt><trkpt lat="44.0344567" lon="12.5146033"><ele>51.0</ele><time>2026-03-29T10:01:40.574Z</time></trkpt><trkpt lat="44.034595" lon="12.5147483"><ele>51.0</ele><time>2026-03-29T10:01:41.575Z</time></trkpt><trkpt lat="44.0347233" lon="12.5148733"><ele>51.0</ele><time>2026-03-29T10:01:42.574Z</time></trkpt><trkpt lat="44.0348667" lon="12.514945"><ele>48.666666666666664</ele><time>2026-03-29T10:01:43.575Z</time></trkpt><trkpt lat="44.0350483" lon="12.51495"><ele>46.33333333333333</ele><time>2026-03-29T10:01:44.575Z</time></trkpt><trkpt lat="44.0352317" lon="12.5149233"><ele>44.0</ele><time>2026-03-29T10:01:45.575Z</time></trkpt><trkpt lat="44.03542" lon="12.5149117"><ele>44.0</ele><time>2026-03-29T10:01:46.575Z</time></trkpt><trkpt lat="44.035615" lon="12.5149483"><ele>44.0</ele><time>2026-03-29T10:01:47.575Z</time></trkpt><trkpt lat="44.03581" lon="12.5150133"><ele>44.0</ele><time>2026-03-29T10:01:48.575Z</time></trkpt><trkpt lat="44.0359967" lon="12.5150967"><ele>42.33333333333333</ele><time>2026-03-29T10:01:49.575Z</time></trkpt><trkpt lat="44.0361733" lon="12.515165"><ele>40.666666666666664</ele><time>2026-03-29T10:01:50.575Z</time></trkpt><trkpt lat="44.0363383" lon="12.5152467"><ele>39.0</ele><time>2026-03-29T10:01:51.575Z</time></trkpt><trkpt lat="44.0364967" lon="12.5153283"><ele>39.0</ele><time>2026-03-29T10:01:52.575Z</time></trkpt><trkpt lat="44.03663" lon="12.5153867"><ele>39.0</ele><time>2026-03-29T10:01:53.574Z</time></trkpt><trkpt lat="44.036755" lon="12.5154183"><ele>39.0</ele><time>2026-03-29T10:01:54.575Z</time></trkpt><trkpt lat="44.0368767" lon="12.5153783"><ele>39.0</ele><time>2026-03-29T10:01:55.575Z</time></trkpt><trkpt lat="44.0369817" lon="12.5152733"><ele>37.8</ele><time>2026-03-29T10:01:56.575Z</time></trkpt><trkpt lat="44.03706" lon="12.5151167"><ele>36.599999999999994</ele><time>2026-03-29T10:01:57.574Z</time></trkpt><trkpt lat="44.03711" lon="12.5149667"><ele>35.4</ele><time>2026-03-29T10:01:58.574Z</time></trkpt><trkpt lat="44.0371683" lon="12.51486"><ele>34.199999999999996</ele><time>2026-03-29T10:01:59.574Z</time></trkpt><trkpt lat="44.0372433" lon="12.51482"><ele>33.0</ele><time>2026-03-29T10:02:00.574Z</time></trkpt><trkpt lat="44.0373417" lon="12.514855"><ele>33.0</ele><time>2026-03-29T10:02:01.574Z</time></trkpt><trkpt lat="44.0374283" lon="12.5149617"><ele>33.0</ele><time>2026-03-29T10:02:02.574Z</time></trkpt><trkpt lat="44.0375" lon="12.5151333"><ele>33.0</ele><time>2026-03-29T10:02:03.574Z</time></trkpt><trkpt lat="44.0375717" lon="12.5153517"><ele>33.0</ele><time>2026-03-29T10:02:04.575Z</time></trkpt><trkpt lat="44.0376433" lon="12.51556"><ele>30.25</ele><time>2026-03-29T10:02:05.575Z</time></trkpt><trkpt lat="44.0377133" lon="12.5157483"><ele>27.5</ele><time>2026-03-29T10:02:06.574Z</time></trkpt><trkpt lat="44.0377833" lon="12.51593"><ele>24.75</ele><time>2026-03-29T10:02:07.574Z</time></trkpt><trkpt lat="44.0378467" lon="12.5161067"><ele>22.0</ele><time>2026-03-29T10:02:08.575Z</time></trkpt><trkpt lat="44.0379083" lon="12.51628"><ele>21.5</ele><time>2026-03-29T10:02:09.575Z</time></trkpt><trkpt lat="44.037965" lon="12.5164383"><ele>21.0</ele><time>2026-03-29T10:02:10.574Z</time></trkpt><trkpt lat="44.0380283" lon="12.51659"><ele>20.5</ele><time>2026-03-29T10:02:11.575Z</time></trkpt><trkpt lat="44.0380967" lon="12.5167433"><ele>20.0</ele><time>2026-03-29T10:02:12.575Z</time></trkpt><trkpt lat="44.0381633" lon="12.5168933"><ele>20.0</ele><time>2026-03-29T10:02:13.575Z</time></trkpt><trkpt lat="44.0382433" lon="12.517035"><ele>20.0</ele><time>2026-03-29T10:02:14.574Z</time></trkpt><trkpt lat="44.038325" lon="12.5171767"><ele>20.0</ele><time>2026-03-29T10:02:15.574Z</time></trkpt><trkpt lat="44.038425" lon="12.51732"><ele>20.0</ele><time>2026-03-29T10:02:16.575Z</time></trkpt><trkpt lat="44.03854" lon="12.5174633"><ele>18.333333333333336</ele><time>2026-03-29T10:02:17.575Z</time></trkpt><trkpt lat="44.03867" lon="12.5176017"><ele>16.666666666666668</ele><time>2026-03-29T10:02:18.575Z</time></trkpt><trkpt lat="44.038805" lon="12.5177333"><ele>15.0</ele><time>2026-03-29T10:02:19.575Z</time></trkpt><trkpt lat="44.0389383" lon="12.5178717"><ele>14.666666666666668</ele><time>2026-03-29T10:02:20.574Z</time></trkpt><trkpt lat="44.039075" lon="12.5180133"><ele>14.333333333333334</ele><time>2026-03-29T10:02:21.575Z</time></trkpt><trkpt lat="44.0392183" lon="12.518165"><ele>14.0</ele><time>2026-03-29T10:02:22.575Z</time></trkpt><trkpt lat="44.03936" lon="12.5183133"><ele>14.0</ele><time>2026-03-29T10:02:23.575Z</time></trkpt><trkpt lat="44.0395017" lon="12.51848"><ele>14.0</ele><time>2026-03-29T10:02:24.575Z</time></trkpt><trkpt lat="44.03964" lon="12.5186517"><ele>14.0</ele><time>2026-03-29T10:02:25.575Z</time></trkpt><trkpt lat="44.0397817" lon="12.51882"><ele>14.0</ele><time>2026-03-29T10:02:26.575Z</time></trkpt><trkpt lat="44.0399083" lon="12.5190117"><ele>14.0</ele><time>2026-03-29T10:02:27.575Z</time></trkpt><trkpt lat="44.0400317" lon="12.5192133"><ele>14.0</ele><time>2026-03-29T10:02:28.574Z</time></trkpt><trkpt lat="44.040145" lon="12.5194317"><ele>13.333333333333334</ele><time>2026-03-29T10:02:29.575Z</time></trkpt><trkpt lat="44.040255" lon="12.5196483"><ele>12.666666666666668</ele><time>2026-03-29T10:02:30.575Z</time></trkpt><trkpt lat="44.0403667" lon="12.51987"><ele>12.0</ele><time>2026-03-29T10:02:31.575Z</time></trkpt><trkpt lat="44.0404817" lon="12.5200983"><ele>12.0</ele><time>2026-03-29T10:02:32.575Z</time></trkpt><trkpt lat="44.0405967" lon="12.52033"><ele>12.0</ele><time>2026-03-29T10:02:33.575Z</time></trkpt><trkpt lat="44.0407117" lon="12.5205633"><ele>12.0</ele><time>2026-03-29T10:02:34.574Z</time></trkpt><trkpt lat="44.0408217" lon="12.52079"><ele>12.333333333333332</ele><time>2026-03-29T10:02:35.574Z</time></trkpt><trkpt lat="44.0409317" lon="12.5210083"><ele>12.666666666666666</ele><time>2026-03-29T10:02:36.575Z</time></trkpt><trkpt lat="44.0410417" lon="12.52121"><ele>13.0</ele><time>2026-03-29T10:02:37.575Z</time></trkpt><trkpt lat="44.041155" lon="12.521415"><ele>13.333333333333332</ele><time>2026-03-29T10:02:38.575Z</time></trkpt><trkpt lat="44.0412617" lon="12.5216233"><ele>13.666666666666668</ele><time>2026-03-29T10:02:39.574Z</time></trkpt><trkpt lat="44.041375" lon="12.52183"><ele>14.0</ele><time>2026-03-29T10:02:40.575Z</time></trkpt><trkpt lat="44.04149" lon="12.522035"><ele>14.0</ele><time>2026-03-29T10:02:41.574Z</time></trkpt><trkpt lat="44.04161" lon="12.5222433"><ele>14.0</ele><time>2026-03-29T10:02:42.574Z</time></trkpt><trkpt lat="44.0417183" lon="12.5224383"><ele>14.0</ele><time>2026-03-29T10:02:43.574Z</time></trkpt><trkpt lat="44.0418183" lon="12.5226217"><ele>13.666666666666668</ele><time>2026-03-29T10:02:44.574Z</time></trkpt><trkpt lat="44.0419033" lon="12.5228033"><ele>13.333333333333332</ele><time>2026-03-29T10:02:45.574Z</time></trkpt><trkpt lat="44.0419667" lon="12.5229967"><ele>13.0</ele><time>2026-03-29T10:02:46.575Z</time></trkpt><trkpt lat="44.042005" lon="12.5232133"><ele>12.666666666666666</ele><time>2026-03-29T10:02:47.575Z</time></trkpt><trkpt lat="44.0420067" lon="12.5234383"><ele>12.333333333333332</ele><time>2026-03-29T10:02:48.574Z</time></trkpt><trkpt lat="44.0419833" lon="12.5236683"><ele>12.0</ele><time>2026-03-29T10:02:49.574Z</time></trkpt><trkpt lat="44.0419417" lon="12.5238883"><ele>13.666666666666668</ele><time>2026-03-29T10:02:50.574Z</time></trkpt><trkpt lat="44.0418767" lon="12.5241133"><ele>15.333333333333334</ele><time>2026-03-29T10:02:51.575Z</time></trkpt><trkpt lat="44.0417883" lon="12.52434"><ele>17.0</ele><time>2026-03-29T10:02:52.575Z</time></trkpt><trkpt lat="44.0416917" lon="12.5245517"><ele>17.333333333333336</ele><time>2026-03-29T10:02:53.575Z</time></trkpt><trkpt lat="44.0416067" lon="12.52475"><ele>17.666666666666668</ele><time>2026-03-29T10:02:54.575Z</time></trkpt><trkpt lat="44.0415283" lon="12.524925"><ele>18.0</ele><time>2026-03-29T10:02:55.574Z</time></trkpt><trkpt lat="44.0414667" lon="12.5251083"><ele>18.0</ele><time>2026-03-29T10:02:56.574Z</time></trkpt><trkpt lat="44.041425" lon="12.5253017"><ele>18.0</ele><time>2026-03-29T10:02:57.574Z</time></trkpt><trkpt lat="44.0414283" lon="12.5255417"><ele>18.0</ele><time>2026-03-29T10:02:58.575Z</time></trkpt><trkpt lat="44.0414633" lon="12.5258233"><ele>19.5</ele><time>2026-03-29T10:02:59.575Z</time></trkpt><trkpt lat="44.0415017" lon="12.5261217"><ele>21.0</ele><time>2026-03-29T10:03:00.575Z</time></trkpt><trkpt lat="44.0415417" lon="12.52644"><ele>22.0</ele><time>2026-03-29T10:03:01.574Z</time></trkpt><trkpt lat="44.0416033" lon="12.5267817"><ele>23.0</ele><time>2026-03-29T10:03:02.575Z</time></trkpt><trkpt lat="44.0416783" lon="12.52712"><ele>19.0</ele><time>2026-03-29T10:03:03.574Z</time></trkpt><trkpt lat="44.0417583" lon="12.52743"><ele>15.0</ele><time>2026-03-29T10:03:04.574Z</time></trkpt><trkpt lat="44.0418483" lon="12.5277167"><ele>16.666666666666668</ele><time>2026-03-29T10:03:05.575Z</time></trkpt><trkpt lat="44.041955" lon="12.5279767"><ele>18.333333333333336</ele><time>2026-03-29T10:03:06.576Z</time></trkpt><trkpt lat="44.0420833" lon="12.5282067"><ele>20.0</ele><time>2026-03-29T10:03:07.575Z</time></trkpt><trkpt lat="44.0422083" lon="12.5284233"><ele>20.0</ele><time>2026-03-29T10:03:08.576Z</time></trkpt><trkpt lat="44.042325" lon="12.5286333"><ele>20.0</ele><time>2026-03-29T10:03:09.576Z</time></trkpt><trkpt lat="44.0424383" lon="12.52882"><ele>20.0</ele><time>2026-03-29T10:03:10.576Z</time></trkpt><trkpt lat="44.04254" lon="12.5289983"><ele>19.75</ele><time>2026-03-29T10:03:11.575Z</time></trkpt><trkpt lat="44.0426267" lon="12.529165"><ele>19.5</ele><time>2026-03-29T10:03:12.576Z</time></trkpt><trkpt lat="44.0427117" lon="12.529325"><ele>19.25</ele><time>2026-03-29T10:03:13.576Z</time></trkpt><trkpt lat="44.0427683" lon="12.529515"><ele>19.0</ele><time>2026-03-29T10:03:14.575Z</time></trkpt><trkpt lat="44.0427983" lon="12.5297217"><ele>18.666666666666664</ele><time>2026-03-29T10:03:15.575Z</time></trkpt><trkpt lat="44.04279" lon="12.5299533"><ele>18.333333333333332</ele><time>2026-03-29T10:03:16.575Z</time></trkpt><trkpt lat="44.0427383" lon="12.5302017"><ele>18.0</ele><time>2026-03-29T10:03:17.576Z</time></trkpt><trkpt lat="44.0426533" lon="12.5304817"><ele>18.0</ele><time>2026-03-29T10:03:18.575Z</time></trkpt><trkpt lat="44.0425517" lon="12.530775"><ele>18.0</ele><time>2026-03-29T10:03:19.576Z</time></trkpt><trkpt lat="44.042445" lon="12.53109"><ele>18.0</ele><time>2026-03-29T10:03:20.576Z</time></trkpt><trkpt lat="44.0423267" lon="12.5314183"><ele>18.0</ele><time>2026-03-29T10:03:21.575Z</time></trkpt><trkpt lat="44.0422117" lon="12.5317467"><ele>17.0</ele><time>2026-03-29T10:03:22.576Z</time></trkpt><trkpt lat="44.042095" lon="12.5320733"><ele>16.0</ele><time>2026-03-29T10:03:23.575Z</time></trkpt><trkpt lat="44.0419817" lon="12.5323933"><ele>16.0</ele><time>2026-03-29T10:03:24.575Z</time></trkpt><trkpt lat="44.04187" lon="12.532715"><ele>16.0</ele><time>2026-03-29T10:03:25.576Z</time></trkpt><trkpt lat="44.0417683" lon="12.5330133"><ele>15.0</ele><time>2026-03-29T10:03:26.576Z</time></trkpt><trkpt lat="44.0416717" lon="12.533285"><ele>14.0</ele><time>2026-03-29T10:03:27.576Z</time></trkpt><trkpt lat="44.0415733" lon="12.53355"><ele>13.0</ele><time>2026-03-29T10:03:28.576Z</time></trkpt><trkpt lat="44.04149" lon="12.5338"><ele>15.0</ele><time>2026-03-29T10:03:29.576Z</time></trkpt><trkpt lat="44.041435" lon="12.5340317"><ele>17.0</ele><time>2026-03-29T10:03:30.576Z</time></trkpt><trkpt lat="44.0414167" lon="12.53425"><ele>19.0</ele><time>2026-03-29T10:03:31.575Z</time></trkpt><trkpt lat="44.0414433" lon="12.53446"><ele>18.25</ele><time>2026-03-29T10:03:32.576Z</time></trkpt><trkpt lat="44.0415017" lon="12.5346483"><ele>17.5</ele><time>2026-03-29T10:03:33.575Z</time></trkpt><trkpt lat="44.0415817" lon="12.5348067"><ele>16.75</ele><time>2026-03-29T10:03:34.575Z</time></trkpt><trkpt lat="44.0416783" lon="12.5349533"><ele>16.0</ele><time>2026-03-29T10:03:35.576Z</time></trkpt><trkpt lat="44.0417683" lon="12.535105"><ele>15.333333333333332</ele><time>2026-03-29T10:03:36.575Z</time></trkpt><trkpt lat="44.041865" lon="12.5352717"><ele>14.666666666666668</ele><time>2026-03-29T10:03:37.575Z</time></trkpt><trkpt lat="44.0419733" lon="12.5354283"><ele>14.0</ele><time>2026-03-29T10:03:38.576Z</time></trkpt><trkpt lat="44.0421083" lon="12.5355883"><ele>13.666666666666668</ele><time>2026-03-29T10:03:39.576Z</time></trkpt><trkpt lat="44.0422667" lon="12.5357717"><ele>13.333333333333332</ele><time>2026-03-29T10:03:40.576Z</time></trkpt><trkpt lat="44.04246" lon="12.535975"><ele>13.0</ele><time>2026-03-29T10:03:41.575Z</time></trkpt><trkpt lat="44.0426783" lon="12.5362017"><ele>13.0</ele><time>2026-03-29T10:03:42.576Z</time></trkpt><trkpt lat="44.04289" lon="12.5364317"><ele>13.0</ele><time>2026-03-29T10:03:43.576Z</time></trkpt><trkpt lat="44.0430883" lon="12.5366567"><ele>13.0</ele><time>2026-03-29T10:03:44.576Z</time></trkpt><trkpt lat="44.0432683" lon="12.5368583"><ele>13.0</ele><time>2026-03-29T10:03:45.576Z</time></trkpt><trkpt lat="44.043445" lon="12.5370133"><ele>13.0</ele><time>2026-03-29T10:03:46.575Z</time></trkpt><trkpt lat="44.0436167" lon="12.53711"><ele>15.75</ele><time>2026-03-29T10:03:47.575Z</time></trkpt><trkpt lat="44.0437833" lon="12.5371433"><ele>18.5</ele><time>2026-03-29T10:03:48.576Z</time></trkpt><trkpt lat="44.0439283" lon="12.5371633"><ele>21.25</ele><time>2026-03-29T10:03:49.576Z</time></trkpt><trkpt lat="44.0440483" lon="12.5371883"><ele>24.0</ele><time>2026-03-29T10:03:50.576Z</time></trkpt><trkpt lat="44.0441433" lon="12.5372683"><ele>24.0</ele><time>2026-03-29T10:03:51.576Z</time></trkpt><trkpt lat="44.0442" lon="12.5374067"><ele>24.0</ele><time>2026-03-29T10:03:52.576Z</time></trkpt><trkpt lat="44.0442183" lon="12.5375933"><ele>24.0</ele><time>2026-03-29T10:03:53.576Z</time></trkpt><trkpt lat="44.0442367" lon="12.5377867"><ele>24.0</ele><time>2026-03-29T10:03:54.576Z</time></trkpt><trkpt lat="44.044285" lon="12.538"><ele>24.666666666666664</ele><time>2026-03-29T10:03:55.576Z</time></trkpt><trkpt lat="44.0443683" lon="12.5381983"><ele>25.333333333333332</ele><time>2026-03-29T10:03:56.575Z</time></trkpt><trkpt lat="44.0444717" lon="12.538345"><ele>26.0</ele><time>2026-03-29T10:03:57.576Z</time></trkpt><trkpt lat="44.0445683" lon="12.538485"><ele>26.0</ele><time>2026-03-29T10:03:58.576Z</time></trkpt><trkpt lat="44.0446333" lon="12.538625"><ele>26.0</ele><time>2026-03-29T10:03:59.576Z</time></trkpt><trkpt lat="44.0446583" lon="12.5387683"><ele>26.0</ele><time>2026-03-29T10:04:00.576Z</time></trkpt><trkpt lat="44.044635" lon="12.5389217"><ele>26.0</ele><time>2026-03-29T10:04:01.575Z</time></trkpt><trkpt lat="44.0445533" lon="12.5390733"><ele>24.0</ele><time>2026-03-29T10:04:02.575Z</time></trkpt><trkpt lat="44.0444333" lon="12.539225"><ele>22.0</ele><time>2026-03-29T10:04:03.576Z</time></trkpt><trkpt lat="44.04431" lon="12.5393917"><ele>20.0</ele><time>2026-03-29T10:04:04.576Z</time></trkpt><trkpt lat="44.0442217" lon="12.539575"><ele>17.0</ele><time>2026-03-29T10:04:05.575Z</time></trkpt><trkpt lat="44.0441833" lon="12.5398"><ele>14.0</ele><time>2026-03-29T10:04:06.576Z</time></trkpt><trkpt lat="44.0441917" lon="12.5400717"><ele>11.0</ele><time>2026-03-29T10:04:07.575Z</time></trkpt><trkpt lat="44.04421" lon="12.5403583"><ele>10.5</ele><time>2026-03-29T10:04:08.575Z</time></trkpt><trkpt lat="44.0442283" lon="12.540665"><ele>10.0</ele><time>2026-03-29T10:04:09.575Z</time></trkpt><trkpt lat="44.0442633" lon="12.54099"><ele>10.333333333333334</ele><time>2026-03-29T10:04:10.575Z</time></trkpt><trkpt lat="44.0442967" lon="12.5413017"><ele>10.666666666666666</ele><time>2026-03-29T10:04:11.576Z</time></trkpt><trkpt lat="44.0443333" lon="12.54159"><ele>11.0</ele><time>2026-03-29T10:04:12.576Z</time></trkpt><trkpt lat="44.04436" lon="12.5418617"><ele>11.0</ele><time>2026-03-29T10:04:13.575Z</time></trkpt><trkpt lat="44.0443633" lon="12.5421333"><ele>11.0</ele><time>2026-03-29T10:04:14.576Z</time></trkpt><trkpt lat="44.0443467" lon="12.5423883"><ele>11.0</ele><time>2026-03-29T10:04:15.575Z</time></trkpt><trkpt lat="44.0442883" lon="12.5426317"><ele>11.0</ele><time>2026-03-29T10:04:16.576Z</time></trkpt><trkpt lat="44.0441833" lon="12.5428783"><ele>11.0</ele><time>2026-03-29T10:04:17.575Z</time></trkpt><trkpt lat="44.0440317" lon="12.5431483"><ele>11.0</ele><time>2026-03-29T10:04:18.575Z</time></trkpt><trkpt lat="44.043875" lon="12.54346"><ele>11.0</ele><time>2026-03-29T10:04:19.575Z</time></trkpt><trkpt lat="44.04373" lon="12.543795"><ele>11.0</ele><time>2026-03-29T10:04:20.575Z</time></trkpt><trkpt lat="44.0435967" lon="12.54414"><ele>11.0</ele><time>2026-03-29T10:04:21.575Z</time></trkpt><trkpt lat="44.043485" lon="12.5444583"><ele>10.0</ele><time>2026-03-29T10:04:22.576Z</time></trkpt><trkpt lat="44.04338" lon="12.544755"><ele>9.0</ele><time>2026-03-29T10:04:23.576Z</time></trkpt><trkpt lat="44.04328" lon="12.54502"><ele>10.666666666666668</ele><time>2026-03-29T10:04:24.576Z</time></trkpt><trkpt lat="44.0432017" lon="12.5452567"><ele>12.333333333333334</ele><time>2026-03-29T10:04:25.576Z</time></trkpt><trkpt lat="44.0431617" lon="12.5454783"><ele>14.0</ele><time>2026-03-29T10:04:26.576Z</time></trkpt><trkpt lat="44.04319" lon="12.5456967"><ele>15.0</ele><time>2026-03-29T10:04:27.576Z</time></trkpt><trkpt lat="44.0432667" lon="12.5459117"><ele>16.0</ele><time>2026-03-29T10:04:28.576Z</time></trkpt><trkpt lat="44.0433717" lon="12.5460917"><ele>17.0</ele><time>2026-03-29T10:04:29.575Z</time></trkpt><trkpt lat="44.0434733" lon="12.5462567"><ele>18.333333333333336</ele><time>2026-03-29T10:04:30.576Z</time></trkpt><trkpt lat="44.043555" lon="12.5464433"><ele>19.666666666666668</ele><time>2026-03-29T10:04:31.575Z</time></trkpt><trkpt lat="44.0436217" lon="12.5466733"><ele>21.0</ele><time>2026-03-29T10:04:32.575Z</time></trkpt><trkpt lat="44.0436883" lon="12.5469367"><ele>20.0</ele><time>2026-03-29T10:04:33.575Z</time></trkpt><trkpt lat="44.0437383" lon="12.5472433"><ele>19.0</ele><time>2026-03-29T10:04:34.576Z</time></trkpt><trkpt lat="44.0437833" lon="12.547565"><ele>18.666666666666664</ele><time>2026-03-29T10:04:35.576Z</time></trkpt><trkpt lat="44.04382" lon="12.5478833"><ele>18.333333333333332</ele><time>2026-03-29T10:04:36.575Z</time></trkpt><trkpt lat="44.04384" lon="12.548185"><ele>18.0</ele><time>2026-03-29T10:04:37.575Z</time></trkpt><trkpt lat="44.0438683" lon="12.5484633"><ele>17.333333333333332</ele><time>2026-03-29T10:04:38.575Z</time></trkpt><trkpt lat="44.0439233" lon="12.5487433"><ele>16.666666666666664</ele><time>2026-03-29T10:04:39.576Z</time></trkpt><trkpt lat="44.04401" lon="12.5490233"><ele>16.0</ele><time>2026-03-29T10:04:40.575Z</time></trkpt><trkpt lat="44.0441133" lon="12.5492733"><ele>15.0</ele><time>2026-03-29T10:04:41.576Z</time></trkpt><trkpt lat="44.0442083" lon="12.5494967"><ele>14.0</ele><time>2026-03-29T10:04:42.576Z</time></trkpt><trkpt lat="44.0443083" lon="12.5496883"><ele>13.0</ele><time>2026-03-29T10:04:43.576Z</time></trkpt><trkpt lat="44.04443" lon="12.549855"><ele>14.75</ele><time>2026-03-29T10:04:44.575Z</time></trkpt><trkpt lat="44.044555" lon="12.5499833"><ele>16.5</ele><time>2026-03-29T10:04:45.576Z</time></trkpt><trkpt lat="44.0446667" lon="12.5500967"><ele>18.25</ele><time>2026-03-29T10:04:46.576Z</time></trkpt><trkpt lat="44.044765" lon="12.5502167"><ele>20.0</ele><time>2026-03-29T10:04:47.575Z</time></trkpt><trkpt lat="44.0448167" lon="12.5503533"><ele>21.0</ele><time>2026-03-29T10:04:48.576Z</time></trkpt><trkpt lat="44.0448417" lon="12.550485"><ele>22.0</ele><time>2026-03-29T10:04:49.576Z</time></trkpt><trkpt lat="44.0448283" lon="12.5506033"><ele>23.0</ele><time>2026-03-29T10:04:50.576Z</time></trkpt><trkpt lat="44.0447867" lon="12.550725"><ele>24.0</ele><time>2026-03-29T10:04:51.575Z</time></trkpt><trkpt lat="44.0447583" lon="12.55084"><ele>25.0</ele><time>2026-03-29T10:04:52.575Z</time></trkpt><trkpt lat="44.0447767" lon="12.5509667"><ele>25.0</ele><time>2026-03-29T10:04:53.576Z</time></trkpt><trkpt lat="44.04484" lon="12.5510883"><ele>25.0</ele><time>2026-03-29T10:04:54.575Z</time></trkpt><trkpt lat="44.0449083" lon="12.5512133"><ele>25.0</ele><time>2026-03-29T10:04:55.576Z</time></trkpt><trkpt lat="44.0449783" lon="12.5513617"><ele>25.0</ele><time>2026-03-29T10:04:56.576Z</time></trkpt><trkpt lat="44.0450767" lon="12.55152"><ele>22.333333333333336</ele><time>2026-03-29T10:04:57.576Z</time></trkpt><trkpt lat="44.045215" lon="12.5516683"><ele>19.666666666666668</ele><time>2026-03-29T10:04:58.575Z</time></trkpt><trkpt lat="44.0453567" lon="12.551805"><ele>17.0</ele><time>2026-03-29T10:04:59.575Z</time></trkpt><trkpt lat="44.0454833" lon="12.55194"><ele>16.0</ele><time>2026-03-29T10:05:00.575Z</time></trkpt><trkpt lat="44.0455883" lon="12.5520483"><ele>15.0</ele><time>2026-03-29T10:05:01.576Z</time></trkpt><trkpt lat="44.0456817" lon="12.55215"><ele>14.0</ele><time>2026-03-29T10:05:02.575Z</time></trkpt><trkpt lat="44.0457467" lon="12.552245"><ele>13.0</ele><time>2026-03-29T10:05:03.575Z</time></trkpt><trkpt lat="44.045805" lon="12.552325"><ele>12.0</ele><time>2026-03-29T10:05:04.576Z</time></trkpt><trkpt lat="44.0458533" lon="12.5523983"><ele>12.0</ele><time>2026-03-29T10:05:05.575Z</time></trkpt><trkpt lat="44.0459133" lon="12.55251"><ele>12.0</ele><time>2026-03-29T10:05:07.576Z</time></trkpt><trkpt lat="44.0459667" lon="12.552615"><ele>12.0</ele><time>2026-03-29T10:05:10.575Z</time></trkpt><trkpt lat="44.046" lon="12.5527383"><ele>12.0</ele><time>2026-03-29T10:05:12.576Z</time></trkpt><trkpt lat="44.0459967" lon="12.5528783"><ele>12.0</ele><time>2026-03-29T10:05:14.575Z</time></trkpt><trkpt lat="44.046" lon="12.5530017"><ele>11.25</ele><time>2026-03-29T10:05:16.576Z</time></trkpt><trkpt lat="44.0460033" lon="12.55321"><ele>10.5</ele><time>2026-03-29T10:05:18.576Z</time></trkpt><trkpt lat="44.04597" lon="12.55336"><ele>9.75</ele><time>2026-03-29T10:05:19.576Z</time></trkpt><trkpt lat="44.0458967" lon="12.55354"><ele>9.0</ele><time>2026-03-29T10:05:20.575Z</time></trkpt><trkpt lat="44.0458033" lon="12.5537533"><ele>10.333333333333332</ele><time>2026-03-29T10:05:21.575Z</time></trkpt><trkpt lat="44.0457117" lon="12.5539833"><ele>11.666666666666666</ele><time>2026-03-29T10:05:22.576Z</time></trkpt><trkpt lat="44.0456233" lon="12.5542283"><ele>13.0</ele><time>2026-03-29T10:05:23.576Z</time></trkpt><trkpt lat="44.04554" lon="12.5544833"><ele>12.333333333333332</ele><time>2026-03-29T10:05:24.575Z</time></trkpt><trkpt lat="44.0454567" lon="12.5547333"><ele>11.666666666666666</ele><time>2026-03-29T10:05:25.576Z</time></trkpt><trkpt lat="44.0453783" lon="12.55499"><ele>11.0</ele><time>2026-03-29T10:05:26.576Z</time></trkpt><trkpt lat="44.0452933" lon="12.5552567"><ele>10.5</ele><time>2026-03-29T10:05:27.576Z</time></trkpt><trkpt lat="44.0451917" lon="12.5555583"><ele>10.0</ele><time>2026-03-29T10:05:28.576Z</time></trkpt><trkpt lat="44.0450983" lon="12.5559017"><ele>9.5</ele><time>2026-03-29T10:05:29.576Z</time></trkpt><trkpt lat="44.0450067" lon="12.5562833"><ele>9.0</ele><time>2026-03-29T10:05:30.576Z</time></trkpt><trkpt lat="44.0449217" lon="12.5566567"><ele>9.0</ele><time>2026-03-29T10:05:31.575Z</time></trkpt><trkpt lat="44.04483" lon="12.557025"><ele>9.0</ele><time>2026-03-29T10:05:32.576Z</time></trkpt><trkpt lat="44.0447433" lon="12.5573667"><ele>10.0</ele><time>2026-03-29T10:05:33.575Z</time></trkpt><trkpt lat="44.0446633" lon="12.5576917"><ele>11.0</ele><time>2026-03-29T10:05:34.576Z</time></trkpt><trkpt lat="44.044585" lon="12.5579917"><ele>11.0</ele><time>2026-03-29T10:05:35.575Z</time></trkpt><trkpt lat="44.04451" lon="12.5582783"><ele>11.0</ele><time>2026-03-29T10:05:36.575Z</time></trkpt><trkpt lat="44.0444317" lon="12.55855"><ele>11.0</ele><time>2026-03-29T10:05:37.575Z</time></trkpt><trkpt lat="44.0443667" lon="12.5587867"><ele>10.75</ele><time>2026-03-29T10:05:38.576Z</time></trkpt><trkpt lat="44.0443133" lon="12.5589917"><ele>10.5</ele><time>2026-03-29T10:05:39.576Z</time></trkpt><trkpt lat="44.0442667" lon="12.5591567"><ele>10.25</ele><time>2026-03-29T10:05:40.576Z</time></trkpt><trkpt lat="44.0442317" lon="12.5592733"><ele>10.0</ele><time>2026-03-29T10:05:41.575Z</time></trkpt><trkpt lat="44.0441833" lon="12.55936"><ele>10.333333333333334</ele><time>2026-03-29T10:05:42.576Z</time></trkpt><trkpt lat="44.04412" lon="12.5594083"><ele>10.666666666666668</ele><time>2026-03-29T10:05:43.576Z</time></trkpt><trkpt lat="44.0440517" lon="12.5594317"><ele>11.0</ele><time>2026-03-29T10:05:44.575Z</time></trkpt><trkpt lat="44.043985" lon="12.5594567"><ele>11.333333333333334</ele><time>2026-03-29T10:05:45.576Z</time></trkpt><trkpt lat="44.0439283" lon="12.5595017"><ele>11.666666666666666</ele><time>2026-03-29T10:05:46.576Z</time></trkpt><trkpt lat="44.0438567" lon="12.5596467"><ele>12.0</ele><time>2026-03-29T10:05:48.576Z</time></trkpt><trkpt lat="44.04384" lon="12.5597417"><ele>12.0</ele><time>2026-03-29T10:05:49.575Z</time></trkpt><trkpt lat="44.0438517" lon="12.559845"><ele>12.0</ele><time>2026-03-29T10:05:50.576Z</time></trkpt><trkpt lat="44.0438867" lon="12.5599467"><ele>12.0</ele><time>2026-03-29T10:05:51.576Z</time></trkpt><trkpt lat="44.0439417" lon="12.5600367"><ele>12.0</ele><time>2026-03-29T10:05:52.575Z</time></trkpt><trkpt lat="44.0440117" lon="12.5601083"><ele>12.0</ele><time>2026-03-29T10:05:53.576Z</time></trkpt><trkpt lat="44.0441167" lon="12.56014"><ele>12.0</ele><time>2026-03-29T10:05:54.576Z</time></trkpt><trkpt lat="44.044245" lon="12.5601433"><ele>12.0</ele><time>2026-03-29T10:05:55.576Z</time></trkpt><trkpt lat="44.0443683" lon="12.5601867"><ele>12.0</ele><time>2026-03-29T10:05:56.575Z</time></trkpt><trkpt lat="44.0444733" lon="12.5602967"><ele>12.0</ele><time>2026-03-29T10:05:57.576Z</time></trkpt><trkpt lat="44.0445833" lon="12.5604267"><ele>12.0</ele><time>2026-03-29T10:05:58.576Z</time></trkpt><trkpt lat="44.0446783" lon="12.5605583"><ele>12.0</ele><time>2026-03-29T10:05:59.576Z</time></trkpt><trkpt lat="44.0447633" lon="12.56066"><ele>12.0</ele><time>2026-03-29T10:06:00.576Z</time></trkpt><trkpt lat="44.0448367" lon="12.56076"><ele>12.0</ele><time>2026-03-29T10:06:01.575Z</time></trkpt><trkpt lat="44.0448917" lon="12.56083"><ele>12.0</ele><time>2026-03-29T10:06:02.576Z</time></trkpt><trkpt lat="44.0449217" lon="12.5609733"><ele>12.0</ele><time>2026-03-29T10:06:04.575Z</time></trkpt><trkpt lat="44.0448367" lon="12.56113"><ele>11.75</ele><time>2026-03-29T10:06:06.576Z</time></trkpt><trkpt lat="44.0447567" lon="12.5612333"><ele>11.5</ele><time>2026-03-29T10:06:07.576Z</time></trkpt><trkpt lat="44.044675" lon="12.5613717"><ele>11.25</ele><time>2026-03-29T10:06:08.576Z</time></trkpt><trkpt lat="44.0445817" lon="12.5615083"><ele>11.0</ele><time>2026-03-29T10:06:09.576Z</time></trkpt><trkpt lat="44.044495" lon="12.561635"><ele>11.0</ele><time>2026-03-29T10:06:10.576Z</time></trkpt><trkpt lat="44.0444167" lon="12.5617683"><ele>11.0</ele><time>2026-03-29T10:06:11.576Z</time></trkpt><trkpt lat="44.0443417" lon="12.5618933"><ele>11.0</ele><time>2026-03-29T10:06:12.576Z</time></trkpt><trkpt lat="44.0442667" lon="12.5620233"><ele>11.0</ele><time>2026-03-29T10:06:13.575Z</time></trkpt><trkpt lat="44.0441883" lon="12.5621617"><ele>10.75</ele><time>2026-03-29T10:06:14.575Z</time></trkpt><trkpt lat="44.0440983" lon="12.562275"><ele>10.5</ele><time>2026-03-29T10:06:15.576Z</time></trkpt><trkpt lat="44.0440083" lon="12.5624"><ele>10.25</ele><time>2026-03-29T10:06:16.575Z</time></trkpt><trkpt lat="44.0439117" lon="12.562525"><ele>10.0</ele><time>2026-03-29T10:06:17.576Z</time></trkpt><trkpt lat="44.0438283" lon="12.5626533"><ele>10.0</ele><time>2026-03-29T10:06:18.576Z</time></trkpt><trkpt lat="44.043745" lon="12.5627533"><ele>10.0</ele><time>2026-03-29T10:06:19.576Z</time></trkpt><trkpt lat="44.0436933" lon="12.5628333"><ele>10.0</ele><time>2026-03-29T10:06:20.575Z</time></trkpt><trkpt lat="44.0436583" lon="12.5629717"><ele>10.0</ele><time>2026-03-29T10:06:22.575Z</time></trkpt><trkpt lat="44.0437033" lon="12.5630483"><ele>10.0</ele><time>2026-03-29T10:06:23.575Z</time></trkpt><trkpt lat="44.0437733" lon="12.5631183"><ele>10.0</ele><time>2026-03-29T10:06:24.576Z</time></trkpt><trkpt lat="44.0438367" lon="12.5631867"><ele>10.0</ele><time>2026-03-29T10:06:25.575Z</time></trkpt><trkpt lat="44.0438833" lon="12.56325"><ele>10.0</ele><time>2026-03-29T10:06:26.576Z</time></trkpt><trkpt lat="44.0438867" lon="12.5634217"><ele>10.0</ele><time>2026-03-29T10:06:28.575Z</time></trkpt><trkpt lat="44.0438467" lon="12.5635167"><ele>10.0</ele><time>2026-03-29T10:06:29.576Z</time></trkpt><trkpt lat="44.04381" lon="12.5636017"><ele>10.0</ele><time>2026-03-29T10:06:30.576Z</time></trkpt><trkpt lat="44.0437917" lon="12.5636967"><ele>9.75</ele><time>2026-03-29T10:06:31.575Z</time></trkpt><trkpt lat="44.04382" lon="12.5637967"><ele>9.5</ele><time>2026-03-29T10:06:32.576Z</time></trkpt><trkpt lat="44.0439083" lon="12.5639233"><ele>9.25</ele><time>2026-03-29T10:06:33.576Z</time></trkpt><trkpt lat="44.0440083" lon="12.564055"><ele>9.0</ele><time>2026-03-29T10:06:34.576Z</time></trkpt><trkpt lat="44.0441067" lon="12.5641817"><ele>9.0</ele><time>2026-03-29T10:06:35.575Z</time></trkpt><trkpt lat="44.0441933" lon="12.5643"><ele>9.0</ele><time>2026-03-29T10:06:36.576Z</time></trkpt><trkpt lat="44.044275" lon="12.564415"><ele>9.0</ele><time>2026-03-29T10:06:37.576Z</time></trkpt><trkpt lat="44.0443617" lon="12.564525"><ele>9.0</ele><time>2026-03-29T10:06:38.576Z</time></trkpt><trkpt lat="44.0444567" lon="12.5646517"><ele>9.0</ele><time>2026-03-29T10:06:39.576Z</time></trkpt><trkpt lat="44.04456" lon="12.564785"><ele>9.0</ele><time>2026-03-29T10:06:40.576Z</time></trkpt><trkpt lat="44.044655" lon="12.564925"><ele>9.0</ele><time>2026-03-29T10:06:41.575Z</time></trkpt><trkpt lat="44.04475" lon="12.5650717"><ele>9.0</ele><time>2026-03-29T10:06:42.576Z</time></trkpt><trkpt lat="44.0448433" lon="12.5652"><ele>9.0</ele><time>2026-03-29T10:06:43.575Z</time></trkpt><trkpt lat="44.0449333" lon="12.565325"><ele>9.0</ele><time>2026-03-29T10:06:44.576Z</time></trkpt><trkpt lat="44.045015" lon="12.565435"><ele>9.0</ele><time>2026-03-29T10:06:45.576Z</time></trkpt><trkpt lat="44.045085" lon="12.5655283"><ele>9.0</ele><time>2026-03-29T10:06:46.575Z</time></trkpt><trkpt lat="44.0451367" lon="12.5656"><ele>9.0</ele><time>2026-03-29T10:06:47.576Z</time></trkpt><trkpt lat="44.04516" lon="12.565765"><ele>9.0</ele><time>2026-03-29T10:06:49.576Z</time></trkpt><trkpt lat="44.0451183" lon="12.5658817"><ele>9.0</ele><time>2026-03-29T10:06:50.576Z</time></trkpt><trkpt lat="44.0450267" lon="12.5660183"><ele>9.0</ele><time>2026-03-29T10:06:51.576Z</time></trkpt><trkpt lat="44.0449183" lon="12.5661667"><ele>9.0</ele><time>2026-03-29T10:06:52.576Z</time></trkpt><trkpt lat="44.0447967" lon="12.5663333"><ele>8.333333333333334</ele><time>2026-03-29T10:06:53.576Z</time></trkpt><trkpt lat="44.0446683" lon="12.566515"><ele>7.666666666666667</ele><time>2026-03-29T10:06:54.576Z</time></trkpt><trkpt lat="44.0445433" lon="12.566705"><ele>7.0</ele><time>2026-03-29T10:06:55.575Z</time></trkpt><trkpt lat="44.0444067" lon="12.5668883"><ele>7.333333333333334</ele><time>2026-03-29T10:06:56.576Z</time></trkpt><trkpt lat="44.0442717" lon="12.567075"><ele>7.666666666666666</ele><time>2026-03-29T10:06:57.575Z</time></trkpt><trkpt lat="44.0441317" lon="12.567275"><ele>8.0</ele><time>2026-03-29T10:06:58.576Z</time></trkpt><trkpt lat="44.0439867" lon="12.56749"><ele>8.0</ele><time>2026-03-29T10:06:59.575Z</time></trkpt><trkpt lat="44.0438383" lon="12.567705"><ele>8.0</ele><time>2026-03-29T10:07:00.576Z</time></trkpt><trkpt lat="44.043685" lon="12.5679133"><ele>8.0</ele><time>2026-03-29T10:07:01.576Z</time></trkpt><trkpt lat="44.0435367" lon="12.5681267"><ele>8.333333333333332</ele><time>2026-03-29T10:07:02.575Z</time></trkpt><trkpt lat="44.04339" lon="12.5683517"><ele>8.666666666666666</ele><time>2026-03-29T10:07:03.576Z</time></trkpt><trkpt lat="44.0432583" lon="12.5685583"><ele>9.0</ele><time>2026-03-29T10:07:04.576Z</time></trkpt><trkpt lat="44.0431267" lon="12.5687583"><ele>10.333333333333332</ele><time>2026-03-29T10:07:05.575Z</time></trkpt><trkpt lat="44.043" lon="12.5689633"><ele>11.666666666666666</ele><time>2026-03-29T10:07:06.576Z</time></trkpt><trkpt lat="44.0428833" lon="12.56919"><ele>13.0</ele><time>2026-03-29T10:07:07.576Z</time></trkpt><trkpt lat="44.0427867" lon="12.5694433"><ele>13.0</ele><time>2026-03-29T10:07:08.575Z</time></trkpt><trkpt lat="44.042705" lon="12.5697067"><ele>13.0</ele><time>2026-03-29T10:07:09.575Z</time></trkpt><trkpt lat="44.04264" lon="12.5699833"><ele>13.0</ele><time>2026-03-29T10:07:10.575Z</time></trkpt><trkpt lat="44.0425817" lon="12.570255"><ele>12.666666666666666</ele><time>2026-03-29T10:07:11.576Z</time></trkpt><trkpt lat="44.0425233" lon="12.5705117"><ele>12.333333333333332</ele><time>2026-03-29T10:07:12.575Z</time></trkpt><trkpt lat="44.0424683" lon="12.5707667"><ele>12.0</ele><time>2026-03-29T10:07:13.576Z</time></trkpt><trkpt lat="44.0424283" lon="12.5710167"><ele>11.333333333333334</ele><time>2026-03-29T10:07:14.576Z</time></trkpt><trkpt lat="44.0424117" lon="12.57127"><ele>10.666666666666668</ele><time>2026-03-29T10:07:15.575Z</time></trkpt><trkpt lat="44.042425" lon="12.5715267"><ele>10.0</ele><time>2026-03-29T10:07:16.575Z</time></trkpt><trkpt lat="44.0424517" lon="12.5717917"><ele>10.0</ele><time>2026-03-29T10:07:17.575Z</time></trkpt><trkpt lat="44.04251" lon="12.5720383"><ele>10.0</ele><time>2026-03-29T10:07:18.575Z</time></trkpt><trkpt lat="44.04261" lon="12.5722817"><ele>10.0</ele><time>2026-03-29T10:07:19.576Z</time></trkpt><trkpt lat="44.0427567" lon="12.5725033"><ele>10.0</ele><time>2026-03-29T10:07:20.575Z</time></trkpt><trkpt lat="44.042905" lon="12.5726867"><ele>10.0</ele><time>2026-03-29T10:07:21.576Z</time></trkpt><trkpt lat="44.0430383" lon="12.5728717"><ele>10.0</ele><time>2026-03-29T10:07:22.575Z</time></trkpt><trkpt lat="44.043165" lon="12.5730483"><ele>10.0</ele><time>2026-03-29T10:07:23.575Z</time></trkpt><trkpt lat="44.043285" lon="12.5732217"><ele>10.0</ele><time>2026-03-29T10:07:24.575Z</time></trkpt><trkpt lat="44.0434033" lon="12.573385"><ele>10.0</ele><time>2026-03-29T10:07:25.576Z</time></trkpt><trkpt lat="44.0435167" lon="12.5735467"><ele>10.0</ele><time>2026-03-29T10:07:26.576Z</time></trkpt><trkpt lat="44.04363" lon="12.5737067"><ele>10.0</ele><time>2026-03-29T10:07:27.576Z</time></trkpt><trkpt lat="44.0437267" lon="12.5738733"><ele>10.0</ele><time>2026-03-29T10:07:28.576Z</time></trkpt><trkpt lat="44.0438317" lon="12.5740233"><ele>10.0</ele><time>2026-03-29T10:07:29.576Z</time></trkpt><trkpt lat="44.0439267" lon="12.5741667"><ele>10.0</ele><time>2026-03-29T10:07:30.576Z</time></trkpt><trkpt lat="44.0440217" lon="12.5743067"><ele>10.0</ele><time>2026-03-29T10:07:31.576Z</time></trkpt><trkpt lat="44.044125" lon="12.574445"><ele>10.0</ele><time>2026-03-29T10:07:32.576Z</time></trkpt><trkpt lat="44.0442233" lon="12.5745833"><ele>10.25</ele><time>2026-03-29T10:07:33.576Z</time></trkpt><trkpt lat="44.0443167" lon="12.5747167"><ele>10.5</ele><time>2026-03-29T10:07:34.576Z</time></trkpt><trkpt lat="44.0444033" lon="12.5748433"><ele>10.75</ele><time>2026-03-29T10:07:35.576Z</time></trkpt><trkpt lat="44.04448" lon="12.5749617"><ele>11.0</ele><time>2026-03-29T10:07:36.576Z</time></trkpt><trkpt lat="44.0445467" lon="12.5750717"><ele>11.0</ele><time>2026-03-29T10:07:37.576Z</time></trkpt><trkpt lat="44.0446017" lon="12.57516"><ele>11.0</ele><time>2026-03-29T10:07:38.575Z</time></trkpt><trkpt lat="44.0446467" lon="12.5752233"><ele>11.0</ele><time>2026-03-29T10:07:39.575Z</time></trkpt><trkpt lat="44.0446983" lon="12.5753017"><ele>11.0</ele><time>2026-03-29T10:07:41.575Z</time></trkpt><trkpt lat="44.0447283" lon="12.57538"><ele>11.0</ele><time>2026-03-29T10:07:44.576Z</time></trkpt><trkpt lat="44.0447383" lon="12.5755083"><ele>11.0</ele><time>2026-03-29T10:07:46.576Z</time></trkpt><trkpt lat="44.04475" lon="12.575655"><ele>11.0</ele><time>2026-03-29T10:07:48.575Z</time></trkpt><trkpt lat="44.0448733" lon="12.5757517"><ele>11.0</ele><time>2026-03-29T10:07:50.576Z</time></trkpt><trkpt lat="44.04496" lon="12.5757733"><ele>11.0</ele><time>2026-03-29T10:07:51.575Z</time></trkpt><trkpt lat="44.0450333" lon="12.57581"><ele>11.0</ele><time>2026-03-29T10:07:52.576Z</time></trkpt><trkpt lat="44.0450933" lon="12.5758767"><ele>11.0</ele><time>2026-03-29T10:07:53.576Z</time></trkpt><trkpt lat="44.04516" lon="12.575965"><ele>10.75</ele><time>2026-03-29T10:07:54.576Z</time></trkpt><trkpt lat="44.0452267" lon="12.57607"><ele>10.5</ele><time>2026-03-29T10:07:55.576Z</time></trkpt><trkpt lat="44.045315" lon="12.57618"><ele>10.25</ele><time>2026-03-29T10:07:56.575Z</time></trkpt><trkpt lat="44.04541" lon="12.5762917"><ele>10.0</ele><time>2026-03-29T10:07:57.576Z</time></trkpt><trkpt lat="44.0455133" lon="12.5764283"><ele>10.0</ele><time>2026-03-29T10:07:58.575Z</time></trkpt><trkpt lat="44.0456267" lon="12.576585"><ele>10.0</ele><time>2026-03-29T10:07:59.576Z</time></trkpt><trkpt lat="44.0457467" lon="12.576755"><ele>10.0</ele><time>2026-03-29T10:08:00.575Z</time></trkpt><trkpt lat="44.0458667" lon="12.57693"><ele>9.333333333333334</ele><time>2026-03-29T10:08:01.576Z</time></trkpt><trkpt lat="44.0459783" lon="12.5770917"><ele>8.666666666666666</ele><time>2026-03-29T10:08:02.576Z</time></trkpt><trkpt lat="44.0460817" lon="12.5772467"><ele>8.0</ele><time>2026-03-29T10:08:03.576Z</time></trkpt><trkpt lat="44.0461817" lon="12.5773883"><ele>8.0</ele><time>2026-03-29T10:08:04.576Z</time></trkpt><trkpt lat="44.0462717" lon="12.5775217"><ele>8.0</ele><time>2026-03-29T10:08:05.575Z</time></trkpt><trkpt lat="44.04636" lon="12.577655"><ele>8.0</ele><time>2026-03-29T10:08:06.575Z</time></trkpt><trkpt lat="44.046445" lon="12.577785"><ele>8.0</ele><time>2026-03-29T10:08:07.575Z</time></trkpt><trkpt lat="44.0465333" lon="12.5779183"><ele>7.6000000000000005</ele><time>2026-03-29T10:08:08.576Z</time></trkpt><trkpt lat="44.0466183" lon="12.57804"><ele>7.200000000000001</ele><time>2026-03-29T10:08:09.576Z</time></trkpt><trkpt lat="44.0466983" lon="12.5781467"><ele>6.8</ele><time>2026-03-29T10:08:10.576Z</time></trkpt><trkpt lat="44.04677" lon="12.5782483"><ele>6.4</ele><time>2026-03-29T10:08:11.575Z</time></trkpt><trkpt lat="44.0468317" lon="12.5783483"><ele>6.0</ele><time>2026-03-29T10:08:12.576Z</time></trkpt><trkpt lat="44.0469017" lon="12.5784417"><ele>6.0</ele><time>2026-03-29T10:08:13.576Z</time></trkpt><trkpt lat="44.0469717" lon="12.5785417"><ele>6.0</ele><time>2026-03-29T10:08:14.576Z</time></trkpt><trkpt lat="44.0470483" lon="12.5786567"><ele>6.0</ele><time>2026-03-29T10:08:15.575Z</time></trkpt><trkpt lat="44.0471367" lon="12.578785"><ele>6.0</ele><time>2026-03-29T10:08:16.576Z</time></trkpt><trkpt lat="44.0472267" lon="12.578925"><ele>6.0</ele><time>2026-03-29T10:08:17.575Z</time></trkpt><trkpt lat="44.0473317" lon="12.5790967"><ele>6.0</ele><time>2026-03-29T10:08:18.576Z</time></trkpt><trkpt lat="44.0474583" lon="12.5792867"><ele>6.0</ele><time>2026-03-29T10:08:19.576Z</time></trkpt><trkpt lat="44.0475867" lon="12.579465"><ele>6.25</ele><time>2026-03-29T10:08:20.576Z</time></trkpt><trkpt lat="44.0477133" lon="12.5796317"><ele>6.5</ele><time>2026-03-29T10:08:21.576Z</time></trkpt><trkpt lat="44.0478283" lon="12.57978"><ele>6.75</ele><time>2026-03-29T10:08:22.575Z</time></trkpt><trkpt lat="44.0479067" lon="12.579895"><ele>7.0</ele><time>2026-03-29T10:08:23.576Z</time></trkpt><trkpt lat="44.0479717" lon="12.57999"><ele>7.0</ele><time>2026-03-29T10:08:25.576Z</time></trkpt><trkpt lat="44.048015" lon="12.5800833"><ele>6.999999999999999</ele><time>2026-03-29T10:08:34.576Z</time></trkpt><trkpt lat="44.0480933" lon="12.5801683"><ele>6.999999999999999</ele><time>2026-03-29T10:08:36.576Z</time></trkpt><trkpt lat="44.0482217" lon="12.5802667"><ele>7.0</ele><time>2026-03-29T10:08:38.576Z</time></trkpt><trkpt lat="44.0483" lon="12.5803533"><ele>7.0</ele><time>2026-03-29T10:08:39.575Z</time></trkpt><trkpt lat="44.0484" lon="12.580455"><ele>6.5</ele><time>2026-03-29T10:08:40.576Z</time></trkpt><trkpt lat="44.0485117" lon="12.58057"><ele>6.0</ele><time>2026-03-29T10:08:41.576Z</time></trkpt><trkpt lat="44.048635" lon="12.5806933"><ele>5.5</ele><time>2026-03-29T10:08:42.576Z</time></trkpt><trkpt lat="44.048745" lon="12.5808183"><ele>5.0</ele><time>2026-03-29T10:08:43.576Z</time></trkpt><trkpt lat="44.0488467" lon="12.58094"><ele>5.0</ele><time>2026-03-29T10:08:44.576Z</time></trkpt><trkpt lat="44.0489583" lon="12.58106"><ele>5.0</ele><time>2026-03-29T10:08:45.576Z</time></trkpt><trkpt lat="44.0490767" lon="12.5811767"><ele>5.0</ele><time>2026-03-29T10:08:46.576Z</time></trkpt><trkpt lat="44.04918" lon="12.5812883"><ele>5.0</ele><time>2026-03-29T10:08:47.575Z</time></trkpt><trkpt lat="44.0492833" lon="12.5814033"><ele>4.6</ele><time>2026-03-29T10:08:48.576Z</time></trkpt><trkpt lat="44.04937" lon="12.5815117"><ele>4.2</ele><time>2026-03-29T10:08:49.575Z</time></trkpt><trkpt lat="44.0494383" lon="12.5816"><ele>3.8</ele><time>2026-03-29T10:08:50.575Z</time></trkpt><trkpt lat="44.0494883" lon="12.5816683"><ele>3.4</ele><time>2026-03-29T10:08:51.576Z</time></trkpt><trkpt lat="44.04956" lon="12.581755"><ele>3.0</ele><time>2026-03-29T10:08:53.575Z</time></trkpt><trkpt lat="44.0496433" lon="12.5818433"><ele>3.0</ele><time>2026-03-29T10:09:21.576Z</time></trkpt><trkpt lat="44.0496967" lon="12.5819083"><ele>3.0</ele><time>2026-03-29T10:09:22.576Z</time></trkpt><trkpt lat="44.0497767" lon="12.5820067"><ele>3.0</ele><time>2026-03-29T10:09:23.577Z</time></trkpt><trkpt lat="44.0498767" lon="12.5821417"><ele>3.0</ele><time>2026-03-29T10:09:24.577Z</time></trkpt><trkpt lat="44.0499933" lon="12.5823"><ele>3.333333333333333</ele><time>2026-03-29T10:09:25.576Z</time></trkpt><trkpt lat="44.0501233" lon="12.5824717"><ele>3.6666666666666665</ele><time>2026-03-29T10:09:26.576Z</time></trkpt><trkpt lat="44.0502617" lon="12.582645"><ele>4.0</ele><time>2026-03-29T10:09:27.577Z</time></trkpt><trkpt lat="44.0503883" lon="12.582795"><ele>4.0</ele><time>2026-03-29T10:09:28.577Z</time></trkpt><trkpt lat="44.0505033" lon="12.5829317"><ele>4.0</ele><time>2026-03-29T10:09:29.577Z</time></trkpt><trkpt lat="44.050605" lon="12.583065"><ele>4.0</ele><time>2026-03-29T10:09:30.577Z</time></trkpt><trkpt lat="44.05069" lon="12.5831983"><ele>4.0</ele><time>2026-03-29T10:09:31.576Z</time></trkpt><trkpt lat="44.0507633" lon="12.5833133"><ele>4.0</ele><time>2026-03-29T10:09:32.577Z</time></trkpt><trkpt lat="44.05081" lon="12.5834117"><ele>3.9999999999999996</ele><time>2026-03-29T10:09:33.576Z</time></trkpt><trkpt lat="44.0508433" lon="12.5835067"><ele>4.0</ele><time>2026-03-29T10:09:34.577Z</time></trkpt><trkpt lat="44.050855" lon="12.5836033"><ele>4.0</ele><time>2026-03-29T10:09:35.576Z</time></trkpt><trkpt lat="44.0508467" lon="12.5837033"><ele>3.9999999999999996</ele><time>2026-03-29T10:09:36.576Z</time></trkpt><trkpt lat="44.0508283" lon="12.5838017"><ele>4.0</ele><time>2026-03-29T10:09:37.576Z</time></trkpt><trkpt lat="44.05081" lon="12.5838983"><ele>4.0</ele><time>2026-03-29T10:09:38.577Z</time></trkpt><trkpt lat="44.05079" lon="12.584"><ele>4.0</ele><time>2026-03-29T10:09:39.577Z</time></trkpt><trkpt lat="44.0507633" lon="12.584105"><ele>4.0</ele><time>2026-03-29T10:09:40.577Z</time></trkpt><trkpt lat="44.0507333" lon="12.5842167"><ele>4.0</ele><time>2026-03-29T10:09:41.577Z</time></trkpt><trkpt lat="44.0507" lon="12.5843417"><ele>4.0</ele><time>2026-03-29T10:09:42.577Z</time></trkpt><trkpt lat="44.0506633" lon="12.58447"><ele>4.0</ele><time>2026-03-29T10:09:43.577Z</time></trkpt><trkpt lat="44.0506283" lon="12.584605"><ele>4.166666666666666</ele><time>2026-03-29T10:09:44.577Z</time></trkpt><trkpt lat="44.050595" lon="12.584735"><ele>4.333333333333333</ele><time>2026-03-29T10:09:45.577Z</time></trkpt><trkpt lat="44.05055" lon="12.584855"><ele>4.5</ele><time>2026-03-29T10:09:46.576Z</time></trkpt><trkpt lat="44.0505067" lon="12.5849717"><ele>4.666666666666667</ele><time>2026-03-29T10:09:47.577Z</time></trkpt><trkpt lat="44.0504717" lon="12.5850717"><ele>4.833333333333334</ele><time>2026-03-29T10:09:48.577Z</time></trkpt><trkpt lat="44.05044" lon="12.5851533"><ele>5.0</ele><time>2026-03-29T10:09:49.577Z</time></trkpt><trkpt lat="44.050385" lon="12.5852817"><ele>4.833333333333334</ele><time>2026-03-29T10:09:51.577Z</time></trkpt><trkpt lat="44.0503433" lon="12.58536"><ele>4.666666666666667</ele><time>2026-03-29T10:09:53.576Z</time></trkpt><trkpt lat="44.0503017" lon="12.5854467"><ele>4.5</ele><time>2026-03-29T10:09:55.577Z</time></trkpt><trkpt lat="44.050255" lon="12.58555"><ele>4.333333333333333</ele><time>2026-03-29T10:09:57.577Z</time></trkpt><trkpt lat="44.050205" lon="12.58567"><ele>4.166666666666666</ele><time>2026-03-29T10:09:59.576Z</time></trkpt><trkpt lat="44.0501333" lon="12.58579"><ele>4.0</ele><time>2026-03-29T10:10:01.577Z</time></trkpt><trkpt lat="44.05007" lon="12.5859233"><ele>4.0</ele><time>2026-03-29T10:10:03.576Z</time></trkpt><trkpt lat="44.0500083" lon="12.5860833"><ele>4.0</ele><time>2026-03-29T10:10:05.577Z</time></trkpt><trkpt lat="44.0499517" lon="12.58618"><ele>4.0</ele><time>2026-03-29T10:10:06.577Z</time></trkpt><trkpt lat="44.0498983" lon="12.5862917"><ele>4.0</ele><time>2026-03-29T10:10:07.576Z</time></trkpt><trkpt lat="44.0498483" lon="12.5864"><ele>4.0</ele><time>2026-03-29T10:10:08.577Z</time></trkpt><trkpt lat="44.04981" lon="12.5865083"><ele>4.4</ele><time>2026-03-29T10:10:09.576Z</time></trkpt><trkpt lat="44.0497167" lon="12.5866033"><ele>4.800000000000001</ele><time>2026-03-29T10:10:11.576Z</time></trkpt><trkpt lat="44.04962" lon="12.5865483"><ele>5.199999999999999</ele><time>2026-03-29T10:10:13.576Z</time></trkpt><trkpt lat="44.0495633" lon="12.586475"><ele>5.6</ele><time>2026-03-29T10:10:14.577Z</time></trkpt><trkpt lat="44.0495017" lon="12.5863717"><ele>6.0</ele><time>2026-03-29T10:10:15.577Z</time></trkpt><trkpt lat="44.0494367" lon="12.58626"><ele>6.0</ele><time>2026-03-29T10:10:16.577Z</time></trkpt><trkpt lat="44.0493867" lon="12.5861667"><ele>6.0</ele><time>2026-03-29T10:10:17.576Z</time></trkpt><trkpt lat="44.04931" lon="12.586085"><ele>6.0</ele><time>2026-03-29T10:10:19.577Z</time></trkpt><trkpt lat="44.0491417" lon="12.5862083"><ele>6.0</ele><time>2026-03-29T10:10:22.576Z</time></trkpt><trkpt lat="44.0490683" lon="12.5863117"><ele>5.6</ele><time>2026-03-29T10:10:23.576Z</time></trkpt><trkpt lat="44.0490017" lon="12.58642"><ele>5.199999999999999</ele><time>2026-03-29T10:10:24.577Z</time></trkpt><trkpt lat="44.048925" lon="12.586515"><ele>4.800000000000001</ele><time>2026-03-29T10:10:25.577Z</time></trkpt><trkpt lat="44.0488517" lon="12.5865983"><ele>4.4</ele><time>2026-03-29T10:10:26.576Z</time></trkpt><trkpt lat="44.048785" lon="12.586665"><ele>4.0</ele><time>2026-03-29T10:10:27.577Z</time></trkpt><trkpt lat="44.0487117" lon="12.5867733"><ele>3.9999999999999996</ele><time>2026-03-29T10:10:29.577Z</time></trkpt><trkpt lat="44.0486433" lon="12.5868"><ele>4.0</ele><time>2026-03-29T10:10:31.577Z</time></trkpt><trkpt lat="44.0485767" lon="12.5867517"><ele>4.0</ele><time>2026-03-29T10:10:33.577Z</time></trkpt><trkpt lat="44.0485283" lon="12.5866917"><ele>4.0</ele><time>2026-03-29T10:10:34.577Z</time></trkpt><trkpt lat="44.0484833" lon="12.5866283"><ele>3.9999999999999996</ele><time>2026-03-29T10:10:35.577Z</time></trkpt><trkpt lat="44.04844" lon="12.5865217"><ele>4.0</ele><time>2026-03-29T10:10:37.577Z</time></trkpt><trkpt lat="44.0484867" lon="12.5863983"><ele>3.9999999999999996</ele><time>2026-03-29T10:10:39.576Z</time></trkpt><trkpt lat="44.0485517" lon="12.58632"><ele>4.0</ele><time>2026-03-29T10:10:40.577Z</time></trkpt><trkpt lat="44.0486017" lon="12.586255"><ele>4.0</ele><time>2026-03-29T10:10:41.576Z</time></trkpt><trkpt lat="44.0486683" lon="12.5862117"><ele>4.0</ele><time>2026-03-29T10:10:43.577Z</time></trkpt><trkpt lat="44.0487383" lon="12.58627"><ele>3.9999999999999996</ele><time>2026-03-29T10:10:46.577Z</time></trkpt><trkpt lat="44.04868" lon="12.5863333"><ele>4.0</ele><time>2026-03-29T10:17:10.578Z</time></trkpt><trkpt lat="44.0486817" lon="12.5861817"><ele>4.0</ele><time>2026-03-29T10:17:11.578Z</time></trkpt><trkpt lat="44.0485917" lon="12.5860883"><ele>6.0</ele><time>2026-03-29T10:17:30.577Z</time></trkpt><trkpt lat="44.048655" lon="12.5861467"><ele>6.0</ele><time>2026-03-29T10:17:42.578Z</time></trkpt><trkpt lat="44.0487417" lon="12.58619"><ele>4.0</ele><time>2026-03-29T10:17:51.577Z</time></trkpt><trkpt lat="44.0487467" lon="12.58628"><ele>4.0</ele><time>2026-03-29T10:18:43.577Z</time></trkpt><trkpt lat="44.04866" lon="12.5863483"><ele>4.0</ele><time>2026-03-29T10:20:18.578Z</time></trkpt></trkseg></trk></gpx>